<?xml version="1.0" encoding="UTF-8" standalone="no" ?>
<gpx xmlns="http://www.topografix.com/GPX/1/1" xmlns:xsi="http://www.w3.org/2001/XMLSchema-instance" xsi:schemaLocation="http://www.topografix.com/GPX/1/1 http://www.topografix.com/GPX/1/1/gpx.xsd" version="1.1" creator="VisuGPX - https://www.visugpx.com">
  <metadata>
    <name>Echenans, Raynans, Issans, Allondans, Malauxdans, Tétrolans, ...</name>
    <desc><![CDATA[Echenans, Raynans, Issans, Allondans, Malauxdans, Tétrolans, ...]]></desc>
  </metadata>
  <wpt lat="47.49553" lon="6.757">
    <ele>325</ele>
    <name><![CDATA[Point de cheminement 1]]></name>
    <desc><![CDATA[]]></desc>
  </wpt>
  <wpt lat="47.49144" lon="6.75874">
    <ele>331</ele>
    <name><![CDATA[Point de cheminement 2]]></name>
    <desc><![CDATA[]]></desc>
  </wpt>
  <wpt lat="47.51018" lon="6.73661">
    <ele>364</ele>
    <name><![CDATA[Point de cheminement 3]]></name>
    <desc><![CDATA[]]></desc>
  </wpt>
  <wpt lat="47.52204" lon="6.75082">
    <ele>363</ele>
    <name><![CDATA[Point de cheminement 4]]></name>
    <desc><![CDATA[]]></desc>
  </wpt>
  <wpt lat="47.53046" lon="6.76698">
    <ele>380</ele>
    <name><![CDATA[Point de cheminement 5]]></name>
    <desc><![CDATA[]]></desc>
  </wpt>
  <wpt lat="47.54287" lon="6.74278">
    <ele>441</ele>
    <name><![CDATA[Point de cheminement 6]]></name>
    <desc><![CDATA[]]></desc>
  </wpt>
  <wpt lat="47.53723" lon="6.71321">
    <ele>398</ele>
    <name><![CDATA[Point de cheminement 7]]></name>
    <desc><![CDATA[]]></desc>
  </wpt>
  <wpt lat="47.51778" lon="6.71012">
    <ele>398</ele>
    <name><![CDATA[Point de cheminement 8]]></name>
    <desc><![CDATA[]]></desc>
  </wpt>
  <wpt lat="47.50936" lon="6.72851">
    <ele>427</ele>
    <name><![CDATA[Point de cheminement 9]]></name>
    <desc><![CDATA[]]></desc>
  </wpt>
  <wpt lat="47.50078" lon="6.75665">
    <ele>353</ele>
    <name><![CDATA[Point de cheminement 10]]></name>
    <desc><![CDATA[]]></desc>
  </wpt>
  <wpt lat="47.51687" lon="6.77544">
    <ele>390</ele>
    <name><![CDATA[Point de cheminement 11]]></name>
    <desc><![CDATA[]]></desc>
  </wpt>
  <trk>
    <name><![CDATA[Rue Antoine Coysevox]]></name>
    <desc><![CDATA[]]></desc>
    <trkseg>
      <trkpt lat="47.51803" lon="6.77506">
        <ele>389</ele>
        <time>2015-10-11T07:14:35.000Z</time>
      </trkpt>
      <trkpt lat="47.51802" lon="6.77501">
        <ele>389</ele>
        <time>2015-10-11T07:14:43.000Z</time>
      </trkpt>
      <trkpt lat="47.51801" lon="6.77497">
        <ele>388</ele>
        <time>2015-10-11T07:14:44.000Z</time>
      </trkpt>
      <trkpt lat="47.51802" lon="6.77497">
        <ele>388</ele>
        <time>2015-10-11T07:14:51.000Z</time>
      </trkpt>
      <trkpt lat="47.51803" lon="6.77503">
        <ele>389</ele>
        <time>2015-10-11T07:14:52.000Z</time>
      </trkpt>
      <trkpt lat="47.51804" lon="6.77501">
        <ele>389</ele>
        <time>2015-10-11T07:16:29.000Z</time>
      </trkpt>
      <trkpt lat="47.51805" lon="6.77487">
        <ele>388</ele>
        <time>2015-10-11T07:16:30.000Z</time>
      </trkpt>
      <trkpt lat="47.51802" lon="6.77483">
        <ele>388</ele>
        <time>2015-10-11T07:17:05.000Z</time>
      </trkpt>
      <trkpt lat="47.51801" lon="6.77482">
        <ele>388</ele>
        <time>2015-10-11T07:17:06.000Z</time>
      </trkpt>
      <trkpt lat="47.51802" lon="6.77476">
        <ele>388</ele>
        <time>2015-10-11T07:17:12.000Z</time>
      </trkpt>
      <trkpt lat="47.51802" lon="6.77475">
        <ele>388</ele>
        <time>2015-10-11T07:17:13.000Z</time>
      </trkpt>
      <trkpt lat="47.51805" lon="6.77481">
        <ele>388</ele>
        <time>2015-10-11T07:18:12.000Z</time>
      </trkpt>
      <trkpt lat="47.51805" lon="6.77481">
        <ele>388</ele>
        <time>2015-10-11T07:18:13.000Z</time>
      </trkpt>
      <trkpt lat="47.51809" lon="6.77485">
        <ele>388</ele>
        <time>2015-10-11T07:18:17.000Z</time>
      </trkpt>
      <trkpt lat="47.5181" lon="6.77487">
        <ele>388</ele>
        <time>2015-10-11T07:18:18.000Z</time>
      </trkpt>
      <trkpt lat="47.51808" lon="6.77491">
        <ele>388</ele>
        <time>2015-10-11T07:18:20.000Z</time>
      </trkpt>
      <trkpt lat="47.51805" lon="6.77491">
        <ele>388</ele>
        <time>2015-10-11T07:18:21.000Z</time>
      </trkpt>
      <trkpt lat="47.51801" lon="6.77491">
        <ele>388</ele>
        <time>2015-10-11T07:18:22.000Z</time>
      </trkpt>
      <trkpt lat="47.51796" lon="6.7749">
        <ele>388</ele>
        <time>2015-10-11T07:18:23.000Z</time>
      </trkpt>
      <trkpt lat="47.51792" lon="6.77489">
        <ele>388</ele>
        <time>2015-10-11T07:18:24.000Z</time>
      </trkpt>
      <trkpt lat="47.51787" lon="6.77488">
        <ele>388</ele>
        <time>2015-10-11T07:18:25.000Z</time>
      </trkpt>
      <trkpt lat="47.51783" lon="6.77486">
        <ele>388</ele>
        <time>2015-10-11T07:18:26.000Z</time>
      </trkpt>
      <trkpt lat="47.51779" lon="6.77485">
        <ele>388</ele>
        <time>2015-10-11T07:18:27.000Z</time>
      </trkpt>
      <trkpt lat="47.51775" lon="6.77483">
        <ele>388</ele>
        <time>2015-10-11T07:18:28.000Z</time>
      </trkpt>
      <trkpt lat="47.51771" lon="6.77481">
        <ele>388</ele>
        <time>2015-10-11T07:18:29.000Z</time>
      </trkpt>
      <trkpt lat="47.51767" lon="6.7748">
        <ele>389</ele>
        <time>2015-10-11T07:18:30.000Z</time>
      </trkpt>
      <trkpt lat="47.51762" lon="6.77479">
        <ele>389</ele>
        <time>2015-10-11T07:18:31.000Z</time>
      </trkpt>
      <trkpt lat="47.51756" lon="6.77479">
        <ele>389</ele>
        <time>2015-10-11T07:18:32.000Z</time>
      </trkpt>
      <trkpt lat="47.51751" lon="6.77478">
        <ele>389</ele>
        <time>2015-10-11T07:18:33.000Z</time>
      </trkpt>
      <trkpt lat="47.51746" lon="6.77477">
        <ele>389</ele>
        <time>2015-10-11T07:18:34.000Z</time>
      </trkpt>
      <trkpt lat="47.51742" lon="6.77476">
        <ele>389</ele>
        <time>2015-10-11T07:18:35.000Z</time>
      </trkpt>
      <trkpt lat="47.51739" lon="6.77476">
        <ele>389</ele>
        <time>2015-10-11T07:18:36.000Z</time>
      </trkpt>
      <trkpt lat="47.51736" lon="6.77476">
        <ele>389</ele>
        <time>2015-10-11T07:18:37.000Z</time>
      </trkpt>
      <trkpt lat="47.51732" lon="6.77478">
        <ele>389</ele>
        <time>2015-10-11T07:18:38.000Z</time>
      </trkpt>
      <trkpt lat="47.51729" lon="6.77482">
        <ele>389</ele>
        <time>2015-10-11T07:18:39.000Z</time>
      </trkpt>
      <trkpt lat="47.51726" lon="6.77487">
        <ele>389</ele>
        <time>2015-10-11T07:18:40.000Z</time>
      </trkpt>
      <trkpt lat="47.51724" lon="6.77493">
        <ele>389</ele>
        <time>2015-10-11T07:18:41.000Z</time>
      </trkpt>
      <trkpt lat="47.51723" lon="6.775">
        <ele>389</ele>
        <time>2015-10-11T07:18:42.000Z</time>
      </trkpt>
      <trkpt lat="47.51722" lon="6.77506">
        <ele>390</ele>
        <time>2015-10-11T07:18:43.000Z</time>
      </trkpt>
      <trkpt lat="47.51721" lon="6.77513">
        <ele>390</ele>
        <time>2015-10-11T07:18:44.000Z</time>
      </trkpt>
      <trkpt lat="47.5172" lon="6.7752">
        <ele>390</ele>
        <time>2015-10-11T07:18:45.000Z</time>
      </trkpt>
      <trkpt lat="47.51719" lon="6.77527">
        <ele>390</ele>
        <time>2015-10-11T07:18:46.000Z</time>
      </trkpt>
      <trkpt lat="47.51718" lon="6.77535">
        <ele>390</ele>
        <time>2015-10-11T07:18:47.000Z</time>
      </trkpt>
      <trkpt lat="47.51718" lon="6.77542">
        <ele>390</ele>
        <time>2015-10-11T07:18:48.000Z</time>
      </trkpt>
      <trkpt lat="47.51716" lon="6.77548">
        <ele>390</ele>
        <time>2015-10-11T07:18:49.000Z</time>
      </trkpt>
      <trkpt lat="47.51712" lon="6.77551">
        <ele>390</ele>
        <time>2015-10-11T07:18:50.000Z</time>
      </trkpt>
      <trkpt lat="47.51709" lon="6.77554">
        <ele>390</ele>
        <time>2015-10-11T07:18:51.000Z</time>
      </trkpt>
      <trkpt lat="47.51705" lon="6.77549">
        <ele>390</ele>
        <time>2015-10-11T07:18:52.000Z</time>
      </trkpt>
      <trkpt lat="47.51701" lon="6.77544">
        <ele>390</ele>
        <time>2015-10-11T07:18:53.000Z</time>
      </trkpt>
      <trkpt lat="47.51698" lon="6.7754">
        <ele>390</ele>
        <time>2015-10-11T07:18:54.000Z</time>
      </trkpt>
      <trkpt lat="47.51694" lon="6.77535">
        <ele>390</ele>
        <time>2015-10-11T07:18:55.000Z</time>
      </trkpt>
      <trkpt lat="47.5169" lon="6.77531">
        <ele>390</ele>
        <time>2015-10-11T07:18:56.000Z</time>
      </trkpt>
      <trkpt lat="47.51686" lon="6.77527">
        <ele>390</ele>
        <time>2015-10-11T07:18:57.000Z</time>
      </trkpt>
      <trkpt lat="47.51682" lon="6.77521">
        <ele>390</ele>
        <time>2015-10-11T07:18:58.000Z</time>
      </trkpt>
      <trkpt lat="47.51678" lon="6.77516">
        <ele>389</ele>
        <time>2015-10-11T07:18:59.000Z</time>
      </trkpt>
      <trkpt lat="47.51673" lon="6.77511">
        <ele>389</ele>
        <time>2015-10-11T07:19:00.000Z</time>
      </trkpt>
      <trkpt lat="47.51668" lon="6.77505">
        <ele>389</ele>
        <time>2015-10-11T07:19:01.000Z</time>
      </trkpt>
      <trkpt lat="47.51663" lon="6.77499">
        <ele>389</ele>
        <time>2015-10-11T07:19:02.000Z</time>
      </trkpt>
      <trkpt lat="47.51658" lon="6.77494">
        <ele>388</ele>
        <time>2015-10-11T07:19:03.000Z</time>
      </trkpt>
      <trkpt lat="47.51653" lon="6.77487">
        <ele>387</ele>
        <time>2015-10-11T07:19:04.000Z</time>
      </trkpt>
      <trkpt lat="47.51648" lon="6.77481">
        <ele>387</ele>
        <time>2015-10-11T07:19:05.000Z</time>
      </trkpt>
      <trkpt lat="47.51643" lon="6.77474">
        <ele>386</ele>
        <time>2015-10-11T07:19:06.000Z</time>
      </trkpt>
      <trkpt lat="47.51637" lon="6.77468">
        <ele>386</ele>
        <time>2015-10-11T07:19:07.000Z</time>
      </trkpt>
      <trkpt lat="47.51631" lon="6.77461">
        <ele>386</ele>
        <time>2015-10-11T07:19:08.000Z</time>
      </trkpt>
      <trkpt lat="47.51626" lon="6.77454">
        <ele>386</ele>
        <time>2015-10-11T07:19:09.000Z</time>
      </trkpt>
      <trkpt lat="47.5162" lon="6.77447">
        <ele>385</ele>
        <time>2015-10-11T07:19:10.000Z</time>
      </trkpt>
      <trkpt lat="47.51614" lon="6.7744">
        <ele>385</ele>
        <time>2015-10-11T07:19:11.000Z</time>
      </trkpt>
      <trkpt lat="47.51608" lon="6.77432">
        <ele>385</ele>
        <time>2015-10-11T07:19:12.000Z</time>
      </trkpt>
      <trkpt lat="47.51602" lon="6.77425">
        <ele>385</ele>
        <time>2015-10-11T07:19:13.000Z</time>
      </trkpt>
      <trkpt lat="47.51596" lon="6.77418">
        <ele>384</ele>
        <time>2015-10-11T07:19:14.000Z</time>
      </trkpt>
      <trkpt lat="47.5159" lon="6.77411">
        <ele>383</ele>
        <time>2015-10-11T07:19:15.000Z</time>
      </trkpt>
      <trkpt lat="47.51583" lon="6.77404">
        <ele>382</ele>
        <time>2015-10-11T07:19:16.000Z</time>
      </trkpt>
      <trkpt lat="47.51576" lon="6.77396">
        <ele>382</ele>
        <time>2015-10-11T07:19:17.000Z</time>
      </trkpt>
      <trkpt lat="47.5157" lon="6.77388">
        <ele>381</ele>
        <time>2015-10-11T07:19:18.000Z</time>
      </trkpt>
      <trkpt lat="47.51563" lon="6.77381">
        <ele>381</ele>
        <time>2015-10-11T07:19:19.000Z</time>
      </trkpt>
      <trkpt lat="47.51556" lon="6.77373">
        <ele>381</ele>
        <time>2015-10-11T07:19:20.000Z</time>
      </trkpt>
      <trkpt lat="47.51549" lon="6.77365">
        <ele>381</ele>
        <time>2015-10-11T07:19:21.000Z</time>
      </trkpt>
      <trkpt lat="47.51542" lon="6.77357">
        <ele>380</ele>
        <time>2015-10-11T07:19:22.000Z</time>
      </trkpt>
      <trkpt lat="47.51535" lon="6.77348">
        <ele>380</ele>
        <time>2015-10-11T07:19:23.000Z</time>
      </trkpt>
      <trkpt lat="47.51527" lon="6.77339">
        <ele>380</ele>
        <time>2015-10-11T07:19:24.000Z</time>
      </trkpt>
      <trkpt lat="47.5152" lon="6.7733">
        <ele>378</ele>
        <time>2015-10-11T07:19:25.000Z</time>
      </trkpt>
      <trkpt lat="47.51512" lon="6.77321">
        <ele>378</ele>
        <time>2015-10-11T07:19:26.000Z</time>
      </trkpt>
      <trkpt lat="47.51504" lon="6.77312">
        <ele>378</ele>
        <time>2015-10-11T07:19:27.000Z</time>
      </trkpt>
      <trkpt lat="47.51497" lon="6.77301">
        <ele>377</ele>
        <time>2015-10-11T07:19:28.000Z</time>
      </trkpt>
      <trkpt lat="47.51492" lon="6.77289">
        <ele>377</ele>
        <time>2015-10-11T07:19:29.000Z</time>
      </trkpt>
      <trkpt lat="47.51489" lon="6.77275">
        <ele>377</ele>
        <time>2015-10-11T07:19:30.000Z</time>
      </trkpt>
      <trkpt lat="47.51487" lon="6.77262">
        <ele>376</ele>
        <time>2015-10-11T07:19:31.000Z</time>
      </trkpt>
      <trkpt lat="47.51486" lon="6.77249">
        <ele>376</ele>
        <time>2015-10-11T07:19:32.000Z</time>
      </trkpt>
      <trkpt lat="47.51485" lon="6.77235">
        <ele>375</ele>
        <time>2015-10-11T07:19:33.000Z</time>
      </trkpt>
      <trkpt lat="47.51485" lon="6.77223">
        <ele>375</ele>
        <time>2015-10-11T07:19:34.000Z</time>
      </trkpt>
      <trkpt lat="47.51484" lon="6.77211">
        <ele>375</ele>
        <time>2015-10-11T07:19:35.000Z</time>
      </trkpt>
      <trkpt lat="47.51481" lon="6.77202">
        <ele>375</ele>
        <time>2015-10-11T07:19:36.000Z</time>
      </trkpt>
      <trkpt lat="47.51474" lon="6.77196">
        <ele>375</ele>
        <time>2015-10-11T07:19:37.000Z</time>
      </trkpt>
      <trkpt lat="47.51467" lon="6.77195">
        <ele>375</ele>
        <time>2015-10-11T07:19:38.000Z</time>
      </trkpt>
      <trkpt lat="47.5146" lon="6.77195">
        <ele>375</ele>
        <time>2015-10-11T07:19:39.000Z</time>
      </trkpt>
      <trkpt lat="47.51452" lon="6.77201">
        <ele>375</ele>
        <time>2015-10-11T07:19:40.000Z</time>
      </trkpt>
      <trkpt lat="47.51444" lon="6.77205">
        <ele>375</ele>
        <time>2015-10-11T07:19:41.000Z</time>
      </trkpt>
      <trkpt lat="47.51436" lon="6.77209">
        <ele>375</ele>
        <time>2015-10-11T07:19:42.000Z</time>
      </trkpt>
      <trkpt lat="47.51428" lon="6.77213">
        <ele>375</ele>
        <time>2015-10-11T07:19:43.000Z</time>
      </trkpt>
      <trkpt lat="47.51421" lon="6.77218">
        <ele>375</ele>
        <time>2015-10-11T07:19:44.000Z</time>
      </trkpt>
      <trkpt lat="47.51415" lon="6.77219">
        <ele>375</ele>
        <time>2015-10-11T07:19:45.000Z</time>
      </trkpt>
      <trkpt lat="47.51408" lon="6.77222">
        <ele>376</ele>
        <time>2015-10-11T07:19:46.000Z</time>
      </trkpt>
      <trkpt lat="47.51403" lon="6.77225">
        <ele>376</ele>
        <time>2015-10-11T07:19:47.000Z</time>
      </trkpt>
      <trkpt lat="47.51397" lon="6.77229">
        <ele>376</ele>
        <time>2015-10-11T07:19:48.000Z</time>
      </trkpt>
      <trkpt lat="47.51392" lon="6.77231">
        <ele>376</ele>
        <time>2015-10-11T07:19:49.000Z</time>
      </trkpt>
      <trkpt lat="47.51387" lon="6.77234">
        <ele>376</ele>
        <time>2015-10-11T07:19:50.000Z</time>
      </trkpt>
      <trkpt lat="47.51383" lon="6.77237">
        <ele>376</ele>
        <time>2015-10-11T07:19:51.000Z</time>
      </trkpt>
      <trkpt lat="47.51379" lon="6.77239">
        <ele>376</ele>
        <time>2015-10-11T07:19:52.000Z</time>
      </trkpt>
      <trkpt lat="47.51375" lon="6.77241">
        <ele>376</ele>
        <time>2015-10-11T07:19:53.000Z</time>
      </trkpt>
      <trkpt lat="47.51371" lon="6.77243">
        <ele>376</ele>
        <time>2015-10-11T07:19:54.000Z</time>
      </trkpt>
      <trkpt lat="47.51367" lon="6.77246">
        <ele>376</ele>
        <time>2015-10-11T07:19:55.000Z</time>
      </trkpt>
      <trkpt lat="47.51364" lon="6.7725">
        <ele>376</ele>
        <time>2015-10-11T07:19:56.000Z</time>
      </trkpt>
      <trkpt lat="47.51361" lon="6.77253">
        <ele>378</ele>
        <time>2015-10-11T07:19:57.000Z</time>
      </trkpt>
      <trkpt lat="47.51359" lon="6.77256">
        <ele>378</ele>
        <time>2015-10-11T07:19:58.000Z</time>
      </trkpt>
      <trkpt lat="47.51356" lon="6.77258">
        <ele>378</ele>
        <time>2015-10-11T07:19:59.000Z</time>
      </trkpt>
      <trkpt lat="47.51354" lon="6.77261">
        <ele>378</ele>
        <time>2015-10-11T07:20:00.000Z</time>
      </trkpt>
      <trkpt lat="47.51352" lon="6.77263">
        <ele>378</ele>
        <time>2015-10-11T07:20:01.000Z</time>
      </trkpt>
      <trkpt lat="47.51349" lon="6.77265">
        <ele>378</ele>
        <time>2015-10-11T07:20:02.000Z</time>
      </trkpt>
      <trkpt lat="47.51346" lon="6.77267">
        <ele>378</ele>
        <time>2015-10-11T07:20:03.000Z</time>
      </trkpt>
      <trkpt lat="47.51344" lon="6.7727">
        <ele>378</ele>
        <time>2015-10-11T07:20:04.000Z</time>
      </trkpt>
      <trkpt lat="47.51341" lon="6.77272">
        <ele>378</ele>
        <time>2015-10-11T07:20:05.000Z</time>
      </trkpt>
      <trkpt lat="47.51339" lon="6.77274">
        <ele>378</ele>
        <time>2015-10-11T07:20:06.000Z</time>
      </trkpt>
      <trkpt lat="47.51336" lon="6.77277">
        <ele>378</ele>
        <time>2015-10-11T07:20:07.000Z</time>
      </trkpt>
      <trkpt lat="47.51333" lon="6.77278">
        <ele>377</ele>
        <time>2015-10-11T07:20:08.000Z</time>
      </trkpt>
      <trkpt lat="47.5133" lon="6.77279">
        <ele>377</ele>
        <time>2015-10-11T07:20:09.000Z</time>
      </trkpt>
      <trkpt lat="47.51327" lon="6.7728">
        <ele>377</ele>
        <time>2015-10-11T07:20:10.000Z</time>
      </trkpt>
      <trkpt lat="47.51324" lon="6.7728">
        <ele>377</ele>
        <time>2015-10-11T07:20:11.000Z</time>
      </trkpt>
      <trkpt lat="47.51321" lon="6.77279">
        <ele>377</ele>
        <time>2015-10-11T07:20:12.000Z</time>
      </trkpt>
      <trkpt lat="47.51317" lon="6.77279">
        <ele>377</ele>
        <time>2015-10-11T07:20:13.000Z</time>
      </trkpt>
      <trkpt lat="47.51314" lon="6.77277">
        <ele>377</ele>
        <time>2015-10-11T07:20:14.000Z</time>
      </trkpt>
      <trkpt lat="47.51311" lon="6.77276">
        <ele>377</ele>
        <time>2015-10-11T07:20:15.000Z</time>
      </trkpt>
      <trkpt lat="47.51307" lon="6.77274">
        <ele>377</ele>
        <time>2015-10-11T07:20:16.000Z</time>
      </trkpt>
      <trkpt lat="47.51304" lon="6.77273">
        <ele>377</ele>
        <time>2015-10-11T07:20:17.000Z</time>
      </trkpt>
      <trkpt lat="47.51301" lon="6.77271">
        <ele>377</ele>
        <time>2015-10-11T07:20:18.000Z</time>
      </trkpt>
      <trkpt lat="47.51297" lon="6.7727">
        <ele>377</ele>
        <time>2015-10-11T07:20:19.000Z</time>
      </trkpt>
      <trkpt lat="47.51294" lon="6.77268">
        <ele>377</ele>
        <time>2015-10-11T07:20:20.000Z</time>
      </trkpt>
      <trkpt lat="47.5129" lon="6.77266">
        <ele>377</ele>
        <time>2015-10-11T07:20:21.000Z</time>
      </trkpt>
      <trkpt lat="47.51287" lon="6.77264">
        <ele>377</ele>
        <time>2015-10-11T07:20:22.000Z</time>
      </trkpt>
      <trkpt lat="47.51283" lon="6.77262">
        <ele>377</ele>
        <time>2015-10-11T07:20:23.000Z</time>
      </trkpt>
      <trkpt lat="47.5128" lon="6.7726">
        <ele>377</ele>
        <time>2015-10-11T07:20:24.000Z</time>
      </trkpt>
      <trkpt lat="47.51277" lon="6.77258">
        <ele>377</ele>
        <time>2015-10-11T07:20:25.000Z</time>
      </trkpt>
      <trkpt lat="47.51274" lon="6.77256">
        <ele>377</ele>
        <time>2015-10-11T07:20:26.000Z</time>
      </trkpt>
      <trkpt lat="47.51271" lon="6.77254">
        <ele>378</ele>
        <time>2015-10-11T07:20:27.000Z</time>
      </trkpt>
      <trkpt lat="47.51269" lon="6.7725">
        <ele>378</ele>
        <time>2015-10-11T07:21:00.000Z</time>
      </trkpt>
      <trkpt lat="47.51267" lon="6.77248">
        <ele>378</ele>
        <time>2015-10-11T07:21:01.000Z</time>
      </trkpt>
      <trkpt lat="47.51265" lon="6.77246">
        <ele>378</ele>
        <time>2015-10-11T07:21:02.000Z</time>
      </trkpt>
      <trkpt lat="47.51262" lon="6.77244">
        <ele>378</ele>
        <time>2015-10-11T07:21:03.000Z</time>
      </trkpt>
      <trkpt lat="47.5126" lon="6.7724">
        <ele>378</ele>
        <time>2015-10-11T07:21:04.000Z</time>
      </trkpt>
      <trkpt lat="47.51257" lon="6.77236">
        <ele>378</ele>
        <time>2015-10-11T07:21:05.000Z</time>
      </trkpt>
      <trkpt lat="47.51254" lon="6.77232">
        <ele>378</ele>
        <time>2015-10-11T07:21:06.000Z</time>
      </trkpt>
      <trkpt lat="47.51251" lon="6.77227">
        <ele>378</ele>
        <time>2015-10-11T07:21:07.000Z</time>
      </trkpt>
      <trkpt lat="47.51247" lon="6.77219">
        <ele>376</ele>
        <time>2015-10-11T07:21:08.000Z</time>
      </trkpt>
      <trkpt lat="47.51244" lon="6.77213">
        <ele>376</ele>
        <time>2015-10-11T07:21:09.000Z</time>
      </trkpt>
      <trkpt lat="47.51241" lon="6.77208">
        <ele>376</ele>
        <time>2015-10-11T07:21:10.000Z</time>
      </trkpt>
      <trkpt lat="47.51239" lon="6.77202">
        <ele>376</ele>
        <time>2015-10-11T07:21:11.000Z</time>
      </trkpt>
      <trkpt lat="47.51236" lon="6.77196">
        <ele>376</ele>
        <time>2015-10-11T07:21:12.000Z</time>
      </trkpt>
      <trkpt lat="47.51233" lon="6.77191">
        <ele>376</ele>
        <time>2015-10-11T07:21:13.000Z</time>
      </trkpt>
      <trkpt lat="47.5123" lon="6.77186">
        <ele>377</ele>
        <time>2015-10-11T07:21:14.000Z</time>
      </trkpt>
      <trkpt lat="47.51227" lon="6.7718">
        <ele>377</ele>
        <time>2015-10-11T07:21:15.000Z</time>
      </trkpt>
      <trkpt lat="47.51224" lon="6.77174">
        <ele>377</ele>
        <time>2015-10-11T07:21:16.000Z</time>
      </trkpt>
      <trkpt lat="47.51221" lon="6.77169">
        <ele>377</ele>
        <time>2015-10-11T07:21:17.000Z</time>
      </trkpt>
      <trkpt lat="47.51218" lon="6.77163">
        <ele>378</ele>
        <time>2015-10-11T07:21:18.000Z</time>
      </trkpt>
      <trkpt lat="47.51215" lon="6.77157">
        <ele>378</ele>
        <time>2015-10-11T07:21:19.000Z</time>
      </trkpt>
      <trkpt lat="47.51211" lon="6.77151">
        <ele>378</ele>
        <time>2015-10-11T07:21:20.000Z</time>
      </trkpt>
      <trkpt lat="47.51208" lon="6.77145">
        <ele>378</ele>
        <time>2015-10-11T07:21:21.000Z</time>
      </trkpt>
      <trkpt lat="47.51205" lon="6.77139">
        <ele>378</ele>
        <time>2015-10-11T07:21:22.000Z</time>
      </trkpt>
      <trkpt lat="47.51201" lon="6.77132">
        <ele>378</ele>
        <time>2015-10-11T07:21:23.000Z</time>
      </trkpt>
      <trkpt lat="47.51197" lon="6.77125">
        <ele>378</ele>
        <time>2015-10-11T07:21:24.000Z</time>
      </trkpt>
      <trkpt lat="47.51194" lon="6.77118">
        <ele>378</ele>
        <time>2015-10-11T07:21:25.000Z</time>
      </trkpt>
      <trkpt lat="47.5119" lon="6.77111">
        <ele>378</ele>
        <time>2015-10-11T07:21:26.000Z</time>
      </trkpt>
      <trkpt lat="47.51186" lon="6.77104">
        <ele>378</ele>
        <time>2015-10-11T07:21:27.000Z</time>
      </trkpt>
      <trkpt lat="47.51182" lon="6.77097">
        <ele>378</ele>
        <time>2015-10-11T07:21:28.000Z</time>
      </trkpt>
      <trkpt lat="47.51178" lon="6.7709">
        <ele>378</ele>
        <time>2015-10-11T07:21:29.000Z</time>
      </trkpt>
      <trkpt lat="47.51174" lon="6.77083">
        <ele>377</ele>
        <time>2015-10-11T07:21:30.000Z</time>
      </trkpt>
      <trkpt lat="47.51169" lon="6.77076">
        <ele>377</ele>
        <time>2015-10-11T07:21:31.000Z</time>
      </trkpt>
      <trkpt lat="47.51165" lon="6.7707">
        <ele>377</ele>
        <time>2015-10-11T07:21:32.000Z</time>
      </trkpt>
      <trkpt lat="47.5116" lon="6.77064">
        <ele>376</ele>
        <time>2015-10-11T07:21:33.000Z</time>
      </trkpt>
      <trkpt lat="47.51155" lon="6.77058">
        <ele>376</ele>
        <time>2015-10-11T07:21:34.000Z</time>
      </trkpt>
      <trkpt lat="47.5115" lon="6.77052">
        <ele>376</ele>
        <time>2015-10-11T07:21:35.000Z</time>
      </trkpt>
      <trkpt lat="47.51145" lon="6.77047">
        <ele>376</ele>
        <time>2015-10-11T07:21:36.000Z</time>
      </trkpt>
      <trkpt lat="47.51139" lon="6.77043">
        <ele>375</ele>
        <time>2015-10-11T07:21:37.000Z</time>
      </trkpt>
      <trkpt lat="47.51133" lon="6.77038">
        <ele>375</ele>
        <time>2015-10-11T07:21:38.000Z</time>
      </trkpt>
      <trkpt lat="47.51128" lon="6.77034">
        <ele>375</ele>
        <time>2015-10-11T07:21:39.000Z</time>
      </trkpt>
      <trkpt lat="47.51123" lon="6.77029">
        <ele>375</ele>
        <time>2015-10-11T07:21:40.000Z</time>
      </trkpt>
      <trkpt lat="47.51118" lon="6.77024">
        <ele>375</ele>
        <time>2015-10-11T07:21:41.000Z</time>
      </trkpt>
      <trkpt lat="47.51113" lon="6.77019">
        <ele>375</ele>
        <time>2015-10-11T07:21:42.000Z</time>
      </trkpt>
      <trkpt lat="47.51108" lon="6.77015">
        <ele>375</ele>
        <time>2015-10-11T07:21:43.000Z</time>
      </trkpt>
      <trkpt lat="47.51103" lon="6.7701">
        <ele>375</ele>
        <time>2015-10-11T07:21:44.000Z</time>
      </trkpt>
      <trkpt lat="47.51098" lon="6.77006">
        <ele>375</ele>
        <time>2015-10-11T07:21:45.000Z</time>
      </trkpt>
      <trkpt lat="47.51092" lon="6.77002">
        <ele>375</ele>
        <time>2015-10-11T07:21:46.000Z</time>
      </trkpt>
      <trkpt lat="47.51087" lon="6.76998">
        <ele>375</ele>
        <time>2015-10-11T07:21:47.000Z</time>
      </trkpt>
      <trkpt lat="47.51082" lon="6.76994">
        <ele>375</ele>
        <time>2015-10-11T07:21:48.000Z</time>
      </trkpt>
      <trkpt lat="47.51076" lon="6.76989">
        <ele>375</ele>
        <time>2015-10-11T07:21:49.000Z</time>
      </trkpt>
      <trkpt lat="47.51071" lon="6.76984">
        <ele>375</ele>
        <time>2015-10-11T07:21:50.000Z</time>
      </trkpt>
      <trkpt lat="47.51066" lon="6.7698">
        <ele>375</ele>
        <time>2015-10-11T07:21:51.000Z</time>
      </trkpt>
      <trkpt lat="47.51061" lon="6.76976">
        <ele>375</ele>
        <time>2015-10-11T07:21:52.000Z</time>
      </trkpt>
      <trkpt lat="47.51057" lon="6.76971">
        <ele>375</ele>
        <time>2015-10-11T07:21:53.000Z</time>
      </trkpt>
      <trkpt lat="47.51051" lon="6.76967">
        <ele>375</ele>
        <time>2015-10-11T07:21:54.000Z</time>
      </trkpt>
      <trkpt lat="47.51046" lon="6.76963">
        <ele>375</ele>
        <time>2015-10-11T07:21:55.000Z</time>
      </trkpt>
      <trkpt lat="47.51041" lon="6.76958">
        <ele>375</ele>
        <time>2015-10-11T07:21:56.000Z</time>
      </trkpt>
      <trkpt lat="47.51036" lon="6.76954">
        <ele>375</ele>
        <time>2015-10-11T07:21:57.000Z</time>
      </trkpt>
      <trkpt lat="47.51032" lon="6.76949">
        <ele>375</ele>
        <time>2015-10-11T07:21:58.000Z</time>
      </trkpt>
      <trkpt lat="47.51027" lon="6.76945">
        <ele>375</ele>
        <time>2015-10-11T07:21:59.000Z</time>
      </trkpt>
      <trkpt lat="47.51023" lon="6.76942">
        <ele>375</ele>
        <time>2015-10-11T07:22:00.000Z</time>
      </trkpt>
      <trkpt lat="47.51019" lon="6.7694">
        <ele>375</ele>
        <time>2015-10-11T07:22:01.000Z</time>
      </trkpt>
      <trkpt lat="47.51014" lon="6.76938">
        <ele>375</ele>
        <time>2015-10-11T07:22:02.000Z</time>
      </trkpt>
      <trkpt lat="47.51009" lon="6.76936">
        <ele>375</ele>
        <time>2015-10-11T07:22:03.000Z</time>
      </trkpt>
      <trkpt lat="47.51005" lon="6.76934">
        <ele>375</ele>
        <time>2015-10-11T07:22:04.000Z</time>
      </trkpt>
      <trkpt lat="47.51002" lon="6.76931">
        <ele>375</ele>
        <time>2015-10-11T07:22:05.000Z</time>
      </trkpt>
      <trkpt lat="47.50999" lon="6.76928">
        <ele>375</ele>
        <time>2015-10-11T07:22:06.000Z</time>
      </trkpt>
      <trkpt lat="47.50996" lon="6.76923">
        <ele>375</ele>
        <time>2015-10-11T07:22:07.000Z</time>
      </trkpt>
      <trkpt lat="47.50994" lon="6.76919">
        <ele>375</ele>
        <time>2015-10-11T07:22:08.000Z</time>
      </trkpt>
      <trkpt lat="47.50992" lon="6.76913">
        <ele>376</ele>
        <time>2015-10-11T07:22:09.000Z</time>
      </trkpt>
      <trkpt lat="47.50988" lon="6.76908">
        <ele>377</ele>
        <time>2015-10-11T07:22:10.000Z</time>
      </trkpt>
      <trkpt lat="47.50985" lon="6.76901">
        <ele>377</ele>
        <time>2015-10-11T07:22:11.000Z</time>
      </trkpt>
      <trkpt lat="47.50981" lon="6.76897">
        <ele>377</ele>
        <time>2015-10-11T07:22:12.000Z</time>
      </trkpt>
      <trkpt lat="47.50975" lon="6.76896">
        <ele>377</ele>
        <time>2015-10-11T07:22:13.000Z</time>
      </trkpt>
      <trkpt lat="47.50969" lon="6.76896">
        <ele>377</ele>
        <time>2015-10-11T07:22:14.000Z</time>
      </trkpt>
      <trkpt lat="47.50964" lon="6.76894">
        <ele>377</ele>
        <time>2015-10-11T07:22:15.000Z</time>
      </trkpt>
      <trkpt lat="47.50958" lon="6.7689">
        <ele>377</ele>
        <time>2015-10-11T07:22:16.000Z</time>
      </trkpt>
      <trkpt lat="47.50953" lon="6.76886">
        <ele>378</ele>
        <time>2015-10-11T07:22:17.000Z</time>
      </trkpt>
      <trkpt lat="47.50947" lon="6.76881">
        <ele>378</ele>
        <time>2015-10-11T07:22:18.000Z</time>
      </trkpt>
      <trkpt lat="47.50942" lon="6.76876">
        <ele>378</ele>
        <time>2015-10-11T07:22:19.000Z</time>
      </trkpt>
      <trkpt lat="47.50937" lon="6.7687">
        <ele>378</ele>
        <time>2015-10-11T07:22:20.000Z</time>
      </trkpt>
      <trkpt lat="47.50933" lon="6.76864">
        <ele>378</ele>
        <time>2015-10-11T07:22:21.000Z</time>
      </trkpt>
      <trkpt lat="47.50929" lon="6.76858">
        <ele>378</ele>
        <time>2015-10-11T07:22:22.000Z</time>
      </trkpt>
      <trkpt lat="47.50926" lon="6.76852">
        <ele>379</ele>
        <time>2015-10-11T07:22:23.000Z</time>
      </trkpt>
      <trkpt lat="47.50923" lon="6.76844">
        <ele>379</ele>
        <time>2015-10-11T07:22:24.000Z</time>
      </trkpt>
      <trkpt lat="47.50919" lon="6.76838">
        <ele>380</ele>
        <time>2015-10-11T07:22:25.000Z</time>
      </trkpt>
      <trkpt lat="47.50916" lon="6.7683">
        <ele>380</ele>
        <time>2015-10-11T07:22:26.000Z</time>
      </trkpt>
      <trkpt lat="47.50912" lon="6.76824">
        <ele>380</ele>
        <time>2015-10-11T07:22:27.000Z</time>
      </trkpt>
      <trkpt lat="47.50909" lon="6.76819">
        <ele>381</ele>
        <time>2015-10-11T07:22:28.000Z</time>
      </trkpt>
      <trkpt lat="47.50905" lon="6.76813">
        <ele>381</ele>
        <time>2015-10-11T07:22:29.000Z</time>
      </trkpt>
      <trkpt lat="47.50902" lon="6.76806">
        <ele>381</ele>
        <time>2015-10-11T07:22:30.000Z</time>
      </trkpt>
      <trkpt lat="47.50899" lon="6.768">
        <ele>381</ele>
        <time>2015-10-11T07:22:31.000Z</time>
      </trkpt>
      <trkpt lat="47.50896" lon="6.76794">
        <ele>381</ele>
        <time>2015-10-11T07:22:32.000Z</time>
      </trkpt>
      <trkpt lat="47.50894" lon="6.76788">
        <ele>381</ele>
        <time>2015-10-11T07:22:33.000Z</time>
      </trkpt>
      <trkpt lat="47.50891" lon="6.76782">
        <ele>381</ele>
        <time>2015-10-11T07:22:34.000Z</time>
      </trkpt>
      <trkpt lat="47.50889" lon="6.76776">
        <ele>381</ele>
        <time>2015-10-11T07:22:35.000Z</time>
      </trkpt>
      <trkpt lat="47.50885" lon="6.76771">
        <ele>381</ele>
        <time>2015-10-11T07:22:36.000Z</time>
      </trkpt>
      <trkpt lat="47.50884" lon="6.76764">
        <ele>381</ele>
        <time>2015-10-11T07:22:37.000Z</time>
      </trkpt>
      <trkpt lat="47.50883" lon="6.7676">
        <ele>381</ele>
        <time>2015-10-11T07:22:38.000Z</time>
      </trkpt>
      <trkpt lat="47.50881" lon="6.76754">
        <ele>381</ele>
        <time>2015-10-11T07:22:39.000Z</time>
      </trkpt>
      <trkpt lat="47.5088" lon="6.76748">
        <ele>382</ele>
        <time>2015-10-11T07:22:39.999Z</time>
      </trkpt>
      <trkpt lat="47.50878" lon="6.76742">
        <ele>383</ele>
        <time>2015-10-11T07:22:41.000Z</time>
      </trkpt>
      <trkpt lat="47.50876" lon="6.76738">
        <ele>383</ele>
        <time>2015-10-11T07:22:42.000Z</time>
      </trkpt>
      <trkpt lat="47.50876" lon="6.76731">
        <ele>383</ele>
        <time>2015-10-11T07:22:43.000Z</time>
      </trkpt>
      <trkpt lat="47.50875" lon="6.76726">
        <ele>383</ele>
        <time>2015-10-11T07:22:44.000Z</time>
      </trkpt>
      <trkpt lat="47.50874" lon="6.7672">
        <ele>383</ele>
        <time>2015-10-11T07:22:45.000Z</time>
      </trkpt>
      <trkpt lat="47.50872" lon="6.76715">
        <ele>383</ele>
        <time>2015-10-11T07:22:46.000Z</time>
      </trkpt>
      <trkpt lat="47.50871" lon="6.7671">
        <ele>383</ele>
        <time>2015-10-11T07:22:47.000Z</time>
      </trkpt>
      <trkpt lat="47.50869" lon="6.76705">
        <ele>384</ele>
        <time>2015-10-11T07:22:48.000Z</time>
      </trkpt>
      <trkpt lat="47.50867" lon="6.767">
        <ele>384</ele>
        <time>2015-10-11T07:22:49.000Z</time>
      </trkpt>
      <trkpt lat="47.50864" lon="6.76695">
        <ele>384</ele>
        <time>2015-10-11T07:22:50.000Z</time>
      </trkpt>
      <trkpt lat="47.50862" lon="6.7669">
        <ele>384</ele>
        <time>2015-10-11T07:22:51.000Z</time>
      </trkpt>
      <trkpt lat="47.5086" lon="6.76685">
        <ele>385</ele>
        <time>2015-10-11T07:22:51.999Z</time>
      </trkpt>
      <trkpt lat="47.50858" lon="6.76679">
        <ele>385</ele>
        <time>2015-10-11T07:22:53.000Z</time>
      </trkpt>
      <trkpt lat="47.50856" lon="6.76673">
        <ele>385</ele>
        <time>2015-10-11T07:22:54.000Z</time>
      </trkpt>
      <trkpt lat="47.50854" lon="6.76668">
        <ele>386</ele>
        <time>2015-10-11T07:22:55.000Z</time>
      </trkpt>
      <trkpt lat="47.50852" lon="6.76663">
        <ele>387</ele>
        <time>2015-10-11T07:22:56.000Z</time>
      </trkpt>
      <trkpt lat="47.5085" lon="6.76658">
        <ele>387</ele>
        <time>2015-10-11T07:22:57.000Z</time>
      </trkpt>
      <trkpt lat="47.50848" lon="6.76653">
        <ele>387</ele>
        <time>2015-10-11T07:22:58.000Z</time>
      </trkpt>
      <trkpt lat="47.50846" lon="6.76649">
        <ele>387</ele>
        <time>2015-10-11T07:22:59.000Z</time>
      </trkpt>
      <trkpt lat="47.50844" lon="6.76644">
        <ele>387</ele>
        <time>2015-10-11T07:23:00.000Z</time>
      </trkpt>
      <trkpt lat="47.50842" lon="6.76639">
        <ele>387</ele>
        <time>2015-10-11T07:23:01.000Z</time>
      </trkpt>
      <trkpt lat="47.5084" lon="6.76634">
        <ele>387</ele>
        <time>2015-10-11T07:23:02.000Z</time>
      </trkpt>
      <trkpt lat="47.50838" lon="6.7663">
        <ele>387</ele>
        <time>2015-10-11T07:23:03.000Z</time>
      </trkpt>
      <trkpt lat="47.50836" lon="6.76626">
        <ele>387</ele>
        <time>2015-10-11T07:23:04.000Z</time>
      </trkpt>
      <trkpt lat="47.50835" lon="6.76621">
        <ele>387</ele>
        <time>2015-10-11T07:23:05.000Z</time>
      </trkpt>
      <trkpt lat="47.50833" lon="6.76617">
        <ele>390</ele>
        <time>2015-10-11T07:23:06.000Z</time>
      </trkpt>
      <trkpt lat="47.50832" lon="6.76613">
        <ele>390</ele>
        <time>2015-10-11T07:23:07.000Z</time>
      </trkpt>
      <trkpt lat="47.5083" lon="6.7661">
        <ele>390</ele>
        <time>2015-10-11T07:23:08.000Z</time>
      </trkpt>
      <trkpt lat="47.50829" lon="6.76606">
        <ele>390</ele>
        <time>2015-10-11T07:23:09.000Z</time>
      </trkpt>
      <trkpt lat="47.50827" lon="6.76603">
        <ele>390</ele>
        <time>2015-10-11T07:23:10.000Z</time>
      </trkpt>
      <trkpt lat="47.50825" lon="6.76599">
        <ele>390</ele>
        <time>2015-10-11T07:23:11.000Z</time>
      </trkpt>
      <trkpt lat="47.50823" lon="6.76595">
        <ele>390</ele>
        <time>2015-10-11T07:23:12.000Z</time>
      </trkpt>
      <trkpt lat="47.50822" lon="6.76592">
        <ele>390</ele>
        <time>2015-10-11T07:23:13.000Z</time>
      </trkpt>
      <trkpt lat="47.50819" lon="6.76591">
        <ele>390</ele>
        <time>2015-10-11T07:23:14.000Z</time>
      </trkpt>
      <trkpt lat="47.50817" lon="6.76592">
        <ele>390</ele>
        <time>2015-10-11T07:23:15.000Z</time>
      </trkpt>
      <trkpt lat="47.50814" lon="6.76593">
        <ele>390</ele>
        <time>2015-10-11T07:23:16.000Z</time>
      </trkpt>
      <trkpt lat="47.50811" lon="6.76594">
        <ele>390</ele>
        <time>2015-10-11T07:23:16.999Z</time>
      </trkpt>
      <trkpt lat="47.50809" lon="6.76593">
        <ele>390</ele>
        <time>2015-10-11T07:23:18.000Z</time>
      </trkpt>
      <trkpt lat="47.50807" lon="6.76591">
        <ele>390</ele>
        <time>2015-10-11T07:23:19.000Z</time>
      </trkpt>
      <trkpt lat="47.50805" lon="6.76586">
        <ele>390</ele>
        <time>2015-10-11T07:23:20.000Z</time>
      </trkpt>
      <trkpt lat="47.50803" lon="6.76584">
        <ele>391</ele>
        <time>2015-10-11T07:23:21.000Z</time>
      </trkpt>
      <trkpt lat="47.508" lon="6.76584">
        <ele>391</ele>
        <time>2015-10-11T07:23:22.000Z</time>
      </trkpt>
      <trkpt lat="47.50797" lon="6.76585">
        <ele>391</ele>
        <time>2015-10-11T07:23:23.000Z</time>
      </trkpt>
      <trkpt lat="47.50794" lon="6.76586">
        <ele>391</ele>
        <time>2015-10-11T07:23:24.000Z</time>
      </trkpt>
      <trkpt lat="47.50791" lon="6.76588">
        <ele>391</ele>
        <time>2015-10-11T07:23:25.000Z</time>
      </trkpt>
      <trkpt lat="47.50788" lon="6.76589">
        <ele>391</ele>
        <time>2015-10-11T07:23:26.000Z</time>
      </trkpt>
      <trkpt lat="47.50785" lon="6.76591">
        <ele>391</ele>
        <time>2015-10-11T07:23:27.000Z</time>
      </trkpt>
      <trkpt lat="47.50782" lon="6.76592">
        <ele>391</ele>
        <time>2015-10-11T07:23:28.000Z</time>
      </trkpt>
      <trkpt lat="47.5078" lon="6.76593">
        <ele>392</ele>
        <time>2015-10-11T07:23:28.999Z</time>
      </trkpt>
      <trkpt lat="47.50777" lon="6.76593">
        <ele>392</ele>
        <time>2015-10-11T07:23:30.000Z</time>
      </trkpt>
      <trkpt lat="47.50775" lon="6.76594">
        <ele>392</ele>
        <time>2015-10-11T07:23:31.000Z</time>
      </trkpt>
      <trkpt lat="47.50772" lon="6.76594">
        <ele>392</ele>
        <time>2015-10-11T07:23:32.000Z</time>
      </trkpt>
      <trkpt lat="47.5077" lon="6.76595">
        <ele>392</ele>
        <time>2015-10-11T07:23:33.000Z</time>
      </trkpt>
      <trkpt lat="47.50765" lon="6.76596">
        <ele>392</ele>
        <time>2015-10-11T07:23:35.000Z</time>
      </trkpt>
      <trkpt lat="47.50762" lon="6.76596">
        <ele>392</ele>
        <time>2015-10-11T07:23:36.000Z</time>
      </trkpt>
      <trkpt lat="47.50759" lon="6.76597">
        <ele>392</ele>
        <time>2015-10-11T07:23:37.000Z</time>
      </trkpt>
      <trkpt lat="47.50755" lon="6.76597">
        <ele>393</ele>
        <time>2015-10-11T07:23:38.000Z</time>
      </trkpt>
      <trkpt lat="47.50752" lon="6.76597">
        <ele>393</ele>
        <time>2015-10-11T07:23:39.000Z</time>
      </trkpt>
      <trkpt lat="47.50748" lon="6.76597">
        <ele>394</ele>
        <time>2015-10-11T07:23:40.000Z</time>
      </trkpt>
      <trkpt lat="47.50745" lon="6.76597">
        <ele>394</ele>
        <time>2015-10-11T07:23:41.000Z</time>
      </trkpt>
      <trkpt lat="47.50742" lon="6.76597">
        <ele>394</ele>
        <time>2015-10-11T07:23:42.000Z</time>
      </trkpt>
      <trkpt lat="47.50739" lon="6.76597">
        <ele>394</ele>
        <time>2015-10-11T07:23:43.000Z</time>
      </trkpt>
      <trkpt lat="47.50736" lon="6.76596">
        <ele>394</ele>
        <time>2015-10-11T07:23:44.000Z</time>
      </trkpt>
      <trkpt lat="47.50733" lon="6.76596">
        <ele>394</ele>
        <time>2015-10-11T07:23:45.000Z</time>
      </trkpt>
      <trkpt lat="47.50729" lon="6.76595">
        <ele>394</ele>
        <time>2015-10-11T07:23:46.000Z</time>
      </trkpt>
      <trkpt lat="47.50725" lon="6.76595">
        <ele>394</ele>
        <time>2015-10-11T07:23:47.000Z</time>
      </trkpt>
      <trkpt lat="47.50722" lon="6.76594">
        <ele>394</ele>
        <time>2015-10-11T07:23:48.000Z</time>
      </trkpt>
      <trkpt lat="47.50718" lon="6.76593">
        <ele>394</ele>
        <time>2015-10-11T07:23:49.000Z</time>
      </trkpt>
      <trkpt lat="47.50715" lon="6.76592">
        <ele>395</ele>
        <time>2015-10-11T07:23:50.000Z</time>
      </trkpt>
      <trkpt lat="47.50711" lon="6.76591">
        <ele>395</ele>
        <time>2015-10-11T07:23:51.000Z</time>
      </trkpt>
      <trkpt lat="47.50707" lon="6.7659">
        <ele>395</ele>
        <time>2015-10-11T07:23:52.000Z</time>
      </trkpt>
      <trkpt lat="47.50704" lon="6.76589">
        <ele>395</ele>
        <time>2015-10-11T07:23:53.000Z</time>
      </trkpt>
      <trkpt lat="47.507" lon="6.76588">
        <ele>395</ele>
        <time>2015-10-11T07:23:54.000Z</time>
      </trkpt>
      <trkpt lat="47.50697" lon="6.76588">
        <ele>395</ele>
        <time>2015-10-11T07:23:55.000Z</time>
      </trkpt>
      <trkpt lat="47.50693" lon="6.76588">
        <ele>395</ele>
        <time>2015-10-11T07:23:56.000Z</time>
      </trkpt>
      <trkpt lat="47.5069" lon="6.76588">
        <ele>395</ele>
        <time>2015-10-11T07:23:57.000Z</time>
      </trkpt>
      <trkpt lat="47.50687" lon="6.76589">
        <ele>395</ele>
        <time>2015-10-11T07:23:58.000Z</time>
      </trkpt>
      <trkpt lat="47.50683" lon="6.76589">
        <ele>396</ele>
        <time>2015-10-11T07:23:59.000Z</time>
      </trkpt>
      <trkpt lat="47.50679" lon="6.7659">
        <ele>396</ele>
        <time>2015-10-11T07:24:00.000Z</time>
      </trkpt>
      <trkpt lat="47.50676" lon="6.7659">
        <ele>396</ele>
        <time>2015-10-11T07:24:01.000Z</time>
      </trkpt>
      <trkpt lat="47.50672" lon="6.76591">
        <ele>396</ele>
        <time>2015-10-11T07:24:02.000Z</time>
      </trkpt>
      <trkpt lat="47.50669" lon="6.76591">
        <ele>396</ele>
        <time>2015-10-11T07:24:03.000Z</time>
      </trkpt>
      <trkpt lat="47.50666" lon="6.76591">
        <ele>397</ele>
        <time>2015-10-11T07:24:04.000Z</time>
      </trkpt>
      <trkpt lat="47.50663" lon="6.76592">
        <ele>397</ele>
        <time>2015-10-11T07:24:05.000Z</time>
      </trkpt>
      <trkpt lat="47.5066" lon="6.76593">
        <ele>397</ele>
        <time>2015-10-11T07:24:06.000Z</time>
      </trkpt>
      <trkpt lat="47.50657" lon="6.76594">
        <ele>397</ele>
        <time>2015-10-11T07:24:07.000Z</time>
      </trkpt>
      <trkpt lat="47.50653" lon="6.76595">
        <ele>397</ele>
        <time>2015-10-11T07:24:08.000Z</time>
      </trkpt>
      <trkpt lat="47.5065" lon="6.76596">
        <ele>397</ele>
        <time>2015-10-11T07:24:09.000Z</time>
      </trkpt>
      <trkpt lat="47.50647" lon="6.76597">
        <ele>397</ele>
        <time>2015-10-11T07:24:10.000Z</time>
      </trkpt>
      <trkpt lat="47.50644" lon="6.76598">
        <ele>397</ele>
        <time>2015-10-11T07:24:11.000Z</time>
      </trkpt>
      <trkpt lat="47.50641" lon="6.76599">
        <ele>397</ele>
        <time>2015-10-11T07:24:11.999Z</time>
      </trkpt>
      <trkpt lat="47.50638" lon="6.766">
        <ele>397</ele>
        <time>2015-10-11T07:24:13.000Z</time>
      </trkpt>
      <trkpt lat="47.50636" lon="6.76602">
        <ele>397</ele>
        <time>2015-10-11T07:24:14.000Z</time>
      </trkpt>
      <trkpt lat="47.50633" lon="6.76603">
        <ele>397</ele>
        <time>2015-10-11T07:24:15.000Z</time>
      </trkpt>
      <trkpt lat="47.50629" lon="6.76605">
        <ele>397</ele>
        <time>2015-10-11T07:24:16.000Z</time>
      </trkpt>
      <trkpt lat="47.50626" lon="6.76606">
        <ele>397</ele>
        <time>2015-10-11T07:24:17.000Z</time>
      </trkpt>
      <trkpt lat="47.50623" lon="6.76607">
        <ele>397</ele>
        <time>2015-10-11T07:24:18.000Z</time>
      </trkpt>
      <trkpt lat="47.5062" lon="6.76609">
        <ele>397</ele>
        <time>2015-10-11T07:24:19.000Z</time>
      </trkpt>
      <trkpt lat="47.50618" lon="6.76611">
        <ele>397</ele>
        <time>2015-10-11T07:24:20.000Z</time>
      </trkpt>
      <trkpt lat="47.50615" lon="6.76613">
        <ele>398</ele>
        <time>2015-10-11T07:24:21.000Z</time>
      </trkpt>
      <trkpt lat="47.50612" lon="6.76615">
        <ele>398</ele>
        <time>2015-10-11T07:24:22.000Z</time>
      </trkpt>
      <trkpt lat="47.50608" lon="6.76617">
        <ele>398</ele>
        <time>2015-10-11T07:24:23.000Z</time>
      </trkpt>
      <trkpt lat="47.50605" lon="6.76618">
        <ele>398</ele>
        <time>2015-10-11T07:24:24.000Z</time>
      </trkpt>
      <trkpt lat="47.50601" lon="6.76619">
        <ele>398</ele>
        <time>2015-10-11T07:24:25.000Z</time>
      </trkpt>
      <trkpt lat="47.50597" lon="6.7662">
        <ele>398</ele>
        <time>2015-10-11T07:24:26.000Z</time>
      </trkpt>
      <trkpt lat="47.50593" lon="6.76621">
        <ele>398</ele>
        <time>2015-10-11T07:24:27.000Z</time>
      </trkpt>
      <trkpt lat="47.5059" lon="6.76622">
        <ele>398</ele>
        <time>2015-10-11T07:24:28.000Z</time>
      </trkpt>
      <trkpt lat="47.50587" lon="6.76623">
        <ele>398</ele>
        <time>2015-10-11T07:24:29.000Z</time>
      </trkpt>
      <trkpt lat="47.50583" lon="6.76623">
        <ele>399</ele>
        <time>2015-10-11T07:24:30.000Z</time>
      </trkpt>
      <trkpt lat="47.5058" lon="6.76624">
        <ele>399</ele>
        <time>2015-10-11T07:24:31.000Z</time>
      </trkpt>
      <trkpt lat="47.50576" lon="6.76625">
        <ele>399</ele>
        <time>2015-10-11T07:24:32.000Z</time>
      </trkpt>
      <trkpt lat="47.50573" lon="6.76626">
        <ele>399</ele>
        <time>2015-10-11T07:24:33.000Z</time>
      </trkpt>
      <trkpt lat="47.50569" lon="6.76627">
        <ele>399</ele>
        <time>2015-10-11T07:24:34.000Z</time>
      </trkpt>
      <trkpt lat="47.50566" lon="6.76629">
        <ele>399</ele>
        <time>2015-10-11T07:24:35.000Z</time>
      </trkpt>
      <trkpt lat="47.50563" lon="6.7663">
        <ele>399</ele>
        <time>2015-10-11T07:24:36.000Z</time>
      </trkpt>
      <trkpt lat="47.5056" lon="6.76631">
        <ele>399</ele>
        <time>2015-10-11T07:24:37.000Z</time>
      </trkpt>
      <trkpt lat="47.50556" lon="6.76632">
        <ele>399</ele>
        <time>2015-10-11T07:24:38.000Z</time>
      </trkpt>
      <trkpt lat="47.50553" lon="6.76632">
        <ele>399</ele>
        <time>2015-10-11T07:24:39.000Z</time>
      </trkpt>
      <trkpt lat="47.50549" lon="6.76631">
        <ele>399</ele>
        <time>2015-10-11T07:24:40.000Z</time>
      </trkpt>
      <trkpt lat="47.50546" lon="6.7663">
        <ele>399</ele>
        <time>2015-10-11T07:24:41.000Z</time>
      </trkpt>
      <trkpt lat="47.50542" lon="6.7663">
        <ele>399</ele>
        <time>2015-10-11T07:24:42.000Z</time>
      </trkpt>
      <trkpt lat="47.50538" lon="6.7663">
        <ele>399</ele>
        <time>2015-10-11T07:24:43.000Z</time>
      </trkpt>
      <trkpt lat="47.50534" lon="6.76632">
        <ele>399</ele>
        <time>2015-10-11T07:24:44.000Z</time>
      </trkpt>
      <trkpt lat="47.5053" lon="6.76633">
        <ele>399</ele>
        <time>2015-10-11T07:24:45.000Z</time>
      </trkpt>
      <trkpt lat="47.50524" lon="6.76638">
        <ele>399</ele>
        <time>2015-10-11T07:24:46.000Z</time>
      </trkpt>
      <trkpt lat="47.50519" lon="6.76641">
        <ele>399</ele>
        <time>2015-10-11T07:24:47.000Z</time>
      </trkpt>
      <trkpt lat="47.50514" lon="6.76643">
        <ele>399</ele>
        <time>2015-10-11T07:24:48.000Z</time>
      </trkpt>
      <trkpt lat="47.50509" lon="6.76646">
        <ele>399</ele>
        <time>2015-10-11T07:24:49.000Z</time>
      </trkpt>
      <trkpt lat="47.50505" lon="6.76646">
        <ele>399</ele>
        <time>2015-10-11T07:24:50.000Z</time>
      </trkpt>
      <trkpt lat="47.50499" lon="6.76648">
        <ele>399</ele>
        <time>2015-10-11T07:24:51.000Z</time>
      </trkpt>
      <trkpt lat="47.50494" lon="6.76651">
        <ele>399</ele>
        <time>2015-10-11T07:24:52.000Z</time>
      </trkpt>
      <trkpt lat="47.50489" lon="6.76652">
        <ele>399</ele>
        <time>2015-10-11T07:24:53.000Z</time>
      </trkpt>
      <trkpt lat="47.50483" lon="6.76655">
        <ele>399</ele>
        <time>2015-10-11T07:24:54.000Z</time>
      </trkpt>
      <trkpt lat="47.50477" lon="6.76657">
        <ele>398</ele>
        <time>2015-10-11T07:24:55.000Z</time>
      </trkpt>
      <trkpt lat="47.50472" lon="6.76659">
        <ele>398</ele>
        <time>2015-10-11T07:24:56.000Z</time>
      </trkpt>
      <trkpt lat="47.50466" lon="6.76661">
        <ele>398</ele>
        <time>2015-10-11T07:24:57.000Z</time>
      </trkpt>
      <trkpt lat="47.50461" lon="6.76665">
        <ele>398</ele>
        <time>2015-10-11T07:24:58.000Z</time>
      </trkpt>
      <trkpt lat="47.50457" lon="6.76667">
        <ele>397</ele>
        <time>2015-10-11T07:24:59.000Z</time>
      </trkpt>
      <trkpt lat="47.50451" lon="6.7667">
        <ele>397</ele>
        <time>2015-10-11T07:25:00.000Z</time>
      </trkpt>
      <trkpt lat="47.50446" lon="6.76673">
        <ele>397</ele>
        <time>2015-10-11T07:25:01.000Z</time>
      </trkpt>
      <trkpt lat="47.50442" lon="6.76675">
        <ele>397</ele>
        <time>2015-10-11T07:25:02.000Z</time>
      </trkpt>
      <trkpt lat="47.50437" lon="6.76677">
        <ele>397</ele>
        <time>2015-10-11T07:25:03.000Z</time>
      </trkpt>
      <trkpt lat="47.50432" lon="6.76679">
        <ele>397</ele>
        <time>2015-10-11T07:25:04.000Z</time>
      </trkpt>
      <trkpt lat="47.50428" lon="6.76682">
        <ele>397</ele>
        <time>2015-10-11T07:25:05.000Z</time>
      </trkpt>
      <trkpt lat="47.50423" lon="6.76684">
        <ele>397</ele>
        <time>2015-10-11T07:25:06.000Z</time>
      </trkpt>
      <trkpt lat="47.50419" lon="6.76686">
        <ele>397</ele>
        <time>2015-10-11T07:25:07.000Z</time>
      </trkpt>
      <trkpt lat="47.50413" lon="6.76689">
        <ele>397</ele>
        <time>2015-10-11T07:25:08.000Z</time>
      </trkpt>
      <trkpt lat="47.50409" lon="6.7669">
        <ele>397</ele>
        <time>2015-10-11T07:25:09.000Z</time>
      </trkpt>
      <trkpt lat="47.50404" lon="6.76691">
        <ele>397</ele>
        <time>2015-10-11T07:25:10.000Z</time>
      </trkpt>
      <trkpt lat="47.50399" lon="6.76693">
        <ele>397</ele>
        <time>2015-10-11T07:25:11.000Z</time>
      </trkpt>
      <trkpt lat="47.50395" lon="6.76697">
        <ele>397</ele>
        <time>2015-10-11T07:25:12.000Z</time>
      </trkpt>
      <trkpt lat="47.5039" lon="6.76698">
        <ele>397</ele>
        <time>2015-10-11T07:25:13.000Z</time>
      </trkpt>
      <trkpt lat="47.50386" lon="6.767">
        <ele>397</ele>
        <time>2015-10-11T07:25:14.000Z</time>
      </trkpt>
      <trkpt lat="47.50382" lon="6.76702">
        <ele>397</ele>
        <time>2015-10-11T07:25:15.000Z</time>
      </trkpt>
      <trkpt lat="47.50377" lon="6.76705">
        <ele>397</ele>
        <time>2015-10-11T07:25:16.000Z</time>
      </trkpt>
      <trkpt lat="47.50373" lon="6.76707">
        <ele>397</ele>
        <time>2015-10-11T07:25:17.000Z</time>
      </trkpt>
      <trkpt lat="47.50368" lon="6.7671">
        <ele>398</ele>
        <time>2015-10-11T07:25:18.000Z</time>
      </trkpt>
      <trkpt lat="47.50363" lon="6.76713">
        <ele>398</ele>
        <time>2015-10-11T07:25:19.000Z</time>
      </trkpt>
      <trkpt lat="47.50357" lon="6.76714">
        <ele>398</ele>
        <time>2015-10-11T07:25:20.000Z</time>
      </trkpt>
      <trkpt lat="47.50353" lon="6.76716">
        <ele>398</ele>
        <time>2015-10-11T07:25:21.000Z</time>
      </trkpt>
      <trkpt lat="47.50348" lon="6.76718">
        <ele>398</ele>
        <time>2015-10-11T07:25:22.000Z</time>
      </trkpt>
      <trkpt lat="47.50344" lon="6.7672">
        <ele>398</ele>
        <time>2015-10-11T07:25:23.000Z</time>
      </trkpt>
      <trkpt lat="47.50339" lon="6.76721">
        <ele>398</ele>
        <time>2015-10-11T07:25:24.000Z</time>
      </trkpt>
      <trkpt lat="47.50334" lon="6.76723">
        <ele>398</ele>
        <time>2015-10-11T07:25:25.000Z</time>
      </trkpt>
      <trkpt lat="47.50329" lon="6.76726">
        <ele>398</ele>
        <time>2015-10-11T07:25:26.000Z</time>
      </trkpt>
      <trkpt lat="47.50324" lon="6.76727">
        <ele>398</ele>
        <time>2015-10-11T07:25:27.000Z</time>
      </trkpt>
      <trkpt lat="47.5032" lon="6.76729">
        <ele>398</ele>
        <time>2015-10-11T07:25:28.000Z</time>
      </trkpt>
      <trkpt lat="47.50315" lon="6.76732">
        <ele>398</ele>
        <time>2015-10-11T07:25:29.000Z</time>
      </trkpt>
      <trkpt lat="47.5031" lon="6.76734">
        <ele>398</ele>
        <time>2015-10-11T07:25:30.000Z</time>
      </trkpt>
      <trkpt lat="47.50306" lon="6.76736">
        <ele>398</ele>
        <time>2015-10-11T07:25:31.000Z</time>
      </trkpt>
      <trkpt lat="47.50301" lon="6.76736">
        <ele>399</ele>
        <time>2015-10-11T07:25:32.000Z</time>
      </trkpt>
      <trkpt lat="47.50296" lon="6.76737">
        <ele>399</ele>
        <time>2015-10-11T07:25:33.000Z</time>
      </trkpt>
      <trkpt lat="47.50291" lon="6.76738">
        <ele>399</ele>
        <time>2015-10-11T07:25:34.000Z</time>
      </trkpt>
      <trkpt lat="47.50287" lon="6.76739">
        <ele>399</ele>
        <time>2015-10-11T07:25:35.000Z</time>
      </trkpt>
      <trkpt lat="47.50282" lon="6.7674">
        <ele>399</ele>
        <time>2015-10-11T07:25:36.000Z</time>
      </trkpt>
      <trkpt lat="47.50278" lon="6.76742">
        <ele>399</ele>
        <time>2015-10-11T07:25:37.000Z</time>
      </trkpt>
      <trkpt lat="47.50273" lon="6.76743">
        <ele>399</ele>
        <time>2015-10-11T07:25:38.000Z</time>
      </trkpt>
      <trkpt lat="47.5027" lon="6.76744">
        <ele>399</ele>
        <time>2015-10-11T07:25:39.000Z</time>
      </trkpt>
      <trkpt lat="47.50266" lon="6.76746">
        <ele>399</ele>
        <time>2015-10-11T07:25:40.000Z</time>
      </trkpt>
      <trkpt lat="47.50262" lon="6.76748">
        <ele>399</ele>
        <time>2015-10-11T07:25:41.000Z</time>
      </trkpt>
      <trkpt lat="47.50258" lon="6.76749">
        <ele>400</ele>
        <time>2015-10-11T07:25:42.000Z</time>
      </trkpt>
      <trkpt lat="47.50254" lon="6.7675">
        <ele>400</ele>
        <time>2015-10-11T07:25:43.000Z</time>
      </trkpt>
      <trkpt lat="47.5025" lon="6.7675">
        <ele>400</ele>
        <time>2015-10-11T07:25:44.000Z</time>
      </trkpt>
      <trkpt lat="47.50247" lon="6.76746">
        <ele>400</ele>
        <time>2015-10-11T07:25:45.000Z</time>
      </trkpt>
      <trkpt lat="47.50245" lon="6.76742">
        <ele>401</ele>
        <time>2015-10-11T07:25:46.000Z</time>
      </trkpt>
      <trkpt lat="47.50243" lon="6.76738">
        <ele>401</ele>
        <time>2015-10-11T07:25:47.001Z</time>
      </trkpt>
      <trkpt lat="47.5024" lon="6.76734">
        <ele>401</ele>
        <time>2015-10-11T07:25:48.000Z</time>
      </trkpt>
      <trkpt lat="47.50237" lon="6.7673">
        <ele>401</ele>
        <time>2015-10-11T07:25:49.000Z</time>
      </trkpt>
      <trkpt lat="47.50235" lon="6.76727">
        <ele>401</ele>
        <time>2015-10-11T07:25:50.000Z</time>
      </trkpt>
      <trkpt lat="47.50233" lon="6.76724">
        <ele>402</ele>
        <time>2015-10-11T07:25:51.000Z</time>
      </trkpt>
      <trkpt lat="47.50231" lon="6.76721">
        <ele>402</ele>
        <time>2015-10-11T07:25:52.000Z</time>
      </trkpt>
      <trkpt lat="47.50228" lon="6.76717">
        <ele>402</ele>
        <time>2015-10-11T07:25:53.000Z</time>
      </trkpt>
      <trkpt lat="47.50226" lon="6.76713">
        <ele>402</ele>
        <time>2015-10-11T07:25:54.000Z</time>
      </trkpt>
      <trkpt lat="47.50225" lon="6.76708">
        <ele>402</ele>
        <time>2015-10-11T07:25:55.000Z</time>
      </trkpt>
      <trkpt lat="47.50223" lon="6.76703">
        <ele>402</ele>
        <time>2015-10-11T07:25:56.000Z</time>
      </trkpt>
      <trkpt lat="47.50221" lon="6.76697">
        <ele>402</ele>
        <time>2015-10-11T07:25:57.000Z</time>
      </trkpt>
      <trkpt lat="47.5022" lon="6.76692">
        <ele>402</ele>
        <time>2015-10-11T07:25:58.000Z</time>
      </trkpt>
      <trkpt lat="47.50219" lon="6.76686">
        <ele>402</ele>
        <time>2015-10-11T07:25:59.000Z</time>
      </trkpt>
      <trkpt lat="47.50217" lon="6.76681">
        <ele>402</ele>
        <time>2015-10-11T07:26:00.002Z</time>
      </trkpt>
      <trkpt lat="47.50216" lon="6.76675">
        <ele>402</ele>
        <time>2015-10-11T07:26:01.000Z</time>
      </trkpt>
      <trkpt lat="47.50215" lon="6.76669">
        <ele>402</ele>
        <time>2015-10-11T07:26:02.000Z</time>
      </trkpt>
      <trkpt lat="47.50214" lon="6.76663">
        <ele>402</ele>
        <time>2015-10-11T07:26:03.000Z</time>
      </trkpt>
      <trkpt lat="47.50212" lon="6.76657">
        <ele>402</ele>
        <time>2015-10-11T07:26:04.000Z</time>
      </trkpt>
      <trkpt lat="47.5021" lon="6.76651">
        <ele>402</ele>
        <time>2015-10-11T07:26:05.000Z</time>
      </trkpt>
      <trkpt lat="47.50208" lon="6.76645">
        <ele>402</ele>
        <time>2015-10-11T07:26:06.000Z</time>
      </trkpt>
      <trkpt lat="47.50206" lon="6.7664">
        <ele>402</ele>
        <time>2015-10-11T07:26:07.000Z</time>
      </trkpt>
      <trkpt lat="47.50204" lon="6.76634">
        <ele>402</ele>
        <time>2015-10-11T07:26:08.000Z</time>
      </trkpt>
      <trkpt lat="47.50201" lon="6.76627">
        <ele>402</ele>
        <time>2015-10-11T07:26:09.000Z</time>
      </trkpt>
      <trkpt lat="47.502" lon="6.76621">
        <ele>402</ele>
        <time>2015-10-11T07:26:10.000Z</time>
      </trkpt>
      <trkpt lat="47.50197" lon="6.76616">
        <ele>403</ele>
        <time>2015-10-11T07:26:11.000Z</time>
      </trkpt>
      <trkpt lat="47.50196" lon="6.76612">
        <ele>403</ele>
        <time>2015-10-11T07:26:12.000Z</time>
      </trkpt>
      <trkpt lat="47.50195" lon="6.76608">
        <ele>403</ele>
        <time>2015-10-11T07:26:13.000Z</time>
      </trkpt>
      <trkpt lat="47.50195" lon="6.76604">
        <ele>403</ele>
        <time>2015-10-11T07:26:14.000Z</time>
      </trkpt>
      <trkpt lat="47.50194" lon="6.76601">
        <ele>403</ele>
        <time>2015-10-11T07:26:15.000Z</time>
      </trkpt>
      <trkpt lat="47.50194" lon="6.76594">
        <ele>403</ele>
        <time>2015-10-11T07:26:18.000Z</time>
      </trkpt>
      <trkpt lat="47.50194" lon="6.76592">
        <ele>403</ele>
        <time>2015-10-11T07:26:19.000Z</time>
      </trkpt>
      <trkpt lat="47.50193" lon="6.76587">
        <ele>403</ele>
        <time>2015-10-11T07:26:21.000Z</time>
      </trkpt>
      <trkpt lat="47.50193" lon="6.76584">
        <ele>403</ele>
        <time>2015-10-11T07:26:22.000Z</time>
      </trkpt>
      <trkpt lat="47.50194" lon="6.76581">
        <ele>403</ele>
        <time>2015-10-11T07:26:23.000Z</time>
      </trkpt>
      <trkpt lat="47.50196" lon="6.76578">
        <ele>403</ele>
        <time>2015-10-11T07:26:24.000Z</time>
      </trkpt>
      <trkpt lat="47.502" lon="6.76575">
        <ele>402</ele>
        <time>2015-10-11T07:26:25.000Z</time>
      </trkpt>
      <trkpt lat="47.50205" lon="6.76573">
        <ele>402</ele>
        <time>2015-10-11T07:26:26.000Z</time>
      </trkpt>
      <trkpt lat="47.50211" lon="6.7657">
        <ele>401</ele>
        <time>2015-10-11T07:26:27.000Z</time>
      </trkpt>
      <trkpt lat="47.50217" lon="6.76566">
        <ele>401</ele>
        <time>2015-10-11T07:26:28.000Z</time>
      </trkpt>
      <trkpt lat="47.5022" lon="6.76561">
        <ele>400</ele>
        <time>2015-10-11T07:26:29.000Z</time>
      </trkpt>
      <trkpt lat="47.50223" lon="6.76554">
        <ele>400</ele>
        <time>2015-10-11T07:26:30.000Z</time>
      </trkpt>
      <trkpt lat="47.50223" lon="6.76546">
        <ele>400</ele>
        <time>2015-10-11T07:26:31.000Z</time>
      </trkpt>
      <trkpt lat="47.50223" lon="6.76538">
        <ele>400</ele>
        <time>2015-10-11T07:26:32.000Z</time>
      </trkpt>
      <trkpt lat="47.50218" lon="6.76522">
        <ele>399</ele>
        <time>2015-10-11T07:26:33.000Z</time>
      </trkpt>
      <trkpt lat="47.50215" lon="6.76513">
        <ele>399</ele>
        <time>2015-10-11T07:26:34.000Z</time>
      </trkpt>
      <trkpt lat="47.50211" lon="6.76506">
        <ele>400</ele>
        <time>2015-10-11T07:26:35.000Z</time>
      </trkpt>
      <trkpt lat="47.50207" lon="6.76498">
        <ele>397</ele>
        <time>2015-10-11T07:26:36.000Z</time>
      </trkpt>
      <trkpt lat="47.50204" lon="6.76489">
        <ele>397</ele>
        <time>2015-10-11T07:26:37.000Z</time>
      </trkpt>
      <trkpt lat="47.502" lon="6.7648">
        <ele>397</ele>
        <time>2015-10-11T07:26:38.000Z</time>
      </trkpt>
      <trkpt lat="47.50196" lon="6.76469">
        <ele>397</ele>
        <time>2015-10-11T07:26:39.000Z</time>
      </trkpt>
      <trkpt lat="47.50191" lon="6.76454">
        <ele>396</ele>
        <time>2015-10-11T07:26:40.000Z</time>
      </trkpt>
      <trkpt lat="47.50186" lon="6.76443">
        <ele>397</ele>
        <time>2015-10-11T07:26:41.000Z</time>
      </trkpt>
      <trkpt lat="47.50182" lon="6.76432">
        <ele>397</ele>
        <time>2015-10-11T07:26:42.000Z</time>
      </trkpt>
      <trkpt lat="47.50178" lon="6.76421">
        <ele>397</ele>
        <time>2015-10-11T07:26:43.000Z</time>
      </trkpt>
      <trkpt lat="47.50175" lon="6.76414">
        <ele>396</ele>
        <time>2015-10-11T07:26:44.000Z</time>
      </trkpt>
      <trkpt lat="47.50172" lon="6.76406">
        <ele>395</ele>
        <time>2015-10-11T07:26:45.000Z</time>
      </trkpt>
      <trkpt lat="47.50169" lon="6.76397">
        <ele>394</ele>
        <time>2015-10-11T07:26:46.000Z</time>
      </trkpt>
      <trkpt lat="47.50166" lon="6.76388">
        <ele>400</ele>
        <time>2015-10-11T07:26:47.000Z</time>
      </trkpt>
      <trkpt lat="47.50164" lon="6.7638">
        <ele>400</ele>
        <time>2015-10-11T07:26:48.000Z</time>
      </trkpt>
      <trkpt lat="47.50161" lon="6.7637">
        <ele>400</ele>
        <time>2015-10-11T07:26:49.000Z</time>
      </trkpt>
      <trkpt lat="47.50158" lon="6.76361">
        <ele>399</ele>
        <time>2015-10-11T07:26:50.000Z</time>
      </trkpt>
      <trkpt lat="47.50156" lon="6.76351">
        <ele>398</ele>
        <time>2015-10-11T07:26:51.000Z</time>
      </trkpt>
      <trkpt lat="47.50154" lon="6.76341">
        <ele>396</ele>
        <time>2015-10-11T07:26:52.000Z</time>
      </trkpt>
      <trkpt lat="47.50151" lon="6.76333">
        <ele>394</ele>
        <time>2015-10-11T07:26:53.000Z</time>
      </trkpt>
      <trkpt lat="47.50148" lon="6.76325">
        <ele>395</ele>
        <time>2015-10-11T07:26:54.000Z</time>
      </trkpt>
      <trkpt lat="47.50146" lon="6.76306">
        <ele>395</ele>
        <time>2015-10-11T07:26:55.000Z</time>
      </trkpt>
      <trkpt lat="47.50143" lon="6.76293">
        <ele>395</ele>
        <time>2015-10-11T07:26:56.000Z</time>
      </trkpt>
      <trkpt lat="47.50141" lon="6.76283">
        <ele>395</ele>
        <time>2015-10-11T07:26:57.000Z</time>
      </trkpt>
      <trkpt lat="47.50138" lon="6.76274">
        <ele>395</ele>
        <time>2015-10-11T07:26:58.000Z</time>
      </trkpt>
      <trkpt lat="47.50137" lon="6.76266">
        <ele>395</ele>
        <time>2015-10-11T07:26:59.000Z</time>
      </trkpt>
      <trkpt lat="47.50137" lon="6.76258">
        <ele>394</ele>
        <time>2015-10-11T07:27:00.000Z</time>
      </trkpt>
      <trkpt lat="47.50137" lon="6.76251">
        <ele>394</ele>
        <time>2015-10-11T07:27:01.000Z</time>
      </trkpt>
      <trkpt lat="47.50137" lon="6.76242">
        <ele>390</ele>
        <time>2015-10-11T07:27:02.000Z</time>
      </trkpt>
      <trkpt lat="47.50136" lon="6.76233">
        <ele>390</ele>
        <time>2015-10-11T07:27:03.000Z</time>
      </trkpt>
      <trkpt lat="47.50136" lon="6.76224">
        <ele>390</ele>
        <time>2015-10-11T07:27:04.000Z</time>
      </trkpt>
      <trkpt lat="47.50135" lon="6.76216">
        <ele>390</ele>
        <time>2015-10-11T07:27:05.000Z</time>
      </trkpt>
      <trkpt lat="47.50135" lon="6.76211">
        <ele>390</ele>
        <time>2015-10-11T07:27:06.000Z</time>
      </trkpt>
      <trkpt lat="47.50132" lon="6.7621">
        <ele>390</ele>
        <time>2015-10-11T07:27:07.000Z</time>
      </trkpt>
      <trkpt lat="47.50129" lon="6.76206">
        <ele>390</ele>
        <time>2015-10-11T07:27:08.000Z</time>
      </trkpt>
      <trkpt lat="47.50128" lon="6.76201">
        <ele>390</ele>
        <time>2015-10-11T07:27:09.000Z</time>
      </trkpt>
      <trkpt lat="47.50127" lon="6.76192">
        <ele>390</ele>
        <time>2015-10-11T07:27:10.000Z</time>
      </trkpt>
      <trkpt lat="47.50125" lon="6.76184">
        <ele>390</ele>
        <time>2015-10-11T07:27:11.000Z</time>
      </trkpt>
      <trkpt lat="47.50123" lon="6.76174">
        <ele>389</ele>
        <time>2015-10-11T07:27:12.000Z</time>
      </trkpt>
      <trkpt lat="47.50119" lon="6.76165">
        <ele>386</ele>
        <time>2015-10-11T07:27:13.000Z</time>
      </trkpt>
      <trkpt lat="47.50116" lon="6.76153">
        <ele>386</ele>
        <time>2015-10-11T07:27:14.000Z</time>
      </trkpt>
      <trkpt lat="47.50113" lon="6.76141">
        <ele>386</ele>
        <time>2015-10-11T07:27:15.000Z</time>
      </trkpt>
      <trkpt lat="47.5011" lon="6.7613">
        <ele>386</ele>
        <time>2015-10-11T07:27:16.000Z</time>
      </trkpt>
      <trkpt lat="47.50106" lon="6.76118">
        <ele>386</ele>
        <time>2015-10-11T07:27:17.000Z</time>
      </trkpt>
      <trkpt lat="47.50103" lon="6.76107">
        <ele>386</ele>
        <time>2015-10-11T07:27:18.000Z</time>
      </trkpt>
      <trkpt lat="47.50102" lon="6.76093">
        <ele>386</ele>
        <time>2015-10-11T07:27:19.000Z</time>
      </trkpt>
      <trkpt lat="47.501" lon="6.76079">
        <ele>384</ele>
        <time>2015-10-11T07:27:20.000Z</time>
      </trkpt>
      <trkpt lat="47.50097" lon="6.76067">
        <ele>383</ele>
        <time>2015-10-11T07:27:21.000Z</time>
      </trkpt>
      <trkpt lat="47.50095" lon="6.76053">
        <ele>381</ele>
        <time>2015-10-11T07:27:22.000Z</time>
      </trkpt>
      <trkpt lat="47.50092" lon="6.76039">
        <ele>380</ele>
        <time>2015-10-11T07:27:23.000Z</time>
      </trkpt>
      <trkpt lat="47.50089" lon="6.76023">
        <ele>380</ele>
        <time>2015-10-11T07:27:24.000Z</time>
      </trkpt>
      <trkpt lat="47.50084" lon="6.76012">
        <ele>380</ele>
        <time>2015-10-11T07:27:25.000Z</time>
      </trkpt>
      <trkpt lat="47.50081" lon="6.76002">
        <ele>381</ele>
        <time>2015-10-11T07:27:26.000Z</time>
      </trkpt>
      <trkpt lat="47.50077" lon="6.75992">
        <ele>380</ele>
        <time>2015-10-11T07:27:27.000Z</time>
      </trkpt>
      <trkpt lat="47.50074" lon="6.75979">
        <ele>379</ele>
        <time>2015-10-11T07:27:28.000Z</time>
      </trkpt>
      <trkpt lat="47.50069" lon="6.75969">
        <ele>379</ele>
        <time>2015-10-11T07:27:29.000Z</time>
      </trkpt>
      <trkpt lat="47.50064" lon="6.75958">
        <ele>378</ele>
        <time>2015-10-11T07:27:30.000Z</time>
      </trkpt>
      <trkpt lat="47.50059" lon="6.75948">
        <ele>378</ele>
        <time>2015-10-11T07:27:31.000Z</time>
      </trkpt>
      <trkpt lat="47.50053" lon="6.75939">
        <ele>378</ele>
        <time>2015-10-11T07:27:32.000Z</time>
      </trkpt>
      <trkpt lat="47.50048" lon="6.75931">
        <ele>378</ele>
        <time>2015-10-11T07:27:33.000Z</time>
      </trkpt>
      <trkpt lat="47.50042" lon="6.75923">
        <ele>378</ele>
        <time>2015-10-11T07:27:34.000Z</time>
      </trkpt>
      <trkpt lat="47.50035" lon="6.75911">
        <ele>376</ele>
        <time>2015-10-11T07:27:35.000Z</time>
      </trkpt>
      <trkpt lat="47.50029" lon="6.75902">
        <ele>376</ele>
        <time>2015-10-11T07:27:36.000Z</time>
      </trkpt>
      <trkpt lat="47.50025" lon="6.75892">
        <ele>377</ele>
        <time>2015-10-11T07:27:37.000Z</time>
      </trkpt>
      <trkpt lat="47.50016" lon="6.75882">
        <ele>377</ele>
        <time>2015-10-11T07:27:38.000Z</time>
      </trkpt>
      <trkpt lat="47.5001" lon="6.75872">
        <ele>377</ele>
        <time>2015-10-11T07:27:39.000Z</time>
      </trkpt>
      <trkpt lat="47.50003" lon="6.75861">
        <ele>377</ele>
        <time>2015-10-11T07:27:40.000Z</time>
      </trkpt>
      <trkpt lat="47.49998" lon="6.75851">
        <ele>378</ele>
        <time>2015-10-11T07:27:41.000Z</time>
      </trkpt>
      <trkpt lat="47.49993" lon="6.75843">
        <ele>378</ele>
        <time>2015-10-11T07:27:42.000Z</time>
      </trkpt>
      <trkpt lat="47.49988" lon="6.75834">
        <ele>378</ele>
        <time>2015-10-11T07:27:43.000Z</time>
      </trkpt>
      <trkpt lat="47.49983" lon="6.75824">
        <ele>376</ele>
        <time>2015-10-11T07:27:44.000Z</time>
      </trkpt>
      <trkpt lat="47.49978" lon="6.75814">
        <ele>375</ele>
        <time>2015-10-11T07:27:45.000Z</time>
      </trkpt>
      <trkpt lat="47.49972" lon="6.75804">
        <ele>375</ele>
        <time>2015-10-11T07:27:46.000Z</time>
      </trkpt>
      <trkpt lat="47.49966" lon="6.75795">
        <ele>374</ele>
        <time>2015-10-11T07:27:47.000Z</time>
      </trkpt>
      <trkpt lat="47.4996" lon="6.75787">
        <ele>374</ele>
        <time>2015-10-11T07:27:48.000Z</time>
      </trkpt>
      <trkpt lat="47.49952" lon="6.75775">
        <ele>373</ele>
        <time>2015-10-11T07:27:49.000Z</time>
      </trkpt>
      <trkpt lat="47.49945" lon="6.75765">
        <ele>373</ele>
        <time>2015-10-11T07:27:50.000Z</time>
      </trkpt>
      <trkpt lat="47.49939" lon="6.75755">
        <ele>372</ele>
        <time>2015-10-11T07:27:51.000Z</time>
      </trkpt>
      <trkpt lat="47.49932" lon="6.75745">
        <ele>370</ele>
        <time>2015-10-11T07:27:52.000Z</time>
      </trkpt>
      <trkpt lat="47.49925" lon="6.75734">
        <ele>370</ele>
        <time>2015-10-11T07:27:53.000Z</time>
      </trkpt>
      <trkpt lat="47.49916" lon="6.75726">
        <ele>365</ele>
        <time>2015-10-11T07:27:54.000Z</time>
      </trkpt>
      <trkpt lat="47.49909" lon="6.75719">
        <ele>365</ele>
        <time>2015-10-11T07:27:55.000Z</time>
      </trkpt>
      <trkpt lat="47.49901" lon="6.75718">
        <ele>364</ele>
        <time>2015-10-11T07:27:56.000Z</time>
      </trkpt>
      <trkpt lat="47.49892" lon="6.75719">
        <ele>364</ele>
        <time>2015-10-11T07:27:57.000Z</time>
      </trkpt>
      <trkpt lat="47.49883" lon="6.75723">
        <ele>363</ele>
        <time>2015-10-11T07:27:58.000Z</time>
      </trkpt>
      <trkpt lat="47.49876" lon="6.75725">
        <ele>363</ele>
        <time>2015-10-11T07:27:59.000Z</time>
      </trkpt>
      <trkpt lat="47.49866" lon="6.75728">
        <ele>362</ele>
        <time>2015-10-11T07:28:00.000Z</time>
      </trkpt>
      <trkpt lat="47.49855" lon="6.75732">
        <ele>361</ele>
        <time>2015-10-11T07:28:01.000Z</time>
      </trkpt>
      <trkpt lat="47.49845" lon="6.75734">
        <ele>361</ele>
        <time>2015-10-11T07:28:02.000Z</time>
      </trkpt>
      <trkpt lat="47.49835" lon="6.75739">
        <ele>360</ele>
        <time>2015-10-11T07:28:03.000Z</time>
      </trkpt>
      <trkpt lat="47.49824" lon="6.75743">
        <ele>356</ele>
        <time>2015-10-11T07:28:04.000Z</time>
      </trkpt>
      <trkpt lat="47.49812" lon="6.75745">
        <ele>354</ele>
        <time>2015-10-11T07:28:05.000Z</time>
      </trkpt>
      <trkpt lat="47.49801" lon="6.75748">
        <ele>353</ele>
        <time>2015-10-11T07:28:06.000Z</time>
      </trkpt>
      <trkpt lat="47.49791" lon="6.75752">
        <ele>359</ele>
        <time>2015-10-11T07:28:07.000Z</time>
      </trkpt>
      <trkpt lat="47.49781" lon="6.75753">
        <ele>358</ele>
        <time>2015-10-11T07:28:08.000Z</time>
      </trkpt>
      <trkpt lat="47.4977" lon="6.75758">
        <ele>357</ele>
        <time>2015-10-11T07:28:09.000Z</time>
      </trkpt>
      <trkpt lat="47.49759" lon="6.75761">
        <ele>355</ele>
        <time>2015-10-11T07:28:10.000Z</time>
      </trkpt>
      <trkpt lat="47.49748" lon="6.75765">
        <ele>353</ele>
        <time>2015-10-11T07:28:11.000Z</time>
      </trkpt>
      <trkpt lat="47.49738" lon="6.75769">
        <ele>353</ele>
        <time>2015-10-11T07:28:12.000Z</time>
      </trkpt>
      <trkpt lat="47.49728" lon="6.75773">
        <ele>354</ele>
        <time>2015-10-11T07:28:13.000Z</time>
      </trkpt>
      <trkpt lat="47.49718" lon="6.75775">
        <ele>354</ele>
        <time>2015-10-11T07:28:14.000Z</time>
      </trkpt>
      <trkpt lat="47.4971" lon="6.75778">
        <ele>354</ele>
        <time>2015-10-11T07:28:15.000Z</time>
      </trkpt>
      <trkpt lat="47.497" lon="6.75783">
        <ele>354</ele>
        <time>2015-10-11T07:28:16.000Z</time>
      </trkpt>
      <trkpt lat="47.49691" lon="6.75786">
        <ele>353</ele>
        <time>2015-10-11T07:28:17.000Z</time>
      </trkpt>
      <trkpt lat="47.49682" lon="6.75788">
        <ele>353</ele>
        <time>2015-10-11T07:28:18.000Z</time>
      </trkpt>
      <trkpt lat="47.49674" lon="6.75787">
        <ele>353</ele>
        <time>2015-10-11T07:28:19.000Z</time>
      </trkpt>
      <trkpt lat="47.49667" lon="6.75788">
        <ele>353</ele>
        <time>2015-10-11T07:28:20.000Z</time>
      </trkpt>
      <trkpt lat="47.4966" lon="6.75789">
        <ele>348</ele>
        <time>2015-10-11T07:28:21.000Z</time>
      </trkpt>
      <trkpt lat="47.49652" lon="6.7579">
        <ele>347</ele>
        <time>2015-10-11T07:28:22.000Z</time>
      </trkpt>
      <trkpt lat="47.49644" lon="6.75788">
        <ele>347</ele>
        <time>2015-10-11T07:28:23.000Z</time>
      </trkpt>
      <trkpt lat="47.49636" lon="6.75787">
        <ele>346</ele>
        <time>2015-10-11T07:28:24.000Z</time>
      </trkpt>
      <trkpt lat="47.49627" lon="6.75784">
        <ele>346</ele>
        <time>2015-10-11T07:28:25.000Z</time>
      </trkpt>
      <trkpt lat="47.49619" lon="6.75786">
        <ele>345</ele>
        <time>2015-10-11T07:28:26.000Z</time>
      </trkpt>
      <trkpt lat="47.4961" lon="6.75787">
        <ele>345</ele>
        <time>2015-10-11T07:28:27.000Z</time>
      </trkpt>
      <trkpt lat="47.49601" lon="6.75783">
        <ele>344</ele>
        <time>2015-10-11T07:28:28.000Z</time>
      </trkpt>
      <trkpt lat="47.49592" lon="6.75784">
        <ele>344</ele>
        <time>2015-10-11T07:28:29.000Z</time>
      </trkpt>
      <trkpt lat="47.49582" lon="6.75785">
        <ele>337</ele>
        <time>2015-10-11T07:28:30.000Z</time>
      </trkpt>
      <trkpt lat="47.49573" lon="6.75784">
        <ele>337</ele>
        <time>2015-10-11T07:28:31.000Z</time>
      </trkpt>
      <trkpt lat="47.4957" lon="6.7578">
        <ele>337</ele>
        <time>2015-10-11T07:28:32.000Z</time>
      </trkpt>
      <trkpt lat="47.49564" lon="6.75776">
        <ele>336</ele>
        <time>2015-10-11T07:28:33.000Z</time>
      </trkpt>
      <trkpt lat="47.49561" lon="6.7577">
        <ele>336</ele>
        <time>2015-10-11T07:28:34.000Z</time>
      </trkpt>
      <trkpt lat="47.49558" lon="6.75765">
        <ele>335</ele>
        <time>2015-10-11T07:28:35.000Z</time>
      </trkpt>
      <trkpt lat="47.49557" lon="6.75761">
        <ele>335</ele>
        <time>2015-10-11T07:28:36.000Z</time>
      </trkpt>
      <trkpt lat="47.49561" lon="6.75757">
        <ele>335</ele>
        <time>2015-10-11T07:28:37.000Z</time>
      </trkpt>
      <trkpt lat="47.49565" lon="6.75754">
        <ele>335</ele>
        <time>2015-10-11T07:28:38.000Z</time>
      </trkpt>
      <trkpt lat="47.49568" lon="6.75752">
        <ele>335</ele>
        <time>2015-10-11T07:28:39.000Z</time>
      </trkpt>
      <trkpt lat="47.49571" lon="6.75749">
        <ele>330</ele>
        <time>2015-10-11T07:28:40.000Z</time>
      </trkpt>
      <trkpt lat="47.49574" lon="6.75747">
        <ele>331</ele>
        <time>2015-10-11T07:28:41.000Z</time>
      </trkpt>
      <trkpt lat="47.49577" lon="6.75744">
        <ele>331</ele>
        <time>2015-10-11T07:28:42.000Z</time>
      </trkpt>
      <trkpt lat="47.4958" lon="6.75742">
        <ele>331</ele>
        <time>2015-10-11T07:28:43.000Z</time>
      </trkpt>
      <trkpt lat="47.49583" lon="6.75739">
        <ele>331</ele>
        <time>2015-10-11T07:28:44.000Z</time>
      </trkpt>
      <trkpt lat="47.49586" lon="6.75736">
        <ele>333</ele>
        <time>2015-10-11T07:28:45.000Z</time>
      </trkpt>
      <trkpt lat="47.4959" lon="6.7573">
        <ele>332</ele>
        <time>2015-10-11T07:28:46.000Z</time>
      </trkpt>
      <trkpt lat="47.49592" lon="6.75723">
        <ele>332</ele>
        <time>2015-10-11T07:28:47.000Z</time>
      </trkpt>
      <trkpt lat="47.49595" lon="6.75717">
        <ele>331</ele>
        <time>2015-10-11T07:28:48.000Z</time>
      </trkpt>
      <trkpt lat="47.496" lon="6.7571">
        <ele>331</ele>
        <time>2015-10-11T07:28:49.000Z</time>
      </trkpt>
      <trkpt lat="47.49603" lon="6.75703">
        <ele>330</ele>
        <time>2015-10-11T07:28:50.000Z</time>
      </trkpt>
      <trkpt lat="47.49601" lon="6.75693">
        <ele>329</ele>
        <time>2015-10-11T07:28:51.000Z</time>
      </trkpt>
      <trkpt lat="47.49597" lon="6.75688">
        <ele>328</ele>
        <time>2015-10-11T07:28:52.000Z</time>
      </trkpt>
      <trkpt lat="47.49592" lon="6.75681">
        <ele>326</ele>
        <time>2015-10-11T07:28:53.000Z</time>
      </trkpt>
      <trkpt lat="47.49588" lon="6.75674">
        <ele>324</ele>
        <time>2015-10-11T07:28:54.000Z</time>
      </trkpt>
      <trkpt lat="47.49583" lon="6.75669">
        <ele>321</ele>
        <time>2015-10-11T07:28:55.000Z</time>
      </trkpt>
      <trkpt lat="47.49577" lon="6.75667">
        <ele>322</ele>
        <time>2015-10-11T07:28:56.000Z</time>
      </trkpt>
      <trkpt lat="47.49571" lon="6.7567">
        <ele>323</ele>
        <time>2015-10-11T07:28:57.000Z</time>
      </trkpt>
      <trkpt lat="47.49567" lon="6.75676">
        <ele>323</ele>
        <time>2015-10-11T07:28:58.000Z</time>
      </trkpt>
      <trkpt lat="47.49562" lon="6.75681">
        <ele>324</ele>
        <time>2015-10-11T07:28:59.000Z</time>
      </trkpt>
      <trkpt lat="47.49558" lon="6.75687">
        <ele>324</ele>
        <time>2015-10-11T07:29:00.000Z</time>
      </trkpt>
      <trkpt lat="47.49555" lon="6.75693">
        <ele>324</ele>
        <time>2015-10-11T07:29:01.000Z</time>
      </trkpt>
      <trkpt lat="47.49553" lon="6.757">
        <ele>325</ele>
        <time>2015-10-11T07:29:02.000Z</time>
      </trkpt>
      <trkpt lat="47.49549" lon="6.75703">
        <ele>325</ele>
        <time>2015-10-11T07:29:03.000Z</time>
      </trkpt>
      <trkpt lat="47.49545" lon="6.75708">
        <ele>325</ele>
        <time>2015-10-11T07:29:04.000Z</time>
      </trkpt>
      <trkpt lat="47.4954" lon="6.75711">
        <ele>325</ele>
        <time>2015-10-11T07:29:05.000Z</time>
      </trkpt>
      <trkpt lat="47.49535" lon="6.75714">
        <ele>325</ele>
        <time>2015-10-11T07:29:06.000Z</time>
      </trkpt>
      <trkpt lat="47.4953" lon="6.75717">
        <ele>325</ele>
        <time>2015-10-11T07:29:07.000Z</time>
      </trkpt>
      <trkpt lat="47.49525" lon="6.75721">
        <ele>325</ele>
        <time>2015-10-11T07:29:08.000Z</time>
      </trkpt>
      <trkpt lat="47.4952" lon="6.75725">
        <ele>325</ele>
        <time>2015-10-11T07:29:09.000Z</time>
      </trkpt>
      <trkpt lat="47.49515" lon="6.75728">
        <ele>325</ele>
        <time>2015-10-11T07:29:10.000Z</time>
      </trkpt>
      <trkpt lat="47.49511" lon="6.75733">
        <ele>325</ele>
        <time>2015-10-11T07:29:11.000Z</time>
      </trkpt>
      <trkpt lat="47.49507" lon="6.75736">
        <ele>325</ele>
        <time>2015-10-11T07:29:12.000Z</time>
      </trkpt>
      <trkpt lat="47.49502" lon="6.75738">
        <ele>324</ele>
        <time>2015-10-11T07:29:13.000Z</time>
      </trkpt>
      <trkpt lat="47.49498" lon="6.75739">
        <ele>323</ele>
        <time>2015-10-11T07:29:14.000Z</time>
      </trkpt>
      <trkpt lat="47.49493" lon="6.7574">
        <ele>323</ele>
        <time>2015-10-11T07:29:15.000Z</time>
      </trkpt>
      <trkpt lat="47.49489" lon="6.75739">
        <ele>323</ele>
        <time>2015-10-11T07:29:16.000Z</time>
      </trkpt>
      <trkpt lat="47.49485" lon="6.75737">
        <ele>322</ele>
        <time>2015-10-11T07:29:17.000Z</time>
      </trkpt>
      <trkpt lat="47.49482" lon="6.75732">
        <ele>322</ele>
        <time>2015-10-11T07:29:18.000Z</time>
      </trkpt>
      <trkpt lat="47.4948" lon="6.75727">
        <ele>322</ele>
        <time>2015-10-11T07:29:19.000Z</time>
      </trkpt>
      <trkpt lat="47.49479" lon="6.75722">
        <ele>322</ele>
        <time>2015-10-11T07:29:20.000Z</time>
      </trkpt>
      <trkpt lat="47.49477" lon="6.75717">
        <ele>321</ele>
        <time>2015-10-11T07:29:21.000Z</time>
      </trkpt>
      <trkpt lat="47.49476" lon="6.75713">
        <ele>321</ele>
        <time>2015-10-11T07:29:22.000Z</time>
      </trkpt>
      <trkpt lat="47.49474" lon="6.75709">
        <ele>321</ele>
        <time>2015-10-11T07:29:23.000Z</time>
      </trkpt>
      <trkpt lat="47.49473" lon="6.75705">
        <ele>321</ele>
        <time>2015-10-11T07:29:24.000Z</time>
      </trkpt>
      <trkpt lat="47.49472" lon="6.75701">
        <ele>321</ele>
        <time>2015-10-11T07:29:25.000Z</time>
      </trkpt>
      <trkpt lat="47.4947" lon="6.75696">
        <ele>321</ele>
        <time>2015-10-11T07:29:26.000Z</time>
      </trkpt>
      <trkpt lat="47.49467" lon="6.75692">
        <ele>321</ele>
        <time>2015-10-11T07:29:27.000Z</time>
      </trkpt>
      <trkpt lat="47.49464" lon="6.75689">
        <ele>321</ele>
        <time>2015-10-11T07:29:28.000Z</time>
      </trkpt>
      <trkpt lat="47.49461" lon="6.75688">
        <ele>321</ele>
        <time>2015-10-11T07:29:29.000Z</time>
      </trkpt>
      <trkpt lat="47.49457" lon="6.75689">
        <ele>321</ele>
        <time>2015-10-11T07:29:30.000Z</time>
      </trkpt>
      <trkpt lat="47.49454" lon="6.75691">
        <ele>321</ele>
        <time>2015-10-11T07:29:31.000Z</time>
      </trkpt>
      <trkpt lat="47.4945" lon="6.75694">
        <ele>321</ele>
        <time>2015-10-11T07:29:32.000Z</time>
      </trkpt>
      <trkpt lat="47.49446" lon="6.75696">
        <ele>321</ele>
        <time>2015-10-11T07:29:33.000Z</time>
      </trkpt>
      <trkpt lat="47.49443" lon="6.75696">
        <ele>321</ele>
        <time>2015-10-11T07:29:34.000Z</time>
      </trkpt>
      <trkpt lat="47.4944" lon="6.75694">
        <ele>321</ele>
        <time>2015-10-11T07:29:35.000Z</time>
      </trkpt>
      <trkpt lat="47.49438" lon="6.7569">
        <ele>320</ele>
        <time>2015-10-11T07:29:36.000Z</time>
      </trkpt>
      <trkpt lat="47.49436" lon="6.75684">
        <ele>320</ele>
        <time>2015-10-11T07:29:37.000Z</time>
      </trkpt>
      <trkpt lat="47.49435" lon="6.75678">
        <ele>320</ele>
        <time>2015-10-11T07:29:38.000Z</time>
      </trkpt>
      <trkpt lat="47.49433" lon="6.75673">
        <ele>320</ele>
        <time>2015-10-11T07:29:39.000Z</time>
      </trkpt>
      <trkpt lat="47.49431" lon="6.75668">
        <ele>320</ele>
        <time>2015-10-11T07:29:40.000Z</time>
      </trkpt>
      <trkpt lat="47.49428" lon="6.75667">
        <ele>320</ele>
        <time>2015-10-11T07:29:41.000Z</time>
      </trkpt>
      <trkpt lat="47.49424" lon="6.75668">
        <ele>319</ele>
        <time>2015-10-11T07:29:42.000Z</time>
      </trkpt>
      <trkpt lat="47.49419" lon="6.75671">
        <ele>319</ele>
        <time>2015-10-11T07:29:43.000Z</time>
      </trkpt>
      <trkpt lat="47.49415" lon="6.75675">
        <ele>319</ele>
        <time>2015-10-11T07:29:44.000Z</time>
      </trkpt>
      <trkpt lat="47.49411" lon="6.75679">
        <ele>319</ele>
        <time>2015-10-11T07:29:45.000Z</time>
      </trkpt>
      <trkpt lat="47.49405" lon="6.75687">
        <ele>319</ele>
        <time>2015-10-11T07:29:46.000Z</time>
      </trkpt>
      <trkpt lat="47.49401" lon="6.7569">
        <ele>319</ele>
        <time>2015-10-11T07:29:47.000Z</time>
      </trkpt>
      <trkpt lat="47.49397" lon="6.75693">
        <ele>319</ele>
        <time>2015-10-11T07:29:48.000Z</time>
      </trkpt>
      <trkpt lat="47.49393" lon="6.75696">
        <ele>319</ele>
        <time>2015-10-11T07:29:49.000Z</time>
      </trkpt>
      <trkpt lat="47.49389" lon="6.75699">
        <ele>319</ele>
        <time>2015-10-11T07:29:50.000Z</time>
      </trkpt>
      <trkpt lat="47.49384" lon="6.75701">
        <ele>319</ele>
        <time>2015-10-11T07:29:51.000Z</time>
      </trkpt>
      <trkpt lat="47.4938" lon="6.75704">
        <ele>319</ele>
        <time>2015-10-11T07:29:52.000Z</time>
      </trkpt>
      <trkpt lat="47.49376" lon="6.75707">
        <ele>319</ele>
        <time>2015-10-11T07:29:53.000Z</time>
      </trkpt>
      <trkpt lat="47.49373" lon="6.7571">
        <ele>319</ele>
        <time>2015-10-11T07:29:54.000Z</time>
      </trkpt>
      <trkpt lat="47.49369" lon="6.75712">
        <ele>319</ele>
        <time>2015-10-11T07:29:55.000Z</time>
      </trkpt>
      <trkpt lat="47.49366" lon="6.75713">
        <ele>319</ele>
        <time>2015-10-11T07:29:56.000Z</time>
      </trkpt>
      <trkpt lat="47.49364" lon="6.75715">
        <ele>319</ele>
        <time>2015-10-11T07:29:57.000Z</time>
      </trkpt>
      <trkpt lat="47.49361" lon="6.75719">
        <ele>319</ele>
        <time>2015-10-11T07:30:00.000Z</time>
      </trkpt>
      <trkpt lat="47.49359" lon="6.75721">
        <ele>319</ele>
        <time>2015-10-11T07:30:01.000Z</time>
      </trkpt>
      <trkpt lat="47.49355" lon="6.75724">
        <ele>319</ele>
        <time>2015-10-11T07:30:03.000Z</time>
      </trkpt>
      <trkpt lat="47.49352" lon="6.75725">
        <ele>319</ele>
        <time>2015-10-11T07:30:04.000Z</time>
      </trkpt>
      <trkpt lat="47.49349" lon="6.75726">
        <ele>319</ele>
        <time>2015-10-11T07:30:05.000Z</time>
      </trkpt>
      <trkpt lat="47.49343" lon="6.75731">
        <ele>318</ele>
        <time>2015-10-11T07:30:06.000Z</time>
      </trkpt>
      <trkpt lat="47.49339" lon="6.75735">
        <ele>318</ele>
        <time>2015-10-11T07:30:07.000Z</time>
      </trkpt>
      <trkpt lat="47.49334" lon="6.7574">
        <ele>318</ele>
        <time>2015-10-11T07:30:08.000Z</time>
      </trkpt>
      <trkpt lat="47.49329" lon="6.75744">
        <ele>318</ele>
        <time>2015-10-11T07:30:09.000Z</time>
      </trkpt>
      <trkpt lat="47.49324" lon="6.75746">
        <ele>318</ele>
        <time>2015-10-11T07:30:10.000Z</time>
      </trkpt>
      <trkpt lat="47.49319" lon="6.7575">
        <ele>319</ele>
        <time>2015-10-11T07:30:11.000Z</time>
      </trkpt>
      <trkpt lat="47.49315" lon="6.75752">
        <ele>318</ele>
        <time>2015-10-11T07:30:12.000Z</time>
      </trkpt>
      <trkpt lat="47.49312" lon="6.75756">
        <ele>318</ele>
        <time>2015-10-11T07:30:13.000Z</time>
      </trkpt>
      <trkpt lat="47.49308" lon="6.7576">
        <ele>318</ele>
        <time>2015-10-11T07:30:14.000Z</time>
      </trkpt>
      <trkpt lat="47.49304" lon="6.75765">
        <ele>318</ele>
        <time>2015-10-11T07:30:15.000Z</time>
      </trkpt>
      <trkpt lat="47.493" lon="6.7577">
        <ele>318</ele>
        <time>2015-10-11T07:30:16.000Z</time>
      </trkpt>
      <trkpt lat="47.49296" lon="6.75774">
        <ele>318</ele>
        <time>2015-10-11T07:30:17.000Z</time>
      </trkpt>
      <trkpt lat="47.49292" lon="6.75777">
        <ele>318</ele>
        <time>2015-10-11T07:30:18.000Z</time>
      </trkpt>
      <trkpt lat="47.49288" lon="6.75782">
        <ele>318</ele>
        <time>2015-10-11T07:30:19.000Z</time>
      </trkpt>
      <trkpt lat="47.49284" lon="6.75787">
        <ele>318</ele>
        <time>2015-10-11T07:30:20.000Z</time>
      </trkpt>
      <trkpt lat="47.49281" lon="6.75793">
        <ele>318</ele>
        <time>2015-10-11T07:30:21.000Z</time>
      </trkpt>
      <trkpt lat="47.49278" lon="6.75799">
        <ele>318</ele>
        <time>2015-10-11T07:30:22.000Z</time>
      </trkpt>
      <trkpt lat="47.49274" lon="6.75803">
        <ele>317</ele>
        <time>2015-10-11T07:30:23.000Z</time>
      </trkpt>
      <trkpt lat="47.49271" lon="6.75809">
        <ele>317</ele>
        <time>2015-10-11T07:30:24.000Z</time>
      </trkpt>
      <trkpt lat="47.49268" lon="6.75813">
        <ele>317</ele>
        <time>2015-10-11T07:30:25.000Z</time>
      </trkpt>
      <trkpt lat="47.49265" lon="6.75819">
        <ele>316</ele>
        <time>2015-10-11T07:30:26.000Z</time>
      </trkpt>
      <trkpt lat="47.49261" lon="6.75824">
        <ele>315</ele>
        <time>2015-10-11T07:30:27.000Z</time>
      </trkpt>
      <trkpt lat="47.49258" lon="6.75829">
        <ele>315</ele>
        <time>2015-10-11T07:30:28.000Z</time>
      </trkpt>
      <trkpt lat="47.49255" lon="6.75835">
        <ele>314</ele>
        <time>2015-10-11T07:30:29.000Z</time>
      </trkpt>
      <trkpt lat="47.49252" lon="6.75841">
        <ele>315</ele>
        <time>2015-10-11T07:30:30.000Z</time>
      </trkpt>
      <trkpt lat="47.49248" lon="6.75846">
        <ele>316</ele>
        <time>2015-10-11T07:30:31.000Z</time>
      </trkpt>
      <trkpt lat="47.49245" lon="6.75851">
        <ele>316</ele>
        <time>2015-10-11T07:30:32.000Z</time>
      </trkpt>
      <trkpt lat="47.49242" lon="6.75858">
        <ele>317</ele>
        <time>2015-10-11T07:30:33.000Z</time>
      </trkpt>
      <trkpt lat="47.49239" lon="6.75864">
        <ele>318</ele>
        <time>2015-10-11T07:30:34.000Z</time>
      </trkpt>
      <trkpt lat="47.49236" lon="6.75871">
        <ele>318</ele>
        <time>2015-10-11T07:30:35.000Z</time>
      </trkpt>
      <trkpt lat="47.49233" lon="6.75877">
        <ele>318</ele>
        <time>2015-10-11T07:30:36.000Z</time>
      </trkpt>
      <trkpt lat="47.4923" lon="6.75883">
        <ele>318</ele>
        <time>2015-10-11T07:30:37.000Z</time>
      </trkpt>
      <trkpt lat="47.49227" lon="6.75889">
        <ele>318</ele>
        <time>2015-10-11T07:30:38.000Z</time>
      </trkpt>
      <trkpt lat="47.49223" lon="6.75894">
        <ele>319</ele>
        <time>2015-10-11T07:30:39.000Z</time>
      </trkpt>
      <trkpt lat="47.4922" lon="6.759">
        <ele>319</ele>
        <time>2015-10-11T07:30:40.000Z</time>
      </trkpt>
      <trkpt lat="47.49217" lon="6.75907">
        <ele>319</ele>
        <time>2015-10-11T07:30:41.000Z</time>
      </trkpt>
      <trkpt lat="47.49214" lon="6.75913">
        <ele>319</ele>
        <time>2015-10-11T07:30:42.000Z</time>
      </trkpt>
      <trkpt lat="47.49211" lon="6.75919">
        <ele>320</ele>
        <time>2015-10-11T07:30:43.000Z</time>
      </trkpt>
      <trkpt lat="47.49208" lon="6.75926">
        <ele>320</ele>
        <time>2015-10-11T07:30:44.000Z</time>
      </trkpt>
      <trkpt lat="47.49206" lon="6.75933">
        <ele>320</ele>
        <time>2015-10-11T07:30:45.000Z</time>
      </trkpt>
      <trkpt lat="47.49204" lon="6.7594">
        <ele>320</ele>
        <time>2015-10-11T07:30:46.000Z</time>
      </trkpt>
      <trkpt lat="47.49202" lon="6.75946">
        <ele>320</ele>
        <time>2015-10-11T07:30:47.000Z</time>
      </trkpt>
      <trkpt lat="47.49198" lon="6.75951">
        <ele>320</ele>
        <time>2015-10-11T07:30:48.000Z</time>
      </trkpt>
      <trkpt lat="47.49195" lon="6.75956">
        <ele>320</ele>
        <time>2015-10-11T07:30:49.000Z</time>
      </trkpt>
      <trkpt lat="47.49194" lon="6.75962">
        <ele>320</ele>
        <time>2015-10-11T07:30:50.000Z</time>
      </trkpt>
      <trkpt lat="47.4919" lon="6.75968">
        <ele>320</ele>
        <time>2015-10-11T07:30:51.000Z</time>
      </trkpt>
      <trkpt lat="47.49187" lon="6.75974">
        <ele>320</ele>
        <time>2015-10-11T07:30:52.000Z</time>
      </trkpt>
      <trkpt lat="47.49184" lon="6.7598">
        <ele>320</ele>
        <time>2015-10-11T07:30:53.000Z</time>
      </trkpt>
      <trkpt lat="47.49182" lon="6.75985">
        <ele>320</ele>
        <time>2015-10-11T07:30:54.000Z</time>
      </trkpt>
      <trkpt lat="47.4918" lon="6.75992">
        <ele>320</ele>
        <time>2015-10-11T07:30:55.000Z</time>
      </trkpt>
      <trkpt lat="47.49178" lon="6.76001">
        <ele>320</ele>
        <time>2015-10-11T07:30:56.000Z</time>
      </trkpt>
      <trkpt lat="47.49176" lon="6.76009">
        <ele>320</ele>
        <time>2015-10-11T07:30:57.000Z</time>
      </trkpt>
      <trkpt lat="47.49174" lon="6.76015">
        <ele>320</ele>
        <time>2015-10-11T07:30:58.000Z</time>
      </trkpt>
      <trkpt lat="47.49172" lon="6.76021">
        <ele>320</ele>
        <time>2015-10-11T07:30:59.000Z</time>
      </trkpt>
      <trkpt lat="47.49169" lon="6.76026">
        <ele>320</ele>
        <time>2015-10-11T07:31:00.000Z</time>
      </trkpt>
      <trkpt lat="47.49166" lon="6.76032">
        <ele>322</ele>
        <time>2015-10-11T07:31:01.000Z</time>
      </trkpt>
      <trkpt lat="47.49164" lon="6.76038">
        <ele>322</ele>
        <time>2015-10-11T07:31:02.000Z</time>
      </trkpt>
      <trkpt lat="47.49162" lon="6.76044">
        <ele>322</ele>
        <time>2015-10-11T07:31:03.000Z</time>
      </trkpt>
      <trkpt lat="47.4916" lon="6.7605">
        <ele>322</ele>
        <time>2015-10-11T07:31:04.000Z</time>
      </trkpt>
      <trkpt lat="47.49159" lon="6.76057">
        <ele>322</ele>
        <time>2015-10-11T07:31:05.000Z</time>
      </trkpt>
      <trkpt lat="47.49157" lon="6.76064">
        <ele>322</ele>
        <time>2015-10-11T07:31:06.000Z</time>
      </trkpt>
      <trkpt lat="47.49155" lon="6.76071">
        <ele>321</ele>
        <time>2015-10-11T07:31:07.000Z</time>
      </trkpt>
      <trkpt lat="47.49153" lon="6.76078">
        <ele>321</ele>
        <time>2015-10-11T07:31:08.000Z</time>
      </trkpt>
      <trkpt lat="47.49151" lon="6.76085">
        <ele>320</ele>
        <time>2015-10-11T07:31:09.000Z</time>
      </trkpt>
      <trkpt lat="47.49149" lon="6.76092">
        <ele>320</ele>
        <time>2015-10-11T07:31:10.001Z</time>
      </trkpt>
      <trkpt lat="47.49148" lon="6.76098">
        <ele>321</ele>
        <time>2015-10-11T07:31:11.000Z</time>
      </trkpt>
      <trkpt lat="47.49146" lon="6.76104">
        <ele>321</ele>
        <time>2015-10-11T07:31:12.000Z</time>
      </trkpt>
      <trkpt lat="47.49145" lon="6.76112">
        <ele>321</ele>
        <time>2015-10-11T07:31:13.000Z</time>
      </trkpt>
      <trkpt lat="47.49143" lon="6.76119">
        <ele>321</ele>
        <time>2015-10-11T07:31:13.999Z</time>
      </trkpt>
      <trkpt lat="47.49142" lon="6.76127">
        <ele>322</ele>
        <time>2015-10-11T07:31:15.000Z</time>
      </trkpt>
      <trkpt lat="47.49141" lon="6.76134">
        <ele>322</ele>
        <time>2015-10-11T07:31:16.000Z</time>
      </trkpt>
      <trkpt lat="47.4914" lon="6.76142">
        <ele>321</ele>
        <time>2015-10-11T07:31:16.999Z</time>
      </trkpt>
      <trkpt lat="47.49139" lon="6.76149">
        <ele>321</ele>
        <time>2015-10-11T07:31:18.000Z</time>
      </trkpt>
      <trkpt lat="47.49139" lon="6.76158">
        <ele>321</ele>
        <time>2015-10-11T07:31:19.000Z</time>
      </trkpt>
      <trkpt lat="47.49139" lon="6.76165">
        <ele>321</ele>
        <time>2015-10-11T07:31:20.000Z</time>
      </trkpt>
      <trkpt lat="47.49135" lon="6.7617">
        <ele>321</ele>
        <time>2015-10-11T07:31:21.000Z</time>
      </trkpt>
      <trkpt lat="47.49131" lon="6.76176">
        <ele>321</ele>
        <time>2015-10-11T07:31:22.000Z</time>
      </trkpt>
      <trkpt lat="47.49129" lon="6.76181">
        <ele>321</ele>
        <time>2015-10-11T07:31:23.000Z</time>
      </trkpt>
      <trkpt lat="47.49127" lon="6.76188">
        <ele>321</ele>
        <time>2015-10-11T07:31:23.999Z</time>
      </trkpt>
      <trkpt lat="47.49129" lon="6.76198">
        <ele>321</ele>
        <time>2015-10-11T07:31:25.000Z</time>
      </trkpt>
      <trkpt lat="47.49128" lon="6.76205">
        <ele>321</ele>
        <time>2015-10-11T07:31:26.000Z</time>
      </trkpt>
      <trkpt lat="47.49128" lon="6.76214">
        <ele>321</ele>
        <time>2015-10-11T07:31:27.000Z</time>
      </trkpt>
      <trkpt lat="47.49127" lon="6.76222">
        <ele>321</ele>
        <time>2015-10-11T07:31:28.000Z</time>
      </trkpt>
      <trkpt lat="47.49126" lon="6.7623">
        <ele>321</ele>
        <time>2015-10-11T07:31:29.001Z</time>
      </trkpt>
      <trkpt lat="47.49125" lon="6.76236">
        <ele>321</ele>
        <time>2015-10-11T07:31:30.000Z</time>
      </trkpt>
      <trkpt lat="47.49124" lon="6.76244">
        <ele>321</ele>
        <time>2015-10-11T07:31:31.000Z</time>
      </trkpt>
      <trkpt lat="47.49123" lon="6.76252">
        <ele>320</ele>
        <time>2015-10-11T07:31:32.000Z</time>
      </trkpt>
      <trkpt lat="47.49122" lon="6.7626">
        <ele>320</ele>
        <time>2015-10-11T07:31:33.000Z</time>
      </trkpt>
      <trkpt lat="47.49121" lon="6.76267">
        <ele>320</ele>
        <time>2015-10-11T07:31:34.000Z</time>
      </trkpt>
      <trkpt lat="47.49121" lon="6.76272">
        <ele>320</ele>
        <time>2015-10-11T07:31:35.000Z</time>
      </trkpt>
      <trkpt lat="47.49121" lon="6.76277">
        <ele>320</ele>
        <time>2015-10-11T07:31:36.000Z</time>
      </trkpt>
      <trkpt lat="47.49123" lon="6.76283">
        <ele>320</ele>
        <time>2015-10-11T07:31:37.000Z</time>
      </trkpt>
      <trkpt lat="47.49123" lon="6.76289">
        <ele>320</ele>
        <time>2015-10-11T07:31:38.000Z</time>
      </trkpt>
      <trkpt lat="47.49132" lon="6.7629">
        <ele>319</ele>
        <time>2015-10-11T07:31:39.000Z</time>
      </trkpt>
      <trkpt lat="47.49131" lon="6.76299">
        <ele>319</ele>
        <time>2015-10-11T07:31:40.000Z</time>
      </trkpt>
      <trkpt lat="47.49131" lon="6.76305">
        <ele>319</ele>
        <time>2015-10-11T07:31:41.000Z</time>
      </trkpt>
      <trkpt lat="47.49128" lon="6.76313">
        <ele>319</ele>
        <time>2015-10-11T07:31:42.000Z</time>
      </trkpt>
      <trkpt lat="47.49127" lon="6.76322">
        <ele>319</ele>
        <time>2015-10-11T07:31:43.000Z</time>
      </trkpt>
      <trkpt lat="47.49127" lon="6.76328">
        <ele>319</ele>
        <time>2015-10-11T07:31:44.000Z</time>
      </trkpt>
      <trkpt lat="47.49125" lon="6.76334">
        <ele>318</ele>
        <time>2015-10-11T07:31:45.000Z</time>
      </trkpt>
      <trkpt lat="47.49124" lon="6.76339">
        <ele>318</ele>
        <time>2015-10-11T07:31:46.000Z</time>
      </trkpt>
      <trkpt lat="47.49123" lon="6.76347">
        <ele>318</ele>
        <time>2015-10-11T07:31:47.000Z</time>
      </trkpt>
      <trkpt lat="47.49123" lon="6.76354">
        <ele>318</ele>
        <time>2015-10-11T07:31:48.000Z</time>
      </trkpt>
      <trkpt lat="47.49125" lon="6.76361">
        <ele>318</ele>
        <time>2015-10-11T07:31:49.000Z</time>
      </trkpt>
      <trkpt lat="47.49125" lon="6.76369">
        <ele>318</ele>
        <time>2015-10-11T07:31:50.000Z</time>
      </trkpt>
      <trkpt lat="47.49127" lon="6.76377">
        <ele>318</ele>
        <time>2015-10-11T07:31:51.000Z</time>
      </trkpt>
      <trkpt lat="47.49127" lon="6.76384">
        <ele>318</ele>
        <time>2015-10-11T07:31:52.000Z</time>
      </trkpt>
      <trkpt lat="47.49126" lon="6.7639">
        <ele>318</ele>
        <time>2015-10-11T07:31:53.000Z</time>
      </trkpt>
      <trkpt lat="47.49126" lon="6.76395">
        <ele>318</ele>
        <time>2015-10-11T07:31:54.000Z</time>
      </trkpt>
      <trkpt lat="47.49126" lon="6.76402">
        <ele>317</ele>
        <time>2015-10-11T07:31:55.000Z</time>
      </trkpt>
      <trkpt lat="47.49125" lon="6.7641">
        <ele>317</ele>
        <time>2015-10-11T07:31:56.000Z</time>
      </trkpt>
      <trkpt lat="47.49125" lon="6.76418">
        <ele>317</ele>
        <time>2015-10-11T07:31:57.000Z</time>
      </trkpt>
      <trkpt lat="47.49125" lon="6.76425">
        <ele>317</ele>
        <time>2015-10-11T07:31:58.000Z</time>
      </trkpt>
      <trkpt lat="47.49125" lon="6.76433">
        <ele>317</ele>
        <time>2015-10-11T07:31:59.000Z</time>
      </trkpt>
      <trkpt lat="47.49125" lon="6.7644">
        <ele>317</ele>
        <time>2015-10-11T07:32:00.000Z</time>
      </trkpt>
      <trkpt lat="47.49124" lon="6.76448">
        <ele>317</ele>
        <time>2015-10-11T07:32:01.000Z</time>
      </trkpt>
      <trkpt lat="47.49124" lon="6.76454">
        <ele>317</ele>
        <time>2015-10-11T07:32:02.000Z</time>
      </trkpt>
      <trkpt lat="47.49124" lon="6.76461">
        <ele>317</ele>
        <time>2015-10-11T07:32:03.000Z</time>
      </trkpt>
      <trkpt lat="47.49125" lon="6.76468">
        <ele>317</ele>
        <time>2015-10-11T07:32:04.000Z</time>
      </trkpt>
      <trkpt lat="47.49123" lon="6.76475">
        <ele>317</ele>
        <time>2015-10-11T07:32:05.000Z</time>
      </trkpt>
      <trkpt lat="47.49123" lon="6.76482">
        <ele>317</ele>
        <time>2015-10-11T07:32:06.000Z</time>
      </trkpt>
      <trkpt lat="47.49124" lon="6.76488">
        <ele>317</ele>
        <time>2015-10-11T07:32:07.000Z</time>
      </trkpt>
      <trkpt lat="47.49127" lon="6.76496">
        <ele>317</ele>
        <time>2015-10-11T07:32:08.000Z</time>
      </trkpt>
      <trkpt lat="47.49127" lon="6.76501">
        <ele>316</ele>
        <time>2015-10-11T07:32:09.000Z</time>
      </trkpt>
      <trkpt lat="47.49129" lon="6.76504">
        <ele>316</ele>
        <time>2015-10-11T07:32:10.000Z</time>
      </trkpt>
      <trkpt lat="47.49132" lon="6.76504">
        <ele>316</ele>
        <time>2015-10-11T07:32:11.000Z</time>
      </trkpt>
      <trkpt lat="47.49136" lon="6.76502">
        <ele>315</ele>
        <time>2015-10-11T07:32:12.000Z</time>
      </trkpt>
      <trkpt lat="47.49139" lon="6.76502">
        <ele>315</ele>
        <time>2015-10-11T07:32:13.000Z</time>
      </trkpt>
      <trkpt lat="47.49143" lon="6.76502">
        <ele>315</ele>
        <time>2015-10-11T07:32:14.000Z</time>
      </trkpt>
      <trkpt lat="47.49147" lon="6.765">
        <ele>315</ele>
        <time>2015-10-11T07:32:15.000Z</time>
      </trkpt>
      <trkpt lat="47.4915" lon="6.765">
        <ele>315</ele>
        <time>2015-10-11T07:32:16.000Z</time>
      </trkpt>
      <trkpt lat="47.49153" lon="6.76499">
        <ele>315</ele>
        <time>2015-10-11T07:32:17.000Z</time>
      </trkpt>
      <trkpt lat="47.49157" lon="6.76499">
        <ele>314</ele>
        <time>2015-10-11T07:32:18.000Z</time>
      </trkpt>
      <trkpt lat="47.4916" lon="6.765">
        <ele>314</ele>
        <time>2015-10-11T07:32:19.000Z</time>
      </trkpt>
      <trkpt lat="47.49163" lon="6.765">
        <ele>313</ele>
        <time>2015-10-11T07:32:20.000Z</time>
      </trkpt>
      <trkpt lat="47.49167" lon="6.76501">
        <ele>313</ele>
        <time>2015-10-11T07:32:21.000Z</time>
      </trkpt>
      <trkpt lat="47.4917" lon="6.76501">
        <ele>314</ele>
        <time>2015-10-11T07:32:22.000Z</time>
      </trkpt>
      <trkpt lat="47.49172" lon="6.765">
        <ele>314</ele>
        <time>2015-10-11T07:32:23.000Z</time>
      </trkpt>
      <trkpt lat="47.49174" lon="6.76497">
        <ele>314</ele>
        <time>2015-10-11T07:32:24.000Z</time>
      </trkpt>
      <trkpt lat="47.49177" lon="6.76496">
        <ele>315</ele>
        <time>2015-10-11T07:32:24.999Z</time>
      </trkpt>
      <trkpt lat="47.49177" lon="6.76491">
        <ele>315</ele>
        <time>2015-10-11T07:32:26.000Z</time>
      </trkpt>
      <trkpt lat="47.49178" lon="6.76488">
        <ele>315</ele>
        <time>2015-10-11T07:32:27.000Z</time>
      </trkpt>
      <trkpt lat="47.49178" lon="6.76484">
        <ele>316</ele>
        <time>2015-10-11T07:32:28.000Z</time>
      </trkpt>
      <trkpt lat="47.49177" lon="6.76479">
        <ele>316</ele>
        <time>2015-10-11T07:32:29.999Z</time>
      </trkpt>
      <trkpt lat="47.49175" lon="6.76478">
        <ele>316</ele>
        <time>2015-10-11T07:32:31.000Z</time>
      </trkpt>
      <trkpt lat="47.49172" lon="6.76481">
        <ele>316</ele>
        <time>2015-10-11T07:39:35.000Z</time>
      </trkpt>
      <trkpt lat="47.49171" lon="6.76481">
        <ele>315</ele>
        <time>2015-10-11T07:39:36.000Z</time>
      </trkpt>
      <trkpt lat="47.49175" lon="6.76483">
        <ele>315</ele>
        <time>2015-10-11T07:41:26.000Z</time>
      </trkpt>
      <trkpt lat="47.49176" lon="6.76484">
        <ele>315</ele>
        <time>2015-10-11T07:41:27.000Z</time>
      </trkpt>
      <trkpt lat="47.4918" lon="6.76486">
        <ele>316</ele>
        <time>2015-10-11T07:41:30.000Z</time>
      </trkpt>
      <trkpt lat="47.49181" lon="6.76488">
        <ele>316</ele>
        <time>2015-10-11T07:41:31.000Z</time>
      </trkpt>
      <trkpt lat="47.49182" lon="6.76494">
        <ele>315</ele>
        <time>2015-10-11T07:41:33.000Z</time>
      </trkpt>
      <trkpt lat="47.49181" lon="6.76497">
        <ele>315</ele>
        <time>2015-10-11T07:41:34.000Z</time>
      </trkpt>
      <trkpt lat="47.4918" lon="6.76499">
        <ele>315</ele>
        <time>2015-10-11T07:41:35.000Z</time>
      </trkpt>
      <trkpt lat="47.49178" lon="6.76502">
        <ele>314</ele>
        <time>2015-10-11T07:41:36.000Z</time>
      </trkpt>
      <trkpt lat="47.49175" lon="6.76504">
        <ele>314</ele>
        <time>2015-10-11T07:41:37.000Z</time>
      </trkpt>
      <trkpt lat="47.49173" lon="6.76506">
        <ele>314</ele>
        <time>2015-10-11T07:41:38.000Z</time>
      </trkpt>
      <trkpt lat="47.4917" lon="6.76508">
        <ele>314</ele>
        <time>2015-10-11T07:41:39.000Z</time>
      </trkpt>
      <trkpt lat="47.49167" lon="6.76509">
        <ele>314</ele>
        <time>2015-10-11T07:41:40.000Z</time>
      </trkpt>
      <trkpt lat="47.49164" lon="6.76512">
        <ele>314</ele>
        <time>2015-10-11T07:41:41.000Z</time>
      </trkpt>
      <trkpt lat="47.49158" lon="6.76517">
        <ele>314</ele>
        <time>2015-10-11T07:41:42.000Z</time>
      </trkpt>
      <trkpt lat="47.49153" lon="6.7652">
        <ele>315</ele>
        <time>2015-10-11T07:41:43.000Z</time>
      </trkpt>
      <trkpt lat="47.49149" lon="6.76524">
        <ele>315</ele>
        <time>2015-10-11T07:41:44.000Z</time>
      </trkpt>
      <trkpt lat="47.49144" lon="6.76526">
        <ele>315</ele>
        <time>2015-10-11T07:41:45.000Z</time>
      </trkpt>
      <trkpt lat="47.49139" lon="6.76526">
        <ele>315</ele>
        <time>2015-10-11T07:41:46.000Z</time>
      </trkpt>
      <trkpt lat="47.49135" lon="6.76525">
        <ele>316</ele>
        <time>2015-10-11T07:41:47.000Z</time>
      </trkpt>
      <trkpt lat="47.4913" lon="6.76525">
        <ele>316</ele>
        <time>2015-10-11T07:41:48.000Z</time>
      </trkpt>
      <trkpt lat="47.49126" lon="6.76523">
        <ele>316</ele>
        <time>2015-10-11T07:41:49.000Z</time>
      </trkpt>
      <trkpt lat="47.49122" lon="6.76519">
        <ele>316</ele>
        <time>2015-10-11T07:41:50.000Z</time>
      </trkpt>
      <trkpt lat="47.49117" lon="6.76517">
        <ele>317</ele>
        <time>2015-10-11T07:41:50.999Z</time>
      </trkpt>
      <trkpt lat="47.49115" lon="6.76512">
        <ele>317</ele>
        <time>2015-10-11T07:41:52.001Z</time>
      </trkpt>
      <trkpt lat="47.49116" lon="6.76508">
        <ele>317</ele>
        <time>2015-10-11T07:41:53.000Z</time>
      </trkpt>
      <trkpt lat="47.4912" lon="6.76499">
        <ele>317</ele>
        <time>2015-10-11T07:41:54.000Z</time>
      </trkpt>
      <trkpt lat="47.49121" lon="6.76493">
        <ele>317</ele>
        <time>2015-10-11T07:41:55.000Z</time>
      </trkpt>
      <trkpt lat="47.49121" lon="6.7649">
        <ele>317</ele>
        <time>2015-10-11T07:41:56.000Z</time>
      </trkpt>
      <trkpt lat="47.49121" lon="6.76485">
        <ele>317</ele>
        <time>2015-10-11T07:41:57.000Z</time>
      </trkpt>
      <trkpt lat="47.49121" lon="6.7648">
        <ele>317</ele>
        <time>2015-10-11T07:41:58.000Z</time>
      </trkpt>
      <trkpt lat="47.49121" lon="6.76474">
        <ele>317</ele>
        <time>2015-10-11T07:41:59.000Z</time>
      </trkpt>
      <trkpt lat="47.49121" lon="6.76469">
        <ele>317</ele>
        <time>2015-10-11T07:42:00.000Z</time>
      </trkpt>
      <trkpt lat="47.49121" lon="6.76464">
        <ele>317</ele>
        <time>2015-10-11T07:42:01.000Z</time>
      </trkpt>
      <trkpt lat="47.49122" lon="6.76459">
        <ele>317</ele>
        <time>2015-10-11T07:42:02.000Z</time>
      </trkpt>
      <trkpt lat="47.49123" lon="6.76453">
        <ele>317</ele>
        <time>2015-10-11T07:42:03.000Z</time>
      </trkpt>
      <trkpt lat="47.49123" lon="6.76448">
        <ele>317</ele>
        <time>2015-10-11T07:42:04.000Z</time>
      </trkpt>
      <trkpt lat="47.49124" lon="6.76443">
        <ele>317</ele>
        <time>2015-10-11T07:42:05.000Z</time>
      </trkpt>
      <trkpt lat="47.49124" lon="6.76439">
        <ele>317</ele>
        <time>2015-10-11T07:42:06.000Z</time>
      </trkpt>
      <trkpt lat="47.49123" lon="6.76433">
        <ele>317</ele>
        <time>2015-10-11T07:42:08.000Z</time>
      </trkpt>
      <trkpt lat="47.49121" lon="6.76431">
        <ele>317</ele>
        <time>2015-10-11T07:42:09.000Z</time>
      </trkpt>
      <trkpt lat="47.49119" lon="6.76431">
        <ele>317</ele>
        <time>2015-10-11T07:42:10.000Z</time>
      </trkpt>
      <trkpt lat="47.49116" lon="6.76431">
        <ele>318</ele>
        <time>2015-10-11T07:42:11.000Z</time>
      </trkpt>
      <trkpt lat="47.49113" lon="6.76431">
        <ele>318</ele>
        <time>2015-10-11T07:42:12.000Z</time>
      </trkpt>
      <trkpt lat="47.4911" lon="6.7643">
        <ele>318</ele>
        <time>2015-10-11T07:42:13.000Z</time>
      </trkpt>
      <trkpt lat="47.49107" lon="6.76429">
        <ele>318</ele>
        <time>2015-10-11T07:42:14.000Z</time>
      </trkpt>
      <trkpt lat="47.49104" lon="6.76426">
        <ele>319</ele>
        <time>2015-10-11T07:42:15.000Z</time>
      </trkpt>
      <trkpt lat="47.49101" lon="6.76421">
        <ele>319</ele>
        <time>2015-10-11T07:42:16.000Z</time>
      </trkpt>
      <trkpt lat="47.491" lon="6.76416">
        <ele>319</ele>
        <time>2015-10-11T07:42:17.000Z</time>
      </trkpt>
      <trkpt lat="47.491" lon="6.76412">
        <ele>319</ele>
        <time>2015-10-11T07:42:18.000Z</time>
      </trkpt>
      <trkpt lat="47.49101" lon="6.76408">
        <ele>319</ele>
        <time>2015-10-11T07:42:19.000Z</time>
      </trkpt>
      <trkpt lat="47.49102" lon="6.76404">
        <ele>319</ele>
        <time>2015-10-11T07:42:20.000Z</time>
      </trkpt>
      <trkpt lat="47.49103" lon="6.764">
        <ele>319</ele>
        <time>2015-10-11T07:42:21.000Z</time>
      </trkpt>
      <trkpt lat="47.49103" lon="6.76396">
        <ele>319</ele>
        <time>2015-10-11T07:42:22.000Z</time>
      </trkpt>
      <trkpt lat="47.49103" lon="6.76391">
        <ele>319</ele>
        <time>2015-10-11T07:42:23.000Z</time>
      </trkpt>
      <trkpt lat="47.49103" lon="6.76386">
        <ele>319</ele>
        <time>2015-10-11T07:42:24.000Z</time>
      </trkpt>
      <trkpt lat="47.49103" lon="6.76382">
        <ele>319</ele>
        <time>2015-10-11T07:42:25.000Z</time>
      </trkpt>
      <trkpt lat="47.49103" lon="6.76377">
        <ele>319</ele>
        <time>2015-10-11T07:42:26.000Z</time>
      </trkpt>
      <trkpt lat="47.49103" lon="6.76372">
        <ele>319</ele>
        <time>2015-10-11T07:42:27.000Z</time>
      </trkpt>
      <trkpt lat="47.49103" lon="6.76367">
        <ele>319</ele>
        <time>2015-10-11T07:42:28.000Z</time>
      </trkpt>
      <trkpt lat="47.49102" lon="6.76363">
        <ele>319</ele>
        <time>2015-10-11T07:42:29.000Z</time>
      </trkpt>
      <trkpt lat="47.49102" lon="6.76359">
        <ele>319</ele>
        <time>2015-10-11T07:42:30.000Z</time>
      </trkpt>
      <trkpt lat="47.49101" lon="6.76355">
        <ele>319</ele>
        <time>2015-10-11T07:42:31.000Z</time>
      </trkpt>
      <trkpt lat="47.491" lon="6.76351">
        <ele>320</ele>
        <time>2015-10-11T07:42:32.000Z</time>
      </trkpt>
      <trkpt lat="47.491" lon="6.76347">
        <ele>320</ele>
        <time>2015-10-11T07:42:33.000Z</time>
      </trkpt>
      <trkpt lat="47.49099" lon="6.76343">
        <ele>320</ele>
        <time>2015-10-11T07:42:34.000Z</time>
      </trkpt>
      <trkpt lat="47.49099" lon="6.76338">
        <ele>320</ele>
        <time>2015-10-11T07:42:35.000Z</time>
      </trkpt>
      <trkpt lat="47.49098" lon="6.76334">
        <ele>321</ele>
        <time>2015-10-11T07:42:36.000Z</time>
      </trkpt>
      <trkpt lat="47.49098" lon="6.76328">
        <ele>321</ele>
        <time>2015-10-11T07:42:37.000Z</time>
      </trkpt>
      <trkpt lat="47.49097" lon="6.76323">
        <ele>321</ele>
        <time>2015-10-11T07:42:38.000Z</time>
      </trkpt>
      <trkpt lat="47.49097" lon="6.76317">
        <ele>321</ele>
        <time>2015-10-11T07:42:39.000Z</time>
      </trkpt>
      <trkpt lat="47.49096" lon="6.76312">
        <ele>321</ele>
        <time>2015-10-11T07:42:40.000Z</time>
      </trkpt>
      <trkpt lat="47.49095" lon="6.76306">
        <ele>321</ele>
        <time>2015-10-11T07:42:41.000Z</time>
      </trkpt>
      <trkpt lat="47.49095" lon="6.76301">
        <ele>321</ele>
        <time>2015-10-11T07:42:42.000Z</time>
      </trkpt>
      <trkpt lat="47.49094" lon="6.76295">
        <ele>321</ele>
        <time>2015-10-11T07:42:43.000Z</time>
      </trkpt>
      <trkpt lat="47.49093" lon="6.7629">
        <ele>321</ele>
        <time>2015-10-11T07:42:44.000Z</time>
      </trkpt>
      <trkpt lat="47.49092" lon="6.76284">
        <ele>321</ele>
        <time>2015-10-11T07:42:45.000Z</time>
      </trkpt>
      <trkpt lat="47.49092" lon="6.76278">
        <ele>321</ele>
        <time>2015-10-11T07:42:46.000Z</time>
      </trkpt>
      <trkpt lat="47.49091" lon="6.76273">
        <ele>322</ele>
        <time>2015-10-11T07:42:47.000Z</time>
      </trkpt>
      <trkpt lat="47.49091" lon="6.76267">
        <ele>322</ele>
        <time>2015-10-11T07:42:48.000Z</time>
      </trkpt>
      <trkpt lat="47.4909" lon="6.76261">
        <ele>323</ele>
        <time>2015-10-11T07:42:49.000Z</time>
      </trkpt>
      <trkpt lat="47.4909" lon="6.76254">
        <ele>324</ele>
        <time>2015-10-11T07:42:50.000Z</time>
      </trkpt>
      <trkpt lat="47.49089" lon="6.76248">
        <ele>324</ele>
        <time>2015-10-11T07:42:51.000Z</time>
      </trkpt>
      <trkpt lat="47.49089" lon="6.76242">
        <ele>324</ele>
        <time>2015-10-11T07:42:52.000Z</time>
      </trkpt>
      <trkpt lat="47.49089" lon="6.76236">
        <ele>323</ele>
        <time>2015-10-11T07:42:53.000Z</time>
      </trkpt>
      <trkpt lat="47.49089" lon="6.7623">
        <ele>323</ele>
        <time>2015-10-11T07:42:54.000Z</time>
      </trkpt>
      <trkpt lat="47.49089" lon="6.76224">
        <ele>323</ele>
        <time>2015-10-11T07:42:55.000Z</time>
      </trkpt>
      <trkpt lat="47.4909" lon="6.76217">
        <ele>322</ele>
        <time>2015-10-11T07:42:56.000Z</time>
      </trkpt>
      <trkpt lat="47.49091" lon="6.76211">
        <ele>322</ele>
        <time>2015-10-11T07:42:57.000Z</time>
      </trkpt>
      <trkpt lat="47.49091" lon="6.76205">
        <ele>322</ele>
        <time>2015-10-11T07:42:58.000Z</time>
      </trkpt>
      <trkpt lat="47.49092" lon="6.762">
        <ele>322</ele>
        <time>2015-10-11T07:42:59.000Z</time>
      </trkpt>
      <trkpt lat="47.49092" lon="6.76194">
        <ele>322</ele>
        <time>2015-10-11T07:43:00.000Z</time>
      </trkpt>
      <trkpt lat="47.49092" lon="6.76188">
        <ele>322</ele>
        <time>2015-10-11T07:43:01.000Z</time>
      </trkpt>
      <trkpt lat="47.49093" lon="6.76182">
        <ele>323</ele>
        <time>2015-10-11T07:43:02.000Z</time>
      </trkpt>
      <trkpt lat="47.49093" lon="6.76176">
        <ele>323</ele>
        <time>2015-10-11T07:43:03.000Z</time>
      </trkpt>
      <trkpt lat="47.49093" lon="6.7617">
        <ele>323</ele>
        <time>2015-10-11T07:43:04.000Z</time>
      </trkpt>
      <trkpt lat="47.49093" lon="6.76163">
        <ele>323</ele>
        <time>2015-10-11T07:43:05.000Z</time>
      </trkpt>
      <trkpt lat="47.49093" lon="6.76157">
        <ele>323</ele>
        <time>2015-10-11T07:43:06.000Z</time>
      </trkpt>
      <trkpt lat="47.49093" lon="6.76152">
        <ele>323</ele>
        <time>2015-10-11T07:43:07.000Z</time>
      </trkpt>
      <trkpt lat="47.49093" lon="6.76147">
        <ele>323</ele>
        <time>2015-10-11T07:43:08.000Z</time>
      </trkpt>
      <trkpt lat="47.49092" lon="6.76142">
        <ele>323</ele>
        <time>2015-10-11T07:43:09.000Z</time>
      </trkpt>
      <trkpt lat="47.49092" lon="6.76137">
        <ele>323</ele>
        <time>2015-10-11T07:43:10.000Z</time>
      </trkpt>
      <trkpt lat="47.49092" lon="6.76132">
        <ele>323</ele>
        <time>2015-10-11T07:43:11.000Z</time>
      </trkpt>
      <trkpt lat="47.49093" lon="6.76127">
        <ele>323</ele>
        <time>2015-10-11T07:43:12.000Z</time>
      </trkpt>
      <trkpt lat="47.49093" lon="6.76123">
        <ele>324</ele>
        <time>2015-10-11T07:43:13.000Z</time>
      </trkpt>
      <trkpt lat="47.49094" lon="6.76118">
        <ele>324</ele>
        <time>2015-10-11T07:43:14.000Z</time>
      </trkpt>
      <trkpt lat="47.49095" lon="6.76113">
        <ele>324</ele>
        <time>2015-10-11T07:43:15.000Z</time>
      </trkpt>
      <trkpt lat="47.49095" lon="6.76109">
        <ele>324</ele>
        <time>2015-10-11T07:43:16.000Z</time>
      </trkpt>
      <trkpt lat="47.49095" lon="6.76105">
        <ele>324</ele>
        <time>2015-10-11T07:43:17.000Z</time>
      </trkpt>
      <trkpt lat="47.49095" lon="6.76102">
        <ele>325</ele>
        <time>2015-10-11T07:43:18.000Z</time>
      </trkpt>
      <trkpt lat="47.49095" lon="6.76098">
        <ele>325</ele>
        <time>2015-10-11T07:43:19.000Z</time>
      </trkpt>
      <trkpt lat="47.49095" lon="6.76094">
        <ele>325</ele>
        <time>2015-10-11T07:43:20.000Z</time>
      </trkpt>
      <trkpt lat="47.49095" lon="6.76089">
        <ele>326</ele>
        <time>2015-10-11T07:43:21.000Z</time>
      </trkpt>
      <trkpt lat="47.49095" lon="6.76084">
        <ele>326</ele>
        <time>2015-10-11T07:43:22.000Z</time>
      </trkpt>
      <trkpt lat="47.49095" lon="6.76079">
        <ele>327</ele>
        <time>2015-10-11T07:43:23.000Z</time>
      </trkpt>
      <trkpt lat="47.49096" lon="6.76073">
        <ele>326</ele>
        <time>2015-10-11T07:43:24.000Z</time>
      </trkpt>
      <trkpt lat="47.49096" lon="6.76067">
        <ele>326</ele>
        <time>2015-10-11T07:43:25.000Z</time>
      </trkpt>
      <trkpt lat="47.49097" lon="6.76061">
        <ele>326</ele>
        <time>2015-10-11T07:43:26.000Z</time>
      </trkpt>
      <trkpt lat="47.49097" lon="6.76055">
        <ele>326</ele>
        <time>2015-10-11T07:43:27.000Z</time>
      </trkpt>
      <trkpt lat="47.49098" lon="6.76049">
        <ele>326</ele>
        <time>2015-10-11T07:43:28.000Z</time>
      </trkpt>
      <trkpt lat="47.49099" lon="6.76043">
        <ele>326</ele>
        <time>2015-10-11T07:43:29.000Z</time>
      </trkpt>
      <trkpt lat="47.491" lon="6.76037">
        <ele>326</ele>
        <time>2015-10-11T07:43:30.000Z</time>
      </trkpt>
      <trkpt lat="47.49101" lon="6.76032">
        <ele>327</ele>
        <time>2015-10-11T07:43:31.000Z</time>
      </trkpt>
      <trkpt lat="47.49102" lon="6.76027">
        <ele>327</ele>
        <time>2015-10-11T07:43:32.000Z</time>
      </trkpt>
      <trkpt lat="47.49103" lon="6.76022">
        <ele>327</ele>
        <time>2015-10-11T07:43:33.000Z</time>
      </trkpt>
      <trkpt lat="47.49105" lon="6.76016">
        <ele>327</ele>
        <time>2015-10-11T07:43:34.000Z</time>
      </trkpt>
      <trkpt lat="47.49107" lon="6.7601">
        <ele>327</ele>
        <time>2015-10-11T07:43:35.000Z</time>
      </trkpt>
      <trkpt lat="47.49108" lon="6.76004">
        <ele>327</ele>
        <time>2015-10-11T07:43:36.000Z</time>
      </trkpt>
      <trkpt lat="47.4911" lon="6.75999">
        <ele>329</ele>
        <time>2015-10-11T07:43:37.000Z</time>
      </trkpt>
      <trkpt lat="47.49112" lon="6.75993">
        <ele>329</ele>
        <time>2015-10-11T07:43:38.000Z</time>
      </trkpt>
      <trkpt lat="47.49114" lon="6.75987">
        <ele>329</ele>
        <time>2015-10-11T07:43:39.000Z</time>
      </trkpt>
      <trkpt lat="47.49116" lon="6.75982">
        <ele>329</ele>
        <time>2015-10-11T07:43:40.000Z</time>
      </trkpt>
      <trkpt lat="47.49118" lon="6.75976">
        <ele>328</ele>
        <time>2015-10-11T07:43:41.000Z</time>
      </trkpt>
      <trkpt lat="47.49119" lon="6.75972">
        <ele>328</ele>
        <time>2015-10-11T07:43:42.000Z</time>
      </trkpt>
      <trkpt lat="47.49121" lon="6.75967">
        <ele>328</ele>
        <time>2015-10-11T07:43:43.000Z</time>
      </trkpt>
      <trkpt lat="47.49122" lon="6.75963">
        <ele>328</ele>
        <time>2015-10-11T07:43:44.000Z</time>
      </trkpt>
      <trkpt lat="47.49123" lon="6.75959">
        <ele>328</ele>
        <time>2015-10-11T07:43:45.000Z</time>
      </trkpt>
      <trkpt lat="47.49125" lon="6.75955">
        <ele>328</ele>
        <time>2015-10-11T07:43:46.000Z</time>
      </trkpt>
      <trkpt lat="47.49126" lon="6.75952">
        <ele>328</ele>
        <time>2015-10-11T07:43:47.000Z</time>
      </trkpt>
      <trkpt lat="47.49127" lon="6.75948">
        <ele>328</ele>
        <time>2015-10-11T07:43:48.000Z</time>
      </trkpt>
      <trkpt lat="47.49128" lon="6.75945">
        <ele>328</ele>
        <time>2015-10-11T07:43:49.000Z</time>
      </trkpt>
      <trkpt lat="47.49129" lon="6.75941">
        <ele>328</ele>
        <time>2015-10-11T07:43:50.000Z</time>
      </trkpt>
      <trkpt lat="47.4913" lon="6.75936">
        <ele>328</ele>
        <time>2015-10-11T07:43:51.000Z</time>
      </trkpt>
      <trkpt lat="47.49131" lon="6.75931">
        <ele>328</ele>
        <time>2015-10-11T07:43:52.000Z</time>
      </trkpt>
      <trkpt lat="47.49132" lon="6.75925">
        <ele>328</ele>
        <time>2015-10-11T07:43:53.000Z</time>
      </trkpt>
      <trkpt lat="47.49133" lon="6.7592">
        <ele>328</ele>
        <time>2015-10-11T07:43:54.000Z</time>
      </trkpt>
      <trkpt lat="47.49134" lon="6.75914">
        <ele>331</ele>
        <time>2015-10-11T07:43:55.000Z</time>
      </trkpt>
      <trkpt lat="47.49136" lon="6.75909">
        <ele>331</ele>
        <time>2015-10-11T07:43:56.000Z</time>
      </trkpt>
      <trkpt lat="47.49137" lon="6.75904">
        <ele>331</ele>
        <time>2015-10-11T07:43:57.000Z</time>
      </trkpt>
      <trkpt lat="47.49138" lon="6.75899">
        <ele>331</ele>
        <time>2015-10-11T07:43:58.000Z</time>
      </trkpt>
      <trkpt lat="47.49139" lon="6.75894">
        <ele>331</ele>
        <time>2015-10-11T07:43:59.000Z</time>
      </trkpt>
      <trkpt lat="47.4914" lon="6.75889">
        <ele>331</ele>
        <time>2015-10-11T07:44:00.000Z</time>
      </trkpt>
      <trkpt lat="47.49141" lon="6.75884">
        <ele>331</ele>
        <time>2015-10-11T07:44:01.000Z</time>
      </trkpt>
      <trkpt lat="47.49143" lon="6.75879">
        <ele>331</ele>
        <time>2015-10-11T07:44:02.000Z</time>
      </trkpt>
      <trkpt lat="47.49144" lon="6.75874">
        <ele>331</ele>
        <time>2015-10-11T07:44:03.000Z</time>
      </trkpt>
      <trkpt lat="47.49146" lon="6.75868">
        <ele>331</ele>
        <time>2015-10-11T07:44:04.000Z</time>
      </trkpt>
      <trkpt lat="47.49147" lon="6.75863">
        <ele>331</ele>
        <time>2015-10-11T07:44:05.000Z</time>
      </trkpt>
      <trkpt lat="47.49149" lon="6.75857">
        <ele>331</ele>
        <time>2015-10-11T07:44:06.000Z</time>
      </trkpt>
      <trkpt lat="47.4915" lon="6.75851">
        <ele>330</ele>
        <time>2015-10-11T07:44:07.000Z</time>
      </trkpt>
      <trkpt lat="47.49152" lon="6.75845">
        <ele>330</ele>
        <time>2015-10-11T07:44:08.000Z</time>
      </trkpt>
      <trkpt lat="47.49154" lon="6.75838">
        <ele>329</ele>
        <time>2015-10-11T07:44:09.000Z</time>
      </trkpt>
      <trkpt lat="47.49156" lon="6.7583">
        <ele>331</ele>
        <time>2015-10-11T07:44:10.000Z</time>
      </trkpt>
      <trkpt lat="47.49158" lon="6.75822">
        <ele>332</ele>
        <time>2015-10-11T07:44:11.000Z</time>
      </trkpt>
      <trkpt lat="47.49161" lon="6.75814">
        <ele>333</ele>
        <time>2015-10-11T07:44:12.000Z</time>
      </trkpt>
      <trkpt lat="47.49163" lon="6.75807">
        <ele>334</ele>
        <time>2015-10-11T07:44:13.000Z</time>
      </trkpt>
      <trkpt lat="47.49166" lon="6.75799">
        <ele>335</ele>
        <time>2015-10-11T07:44:14.000Z</time>
      </trkpt>
      <trkpt lat="47.49168" lon="6.75792">
        <ele>326</ele>
        <time>2015-10-11T07:44:15.000Z</time>
      </trkpt>
      <trkpt lat="47.4917" lon="6.75784">
        <ele>327</ele>
        <time>2015-10-11T07:44:16.000Z</time>
      </trkpt>
      <trkpt lat="47.49173" lon="6.75777">
        <ele>327</ele>
        <time>2015-10-11T07:44:17.000Z</time>
      </trkpt>
      <trkpt lat="47.49176" lon="6.75769">
        <ele>328</ele>
        <time>2015-10-11T07:44:18.000Z</time>
      </trkpt>
      <trkpt lat="47.49178" lon="6.75762">
        <ele>329</ele>
        <time>2015-10-11T07:44:19.000Z</time>
      </trkpt>
      <trkpt lat="47.49181" lon="6.75755">
        <ele>330</ele>
        <time>2015-10-11T07:44:20.000Z</time>
      </trkpt>
      <trkpt lat="47.49183" lon="6.75747">
        <ele>333</ele>
        <time>2015-10-11T07:44:21.000Z</time>
      </trkpt>
      <trkpt lat="47.49186" lon="6.7574">
        <ele>333</ele>
        <time>2015-10-11T07:44:22.000Z</time>
      </trkpt>
      <trkpt lat="47.49188" lon="6.75733">
        <ele>332</ele>
        <time>2015-10-11T07:44:23.000Z</time>
      </trkpt>
      <trkpt lat="47.4919" lon="6.75726">
        <ele>332</ele>
        <time>2015-10-11T07:44:24.000Z</time>
      </trkpt>
      <trkpt lat="47.49193" lon="6.7572">
        <ele>332</ele>
        <time>2015-10-11T07:44:25.000Z</time>
      </trkpt>
      <trkpt lat="47.49195" lon="6.75714">
        <ele>332</ele>
        <time>2015-10-11T07:44:26.000Z</time>
      </trkpt>
      <trkpt lat="47.49197" lon="6.75708">
        <ele>333</ele>
        <time>2015-10-11T07:44:27.000Z</time>
      </trkpt>
      <trkpt lat="47.49199" lon="6.75702">
        <ele>333</ele>
        <time>2015-10-11T07:44:28.000Z</time>
      </trkpt>
      <trkpt lat="47.49201" lon="6.75696">
        <ele>333</ele>
        <time>2015-10-11T07:44:29.000Z</time>
      </trkpt>
      <trkpt lat="47.49203" lon="6.75689">
        <ele>333</ele>
        <time>2015-10-11T07:44:30.000Z</time>
      </trkpt>
      <trkpt lat="47.49204" lon="6.75683">
        <ele>333</ele>
        <time>2015-10-11T07:44:31.000Z</time>
      </trkpt>
      <trkpt lat="47.49206" lon="6.75677">
        <ele>333</ele>
        <time>2015-10-11T07:44:32.000Z</time>
      </trkpt>
      <trkpt lat="47.49208" lon="6.75671">
        <ele>333</ele>
        <time>2015-10-11T07:44:33.000Z</time>
      </trkpt>
      <trkpt lat="47.4921" lon="6.75665">
        <ele>338</ele>
        <time>2015-10-11T07:44:34.000Z</time>
      </trkpt>
      <trkpt lat="47.49211" lon="6.7566">
        <ele>338</ele>
        <time>2015-10-11T07:44:35.000Z</time>
      </trkpt>
      <trkpt lat="47.49212" lon="6.75654">
        <ele>338</ele>
        <time>2015-10-11T07:44:36.000Z</time>
      </trkpt>
      <trkpt lat="47.49214" lon="6.75648">
        <ele>338</ele>
        <time>2015-10-11T07:44:37.000Z</time>
      </trkpt>
      <trkpt lat="47.49216" lon="6.75643">
        <ele>338</ele>
        <time>2015-10-11T07:44:38.000Z</time>
      </trkpt>
      <trkpt lat="47.49218" lon="6.75637">
        <ele>338</ele>
        <time>2015-10-11T07:44:39.000Z</time>
      </trkpt>
      <trkpt lat="47.49219" lon="6.75631">
        <ele>338</ele>
        <time>2015-10-11T07:44:40.000Z</time>
      </trkpt>
      <trkpt lat="47.49221" lon="6.75626">
        <ele>338</ele>
        <time>2015-10-11T07:44:41.000Z</time>
      </trkpt>
      <trkpt lat="47.49222" lon="6.75621">
        <ele>338</ele>
        <time>2015-10-11T07:44:42.000Z</time>
      </trkpt>
      <trkpt lat="47.49224" lon="6.75615">
        <ele>338</ele>
        <time>2015-10-11T07:44:43.000Z</time>
      </trkpt>
      <trkpt lat="47.49225" lon="6.7561">
        <ele>338</ele>
        <time>2015-10-11T07:44:44.000Z</time>
      </trkpt>
      <trkpt lat="47.49226" lon="6.75605">
        <ele>338</ele>
        <time>2015-10-11T07:44:45.000Z</time>
      </trkpt>
      <trkpt lat="47.49227" lon="6.756">
        <ele>338</ele>
        <time>2015-10-11T07:44:46.000Z</time>
      </trkpt>
      <trkpt lat="47.49228" lon="6.75594">
        <ele>338</ele>
        <time>2015-10-11T07:44:47.000Z</time>
      </trkpt>
      <trkpt lat="47.49229" lon="6.75589">
        <ele>337</ele>
        <time>2015-10-11T07:44:48.000Z</time>
      </trkpt>
      <trkpt lat="47.49231" lon="6.75583">
        <ele>341</ele>
        <time>2015-10-11T07:44:49.000Z</time>
      </trkpt>
      <trkpt lat="47.49233" lon="6.75577">
        <ele>341</ele>
        <time>2015-10-11T07:44:50.000Z</time>
      </trkpt>
      <trkpt lat="47.49234" lon="6.75571">
        <ele>341</ele>
        <time>2015-10-11T07:44:51.000Z</time>
      </trkpt>
      <trkpt lat="47.49236" lon="6.75565">
        <ele>342</ele>
        <time>2015-10-11T07:44:52.000Z</time>
      </trkpt>
      <trkpt lat="47.49237" lon="6.75558">
        <ele>342</ele>
        <time>2015-10-11T07:44:53.000Z</time>
      </trkpt>
      <trkpt lat="47.49238" lon="6.75552">
        <ele>343</ele>
        <time>2015-10-11T07:44:54.000Z</time>
      </trkpt>
      <trkpt lat="47.49239" lon="6.75545">
        <ele>343</ele>
        <time>2015-10-11T07:44:55.000Z</time>
      </trkpt>
      <trkpt lat="47.4924" lon="6.75539">
        <ele>344</ele>
        <time>2015-10-11T07:44:56.000Z</time>
      </trkpt>
      <trkpt lat="47.49242" lon="6.75533">
        <ele>344</ele>
        <time>2015-10-11T07:44:57.000Z</time>
      </trkpt>
      <trkpt lat="47.49243" lon="6.75527">
        <ele>344</ele>
        <time>2015-10-11T07:44:58.000Z</time>
      </trkpt>
      <trkpt lat="47.49244" lon="6.75521">
        <ele>343</ele>
        <time>2015-10-11T07:44:59.000Z</time>
      </trkpt>
      <trkpt lat="47.49245" lon="6.75514">
        <ele>342</ele>
        <time>2015-10-11T07:45:00.000Z</time>
      </trkpt>
      <trkpt lat="47.49247" lon="6.75508">
        <ele>341</ele>
        <time>2015-10-11T07:45:01.000Z</time>
      </trkpt>
      <trkpt lat="47.49248" lon="6.75502">
        <ele>340</ele>
        <time>2015-10-11T07:45:02.000Z</time>
      </trkpt>
      <trkpt lat="47.4925" lon="6.75496">
        <ele>341</ele>
        <time>2015-10-11T07:45:03.000Z</time>
      </trkpt>
      <trkpt lat="47.49251" lon="6.7549">
        <ele>338</ele>
        <time>2015-10-11T07:45:04.000Z</time>
      </trkpt>
      <trkpt lat="47.49252" lon="6.75484">
        <ele>337</ele>
        <time>2015-10-11T07:45:05.000Z</time>
      </trkpt>
      <trkpt lat="47.49253" lon="6.75478">
        <ele>337</ele>
        <time>2015-10-11T07:45:06.000Z</time>
      </trkpt>
      <trkpt lat="47.49254" lon="6.75472">
        <ele>337</ele>
        <time>2015-10-11T07:45:07.000Z</time>
      </trkpt>
      <trkpt lat="47.49255" lon="6.75465">
        <ele>337</ele>
        <time>2015-10-11T07:45:08.000Z</time>
      </trkpt>
      <trkpt lat="47.49256" lon="6.75459">
        <ele>337</ele>
        <time>2015-10-11T07:45:09.000Z</time>
      </trkpt>
      <trkpt lat="47.49256" lon="6.75453">
        <ele>337</ele>
        <time>2015-10-11T07:45:10.000Z</time>
      </trkpt>
      <trkpt lat="47.49257" lon="6.75446">
        <ele>338</ele>
        <time>2015-10-11T07:45:11.000Z</time>
      </trkpt>
      <trkpt lat="47.49258" lon="6.7544">
        <ele>338</ele>
        <time>2015-10-11T07:45:12.000Z</time>
      </trkpt>
      <trkpt lat="47.49259" lon="6.75434">
        <ele>339</ele>
        <time>2015-10-11T07:45:13.000Z</time>
      </trkpt>
      <trkpt lat="47.49261" lon="6.75427">
        <ele>340</ele>
        <time>2015-10-11T07:45:14.000Z</time>
      </trkpt>
      <trkpt lat="47.49262" lon="6.75421">
        <ele>340</ele>
        <time>2015-10-11T07:45:15.000Z</time>
      </trkpt>
      <trkpt lat="47.49264" lon="6.75414">
        <ele>341</ele>
        <time>2015-10-11T07:45:16.000Z</time>
      </trkpt>
      <trkpt lat="47.49265" lon="6.75407">
        <ele>341</ele>
        <time>2015-10-11T07:45:17.000Z</time>
      </trkpt>
      <trkpt lat="47.49267" lon="6.754">
        <ele>341</ele>
        <time>2015-10-11T07:45:18.000Z</time>
      </trkpt>
      <trkpt lat="47.49269" lon="6.75394">
        <ele>340</ele>
        <time>2015-10-11T07:45:19.000Z</time>
      </trkpt>
      <trkpt lat="47.4927" lon="6.75388">
        <ele>340</ele>
        <time>2015-10-11T07:45:20.000Z</time>
      </trkpt>
      <trkpt lat="47.49272" lon="6.75383">
        <ele>340</ele>
        <time>2015-10-11T07:45:21.000Z</time>
      </trkpt>
      <trkpt lat="47.49273" lon="6.75378">
        <ele>340</ele>
        <time>2015-10-11T07:45:22.000Z</time>
      </trkpt>
      <trkpt lat="47.49274" lon="6.75374">
        <ele>340</ele>
        <time>2015-10-11T07:45:23.000Z</time>
      </trkpt>
      <trkpt lat="47.49275" lon="6.75369">
        <ele>340</ele>
        <time>2015-10-11T07:45:24.000Z</time>
      </trkpt>
      <trkpt lat="47.49275" lon="6.75364">
        <ele>340</ele>
        <time>2015-10-11T07:45:25.000Z</time>
      </trkpt>
      <trkpt lat="47.49276" lon="6.75359">
        <ele>340</ele>
        <time>2015-10-11T07:45:26.000Z</time>
      </trkpt>
      <trkpt lat="47.49276" lon="6.75353">
        <ele>340</ele>
        <time>2015-10-11T07:45:27.000Z</time>
      </trkpt>
      <trkpt lat="47.49276" lon="6.75348">
        <ele>341</ele>
        <time>2015-10-11T07:45:28.000Z</time>
      </trkpt>
      <trkpt lat="47.49276" lon="6.75342">
        <ele>341</ele>
        <time>2015-10-11T07:45:29.000Z</time>
      </trkpt>
      <trkpt lat="47.49276" lon="6.75335">
        <ele>341</ele>
        <time>2015-10-11T07:45:30.000Z</time>
      </trkpt>
      <trkpt lat="47.49276" lon="6.75329">
        <ele>342</ele>
        <time>2015-10-11T07:45:31.000Z</time>
      </trkpt>
      <trkpt lat="47.49276" lon="6.75323">
        <ele>342</ele>
        <time>2015-10-11T07:45:32.000Z</time>
      </trkpt>
      <trkpt lat="47.49276" lon="6.75318">
        <ele>342</ele>
        <time>2015-10-11T07:45:33.000Z</time>
      </trkpt>
      <trkpt lat="47.49276" lon="6.75312">
        <ele>342</ele>
        <time>2015-10-11T07:45:34.000Z</time>
      </trkpt>
      <trkpt lat="47.49276" lon="6.75308">
        <ele>341</ele>
        <time>2015-10-11T07:45:35.000Z</time>
      </trkpt>
      <trkpt lat="47.49276" lon="6.75303">
        <ele>341</ele>
        <time>2015-10-11T07:45:36.000Z</time>
      </trkpt>
      <trkpt lat="47.49275" lon="6.75299">
        <ele>341</ele>
        <time>2015-10-11T07:45:37.000Z</time>
      </trkpt>
      <trkpt lat="47.49275" lon="6.75296">
        <ele>341</ele>
        <time>2015-10-11T07:45:38.000Z</time>
      </trkpt>
      <trkpt lat="47.49274" lon="6.75292">
        <ele>341</ele>
        <time>2015-10-11T07:45:39.000Z</time>
      </trkpt>
      <trkpt lat="47.49274" lon="6.75288">
        <ele>342</ele>
        <time>2015-10-11T07:45:40.000Z</time>
      </trkpt>
      <trkpt lat="47.49274" lon="6.75283">
        <ele>342</ele>
        <time>2015-10-11T07:45:41.000Z</time>
      </trkpt>
      <trkpt lat="47.49274" lon="6.75279">
        <ele>342</ele>
        <time>2015-10-11T07:45:42.000Z</time>
      </trkpt>
      <trkpt lat="47.49274" lon="6.75274">
        <ele>342</ele>
        <time>2015-10-11T07:45:43.000Z</time>
      </trkpt>
      <trkpt lat="47.49274" lon="6.7527">
        <ele>342</ele>
        <time>2015-10-11T07:45:44.000Z</time>
      </trkpt>
      <trkpt lat="47.49274" lon="6.75266">
        <ele>342</ele>
        <time>2015-10-11T07:45:45.000Z</time>
      </trkpt>
      <trkpt lat="47.49275" lon="6.75262">
        <ele>343</ele>
        <time>2015-10-11T07:45:46.000Z</time>
      </trkpt>
      <trkpt lat="47.49275" lon="6.75257">
        <ele>343</ele>
        <time>2015-10-11T07:45:47.000Z</time>
      </trkpt>
      <trkpt lat="47.49275" lon="6.75253">
        <ele>343</ele>
        <time>2015-10-11T07:45:48.000Z</time>
      </trkpt>
      <trkpt lat="47.49275" lon="6.75248">
        <ele>344</ele>
        <time>2015-10-11T07:45:49.000Z</time>
      </trkpt>
      <trkpt lat="47.49276" lon="6.75243">
        <ele>344</ele>
        <time>2015-10-11T07:45:50.000Z</time>
      </trkpt>
      <trkpt lat="47.49276" lon="6.75239">
        <ele>344</ele>
        <time>2015-10-11T07:45:51.000Z</time>
      </trkpt>
      <trkpt lat="47.49276" lon="6.75234">
        <ele>344</ele>
        <time>2015-10-11T07:45:52.000Z</time>
      </trkpt>
      <trkpt lat="47.49276" lon="6.75229">
        <ele>344</ele>
        <time>2015-10-11T07:45:53.000Z</time>
      </trkpt>
      <trkpt lat="47.49276" lon="6.75225">
        <ele>344</ele>
        <time>2015-10-11T07:45:54.000Z</time>
      </trkpt>
      <trkpt lat="47.49276" lon="6.7522">
        <ele>344</ele>
        <time>2015-10-11T07:45:55.000Z</time>
      </trkpt>
      <trkpt lat="47.49276" lon="6.75215">
        <ele>344</ele>
        <time>2015-10-11T07:45:56.000Z</time>
      </trkpt>
      <trkpt lat="47.49276" lon="6.7521">
        <ele>344</ele>
        <time>2015-10-11T07:45:57.000Z</time>
      </trkpt>
      <trkpt lat="47.49277" lon="6.75205">
        <ele>345</ele>
        <time>2015-10-11T07:45:58.000Z</time>
      </trkpt>
      <trkpt lat="47.49276" lon="6.752">
        <ele>345</ele>
        <time>2015-10-11T07:45:59.000Z</time>
      </trkpt>
      <trkpt lat="47.49276" lon="6.75194">
        <ele>345</ele>
        <time>2015-10-11T07:46:00.000Z</time>
      </trkpt>
      <trkpt lat="47.49276" lon="6.75188">
        <ele>346</ele>
        <time>2015-10-11T07:46:01.000Z</time>
      </trkpt>
      <trkpt lat="47.49276" lon="6.75182">
        <ele>346</ele>
        <time>2015-10-11T07:46:02.000Z</time>
      </trkpt>
      <trkpt lat="47.49276" lon="6.75177">
        <ele>346</ele>
        <time>2015-10-11T07:46:03.000Z</time>
      </trkpt>
      <trkpt lat="47.49276" lon="6.75171">
        <ele>347</ele>
        <time>2015-10-11T07:46:04.000Z</time>
      </trkpt>
      <trkpt lat="47.49276" lon="6.75165">
        <ele>349</ele>
        <time>2015-10-11T07:46:05.000Z</time>
      </trkpt>
      <trkpt lat="47.49276" lon="6.75159">
        <ele>349</ele>
        <time>2015-10-11T07:46:06.000Z</time>
      </trkpt>
      <trkpt lat="47.49277" lon="6.75152">
        <ele>349</ele>
        <time>2015-10-11T07:46:07.000Z</time>
      </trkpt>
      <trkpt lat="47.49278" lon="6.75146">
        <ele>348</ele>
        <time>2015-10-11T07:46:08.000Z</time>
      </trkpt>
      <trkpt lat="47.49279" lon="6.75139">
        <ele>348</ele>
        <time>2015-10-11T07:46:09.000Z</time>
      </trkpt>
      <trkpt lat="47.49281" lon="6.75133">
        <ele>348</ele>
        <time>2015-10-11T07:46:10.000Z</time>
      </trkpt>
      <trkpt lat="47.49282" lon="6.75125">
        <ele>348</ele>
        <time>2015-10-11T07:46:11.000Z</time>
      </trkpt>
      <trkpt lat="47.49283" lon="6.75118">
        <ele>348</ele>
        <time>2015-10-11T07:46:12.000Z</time>
      </trkpt>
      <trkpt lat="47.49285" lon="6.75111">
        <ele>348</ele>
        <time>2015-10-11T07:46:13.000Z</time>
      </trkpt>
      <trkpt lat="47.49287" lon="6.75104">
        <ele>348</ele>
        <time>2015-10-11T07:46:14.000Z</time>
      </trkpt>
      <trkpt lat="47.4929" lon="6.75097">
        <ele>348</ele>
        <time>2015-10-11T07:46:15.000Z</time>
      </trkpt>
      <trkpt lat="47.49294" lon="6.7509">
        <ele>347</ele>
        <time>2015-10-11T07:46:16.000Z</time>
      </trkpt>
      <trkpt lat="47.49298" lon="6.75083">
        <ele>346</ele>
        <time>2015-10-11T07:46:17.000Z</time>
      </trkpt>
      <trkpt lat="47.49303" lon="6.75077">
        <ele>348</ele>
        <time>2015-10-11T07:46:18.000Z</time>
      </trkpt>
      <trkpt lat="47.49308" lon="6.7507">
        <ele>347</ele>
        <time>2015-10-11T07:46:19.000Z</time>
      </trkpt>
      <trkpt lat="47.49313" lon="6.75063">
        <ele>347</ele>
        <time>2015-10-11T07:46:20.000Z</time>
      </trkpt>
      <trkpt lat="47.49318" lon="6.75056">
        <ele>347</ele>
        <time>2015-10-11T07:46:21.000Z</time>
      </trkpt>
      <trkpt lat="47.49322" lon="6.75049">
        <ele>347</ele>
        <time>2015-10-11T07:46:22.000Z</time>
      </trkpt>
      <trkpt lat="47.49325" lon="6.75042">
        <ele>347</ele>
        <time>2015-10-11T07:46:23.000Z</time>
      </trkpt>
      <trkpt lat="47.49327" lon="6.75036">
        <ele>347</ele>
        <time>2015-10-11T07:46:24.000Z</time>
      </trkpt>
      <trkpt lat="47.49328" lon="6.7503">
        <ele>347</ele>
        <time>2015-10-11T07:46:25.000Z</time>
      </trkpt>
      <trkpt lat="47.49328" lon="6.75025">
        <ele>347</ele>
        <time>2015-10-11T07:46:26.000Z</time>
      </trkpt>
      <trkpt lat="47.49328" lon="6.7502">
        <ele>347</ele>
        <time>2015-10-11T07:46:27.000Z</time>
      </trkpt>
      <trkpt lat="47.49327" lon="6.75015">
        <ele>346</ele>
        <time>2015-10-11T07:46:28.000Z</time>
      </trkpt>
      <trkpt lat="47.49326" lon="6.7501">
        <ele>346</ele>
        <time>2015-10-11T07:46:29.000Z</time>
      </trkpt>
      <trkpt lat="47.49326" lon="6.75006">
        <ele>345</ele>
        <time>2015-10-11T07:46:30.000Z</time>
      </trkpt>
      <trkpt lat="47.49325" lon="6.75002">
        <ele>345</ele>
        <time>2015-10-11T07:46:31.000Z</time>
      </trkpt>
      <trkpt lat="47.49325" lon="6.74998">
        <ele>347</ele>
        <time>2015-10-11T07:46:32.000Z</time>
      </trkpt>
      <trkpt lat="47.49324" lon="6.74994">
        <ele>348</ele>
        <time>2015-10-11T07:46:33.000Z</time>
      </trkpt>
      <trkpt lat="47.49323" lon="6.7499">
        <ele>348</ele>
        <time>2015-10-11T07:46:34.000Z</time>
      </trkpt>
      <trkpt lat="47.49323" lon="6.74986">
        <ele>349</ele>
        <time>2015-10-11T07:46:35.000Z</time>
      </trkpt>
      <trkpt lat="47.49322" lon="6.74983">
        <ele>350</ele>
        <time>2015-10-11T07:46:36.000Z</time>
      </trkpt>
      <trkpt lat="47.49321" lon="6.74976">
        <ele>351</ele>
        <time>2015-10-11T07:46:38.000Z</time>
      </trkpt>
      <trkpt lat="47.49321" lon="6.74974">
        <ele>351</ele>
        <time>2015-10-11T07:46:39.000Z</time>
      </trkpt>
      <trkpt lat="47.49322" lon="6.74968">
        <ele>352</ele>
        <time>2015-10-11T07:46:41.000Z</time>
      </trkpt>
      <trkpt lat="47.49323" lon="6.74965">
        <ele>352</ele>
        <time>2015-10-11T07:46:42.000Z</time>
      </trkpt>
      <trkpt lat="47.49324" lon="6.74959">
        <ele>352</ele>
        <time>2015-10-11T07:46:44.000Z</time>
      </trkpt>
      <trkpt lat="47.49325" lon="6.74956">
        <ele>352</ele>
        <time>2015-10-11T07:46:45.000Z</time>
      </trkpt>
      <trkpt lat="47.49325" lon="6.7495">
        <ele>352</ele>
        <time>2015-10-11T07:46:47.000Z</time>
      </trkpt>
      <trkpt lat="47.49325" lon="6.74947">
        <ele>352</ele>
        <time>2015-10-11T07:46:48.000Z</time>
      </trkpt>
      <trkpt lat="47.49325" lon="6.74941">
        <ele>352</ele>
        <time>2015-10-11T07:46:50.000Z</time>
      </trkpt>
      <trkpt lat="47.49324" lon="6.74937">
        <ele>352</ele>
        <time>2015-10-11T07:46:51.000Z</time>
      </trkpt>
      <trkpt lat="47.49323" lon="6.74933">
        <ele>352</ele>
        <time>2015-10-11T07:46:52.000Z</time>
      </trkpt>
      <trkpt lat="47.49322" lon="6.74929">
        <ele>352</ele>
        <time>2015-10-11T07:46:53.000Z</time>
      </trkpt>
      <trkpt lat="47.49322" lon="6.74925">
        <ele>351</ele>
        <time>2015-10-11T07:46:54.000Z</time>
      </trkpt>
      <trkpt lat="47.49321" lon="6.74921">
        <ele>351</ele>
        <time>2015-10-11T07:46:55.000Z</time>
      </trkpt>
      <trkpt lat="47.49321" lon="6.74915">
        <ele>353</ele>
        <time>2015-10-11T07:46:57.000Z</time>
      </trkpt>
      <trkpt lat="47.4932" lon="6.74912">
        <ele>353</ele>
        <time>2015-10-11T07:46:58.000Z</time>
      </trkpt>
      <trkpt lat="47.49319" lon="6.74905">
        <ele>354</ele>
        <time>2015-10-11T07:47:00.000Z</time>
      </trkpt>
      <trkpt lat="47.49319" lon="6.74902">
        <ele>355</ele>
        <time>2015-10-11T07:47:01.000Z</time>
      </trkpt>
      <trkpt lat="47.49319" lon="6.74899">
        <ele>355</ele>
        <time>2015-10-11T07:47:02.000Z</time>
      </trkpt>
      <trkpt lat="47.49318" lon="6.74895">
        <ele>355</ele>
        <time>2015-10-11T07:47:03.000Z</time>
      </trkpt>
      <trkpt lat="47.49317" lon="6.74891">
        <ele>356</ele>
        <time>2015-10-11T07:47:04.000Z</time>
      </trkpt>
      <trkpt lat="47.49317" lon="6.74887">
        <ele>356</ele>
        <time>2015-10-11T07:47:05.000Z</time>
      </trkpt>
      <trkpt lat="47.49316" lon="6.74883">
        <ele>357</ele>
        <time>2015-10-11T07:47:06.000Z</time>
      </trkpt>
      <trkpt lat="47.49315" lon="6.74879">
        <ele>357</ele>
        <time>2015-10-11T07:47:07.000Z</time>
      </trkpt>
      <trkpt lat="47.49315" lon="6.74875">
        <ele>357</ele>
        <time>2015-10-11T07:47:08.000Z</time>
      </trkpt>
      <trkpt lat="47.49315" lon="6.7487">
        <ele>357</ele>
        <time>2015-10-11T07:47:09.000Z</time>
      </trkpt>
      <trkpt lat="47.49315" lon="6.74865">
        <ele>357</ele>
        <time>2015-10-11T07:47:10.000Z</time>
      </trkpt>
      <trkpt lat="47.49315" lon="6.74861">
        <ele>357</ele>
        <time>2015-10-11T07:47:11.000Z</time>
      </trkpt>
      <trkpt lat="47.49315" lon="6.74855">
        <ele>356</ele>
        <time>2015-10-11T07:47:12.000Z</time>
      </trkpt>
      <trkpt lat="47.49315" lon="6.7485">
        <ele>356</ele>
        <time>2015-10-11T07:47:13.000Z</time>
      </trkpt>
      <trkpt lat="47.49315" lon="6.74846">
        <ele>356</ele>
        <time>2015-10-11T07:47:14.000Z</time>
      </trkpt>
      <trkpt lat="47.49316" lon="6.74841">
        <ele>355</ele>
        <time>2015-10-11T07:47:15.000Z</time>
      </trkpt>
      <trkpt lat="47.49316" lon="6.74836">
        <ele>355</ele>
        <time>2015-10-11T07:47:16.000Z</time>
      </trkpt>
      <trkpt lat="47.49317" lon="6.74833">
        <ele>356</ele>
        <time>2015-10-11T07:47:17.000Z</time>
      </trkpt>
      <trkpt lat="47.49318" lon="6.74826">
        <ele>356</ele>
        <time>2015-10-11T07:47:19.000Z</time>
      </trkpt>
      <trkpt lat="47.49318" lon="6.74823">
        <ele>357</ele>
        <time>2015-10-11T07:47:20.000Z</time>
      </trkpt>
      <trkpt lat="47.49319" lon="6.74819">
        <ele>357</ele>
        <time>2015-10-11T07:47:21.000Z</time>
      </trkpt>
      <trkpt lat="47.4932" lon="6.74816">
        <ele>358</ele>
        <time>2015-10-11T07:47:22.000Z</time>
      </trkpt>
      <trkpt lat="47.4932" lon="6.74812">
        <ele>358</ele>
        <time>2015-10-11T07:47:23.000Z</time>
      </trkpt>
      <trkpt lat="47.49321" lon="6.74808">
        <ele>359</ele>
        <time>2015-10-11T07:47:24.000Z</time>
      </trkpt>
      <trkpt lat="47.49322" lon="6.74804">
        <ele>359</ele>
        <time>2015-10-11T07:47:25.000Z</time>
      </trkpt>
      <trkpt lat="47.49323" lon="6.748">
        <ele>359</ele>
        <time>2015-10-11T07:47:26.000Z</time>
      </trkpt>
      <trkpt lat="47.49323" lon="6.74796">
        <ele>360</ele>
        <time>2015-10-11T07:47:27.000Z</time>
      </trkpt>
      <trkpt lat="47.49323" lon="6.74792">
        <ele>360</ele>
        <time>2015-10-11T07:47:28.000Z</time>
      </trkpt>
      <trkpt lat="47.49324" lon="6.74787">
        <ele>360</ele>
        <time>2015-10-11T07:47:29.000Z</time>
      </trkpt>
      <trkpt lat="47.49325" lon="6.74782">
        <ele>360</ele>
        <time>2015-10-11T07:47:30.000Z</time>
      </trkpt>
      <trkpt lat="47.49326" lon="6.74776">
        <ele>359</ele>
        <time>2015-10-11T07:47:31.000Z</time>
      </trkpt>
      <trkpt lat="47.49327" lon="6.7477">
        <ele>359</ele>
        <time>2015-10-11T07:47:32.000Z</time>
      </trkpt>
      <trkpt lat="47.49327" lon="6.74765">
        <ele>358</ele>
        <time>2015-10-11T07:47:33.000Z</time>
      </trkpt>
      <trkpt lat="47.49328" lon="6.74761">
        <ele>358</ele>
        <time>2015-10-11T07:47:34.000Z</time>
      </trkpt>
      <trkpt lat="47.49328" lon="6.74757">
        <ele>357</ele>
        <time>2015-10-11T07:47:35.000Z</time>
      </trkpt>
      <trkpt lat="47.49327" lon="6.74753">
        <ele>356</ele>
        <time>2015-10-11T07:47:36.000Z</time>
      </trkpt>
      <trkpt lat="47.49326" lon="6.74748">
        <ele>358</ele>
        <time>2015-10-11T07:47:37.000Z</time>
      </trkpt>
      <trkpt lat="47.49326" lon="6.74744">
        <ele>359</ele>
        <time>2015-10-11T07:47:38.000Z</time>
      </trkpt>
      <trkpt lat="47.49325" lon="6.74739">
        <ele>360</ele>
        <time>2015-10-11T07:47:39.000Z</time>
      </trkpt>
      <trkpt lat="47.49325" lon="6.74735">
        <ele>361</ele>
        <time>2015-10-11T07:47:40.000Z</time>
      </trkpt>
      <trkpt lat="47.49325" lon="6.74732">
        <ele>362</ele>
        <time>2015-10-11T07:47:41.000Z</time>
      </trkpt>
      <trkpt lat="47.49325" lon="6.74728">
        <ele>363</ele>
        <time>2015-10-11T07:47:42.000Z</time>
      </trkpt>
      <trkpt lat="47.49325" lon="6.74724">
        <ele>363</ele>
        <time>2015-10-11T07:47:43.000Z</time>
      </trkpt>
      <trkpt lat="47.49326" lon="6.74721">
        <ele>364</ele>
        <time>2015-10-11T07:47:44.000Z</time>
      </trkpt>
      <trkpt lat="47.49326" lon="6.74717">
        <ele>364</ele>
        <time>2015-10-11T07:47:45.000Z</time>
      </trkpt>
      <trkpt lat="47.49327" lon="6.74713">
        <ele>365</ele>
        <time>2015-10-11T07:47:46.000Z</time>
      </trkpt>
      <trkpt lat="47.49328" lon="6.74709">
        <ele>365</ele>
        <time>2015-10-11T07:47:47.000Z</time>
      </trkpt>
      <trkpt lat="47.49328" lon="6.74704">
        <ele>365</ele>
        <time>2015-10-11T07:47:48.000Z</time>
      </trkpt>
      <trkpt lat="47.49327" lon="6.747">
        <ele>365</ele>
        <time>2015-10-11T07:47:49.000Z</time>
      </trkpt>
      <trkpt lat="47.49327" lon="6.74695">
        <ele>365</ele>
        <time>2015-10-11T07:47:50.000Z</time>
      </trkpt>
      <trkpt lat="47.49327" lon="6.7469">
        <ele>365</ele>
        <time>2015-10-11T07:47:51.000Z</time>
      </trkpt>
      <trkpt lat="47.49326" lon="6.74684">
        <ele>364</ele>
        <time>2015-10-11T07:47:52.000Z</time>
      </trkpt>
      <trkpt lat="47.49326" lon="6.74679">
        <ele>364</ele>
        <time>2015-10-11T07:47:53.000Z</time>
      </trkpt>
      <trkpt lat="47.49326" lon="6.74674">
        <ele>363</ele>
        <time>2015-10-11T07:47:54.000Z</time>
      </trkpt>
      <trkpt lat="47.49326" lon="6.74669">
        <ele>362</ele>
        <time>2015-10-11T07:47:55.000Z</time>
      </trkpt>
      <trkpt lat="47.49326" lon="6.74664">
        <ele>363</ele>
        <time>2015-10-11T07:47:56.000Z</time>
      </trkpt>
      <trkpt lat="47.49326" lon="6.7466">
        <ele>364</ele>
        <time>2015-10-11T07:47:57.000Z</time>
      </trkpt>
      <trkpt lat="47.49326" lon="6.74656">
        <ele>365</ele>
        <time>2015-10-11T07:47:58.000Z</time>
      </trkpt>
      <trkpt lat="47.49326" lon="6.74652">
        <ele>365</ele>
        <time>2015-10-11T07:47:59.000Z</time>
      </trkpt>
      <trkpt lat="47.49325" lon="6.74647">
        <ele>366</ele>
        <time>2015-10-11T07:48:00.000Z</time>
      </trkpt>
      <trkpt lat="47.49325" lon="6.74643">
        <ele>367</ele>
        <time>2015-10-11T07:48:01.000Z</time>
      </trkpt>
      <trkpt lat="47.49324" lon="6.74638">
        <ele>367</ele>
        <time>2015-10-11T07:48:02.000Z</time>
      </trkpt>
      <trkpt lat="47.49324" lon="6.74634">
        <ele>368</ele>
        <time>2015-10-11T07:48:03.000Z</time>
      </trkpt>
      <trkpt lat="47.49324" lon="6.74629">
        <ele>368</ele>
        <time>2015-10-11T07:48:04.000Z</time>
      </trkpt>
      <trkpt lat="47.49323" lon="6.74625">
        <ele>368</ele>
        <time>2015-10-11T07:48:05.000Z</time>
      </trkpt>
      <trkpt lat="47.49324" lon="6.74621">
        <ele>368</ele>
        <time>2015-10-11T07:48:06.000Z</time>
      </trkpt>
      <trkpt lat="47.49324" lon="6.74618">
        <ele>368</ele>
        <time>2015-10-11T07:48:07.000Z</time>
      </trkpt>
      <trkpt lat="47.49325" lon="6.74615">
        <ele>367</ele>
        <time>2015-10-11T07:48:08.000Z</time>
      </trkpt>
      <trkpt lat="47.49326" lon="6.7461">
        <ele>367</ele>
        <time>2015-10-11T07:48:09.000Z</time>
      </trkpt>
      <trkpt lat="47.49326" lon="6.74606">
        <ele>367</ele>
        <time>2015-10-11T07:48:10.000Z</time>
      </trkpt>
      <trkpt lat="47.49327" lon="6.74601">
        <ele>366</ele>
        <time>2015-10-11T07:48:11.000Z</time>
      </trkpt>
      <trkpt lat="47.49327" lon="6.74596">
        <ele>365</ele>
        <time>2015-10-11T07:48:12.000Z</time>
      </trkpt>
      <trkpt lat="47.49327" lon="6.74592">
        <ele>364</ele>
        <time>2015-10-11T07:48:13.000Z</time>
      </trkpt>
      <trkpt lat="47.49328" lon="6.74587">
        <ele>363</ele>
        <time>2015-10-11T07:48:14.000Z</time>
      </trkpt>
      <trkpt lat="47.49329" lon="6.74583">
        <ele>362</ele>
        <time>2015-10-11T07:48:15.000Z</time>
      </trkpt>
      <trkpt lat="47.49329" lon="6.74579">
        <ele>363</ele>
        <time>2015-10-11T07:48:16.000Z</time>
      </trkpt>
      <trkpt lat="47.4933" lon="6.74575">
        <ele>364</ele>
        <time>2015-10-11T07:48:17.000Z</time>
      </trkpt>
      <trkpt lat="47.49331" lon="6.74569">
        <ele>365</ele>
        <time>2015-10-11T07:48:18.000Z</time>
      </trkpt>
      <trkpt lat="47.49333" lon="6.74563">
        <ele>366</ele>
        <time>2015-10-11T07:48:19.000Z</time>
      </trkpt>
      <trkpt lat="47.49334" lon="6.74556">
        <ele>356</ele>
        <time>2015-10-11T07:48:20.000Z</time>
      </trkpt>
      <trkpt lat="47.49336" lon="6.74549">
        <ele>356</ele>
        <time>2015-10-11T07:48:21.000Z</time>
      </trkpt>
      <trkpt lat="47.49338" lon="6.74542">
        <ele>356</ele>
        <time>2015-10-11T07:48:22.000Z</time>
      </trkpt>
      <trkpt lat="47.49339" lon="6.74536">
        <ele>356</ele>
        <time>2015-10-11T07:48:23.000Z</time>
      </trkpt>
      <trkpt lat="47.49341" lon="6.74531">
        <ele>356</ele>
        <time>2015-10-11T07:48:24.000Z</time>
      </trkpt>
      <trkpt lat="47.49342" lon="6.74526">
        <ele>356</ele>
        <time>2015-10-11T07:48:25.000Z</time>
      </trkpt>
      <trkpt lat="47.49343" lon="6.74522">
        <ele>357</ele>
        <time>2015-10-11T07:48:26.000Z</time>
      </trkpt>
      <trkpt lat="47.49344" lon="6.74517">
        <ele>357</ele>
        <time>2015-10-11T07:48:27.000Z</time>
      </trkpt>
      <trkpt lat="47.49344" lon="6.74511">
        <ele>358</ele>
        <time>2015-10-11T07:48:28.000Z</time>
      </trkpt>
      <trkpt lat="47.49343" lon="6.74504">
        <ele>359</ele>
        <time>2015-10-11T07:48:29.000Z</time>
      </trkpt>
      <trkpt lat="47.49343" lon="6.74498">
        <ele>360</ele>
        <time>2015-10-11T07:48:30.000Z</time>
      </trkpt>
      <trkpt lat="47.49343" lon="6.74492">
        <ele>359</ele>
        <time>2015-10-11T07:48:31.000Z</time>
      </trkpt>
      <trkpt lat="47.49343" lon="6.74487">
        <ele>359</ele>
        <time>2015-10-11T07:48:32.000Z</time>
      </trkpt>
      <trkpt lat="47.49342" lon="6.74482">
        <ele>358</ele>
        <time>2015-10-11T07:48:33.000Z</time>
      </trkpt>
      <trkpt lat="47.49341" lon="6.74477">
        <ele>358</ele>
        <time>2015-10-11T07:48:34.000Z</time>
      </trkpt>
      <trkpt lat="47.49339" lon="6.74473">
        <ele>358</ele>
        <time>2015-10-11T07:48:35.000Z</time>
      </trkpt>
      <trkpt lat="47.49337" lon="6.74469">
        <ele>358</ele>
        <time>2015-10-11T07:48:36.000Z</time>
      </trkpt>
      <trkpt lat="47.49336" lon="6.74465">
        <ele>358</ele>
        <time>2015-10-11T07:48:37.000Z</time>
      </trkpt>
      <trkpt lat="47.49334" lon="6.74461">
        <ele>358</ele>
        <time>2015-10-11T07:48:38.000Z</time>
      </trkpt>
      <trkpt lat="47.49333" lon="6.74457">
        <ele>370</ele>
        <time>2015-10-11T07:48:39.000Z</time>
      </trkpt>
      <trkpt lat="47.49332" lon="6.74452">
        <ele>370</ele>
        <time>2015-10-11T07:48:40.000Z</time>
      </trkpt>
      <trkpt lat="47.49332" lon="6.74447">
        <ele>370</ele>
        <time>2015-10-11T07:48:41.000Z</time>
      </trkpt>
      <trkpt lat="47.49331" lon="6.74442">
        <ele>369</ele>
        <time>2015-10-11T07:48:42.000Z</time>
      </trkpt>
      <trkpt lat="47.49331" lon="6.74437">
        <ele>369</ele>
        <time>2015-10-11T07:48:43.000Z</time>
      </trkpt>
      <trkpt lat="47.49331" lon="6.74431">
        <ele>368</ele>
        <time>2015-10-11T07:48:44.000Z</time>
      </trkpt>
      <trkpt lat="47.4933" lon="6.74425">
        <ele>367</ele>
        <time>2015-10-11T07:48:45.000Z</time>
      </trkpt>
      <trkpt lat="47.49329" lon="6.74419">
        <ele>366</ele>
        <time>2015-10-11T07:48:46.000Z</time>
      </trkpt>
      <trkpt lat="47.49328" lon="6.74413">
        <ele>366</ele>
        <time>2015-10-11T07:48:47.000Z</time>
      </trkpt>
      <trkpt lat="47.49328" lon="6.74408">
        <ele>368</ele>
        <time>2015-10-11T07:48:48.000Z</time>
      </trkpt>
      <trkpt lat="47.49328" lon="6.74403">
        <ele>369</ele>
        <time>2015-10-11T07:48:49.000Z</time>
      </trkpt>
      <trkpt lat="47.49329" lon="6.74398">
        <ele>370</ele>
        <time>2015-10-11T07:48:50.000Z</time>
      </trkpt>
      <trkpt lat="47.49331" lon="6.74393">
        <ele>370</ele>
        <time>2015-10-11T07:48:51.000Z</time>
      </trkpt>
      <trkpt lat="47.49333" lon="6.74388">
        <ele>371</ele>
        <time>2015-10-11T07:48:52.000Z</time>
      </trkpt>
      <trkpt lat="47.49335" lon="6.74383">
        <ele>359</ele>
        <time>2015-10-11T07:48:53.000Z</time>
      </trkpt>
      <trkpt lat="47.49337" lon="6.74377">
        <ele>359</ele>
        <time>2015-10-11T07:48:54.000Z</time>
      </trkpt>
      <trkpt lat="47.4934" lon="6.7437">
        <ele>359</ele>
        <time>2015-10-11T07:48:55.000Z</time>
      </trkpt>
      <trkpt lat="47.49341" lon="6.74363">
        <ele>360</ele>
        <time>2015-10-11T07:48:56.000Z</time>
      </trkpt>
      <trkpt lat="47.49341" lon="6.74357">
        <ele>360</ele>
        <time>2015-10-11T07:48:57.000Z</time>
      </trkpt>
      <trkpt lat="47.49341" lon="6.74352">
        <ele>361</ele>
        <time>2015-10-11T07:48:58.000Z</time>
      </trkpt>
      <trkpt lat="47.49341" lon="6.74347">
        <ele>362</ele>
        <time>2015-10-11T07:48:59.000Z</time>
      </trkpt>
      <trkpt lat="47.49341" lon="6.74343">
        <ele>363</ele>
        <time>2015-10-11T07:49:00.000Z</time>
      </trkpt>
      <trkpt lat="47.49341" lon="6.74337">
        <ele>364</ele>
        <time>2015-10-11T07:49:02.000Z</time>
      </trkpt>
      <trkpt lat="47.49341" lon="6.74333">
        <ele>364</ele>
        <time>2015-10-11T07:49:03.000Z</time>
      </trkpt>
      <trkpt lat="47.49341" lon="6.74329">
        <ele>364</ele>
        <time>2015-10-11T07:49:04.000Z</time>
      </trkpt>
      <trkpt lat="47.49341" lon="6.74323">
        <ele>363</ele>
        <time>2015-10-11T07:49:05.000Z</time>
      </trkpt>
      <trkpt lat="47.49342" lon="6.74317">
        <ele>362</ele>
        <time>2015-10-11T07:49:06.000Z</time>
      </trkpt>
      <trkpt lat="47.49342" lon="6.74312">
        <ele>361</ele>
        <time>2015-10-11T07:49:07.000Z</time>
      </trkpt>
      <trkpt lat="47.49342" lon="6.74307">
        <ele>361</ele>
        <time>2015-10-11T07:49:08.000Z</time>
      </trkpt>
      <trkpt lat="47.49343" lon="6.74301">
        <ele>360</ele>
        <time>2015-10-11T07:49:09.000Z</time>
      </trkpt>
      <trkpt lat="47.49344" lon="6.74295">
        <ele>360</ele>
        <time>2015-10-11T07:49:10.000Z</time>
      </trkpt>
      <trkpt lat="47.49345" lon="6.7429">
        <ele>360</ele>
        <time>2015-10-11T07:49:11.000Z</time>
      </trkpt>
      <trkpt lat="47.49346" lon="6.74285">
        <ele>360</ele>
        <time>2015-10-11T07:49:12.000Z</time>
      </trkpt>
      <trkpt lat="47.49347" lon="6.7428">
        <ele>361</ele>
        <time>2015-10-11T07:49:13.000Z</time>
      </trkpt>
      <trkpt lat="47.49348" lon="6.74276">
        <ele>361</ele>
        <time>2015-10-11T07:49:14.000Z</time>
      </trkpt>
      <trkpt lat="47.49349" lon="6.74272">
        <ele>361</ele>
        <time>2015-10-11T07:49:15.000Z</time>
      </trkpt>
      <trkpt lat="47.4935" lon="6.74268">
        <ele>362</ele>
        <time>2015-10-11T07:49:16.000Z</time>
      </trkpt>
      <trkpt lat="47.49351" lon="6.74263">
        <ele>362</ele>
        <time>2015-10-11T07:49:17.000Z</time>
      </trkpt>
      <trkpt lat="47.49352" lon="6.74258">
        <ele>362</ele>
        <time>2015-10-11T07:49:18.000Z</time>
      </trkpt>
      <trkpt lat="47.49353" lon="6.74253">
        <ele>362</ele>
        <time>2015-10-11T07:49:19.000Z</time>
      </trkpt>
      <trkpt lat="47.49354" lon="6.74248">
        <ele>363</ele>
        <time>2015-10-11T07:49:20.000Z</time>
      </trkpt>
      <trkpt lat="47.49356" lon="6.74243">
        <ele>362</ele>
        <time>2015-10-11T07:49:21.000Z</time>
      </trkpt>
      <trkpt lat="47.49359" lon="6.74238">
        <ele>361</ele>
        <time>2015-10-11T07:49:22.000Z</time>
      </trkpt>
      <trkpt lat="47.49362" lon="6.74235">
        <ele>360</ele>
        <time>2015-10-11T07:49:23.000Z</time>
      </trkpt>
      <trkpt lat="47.49364" lon="6.74231">
        <ele>360</ele>
        <time>2015-10-11T07:49:24.000Z</time>
      </trkpt>
      <trkpt lat="47.49366" lon="6.74226">
        <ele>359</ele>
        <time>2015-10-11T07:49:25.000Z</time>
      </trkpt>
      <trkpt lat="47.49368" lon="6.74221">
        <ele>359</ele>
        <time>2015-10-11T07:49:26.000Z</time>
      </trkpt>
      <trkpt lat="47.49369" lon="6.74215">
        <ele>359</ele>
        <time>2015-10-11T07:49:27.000Z</time>
      </trkpt>
      <trkpt lat="47.49371" lon="6.74207">
        <ele>358</ele>
        <time>2015-10-11T07:49:28.000Z</time>
      </trkpt>
      <trkpt lat="47.49372" lon="6.742">
        <ele>358</ele>
        <time>2015-10-11T07:49:29.000Z</time>
      </trkpt>
      <trkpt lat="47.49374" lon="6.74192">
        <ele>358</ele>
        <time>2015-10-11T07:49:30.000Z</time>
      </trkpt>
      <trkpt lat="47.49377" lon="6.74174">
        <ele>358</ele>
        <time>2015-10-11T07:49:31.000Z</time>
      </trkpt>
      <trkpt lat="47.49377" lon="6.74164">
        <ele>358</ele>
        <time>2015-10-11T07:49:32.000Z</time>
      </trkpt>
      <trkpt lat="47.49376" lon="6.74157">
        <ele>358</ele>
        <time>2015-10-11T07:49:33.000Z</time>
      </trkpt>
      <trkpt lat="47.49378" lon="6.74146">
        <ele>357</ele>
        <time>2015-10-11T07:49:34.000Z</time>
      </trkpt>
      <trkpt lat="47.49382" lon="6.74135">
        <ele>357</ele>
        <time>2015-10-11T07:49:35.000Z</time>
      </trkpt>
      <trkpt lat="47.49384" lon="6.74123">
        <ele>356</ele>
        <time>2015-10-11T07:49:36.000Z</time>
      </trkpt>
      <trkpt lat="47.49387" lon="6.74112">
        <ele>356</ele>
        <time>2015-10-11T07:49:37.000Z</time>
      </trkpt>
      <trkpt lat="47.4939" lon="6.741">
        <ele>355</ele>
        <time>2015-10-11T07:49:38.000Z</time>
      </trkpt>
      <trkpt lat="47.49394" lon="6.74087">
        <ele>354</ele>
        <time>2015-10-11T07:49:39.000Z</time>
      </trkpt>
      <trkpt lat="47.49397" lon="6.74077">
        <ele>353</ele>
        <time>2015-10-11T07:49:40.000Z</time>
      </trkpt>
      <trkpt lat="47.49402" lon="6.74066">
        <ele>353</ele>
        <time>2015-10-11T07:49:41.000Z</time>
      </trkpt>
      <trkpt lat="47.49406" lon="6.74057">
        <ele>353</ele>
        <time>2015-10-11T07:49:42.000Z</time>
      </trkpt>
      <trkpt lat="47.4941" lon="6.74046">
        <ele>353</ele>
        <time>2015-10-11T07:49:43.000Z</time>
      </trkpt>
      <trkpt lat="47.49412" lon="6.74038">
        <ele>353</ele>
        <time>2015-10-11T07:49:44.000Z</time>
      </trkpt>
      <trkpt lat="47.49416" lon="6.74026">
        <ele>353</ele>
        <time>2015-10-11T07:49:45.000Z</time>
      </trkpt>
      <trkpt lat="47.49418" lon="6.74018">
        <ele>350</ele>
        <time>2015-10-11T07:49:46.000Z</time>
      </trkpt>
      <trkpt lat="47.49419" lon="6.7401">
        <ele>350</ele>
        <time>2015-10-11T07:49:47.000Z</time>
      </trkpt>
      <trkpt lat="47.49415" lon="6.73999">
        <ele>349</ele>
        <time>2015-10-11T07:49:48.000Z</time>
      </trkpt>
      <trkpt lat="47.49413" lon="6.73989">
        <ele>351</ele>
        <time>2015-10-11T07:49:49.000Z</time>
      </trkpt>
      <trkpt lat="47.49412" lon="6.73981">
        <ele>351</ele>
        <time>2015-10-11T07:49:50.000Z</time>
      </trkpt>
      <trkpt lat="47.49411" lon="6.73973">
        <ele>352</ele>
        <time>2015-10-11T07:49:51.000Z</time>
      </trkpt>
      <trkpt lat="47.49411" lon="6.73965">
        <ele>352</ele>
        <time>2015-10-11T07:49:52.000Z</time>
      </trkpt>
      <trkpt lat="47.49411" lon="6.73959">
        <ele>352</ele>
        <time>2015-10-11T07:49:53.000Z</time>
      </trkpt>
      <trkpt lat="47.4941" lon="6.73953">
        <ele>352</ele>
        <time>2015-10-11T07:49:54.000Z</time>
      </trkpt>
      <trkpt lat="47.49409" lon="6.73948">
        <ele>351</ele>
        <time>2015-10-11T07:49:55.000Z</time>
      </trkpt>
      <trkpt lat="47.49408" lon="6.73941">
        <ele>351</ele>
        <time>2015-10-11T07:49:56.000Z</time>
      </trkpt>
      <trkpt lat="47.49409" lon="6.73934">
        <ele>350</ele>
        <time>2015-10-11T07:49:57.000Z</time>
      </trkpt>
      <trkpt lat="47.49408" lon="6.73927">
        <ele>349</ele>
        <time>2015-10-11T07:49:58.000Z</time>
      </trkpt>
      <trkpt lat="47.49408" lon="6.73922">
        <ele>349</ele>
        <time>2015-10-11T07:49:59.000Z</time>
      </trkpt>
      <trkpt lat="47.49407" lon="6.73916">
        <ele>348</ele>
        <time>2015-10-11T07:50:00.000Z</time>
      </trkpt>
      <trkpt lat="47.49406" lon="6.73911">
        <ele>348</ele>
        <time>2015-10-11T07:50:01.000Z</time>
      </trkpt>
      <trkpt lat="47.49406" lon="6.73905">
        <ele>348</ele>
        <time>2015-10-11T07:50:02.000Z</time>
      </trkpt>
      <trkpt lat="47.49406" lon="6.73899">
        <ele>349</ele>
        <time>2015-10-11T07:50:03.000Z</time>
      </trkpt>
      <trkpt lat="47.49405" lon="6.73893">
        <ele>349</ele>
        <time>2015-10-11T07:50:04.000Z</time>
      </trkpt>
      <trkpt lat="47.49406" lon="6.73887">
        <ele>349</ele>
        <time>2015-10-11T07:50:05.000Z</time>
      </trkpt>
      <trkpt lat="47.49406" lon="6.73881">
        <ele>349</ele>
        <time>2015-10-11T07:50:06.000Z</time>
      </trkpt>
      <trkpt lat="47.49407" lon="6.73875">
        <ele>349</ele>
        <time>2015-10-11T07:50:07.000Z</time>
      </trkpt>
      <trkpt lat="47.49407" lon="6.7387">
        <ele>349</ele>
        <time>2015-10-11T07:50:08.000Z</time>
      </trkpt>
      <trkpt lat="47.49408" lon="6.73865">
        <ele>348</ele>
        <time>2015-10-11T07:50:09.000Z</time>
      </trkpt>
      <trkpt lat="47.49408" lon="6.7386">
        <ele>348</ele>
        <time>2015-10-11T07:50:10.000Z</time>
      </trkpt>
      <trkpt lat="47.49409" lon="6.73855">
        <ele>348</ele>
        <time>2015-10-11T07:50:11.000Z</time>
      </trkpt>
      <trkpt lat="47.49409" lon="6.7385">
        <ele>347</ele>
        <time>2015-10-11T07:50:12.000Z</time>
      </trkpt>
      <trkpt lat="47.49409" lon="6.73845">
        <ele>347</ele>
        <time>2015-10-11T07:50:13.000Z</time>
      </trkpt>
      <trkpt lat="47.49409" lon="6.73839">
        <ele>346</ele>
        <time>2015-10-11T07:50:14.000Z</time>
      </trkpt>
      <trkpt lat="47.4941" lon="6.73834">
        <ele>346</ele>
        <time>2015-10-11T07:50:15.000Z</time>
      </trkpt>
      <trkpt lat="47.4941" lon="6.73828">
        <ele>346</ele>
        <time>2015-10-11T07:50:16.000Z</time>
      </trkpt>
      <trkpt lat="47.49411" lon="6.73822">
        <ele>346</ele>
        <time>2015-10-11T07:50:17.000Z</time>
      </trkpt>
      <trkpt lat="47.49413" lon="6.73816">
        <ele>347</ele>
        <time>2015-10-11T07:50:18.000Z</time>
      </trkpt>
      <trkpt lat="47.49424" lon="6.73792">
        <ele>340</ele>
        <time>2015-10-11T07:50:19.000Z</time>
      </trkpt>
      <trkpt lat="47.49429" lon="6.73783">
        <ele>340</ele>
        <time>2015-10-11T07:50:20.000Z</time>
      </trkpt>
      <trkpt lat="47.49432" lon="6.73776">
        <ele>340</ele>
        <time>2015-10-11T07:50:21.000Z</time>
      </trkpt>
      <trkpt lat="47.49437" lon="6.73771">
        <ele>340</ele>
        <time>2015-10-11T07:50:22.000Z</time>
      </trkpt>
      <trkpt lat="47.4944" lon="6.73766">
        <ele>340</ele>
        <time>2015-10-11T07:50:23.000Z</time>
      </trkpt>
      <trkpt lat="47.49443" lon="6.7376">
        <ele>340</ele>
        <time>2015-10-11T07:50:24.000Z</time>
      </trkpt>
      <trkpt lat="47.49445" lon="6.73756">
        <ele>340</ele>
        <time>2015-10-11T07:50:25.000Z</time>
      </trkpt>
      <trkpt lat="47.49449" lon="6.73748">
        <ele>340</ele>
        <time>2015-10-11T07:50:26.000Z</time>
      </trkpt>
      <trkpt lat="47.49452" lon="6.73738">
        <ele>339</ele>
        <time>2015-10-11T07:50:27.000Z</time>
      </trkpt>
      <trkpt lat="47.49455" lon="6.73732">
        <ele>339</ele>
        <time>2015-10-11T07:50:28.000Z</time>
      </trkpt>
      <trkpt lat="47.49458" lon="6.73724">
        <ele>338</ele>
        <time>2015-10-11T07:50:29.000Z</time>
      </trkpt>
      <trkpt lat="47.49461" lon="6.73716">
        <ele>338</ele>
        <time>2015-10-11T07:50:30.000Z</time>
      </trkpt>
      <trkpt lat="47.49463" lon="6.7371">
        <ele>338</ele>
        <time>2015-10-11T07:50:31.000Z</time>
      </trkpt>
      <trkpt lat="47.49465" lon="6.73705">
        <ele>338</ele>
        <time>2015-10-11T07:50:32.000Z</time>
      </trkpt>
      <trkpt lat="47.49468" lon="6.73699">
        <ele>338</ele>
        <time>2015-10-11T07:50:33.000Z</time>
      </trkpt>
      <trkpt lat="47.49469" lon="6.73693">
        <ele>337</ele>
        <time>2015-10-11T07:50:34.000Z</time>
      </trkpt>
      <trkpt lat="47.49471" lon="6.73686">
        <ele>337</ele>
        <time>2015-10-11T07:50:35.000Z</time>
      </trkpt>
      <trkpt lat="47.49474" lon="6.73682">
        <ele>337</ele>
        <time>2015-10-11T07:50:36.000Z</time>
      </trkpt>
      <trkpt lat="47.49476" lon="6.73677">
        <ele>336</ele>
        <time>2015-10-11T07:50:37.000Z</time>
      </trkpt>
      <trkpt lat="47.4948" lon="6.73671">
        <ele>336</ele>
        <time>2015-10-11T07:50:38.000Z</time>
      </trkpt>
      <trkpt lat="47.49483" lon="6.73666">
        <ele>335</ele>
        <time>2015-10-11T07:50:39.000Z</time>
      </trkpt>
      <trkpt lat="47.49485" lon="6.73661">
        <ele>335</ele>
        <time>2015-10-11T07:50:40.000Z</time>
      </trkpt>
      <trkpt lat="47.49488" lon="6.73656">
        <ele>335</ele>
        <time>2015-10-11T07:50:41.000Z</time>
      </trkpt>
      <trkpt lat="47.4949" lon="6.73651">
        <ele>335</ele>
        <time>2015-10-11T07:50:42.000Z</time>
      </trkpt>
      <trkpt lat="47.49493" lon="6.73646">
        <ele>336</ele>
        <time>2015-10-11T07:50:43.000Z</time>
      </trkpt>
      <trkpt lat="47.49495" lon="6.7364">
        <ele>336</ele>
        <time>2015-10-11T07:50:44.000Z</time>
      </trkpt>
      <trkpt lat="47.49498" lon="6.73635">
        <ele>336</ele>
        <time>2015-10-11T07:50:45.000Z</time>
      </trkpt>
      <trkpt lat="47.49501" lon="6.73631">
        <ele>332</ele>
        <time>2015-10-11T07:50:46.000Z</time>
      </trkpt>
      <trkpt lat="47.49504" lon="6.73626">
        <ele>332</ele>
        <time>2015-10-11T07:50:47.000Z</time>
      </trkpt>
      <trkpt lat="47.49508" lon="6.73622">
        <ele>332</ele>
        <time>2015-10-11T07:50:48.000Z</time>
      </trkpt>
      <trkpt lat="47.49511" lon="6.73618">
        <ele>332</ele>
        <time>2015-10-11T07:50:49.000Z</time>
      </trkpt>
      <trkpt lat="47.49515" lon="6.73614">
        <ele>332</ele>
        <time>2015-10-11T07:50:50.000Z</time>
      </trkpt>
      <trkpt lat="47.49518" lon="6.73611">
        <ele>332</ele>
        <time>2015-10-11T07:50:51.000Z</time>
      </trkpt>
      <trkpt lat="47.49522" lon="6.73606">
        <ele>332</ele>
        <time>2015-10-11T07:50:52.000Z</time>
      </trkpt>
      <trkpt lat="47.49525" lon="6.73603">
        <ele>332</ele>
        <time>2015-10-11T07:50:53.000Z</time>
      </trkpt>
      <trkpt lat="47.49529" lon="6.73599">
        <ele>332</ele>
        <time>2015-10-11T07:50:54.000Z</time>
      </trkpt>
      <trkpt lat="47.49532" lon="6.73594">
        <ele>332</ele>
        <time>2015-10-11T07:50:55.000Z</time>
      </trkpt>
      <trkpt lat="47.49536" lon="6.7359">
        <ele>332</ele>
        <time>2015-10-11T07:50:56.000Z</time>
      </trkpt>
      <trkpt lat="47.49539" lon="6.73587">
        <ele>332</ele>
        <time>2015-10-11T07:50:57.000Z</time>
      </trkpt>
      <trkpt lat="47.49543" lon="6.73583">
        <ele>333</ele>
        <time>2015-10-11T07:50:58.000Z</time>
      </trkpt>
      <trkpt lat="47.49546" lon="6.73579">
        <ele>333</ele>
        <time>2015-10-11T07:50:59.000Z</time>
      </trkpt>
      <trkpt lat="47.4955" lon="6.73575">
        <ele>333</ele>
        <time>2015-10-11T07:51:00.000Z</time>
      </trkpt>
      <trkpt lat="47.49554" lon="6.73571">
        <ele>333</ele>
        <time>2015-10-11T07:51:01.000Z</time>
      </trkpt>
      <trkpt lat="47.49557" lon="6.73567">
        <ele>333</ele>
        <time>2015-10-11T07:51:02.000Z</time>
      </trkpt>
      <trkpt lat="47.49561" lon="6.73563">
        <ele>333</ele>
        <time>2015-10-11T07:51:03.000Z</time>
      </trkpt>
      <trkpt lat="47.49565" lon="6.73559">
        <ele>333</ele>
        <time>2015-10-11T07:51:04.000Z</time>
      </trkpt>
      <trkpt lat="47.49568" lon="6.73556">
        <ele>333</ele>
        <time>2015-10-11T07:51:05.000Z</time>
      </trkpt>
      <trkpt lat="47.49572" lon="6.73553">
        <ele>333</ele>
        <time>2015-10-11T07:51:06.000Z</time>
      </trkpt>
      <trkpt lat="47.49576" lon="6.7355">
        <ele>333</ele>
        <time>2015-10-11T07:51:07.000Z</time>
      </trkpt>
      <trkpt lat="47.4958" lon="6.73547">
        <ele>333</ele>
        <time>2015-10-11T07:51:08.000Z</time>
      </trkpt>
      <trkpt lat="47.49584" lon="6.73544">
        <ele>331</ele>
        <time>2015-10-11T07:51:09.000Z</time>
      </trkpt>
      <trkpt lat="47.49587" lon="6.73541">
        <ele>332</ele>
        <time>2015-10-11T07:51:10.000Z</time>
      </trkpt>
      <trkpt lat="47.49591" lon="6.73538">
        <ele>332</ele>
        <time>2015-10-11T07:51:11.000Z</time>
      </trkpt>
      <trkpt lat="47.49595" lon="6.73535">
        <ele>332</ele>
        <time>2015-10-11T07:51:12.000Z</time>
      </trkpt>
      <trkpt lat="47.49598" lon="6.73532">
        <ele>332</ele>
        <time>2015-10-11T07:51:13.000Z</time>
      </trkpt>
      <trkpt lat="47.49601" lon="6.73529">
        <ele>332</ele>
        <time>2015-10-11T07:51:14.000Z</time>
      </trkpt>
      <trkpt lat="47.49605" lon="6.73526">
        <ele>332</ele>
        <time>2015-10-11T07:51:15.000Z</time>
      </trkpt>
      <trkpt lat="47.49608" lon="6.73522">
        <ele>332</ele>
        <time>2015-10-11T07:51:16.000Z</time>
      </trkpt>
      <trkpt lat="47.49612" lon="6.73519">
        <ele>332</ele>
        <time>2015-10-11T07:51:17.000Z</time>
      </trkpt>
      <trkpt lat="47.49615" lon="6.73515">
        <ele>332</ele>
        <time>2015-10-11T07:51:18.000Z</time>
      </trkpt>
      <trkpt lat="47.49618" lon="6.73511">
        <ele>332</ele>
        <time>2015-10-11T07:51:19.000Z</time>
      </trkpt>
      <trkpt lat="47.49621" lon="6.73508">
        <ele>332</ele>
        <time>2015-10-11T07:51:20.000Z</time>
      </trkpt>
      <trkpt lat="47.49624" lon="6.73504">
        <ele>332</ele>
        <time>2015-10-11T07:51:21.000Z</time>
      </trkpt>
      <trkpt lat="47.49627" lon="6.735">
        <ele>332</ele>
        <time>2015-10-11T07:51:22.000Z</time>
      </trkpt>
      <trkpt lat="47.4963" lon="6.73496">
        <ele>333</ele>
        <time>2015-10-11T07:51:23.000Z</time>
      </trkpt>
      <trkpt lat="47.49633" lon="6.73492">
        <ele>333</ele>
        <time>2015-10-11T07:51:24.000Z</time>
      </trkpt>
      <trkpt lat="47.49637" lon="6.73488">
        <ele>333</ele>
        <time>2015-10-11T07:51:25.000Z</time>
      </trkpt>
      <trkpt lat="47.4964" lon="6.73484">
        <ele>333</ele>
        <time>2015-10-11T07:51:26.000Z</time>
      </trkpt>
      <trkpt lat="47.49643" lon="6.73479">
        <ele>333</ele>
        <time>2015-10-11T07:51:27.000Z</time>
      </trkpt>
      <trkpt lat="47.49645" lon="6.73475">
        <ele>333</ele>
        <time>2015-10-11T07:51:28.000Z</time>
      </trkpt>
      <trkpt lat="47.49648" lon="6.73471">
        <ele>334</ele>
        <time>2015-10-11T07:51:29.000Z</time>
      </trkpt>
      <trkpt lat="47.49651" lon="6.73466">
        <ele>334</ele>
        <time>2015-10-11T07:51:30.000Z</time>
      </trkpt>
      <trkpt lat="47.49654" lon="6.73462">
        <ele>334</ele>
        <time>2015-10-11T07:51:31.000Z</time>
      </trkpt>
      <trkpt lat="47.49657" lon="6.73458">
        <ele>334</ele>
        <time>2015-10-11T07:51:32.000Z</time>
      </trkpt>
      <trkpt lat="47.4966" lon="6.73454">
        <ele>334</ele>
        <time>2015-10-11T07:51:33.000Z</time>
      </trkpt>
      <trkpt lat="47.49663" lon="6.73449">
        <ele>334</ele>
        <time>2015-10-11T07:51:34.000Z</time>
      </trkpt>
      <trkpt lat="47.49666" lon="6.73445">
        <ele>334</ele>
        <time>2015-10-11T07:51:35.000Z</time>
      </trkpt>
      <trkpt lat="47.49669" lon="6.7344">
        <ele>333</ele>
        <time>2015-10-11T07:51:36.000Z</time>
      </trkpt>
      <trkpt lat="47.49671" lon="6.73436">
        <ele>333</ele>
        <time>2015-10-11T07:51:37.000Z</time>
      </trkpt>
      <trkpt lat="47.49674" lon="6.73431">
        <ele>333</ele>
        <time>2015-10-11T07:51:38.000Z</time>
      </trkpt>
      <trkpt lat="47.49677" lon="6.73427">
        <ele>334</ele>
        <time>2015-10-11T07:51:39.000Z</time>
      </trkpt>
      <trkpt lat="47.4968" lon="6.73422">
        <ele>334</ele>
        <time>2015-10-11T07:51:40.000Z</time>
      </trkpt>
      <trkpt lat="47.49683" lon="6.73418">
        <ele>334</ele>
        <time>2015-10-11T07:51:41.000Z</time>
      </trkpt>
      <trkpt lat="47.49686" lon="6.73414">
        <ele>334</ele>
        <time>2015-10-11T07:51:42.000Z</time>
      </trkpt>
      <trkpt lat="47.49689" lon="6.73409">
        <ele>334</ele>
        <time>2015-10-11T07:51:43.000Z</time>
      </trkpt>
      <trkpt lat="47.49692" lon="6.73405">
        <ele>334</ele>
        <time>2015-10-11T07:51:44.000Z</time>
      </trkpt>
      <trkpt lat="47.49695" lon="6.73401">
        <ele>334</ele>
        <time>2015-10-11T07:51:45.000Z</time>
      </trkpt>
      <trkpt lat="47.49698" lon="6.73397">
        <ele>334</ele>
        <time>2015-10-11T07:51:46.000Z</time>
      </trkpt>
      <trkpt lat="47.49701" lon="6.73392">
        <ele>334</ele>
        <time>2015-10-11T07:51:47.000Z</time>
      </trkpt>
      <trkpt lat="47.49703" lon="6.73387">
        <ele>334</ele>
        <time>2015-10-11T07:51:48.000Z</time>
      </trkpt>
      <trkpt lat="47.49706" lon="6.73382">
        <ele>334</ele>
        <time>2015-10-11T07:51:49.000Z</time>
      </trkpt>
      <trkpt lat="47.49709" lon="6.73378">
        <ele>334</ele>
        <time>2015-10-11T07:51:50.000Z</time>
      </trkpt>
      <trkpt lat="47.49712" lon="6.73373">
        <ele>334</ele>
        <time>2015-10-11T07:51:51.000Z</time>
      </trkpt>
      <trkpt lat="47.49715" lon="6.73369">
        <ele>334</ele>
        <time>2015-10-11T07:51:52.000Z</time>
      </trkpt>
      <trkpt lat="47.49717" lon="6.73365">
        <ele>334</ele>
        <time>2015-10-11T07:51:53.000Z</time>
      </trkpt>
      <trkpt lat="47.4972" lon="6.73361">
        <ele>334</ele>
        <time>2015-10-11T07:51:54.000Z</time>
      </trkpt>
      <trkpt lat="47.49723" lon="6.73357">
        <ele>334</ele>
        <time>2015-10-11T07:51:55.000Z</time>
      </trkpt>
      <trkpt lat="47.49726" lon="6.73352">
        <ele>334</ele>
        <time>2015-10-11T07:51:55.999Z</time>
      </trkpt>
      <trkpt lat="47.49729" lon="6.73348">
        <ele>333</ele>
        <time>2015-10-11T07:51:57.000Z</time>
      </trkpt>
      <trkpt lat="47.49732" lon="6.73344">
        <ele>333</ele>
        <time>2015-10-11T07:51:58.000Z</time>
      </trkpt>
      <trkpt lat="47.49734" lon="6.73338">
        <ele>333</ele>
        <time>2015-10-11T07:51:59.000Z</time>
      </trkpt>
      <trkpt lat="47.49737" lon="6.73333">
        <ele>334</ele>
        <time>2015-10-11T07:52:00.000Z</time>
      </trkpt>
      <trkpt lat="47.4974" lon="6.73328">
        <ele>334</ele>
        <time>2015-10-11T07:52:01.000Z</time>
      </trkpt>
      <trkpt lat="47.49743" lon="6.73324">
        <ele>334</ele>
        <time>2015-10-11T07:52:02.000Z</time>
      </trkpt>
      <trkpt lat="47.49746" lon="6.7332">
        <ele>334</ele>
        <time>2015-10-11T07:52:02.999Z</time>
      </trkpt>
      <trkpt lat="47.49749" lon="6.73316">
        <ele>334</ele>
        <time>2015-10-11T07:52:04.000Z</time>
      </trkpt>
      <trkpt lat="47.49752" lon="6.73311">
        <ele>333</ele>
        <time>2015-10-11T07:52:05.000Z</time>
      </trkpt>
      <trkpt lat="47.49755" lon="6.73307">
        <ele>334</ele>
        <time>2015-10-11T07:52:06.000Z</time>
      </trkpt>
      <trkpt lat="47.49758" lon="6.73302">
        <ele>334</ele>
        <time>2015-10-11T07:52:06.998Z</time>
      </trkpt>
      <trkpt lat="47.49762" lon="6.73298">
        <ele>334</ele>
        <time>2015-10-11T07:52:08.000Z</time>
      </trkpt>
      <trkpt lat="47.49765" lon="6.73293">
        <ele>334</ele>
        <time>2015-10-11T07:52:09.000Z</time>
      </trkpt>
      <trkpt lat="47.49768" lon="6.73289">
        <ele>334</ele>
        <time>2015-10-11T07:52:10.000Z</time>
      </trkpt>
      <trkpt lat="47.4977" lon="6.73284">
        <ele>334</ele>
        <time>2015-10-11T07:52:11.001Z</time>
      </trkpt>
      <trkpt lat="47.49773" lon="6.73279">
        <ele>335</ele>
        <time>2015-10-11T07:52:12.000Z</time>
      </trkpt>
      <trkpt lat="47.49776" lon="6.73275">
        <ele>335</ele>
        <time>2015-10-11T07:52:13.000Z</time>
      </trkpt>
      <trkpt lat="47.49778" lon="6.7327">
        <ele>335</ele>
        <time>2015-10-11T07:52:14.000Z</time>
      </trkpt>
      <trkpt lat="47.49781" lon="6.73265">
        <ele>335</ele>
        <time>2015-10-11T07:52:15.000Z</time>
      </trkpt>
      <trkpt lat="47.49784" lon="6.7326">
        <ele>335</ele>
        <time>2015-10-11T07:52:15.999Z</time>
      </trkpt>
      <trkpt lat="47.49786" lon="6.73255">
        <ele>335</ele>
        <time>2015-10-11T07:52:17.000Z</time>
      </trkpt>
      <trkpt lat="47.49788" lon="6.7325">
        <ele>335</ele>
        <time>2015-10-11T07:52:17.999Z</time>
      </trkpt>
      <trkpt lat="47.49791" lon="6.73245">
        <ele>337</ele>
        <time>2015-10-11T07:52:19.000Z</time>
      </trkpt>
      <trkpt lat="47.49793" lon="6.73241">
        <ele>337</ele>
        <time>2015-10-11T07:52:20.000Z</time>
      </trkpt>
      <trkpt lat="47.49795" lon="6.73236">
        <ele>337</ele>
        <time>2015-10-11T07:52:21.000Z</time>
      </trkpt>
      <trkpt lat="47.49797" lon="6.73231">
        <ele>337</ele>
        <time>2015-10-11T07:52:22.000Z</time>
      </trkpt>
      <trkpt lat="47.49799" lon="6.73225">
        <ele>337</ele>
        <time>2015-10-11T07:52:23.000Z</time>
      </trkpt>
      <trkpt lat="47.49801" lon="6.7322">
        <ele>337</ele>
        <time>2015-10-11T07:52:24.000Z</time>
      </trkpt>
      <trkpt lat="47.49803" lon="6.73215">
        <ele>337</ele>
        <time>2015-10-11T07:52:25.000Z</time>
      </trkpt>
      <trkpt lat="47.49804" lon="6.7321">
        <ele>337</ele>
        <time>2015-10-11T07:52:25.999Z</time>
      </trkpt>
      <trkpt lat="47.49806" lon="6.73205">
        <ele>337</ele>
        <time>2015-10-11T07:52:26.999Z</time>
      </trkpt>
      <trkpt lat="47.49808" lon="6.732">
        <ele>337</ele>
        <time>2015-10-11T07:52:28.000Z</time>
      </trkpt>
      <trkpt lat="47.4981" lon="6.73194">
        <ele>337</ele>
        <time>2015-10-11T07:52:29.000Z</time>
      </trkpt>
      <trkpt lat="47.49811" lon="6.73189">
        <ele>337</ele>
        <time>2015-10-11T07:52:30.000Z</time>
      </trkpt>
      <trkpt lat="47.49813" lon="6.73184">
        <ele>337</ele>
        <time>2015-10-11T07:52:31.000Z</time>
      </trkpt>
      <trkpt lat="47.49814" lon="6.73178">
        <ele>337</ele>
        <time>2015-10-11T07:52:32.000Z</time>
      </trkpt>
      <trkpt lat="47.49816" lon="6.73173">
        <ele>337</ele>
        <time>2015-10-11T07:52:33.000Z</time>
      </trkpt>
      <trkpt lat="47.49817" lon="6.73167">
        <ele>337</ele>
        <time>2015-10-11T07:52:34.000Z</time>
      </trkpt>
      <trkpt lat="47.49818" lon="6.73161">
        <ele>338</ele>
        <time>2015-10-11T07:52:35.000Z</time>
      </trkpt>
      <trkpt lat="47.4982" lon="6.73155">
        <ele>338</ele>
        <time>2015-10-11T07:52:36.000Z</time>
      </trkpt>
      <trkpt lat="47.49821" lon="6.7315">
        <ele>338</ele>
        <time>2015-10-11T07:52:37.000Z</time>
      </trkpt>
      <trkpt lat="47.49822" lon="6.73144">
        <ele>338</ele>
        <time>2015-10-11T07:52:38.002Z</time>
      </trkpt>
      <trkpt lat="47.49824" lon="6.73138">
        <ele>339</ele>
        <time>2015-10-11T07:52:39.000Z</time>
      </trkpt>
      <trkpt lat="47.49825" lon="6.73133">
        <ele>339</ele>
        <time>2015-10-11T07:52:40.000Z</time>
      </trkpt>
      <trkpt lat="47.49826" lon="6.73128">
        <ele>339</ele>
        <time>2015-10-11T07:52:41.000Z</time>
      </trkpt>
      <trkpt lat="47.49827" lon="6.73123">
        <ele>339</ele>
        <time>2015-10-11T07:52:42.000Z</time>
      </trkpt>
      <trkpt lat="47.49828" lon="6.73118">
        <ele>339</ele>
        <time>2015-10-11T07:52:43.000Z</time>
      </trkpt>
      <trkpt lat="47.49829" lon="6.73114">
        <ele>339</ele>
        <time>2015-10-11T07:52:44.000Z</time>
      </trkpt>
      <trkpt lat="47.4983" lon="6.73109">
        <ele>339</ele>
        <time>2015-10-11T07:52:45.000Z</time>
      </trkpt>
      <trkpt lat="47.49831" lon="6.73104">
        <ele>339</ele>
        <time>2015-10-11T07:52:46.000Z</time>
      </trkpt>
      <trkpt lat="47.49833" lon="6.731">
        <ele>340</ele>
        <time>2015-10-11T07:52:47.000Z</time>
      </trkpt>
      <trkpt lat="47.49834" lon="6.73096">
        <ele>339</ele>
        <time>2015-10-11T07:52:48.001Z</time>
      </trkpt>
      <trkpt lat="47.49835" lon="6.73092">
        <ele>339</ele>
        <time>2015-10-11T07:52:49.001Z</time>
      </trkpt>
      <trkpt lat="47.49836" lon="6.73087">
        <ele>340</ele>
        <time>2015-10-11T07:52:50.001Z</time>
      </trkpt>
      <trkpt lat="47.49838" lon="6.73083">
        <ele>340</ele>
        <time>2015-10-11T07:52:51.000Z</time>
      </trkpt>
      <trkpt lat="47.49841" lon="6.73078">
        <ele>340</ele>
        <time>2015-10-11T07:52:52.000Z</time>
      </trkpt>
      <trkpt lat="47.49843" lon="6.73073">
        <ele>340</ele>
        <time>2015-10-11T07:52:53.000Z</time>
      </trkpt>
      <trkpt lat="47.49845" lon="6.73069">
        <ele>340</ele>
        <time>2015-10-11T07:52:54.000Z</time>
      </trkpt>
      <trkpt lat="47.49846" lon="6.73065">
        <ele>340</ele>
        <time>2015-10-11T07:52:55.000Z</time>
      </trkpt>
      <trkpt lat="47.49848" lon="6.7306">
        <ele>340</ele>
        <time>2015-10-11T07:52:56.000Z</time>
      </trkpt>
      <trkpt lat="47.4985" lon="6.73055">
        <ele>340</ele>
        <time>2015-10-11T07:52:57.000Z</time>
      </trkpt>
      <trkpt lat="47.49852" lon="6.7305">
        <ele>340</ele>
        <time>2015-10-11T07:52:58.000Z</time>
      </trkpt>
      <trkpt lat="47.49853" lon="6.73045">
        <ele>340</ele>
        <time>2015-10-11T07:52:59.000Z</time>
      </trkpt>
      <trkpt lat="47.49855" lon="6.73041">
        <ele>340</ele>
        <time>2015-10-11T07:53:00.000Z</time>
      </trkpt>
      <trkpt lat="47.49857" lon="6.73036">
        <ele>340</ele>
        <time>2015-10-11T07:53:01.000Z</time>
      </trkpt>
      <trkpt lat="47.49859" lon="6.73031">
        <ele>340</ele>
        <time>2015-10-11T07:53:02.000Z</time>
      </trkpt>
      <trkpt lat="47.49861" lon="6.73027">
        <ele>341</ele>
        <time>2015-10-11T07:53:03.000Z</time>
      </trkpt>
      <trkpt lat="47.49863" lon="6.73022">
        <ele>341</ele>
        <time>2015-10-11T07:53:04.000Z</time>
      </trkpt>
      <trkpt lat="47.49865" lon="6.73018">
        <ele>341</ele>
        <time>2015-10-11T07:53:05.000Z</time>
      </trkpt>
      <trkpt lat="47.49866" lon="6.73013">
        <ele>341</ele>
        <time>2015-10-11T07:53:06.000Z</time>
      </trkpt>
      <trkpt lat="47.49868" lon="6.73009">
        <ele>341</ele>
        <time>2015-10-11T07:53:07.000Z</time>
      </trkpt>
      <trkpt lat="47.4987" lon="6.73004">
        <ele>341</ele>
        <time>2015-10-11T07:53:08.000Z</time>
      </trkpt>
      <trkpt lat="47.49872" lon="6.72999">
        <ele>342</ele>
        <time>2015-10-11T07:53:09.000Z</time>
      </trkpt>
      <trkpt lat="47.49874" lon="6.72991">
        <ele>342</ele>
        <time>2015-10-11T07:53:10.000Z</time>
      </trkpt>
      <trkpt lat="47.49876" lon="6.72986">
        <ele>342</ele>
        <time>2015-10-11T07:53:11.000Z</time>
      </trkpt>
      <trkpt lat="47.49878" lon="6.7298">
        <ele>342</ele>
        <time>2015-10-11T07:53:12.000Z</time>
      </trkpt>
      <trkpt lat="47.4988" lon="6.72974">
        <ele>342</ele>
        <time>2015-10-11T07:53:13.000Z</time>
      </trkpt>
      <trkpt lat="47.49882" lon="6.72968">
        <ele>342</ele>
        <time>2015-10-11T07:53:14.000Z</time>
      </trkpt>
      <trkpt lat="47.49885" lon="6.72963">
        <ele>342</ele>
        <time>2015-10-11T07:53:15.000Z</time>
      </trkpt>
      <trkpt lat="47.49887" lon="6.72957">
        <ele>342</ele>
        <time>2015-10-11T07:53:16.000Z</time>
      </trkpt>
      <trkpt lat="47.49891" lon="6.72951">
        <ele>342</ele>
        <time>2015-10-11T07:53:17.000Z</time>
      </trkpt>
      <trkpt lat="47.49894" lon="6.72946">
        <ele>342</ele>
        <time>2015-10-11T07:53:18.000Z</time>
      </trkpt>
      <trkpt lat="47.49899" lon="6.72944">
        <ele>342</ele>
        <time>2015-10-11T07:53:19.000Z</time>
      </trkpt>
      <trkpt lat="47.49904" lon="6.72944">
        <ele>342</ele>
        <time>2015-10-11T07:53:20.000Z</time>
      </trkpt>
      <trkpt lat="47.49909" lon="6.72947">
        <ele>341</ele>
        <time>2015-10-11T07:53:21.000Z</time>
      </trkpt>
      <trkpt lat="47.49915" lon="6.72949">
        <ele>341</ele>
        <time>2015-10-11T07:53:22.000Z</time>
      </trkpt>
      <trkpt lat="47.4992" lon="6.72951">
        <ele>339</ele>
        <time>2015-10-11T07:53:23.000Z</time>
      </trkpt>
      <trkpt lat="47.49926" lon="6.72952">
        <ele>339</ele>
        <time>2015-10-11T07:53:24.000Z</time>
      </trkpt>
      <trkpt lat="47.49932" lon="6.72955">
        <ele>339</ele>
        <time>2015-10-11T07:53:25.000Z</time>
      </trkpt>
      <trkpt lat="47.49938" lon="6.72959">
        <ele>339</ele>
        <time>2015-10-11T07:53:26.000Z</time>
      </trkpt>
      <trkpt lat="47.49944" lon="6.72961">
        <ele>339</ele>
        <time>2015-10-11T07:53:27.000Z</time>
      </trkpt>
      <trkpt lat="47.4995" lon="6.72962">
        <ele>339</ele>
        <time>2015-10-11T07:53:28.000Z</time>
      </trkpt>
      <trkpt lat="47.49956" lon="6.72964">
        <ele>339</ele>
        <time>2015-10-11T07:53:29.000Z</time>
      </trkpt>
      <trkpt lat="47.49963" lon="6.72964">
        <ele>339</ele>
        <time>2015-10-11T07:53:30.000Z</time>
      </trkpt>
      <trkpt lat="47.49969" lon="6.72965">
        <ele>339</ele>
        <time>2015-10-11T07:53:31.000Z</time>
      </trkpt>
      <trkpt lat="47.49974" lon="6.72968">
        <ele>338</ele>
        <time>2015-10-11T07:53:32.000Z</time>
      </trkpt>
      <trkpt lat="47.4998" lon="6.72974">
        <ele>338</ele>
        <time>2015-10-11T07:53:33.000Z</time>
      </trkpt>
      <trkpt lat="47.49985" lon="6.72981">
        <ele>338</ele>
        <time>2015-10-11T07:53:34.000Z</time>
      </trkpt>
      <trkpt lat="47.49989" lon="6.72988">
        <ele>338</ele>
        <time>2015-10-11T07:53:35.000Z</time>
      </trkpt>
      <trkpt lat="47.49993" lon="6.72997">
        <ele>337</ele>
        <time>2015-10-11T07:53:36.000Z</time>
      </trkpt>
      <trkpt lat="47.49996" lon="6.73004">
        <ele>337</ele>
        <time>2015-10-11T07:53:37.000Z</time>
      </trkpt>
      <trkpt lat="47.5" lon="6.73011">
        <ele>337</ele>
        <time>2015-10-11T07:53:38.000Z</time>
      </trkpt>
      <trkpt lat="47.50004" lon="6.73018">
        <ele>337</ele>
        <time>2015-10-11T07:53:39.000Z</time>
      </trkpt>
      <trkpt lat="47.50008" lon="6.73024">
        <ele>337</ele>
        <time>2015-10-11T07:53:40.000Z</time>
      </trkpt>
      <trkpt lat="47.50012" lon="6.73029">
        <ele>337</ele>
        <time>2015-10-11T07:53:41.000Z</time>
      </trkpt>
      <trkpt lat="47.50014" lon="6.73034">
        <ele>337</ele>
        <time>2015-10-11T07:53:42.000Z</time>
      </trkpt>
      <trkpt lat="47.50019" lon="6.7304">
        <ele>337</ele>
        <time>2015-10-11T07:53:43.000Z</time>
      </trkpt>
      <trkpt lat="47.50023" lon="6.73044">
        <ele>337</ele>
        <time>2015-10-11T07:53:44.000Z</time>
      </trkpt>
      <trkpt lat="47.50028" lon="6.73048">
        <ele>337</ele>
        <time>2015-10-11T07:53:45.000Z</time>
      </trkpt>
      <trkpt lat="47.50032" lon="6.73053">
        <ele>337</ele>
        <time>2015-10-11T07:53:46.000Z</time>
      </trkpt>
      <trkpt lat="47.50036" lon="6.73057">
        <ele>337</ele>
        <time>2015-10-11T07:53:47.000Z</time>
      </trkpt>
      <trkpt lat="47.50041" lon="6.73061">
        <ele>337</ele>
        <time>2015-10-11T07:53:48.000Z</time>
      </trkpt>
      <trkpt lat="47.50045" lon="6.73065">
        <ele>337</ele>
        <time>2015-10-11T07:53:49.000Z</time>
      </trkpt>
      <trkpt lat="47.50048" lon="6.73069">
        <ele>337</ele>
        <time>2015-10-11T07:53:50.000Z</time>
      </trkpt>
      <trkpt lat="47.50052" lon="6.73075">
        <ele>337</ele>
        <time>2015-10-11T07:53:51.000Z</time>
      </trkpt>
      <trkpt lat="47.50056" lon="6.73079">
        <ele>337</ele>
        <time>2015-10-11T07:53:52.000Z</time>
      </trkpt>
      <trkpt lat="47.5006" lon="6.73083">
        <ele>337</ele>
        <time>2015-10-11T07:53:53.000Z</time>
      </trkpt>
      <trkpt lat="47.50064" lon="6.73087">
        <ele>337</ele>
        <time>2015-10-11T07:53:54.000Z</time>
      </trkpt>
      <trkpt lat="47.50067" lon="6.7309">
        <ele>337</ele>
        <time>2015-10-11T07:53:55.000Z</time>
      </trkpt>
      <trkpt lat="47.50071" lon="6.73094">
        <ele>338</ele>
        <time>2015-10-11T07:53:56.000Z</time>
      </trkpt>
      <trkpt lat="47.50076" lon="6.73098">
        <ele>338</ele>
        <time>2015-10-11T07:53:57.000Z</time>
      </trkpt>
      <trkpt lat="47.5008" lon="6.73102">
        <ele>338</ele>
        <time>2015-10-11T07:53:58.000Z</time>
      </trkpt>
      <trkpt lat="47.50084" lon="6.73107">
        <ele>339</ele>
        <time>2015-10-11T07:53:59.000Z</time>
      </trkpt>
      <trkpt lat="47.50089" lon="6.73111">
        <ele>339</ele>
        <time>2015-10-11T07:54:00.000Z</time>
      </trkpt>
      <trkpt lat="47.50093" lon="6.73116">
        <ele>339</ele>
        <time>2015-10-11T07:54:01.000Z</time>
      </trkpt>
      <trkpt lat="47.50097" lon="6.73119">
        <ele>339</ele>
        <time>2015-10-11T07:54:02.000Z</time>
      </trkpt>
      <trkpt lat="47.50102" lon="6.73122">
        <ele>339</ele>
        <time>2015-10-11T07:54:03.000Z</time>
      </trkpt>
      <trkpt lat="47.50107" lon="6.73124">
        <ele>339</ele>
        <time>2015-10-11T07:54:04.000Z</time>
      </trkpt>
      <trkpt lat="47.50111" lon="6.73126">
        <ele>339</ele>
        <time>2015-10-11T07:54:05.000Z</time>
      </trkpt>
      <trkpt lat="47.50116" lon="6.73127">
        <ele>339</ele>
        <time>2015-10-11T07:54:06.000Z</time>
      </trkpt>
      <trkpt lat="47.5012" lon="6.73128">
        <ele>339</ele>
        <time>2015-10-11T07:54:07.000Z</time>
      </trkpt>
      <trkpt lat="47.50124" lon="6.73129">
        <ele>340</ele>
        <time>2015-10-11T07:54:08.000Z</time>
      </trkpt>
      <trkpt lat="47.50128" lon="6.73129">
        <ele>340</ele>
        <time>2015-10-11T07:54:09.000Z</time>
      </trkpt>
      <trkpt lat="47.50132" lon="6.73129">
        <ele>340</ele>
        <time>2015-10-11T07:54:10.000Z</time>
      </trkpt>
      <trkpt lat="47.50136" lon="6.73129">
        <ele>340</ele>
        <time>2015-10-11T07:54:11.000Z</time>
      </trkpt>
      <trkpt lat="47.5014" lon="6.73129">
        <ele>340</ele>
        <time>2015-10-11T07:54:12.000Z</time>
      </trkpt>
      <trkpt lat="47.50144" lon="6.73128">
        <ele>340</ele>
        <time>2015-10-11T07:54:13.000Z</time>
      </trkpt>
      <trkpt lat="47.50148" lon="6.73128">
        <ele>340</ele>
        <time>2015-10-11T07:54:14.000Z</time>
      </trkpt>
      <trkpt lat="47.50152" lon="6.73129">
        <ele>340</ele>
        <time>2015-10-11T07:54:15.000Z</time>
      </trkpt>
      <trkpt lat="47.50156" lon="6.7313">
        <ele>340</ele>
        <time>2015-10-11T07:54:16.000Z</time>
      </trkpt>
      <trkpt lat="47.5016" lon="6.73131">
        <ele>340</ele>
        <time>2015-10-11T07:54:17.000Z</time>
      </trkpt>
      <trkpt lat="47.50164" lon="6.73132">
        <ele>340</ele>
        <time>2015-10-11T07:54:18.000Z</time>
      </trkpt>
      <trkpt lat="47.50168" lon="6.73134">
        <ele>341</ele>
        <time>2015-10-11T07:54:19.000Z</time>
      </trkpt>
      <trkpt lat="47.50171" lon="6.73136">
        <ele>341</ele>
        <time>2015-10-11T07:54:20.000Z</time>
      </trkpt>
      <trkpt lat="47.50174" lon="6.73139">
        <ele>341</ele>
        <time>2015-10-11T07:54:21.000Z</time>
      </trkpt>
      <trkpt lat="47.50176" lon="6.73142">
        <ele>341</ele>
        <time>2015-10-11T07:54:22.000Z</time>
      </trkpt>
      <trkpt lat="47.50179" lon="6.73145">
        <ele>341</ele>
        <time>2015-10-11T07:54:23.000Z</time>
      </trkpt>
      <trkpt lat="47.50181" lon="6.73147">
        <ele>341</ele>
        <time>2015-10-11T07:54:24.000Z</time>
      </trkpt>
      <trkpt lat="47.50184" lon="6.73148">
        <ele>341</ele>
        <time>2015-10-11T07:54:25.000Z</time>
      </trkpt>
      <trkpt lat="47.50187" lon="6.73148">
        <ele>341</ele>
        <time>2015-10-11T07:54:26.000Z</time>
      </trkpt>
      <trkpt lat="47.5019" lon="6.73148">
        <ele>341</ele>
        <time>2015-10-11T07:54:27.000Z</time>
      </trkpt>
      <trkpt lat="47.50193" lon="6.73147">
        <ele>341</ele>
        <time>2015-10-11T07:54:28.000Z</time>
      </trkpt>
      <trkpt lat="47.50197" lon="6.73147">
        <ele>341</ele>
        <time>2015-10-11T07:54:29.000Z</time>
      </trkpt>
      <trkpt lat="47.50201" lon="6.73148">
        <ele>341</ele>
        <time>2015-10-11T07:54:30.000Z</time>
      </trkpt>
      <trkpt lat="47.50205" lon="6.73149">
        <ele>341</ele>
        <time>2015-10-11T07:54:31.000Z</time>
      </trkpt>
      <trkpt lat="47.50208" lon="6.73152">
        <ele>341</ele>
        <time>2015-10-11T07:54:32.000Z</time>
      </trkpt>
      <trkpt lat="47.50212" lon="6.73155">
        <ele>341</ele>
        <time>2015-10-11T07:54:33.000Z</time>
      </trkpt>
      <trkpt lat="47.50215" lon="6.73159">
        <ele>342</ele>
        <time>2015-10-11T07:54:34.000Z</time>
      </trkpt>
      <trkpt lat="47.50218" lon="6.73163">
        <ele>342</ele>
        <time>2015-10-11T07:54:35.000Z</time>
      </trkpt>
      <trkpt lat="47.50221" lon="6.73166">
        <ele>342</ele>
        <time>2015-10-11T07:54:36.000Z</time>
      </trkpt>
      <trkpt lat="47.50223" lon="6.7317">
        <ele>343</ele>
        <time>2015-10-11T07:54:37.000Z</time>
      </trkpt>
      <trkpt lat="47.50226" lon="6.73173">
        <ele>343</ele>
        <time>2015-10-11T07:54:38.000Z</time>
      </trkpt>
      <trkpt lat="47.50229" lon="6.73177">
        <ele>343</ele>
        <time>2015-10-11T07:54:39.000Z</time>
      </trkpt>
      <trkpt lat="47.50232" lon="6.7318">
        <ele>343</ele>
        <time>2015-10-11T07:54:40.000Z</time>
      </trkpt>
      <trkpt lat="47.50235" lon="6.73184">
        <ele>343</ele>
        <time>2015-10-11T07:54:41.000Z</time>
      </trkpt>
      <trkpt lat="47.50238" lon="6.73187">
        <ele>343</ele>
        <time>2015-10-11T07:54:42.000Z</time>
      </trkpt>
      <trkpt lat="47.50241" lon="6.7319">
        <ele>344</ele>
        <time>2015-10-11T07:54:43.000Z</time>
      </trkpt>
      <trkpt lat="47.50244" lon="6.73192">
        <ele>344</ele>
        <time>2015-10-11T07:54:44.000Z</time>
      </trkpt>
      <trkpt lat="47.50247" lon="6.73195">
        <ele>344</ele>
        <time>2015-10-11T07:54:45.000Z</time>
      </trkpt>
      <trkpt lat="47.50251" lon="6.73198">
        <ele>345</ele>
        <time>2015-10-11T07:54:46.000Z</time>
      </trkpt>
      <trkpt lat="47.50254" lon="6.732">
        <ele>345</ele>
        <time>2015-10-11T07:54:47.000Z</time>
      </trkpt>
      <trkpt lat="47.50258" lon="6.73203">
        <ele>346</ele>
        <time>2015-10-11T07:54:48.000Z</time>
      </trkpt>
      <trkpt lat="47.50261" lon="6.73205">
        <ele>346</ele>
        <time>2015-10-11T07:54:49.000Z</time>
      </trkpt>
      <trkpt lat="47.50265" lon="6.73208">
        <ele>346</ele>
        <time>2015-10-11T07:54:50.000Z</time>
      </trkpt>
      <trkpt lat="47.50269" lon="6.73212">
        <ele>346</ele>
        <time>2015-10-11T07:54:51.000Z</time>
      </trkpt>
      <trkpt lat="47.50272" lon="6.73216">
        <ele>346</ele>
        <time>2015-10-11T07:54:52.000Z</time>
      </trkpt>
      <trkpt lat="47.50276" lon="6.73219">
        <ele>346</ele>
        <time>2015-10-11T07:54:53.000Z</time>
      </trkpt>
      <trkpt lat="47.5028" lon="6.73223">
        <ele>346</ele>
        <time>2015-10-11T07:54:54.000Z</time>
      </trkpt>
      <trkpt lat="47.50283" lon="6.73227">
        <ele>347</ele>
        <time>2015-10-11T07:54:55.000Z</time>
      </trkpt>
      <trkpt lat="47.50287" lon="6.73231">
        <ele>347</ele>
        <time>2015-10-11T07:54:56.000Z</time>
      </trkpt>
      <trkpt lat="47.5029" lon="6.73234">
        <ele>347</ele>
        <time>2015-10-11T07:54:57.000Z</time>
      </trkpt>
      <trkpt lat="47.50294" lon="6.73237">
        <ele>347</ele>
        <time>2015-10-11T07:54:58.000Z</time>
      </trkpt>
      <trkpt lat="47.50297" lon="6.73241">
        <ele>347</ele>
        <time>2015-10-11T07:54:59.000Z</time>
      </trkpt>
      <trkpt lat="47.50301" lon="6.73244">
        <ele>347</ele>
        <time>2015-10-11T07:55:00.000Z</time>
      </trkpt>
      <trkpt lat="47.50305" lon="6.73247">
        <ele>347</ele>
        <time>2015-10-11T07:55:01.000Z</time>
      </trkpt>
      <trkpt lat="47.50311" lon="6.7325">
        <ele>347</ele>
        <time>2015-10-11T07:55:02.000Z</time>
      </trkpt>
      <trkpt lat="47.50314" lon="6.73253">
        <ele>351</ele>
        <time>2015-10-11T07:55:03.000Z</time>
      </trkpt>
      <trkpt lat="47.50317" lon="6.73255">
        <ele>350</ele>
        <time>2015-10-11T07:55:04.000Z</time>
      </trkpt>
      <trkpt lat="47.50321" lon="6.73258">
        <ele>350</ele>
        <time>2015-10-11T07:55:05.000Z</time>
      </trkpt>
      <trkpt lat="47.50324" lon="6.73261">
        <ele>350</ele>
        <time>2015-10-11T07:55:06.000Z</time>
      </trkpt>
      <trkpt lat="47.50327" lon="6.73264">
        <ele>350</ele>
        <time>2015-10-11T07:55:07.000Z</time>
      </trkpt>
      <trkpt lat="47.5033" lon="6.73266">
        <ele>350</ele>
        <time>2015-10-11T07:55:08.000Z</time>
      </trkpt>
      <trkpt lat="47.50333" lon="6.7327">
        <ele>351</ele>
        <time>2015-10-11T07:55:09.000Z</time>
      </trkpt>
      <trkpt lat="47.50336" lon="6.73273">
        <ele>352</ele>
        <time>2015-10-11T07:55:10.000Z</time>
      </trkpt>
      <trkpt lat="47.50339" lon="6.73277">
        <ele>352</ele>
        <time>2015-10-11T07:55:11.000Z</time>
      </trkpt>
      <trkpt lat="47.50342" lon="6.73278">
        <ele>352</ele>
        <time>2015-10-11T07:55:12.000Z</time>
      </trkpt>
      <trkpt lat="47.50344" lon="6.73279">
        <ele>353</ele>
        <time>2015-10-11T07:55:13.000Z</time>
      </trkpt>
      <trkpt lat="47.50347" lon="6.7328">
        <ele>353</ele>
        <time>2015-10-11T07:55:14.000Z</time>
      </trkpt>
      <trkpt lat="47.5035" lon="6.73282">
        <ele>353</ele>
        <time>2015-10-11T07:55:15.000Z</time>
      </trkpt>
      <trkpt lat="47.50352" lon="6.73284">
        <ele>353</ele>
        <time>2015-10-11T07:55:16.000Z</time>
      </trkpt>
      <trkpt lat="47.50354" lon="6.73286">
        <ele>353</ele>
        <time>2015-10-11T07:55:17.000Z</time>
      </trkpt>
      <trkpt lat="47.50357" lon="6.73288">
        <ele>354</ele>
        <time>2015-10-11T07:55:18.000Z</time>
      </trkpt>
      <trkpt lat="47.50359" lon="6.7329">
        <ele>354</ele>
        <time>2015-10-11T07:55:19.000Z</time>
      </trkpt>
      <trkpt lat="47.50362" lon="6.73292">
        <ele>354</ele>
        <time>2015-10-11T07:55:20.000Z</time>
      </trkpt>
      <trkpt lat="47.50364" lon="6.73294">
        <ele>354</ele>
        <time>2015-10-11T07:55:21.000Z</time>
      </trkpt>
      <trkpt lat="47.50367" lon="6.73297">
        <ele>354</ele>
        <time>2015-10-11T07:55:22.000Z</time>
      </trkpt>
      <trkpt lat="47.5037" lon="6.73299">
        <ele>354</ele>
        <time>2015-10-11T07:55:23.000Z</time>
      </trkpt>
      <trkpt lat="47.50372" lon="6.73301">
        <ele>354</ele>
        <time>2015-10-11T07:55:24.000Z</time>
      </trkpt>
      <trkpt lat="47.50375" lon="6.73302">
        <ele>354</ele>
        <time>2015-10-11T07:55:25.000Z</time>
      </trkpt>
      <trkpt lat="47.50377" lon="6.73303">
        <ele>355</ele>
        <time>2015-10-11T07:55:26.000Z</time>
      </trkpt>
      <trkpt lat="47.50381" lon="6.73301">
        <ele>354</ele>
        <time>2015-10-11T07:55:28.000Z</time>
      </trkpt>
      <trkpt lat="47.50383" lon="6.73299">
        <ele>354</ele>
        <time>2015-10-11T07:55:29.000Z</time>
      </trkpt>
      <trkpt lat="47.50385" lon="6.73299">
        <ele>354</ele>
        <time>2015-10-11T07:55:30.000Z</time>
      </trkpt>
      <trkpt lat="47.50388" lon="6.733">
        <ele>355</ele>
        <time>2015-10-11T07:55:31.000Z</time>
      </trkpt>
      <trkpt lat="47.50391" lon="6.73303">
        <ele>355</ele>
        <time>2015-10-11T07:55:32.000Z</time>
      </trkpt>
      <trkpt lat="47.50393" lon="6.73307">
        <ele>355</ele>
        <time>2015-10-11T07:55:33.000Z</time>
      </trkpt>
      <trkpt lat="47.50396" lon="6.7331">
        <ele>355</ele>
        <time>2015-10-11T07:55:34.000Z</time>
      </trkpt>
      <trkpt lat="47.50399" lon="6.73313">
        <ele>355</ele>
        <time>2015-10-11T07:55:35.000Z</time>
      </trkpt>
      <trkpt lat="47.50401" lon="6.73314">
        <ele>356</ele>
        <time>2015-10-11T07:55:36.000Z</time>
      </trkpt>
      <trkpt lat="47.50404" lon="6.73315">
        <ele>356</ele>
        <time>2015-10-11T07:55:37.000Z</time>
      </trkpt>
      <trkpt lat="47.50406" lon="6.73316">
        <ele>356</ele>
        <time>2015-10-11T07:55:38.000Z</time>
      </trkpt>
      <trkpt lat="47.50408" lon="6.73317">
        <ele>356</ele>
        <time>2015-10-11T07:55:39.000Z</time>
      </trkpt>
      <trkpt lat="47.50411" lon="6.73318">
        <ele>356</ele>
        <time>2015-10-11T07:55:40.000Z</time>
      </trkpt>
      <trkpt lat="47.50413" lon="6.73319">
        <ele>356</ele>
        <time>2015-10-11T07:55:41.000Z</time>
      </trkpt>
      <trkpt lat="47.50416" lon="6.7332">
        <ele>356</ele>
        <time>2015-10-11T07:55:42.000Z</time>
      </trkpt>
      <trkpt lat="47.50419" lon="6.7332">
        <ele>358</ele>
        <time>2015-10-11T07:55:43.000Z</time>
      </trkpt>
      <trkpt lat="47.50422" lon="6.73321">
        <ele>358</ele>
        <time>2015-10-11T07:55:44.000Z</time>
      </trkpt>
      <trkpt lat="47.50425" lon="6.73322">
        <ele>358</ele>
        <time>2015-10-11T07:55:45.000Z</time>
      </trkpt>
      <trkpt lat="47.50428" lon="6.73323">
        <ele>358</ele>
        <time>2015-10-11T07:55:46.000Z</time>
      </trkpt>
      <trkpt lat="47.5043" lon="6.73324">
        <ele>358</ele>
        <time>2015-10-11T07:55:47.000Z</time>
      </trkpt>
      <trkpt lat="47.50432" lon="6.73326">
        <ele>358</ele>
        <time>2015-10-11T07:55:48.000Z</time>
      </trkpt>
      <trkpt lat="47.50435" lon="6.73327">
        <ele>358</ele>
        <time>2015-10-11T07:55:49.000Z</time>
      </trkpt>
      <trkpt lat="47.50437" lon="6.73328">
        <ele>358</ele>
        <time>2015-10-11T07:55:50.000Z</time>
      </trkpt>
      <trkpt lat="47.50439" lon="6.7333">
        <ele>359</ele>
        <time>2015-10-11T07:55:51.000Z</time>
      </trkpt>
      <trkpt lat="47.50442" lon="6.73332">
        <ele>359</ele>
        <time>2015-10-11T07:55:52.000Z</time>
      </trkpt>
      <trkpt lat="47.50444" lon="6.73334">
        <ele>361</ele>
        <time>2015-10-11T07:55:53.000Z</time>
      </trkpt>
      <trkpt lat="47.50447" lon="6.73336">
        <ele>361</ele>
        <time>2015-10-11T07:55:54.000Z</time>
      </trkpt>
      <trkpt lat="47.50449" lon="6.73338">
        <ele>361</ele>
        <time>2015-10-11T07:55:55.000Z</time>
      </trkpt>
      <trkpt lat="47.50452" lon="6.73339">
        <ele>361</ele>
        <time>2015-10-11T07:55:56.000Z</time>
      </trkpt>
      <trkpt lat="47.50454" lon="6.73341">
        <ele>361</ele>
        <time>2015-10-11T07:55:57.000Z</time>
      </trkpt>
      <trkpt lat="47.50457" lon="6.73342">
        <ele>361</ele>
        <time>2015-10-11T07:55:58.000Z</time>
      </trkpt>
      <trkpt lat="47.50459" lon="6.73345">
        <ele>362</ele>
        <time>2015-10-11T07:55:59.000Z</time>
      </trkpt>
      <trkpt lat="47.50461" lon="6.73346">
        <ele>362</ele>
        <time>2015-10-11T07:56:00.000Z</time>
      </trkpt>
      <trkpt lat="47.50464" lon="6.73349">
        <ele>362</ele>
        <time>2015-10-11T07:56:01.000Z</time>
      </trkpt>
      <trkpt lat="47.50466" lon="6.73351">
        <ele>362</ele>
        <time>2015-10-11T07:56:02.000Z</time>
      </trkpt>
      <trkpt lat="47.50468" lon="6.73353">
        <ele>362</ele>
        <time>2015-10-11T07:56:03.000Z</time>
      </trkpt>
      <trkpt lat="47.5047" lon="6.73355">
        <ele>362</ele>
        <time>2015-10-11T07:56:04.000Z</time>
      </trkpt>
      <trkpt lat="47.50472" lon="6.73357">
        <ele>362</ele>
        <time>2015-10-11T07:56:05.000Z</time>
      </trkpt>
      <trkpt lat="47.50474" lon="6.73359">
        <ele>362</ele>
        <time>2015-10-11T07:56:06.000Z</time>
      </trkpt>
      <trkpt lat="47.50475" lon="6.73361">
        <ele>362</ele>
        <time>2015-10-11T07:56:07.000Z</time>
      </trkpt>
      <trkpt lat="47.50477" lon="6.73363">
        <ele>362</ele>
        <time>2015-10-11T07:56:08.000Z</time>
      </trkpt>
      <trkpt lat="47.50479" lon="6.73365">
        <ele>362</ele>
        <time>2015-10-11T07:56:09.000Z</time>
      </trkpt>
      <trkpt lat="47.50481" lon="6.73368">
        <ele>362</ele>
        <time>2015-10-11T07:56:10.000Z</time>
      </trkpt>
      <trkpt lat="47.50482" lon="6.7337">
        <ele>362</ele>
        <time>2015-10-11T07:56:11.000Z</time>
      </trkpt>
      <trkpt lat="47.50484" lon="6.73373">
        <ele>363</ele>
        <time>2015-10-11T07:56:12.000Z</time>
      </trkpt>
      <trkpt lat="47.50486" lon="6.73376">
        <ele>363</ele>
        <time>2015-10-11T07:56:13.000Z</time>
      </trkpt>
      <trkpt lat="47.50487" lon="6.73378">
        <ele>363</ele>
        <time>2015-10-11T07:56:14.000Z</time>
      </trkpt>
      <trkpt lat="47.50489" lon="6.73381">
        <ele>363</ele>
        <time>2015-10-11T07:56:15.000Z</time>
      </trkpt>
      <trkpt lat="47.5049" lon="6.73385">
        <ele>363</ele>
        <time>2015-10-11T07:56:16.000Z</time>
      </trkpt>
      <trkpt lat="47.50492" lon="6.73388">
        <ele>363</ele>
        <time>2015-10-11T07:56:17.000Z</time>
      </trkpt>
      <trkpt lat="47.50493" lon="6.7339">
        <ele>363</ele>
        <time>2015-10-11T07:56:18.000Z</time>
      </trkpt>
      <trkpt lat="47.50495" lon="6.73393">
        <ele>363</ele>
        <time>2015-10-11T07:56:19.000Z</time>
      </trkpt>
      <trkpt lat="47.50497" lon="6.73394">
        <ele>363</ele>
        <time>2015-10-11T07:56:20.000Z</time>
      </trkpt>
      <trkpt lat="47.50499" lon="6.73396">
        <ele>364</ele>
        <time>2015-10-11T07:56:21.000Z</time>
      </trkpt>
      <trkpt lat="47.50501" lon="6.73398">
        <ele>367</ele>
        <time>2015-10-11T07:56:22.000Z</time>
      </trkpt>
      <trkpt lat="47.50503" lon="6.734">
        <ele>367</ele>
        <time>2015-10-11T07:56:23.000Z</time>
      </trkpt>
      <trkpt lat="47.50504" lon="6.73401">
        <ele>367</ele>
        <time>2015-10-11T07:56:24.000Z</time>
      </trkpt>
      <trkpt lat="47.50506" lon="6.73403">
        <ele>367</ele>
        <time>2015-10-11T07:56:25.000Z</time>
      </trkpt>
      <trkpt lat="47.50509" lon="6.73405">
        <ele>367</ele>
        <time>2015-10-11T07:56:26.000Z</time>
      </trkpt>
      <trkpt lat="47.50511" lon="6.73407">
        <ele>367</ele>
        <time>2015-10-11T07:56:27.000Z</time>
      </trkpt>
      <trkpt lat="47.50513" lon="6.73409">
        <ele>367</ele>
        <time>2015-10-11T07:56:28.000Z</time>
      </trkpt>
      <trkpt lat="47.50515" lon="6.73411">
        <ele>368</ele>
        <time>2015-10-11T07:56:29.000Z</time>
      </trkpt>
      <trkpt lat="47.50518" lon="6.73412">
        <ele>368</ele>
        <time>2015-10-11T07:56:30.000Z</time>
      </trkpt>
      <trkpt lat="47.50521" lon="6.73414">
        <ele>368</ele>
        <time>2015-10-11T07:56:31.000Z</time>
      </trkpt>
      <trkpt lat="47.50523" lon="6.73416">
        <ele>369</ele>
        <time>2015-10-11T07:56:32.000Z</time>
      </trkpt>
      <trkpt lat="47.50526" lon="6.73418">
        <ele>372</ele>
        <time>2015-10-11T07:56:33.000Z</time>
      </trkpt>
      <trkpt lat="47.50529" lon="6.7342">
        <ele>372</ele>
        <time>2015-10-11T07:56:34.000Z</time>
      </trkpt>
      <trkpt lat="47.50531" lon="6.73422">
        <ele>372</ele>
        <time>2015-10-11T07:56:35.000Z</time>
      </trkpt>
      <trkpt lat="47.50534" lon="6.73424">
        <ele>373</ele>
        <time>2015-10-11T07:56:36.000Z</time>
      </trkpt>
      <trkpt lat="47.50536" lon="6.73427">
        <ele>373</ele>
        <time>2015-10-11T07:56:37.000Z</time>
      </trkpt>
      <trkpt lat="47.50539" lon="6.73429">
        <ele>373</ele>
        <time>2015-10-11T07:56:38.000Z</time>
      </trkpt>
      <trkpt lat="47.50541" lon="6.73431">
        <ele>374</ele>
        <time>2015-10-11T07:56:39.000Z</time>
      </trkpt>
      <trkpt lat="47.50544" lon="6.73433">
        <ele>374</ele>
        <time>2015-10-11T07:56:40.000Z</time>
      </trkpt>
      <trkpt lat="47.50545" lon="6.73435">
        <ele>374</ele>
        <time>2015-10-11T07:56:41.000Z</time>
      </trkpt>
      <trkpt lat="47.50548" lon="6.73439">
        <ele>374</ele>
        <time>2015-10-11T07:56:43.000Z</time>
      </trkpt>
      <trkpt lat="47.50548" lon="6.73441">
        <ele>375</ele>
        <time>2015-10-11T07:56:44.000Z</time>
      </trkpt>
      <trkpt lat="47.50551" lon="6.73444">
        <ele>375</ele>
        <time>2015-10-11T07:56:46.000Z</time>
      </trkpt>
      <trkpt lat="47.50553" lon="6.73446">
        <ele>375</ele>
        <time>2015-10-11T07:56:47.000Z</time>
      </trkpt>
      <trkpt lat="47.50555" lon="6.73448">
        <ele>375</ele>
        <time>2015-10-11T07:56:48.000Z</time>
      </trkpt>
      <trkpt lat="47.50557" lon="6.7345">
        <ele>375</ele>
        <time>2015-10-11T07:56:49.000Z</time>
      </trkpt>
      <trkpt lat="47.50559" lon="6.73452">
        <ele>375</ele>
        <time>2015-10-11T07:56:50.000Z</time>
      </trkpt>
      <trkpt lat="47.5056" lon="6.73454">
        <ele>375</ele>
        <time>2015-10-11T07:56:51.000Z</time>
      </trkpt>
      <trkpt lat="47.50562" lon="6.73457">
        <ele>375</ele>
        <time>2015-10-11T07:56:52.000Z</time>
      </trkpt>
      <trkpt lat="47.50563" lon="6.7346">
        <ele>375</ele>
        <time>2015-10-11T07:56:53.000Z</time>
      </trkpt>
      <trkpt lat="47.50564" lon="6.73463">
        <ele>375</ele>
        <time>2015-10-11T07:56:54.000Z</time>
      </trkpt>
      <trkpt lat="47.50566" lon="6.73467">
        <ele>375</ele>
        <time>2015-10-11T07:56:55.000Z</time>
      </trkpt>
      <trkpt lat="47.50568" lon="6.7347">
        <ele>375</ele>
        <time>2015-10-11T07:56:56.000Z</time>
      </trkpt>
      <trkpt lat="47.5057" lon="6.73474">
        <ele>376</ele>
        <time>2015-10-11T07:56:57.000Z</time>
      </trkpt>
      <trkpt lat="47.50572" lon="6.73477">
        <ele>376</ele>
        <time>2015-10-11T07:56:58.000Z</time>
      </trkpt>
      <trkpt lat="47.50574" lon="6.7348">
        <ele>376</ele>
        <time>2015-10-11T07:56:59.000Z</time>
      </trkpt>
      <trkpt lat="47.50575" lon="6.73483">
        <ele>376</ele>
        <time>2015-10-11T07:57:00.000Z</time>
      </trkpt>
      <trkpt lat="47.50577" lon="6.73485">
        <ele>376</ele>
        <time>2015-10-11T07:57:01.000Z</time>
      </trkpt>
      <trkpt lat="47.50578" lon="6.73488">
        <ele>376</ele>
        <time>2015-10-11T07:57:02.000Z</time>
      </trkpt>
      <trkpt lat="47.5058" lon="6.7349">
        <ele>376</ele>
        <time>2015-10-11T07:57:03.000Z</time>
      </trkpt>
      <trkpt lat="47.50582" lon="6.73492">
        <ele>376</ele>
        <time>2015-10-11T07:57:04.000Z</time>
      </trkpt>
      <trkpt lat="47.50584" lon="6.73495">
        <ele>377</ele>
        <time>2015-10-11T07:57:05.000Z</time>
      </trkpt>
      <trkpt lat="47.50585" lon="6.73498">
        <ele>377</ele>
        <time>2015-10-11T07:57:06.000Z</time>
      </trkpt>
      <trkpt lat="47.50587" lon="6.73501">
        <ele>376</ele>
        <time>2015-10-11T07:57:07.000Z</time>
      </trkpt>
      <trkpt lat="47.50588" lon="6.73504">
        <ele>377</ele>
        <time>2015-10-11T07:57:08.000Z</time>
      </trkpt>
      <trkpt lat="47.5059" lon="6.73507">
        <ele>377</ele>
        <time>2015-10-11T07:57:09.000Z</time>
      </trkpt>
      <trkpt lat="47.50593" lon="6.7351">
        <ele>378</ele>
        <time>2015-10-11T07:57:10.000Z</time>
      </trkpt>
      <trkpt lat="47.50595" lon="6.73513">
        <ele>378</ele>
        <time>2015-10-11T07:57:11.000Z</time>
      </trkpt>
      <trkpt lat="47.50597" lon="6.73516">
        <ele>378</ele>
        <time>2015-10-11T07:57:12.000Z</time>
      </trkpt>
      <trkpt lat="47.50599" lon="6.73519">
        <ele>378</ele>
        <time>2015-10-11T07:57:13.000Z</time>
      </trkpt>
      <trkpt lat="47.50601" lon="6.7352">
        <ele>378</ele>
        <time>2015-10-11T07:57:14.000Z</time>
      </trkpt>
      <trkpt lat="47.50603" lon="6.73523">
        <ele>378</ele>
        <time>2015-10-11T07:57:15.000Z</time>
      </trkpt>
      <trkpt lat="47.50605" lon="6.73525">
        <ele>379</ele>
        <time>2015-10-11T07:57:16.000Z</time>
      </trkpt>
      <trkpt lat="47.50607" lon="6.73527">
        <ele>379</ele>
        <time>2015-10-11T07:57:17.000Z</time>
      </trkpt>
      <trkpt lat="47.50608" lon="6.7353">
        <ele>379</ele>
        <time>2015-10-11T07:57:18.000Z</time>
      </trkpt>
      <trkpt lat="47.5061" lon="6.73533">
        <ele>379</ele>
        <time>2015-10-11T07:57:19.000Z</time>
      </trkpt>
      <trkpt lat="47.50611" lon="6.73536">
        <ele>379</ele>
        <time>2015-10-11T07:57:20.000Z</time>
      </trkpt>
      <trkpt lat="47.50613" lon="6.7354">
        <ele>379</ele>
        <time>2015-10-11T07:57:21.000Z</time>
      </trkpt>
      <trkpt lat="47.50615" lon="6.73543">
        <ele>379</ele>
        <time>2015-10-11T07:57:22.000Z</time>
      </trkpt>
      <trkpt lat="47.50616" lon="6.73547">
        <ele>379</ele>
        <time>2015-10-11T07:57:23.000Z</time>
      </trkpt>
      <trkpt lat="47.50618" lon="6.7355">
        <ele>379</ele>
        <time>2015-10-11T07:57:24.000Z</time>
      </trkpt>
      <trkpt lat="47.5062" lon="6.73554">
        <ele>379</ele>
        <time>2015-10-11T07:57:25.000Z</time>
      </trkpt>
      <trkpt lat="47.50622" lon="6.73558">
        <ele>378</ele>
        <time>2015-10-11T07:57:26.000Z</time>
      </trkpt>
      <trkpt lat="47.50624" lon="6.73563">
        <ele>378</ele>
        <time>2015-10-11T07:57:27.000Z</time>
      </trkpt>
      <trkpt lat="47.50627" lon="6.73568">
        <ele>378</ele>
        <time>2015-10-11T07:57:28.000Z</time>
      </trkpt>
      <trkpt lat="47.5063" lon="6.73574">
        <ele>378</ele>
        <time>2015-10-11T07:57:29.000Z</time>
      </trkpt>
      <trkpt lat="47.50633" lon="6.73579">
        <ele>377</ele>
        <time>2015-10-11T07:57:30.000Z</time>
      </trkpt>
      <trkpt lat="47.50637" lon="6.73585">
        <ele>374</ele>
        <time>2015-10-11T07:57:31.000Z</time>
      </trkpt>
      <trkpt lat="47.50648" lon="6.73593">
        <ele>373</ele>
        <time>2015-10-11T07:57:32.000Z</time>
      </trkpt>
      <trkpt lat="47.50655" lon="6.73593">
        <ele>372</ele>
        <time>2015-10-11T07:57:33.000Z</time>
      </trkpt>
      <trkpt lat="47.5066" lon="6.73592">
        <ele>372</ele>
        <time>2015-10-11T07:57:34.000Z</time>
      </trkpt>
      <trkpt lat="47.50664" lon="6.7359">
        <ele>372</ele>
        <time>2015-10-11T07:57:35.000Z</time>
      </trkpt>
      <trkpt lat="47.50672" lon="6.73587">
        <ele>369</ele>
        <time>2015-10-11T07:57:36.000Z</time>
      </trkpt>
      <trkpt lat="47.50677" lon="6.73583">
        <ele>371</ele>
        <time>2015-10-11T07:57:37.000Z</time>
      </trkpt>
      <trkpt lat="47.50682" lon="6.7358">
        <ele>371</ele>
        <time>2015-10-11T07:57:38.000Z</time>
      </trkpt>
      <trkpt lat="47.50686" lon="6.73577">
        <ele>371</ele>
        <time>2015-10-11T07:57:39.000Z</time>
      </trkpt>
      <trkpt lat="47.50691" lon="6.73573">
        <ele>371</ele>
        <time>2015-10-11T07:57:40.000Z</time>
      </trkpt>
      <trkpt lat="47.50696" lon="6.7357">
        <ele>371</ele>
        <time>2015-10-11T07:57:41.000Z</time>
      </trkpt>
      <trkpt lat="47.50701" lon="6.73567">
        <ele>371</ele>
        <time>2015-10-11T07:57:42.000Z</time>
      </trkpt>
      <trkpt lat="47.50706" lon="6.73563">
        <ele>371</ele>
        <time>2015-10-11T07:57:43.000Z</time>
      </trkpt>
      <trkpt lat="47.5071" lon="6.7356">
        <ele>371</ele>
        <time>2015-10-11T07:57:44.000Z</time>
      </trkpt>
      <trkpt lat="47.50715" lon="6.73557">
        <ele>370</ele>
        <time>2015-10-11T07:57:45.000Z</time>
      </trkpt>
      <trkpt lat="47.5072" lon="6.73554">
        <ele>370</ele>
        <time>2015-10-11T07:57:46.000Z</time>
      </trkpt>
      <trkpt lat="47.50725" lon="6.73552">
        <ele>370</ele>
        <time>2015-10-11T07:57:47.000Z</time>
      </trkpt>
      <trkpt lat="47.5073" lon="6.73549">
        <ele>370</ele>
        <time>2015-10-11T07:57:48.000Z</time>
      </trkpt>
      <trkpt lat="47.50735" lon="6.73547">
        <ele>370</ele>
        <time>2015-10-11T07:57:49.000Z</time>
      </trkpt>
      <trkpt lat="47.5074" lon="6.73544">
        <ele>370</ele>
        <time>2015-10-11T07:57:50.000Z</time>
      </trkpt>
      <trkpt lat="47.50744" lon="6.73541">
        <ele>370</ele>
        <time>2015-10-11T07:57:51.000Z</time>
      </trkpt>
      <trkpt lat="47.50749" lon="6.73538">
        <ele>370</ele>
        <time>2015-10-11T07:57:52.000Z</time>
      </trkpt>
      <trkpt lat="47.50754" lon="6.73536">
        <ele>365</ele>
        <time>2015-10-11T07:57:53.000Z</time>
      </trkpt>
      <trkpt lat="47.50759" lon="6.73533">
        <ele>365</ele>
        <time>2015-10-11T07:57:54.000Z</time>
      </trkpt>
      <trkpt lat="47.50764" lon="6.73531">
        <ele>365</ele>
        <time>2015-10-11T07:57:55.000Z</time>
      </trkpt>
      <trkpt lat="47.50769" lon="6.73529">
        <ele>365</ele>
        <time>2015-10-11T07:57:56.000Z</time>
      </trkpt>
      <trkpt lat="47.50774" lon="6.73527">
        <ele>365</ele>
        <time>2015-10-11T07:57:57.000Z</time>
      </trkpt>
      <trkpt lat="47.50779" lon="6.73525">
        <ele>365</ele>
        <time>2015-10-11T07:57:58.000Z</time>
      </trkpt>
      <trkpt lat="47.50784" lon="6.73523">
        <ele>365</ele>
        <time>2015-10-11T07:57:59.000Z</time>
      </trkpt>
      <trkpt lat="47.50789" lon="6.73524">
        <ele>365</ele>
        <time>2015-10-11T07:58:00.000Z</time>
      </trkpt>
      <trkpt lat="47.50794" lon="6.73523">
        <ele>365</ele>
        <time>2015-10-11T07:58:01.000Z</time>
      </trkpt>
      <trkpt lat="47.50799" lon="6.73521">
        <ele>364</ele>
        <time>2015-10-11T07:58:02.000Z</time>
      </trkpt>
      <trkpt lat="47.50803" lon="6.7352">
        <ele>364</ele>
        <time>2015-10-11T07:58:03.000Z</time>
      </trkpt>
      <trkpt lat="47.50815" lon="6.73522">
        <ele>364</ele>
        <time>2015-10-11T07:58:05.000Z</time>
      </trkpt>
      <trkpt lat="47.5082" lon="6.73522">
        <ele>364</ele>
        <time>2015-10-11T07:58:06.000Z</time>
      </trkpt>
      <trkpt lat="47.50825" lon="6.73523">
        <ele>364</ele>
        <time>2015-10-11T07:58:07.000Z</time>
      </trkpt>
      <trkpt lat="47.50829" lon="6.73524">
        <ele>364</ele>
        <time>2015-10-11T07:58:08.000Z</time>
      </trkpt>
      <trkpt lat="47.50834" lon="6.73526">
        <ele>363</ele>
        <time>2015-10-11T07:58:09.000Z</time>
      </trkpt>
      <trkpt lat="47.50838" lon="6.73528">
        <ele>362</ele>
        <time>2015-10-11T07:58:10.000Z</time>
      </trkpt>
      <trkpt lat="47.50843" lon="6.73531">
        <ele>362</ele>
        <time>2015-10-11T07:58:11.000Z</time>
      </trkpt>
      <trkpt lat="47.50847" lon="6.73535">
        <ele>362</ele>
        <time>2015-10-11T07:58:12.000Z</time>
      </trkpt>
      <trkpt lat="47.50852" lon="6.73538">
        <ele>362</ele>
        <time>2015-10-11T07:58:13.000Z</time>
      </trkpt>
      <trkpt lat="47.50855" lon="6.73542">
        <ele>361</ele>
        <time>2015-10-11T07:58:14.000Z</time>
      </trkpt>
      <trkpt lat="47.5086" lon="6.73546">
        <ele>361</ele>
        <time>2015-10-11T07:58:15.000Z</time>
      </trkpt>
      <trkpt lat="47.50863" lon="6.7355">
        <ele>361</ele>
        <time>2015-10-11T07:58:16.000Z</time>
      </trkpt>
      <trkpt lat="47.50866" lon="6.73553">
        <ele>361</ele>
        <time>2015-10-11T07:58:17.000Z</time>
      </trkpt>
      <trkpt lat="47.50869" lon="6.73557">
        <ele>361</ele>
        <time>2015-10-11T07:58:18.000Z</time>
      </trkpt>
      <trkpt lat="47.50873" lon="6.73563">
        <ele>360</ele>
        <time>2015-10-11T07:58:19.000Z</time>
      </trkpt>
      <trkpt lat="47.50876" lon="6.7357">
        <ele>360</ele>
        <time>2015-10-11T07:58:20.000Z</time>
      </trkpt>
      <trkpt lat="47.50879" lon="6.73575">
        <ele>360</ele>
        <time>2015-10-11T07:58:21.000Z</time>
      </trkpt>
      <trkpt lat="47.50883" lon="6.73582">
        <ele>360</ele>
        <time>2015-10-11T07:58:22.000Z</time>
      </trkpt>
      <trkpt lat="47.50885" lon="6.73588">
        <ele>357</ele>
        <time>2015-10-11T07:58:23.000Z</time>
      </trkpt>
      <trkpt lat="47.50889" lon="6.73593">
        <ele>357</ele>
        <time>2015-10-11T07:58:24.000Z</time>
      </trkpt>
      <trkpt lat="47.50892" lon="6.73599">
        <ele>357</ele>
        <time>2015-10-11T07:58:25.000Z</time>
      </trkpt>
      <trkpt lat="47.50895" lon="6.73603">
        <ele>357</ele>
        <time>2015-10-11T07:58:26.000Z</time>
      </trkpt>
      <trkpt lat="47.50897" lon="6.73607">
        <ele>357</ele>
        <time>2015-10-11T07:58:27.000Z</time>
      </trkpt>
      <trkpt lat="47.509" lon="6.7361">
        <ele>357</ele>
        <time>2015-10-11T07:58:28.000Z</time>
      </trkpt>
      <trkpt lat="47.50902" lon="6.73613">
        <ele>357</ele>
        <time>2015-10-11T07:58:29.000Z</time>
      </trkpt>
      <trkpt lat="47.50905" lon="6.73616">
        <ele>357</ele>
        <time>2015-10-11T07:58:30.000Z</time>
      </trkpt>
      <trkpt lat="47.50909" lon="6.73618">
        <ele>357</ele>
        <time>2015-10-11T07:58:31.000Z</time>
      </trkpt>
      <trkpt lat="47.50913" lon="6.7362">
        <ele>357</ele>
        <time>2015-10-11T07:58:32.000Z</time>
      </trkpt>
      <trkpt lat="47.50917" lon="6.73621">
        <ele>357</ele>
        <time>2015-10-11T07:58:33.000Z</time>
      </trkpt>
      <trkpt lat="47.50921" lon="6.73622">
        <ele>357</ele>
        <time>2015-10-11T07:58:34.000Z</time>
      </trkpt>
      <trkpt lat="47.50925" lon="6.73623">
        <ele>357</ele>
        <time>2015-10-11T07:58:35.000Z</time>
      </trkpt>
      <trkpt lat="47.50928" lon="6.73623">
        <ele>357</ele>
        <time>2015-10-11T07:58:36.000Z</time>
      </trkpt>
      <trkpt lat="47.50933" lon="6.73622">
        <ele>357</ele>
        <time>2015-10-11T07:58:37.000Z</time>
      </trkpt>
      <trkpt lat="47.50938" lon="6.73624">
        <ele>357</ele>
        <time>2015-10-11T07:58:38.000Z</time>
      </trkpt>
      <trkpt lat="47.50943" lon="6.73624">
        <ele>357</ele>
        <time>2015-10-11T07:58:39.000Z</time>
      </trkpt>
      <trkpt lat="47.50948" lon="6.73627">
        <ele>357</ele>
        <time>2015-10-11T07:58:40.000Z</time>
      </trkpt>
      <trkpt lat="47.50954" lon="6.73631">
        <ele>357</ele>
        <time>2015-10-11T07:58:41.000Z</time>
      </trkpt>
      <trkpt lat="47.50958" lon="6.73637">
        <ele>358</ele>
        <time>2015-10-11T07:58:42.000Z</time>
      </trkpt>
      <trkpt lat="47.50962" lon="6.73639">
        <ele>358</ele>
        <time>2015-10-11T07:58:43.000Z</time>
      </trkpt>
      <trkpt lat="47.50967" lon="6.73643">
        <ele>358</ele>
        <time>2015-10-11T07:58:44.000Z</time>
      </trkpt>
      <trkpt lat="47.5097" lon="6.73643">
        <ele>358</ele>
        <time>2015-10-11T07:58:45.000Z</time>
      </trkpt>
      <trkpt lat="47.50973" lon="6.73646">
        <ele>358</ele>
        <time>2015-10-11T07:58:46.000Z</time>
      </trkpt>
      <trkpt lat="47.50976" lon="6.73646">
        <ele>358</ele>
        <time>2015-10-11T07:58:47.000Z</time>
      </trkpt>
      <trkpt lat="47.5098" lon="6.73646">
        <ele>358</ele>
        <time>2015-10-11T07:58:48.000Z</time>
      </trkpt>
      <trkpt lat="47.50983" lon="6.73646">
        <ele>359</ele>
        <time>2015-10-11T07:58:49.000Z</time>
      </trkpt>
      <trkpt lat="47.50985" lon="6.7365">
        <ele>359</ele>
        <time>2015-10-11T07:58:50.000Z</time>
      </trkpt>
      <trkpt lat="47.50988" lon="6.73652">
        <ele>359</ele>
        <time>2015-10-11T07:58:51.000Z</time>
      </trkpt>
      <trkpt lat="47.50991" lon="6.73653">
        <ele>359</ele>
        <time>2015-10-11T07:58:52.000Z</time>
      </trkpt>
      <trkpt lat="47.50994" lon="6.73654">
        <ele>359</ele>
        <time>2015-10-11T07:58:53.000Z</time>
      </trkpt>
      <trkpt lat="47.50997" lon="6.73655">
        <ele>360</ele>
        <time>2015-10-11T07:58:54.000Z</time>
      </trkpt>
      <trkpt lat="47.50999" lon="6.73655">
        <ele>360</ele>
        <time>2015-10-11T07:58:55.000Z</time>
      </trkpt>
      <trkpt lat="47.51002" lon="6.73655">
        <ele>363</ele>
        <time>2015-10-11T07:58:56.000Z</time>
      </trkpt>
      <trkpt lat="47.51005" lon="6.73656">
        <ele>363</ele>
        <time>2015-10-11T07:58:57.000Z</time>
      </trkpt>
      <trkpt lat="47.51008" lon="6.73655">
        <ele>363</ele>
        <time>2015-10-11T07:58:58.000Z</time>
      </trkpt>
      <trkpt lat="47.51012" lon="6.73656">
        <ele>363</ele>
        <time>2015-10-11T07:59:00.000Z</time>
      </trkpt>
      <trkpt lat="47.51014" lon="6.73657">
        <ele>363</ele>
        <time>2015-10-11T07:59:01.000Z</time>
      </trkpt>
      <trkpt lat="47.51016" lon="6.73659">
        <ele>364</ele>
        <time>2015-10-11T07:59:02.000Z</time>
      </trkpt>
      <trkpt lat="47.51018" lon="6.73661">
        <ele>364</ele>
        <time>2015-10-11T07:59:03.000Z</time>
      </trkpt>
      <trkpt lat="47.5102" lon="6.73663">
        <ele>364</ele>
        <time>2015-10-11T07:59:04.000Z</time>
      </trkpt>
      <trkpt lat="47.51022" lon="6.73665">
        <ele>364</ele>
        <time>2015-10-11T07:59:05.000Z</time>
      </trkpt>
      <trkpt lat="47.51026" lon="6.73668">
        <ele>368</ele>
        <time>2015-10-11T07:59:07.000Z</time>
      </trkpt>
      <trkpt lat="47.51028" lon="6.73669">
        <ele>368</ele>
        <time>2015-10-11T07:59:08.000Z</time>
      </trkpt>
      <trkpt lat="47.5103" lon="6.7367">
        <ele>369</ele>
        <time>2015-10-11T07:59:09.000Z</time>
      </trkpt>
      <trkpt lat="47.51033" lon="6.73672">
        <ele>369</ele>
        <time>2015-10-11T07:59:10.000Z</time>
      </trkpt>
      <trkpt lat="47.51035" lon="6.73673">
        <ele>369</ele>
        <time>2015-10-11T07:59:11.000Z</time>
      </trkpt>
      <trkpt lat="47.51037" lon="6.73674">
        <ele>370</ele>
        <time>2015-10-11T07:59:12.000Z</time>
      </trkpt>
      <trkpt lat="47.51041" lon="6.73676">
        <ele>370</ele>
        <time>2015-10-11T07:59:14.000Z</time>
      </trkpt>
      <trkpt lat="47.51043" lon="6.73676">
        <ele>370</ele>
        <time>2015-10-11T07:59:15.000Z</time>
      </trkpt>
      <trkpt lat="47.51046" lon="6.73674">
        <ele>371</ele>
        <time>2015-10-11T07:59:18.000Z</time>
      </trkpt>
      <trkpt lat="47.51047" lon="6.73673">
        <ele>371</ele>
        <time>2015-10-11T07:59:19.000Z</time>
      </trkpt>
      <trkpt lat="47.5105" lon="6.73671">
        <ele>371</ele>
        <time>2015-10-11T07:59:21.000Z</time>
      </trkpt>
      <trkpt lat="47.51051" lon="6.7367">
        <ele>371</ele>
        <time>2015-10-11T07:59:22.000Z</time>
      </trkpt>
      <trkpt lat="47.51055" lon="6.7367">
        <ele>372</ele>
        <time>2015-10-11T07:59:24.000Z</time>
      </trkpt>
      <trkpt lat="47.51056" lon="6.7367">
        <ele>372</ele>
        <time>2015-10-11T07:59:25.000Z</time>
      </trkpt>
      <trkpt lat="47.5106" lon="6.7367">
        <ele>372</ele>
        <time>2015-10-11T07:59:27.000Z</time>
      </trkpt>
      <trkpt lat="47.51062" lon="6.7367">
        <ele>372</ele>
        <time>2015-10-11T07:59:28.000Z</time>
      </trkpt>
      <trkpt lat="47.51066" lon="6.7367">
        <ele>373</ele>
        <time>2015-10-11T07:59:30.000Z</time>
      </trkpt>
      <trkpt lat="47.51068" lon="6.73671">
        <ele>373</ele>
        <time>2015-10-11T07:59:31.000Z</time>
      </trkpt>
      <trkpt lat="47.51071" lon="6.73672">
        <ele>373</ele>
        <time>2015-10-11T07:59:32.000Z</time>
      </trkpt>
      <trkpt lat="47.51073" lon="6.73673">
        <ele>373</ele>
        <time>2015-10-11T07:59:33.000Z</time>
      </trkpt>
      <trkpt lat="47.51076" lon="6.73674">
        <ele>373</ele>
        <time>2015-10-11T07:59:34.000Z</time>
      </trkpt>
      <trkpt lat="47.51078" lon="6.73674">
        <ele>373</ele>
        <time>2015-10-11T07:59:35.000Z</time>
      </trkpt>
      <trkpt lat="47.51082" lon="6.73676">
        <ele>373</ele>
        <time>2015-10-11T07:59:37.000Z</time>
      </trkpt>
      <trkpt lat="47.51084" lon="6.73677">
        <ele>377</ele>
        <time>2015-10-11T07:59:38.000Z</time>
      </trkpt>
      <trkpt lat="47.51088" lon="6.73679">
        <ele>378</ele>
        <time>2015-10-11T07:59:40.000Z</time>
      </trkpt>
      <trkpt lat="47.5109" lon="6.73681">
        <ele>379</ele>
        <time>2015-10-11T07:59:41.000Z</time>
      </trkpt>
      <trkpt lat="47.51092" lon="6.73682">
        <ele>379</ele>
        <time>2015-10-11T07:59:42.000Z</time>
      </trkpt>
      <trkpt lat="47.51094" lon="6.73684">
        <ele>380</ele>
        <time>2015-10-11T07:59:43.000Z</time>
      </trkpt>
      <trkpt lat="47.51096" lon="6.73686">
        <ele>380</ele>
        <time>2015-10-11T07:59:44.000Z</time>
      </trkpt>
      <trkpt lat="47.51098" lon="6.73688">
        <ele>380</ele>
        <time>2015-10-11T07:59:45.000Z</time>
      </trkpt>
      <trkpt lat="47.511" lon="6.73691">
        <ele>381</ele>
        <time>2015-10-11T07:59:46.000Z</time>
      </trkpt>
      <trkpt lat="47.51101" lon="6.73694">
        <ele>381</ele>
        <time>2015-10-11T07:59:47.000Z</time>
      </trkpt>
      <trkpt lat="47.51104" lon="6.73699">
        <ele>382</ele>
        <time>2015-10-11T07:59:48.998Z</time>
      </trkpt>
      <trkpt lat="47.51105" lon="6.73703">
        <ele>382</ele>
        <time>2015-10-11T07:59:50.000Z</time>
      </trkpt>
      <trkpt lat="47.51107" lon="6.73706">
        <ele>382</ele>
        <time>2015-10-11T07:59:51.000Z</time>
      </trkpt>
      <trkpt lat="47.51108" lon="6.73709">
        <ele>383</ele>
        <time>2015-10-11T07:59:52.000Z</time>
      </trkpt>
      <trkpt lat="47.5111" lon="6.73714">
        <ele>383</ele>
        <time>2015-10-11T07:59:54.000Z</time>
      </trkpt>
      <trkpt lat="47.51112" lon="6.73716">
        <ele>383</ele>
        <time>2015-10-11T07:59:55.000Z</time>
      </trkpt>
      <trkpt lat="47.51114" lon="6.73718">
        <ele>383</ele>
        <time>2015-10-11T07:59:56.000Z</time>
      </trkpt>
      <trkpt lat="47.51116" lon="6.7372">
        <ele>383</ele>
        <time>2015-10-11T07:59:57.000Z</time>
      </trkpt>
      <trkpt lat="47.51118" lon="6.73722">
        <ele>384</ele>
        <time>2015-10-11T07:59:58.000Z</time>
      </trkpt>
      <trkpt lat="47.5112" lon="6.73724">
        <ele>384</ele>
        <time>2015-10-11T07:59:59.000Z</time>
      </trkpt>
      <trkpt lat="47.51123" lon="6.73726">
        <ele>384</ele>
        <time>2015-10-11T08:00:00.000Z</time>
      </trkpt>
      <trkpt lat="47.51125" lon="6.73727">
        <ele>384</ele>
        <time>2015-10-11T08:00:01.000Z</time>
      </trkpt>
      <trkpt lat="47.51128" lon="6.73728">
        <ele>384</ele>
        <time>2015-10-11T08:00:02.000Z</time>
      </trkpt>
      <trkpt lat="47.5113" lon="6.73729">
        <ele>384</ele>
        <time>2015-10-11T08:00:03.000Z</time>
      </trkpt>
      <trkpt lat="47.51132" lon="6.7373">
        <ele>385</ele>
        <time>2015-10-11T08:00:04.000Z</time>
      </trkpt>
      <trkpt lat="47.51135" lon="6.73732">
        <ele>385</ele>
        <time>2015-10-11T08:00:05.000Z</time>
      </trkpt>
      <trkpt lat="47.51137" lon="6.73734">
        <ele>385</ele>
        <time>2015-10-11T08:00:06.000Z</time>
      </trkpt>
      <trkpt lat="47.5114" lon="6.73735">
        <ele>385</ele>
        <time>2015-10-11T08:00:07.000Z</time>
      </trkpt>
      <trkpt lat="47.51142" lon="6.73737">
        <ele>386</ele>
        <time>2015-10-11T08:00:08.000Z</time>
      </trkpt>
      <trkpt lat="47.51145" lon="6.7374">
        <ele>386</ele>
        <time>2015-10-11T08:00:09.000Z</time>
      </trkpt>
      <trkpt lat="47.51147" lon="6.73742">
        <ele>386</ele>
        <time>2015-10-11T08:00:10.000Z</time>
      </trkpt>
      <trkpt lat="47.51149" lon="6.73743">
        <ele>386</ele>
        <time>2015-10-11T08:00:11.000Z</time>
      </trkpt>
      <trkpt lat="47.51152" lon="6.73747">
        <ele>387</ele>
        <time>2015-10-11T08:00:13.000Z</time>
      </trkpt>
      <trkpt lat="47.51153" lon="6.73748">
        <ele>387</ele>
        <time>2015-10-11T08:00:14.000Z</time>
      </trkpt>
      <trkpt lat="47.51156" lon="6.73749">
        <ele>387</ele>
        <time>2015-10-11T08:00:16.000Z</time>
      </trkpt>
      <trkpt lat="47.51158" lon="6.7375">
        <ele>388</ele>
        <time>2015-10-11T08:00:17.000Z</time>
      </trkpt>
      <trkpt lat="47.51161" lon="6.73751">
        <ele>389</ele>
        <time>2015-10-11T08:00:19.000Z</time>
      </trkpt>
      <trkpt lat="47.51163" lon="6.73753">
        <ele>389</ele>
        <time>2015-10-11T08:00:20.000Z</time>
      </trkpt>
      <trkpt lat="47.51166" lon="6.73756">
        <ele>389</ele>
        <time>2015-10-11T08:00:22.000Z</time>
      </trkpt>
      <trkpt lat="47.51168" lon="6.73758">
        <ele>391</ele>
        <time>2015-10-11T08:00:23.000Z</time>
      </trkpt>
      <trkpt lat="47.51172" lon="6.7376">
        <ele>391</ele>
        <time>2015-10-11T08:00:25.000Z</time>
      </trkpt>
      <trkpt lat="47.51173" lon="6.73761">
        <ele>391</ele>
        <time>2015-10-11T08:00:26.000Z</time>
      </trkpt>
      <trkpt lat="47.51176" lon="6.73762">
        <ele>392</ele>
        <time>2015-10-11T08:00:28.000Z</time>
      </trkpt>
      <trkpt lat="47.51178" lon="6.73763">
        <ele>392</ele>
        <time>2015-10-11T08:00:29.000Z</time>
      </trkpt>
      <trkpt lat="47.5118" lon="6.73766">
        <ele>392</ele>
        <time>2015-10-11T08:00:31.000Z</time>
      </trkpt>
      <trkpt lat="47.51182" lon="6.73767">
        <ele>393</ele>
        <time>2015-10-11T08:00:32.000Z</time>
      </trkpt>
      <trkpt lat="47.51185" lon="6.73769">
        <ele>393</ele>
        <time>2015-10-11T08:00:34.000Z</time>
      </trkpt>
      <trkpt lat="47.51187" lon="6.7377">
        <ele>393</ele>
        <time>2015-10-11T08:00:35.000Z</time>
      </trkpt>
      <trkpt lat="47.5119" lon="6.73773">
        <ele>394</ele>
        <time>2015-10-11T08:00:37.000Z</time>
      </trkpt>
      <trkpt lat="47.51191" lon="6.73774">
        <ele>394</ele>
        <time>2015-10-11T08:00:38.000Z</time>
      </trkpt>
      <trkpt lat="47.51195" lon="6.73776">
        <ele>394</ele>
        <time>2015-10-11T08:00:40.000Z</time>
      </trkpt>
      <trkpt lat="47.51197" lon="6.73777">
        <ele>394</ele>
        <time>2015-10-11T08:00:41.000Z</time>
      </trkpt>
      <trkpt lat="47.51201" lon="6.73779">
        <ele>394</ele>
        <time>2015-10-11T08:00:43.000Z</time>
      </trkpt>
      <trkpt lat="47.51203" lon="6.73781">
        <ele>395</ele>
        <time>2015-10-11T08:00:44.000Z</time>
      </trkpt>
      <trkpt lat="47.51205" lon="6.73782">
        <ele>395</ele>
        <time>2015-10-11T08:00:45.000Z</time>
      </trkpt>
      <trkpt lat="47.51207" lon="6.73784">
        <ele>395</ele>
        <time>2015-10-11T08:00:46.000Z</time>
      </trkpt>
      <trkpt lat="47.51209" lon="6.73786">
        <ele>395</ele>
        <time>2015-10-11T08:00:47.000Z</time>
      </trkpt>
      <trkpt lat="47.51211" lon="6.73787">
        <ele>395</ele>
        <time>2015-10-11T08:00:48.000Z</time>
      </trkpt>
      <trkpt lat="47.51215" lon="6.7379">
        <ele>395</ele>
        <time>2015-10-11T08:00:50.000Z</time>
      </trkpt>
      <trkpt lat="47.51217" lon="6.73791">
        <ele>396</ele>
        <time>2015-10-11T08:00:51.000Z</time>
      </trkpt>
      <trkpt lat="47.51221" lon="6.73793">
        <ele>396</ele>
        <time>2015-10-11T08:00:53.000Z</time>
      </trkpt>
      <trkpt lat="47.51223" lon="6.73794">
        <ele>396</ele>
        <time>2015-10-11T08:00:54.000Z</time>
      </trkpt>
      <trkpt lat="47.51225" lon="6.73795">
        <ele>396</ele>
        <time>2015-10-11T08:00:55.000Z</time>
      </trkpt>
      <trkpt lat="47.51227" lon="6.73796">
        <ele>396</ele>
        <time>2015-10-11T08:00:56.000Z</time>
      </trkpt>
      <trkpt lat="47.51231" lon="6.73799">
        <ele>396</ele>
        <time>2015-10-11T08:00:58.000Z</time>
      </trkpt>
      <trkpt lat="47.51232" lon="6.738">
        <ele>396</ele>
        <time>2015-10-11T08:00:59.000Z</time>
      </trkpt>
      <trkpt lat="47.51236" lon="6.73802">
        <ele>396</ele>
        <time>2015-10-11T08:01:02.000Z</time>
      </trkpt>
      <trkpt lat="47.51238" lon="6.73802">
        <ele>397</ele>
        <time>2015-10-11T08:01:03.000Z</time>
      </trkpt>
      <trkpt lat="47.51241" lon="6.73803">
        <ele>397</ele>
        <time>2015-10-11T08:01:05.000Z</time>
      </trkpt>
      <trkpt lat="47.51242" lon="6.73804">
        <ele>397</ele>
        <time>2015-10-11T08:01:06.000Z</time>
      </trkpt>
      <trkpt lat="47.51246" lon="6.73805">
        <ele>397</ele>
        <time>2015-10-11T08:01:08.000Z</time>
      </trkpt>
      <trkpt lat="47.51248" lon="6.73806">
        <ele>397</ele>
        <time>2015-10-11T08:01:09.000Z</time>
      </trkpt>
      <trkpt lat="47.51252" lon="6.73807">
        <ele>402</ele>
        <time>2015-10-11T08:01:11.000Z</time>
      </trkpt>
      <trkpt lat="47.51254" lon="6.73807">
        <ele>402</ele>
        <time>2015-10-11T08:01:12.000Z</time>
      </trkpt>
      <trkpt lat="47.51256" lon="6.73808">
        <ele>402</ele>
        <time>2015-10-11T08:01:13.000Z</time>
      </trkpt>
      <trkpt lat="47.51258" lon="6.73809">
        <ele>402</ele>
        <time>2015-10-11T08:01:14.000Z</time>
      </trkpt>
      <trkpt lat="47.51262" lon="6.7381">
        <ele>402</ele>
        <time>2015-10-11T08:01:16.000Z</time>
      </trkpt>
      <trkpt lat="47.51264" lon="6.73811">
        <ele>402</ele>
        <time>2015-10-11T08:01:17.000Z</time>
      </trkpt>
      <trkpt lat="47.51267" lon="6.73814">
        <ele>402</ele>
        <time>2015-10-11T08:01:19.000Z</time>
      </trkpt>
      <trkpt lat="47.51268" lon="6.73815">
        <ele>402</ele>
        <time>2015-10-11T08:01:20.000Z</time>
      </trkpt>
      <trkpt lat="47.51271" lon="6.73817">
        <ele>402</ele>
        <time>2015-10-11T08:01:22.000Z</time>
      </trkpt>
      <trkpt lat="47.51272" lon="6.73819">
        <ele>402</ele>
        <time>2015-10-11T08:01:23.000Z</time>
      </trkpt>
      <trkpt lat="47.51276" lon="6.73822">
        <ele>402</ele>
        <time>2015-10-11T08:01:25.000Z</time>
      </trkpt>
      <trkpt lat="47.51278" lon="6.73824">
        <ele>402</ele>
        <time>2015-10-11T08:01:26.000Z</time>
      </trkpt>
      <trkpt lat="47.5128" lon="6.73825">
        <ele>402</ele>
        <time>2015-10-11T08:01:27.000Z</time>
      </trkpt>
      <trkpt lat="47.51283" lon="6.73826">
        <ele>403</ele>
        <time>2015-10-11T08:01:28.000Z</time>
      </trkpt>
      <trkpt lat="47.51285" lon="6.73828">
        <ele>403</ele>
        <time>2015-10-11T08:01:29.000Z</time>
      </trkpt>
      <trkpt lat="47.51287" lon="6.73829">
        <ele>403</ele>
        <time>2015-10-11T08:01:30.000Z</time>
      </trkpt>
      <trkpt lat="47.5129" lon="6.7383">
        <ele>403</ele>
        <time>2015-10-11T08:01:31.000Z</time>
      </trkpt>
      <trkpt lat="47.51292" lon="6.73832">
        <ele>403</ele>
        <time>2015-10-11T08:01:32.000Z</time>
      </trkpt>
      <trkpt lat="47.51294" lon="6.73834">
        <ele>403</ele>
        <time>2015-10-11T08:01:33.000Z</time>
      </trkpt>
      <trkpt lat="47.51296" lon="6.73835">
        <ele>403</ele>
        <time>2015-10-11T08:01:34.000Z</time>
      </trkpt>
      <trkpt lat="47.51298" lon="6.73836">
        <ele>403</ele>
        <time>2015-10-11T08:01:35.000Z</time>
      </trkpt>
      <trkpt lat="47.51301" lon="6.73837">
        <ele>403</ele>
        <time>2015-10-11T08:01:36.000Z</time>
      </trkpt>
      <trkpt lat="47.51303" lon="6.7384">
        <ele>403</ele>
        <time>2015-10-11T08:01:37.000Z</time>
      </trkpt>
      <trkpt lat="47.51305" lon="6.73841">
        <ele>403</ele>
        <time>2015-10-11T08:01:38.000Z</time>
      </trkpt>
      <trkpt lat="47.51307" lon="6.73844">
        <ele>403</ele>
        <time>2015-10-11T08:01:39.000Z</time>
      </trkpt>
      <trkpt lat="47.51309" lon="6.73846">
        <ele>403</ele>
        <time>2015-10-11T08:01:40.000Z</time>
      </trkpt>
      <trkpt lat="47.51311" lon="6.73848">
        <ele>404</ele>
        <time>2015-10-11T08:01:41.000Z</time>
      </trkpt>
      <trkpt lat="47.51313" lon="6.73849">
        <ele>404</ele>
        <time>2015-10-11T08:01:42.000Z</time>
      </trkpt>
      <trkpt lat="47.51318" lon="6.73849">
        <ele>404</ele>
        <time>2015-10-11T08:01:51.000Z</time>
      </trkpt>
      <trkpt lat="47.51318" lon="6.73848">
        <ele>404</ele>
        <time>2015-10-11T08:01:52.000Z</time>
      </trkpt>
      <trkpt lat="47.51322" lon="6.73852">
        <ele>404</ele>
        <time>2015-10-11T08:01:57.000Z</time>
      </trkpt>
      <trkpt lat="47.51322" lon="6.73853">
        <ele>404</ele>
        <time>2015-10-11T08:01:58.000Z</time>
      </trkpt>
      <trkpt lat="47.51324" lon="6.73859">
        <ele>404</ele>
        <time>2015-10-11T08:02:10.000Z</time>
      </trkpt>
      <trkpt lat="47.51324" lon="6.73859">
        <ele>404</ele>
        <time>2015-10-11T08:02:11.000Z</time>
      </trkpt>
      <trkpt lat="47.51326" lon="6.73853">
        <ele>404</ele>
        <time>2015-10-11T08:02:43.000Z</time>
      </trkpt>
      <trkpt lat="47.51327" lon="6.73849">
        <ele>404</ele>
        <time>2015-10-11T08:02:44.000Z</time>
      </trkpt>
      <trkpt lat="47.51327" lon="6.73846">
        <ele>404</ele>
        <time>2015-10-11T08:02:45.000Z</time>
      </trkpt>
      <trkpt lat="47.51328" lon="6.73842">
        <ele>405</ele>
        <time>2015-10-11T08:02:46.000Z</time>
      </trkpt>
      <trkpt lat="47.51328" lon="6.73839">
        <ele>405</ele>
        <time>2015-10-11T08:02:47.000Z</time>
      </trkpt>
      <trkpt lat="47.51328" lon="6.73836">
        <ele>405</ele>
        <time>2015-10-11T08:02:48.000Z</time>
      </trkpt>
      <trkpt lat="47.51328" lon="6.7383">
        <ele>405</ele>
        <time>2015-10-11T08:02:50.000Z</time>
      </trkpt>
      <trkpt lat="47.51328" lon="6.73827">
        <ele>405</ele>
        <time>2015-10-11T08:02:51.000Z</time>
      </trkpt>
      <trkpt lat="47.51329" lon="6.73821">
        <ele>405</ele>
        <time>2015-10-11T08:02:53.000Z</time>
      </trkpt>
      <trkpt lat="47.51329" lon="6.73818">
        <ele>405</ele>
        <time>2015-10-11T08:02:54.000Z</time>
      </trkpt>
      <trkpt lat="47.51329" lon="6.73812">
        <ele>405</ele>
        <time>2015-10-11T08:02:56.000Z</time>
      </trkpt>
      <trkpt lat="47.51329" lon="6.73809">
        <ele>405</ele>
        <time>2015-10-11T08:02:57.000Z</time>
      </trkpt>
      <trkpt lat="47.5133" lon="6.73803">
        <ele>405</ele>
        <time>2015-10-11T08:02:59.000Z</time>
      </trkpt>
      <trkpt lat="47.51332" lon="6.73799">
        <ele>405</ele>
        <time>2015-10-11T08:03:00.000Z</time>
      </trkpt>
      <trkpt lat="47.51335" lon="6.73795">
        <ele>408</ele>
        <time>2015-10-11T08:03:01.000Z</time>
      </trkpt>
      <trkpt lat="47.51337" lon="6.73792">
        <ele>408</ele>
        <time>2015-10-11T08:03:02.000Z</time>
      </trkpt>
      <trkpt lat="47.51339" lon="6.73789">
        <ele>408</ele>
        <time>2015-10-11T08:03:03.000Z</time>
      </trkpt>
      <trkpt lat="47.51341" lon="6.73786">
        <ele>408</ele>
        <time>2015-10-11T08:03:04.000Z</time>
      </trkpt>
      <trkpt lat="47.51343" lon="6.73783">
        <ele>408</ele>
        <time>2015-10-11T08:03:05.000Z</time>
      </trkpt>
      <trkpt lat="47.51344" lon="6.7378">
        <ele>408</ele>
        <time>2015-10-11T08:03:06.000Z</time>
      </trkpt>
      <trkpt lat="47.51345" lon="6.73774">
        <ele>408</ele>
        <time>2015-10-11T08:03:08.000Z</time>
      </trkpt>
      <trkpt lat="47.51345" lon="6.73771">
        <ele>408</ele>
        <time>2015-10-11T08:03:09.000Z</time>
      </trkpt>
      <trkpt lat="47.51345" lon="6.73764">
        <ele>408</ele>
        <time>2015-10-11T08:03:11.000Z</time>
      </trkpt>
      <trkpt lat="47.51345" lon="6.73761">
        <ele>408</ele>
        <time>2015-10-11T08:03:12.000Z</time>
      </trkpt>
      <trkpt lat="47.51346" lon="6.73755">
        <ele>408</ele>
        <time>2015-10-11T08:03:14.000Z</time>
      </trkpt>
      <trkpt lat="47.51346" lon="6.73752">
        <ele>408</ele>
        <time>2015-10-11T08:03:15.000Z</time>
      </trkpt>
      <trkpt lat="47.51347" lon="6.73747">
        <ele>409</ele>
        <time>2015-10-11T08:03:17.000Z</time>
      </trkpt>
      <trkpt lat="47.51347" lon="6.73744">
        <ele>409</ele>
        <time>2015-10-11T08:03:18.000Z</time>
      </trkpt>
      <trkpt lat="47.51349" lon="6.7374">
        <ele>409</ele>
        <time>2015-10-11T08:03:20.000Z</time>
      </trkpt>
      <trkpt lat="47.51351" lon="6.73737">
        <ele>409</ele>
        <time>2015-10-11T08:03:21.000Z</time>
      </trkpt>
      <trkpt lat="47.51352" lon="6.73735">
        <ele>409</ele>
        <time>2015-10-11T08:03:22.000Z</time>
      </trkpt>
      <trkpt lat="47.51354" lon="6.73732">
        <ele>409</ele>
        <time>2015-10-11T08:03:23.000Z</time>
      </trkpt>
      <trkpt lat="47.51356" lon="6.73729">
        <ele>410</ele>
        <time>2015-10-11T08:03:24.000Z</time>
      </trkpt>
      <trkpt lat="47.51357" lon="6.73726">
        <ele>410</ele>
        <time>2015-10-11T08:03:25.000Z</time>
      </trkpt>
      <trkpt lat="47.5136" lon="6.73721">
        <ele>410</ele>
        <time>2015-10-11T08:03:27.000Z</time>
      </trkpt>
      <trkpt lat="47.5136" lon="6.73718">
        <ele>410</ele>
        <time>2015-10-11T08:03:28.000Z</time>
      </trkpt>
      <trkpt lat="47.51361" lon="6.73714">
        <ele>410</ele>
        <time>2015-10-11T08:03:30.000Z</time>
      </trkpt>
      <trkpt lat="47.51362" lon="6.73712">
        <ele>410</ele>
        <time>2015-10-11T08:03:31.000Z</time>
      </trkpt>
      <trkpt lat="47.51364" lon="6.73708">
        <ele>410</ele>
        <time>2015-10-11T08:03:33.000Z</time>
      </trkpt>
      <trkpt lat="47.51365" lon="6.73706">
        <ele>410</ele>
        <time>2015-10-11T08:03:34.000Z</time>
      </trkpt>
      <trkpt lat="47.51368" lon="6.73702">
        <ele>410</ele>
        <time>2015-10-11T08:03:36.000Z</time>
      </trkpt>
      <trkpt lat="47.51368" lon="6.737">
        <ele>410</ele>
        <time>2015-10-11T08:03:37.000Z</time>
      </trkpt>
      <trkpt lat="47.5137" lon="6.73696">
        <ele>410</ele>
        <time>2015-10-11T08:03:39.000Z</time>
      </trkpt>
      <trkpt lat="47.51372" lon="6.73693">
        <ele>410</ele>
        <time>2015-10-11T08:03:40.000Z</time>
      </trkpt>
      <trkpt lat="47.51374" lon="6.7369">
        <ele>410</ele>
        <time>2015-10-11T08:03:41.000Z</time>
      </trkpt>
      <trkpt lat="47.51375" lon="6.73688">
        <ele>411</ele>
        <time>2015-10-11T08:03:42.000Z</time>
      </trkpt>
      <trkpt lat="47.51377" lon="6.73685">
        <ele>411</ele>
        <time>2015-10-11T08:03:43.000Z</time>
      </trkpt>
      <trkpt lat="47.5138" lon="6.73681">
        <ele>411</ele>
        <time>2015-10-11T08:03:44.000Z</time>
      </trkpt>
      <trkpt lat="47.51383" lon="6.73678">
        <ele>411</ele>
        <time>2015-10-11T08:03:45.000Z</time>
      </trkpt>
      <trkpt lat="47.51386" lon="6.73675">
        <ele>411</ele>
        <time>2015-10-11T08:03:46.000Z</time>
      </trkpt>
      <trkpt lat="47.51389" lon="6.73672">
        <ele>411</ele>
        <time>2015-10-11T08:03:47.000Z</time>
      </trkpt>
      <trkpt lat="47.51392" lon="6.7367">
        <ele>411</ele>
        <time>2015-10-11T08:03:48.000Z</time>
      </trkpt>
      <trkpt lat="47.51394" lon="6.73668">
        <ele>411</ele>
        <time>2015-10-11T08:03:49.000Z</time>
      </trkpt>
      <trkpt lat="47.51397" lon="6.73666">
        <ele>413</ele>
        <time>2015-10-11T08:03:50.000Z</time>
      </trkpt>
      <trkpt lat="47.514" lon="6.73663">
        <ele>413</ele>
        <time>2015-10-11T08:03:52.000Z</time>
      </trkpt>
      <trkpt lat="47.51402" lon="6.73661">
        <ele>413</ele>
        <time>2015-10-11T08:03:53.000Z</time>
      </trkpt>
      <trkpt lat="47.51405" lon="6.73657">
        <ele>413</ele>
        <time>2015-10-11T08:03:55.000Z</time>
      </trkpt>
      <trkpt lat="47.51406" lon="6.73654">
        <ele>413</ele>
        <time>2015-10-11T08:03:56.000Z</time>
      </trkpt>
      <trkpt lat="47.51407" lon="6.73651">
        <ele>413</ele>
        <time>2015-10-11T08:03:57.000Z</time>
      </trkpt>
      <trkpt lat="47.51408" lon="6.73648">
        <ele>413</ele>
        <time>2015-10-11T08:03:58.000Z</time>
      </trkpt>
      <trkpt lat="47.51409" lon="6.73642">
        <ele>413</ele>
        <time>2015-10-11T08:04:00.000Z</time>
      </trkpt>
      <trkpt lat="47.5141" lon="6.73639">
        <ele>413</ele>
        <time>2015-10-11T08:04:01.000Z</time>
      </trkpt>
      <trkpt lat="47.51411" lon="6.73633">
        <ele>413</ele>
        <time>2015-10-11T08:04:03.000Z</time>
      </trkpt>
      <trkpt lat="47.51411" lon="6.73628">
        <ele>413</ele>
        <time>2015-10-11T08:04:04.000Z</time>
      </trkpt>
      <trkpt lat="47.51411" lon="6.73624">
        <ele>413</ele>
        <time>2015-10-11T08:04:05.000Z</time>
      </trkpt>
      <trkpt lat="47.51411" lon="6.73619">
        <ele>413</ele>
        <time>2015-10-11T08:04:06.000Z</time>
      </trkpt>
      <trkpt lat="47.5141" lon="6.73614">
        <ele>414</ele>
        <time>2015-10-11T08:04:07.000Z</time>
      </trkpt>
      <trkpt lat="47.5141" lon="6.73609">
        <ele>414</ele>
        <time>2015-10-11T08:04:08.000Z</time>
      </trkpt>
      <trkpt lat="47.5141" lon="6.73605">
        <ele>414</ele>
        <time>2015-10-11T08:04:09.000Z</time>
      </trkpt>
      <trkpt lat="47.5141" lon="6.736">
        <ele>414</ele>
        <time>2015-10-11T08:04:10.000Z</time>
      </trkpt>
      <trkpt lat="47.51409" lon="6.73597">
        <ele>414</ele>
        <time>2015-10-11T08:04:11.000Z</time>
      </trkpt>
      <trkpt lat="47.51409" lon="6.73594">
        <ele>415</ele>
        <time>2015-10-11T08:04:12.000Z</time>
      </trkpt>
      <trkpt lat="47.51409" lon="6.7359">
        <ele>415</ele>
        <time>2015-10-11T08:04:13.000Z</time>
      </trkpt>
      <trkpt lat="47.51409" lon="6.73587">
        <ele>415</ele>
        <time>2015-10-11T08:04:14.000Z</time>
      </trkpt>
      <trkpt lat="47.5141" lon="6.73582">
        <ele>416</ele>
        <time>2015-10-11T08:04:15.000Z</time>
      </trkpt>
      <trkpt lat="47.5141" lon="6.73577">
        <ele>416</ele>
        <time>2015-10-11T08:04:16.000Z</time>
      </trkpt>
      <trkpt lat="47.51411" lon="6.73571">
        <ele>415</ele>
        <time>2015-10-11T08:04:17.000Z</time>
      </trkpt>
      <trkpt lat="47.51412" lon="6.73565">
        <ele>415</ele>
        <time>2015-10-11T08:04:18.000Z</time>
      </trkpt>
      <trkpt lat="47.51413" lon="6.7356">
        <ele>415</ele>
        <time>2015-10-11T08:04:19.000Z</time>
      </trkpt>
      <trkpt lat="47.51414" lon="6.73554">
        <ele>415</ele>
        <time>2015-10-11T08:04:20.000Z</time>
      </trkpt>
      <trkpt lat="47.51414" lon="6.73548">
        <ele>415</ele>
        <time>2015-10-11T08:04:21.000Z</time>
      </trkpt>
      <trkpt lat="47.51415" lon="6.73543">
        <ele>415</ele>
        <time>2015-10-11T08:04:22.000Z</time>
      </trkpt>
      <trkpt lat="47.51415" lon="6.73538">
        <ele>416</ele>
        <time>2015-10-11T08:04:23.000Z</time>
      </trkpt>
      <trkpt lat="47.51416" lon="6.73533">
        <ele>416</ele>
        <time>2015-10-11T08:04:24.000Z</time>
      </trkpt>
      <trkpt lat="47.51417" lon="6.73528">
        <ele>419</ele>
        <time>2015-10-11T08:04:25.000Z</time>
      </trkpt>
      <trkpt lat="47.51418" lon="6.73523">
        <ele>419</ele>
        <time>2015-10-11T08:04:26.000Z</time>
      </trkpt>
      <trkpt lat="47.51419" lon="6.73518">
        <ele>419</ele>
        <time>2015-10-11T08:04:27.000Z</time>
      </trkpt>
      <trkpt lat="47.5142" lon="6.73513">
        <ele>419</ele>
        <time>2015-10-11T08:04:28.000Z</time>
      </trkpt>
      <trkpt lat="47.5142" lon="6.73509">
        <ele>419</ele>
        <time>2015-10-11T08:04:29.000Z</time>
      </trkpt>
      <trkpt lat="47.51421" lon="6.73505">
        <ele>419</ele>
        <time>2015-10-11T08:04:30.000Z</time>
      </trkpt>
      <trkpt lat="47.51424" lon="6.735">
        <ele>419</ele>
        <time>2015-10-11T08:04:32.000Z</time>
      </trkpt>
      <trkpt lat="47.51426" lon="6.735">
        <ele>420</ele>
        <time>2015-10-11T08:04:33.000Z</time>
      </trkpt>
      <trkpt lat="47.51428" lon="6.735">
        <ele>419</ele>
        <time>2015-10-11T08:04:34.000Z</time>
      </trkpt>
      <trkpt lat="47.51431" lon="6.73501">
        <ele>419</ele>
        <time>2015-10-11T08:04:35.000Z</time>
      </trkpt>
      <trkpt lat="47.51433" lon="6.73503">
        <ele>419</ele>
        <time>2015-10-11T08:04:36.000Z</time>
      </trkpt>
      <trkpt lat="47.51435" lon="6.73504">
        <ele>420</ele>
        <time>2015-10-11T08:04:37.000Z</time>
      </trkpt>
      <trkpt lat="47.51439" lon="6.73505">
        <ele>420</ele>
        <time>2015-10-11T08:04:38.000Z</time>
      </trkpt>
      <trkpt lat="47.51442" lon="6.73506">
        <ele>420</ele>
        <time>2015-10-11T08:04:39.000Z</time>
      </trkpt>
      <trkpt lat="47.51445" lon="6.73507">
        <ele>420</ele>
        <time>2015-10-11T08:04:40.000Z</time>
      </trkpt>
      <trkpt lat="47.51448" lon="6.73508">
        <ele>421</ele>
        <time>2015-10-11T08:04:41.000Z</time>
      </trkpt>
      <trkpt lat="47.51451" lon="6.7351">
        <ele>421</ele>
        <time>2015-10-11T08:04:42.000Z</time>
      </trkpt>
      <trkpt lat="47.51454" lon="6.73513">
        <ele>421</ele>
        <time>2015-10-11T08:04:43.000Z</time>
      </trkpt>
      <trkpt lat="47.51457" lon="6.73515">
        <ele>421</ele>
        <time>2015-10-11T08:04:44.000Z</time>
      </trkpt>
      <trkpt lat="47.5146" lon="6.73517">
        <ele>421</ele>
        <time>2015-10-11T08:04:45.000Z</time>
      </trkpt>
      <trkpt lat="47.51463" lon="6.73518">
        <ele>421</ele>
        <time>2015-10-11T08:04:46.000Z</time>
      </trkpt>
      <trkpt lat="47.51466" lon="6.73518">
        <ele>422</ele>
        <time>2015-10-11T08:04:47.000Z</time>
      </trkpt>
      <trkpt lat="47.5147" lon="6.73517">
        <ele>422</ele>
        <time>2015-10-11T08:04:49.000Z</time>
      </trkpt>
      <trkpt lat="47.51472" lon="6.73517">
        <ele>422</ele>
        <time>2015-10-11T08:04:50.000Z</time>
      </trkpt>
      <trkpt lat="47.51477" lon="6.73518">
        <ele>422</ele>
        <time>2015-10-11T08:04:52.000Z</time>
      </trkpt>
      <trkpt lat="47.51479" lon="6.73519">
        <ele>422</ele>
        <time>2015-10-11T08:04:53.000Z</time>
      </trkpt>
      <trkpt lat="47.51482" lon="6.7352">
        <ele>422</ele>
        <time>2015-10-11T08:04:54.000Z</time>
      </trkpt>
      <trkpt lat="47.51484" lon="6.73521">
        <ele>423</ele>
        <time>2015-10-11T08:04:55.000Z</time>
      </trkpt>
      <trkpt lat="47.51487" lon="6.73522">
        <ele>423</ele>
        <time>2015-10-11T08:04:56.000Z</time>
      </trkpt>
      <trkpt lat="47.51489" lon="6.73522">
        <ele>423</ele>
        <time>2015-10-11T08:04:57.000Z</time>
      </trkpt>
      <trkpt lat="47.51491" lon="6.73522">
        <ele>423</ele>
        <time>2015-10-11T08:04:58.000Z</time>
      </trkpt>
      <trkpt lat="47.51493" lon="6.73522">
        <ele>423</ele>
        <time>2015-10-11T08:04:59.000Z</time>
      </trkpt>
      <trkpt lat="47.51498" lon="6.73522">
        <ele>423</ele>
        <time>2015-10-11T08:05:01.000Z</time>
      </trkpt>
      <trkpt lat="47.515" lon="6.73522">
        <ele>423</ele>
        <time>2015-10-11T08:05:02.000Z</time>
      </trkpt>
      <trkpt lat="47.51504" lon="6.73522">
        <ele>427</ele>
        <time>2015-10-11T08:05:04.000Z</time>
      </trkpt>
      <trkpt lat="47.51506" lon="6.73522">
        <ele>427</ele>
        <time>2015-10-11T08:05:05.000Z</time>
      </trkpt>
      <trkpt lat="47.51509" lon="6.73523">
        <ele>427</ele>
        <time>2015-10-11T08:05:06.000Z</time>
      </trkpt>
      <trkpt lat="47.51511" lon="6.73523">
        <ele>427</ele>
        <time>2015-10-11T08:05:07.000Z</time>
      </trkpt>
      <trkpt lat="47.51514" lon="6.73524">
        <ele>427</ele>
        <time>2015-10-11T08:05:08.000Z</time>
      </trkpt>
      <trkpt lat="47.51516" lon="6.73525">
        <ele>427</ele>
        <time>2015-10-11T08:05:09.000Z</time>
      </trkpt>
      <trkpt lat="47.51519" lon="6.73526">
        <ele>427</ele>
        <time>2015-10-11T08:05:10.000Z</time>
      </trkpt>
      <trkpt lat="47.51521" lon="6.73527">
        <ele>427</ele>
        <time>2015-10-11T08:05:11.000Z</time>
      </trkpt>
      <trkpt lat="47.51523" lon="6.73528">
        <ele>427</ele>
        <time>2015-10-11T08:05:12.000Z</time>
      </trkpt>
      <trkpt lat="47.51525" lon="6.73529">
        <ele>427</ele>
        <time>2015-10-11T08:05:13.000Z</time>
      </trkpt>
      <trkpt lat="47.5153" lon="6.73529">
        <ele>427</ele>
        <time>2015-10-11T08:05:15.000Z</time>
      </trkpt>
      <trkpt lat="47.51532" lon="6.73529">
        <ele>427</ele>
        <time>2015-10-11T08:05:16.000Z</time>
      </trkpt>
      <trkpt lat="47.51535" lon="6.7353">
        <ele>427</ele>
        <time>2015-10-11T08:05:18.000Z</time>
      </trkpt>
      <trkpt lat="47.51537" lon="6.7353">
        <ele>427</ele>
        <time>2015-10-11T08:05:19.000Z</time>
      </trkpt>
      <trkpt lat="47.51541" lon="6.7353">
        <ele>427</ele>
        <time>2015-10-11T08:05:21.000Z</time>
      </trkpt>
      <trkpt lat="47.51543" lon="6.7353">
        <ele>427</ele>
        <time>2015-10-11T08:05:22.000Z</time>
      </trkpt>
      <trkpt lat="47.51545" lon="6.7353">
        <ele>428</ele>
        <time>2015-10-11T08:05:23.000Z</time>
      </trkpt>
      <trkpt lat="47.51548" lon="6.73531">
        <ele>428</ele>
        <time>2015-10-11T08:05:24.000Z</time>
      </trkpt>
      <trkpt lat="47.5155" lon="6.73532">
        <ele>428</ele>
        <time>2015-10-11T08:05:25.000Z</time>
      </trkpt>
      <trkpt lat="47.51552" lon="6.73533">
        <ele>428</ele>
        <time>2015-10-11T08:05:26.000Z</time>
      </trkpt>
      <trkpt lat="47.51555" lon="6.73533">
        <ele>428</ele>
        <time>2015-10-11T08:05:27.000Z</time>
      </trkpt>
      <trkpt lat="47.51557" lon="6.73534">
        <ele>428</ele>
        <time>2015-10-11T08:05:28.000Z</time>
      </trkpt>
      <trkpt lat="47.51559" lon="6.73535">
        <ele>428</ele>
        <time>2015-10-11T08:05:29.000Z</time>
      </trkpt>
      <trkpt lat="47.51562" lon="6.73537">
        <ele>428</ele>
        <time>2015-10-11T08:05:30.000Z</time>
      </trkpt>
      <trkpt lat="47.51564" lon="6.73538">
        <ele>428</ele>
        <time>2015-10-11T08:05:31.000Z</time>
      </trkpt>
      <trkpt lat="47.51567" lon="6.73539">
        <ele>428</ele>
        <time>2015-10-11T08:05:32.000Z</time>
      </trkpt>
      <trkpt lat="47.5157" lon="6.7354">
        <ele>428</ele>
        <time>2015-10-11T08:05:33.000Z</time>
      </trkpt>
      <trkpt lat="47.51573" lon="6.73542">
        <ele>428</ele>
        <time>2015-10-11T08:05:34.000Z</time>
      </trkpt>
      <trkpt lat="47.51575" lon="6.73543">
        <ele>428</ele>
        <time>2015-10-11T08:05:35.000Z</time>
      </trkpt>
      <trkpt lat="47.51578" lon="6.73545">
        <ele>428</ele>
        <time>2015-10-11T08:05:36.000Z</time>
      </trkpt>
      <trkpt lat="47.51581" lon="6.73547">
        <ele>428</ele>
        <time>2015-10-11T08:05:37.000Z</time>
      </trkpt>
      <trkpt lat="47.51584" lon="6.73549">
        <ele>428</ele>
        <time>2015-10-11T08:05:38.000Z</time>
      </trkpt>
      <trkpt lat="47.51586" lon="6.73551">
        <ele>428</ele>
        <time>2015-10-11T08:05:39.000Z</time>
      </trkpt>
      <trkpt lat="47.51589" lon="6.73553">
        <ele>428</ele>
        <time>2015-10-11T08:05:40.000Z</time>
      </trkpt>
      <trkpt lat="47.51591" lon="6.73554">
        <ele>428</ele>
        <time>2015-10-11T08:05:41.000Z</time>
      </trkpt>
      <trkpt lat="47.51594" lon="6.73554">
        <ele>428</ele>
        <time>2015-10-11T08:05:42.000Z</time>
      </trkpt>
      <trkpt lat="47.51597" lon="6.73555">
        <ele>428</ele>
        <time>2015-10-11T08:05:43.000Z</time>
      </trkpt>
      <trkpt lat="47.516" lon="6.73556">
        <ele>428</ele>
        <time>2015-10-11T08:05:44.000Z</time>
      </trkpt>
      <trkpt lat="47.51604" lon="6.73557">
        <ele>428</ele>
        <time>2015-10-11T08:05:45.000Z</time>
      </trkpt>
      <trkpt lat="47.51608" lon="6.73559">
        <ele>428</ele>
        <time>2015-10-11T08:05:46.000Z</time>
      </trkpt>
      <trkpt lat="47.51612" lon="6.7356">
        <ele>428</ele>
        <time>2015-10-11T08:05:47.000Z</time>
      </trkpt>
      <trkpt lat="47.51616" lon="6.7356">
        <ele>427</ele>
        <time>2015-10-11T08:05:48.000Z</time>
      </trkpt>
      <trkpt lat="47.5162" lon="6.73561">
        <ele>427</ele>
        <time>2015-10-11T08:05:49.000Z</time>
      </trkpt>
      <trkpt lat="47.51624" lon="6.73562">
        <ele>427</ele>
        <time>2015-10-11T08:05:50.000Z</time>
      </trkpt>
      <trkpt lat="47.51628" lon="6.73563">
        <ele>427</ele>
        <time>2015-10-11T08:05:51.000Z</time>
      </trkpt>
      <trkpt lat="47.51634" lon="6.73563">
        <ele>427</ele>
        <time>2015-10-11T08:05:52.000Z</time>
      </trkpt>
      <trkpt lat="47.51638" lon="6.73562">
        <ele>426</ele>
        <time>2015-10-11T08:05:53.000Z</time>
      </trkpt>
      <trkpt lat="47.51644" lon="6.73565">
        <ele>426</ele>
        <time>2015-10-11T08:05:54.000Z</time>
      </trkpt>
      <trkpt lat="47.51649" lon="6.73567">
        <ele>426</ele>
        <time>2015-10-11T08:05:55.000Z</time>
      </trkpt>
      <trkpt lat="47.51654" lon="6.73567">
        <ele>425</ele>
        <time>2015-10-11T08:05:56.000Z</time>
      </trkpt>
      <trkpt lat="47.51659" lon="6.73568">
        <ele>425</ele>
        <time>2015-10-11T08:05:57.000Z</time>
      </trkpt>
      <trkpt lat="47.51665" lon="6.7357">
        <ele>425</ele>
        <time>2015-10-11T08:05:58.000Z</time>
      </trkpt>
      <trkpt lat="47.51671" lon="6.73572">
        <ele>422</ele>
        <time>2015-10-11T08:05:59.000Z</time>
      </trkpt>
      <trkpt lat="47.51677" lon="6.73576">
        <ele>422</ele>
        <time>2015-10-11T08:06:00.000Z</time>
      </trkpt>
      <trkpt lat="47.51682" lon="6.73579">
        <ele>422</ele>
        <time>2015-10-11T08:06:01.000Z</time>
      </trkpt>
      <trkpt lat="47.51689" lon="6.73588">
        <ele>421</ele>
        <time>2015-10-11T08:06:02.000Z</time>
      </trkpt>
      <trkpt lat="47.51695" lon="6.73589">
        <ele>420</ele>
        <time>2015-10-11T08:06:03.000Z</time>
      </trkpt>
      <trkpt lat="47.51701" lon="6.73593">
        <ele>420</ele>
        <time>2015-10-11T08:06:04.000Z</time>
      </trkpt>
      <trkpt lat="47.51707" lon="6.73595">
        <ele>420</ele>
        <time>2015-10-11T08:06:05.000Z</time>
      </trkpt>
      <trkpt lat="47.51714" lon="6.73598">
        <ele>419</ele>
        <time>2015-10-11T08:06:06.000Z</time>
      </trkpt>
      <trkpt lat="47.5172" lon="6.73598">
        <ele>419</ele>
        <time>2015-10-11T08:06:07.000Z</time>
      </trkpt>
      <trkpt lat="47.51727" lon="6.73597">
        <ele>419</ele>
        <time>2015-10-11T08:06:08.000Z</time>
      </trkpt>
      <trkpt lat="47.51735" lon="6.73596">
        <ele>418</ele>
        <time>2015-10-11T08:06:09.000Z</time>
      </trkpt>
      <trkpt lat="47.51742" lon="6.736">
        <ele>418</ele>
        <time>2015-10-11T08:06:10.000Z</time>
      </trkpt>
      <trkpt lat="47.51748" lon="6.73604">
        <ele>418</ele>
        <time>2015-10-11T08:06:11.000Z</time>
      </trkpt>
      <trkpt lat="47.51754" lon="6.73608">
        <ele>413</ele>
        <time>2015-10-11T08:06:12.000Z</time>
      </trkpt>
      <trkpt lat="47.51755" lon="6.73609">
        <ele>413</ele>
        <time>2015-10-11T08:06:13.000Z</time>
      </trkpt>
      <trkpt lat="47.51758" lon="6.73613">
        <ele>413</ele>
        <time>2015-10-11T08:06:14.000Z</time>
      </trkpt>
      <trkpt lat="47.5176" lon="6.7362">
        <ele>413</ele>
        <time>2015-10-11T08:06:15.000Z</time>
      </trkpt>
      <trkpt lat="47.51761" lon="6.73624">
        <ele>413</ele>
        <time>2015-10-11T08:06:16.000Z</time>
      </trkpt>
      <trkpt lat="47.51762" lon="6.73632">
        <ele>413</ele>
        <time>2015-10-11T08:06:17.000Z</time>
      </trkpt>
      <trkpt lat="47.51762" lon="6.7364">
        <ele>413</ele>
        <time>2015-10-11T08:06:18.000Z</time>
      </trkpt>
      <trkpt lat="47.51761" lon="6.73647">
        <ele>413</ele>
        <time>2015-10-11T08:06:19.000Z</time>
      </trkpt>
      <trkpt lat="47.5176" lon="6.73653">
        <ele>414</ele>
        <time>2015-10-11T08:06:20.000Z</time>
      </trkpt>
      <trkpt lat="47.51759" lon="6.73658">
        <ele>414</ele>
        <time>2015-10-11T08:06:21.000Z</time>
      </trkpt>
      <trkpt lat="47.51758" lon="6.73663">
        <ele>414</ele>
        <time>2015-10-11T08:06:22.000Z</time>
      </trkpt>
      <trkpt lat="47.51758" lon="6.73668">
        <ele>415</ele>
        <time>2015-10-11T08:06:23.000Z</time>
      </trkpt>
      <trkpt lat="47.51757" lon="6.73674">
        <ele>414</ele>
        <time>2015-10-11T08:06:24.000Z</time>
      </trkpt>
      <trkpt lat="47.51756" lon="6.73679">
        <ele>414</ele>
        <time>2015-10-11T08:06:25.000Z</time>
      </trkpt>
      <trkpt lat="47.51755" lon="6.73685">
        <ele>414</ele>
        <time>2015-10-11T08:06:26.000Z</time>
      </trkpt>
      <trkpt lat="47.51753" lon="6.73691">
        <ele>413</ele>
        <time>2015-10-11T08:06:27.000Z</time>
      </trkpt>
      <trkpt lat="47.51752" lon="6.73697">
        <ele>413</ele>
        <time>2015-10-11T08:06:28.000Z</time>
      </trkpt>
      <trkpt lat="47.51751" lon="6.73703">
        <ele>413</ele>
        <time>2015-10-11T08:06:29.000Z</time>
      </trkpt>
      <trkpt lat="47.5175" lon="6.73709">
        <ele>413</ele>
        <time>2015-10-11T08:06:30.000Z</time>
      </trkpt>
      <trkpt lat="47.51749" lon="6.73715">
        <ele>416</ele>
        <time>2015-10-11T08:06:31.000Z</time>
      </trkpt>
      <trkpt lat="47.51748" lon="6.7372">
        <ele>416</ele>
        <time>2015-10-11T08:06:32.000Z</time>
      </trkpt>
      <trkpt lat="47.51747" lon="6.73726">
        <ele>416</ele>
        <time>2015-10-11T08:06:33.000Z</time>
      </trkpt>
      <trkpt lat="47.51746" lon="6.73732">
        <ele>416</ele>
        <time>2015-10-11T08:06:34.000Z</time>
      </trkpt>
      <trkpt lat="47.51746" lon="6.73738">
        <ele>415</ele>
        <time>2015-10-11T08:06:35.000Z</time>
      </trkpt>
      <trkpt lat="47.51746" lon="6.73745">
        <ele>415</ele>
        <time>2015-10-11T08:06:36.000Z</time>
      </trkpt>
      <trkpt lat="47.51748" lon="6.73753">
        <ele>414</ele>
        <time>2015-10-11T08:06:37.000Z</time>
      </trkpt>
      <trkpt lat="47.5175" lon="6.73761">
        <ele>413</ele>
        <time>2015-10-11T08:06:38.000Z</time>
      </trkpt>
      <trkpt lat="47.51751" lon="6.73768">
        <ele>412</ele>
        <time>2015-10-11T08:06:39.000Z</time>
      </trkpt>
      <trkpt lat="47.51753" lon="6.73776">
        <ele>411</ele>
        <time>2015-10-11T08:06:40.000Z</time>
      </trkpt>
      <trkpt lat="47.51756" lon="6.73784">
        <ele>411</ele>
        <time>2015-10-11T08:06:41.000Z</time>
      </trkpt>
      <trkpt lat="47.51758" lon="6.73792">
        <ele>410</ele>
        <time>2015-10-11T08:06:42.000Z</time>
      </trkpt>
      <trkpt lat="47.51759" lon="6.73801">
        <ele>410</ele>
        <time>2015-10-11T08:06:43.000Z</time>
      </trkpt>
      <trkpt lat="47.51759" lon="6.7381">
        <ele>410</ele>
        <time>2015-10-11T08:06:44.000Z</time>
      </trkpt>
      <trkpt lat="47.51759" lon="6.73819">
        <ele>409</ele>
        <time>2015-10-11T08:06:45.000Z</time>
      </trkpt>
      <trkpt lat="47.51758" lon="6.73827">
        <ele>409</ele>
        <time>2015-10-11T08:06:46.000Z</time>
      </trkpt>
      <trkpt lat="47.51757" lon="6.73836">
        <ele>408</ele>
        <time>2015-10-11T08:06:47.000Z</time>
      </trkpt>
      <trkpt lat="47.51755" lon="6.73845">
        <ele>407</ele>
        <time>2015-10-11T08:06:48.000Z</time>
      </trkpt>
      <trkpt lat="47.51753" lon="6.73855">
        <ele>407</ele>
        <time>2015-10-11T08:06:49.000Z</time>
      </trkpt>
      <trkpt lat="47.5175" lon="6.73864">
        <ele>406</ele>
        <time>2015-10-11T08:06:50.000Z</time>
      </trkpt>
      <trkpt lat="47.51747" lon="6.73874">
        <ele>405</ele>
        <time>2015-10-11T08:06:51.000Z</time>
      </trkpt>
      <trkpt lat="47.51746" lon="6.73885">
        <ele>404</ele>
        <time>2015-10-11T08:06:52.000Z</time>
      </trkpt>
      <trkpt lat="47.51744" lon="6.73895">
        <ele>403</ele>
        <time>2015-10-11T08:06:53.000Z</time>
      </trkpt>
      <trkpt lat="47.51742" lon="6.73906">
        <ele>403</ele>
        <time>2015-10-11T08:06:54.000Z</time>
      </trkpt>
      <trkpt lat="47.51739" lon="6.73917">
        <ele>401</ele>
        <time>2015-10-11T08:06:55.000Z</time>
      </trkpt>
      <trkpt lat="47.51734" lon="6.73929">
        <ele>399</ele>
        <time>2015-10-11T08:06:56.000Z</time>
      </trkpt>
      <trkpt lat="47.51731" lon="6.7394">
        <ele>398</ele>
        <time>2015-10-11T08:06:57.000Z</time>
      </trkpt>
      <trkpt lat="47.51728" lon="6.73949">
        <ele>398</ele>
        <time>2015-10-11T08:06:58.000Z</time>
      </trkpt>
      <trkpt lat="47.51727" lon="6.73958">
        <ele>397</ele>
        <time>2015-10-11T08:06:59.000Z</time>
      </trkpt>
      <trkpt lat="47.51723" lon="6.73967">
        <ele>397</ele>
        <time>2015-10-11T08:07:00.000Z</time>
      </trkpt>
      <trkpt lat="47.51722" lon="6.73975">
        <ele>396</ele>
        <time>2015-10-11T08:07:01.000Z</time>
      </trkpt>
      <trkpt lat="47.5172" lon="6.73984">
        <ele>396</ele>
        <time>2015-10-11T08:07:02.000Z</time>
      </trkpt>
      <trkpt lat="47.51716" lon="6.73995">
        <ele>396</ele>
        <time>2015-10-11T08:07:03.000Z</time>
      </trkpt>
      <trkpt lat="47.51707" lon="6.74008">
        <ele>393</ele>
        <time>2015-10-11T08:07:04.000Z</time>
      </trkpt>
      <trkpt lat="47.517" lon="6.74019">
        <ele>392</ele>
        <time>2015-10-11T08:07:05.000Z</time>
      </trkpt>
      <trkpt lat="47.51694" lon="6.74033">
        <ele>392</ele>
        <time>2015-10-11T08:07:06.000Z</time>
      </trkpt>
      <trkpt lat="47.51689" lon="6.74044">
        <ele>392</ele>
        <time>2015-10-11T08:07:07.000Z</time>
      </trkpt>
      <trkpt lat="47.51684" lon="6.74056">
        <ele>391</ele>
        <time>2015-10-11T08:07:08.000Z</time>
      </trkpt>
      <trkpt lat="47.51679" lon="6.74067">
        <ele>391</ele>
        <time>2015-10-11T08:07:09.000Z</time>
      </trkpt>
      <trkpt lat="47.51675" lon="6.74074">
        <ele>390</ele>
        <time>2015-10-11T08:07:10.000Z</time>
      </trkpt>
      <trkpt lat="47.51671" lon="6.74085">
        <ele>388</ele>
        <time>2015-10-11T08:07:11.000Z</time>
      </trkpt>
      <trkpt lat="47.51669" lon="6.74096">
        <ele>387</ele>
        <time>2015-10-11T08:07:12.000Z</time>
      </trkpt>
      <trkpt lat="47.51665" lon="6.74103">
        <ele>384</ele>
        <time>2015-10-11T08:07:13.000Z</time>
      </trkpt>
      <trkpt lat="47.51662" lon="6.74108">
        <ele>383</ele>
        <time>2015-10-11T08:07:14.000Z</time>
      </trkpt>
      <trkpt lat="47.51659" lon="6.74113">
        <ele>383</ele>
        <time>2015-10-11T08:07:15.000Z</time>
      </trkpt>
      <trkpt lat="47.51657" lon="6.74119">
        <ele>382</ele>
        <time>2015-10-11T08:07:16.000Z</time>
      </trkpt>
      <trkpt lat="47.51655" lon="6.74123">
        <ele>381</ele>
        <time>2015-10-11T08:07:17.000Z</time>
      </trkpt>
      <trkpt lat="47.51653" lon="6.74129">
        <ele>381</ele>
        <time>2015-10-11T08:07:24.000Z</time>
      </trkpt>
      <trkpt lat="47.51653" lon="6.74129">
        <ele>381</ele>
        <time>2015-10-11T08:07:25.000Z</time>
      </trkpt>
      <trkpt lat="47.51653" lon="6.74135">
        <ele>380</ele>
        <time>2015-10-11T08:07:33.000Z</time>
      </trkpt>
      <trkpt lat="47.51652" lon="6.74137">
        <ele>380</ele>
        <time>2015-10-11T08:07:34.000Z</time>
      </trkpt>
      <trkpt lat="47.51652" lon="6.74143">
        <ele>380</ele>
        <time>2015-10-11T08:07:36.000Z</time>
      </trkpt>
      <trkpt lat="47.51651" lon="6.74147">
        <ele>380</ele>
        <time>2015-10-11T08:07:37.000Z</time>
      </trkpt>
      <trkpt lat="47.5165" lon="6.74149">
        <ele>379</ele>
        <time>2015-10-11T08:07:38.000Z</time>
      </trkpt>
      <trkpt lat="47.51649" lon="6.74153">
        <ele>379</ele>
        <time>2015-10-11T08:07:39.000Z</time>
      </trkpt>
      <trkpt lat="47.51649" lon="6.74157">
        <ele>379</ele>
        <time>2015-10-11T08:07:40.000Z</time>
      </trkpt>
      <trkpt lat="47.51648" lon="6.74161">
        <ele>379</ele>
        <time>2015-10-11T08:07:41.000Z</time>
      </trkpt>
      <trkpt lat="47.51648" lon="6.74166">
        <ele>379</ele>
        <time>2015-10-11T08:07:42.000Z</time>
      </trkpt>
      <trkpt lat="47.51648" lon="6.74171">
        <ele>375</ele>
        <time>2015-10-11T08:07:43.000Z</time>
      </trkpt>
      <trkpt lat="47.51647" lon="6.74176">
        <ele>375</ele>
        <time>2015-10-11T08:07:44.000Z</time>
      </trkpt>
      <trkpt lat="47.51646" lon="6.74182">
        <ele>375</ele>
        <time>2015-10-11T08:07:45.000Z</time>
      </trkpt>
      <trkpt lat="47.51645" lon="6.74187">
        <ele>375</ele>
        <time>2015-10-11T08:07:46.000Z</time>
      </trkpt>
      <trkpt lat="47.51644" lon="6.74191">
        <ele>375</ele>
        <time>2015-10-11T08:07:47.000Z</time>
      </trkpt>
      <trkpt lat="47.51642" lon="6.74196">
        <ele>375</ele>
        <time>2015-10-11T08:07:48.000Z</time>
      </trkpt>
      <trkpt lat="47.51641" lon="6.742">
        <ele>374</ele>
        <time>2015-10-11T08:07:49.000Z</time>
      </trkpt>
      <trkpt lat="47.5164" lon="6.74204">
        <ele>374</ele>
        <time>2015-10-11T08:07:50.000Z</time>
      </trkpt>
      <trkpt lat="47.51639" lon="6.74208">
        <ele>374</ele>
        <time>2015-10-11T08:07:51.000Z</time>
      </trkpt>
      <trkpt lat="47.51638" lon="6.74214">
        <ele>374</ele>
        <time>2015-10-11T08:07:53.000Z</time>
      </trkpt>
      <trkpt lat="47.51637" lon="6.74217">
        <ele>374</ele>
        <time>2015-10-11T08:07:54.000Z</time>
      </trkpt>
      <trkpt lat="47.51637" lon="6.74221">
        <ele>374</ele>
        <time>2015-10-11T08:07:56.000Z</time>
      </trkpt>
      <trkpt lat="47.51637" lon="6.74224">
        <ele>374</ele>
        <time>2015-10-11T08:07:57.000Z</time>
      </trkpt>
      <trkpt lat="47.51636" lon="6.74228">
        <ele>374</ele>
        <time>2015-10-11T08:07:59.000Z</time>
      </trkpt>
      <trkpt lat="47.51636" lon="6.74231">
        <ele>374</ele>
        <time>2015-10-11T08:08:00.000Z</time>
      </trkpt>
      <trkpt lat="47.51636" lon="6.74233">
        <ele>374</ele>
        <time>2015-10-11T08:08:01.000Z</time>
      </trkpt>
      <trkpt lat="47.51636" lon="6.74237">
        <ele>374</ele>
        <time>2015-10-11T08:08:02.000Z</time>
      </trkpt>
      <trkpt lat="47.51636" lon="6.74242">
        <ele>373</ele>
        <time>2015-10-11T08:08:03.000Z</time>
      </trkpt>
      <trkpt lat="47.51636" lon="6.74246">
        <ele>373</ele>
        <time>2015-10-11T08:08:04.000Z</time>
      </trkpt>
      <trkpt lat="47.51636" lon="6.74251">
        <ele>372</ele>
        <time>2015-10-11T08:08:05.000Z</time>
      </trkpt>
      <trkpt lat="47.51635" lon="6.74256">
        <ele>372</ele>
        <time>2015-10-11T08:08:06.000Z</time>
      </trkpt>
      <trkpt lat="47.51634" lon="6.7426">
        <ele>372</ele>
        <time>2015-10-11T08:08:07.000Z</time>
      </trkpt>
      <trkpt lat="47.51633" lon="6.74265">
        <ele>371</ele>
        <time>2015-10-11T08:08:08.000Z</time>
      </trkpt>
      <trkpt lat="47.51632" lon="6.74269">
        <ele>371</ele>
        <time>2015-10-11T08:08:09.000Z</time>
      </trkpt>
      <trkpt lat="47.51631" lon="6.74273">
        <ele>371</ele>
        <time>2015-10-11T08:08:10.000Z</time>
      </trkpt>
      <trkpt lat="47.5163" lon="6.74277">
        <ele>371</ele>
        <time>2015-10-11T08:08:11.000Z</time>
      </trkpt>
      <trkpt lat="47.51629" lon="6.74282">
        <ele>371</ele>
        <time>2015-10-11T08:08:12.000Z</time>
      </trkpt>
      <trkpt lat="47.51628" lon="6.74287">
        <ele>371</ele>
        <time>2015-10-11T08:08:13.000Z</time>
      </trkpt>
      <trkpt lat="47.51627" lon="6.74292">
        <ele>371</ele>
        <time>2015-10-11T08:08:14.000Z</time>
      </trkpt>
      <trkpt lat="47.51626" lon="6.74297">
        <ele>371</ele>
        <time>2015-10-11T08:08:15.000Z</time>
      </trkpt>
      <trkpt lat="47.51626" lon="6.74303">
        <ele>371</ele>
        <time>2015-10-11T08:08:16.000Z</time>
      </trkpt>
      <trkpt lat="47.51625" lon="6.74308">
        <ele>371</ele>
        <time>2015-10-11T08:08:17.000Z</time>
      </trkpt>
      <trkpt lat="47.51624" lon="6.74314">
        <ele>371</ele>
        <time>2015-10-11T08:08:18.000Z</time>
      </trkpt>
      <trkpt lat="47.51623" lon="6.74319">
        <ele>371</ele>
        <time>2015-10-11T08:08:19.000Z</time>
      </trkpt>
      <trkpt lat="47.51623" lon="6.74324">
        <ele>371</ele>
        <time>2015-10-11T08:08:20.000Z</time>
      </trkpt>
      <trkpt lat="47.51622" lon="6.7433">
        <ele>370</ele>
        <time>2015-10-11T08:08:21.000Z</time>
      </trkpt>
      <trkpt lat="47.51621" lon="6.74335">
        <ele>369</ele>
        <time>2015-10-11T08:08:22.000Z</time>
      </trkpt>
      <trkpt lat="47.51621" lon="6.74342">
        <ele>369</ele>
        <time>2015-10-11T08:08:23.000Z</time>
      </trkpt>
      <trkpt lat="47.5162" lon="6.74348">
        <ele>369</ele>
        <time>2015-10-11T08:08:24.000Z</time>
      </trkpt>
      <trkpt lat="47.5162" lon="6.74355">
        <ele>369</ele>
        <time>2015-10-11T08:08:25.000Z</time>
      </trkpt>
      <trkpt lat="47.5162" lon="6.74361">
        <ele>369</ele>
        <time>2015-10-11T08:08:26.000Z</time>
      </trkpt>
      <trkpt lat="47.51621" lon="6.74366">
        <ele>369</ele>
        <time>2015-10-11T08:08:27.000Z</time>
      </trkpt>
      <trkpt lat="47.51621" lon="6.7437">
        <ele>369</ele>
        <time>2015-10-11T08:08:28.000Z</time>
      </trkpt>
      <trkpt lat="47.51621" lon="6.74373">
        <ele>369</ele>
        <time>2015-10-11T08:08:29.000Z</time>
      </trkpt>
      <trkpt lat="47.51623" lon="6.74378">
        <ele>369</ele>
        <time>2015-10-11T08:08:32.000Z</time>
      </trkpt>
      <trkpt lat="47.51623" lon="6.74379">
        <ele>369</ele>
        <time>2015-10-11T08:08:33.000Z</time>
      </trkpt>
      <trkpt lat="47.51624" lon="6.74385">
        <ele>369</ele>
        <time>2015-10-11T08:08:36.000Z</time>
      </trkpt>
      <trkpt lat="47.51624" lon="6.74387">
        <ele>369</ele>
        <time>2015-10-11T08:08:37.000Z</time>
      </trkpt>
      <trkpt lat="47.51625" lon="6.74393">
        <ele>369</ele>
        <time>2015-10-11T08:08:41.000Z</time>
      </trkpt>
      <trkpt lat="47.51626" lon="6.74394">
        <ele>369</ele>
        <time>2015-10-11T08:08:42.000Z</time>
      </trkpt>
      <trkpt lat="47.51629" lon="6.74397">
        <ele>369</ele>
        <time>2015-10-11T08:08:46.000Z</time>
      </trkpt>
      <trkpt lat="47.5163" lon="6.74398">
        <ele>369</ele>
        <time>2015-10-11T08:08:47.000Z</time>
      </trkpt>
      <trkpt lat="47.51632" lon="6.74402">
        <ele>369</ele>
        <time>2015-10-11T08:08:49.000Z</time>
      </trkpt>
      <trkpt lat="47.51633" lon="6.74404">
        <ele>369</ele>
        <time>2015-10-11T08:08:50.000Z</time>
      </trkpt>
      <trkpt lat="47.51634" lon="6.74408">
        <ele>369</ele>
        <time>2015-10-11T08:08:52.000Z</time>
      </trkpt>
      <trkpt lat="47.51634" lon="6.7441">
        <ele>369</ele>
        <time>2015-10-11T08:08:53.000Z</time>
      </trkpt>
      <trkpt lat="47.51634" lon="6.74417">
        <ele>369</ele>
        <time>2015-10-11T08:08:56.000Z</time>
      </trkpt>
      <trkpt lat="47.51635" lon="6.74419">
        <ele>368</ele>
        <time>2015-10-11T08:08:57.000Z</time>
      </trkpt>
      <trkpt lat="47.51636" lon="6.74424">
        <ele>368</ele>
        <time>2015-10-11T08:08:59.000Z</time>
      </trkpt>
      <trkpt lat="47.51636" lon="6.74426">
        <ele>368</ele>
        <time>2015-10-11T08:08:59.998Z</time>
      </trkpt>
      <trkpt lat="47.51635" lon="6.74431">
        <ele>368</ele>
        <time>2015-10-11T08:09:01.000Z</time>
      </trkpt>
      <trkpt lat="47.51634" lon="6.74435">
        <ele>368</ele>
        <time>2015-10-11T08:09:02.000Z</time>
      </trkpt>
      <trkpt lat="47.51632" lon="6.74438">
        <ele>367</ele>
        <time>2015-10-11T08:09:03.000Z</time>
      </trkpt>
      <trkpt lat="47.51629" lon="6.74441">
        <ele>367</ele>
        <time>2015-10-11T08:09:04.000Z</time>
      </trkpt>
      <trkpt lat="47.51625" lon="6.74463">
        <ele>367</ele>
        <time>2015-10-11T08:09:05.000Z</time>
      </trkpt>
      <trkpt lat="47.51623" lon="6.74471">
        <ele>366</ele>
        <time>2015-10-11T08:09:06.000Z</time>
      </trkpt>
      <trkpt lat="47.51622" lon="6.74475">
        <ele>366</ele>
        <time>2015-10-11T08:09:07.000Z</time>
      </trkpt>
      <trkpt lat="47.51621" lon="6.7448">
        <ele>366</ele>
        <time>2015-10-11T08:09:08.000Z</time>
      </trkpt>
      <trkpt lat="47.5162" lon="6.74485">
        <ele>366</ele>
        <time>2015-10-11T08:09:09.000Z</time>
      </trkpt>
      <trkpt lat="47.51621" lon="6.7449">
        <ele>366</ele>
        <time>2015-10-11T08:09:10.000Z</time>
      </trkpt>
      <trkpt lat="47.51621" lon="6.74495">
        <ele>366</ele>
        <time>2015-10-11T08:09:11.000Z</time>
      </trkpt>
      <trkpt lat="47.51619" lon="6.74501">
        <ele>364</ele>
        <time>2015-10-11T08:09:12.000Z</time>
      </trkpt>
      <trkpt lat="47.51619" lon="6.74507">
        <ele>364</ele>
        <time>2015-10-11T08:09:13.000Z</time>
      </trkpt>
      <trkpt lat="47.5162" lon="6.74512">
        <ele>364</ele>
        <time>2015-10-11T08:09:14.000Z</time>
      </trkpt>
      <trkpt lat="47.51622" lon="6.74523">
        <ele>364</ele>
        <time>2015-10-11T08:09:15.000Z</time>
      </trkpt>
      <trkpt lat="47.51622" lon="6.74529">
        <ele>363</ele>
        <time>2015-10-11T08:09:16.000Z</time>
      </trkpt>
      <trkpt lat="47.51622" lon="6.74537">
        <ele>363</ele>
        <time>2015-10-11T08:09:17.000Z</time>
      </trkpt>
      <trkpt lat="47.51623" lon="6.74546">
        <ele>363</ele>
        <time>2015-10-11T08:09:18.000Z</time>
      </trkpt>
      <trkpt lat="47.51622" lon="6.74555">
        <ele>363</ele>
        <time>2015-10-11T08:09:19.000Z</time>
      </trkpt>
      <trkpt lat="47.51624" lon="6.74563">
        <ele>363</ele>
        <time>2015-10-11T08:09:20.000Z</time>
      </trkpt>
      <trkpt lat="47.51625" lon="6.74569">
        <ele>363</ele>
        <time>2015-10-11T08:09:21.000Z</time>
      </trkpt>
      <trkpt lat="47.51626" lon="6.74575">
        <ele>363</ele>
        <time>2015-10-11T08:09:22.000Z</time>
      </trkpt>
      <trkpt lat="47.51628" lon="6.74579">
        <ele>363</ele>
        <time>2015-10-11T08:09:23.000Z</time>
      </trkpt>
      <trkpt lat="47.51629" lon="6.74583">
        <ele>363</ele>
        <time>2015-10-11T08:09:24.000Z</time>
      </trkpt>
      <trkpt lat="47.5163" lon="6.74587">
        <ele>358</ele>
        <time>2015-10-11T08:09:25.000Z</time>
      </trkpt>
      <trkpt lat="47.51631" lon="6.74593">
        <ele>358</ele>
        <time>2015-10-11T08:09:26.000Z</time>
      </trkpt>
      <trkpt lat="47.51633" lon="6.746">
        <ele>357</ele>
        <time>2015-10-11T08:09:27.000Z</time>
      </trkpt>
      <trkpt lat="47.51636" lon="6.74606">
        <ele>357</ele>
        <time>2015-10-11T08:09:28.000Z</time>
      </trkpt>
      <trkpt lat="47.51638" lon="6.74611">
        <ele>357</ele>
        <time>2015-10-11T08:09:29.000Z</time>
      </trkpt>
      <trkpt lat="47.51643" lon="6.74616">
        <ele>357</ele>
        <time>2015-10-11T08:09:30.000Z</time>
      </trkpt>
      <trkpt lat="47.51648" lon="6.74624">
        <ele>356</ele>
        <time>2015-10-11T08:09:31.000Z</time>
      </trkpt>
      <trkpt lat="47.51652" lon="6.74632">
        <ele>355</ele>
        <time>2015-10-11T08:09:32.000Z</time>
      </trkpt>
      <trkpt lat="47.51656" lon="6.74641">
        <ele>354</ele>
        <time>2015-10-11T08:09:33.000Z</time>
      </trkpt>
      <trkpt lat="47.51662" lon="6.74646">
        <ele>354</ele>
        <time>2015-10-11T08:09:34.000Z</time>
      </trkpt>
      <trkpt lat="47.5167" lon="6.7465">
        <ele>354</ele>
        <time>2015-10-11T08:09:35.000Z</time>
      </trkpt>
      <trkpt lat="47.51674" lon="6.7465">
        <ele>354</ele>
        <time>2015-10-11T08:09:36.000Z</time>
      </trkpt>
      <trkpt lat="47.51682" lon="6.7465">
        <ele>354</ele>
        <time>2015-10-11T08:09:37.000Z</time>
      </trkpt>
      <trkpt lat="47.51687" lon="6.74651">
        <ele>354</ele>
        <time>2015-10-11T08:09:38.000Z</time>
      </trkpt>
      <trkpt lat="47.51693" lon="6.74651">
        <ele>354</ele>
        <time>2015-10-11T08:09:39.000Z</time>
      </trkpt>
      <trkpt lat="47.51698" lon="6.74654">
        <ele>354</ele>
        <time>2015-10-11T08:09:40.000Z</time>
      </trkpt>
      <trkpt lat="47.51702" lon="6.74653">
        <ele>354</ele>
        <time>2015-10-11T08:09:41.000Z</time>
      </trkpt>
      <trkpt lat="47.51704" lon="6.74652">
        <ele>354</ele>
        <time>2015-10-11T08:09:42.000Z</time>
      </trkpt>
      <trkpt lat="47.51707" lon="6.74651">
        <ele>354</ele>
        <time>2015-10-11T08:09:43.000Z</time>
      </trkpt>
      <trkpt lat="47.5171" lon="6.74652">
        <ele>354</ele>
        <time>2015-10-11T08:09:44.000Z</time>
      </trkpt>
      <trkpt lat="47.51714" lon="6.74655">
        <ele>353</ele>
        <time>2015-10-11T08:09:45.000Z</time>
      </trkpt>
      <trkpt lat="47.51716" lon="6.74657">
        <ele>353</ele>
        <time>2015-10-11T08:09:46.000Z</time>
      </trkpt>
      <trkpt lat="47.5172" lon="6.74659">
        <ele>353</ele>
        <time>2015-10-11T08:09:47.000Z</time>
      </trkpt>
      <trkpt lat="47.51723" lon="6.74661">
        <ele>352</ele>
        <time>2015-10-11T08:09:48.000Z</time>
      </trkpt>
      <trkpt lat="47.51725" lon="6.74662">
        <ele>352</ele>
        <time>2015-10-11T08:09:49.000Z</time>
      </trkpt>
      <trkpt lat="47.51728" lon="6.74663">
        <ele>352</ele>
        <time>2015-10-11T08:09:50.000Z</time>
      </trkpt>
      <trkpt lat="47.51731" lon="6.74663">
        <ele>351</ele>
        <time>2015-10-11T08:09:51.000Z</time>
      </trkpt>
      <trkpt lat="47.51733" lon="6.74664">
        <ele>351</ele>
        <time>2015-10-11T08:09:52.000Z</time>
      </trkpt>
      <trkpt lat="47.51736" lon="6.74664">
        <ele>350</ele>
        <time>2015-10-11T08:09:53.000Z</time>
      </trkpt>
      <trkpt lat="47.51738" lon="6.74665">
        <ele>350</ele>
        <time>2015-10-11T08:09:54.000Z</time>
      </trkpt>
      <trkpt lat="47.51741" lon="6.74665">
        <ele>349</ele>
        <time>2015-10-11T08:09:55.000Z</time>
      </trkpt>
      <trkpt lat="47.51744" lon="6.74666">
        <ele>348</ele>
        <time>2015-10-11T08:09:56.000Z</time>
      </trkpt>
      <trkpt lat="47.51748" lon="6.74665">
        <ele>347</ele>
        <time>2015-10-11T08:09:58.000Z</time>
      </trkpt>
      <trkpt lat="47.51749" lon="6.74665">
        <ele>347</ele>
        <time>2015-10-11T08:09:59.000Z</time>
      </trkpt>
      <trkpt lat="47.51753" lon="6.74666">
        <ele>346</ele>
        <time>2015-10-11T08:10:03.000Z</time>
      </trkpt>
      <trkpt lat="47.51756" lon="6.74666">
        <ele>347</ele>
        <time>2015-10-11T08:10:04.000Z</time>
      </trkpt>
      <trkpt lat="47.5176" lon="6.74667">
        <ele>345</ele>
        <time>2015-10-11T08:10:06.000Z</time>
      </trkpt>
      <trkpt lat="47.51763" lon="6.74667">
        <ele>344</ele>
        <time>2015-10-11T08:10:07.000Z</time>
      </trkpt>
      <trkpt lat="47.51765" lon="6.74667">
        <ele>344</ele>
        <time>2015-10-11T08:10:08.000Z</time>
      </trkpt>
      <trkpt lat="47.51768" lon="6.74668">
        <ele>344</ele>
        <time>2015-10-11T08:10:09.000Z</time>
      </trkpt>
      <trkpt lat="47.51772" lon="6.74668">
        <ele>343</ele>
        <time>2015-10-11T08:10:10.000Z</time>
      </trkpt>
      <trkpt lat="47.51775" lon="6.74668">
        <ele>343</ele>
        <time>2015-10-11T08:10:11.000Z</time>
      </trkpt>
      <trkpt lat="47.51778" lon="6.74668">
        <ele>343</ele>
        <time>2015-10-11T08:10:12.000Z</time>
      </trkpt>
      <trkpt lat="47.51782" lon="6.74668">
        <ele>343</ele>
        <time>2015-10-11T08:10:13.000Z</time>
      </trkpt>
      <trkpt lat="47.51784" lon="6.74668">
        <ele>342</ele>
        <time>2015-10-11T08:10:14.000Z</time>
      </trkpt>
      <trkpt lat="47.51787" lon="6.74669">
        <ele>342</ele>
        <time>2015-10-11T08:10:15.000Z</time>
      </trkpt>
      <trkpt lat="47.5179" lon="6.74669">
        <ele>342</ele>
        <time>2015-10-11T08:10:16.000Z</time>
      </trkpt>
      <trkpt lat="47.51793" lon="6.74669">
        <ele>342</ele>
        <time>2015-10-11T08:10:17.000Z</time>
      </trkpt>
      <trkpt lat="47.51796" lon="6.74669">
        <ele>342</ele>
        <time>2015-10-11T08:10:18.000Z</time>
      </trkpt>
      <trkpt lat="47.51799" lon="6.7467">
        <ele>342</ele>
        <time>2015-10-11T08:10:19.000Z</time>
      </trkpt>
      <trkpt lat="47.51802" lon="6.7467">
        <ele>342</ele>
        <time>2015-10-11T08:10:21.000Z</time>
      </trkpt>
      <trkpt lat="47.51804" lon="6.74671">
        <ele>341</ele>
        <time>2015-10-11T08:10:22.000Z</time>
      </trkpt>
      <trkpt lat="47.51807" lon="6.74672">
        <ele>341</ele>
        <time>2015-10-11T08:10:24.000Z</time>
      </trkpt>
      <trkpt lat="47.51808" lon="6.74673">
        <ele>341</ele>
        <time>2015-10-11T08:10:25.000Z</time>
      </trkpt>
      <trkpt lat="47.51809" lon="6.74678">
        <ele>341</ele>
        <time>2015-10-11T08:10:27.000Z</time>
      </trkpt>
      <trkpt lat="47.51809" lon="6.74681">
        <ele>341</ele>
        <time>2015-10-11T08:10:28.000Z</time>
      </trkpt>
      <trkpt lat="47.51809" lon="6.74687">
        <ele>341</ele>
        <time>2015-10-11T08:10:30.000Z</time>
      </trkpt>
      <trkpt lat="47.51809" lon="6.74691">
        <ele>341</ele>
        <time>2015-10-11T08:10:31.000Z</time>
      </trkpt>
      <trkpt lat="47.51809" lon="6.74695">
        <ele>341</ele>
        <time>2015-10-11T08:10:32.000Z</time>
      </trkpt>
      <trkpt lat="47.51809" lon="6.74699">
        <ele>341</ele>
        <time>2015-10-11T08:10:33.000Z</time>
      </trkpt>
      <trkpt lat="47.51809" lon="6.74703">
        <ele>341</ele>
        <time>2015-10-11T08:10:34.000Z</time>
      </trkpt>
      <trkpt lat="47.51809" lon="6.74708">
        <ele>341</ele>
        <time>2015-10-11T08:10:35.000Z</time>
      </trkpt>
      <trkpt lat="47.51808" lon="6.74713">
        <ele>341</ele>
        <time>2015-10-11T08:10:36.000Z</time>
      </trkpt>
      <trkpt lat="47.51808" lon="6.74719">
        <ele>341</ele>
        <time>2015-10-11T08:10:37.000Z</time>
      </trkpt>
      <trkpt lat="47.51808" lon="6.74725">
        <ele>341</ele>
        <time>2015-10-11T08:10:38.000Z</time>
      </trkpt>
      <trkpt lat="47.51807" lon="6.74731">
        <ele>341</ele>
        <time>2015-10-11T08:10:39.000Z</time>
      </trkpt>
      <trkpt lat="47.51807" lon="6.74738">
        <ele>340</ele>
        <time>2015-10-11T08:10:40.000Z</time>
      </trkpt>
      <trkpt lat="47.51807" lon="6.74744">
        <ele>340</ele>
        <time>2015-10-11T08:10:41.000Z</time>
      </trkpt>
      <trkpt lat="47.51807" lon="6.74751">
        <ele>338</ele>
        <time>2015-10-11T08:10:42.000Z</time>
      </trkpt>
      <trkpt lat="47.51807" lon="6.74757">
        <ele>337</ele>
        <time>2015-10-11T08:10:43.000Z</time>
      </trkpt>
      <trkpt lat="47.51807" lon="6.74763">
        <ele>337</ele>
        <time>2015-10-11T08:10:44.000Z</time>
      </trkpt>
      <trkpt lat="47.51806" lon="6.74769">
        <ele>337</ele>
        <time>2015-10-11T08:10:45.000Z</time>
      </trkpt>
      <trkpt lat="47.51804" lon="6.7478">
        <ele>337</ele>
        <time>2015-10-11T08:10:46.000Z</time>
      </trkpt>
      <trkpt lat="47.51802" lon="6.7479">
        <ele>336</ele>
        <time>2015-10-11T08:10:47.000Z</time>
      </trkpt>
      <trkpt lat="47.51794" lon="6.74798">
        <ele>336</ele>
        <time>2015-10-11T08:10:48.000Z</time>
      </trkpt>
      <trkpt lat="47.51789" lon="6.74807">
        <ele>336</ele>
        <time>2015-10-11T08:10:49.000Z</time>
      </trkpt>
      <trkpt lat="47.51787" lon="6.74816">
        <ele>336</ele>
        <time>2015-10-11T08:10:50.000Z</time>
      </trkpt>
      <trkpt lat="47.51788" lon="6.74826">
        <ele>335</ele>
        <time>2015-10-11T08:10:51.000Z</time>
      </trkpt>
      <trkpt lat="47.51792" lon="6.74835">
        <ele>331</ele>
        <time>2015-10-11T08:10:52.000Z</time>
      </trkpt>
      <trkpt lat="47.51796" lon="6.74843">
        <ele>331</ele>
        <time>2015-10-11T08:10:53.000Z</time>
      </trkpt>
      <trkpt lat="47.51799" lon="6.74852">
        <ele>331</ele>
        <time>2015-10-11T08:10:54.000Z</time>
      </trkpt>
      <trkpt lat="47.51803" lon="6.7486">
        <ele>331</ele>
        <time>2015-10-11T08:10:55.000Z</time>
      </trkpt>
      <trkpt lat="47.5181" lon="6.74862">
        <ele>331</ele>
        <time>2015-10-11T08:10:56.000Z</time>
      </trkpt>
      <trkpt lat="47.51816" lon="6.74866">
        <ele>330</ele>
        <time>2015-10-11T08:10:57.000Z</time>
      </trkpt>
      <trkpt lat="47.51824" lon="6.74869">
        <ele>330</ele>
        <time>2015-10-11T08:10:58.000Z</time>
      </trkpt>
      <trkpt lat="47.5183" lon="6.74874">
        <ele>330</ele>
        <time>2015-10-11T08:10:59.000Z</time>
      </trkpt>
      <trkpt lat="47.51835" lon="6.74879">
        <ele>330</ele>
        <time>2015-10-11T08:11:00.000Z</time>
      </trkpt>
      <trkpt lat="47.51839" lon="6.74883">
        <ele>329</ele>
        <time>2015-10-11T08:11:01.000Z</time>
      </trkpt>
      <trkpt lat="47.51842" lon="6.74888">
        <ele>329</ele>
        <time>2015-10-11T08:11:02.000Z</time>
      </trkpt>
      <trkpt lat="47.51845" lon="6.74893">
        <ele>329</ele>
        <time>2015-10-11T08:11:03.000Z</time>
      </trkpt>
      <trkpt lat="47.51847" lon="6.74898">
        <ele>329</ele>
        <time>2015-10-11T08:11:04.000Z</time>
      </trkpt>
      <trkpt lat="47.51849" lon="6.74898">
        <ele>329</ele>
        <time>2015-10-11T08:11:05.000Z</time>
      </trkpt>
      <trkpt lat="47.51852" lon="6.74899">
        <ele>329</ele>
        <time>2015-10-11T08:11:06.000Z</time>
      </trkpt>
      <trkpt lat="47.51854" lon="6.749">
        <ele>329</ele>
        <time>2015-10-11T08:11:07.000Z</time>
      </trkpt>
      <trkpt lat="47.51856" lon="6.749">
        <ele>329</ele>
        <time>2015-10-11T08:11:08.000Z</time>
      </trkpt>
      <trkpt lat="47.51858" lon="6.749">
        <ele>329</ele>
        <time>2015-10-11T08:11:09.000Z</time>
      </trkpt>
      <trkpt lat="47.51861" lon="6.74901">
        <ele>329</ele>
        <time>2015-10-11T08:11:10.000Z</time>
      </trkpt>
      <trkpt lat="47.51863" lon="6.74903">
        <ele>329</ele>
        <time>2015-10-11T08:11:11.000Z</time>
      </trkpt>
      <trkpt lat="47.51866" lon="6.74904">
        <ele>329</ele>
        <time>2015-10-11T08:11:12.000Z</time>
      </trkpt>
      <trkpt lat="47.51868" lon="6.74905">
        <ele>329</ele>
        <time>2015-10-11T08:11:13.000Z</time>
      </trkpt>
      <trkpt lat="47.51872" lon="6.74907">
        <ele>329</ele>
        <time>2015-10-11T08:11:14.000Z</time>
      </trkpt>
      <trkpt lat="47.51875" lon="6.7491">
        <ele>329</ele>
        <time>2015-10-11T08:11:15.000Z</time>
      </trkpt>
      <trkpt lat="47.51879" lon="6.74912">
        <ele>329</ele>
        <time>2015-10-11T08:11:16.000Z</time>
      </trkpt>
      <trkpt lat="47.51883" lon="6.74914">
        <ele>329</ele>
        <time>2015-10-11T08:11:17.000Z</time>
      </trkpt>
      <trkpt lat="47.51886" lon="6.74916">
        <ele>329</ele>
        <time>2015-10-11T08:11:18.000Z</time>
      </trkpt>
      <trkpt lat="47.51889" lon="6.74919">
        <ele>328</ele>
        <time>2015-10-11T08:11:19.000Z</time>
      </trkpt>
      <trkpt lat="47.51893" lon="6.74922">
        <ele>328</ele>
        <time>2015-10-11T08:11:20.000Z</time>
      </trkpt>
      <trkpt lat="47.51896" lon="6.74925">
        <ele>328</ele>
        <time>2015-10-11T08:11:21.000Z</time>
      </trkpt>
      <trkpt lat="47.51899" lon="6.74929">
        <ele>328</ele>
        <time>2015-10-11T08:11:22.000Z</time>
      </trkpt>
      <trkpt lat="47.51901" lon="6.74933">
        <ele>328</ele>
        <time>2015-10-11T08:11:23.000Z</time>
      </trkpt>
      <trkpt lat="47.51904" lon="6.74936">
        <ele>328</ele>
        <time>2015-10-11T08:11:24.000Z</time>
      </trkpt>
      <trkpt lat="47.51907" lon="6.74939">
        <ele>328</ele>
        <time>2015-10-11T08:11:25.000Z</time>
      </trkpt>
      <trkpt lat="47.51911" lon="6.74942">
        <ele>328</ele>
        <time>2015-10-11T08:11:26.000Z</time>
      </trkpt>
      <trkpt lat="47.51913" lon="6.74945">
        <ele>328</ele>
        <time>2015-10-11T08:11:27.000Z</time>
      </trkpt>
      <trkpt lat="47.51916" lon="6.74948">
        <ele>328</ele>
        <time>2015-10-11T08:11:28.000Z</time>
      </trkpt>
      <trkpt lat="47.51917" lon="6.74952">
        <ele>331</ele>
        <time>2015-10-11T08:11:29.000Z</time>
      </trkpt>
      <trkpt lat="47.51918" lon="6.74957">
        <ele>331</ele>
        <time>2015-10-11T08:11:30.000Z</time>
      </trkpt>
      <trkpt lat="47.51917" lon="6.74962">
        <ele>331</ele>
        <time>2015-10-11T08:11:31.000Z</time>
      </trkpt>
      <trkpt lat="47.51917" lon="6.74968">
        <ele>331</ele>
        <time>2015-10-11T08:11:32.000Z</time>
      </trkpt>
      <trkpt lat="47.51917" lon="6.74974">
        <ele>331</ele>
        <time>2015-10-11T08:11:33.000Z</time>
      </trkpt>
      <trkpt lat="47.51918" lon="6.7498">
        <ele>331</ele>
        <time>2015-10-11T08:11:34.000Z</time>
      </trkpt>
      <trkpt lat="47.5192" lon="6.74985">
        <ele>330</ele>
        <time>2015-10-11T08:11:35.000Z</time>
      </trkpt>
      <trkpt lat="47.51922" lon="6.7499">
        <ele>330</ele>
        <time>2015-10-11T08:11:36.000Z</time>
      </trkpt>
      <trkpt lat="47.51925" lon="6.74995">
        <ele>330</ele>
        <time>2015-10-11T08:11:37.000Z</time>
      </trkpt>
      <trkpt lat="47.51929" lon="6.75">
        <ele>330</ele>
        <time>2015-10-11T08:11:38.000Z</time>
      </trkpt>
      <trkpt lat="47.51932" lon="6.75004">
        <ele>330</ele>
        <time>2015-10-11T08:11:39.000Z</time>
      </trkpt>
      <trkpt lat="47.51935" lon="6.75008">
        <ele>331</ele>
        <time>2015-10-11T08:11:40.000Z</time>
      </trkpt>
      <trkpt lat="47.51938" lon="6.75013">
        <ele>331</ele>
        <time>2015-10-11T08:11:41.000Z</time>
      </trkpt>
      <trkpt lat="47.51941" lon="6.75017">
        <ele>332</ele>
        <time>2015-10-11T08:11:42.000Z</time>
      </trkpt>
      <trkpt lat="47.51944" lon="6.75018">
        <ele>332</ele>
        <time>2015-10-11T08:11:43.000Z</time>
      </trkpt>
      <trkpt lat="47.51947" lon="6.75022">
        <ele>332</ele>
        <time>2015-10-11T08:11:44.000Z</time>
      </trkpt>
      <trkpt lat="47.51951" lon="6.75025">
        <ele>333</ele>
        <time>2015-10-11T08:11:45.000Z</time>
      </trkpt>
      <trkpt lat="47.51954" lon="6.75028">
        <ele>333</ele>
        <time>2015-10-11T08:11:46.000Z</time>
      </trkpt>
      <trkpt lat="47.51956" lon="6.75028">
        <ele>333</ele>
        <time>2015-10-11T08:11:47.000Z</time>
      </trkpt>
      <trkpt lat="47.51959" lon="6.7503">
        <ele>333</ele>
        <time>2015-10-11T08:11:48.000Z</time>
      </trkpt>
      <trkpt lat="47.51962" lon="6.75032">
        <ele>333</ele>
        <time>2015-10-11T08:11:49.000Z</time>
      </trkpt>
      <trkpt lat="47.51964" lon="6.75033">
        <ele>333</ele>
        <time>2015-10-11T08:11:50.000Z</time>
      </trkpt>
      <trkpt lat="47.51967" lon="6.75034">
        <ele>333</ele>
        <time>2015-10-11T08:11:51.000Z</time>
      </trkpt>
      <trkpt lat="47.51969" lon="6.75035">
        <ele>333</ele>
        <time>2015-10-11T08:11:52.000Z</time>
      </trkpt>
      <trkpt lat="47.51972" lon="6.75036">
        <ele>333</ele>
        <time>2015-10-11T08:11:53.000Z</time>
      </trkpt>
      <trkpt lat="47.51974" lon="6.75038">
        <ele>334</ele>
        <time>2015-10-11T08:11:54.000Z</time>
      </trkpt>
      <trkpt lat="47.51976" lon="6.75038">
        <ele>334</ele>
        <time>2015-10-11T08:11:55.000Z</time>
      </trkpt>
      <trkpt lat="47.51981" lon="6.7504">
        <ele>334</ele>
        <time>2015-10-11T08:11:57.000Z</time>
      </trkpt>
      <trkpt lat="47.51982" lon="6.75041">
        <ele>334</ele>
        <time>2015-10-11T08:11:58.000Z</time>
      </trkpt>
      <trkpt lat="47.51986" lon="6.75043">
        <ele>334</ele>
        <time>2015-10-11T08:12:00.000Z</time>
      </trkpt>
      <trkpt lat="47.51988" lon="6.75044">
        <ele>334</ele>
        <time>2015-10-11T08:12:01.000Z</time>
      </trkpt>
      <trkpt lat="47.5199" lon="6.75045">
        <ele>334</ele>
        <time>2015-10-11T08:12:02.000Z</time>
      </trkpt>
      <trkpt lat="47.51992" lon="6.75046">
        <ele>334</ele>
        <time>2015-10-11T08:12:03.000Z</time>
      </trkpt>
      <trkpt lat="47.51997" lon="6.75048">
        <ele>334</ele>
        <time>2015-10-11T08:12:05.000Z</time>
      </trkpt>
      <trkpt lat="47.51998" lon="6.75049">
        <ele>334</ele>
        <time>2015-10-11T08:12:06.000Z</time>
      </trkpt>
      <trkpt lat="47.52002" lon="6.75051">
        <ele>339</ele>
        <time>2015-10-11T08:12:08.000Z</time>
      </trkpt>
      <trkpt lat="47.52003" lon="6.75051">
        <ele>339</ele>
        <time>2015-10-11T08:12:09.000Z</time>
      </trkpt>
      <trkpt lat="47.52007" lon="6.75053">
        <ele>339</ele>
        <time>2015-10-11T08:12:11.000Z</time>
      </trkpt>
      <trkpt lat="47.52008" lon="6.75054">
        <ele>339</ele>
        <time>2015-10-11T08:12:12.000Z</time>
      </trkpt>
      <trkpt lat="47.52011" lon="6.75056">
        <ele>339</ele>
        <time>2015-10-11T08:12:14.000Z</time>
      </trkpt>
      <trkpt lat="47.52012" lon="6.75056">
        <ele>339</ele>
        <time>2015-10-11T08:12:15.000Z</time>
      </trkpt>
      <trkpt lat="47.52016" lon="6.75057">
        <ele>340</ele>
        <time>2015-10-11T08:12:17.000Z</time>
      </trkpt>
      <trkpt lat="47.52017" lon="6.75058">
        <ele>340</ele>
        <time>2015-10-11T08:12:18.000Z</time>
      </trkpt>
      <trkpt lat="47.52021" lon="6.75059">
        <ele>340</ele>
        <time>2015-10-11T08:12:20.000Z</time>
      </trkpt>
      <trkpt lat="47.52023" lon="6.7506">
        <ele>340</ele>
        <time>2015-10-11T08:12:21.000Z</time>
      </trkpt>
      <trkpt lat="47.52026" lon="6.75063">
        <ele>340</ele>
        <time>2015-10-11T08:12:23.000Z</time>
      </trkpt>
      <trkpt lat="47.52028" lon="6.75064">
        <ele>340</ele>
        <time>2015-10-11T08:12:24.000Z</time>
      </trkpt>
      <trkpt lat="47.52031" lon="6.75065">
        <ele>341</ele>
        <time>2015-10-11T08:12:26.000Z</time>
      </trkpt>
      <trkpt lat="47.52033" lon="6.75066">
        <ele>341</ele>
        <time>2015-10-11T08:12:27.000Z</time>
      </trkpt>
      <trkpt lat="47.52037" lon="6.75068">
        <ele>341</ele>
        <time>2015-10-11T08:12:29.000Z</time>
      </trkpt>
      <trkpt lat="47.52038" lon="6.75069">
        <ele>341</ele>
        <time>2015-10-11T08:12:30.000Z</time>
      </trkpt>
      <trkpt lat="47.52042" lon="6.7507">
        <ele>341</ele>
        <time>2015-10-11T08:12:32.000Z</time>
      </trkpt>
      <trkpt lat="47.52043" lon="6.75071">
        <ele>342</ele>
        <time>2015-10-11T08:12:33.000Z</time>
      </trkpt>
      <trkpt lat="47.52048" lon="6.75072">
        <ele>342</ele>
        <time>2015-10-11T08:12:36.000Z</time>
      </trkpt>
      <trkpt lat="47.52049" lon="6.75072">
        <ele>342</ele>
        <time>2015-10-11T08:12:37.000Z</time>
      </trkpt>
      <trkpt lat="47.52053" lon="6.75073">
        <ele>342</ele>
        <time>2015-10-11T08:12:39.000Z</time>
      </trkpt>
      <trkpt lat="47.52055" lon="6.75074">
        <ele>343</ele>
        <time>2015-10-11T08:12:40.000Z</time>
      </trkpt>
      <trkpt lat="47.52059" lon="6.75078">
        <ele>343</ele>
        <time>2015-10-11T08:12:42.000Z</time>
      </trkpt>
      <trkpt lat="47.5206" lon="6.75079">
        <ele>343</ele>
        <time>2015-10-11T08:12:43.000Z</time>
      </trkpt>
      <trkpt lat="47.52064" lon="6.7508">
        <ele>343</ele>
        <time>2015-10-11T08:12:45.000Z</time>
      </trkpt>
      <trkpt lat="47.52066" lon="6.7508">
        <ele>344</ele>
        <time>2015-10-11T08:12:46.000Z</time>
      </trkpt>
      <trkpt lat="47.5207" lon="6.75081">
        <ele>344</ele>
        <time>2015-10-11T08:12:48.000Z</time>
      </trkpt>
      <trkpt lat="47.52072" lon="6.75081">
        <ele>344</ele>
        <time>2015-10-11T08:12:49.000Z</time>
      </trkpt>
      <trkpt lat="47.52076" lon="6.75082">
        <ele>345</ele>
        <time>2015-10-11T08:12:51.000Z</time>
      </trkpt>
      <trkpt lat="47.52078" lon="6.75082">
        <ele>345</ele>
        <time>2015-10-11T08:12:52.000Z</time>
      </trkpt>
      <trkpt lat="47.52081" lon="6.75082">
        <ele>346</ele>
        <time>2015-10-11T08:12:54.000Z</time>
      </trkpt>
      <trkpt lat="47.52083" lon="6.75081">
        <ele>346</ele>
        <time>2015-10-11T08:12:55.000Z</time>
      </trkpt>
      <trkpt lat="47.52086" lon="6.75081">
        <ele>347</ele>
        <time>2015-10-11T08:12:57.000Z</time>
      </trkpt>
      <trkpt lat="47.52088" lon="6.75081">
        <ele>347</ele>
        <time>2015-10-11T08:12:58.000Z</time>
      </trkpt>
      <trkpt lat="47.52091" lon="6.75082">
        <ele>348</ele>
        <time>2015-10-11T08:13:00.000Z</time>
      </trkpt>
      <trkpt lat="47.52093" lon="6.75082">
        <ele>349</ele>
        <time>2015-10-11T08:13:01.000Z</time>
      </trkpt>
      <trkpt lat="47.52096" lon="6.75082">
        <ele>349</ele>
        <time>2015-10-11T08:13:03.000Z</time>
      </trkpt>
      <trkpt lat="47.52098" lon="6.75082">
        <ele>350</ele>
        <time>2015-10-11T08:13:04.000Z</time>
      </trkpt>
      <trkpt lat="47.52102" lon="6.75081">
        <ele>350</ele>
        <time>2015-10-11T08:13:07.000Z</time>
      </trkpt>
      <trkpt lat="47.52104" lon="6.75081">
        <ele>351</ele>
        <time>2015-10-11T08:13:08.000Z</time>
      </trkpt>
      <trkpt lat="47.52107" lon="6.75081">
        <ele>351</ele>
        <time>2015-10-11T08:13:10.000Z</time>
      </trkpt>
      <trkpt lat="47.52109" lon="6.7508">
        <ele>351</ele>
        <time>2015-10-11T08:13:11.000Z</time>
      </trkpt>
      <trkpt lat="47.52113" lon="6.75079">
        <ele>352</ele>
        <time>2015-10-11T08:13:14.000Z</time>
      </trkpt>
      <trkpt lat="47.52114" lon="6.75078">
        <ele>352</ele>
        <time>2015-10-11T08:13:15.000Z</time>
      </trkpt>
      <trkpt lat="47.52117" lon="6.75077">
        <ele>352</ele>
        <time>2015-10-11T08:13:17.000Z</time>
      </trkpt>
      <trkpt lat="47.52119" lon="6.75077">
        <ele>353</ele>
        <time>2015-10-11T08:13:18.000Z</time>
      </trkpt>
      <trkpt lat="47.52122" lon="6.75077">
        <ele>353</ele>
        <time>2015-10-11T08:13:20.000Z</time>
      </trkpt>
      <trkpt lat="47.52124" lon="6.75077">
        <ele>353</ele>
        <time>2015-10-11T08:13:21.000Z</time>
      </trkpt>
      <trkpt lat="47.52127" lon="6.75077">
        <ele>353</ele>
        <time>2015-10-11T08:13:23.000Z</time>
      </trkpt>
      <trkpt lat="47.52128" lon="6.75077">
        <ele>354</ele>
        <time>2015-10-11T08:13:24.000Z</time>
      </trkpt>
      <trkpt lat="47.52132" lon="6.75078">
        <ele>354</ele>
        <time>2015-10-11T08:13:26.000Z</time>
      </trkpt>
      <trkpt lat="47.52133" lon="6.75078">
        <ele>354</ele>
        <time>2015-10-11T08:13:27.000Z</time>
      </trkpt>
      <trkpt lat="47.52137" lon="6.75079">
        <ele>355</ele>
        <time>2015-10-11T08:13:29.000Z</time>
      </trkpt>
      <trkpt lat="47.52139" lon="6.7508">
        <ele>355</ele>
        <time>2015-10-11T08:13:30.000Z</time>
      </trkpt>
      <trkpt lat="47.52143" lon="6.75081">
        <ele>355</ele>
        <time>2015-10-11T08:13:32.000Z</time>
      </trkpt>
      <trkpt lat="47.52144" lon="6.75082">
        <ele>355</ele>
        <time>2015-10-11T08:13:33.000Z</time>
      </trkpt>
      <trkpt lat="47.52149" lon="6.75084">
        <ele>354</ele>
        <time>2015-10-11T08:13:35.000Z</time>
      </trkpt>
      <trkpt lat="47.52151" lon="6.75085">
        <ele>354</ele>
        <time>2015-10-11T08:13:36.000Z</time>
      </trkpt>
      <trkpt lat="47.52155" lon="6.75085">
        <ele>355</ele>
        <time>2015-10-11T08:13:38.000Z</time>
      </trkpt>
      <trkpt lat="47.52157" lon="6.75085">
        <ele>355</ele>
        <time>2015-10-11T08:13:39.000Z</time>
      </trkpt>
      <trkpt lat="47.5216" lon="6.75086">
        <ele>356</ele>
        <time>2015-10-11T08:13:41.000Z</time>
      </trkpt>
      <trkpt lat="47.52162" lon="6.75086">
        <ele>356</ele>
        <time>2015-10-11T08:13:42.000Z</time>
      </trkpt>
      <trkpt lat="47.52166" lon="6.75086">
        <ele>357</ele>
        <time>2015-10-11T08:13:44.000Z</time>
      </trkpt>
      <trkpt lat="47.52168" lon="6.75086">
        <ele>358</ele>
        <time>2015-10-11T08:13:45.000Z</time>
      </trkpt>
      <trkpt lat="47.52172" lon="6.75086">
        <ele>358</ele>
        <time>2015-10-11T08:13:47.000Z</time>
      </trkpt>
      <trkpt lat="47.52174" lon="6.75086">
        <ele>358</ele>
        <time>2015-10-11T08:13:48.000Z</time>
      </trkpt>
      <trkpt lat="47.52178" lon="6.75085">
        <ele>359</ele>
        <time>2015-10-11T08:13:50.000Z</time>
      </trkpt>
      <trkpt lat="47.5218" lon="6.75084">
        <ele>359</ele>
        <time>2015-10-11T08:13:51.000Z</time>
      </trkpt>
      <trkpt lat="47.52185" lon="6.75083">
        <ele>359</ele>
        <time>2015-10-11T08:13:53.000Z</time>
      </trkpt>
      <trkpt lat="47.52187" lon="6.75084">
        <ele>359</ele>
        <time>2015-10-11T08:13:54.000Z</time>
      </trkpt>
      <trkpt lat="47.52191" lon="6.75084">
        <ele>359</ele>
        <time>2015-10-11T08:13:56.000Z</time>
      </trkpt>
      <trkpt lat="47.52193" lon="6.75084">
        <ele>359</ele>
        <time>2015-10-11T08:13:57.000Z</time>
      </trkpt>
      <trkpt lat="47.52196" lon="6.75083">
        <ele>360</ele>
        <time>2015-10-11T08:13:59.000Z</time>
      </trkpt>
      <trkpt lat="47.52198" lon="6.75083">
        <ele>363</ele>
        <time>2015-10-11T08:14:00.000Z</time>
      </trkpt>
      <trkpt lat="47.52202" lon="6.75083">
        <ele>363</ele>
        <time>2015-10-11T08:14:02.000Z</time>
      </trkpt>
      <trkpt lat="47.52204" lon="6.75082">
        <ele>363</ele>
        <time>2015-10-11T08:14:03.000Z</time>
      </trkpt>
      <trkpt lat="47.52208" lon="6.75082">
        <ele>364</ele>
        <time>2015-10-11T08:14:05.000Z</time>
      </trkpt>
      <trkpt lat="47.5221" lon="6.75083">
        <ele>364</ele>
        <time>2015-10-11T08:14:06.000Z</time>
      </trkpt>
      <trkpt lat="47.52213" lon="6.75081">
        <ele>364</ele>
        <time>2015-10-11T08:14:08.000Z</time>
      </trkpt>
      <trkpt lat="47.52214" lon="6.7508">
        <ele>364</ele>
        <time>2015-10-11T08:14:09.000Z</time>
      </trkpt>
      <trkpt lat="47.52218" lon="6.7508">
        <ele>364</ele>
        <time>2015-10-11T08:14:11.000Z</time>
      </trkpt>
      <trkpt lat="47.5222" lon="6.7508">
        <ele>364</ele>
        <time>2015-10-11T08:14:12.000Z</time>
      </trkpt>
      <trkpt lat="47.52223" lon="6.75078">
        <ele>365</ele>
        <time>2015-10-11T08:14:14.000Z</time>
      </trkpt>
      <trkpt lat="47.52225" lon="6.75077">
        <ele>365</ele>
        <time>2015-10-11T08:14:15.000Z</time>
      </trkpt>
      <trkpt lat="47.52229" lon="6.75075">
        <ele>365</ele>
        <time>2015-10-11T08:14:17.000Z</time>
      </trkpt>
      <trkpt lat="47.52231" lon="6.75075">
        <ele>365</ele>
        <time>2015-10-11T08:14:18.000Z</time>
      </trkpt>
      <trkpt lat="47.52234" lon="6.75074">
        <ele>365</ele>
        <time>2015-10-11T08:14:20.000Z</time>
      </trkpt>
      <trkpt lat="47.52236" lon="6.75073">
        <ele>365</ele>
        <time>2015-10-11T08:14:21.000Z</time>
      </trkpt>
      <trkpt lat="47.52239" lon="6.75072">
        <ele>365</ele>
        <time>2015-10-11T08:14:24.000Z</time>
      </trkpt>
      <trkpt lat="47.5224" lon="6.75071">
        <ele>365</ele>
        <time>2015-10-11T08:14:25.000Z</time>
      </trkpt>
      <trkpt lat="47.52243" lon="6.75068">
        <ele>365</ele>
        <time>2015-10-11T08:14:27.000Z</time>
      </trkpt>
      <trkpt lat="47.52244" lon="6.75065">
        <ele>365</ele>
        <time>2015-10-11T08:14:28.000Z</time>
      </trkpt>
      <trkpt lat="47.52244" lon="6.75062">
        <ele>365</ele>
        <time>2015-10-11T08:14:29.000Z</time>
      </trkpt>
      <trkpt lat="47.52244" lon="6.75058">
        <ele>365</ele>
        <time>2015-10-11T08:14:30.000Z</time>
      </trkpt>
      <trkpt lat="47.52244" lon="6.75054">
        <ele>366</ele>
        <time>2015-10-11T08:14:31.000Z</time>
      </trkpt>
      <trkpt lat="47.52244" lon="6.75051">
        <ele>366</ele>
        <time>2015-10-11T08:14:32.000Z</time>
      </trkpt>
      <trkpt lat="47.52243" lon="6.75045">
        <ele>366</ele>
        <time>2015-10-11T08:14:34.000Z</time>
      </trkpt>
      <trkpt lat="47.52243" lon="6.75041">
        <ele>366</ele>
        <time>2015-10-11T08:14:35.000Z</time>
      </trkpt>
      <trkpt lat="47.52243" lon="6.75038">
        <ele>366</ele>
        <time>2015-10-11T08:14:36.000Z</time>
      </trkpt>
      <trkpt lat="47.52242" lon="6.75034">
        <ele>366</ele>
        <time>2015-10-11T08:14:37.000Z</time>
      </trkpt>
      <trkpt lat="47.52241" lon="6.7503">
        <ele>366</ele>
        <time>2015-10-11T08:14:38.000Z</time>
      </trkpt>
      <trkpt lat="47.52241" lon="6.75026">
        <ele>367</ele>
        <time>2015-10-11T08:14:39.000Z</time>
      </trkpt>
      <trkpt lat="47.5224" lon="6.75022">
        <ele>367</ele>
        <time>2015-10-11T08:14:40.000Z</time>
      </trkpt>
      <trkpt lat="47.5224" lon="6.75019">
        <ele>367</ele>
        <time>2015-10-11T08:14:41.000Z</time>
      </trkpt>
      <trkpt lat="47.52239" lon="6.75015">
        <ele>368</ele>
        <time>2015-10-11T08:14:42.000Z</time>
      </trkpt>
      <trkpt lat="47.52239" lon="6.75011">
        <ele>368</ele>
        <time>2015-10-11T08:14:43.000Z</time>
      </trkpt>
      <trkpt lat="47.52238" lon="6.75008">
        <ele>368</ele>
        <time>2015-10-11T08:14:44.000Z</time>
      </trkpt>
      <trkpt lat="47.52238" lon="6.75004">
        <ele>368</ele>
        <time>2015-10-11T08:14:45.000Z</time>
      </trkpt>
      <trkpt lat="47.52237" lon="6.75001">
        <ele>368</ele>
        <time>2015-10-11T08:14:46.000Z</time>
      </trkpt>
      <trkpt lat="47.52237" lon="6.74998">
        <ele>369</ele>
        <time>2015-10-11T08:14:47.000Z</time>
      </trkpt>
      <trkpt lat="47.52236" lon="6.74994">
        <ele>369</ele>
        <time>2015-10-11T08:14:48.000Z</time>
      </trkpt>
      <trkpt lat="47.52236" lon="6.7499">
        <ele>369</ele>
        <time>2015-10-11T08:14:49.000Z</time>
      </trkpt>
      <trkpt lat="47.52236" lon="6.74987">
        <ele>369</ele>
        <time>2015-10-11T08:14:50.000Z</time>
      </trkpt>
      <trkpt lat="47.52236" lon="6.74983">
        <ele>369</ele>
        <time>2015-10-11T08:14:51.000Z</time>
      </trkpt>
      <trkpt lat="47.52236" lon="6.74979">
        <ele>369</ele>
        <time>2015-10-11T08:14:52.000Z</time>
      </trkpt>
      <trkpt lat="47.52235" lon="6.74975">
        <ele>369</ele>
        <time>2015-10-11T08:14:53.000Z</time>
      </trkpt>
      <trkpt lat="47.52235" lon="6.74971">
        <ele>368</ele>
        <time>2015-10-11T08:14:54.000Z</time>
      </trkpt>
      <trkpt lat="47.52235" lon="6.74967">
        <ele>368</ele>
        <time>2015-10-11T08:14:55.000Z</time>
      </trkpt>
      <trkpt lat="47.52236" lon="6.74963">
        <ele>368</ele>
        <time>2015-10-11T08:14:56.000Z</time>
      </trkpt>
      <trkpt lat="47.52236" lon="6.7496">
        <ele>368</ele>
        <time>2015-10-11T08:14:57.000Z</time>
      </trkpt>
      <trkpt lat="47.52236" lon="6.74956">
        <ele>368</ele>
        <time>2015-10-11T08:14:58.000Z</time>
      </trkpt>
      <trkpt lat="47.52236" lon="6.74952">
        <ele>368</ele>
        <time>2015-10-11T08:14:59.000Z</time>
      </trkpt>
      <trkpt lat="47.52236" lon="6.74948">
        <ele>368</ele>
        <time>2015-10-11T08:15:00.000Z</time>
      </trkpt>
      <trkpt lat="47.52237" lon="6.74944">
        <ele>369</ele>
        <time>2015-10-11T08:15:01.000Z</time>
      </trkpt>
      <trkpt lat="47.52237" lon="6.7494">
        <ele>369</ele>
        <time>2015-10-11T08:15:02.000Z</time>
      </trkpt>
      <trkpt lat="47.52237" lon="6.74936">
        <ele>369</ele>
        <time>2015-10-11T08:15:03.000Z</time>
      </trkpt>
      <trkpt lat="47.52237" lon="6.74932">
        <ele>369</ele>
        <time>2015-10-11T08:15:04.000Z</time>
      </trkpt>
      <trkpt lat="47.52237" lon="6.74928">
        <ele>369</ele>
        <time>2015-10-11T08:15:05.000Z</time>
      </trkpt>
      <trkpt lat="47.52237" lon="6.74925">
        <ele>369</ele>
        <time>2015-10-11T08:15:06.000Z</time>
      </trkpt>
      <trkpt lat="47.52237" lon="6.74921">
        <ele>369</ele>
        <time>2015-10-11T08:15:07.000Z</time>
      </trkpt>
      <trkpt lat="47.52237" lon="6.74917">
        <ele>369</ele>
        <time>2015-10-11T08:15:08.000Z</time>
      </trkpt>
      <trkpt lat="47.52237" lon="6.74913">
        <ele>369</ele>
        <time>2015-10-11T08:15:09.000Z</time>
      </trkpt>
      <trkpt lat="47.52238" lon="6.74909">
        <ele>369</ele>
        <time>2015-10-11T08:15:10.000Z</time>
      </trkpt>
      <trkpt lat="47.52238" lon="6.74905">
        <ele>369</ele>
        <time>2015-10-11T08:15:11.000Z</time>
      </trkpt>
      <trkpt lat="47.52238" lon="6.749">
        <ele>368</ele>
        <time>2015-10-11T08:15:12.000Z</time>
      </trkpt>
      <trkpt lat="47.52238" lon="6.74896">
        <ele>368</ele>
        <time>2015-10-11T08:15:13.000Z</time>
      </trkpt>
      <trkpt lat="47.52238" lon="6.74892">
        <ele>368</ele>
        <time>2015-10-11T08:15:14.000Z</time>
      </trkpt>
      <trkpt lat="47.52239" lon="6.74888">
        <ele>368</ele>
        <time>2015-10-11T08:15:15.000Z</time>
      </trkpt>
      <trkpt lat="47.52239" lon="6.74883">
        <ele>368</ele>
        <time>2015-10-11T08:15:16.000Z</time>
      </trkpt>
      <trkpt lat="47.52239" lon="6.74879">
        <ele>368</ele>
        <time>2015-10-11T08:15:17.000Z</time>
      </trkpt>
      <trkpt lat="47.5224" lon="6.74874">
        <ele>367</ele>
        <time>2015-10-11T08:15:18.000Z</time>
      </trkpt>
      <trkpt lat="47.5224" lon="6.7487">
        <ele>367</ele>
        <time>2015-10-11T08:15:19.000Z</time>
      </trkpt>
      <trkpt lat="47.52241" lon="6.74865">
        <ele>367</ele>
        <time>2015-10-11T08:15:20.000Z</time>
      </trkpt>
      <trkpt lat="47.52242" lon="6.7486">
        <ele>367</ele>
        <time>2015-10-11T08:15:21.000Z</time>
      </trkpt>
      <trkpt lat="47.52243" lon="6.74855">
        <ele>368</ele>
        <time>2015-10-11T08:15:22.000Z</time>
      </trkpt>
      <trkpt lat="47.52244" lon="6.7485">
        <ele>368</ele>
        <time>2015-10-11T08:15:23.000Z</time>
      </trkpt>
      <trkpt lat="47.52245" lon="6.74845">
        <ele>368</ele>
        <time>2015-10-11T08:15:24.000Z</time>
      </trkpt>
      <trkpt lat="47.52246" lon="6.7484">
        <ele>368</ele>
        <time>2015-10-11T08:15:25.000Z</time>
      </trkpt>
      <trkpt lat="47.52247" lon="6.74835">
        <ele>369</ele>
        <time>2015-10-11T08:15:26.000Z</time>
      </trkpt>
      <trkpt lat="47.52248" lon="6.7483">
        <ele>368</ele>
        <time>2015-10-11T08:15:27.000Z</time>
      </trkpt>
      <trkpt lat="47.52249" lon="6.74825">
        <ele>368</ele>
        <time>2015-10-11T08:15:28.000Z</time>
      </trkpt>
      <trkpt lat="47.5225" lon="6.74821">
        <ele>367</ele>
        <time>2015-10-11T08:15:29.000Z</time>
      </trkpt>
      <trkpt lat="47.52251" lon="6.74816">
        <ele>369</ele>
        <time>2015-10-11T08:15:30.000Z</time>
      </trkpt>
      <trkpt lat="47.52252" lon="6.74811">
        <ele>369</ele>
        <time>2015-10-11T08:15:31.000Z</time>
      </trkpt>
      <trkpt lat="47.52254" lon="6.74806">
        <ele>369</ele>
        <time>2015-10-11T08:15:32.000Z</time>
      </trkpt>
      <trkpt lat="47.52255" lon="6.74801">
        <ele>369</ele>
        <time>2015-10-11T08:15:33.000Z</time>
      </trkpt>
      <trkpt lat="47.52256" lon="6.74796">
        <ele>369</ele>
        <time>2015-10-11T08:15:34.000Z</time>
      </trkpt>
      <trkpt lat="47.52258" lon="6.74791">
        <ele>369</ele>
        <time>2015-10-11T08:15:35.000Z</time>
      </trkpt>
      <trkpt lat="47.52259" lon="6.74786">
        <ele>369</ele>
        <time>2015-10-11T08:15:36.000Z</time>
      </trkpt>
      <trkpt lat="47.5226" lon="6.74781">
        <ele>369</ele>
        <time>2015-10-11T08:15:37.000Z</time>
      </trkpt>
      <trkpt lat="47.52262" lon="6.74776">
        <ele>369</ele>
        <time>2015-10-11T08:15:38.000Z</time>
      </trkpt>
      <trkpt lat="47.52263" lon="6.74771">
        <ele>369</ele>
        <time>2015-10-11T08:15:39.000Z</time>
      </trkpt>
      <trkpt lat="47.52265" lon="6.74766">
        <ele>368</ele>
        <time>2015-10-11T08:15:40.000Z</time>
      </trkpt>
      <trkpt lat="47.52266" lon="6.7476">
        <ele>368</ele>
        <time>2015-10-11T08:15:41.000Z</time>
      </trkpt>
      <trkpt lat="47.52268" lon="6.74754">
        <ele>368</ele>
        <time>2015-10-11T08:15:42.000Z</time>
      </trkpt>
      <trkpt lat="47.5227" lon="6.74748">
        <ele>366</ele>
        <time>2015-10-11T08:15:43.000Z</time>
      </trkpt>
      <trkpt lat="47.52272" lon="6.74742">
        <ele>366</ele>
        <time>2015-10-11T08:15:44.000Z</time>
      </trkpt>
      <trkpt lat="47.52274" lon="6.74735">
        <ele>366</ele>
        <time>2015-10-11T08:15:45.000Z</time>
      </trkpt>
      <trkpt lat="47.52275" lon="6.74729">
        <ele>366</ele>
        <time>2015-10-11T08:15:46.000Z</time>
      </trkpt>
      <trkpt lat="47.52277" lon="6.74722">
        <ele>366</ele>
        <time>2015-10-11T08:15:47.000Z</time>
      </trkpt>
      <trkpt lat="47.5228" lon="6.74714">
        <ele>366</ele>
        <time>2015-10-11T08:15:48.000Z</time>
      </trkpt>
      <trkpt lat="47.52281" lon="6.74706">
        <ele>365</ele>
        <time>2015-10-11T08:15:49.000Z</time>
      </trkpt>
      <trkpt lat="47.52283" lon="6.74699">
        <ele>365</ele>
        <time>2015-10-11T08:15:50.000Z</time>
      </trkpt>
      <trkpt lat="47.52285" lon="6.74691">
        <ele>365</ele>
        <time>2015-10-11T08:15:51.000Z</time>
      </trkpt>
      <trkpt lat="47.52288" lon="6.74685">
        <ele>365</ele>
        <time>2015-10-11T08:15:52.000Z</time>
      </trkpt>
      <trkpt lat="47.52293" lon="6.74679">
        <ele>365</ele>
        <time>2015-10-11T08:15:53.000Z</time>
      </trkpt>
      <trkpt lat="47.52298" lon="6.74678">
        <ele>365</ele>
        <time>2015-10-11T08:15:54.000Z</time>
      </trkpt>
      <trkpt lat="47.52303" lon="6.74679">
        <ele>365</ele>
        <time>2015-10-11T08:15:55.000Z</time>
      </trkpt>
      <trkpt lat="47.52307" lon="6.7468">
        <ele>365</ele>
        <time>2015-10-11T08:15:56.000Z</time>
      </trkpt>
      <trkpt lat="47.5231" lon="6.74683">
        <ele>365</ele>
        <time>2015-10-11T08:15:57.000Z</time>
      </trkpt>
      <trkpt lat="47.52313" lon="6.74685">
        <ele>365</ele>
        <time>2015-10-11T08:15:58.000Z</time>
      </trkpt>
      <trkpt lat="47.52316" lon="6.74686">
        <ele>365</ele>
        <time>2015-10-11T08:15:59.000Z</time>
      </trkpt>
      <trkpt lat="47.52319" lon="6.74687">
        <ele>365</ele>
        <time>2015-10-11T08:16:00.000Z</time>
      </trkpt>
      <trkpt lat="47.52322" lon="6.74688">
        <ele>365</ele>
        <time>2015-10-11T08:16:01.000Z</time>
      </trkpt>
      <trkpt lat="47.52325" lon="6.7469">
        <ele>365</ele>
        <time>2015-10-11T08:16:02.000Z</time>
      </trkpt>
      <trkpt lat="47.52329" lon="6.74691">
        <ele>365</ele>
        <time>2015-10-11T08:16:03.000Z</time>
      </trkpt>
      <trkpt lat="47.52333" lon="6.74692">
        <ele>365</ele>
        <time>2015-10-11T08:16:04.000Z</time>
      </trkpt>
      <trkpt lat="47.52336" lon="6.74693">
        <ele>366</ele>
        <time>2015-10-11T08:16:05.000Z</time>
      </trkpt>
      <trkpt lat="47.52339" lon="6.74694">
        <ele>366</ele>
        <time>2015-10-11T08:16:06.000Z</time>
      </trkpt>
      <trkpt lat="47.52342" lon="6.74695">
        <ele>366</ele>
        <time>2015-10-11T08:16:07.000Z</time>
      </trkpt>
      <trkpt lat="47.52345" lon="6.74696">
        <ele>366</ele>
        <time>2015-10-11T08:16:08.000Z</time>
      </trkpt>
      <trkpt lat="47.52348" lon="6.74697">
        <ele>367</ele>
        <time>2015-10-11T08:16:09.000Z</time>
      </trkpt>
      <trkpt lat="47.52351" lon="6.74698">
        <ele>367</ele>
        <time>2015-10-11T08:16:10.000Z</time>
      </trkpt>
      <trkpt lat="47.52354" lon="6.747">
        <ele>367</ele>
        <time>2015-10-11T08:16:11.000Z</time>
      </trkpt>
      <trkpt lat="47.52357" lon="6.74701">
        <ele>367</ele>
        <time>2015-10-11T08:16:12.000Z</time>
      </trkpt>
      <trkpt lat="47.5236" lon="6.74703">
        <ele>367</ele>
        <time>2015-10-11T08:16:13.000Z</time>
      </trkpt>
      <trkpt lat="47.52363" lon="6.74704">
        <ele>367</ele>
        <time>2015-10-11T08:16:14.000Z</time>
      </trkpt>
      <trkpt lat="47.52366" lon="6.74705">
        <ele>367</ele>
        <time>2015-10-11T08:16:15.000Z</time>
      </trkpt>
      <trkpt lat="47.52369" lon="6.74706">
        <ele>367</ele>
        <time>2015-10-11T08:16:16.000Z</time>
      </trkpt>
      <trkpt lat="47.52372" lon="6.74707">
        <ele>367</ele>
        <time>2015-10-11T08:16:17.000Z</time>
      </trkpt>
      <trkpt lat="47.52375" lon="6.74709">
        <ele>367</ele>
        <time>2015-10-11T08:16:18.000Z</time>
      </trkpt>
      <trkpt lat="47.52377" lon="6.7471">
        <ele>367</ele>
        <time>2015-10-11T08:16:19.000Z</time>
      </trkpt>
      <trkpt lat="47.5238" lon="6.74712">
        <ele>367</ele>
        <time>2015-10-11T08:16:20.000Z</time>
      </trkpt>
      <trkpt lat="47.52383" lon="6.74714">
        <ele>368</ele>
        <time>2015-10-11T08:16:21.000Z</time>
      </trkpt>
      <trkpt lat="47.52385" lon="6.74716">
        <ele>368</ele>
        <time>2015-10-11T08:16:22.000Z</time>
      </trkpt>
      <trkpt lat="47.52388" lon="6.74718">
        <ele>368</ele>
        <time>2015-10-11T08:16:23.000Z</time>
      </trkpt>
      <trkpt lat="47.5239" lon="6.74719">
        <ele>368</ele>
        <time>2015-10-11T08:16:24.000Z</time>
      </trkpt>
      <trkpt lat="47.52392" lon="6.74721">
        <ele>368</ele>
        <time>2015-10-11T08:16:25.000Z</time>
      </trkpt>
      <trkpt lat="47.52395" lon="6.74722">
        <ele>368</ele>
        <time>2015-10-11T08:16:26.000Z</time>
      </trkpt>
      <trkpt lat="47.52397" lon="6.74724">
        <ele>368</ele>
        <time>2015-10-11T08:16:27.000Z</time>
      </trkpt>
      <trkpt lat="47.524" lon="6.74725">
        <ele>368</ele>
        <time>2015-10-11T08:16:28.000Z</time>
      </trkpt>
      <trkpt lat="47.52402" lon="6.74727">
        <ele>368</ele>
        <time>2015-10-11T08:16:29.000Z</time>
      </trkpt>
      <trkpt lat="47.52405" lon="6.74729">
        <ele>369</ele>
        <time>2015-10-11T08:16:30.000Z</time>
      </trkpt>
      <trkpt lat="47.52408" lon="6.74731">
        <ele>369</ele>
        <time>2015-10-11T08:16:31.000Z</time>
      </trkpt>
      <trkpt lat="47.5241" lon="6.74734">
        <ele>369</ele>
        <time>2015-10-11T08:16:32.000Z</time>
      </trkpt>
      <trkpt lat="47.52413" lon="6.74736">
        <ele>369</ele>
        <time>2015-10-11T08:16:33.000Z</time>
      </trkpt>
      <trkpt lat="47.52415" lon="6.74739">
        <ele>370</ele>
        <time>2015-10-11T08:16:34.000Z</time>
      </trkpt>
      <trkpt lat="47.52418" lon="6.74741">
        <ele>370</ele>
        <time>2015-10-11T08:16:35.000Z</time>
      </trkpt>
      <trkpt lat="47.52421" lon="6.74743">
        <ele>370</ele>
        <time>2015-10-11T08:16:36.000Z</time>
      </trkpt>
      <trkpt lat="47.52423" lon="6.74745">
        <ele>370</ele>
        <time>2015-10-11T08:16:37.000Z</time>
      </trkpt>
      <trkpt lat="47.52426" lon="6.74747">
        <ele>370</ele>
        <time>2015-10-11T08:16:38.000Z</time>
      </trkpt>
      <trkpt lat="47.52429" lon="6.74749">
        <ele>370</ele>
        <time>2015-10-11T08:16:39.000Z</time>
      </trkpt>
      <trkpt lat="47.52432" lon="6.7475">
        <ele>372</ele>
        <time>2015-10-11T08:16:40.000Z</time>
      </trkpt>
      <trkpt lat="47.52434" lon="6.74751">
        <ele>372</ele>
        <time>2015-10-11T08:16:41.000Z</time>
      </trkpt>
      <trkpt lat="47.52437" lon="6.74753">
        <ele>372</ele>
        <time>2015-10-11T08:16:42.000Z</time>
      </trkpt>
      <trkpt lat="47.5244" lon="6.74754">
        <ele>373</ele>
        <time>2015-10-11T08:16:43.000Z</time>
      </trkpt>
      <trkpt lat="47.52443" lon="6.74755">
        <ele>373</ele>
        <time>2015-10-11T08:16:44.000Z</time>
      </trkpt>
      <trkpt lat="47.52446" lon="6.74756">
        <ele>373</ele>
        <time>2015-10-11T08:16:45.000Z</time>
      </trkpt>
      <trkpt lat="47.52449" lon="6.74757">
        <ele>373</ele>
        <time>2015-10-11T08:16:46.000Z</time>
      </trkpt>
      <trkpt lat="47.52452" lon="6.74757">
        <ele>373</ele>
        <time>2015-10-11T08:16:47.000Z</time>
      </trkpt>
      <trkpt lat="47.52455" lon="6.74759">
        <ele>373</ele>
        <time>2015-10-11T08:16:48.000Z</time>
      </trkpt>
      <trkpt lat="47.52458" lon="6.7476">
        <ele>373</ele>
        <time>2015-10-11T08:16:49.000Z</time>
      </trkpt>
      <trkpt lat="47.52461" lon="6.74762">
        <ele>373</ele>
        <time>2015-10-11T08:16:50.000Z</time>
      </trkpt>
      <trkpt lat="47.52464" lon="6.74764">
        <ele>373</ele>
        <time>2015-10-11T08:16:51.000Z</time>
      </trkpt>
      <trkpt lat="47.52467" lon="6.74766">
        <ele>373</ele>
        <time>2015-10-11T08:16:52.000Z</time>
      </trkpt>
      <trkpt lat="47.5247" lon="6.74768">
        <ele>373</ele>
        <time>2015-10-11T08:16:53.000Z</time>
      </trkpt>
      <trkpt lat="47.52473" lon="6.74769">
        <ele>373</ele>
        <time>2015-10-11T08:16:54.000Z</time>
      </trkpt>
      <trkpt lat="47.52476" lon="6.74771">
        <ele>373</ele>
        <time>2015-10-11T08:16:55.000Z</time>
      </trkpt>
      <trkpt lat="47.52479" lon="6.74772">
        <ele>373</ele>
        <time>2015-10-11T08:16:56.000Z</time>
      </trkpt>
      <trkpt lat="47.52481" lon="6.74773">
        <ele>373</ele>
        <time>2015-10-11T08:16:57.000Z</time>
      </trkpt>
      <trkpt lat="47.52484" lon="6.74775">
        <ele>373</ele>
        <time>2015-10-11T08:16:58.000Z</time>
      </trkpt>
      <trkpt lat="47.52486" lon="6.74776">
        <ele>373</ele>
        <time>2015-10-11T08:16:59.000Z</time>
      </trkpt>
      <trkpt lat="47.52489" lon="6.74777">
        <ele>373</ele>
        <time>2015-10-11T08:17:00.000Z</time>
      </trkpt>
      <trkpt lat="47.52492" lon="6.74778">
        <ele>373</ele>
        <time>2015-10-11T08:17:01.000Z</time>
      </trkpt>
      <trkpt lat="47.52494" lon="6.74779">
        <ele>373</ele>
        <time>2015-10-11T08:17:02.000Z</time>
      </trkpt>
      <trkpt lat="47.52497" lon="6.7478">
        <ele>374</ele>
        <time>2015-10-11T08:17:03.000Z</time>
      </trkpt>
      <trkpt lat="47.525" lon="6.74781">
        <ele>374</ele>
        <time>2015-10-11T08:17:04.000Z</time>
      </trkpt>
      <trkpt lat="47.52502" lon="6.74782">
        <ele>376</ele>
        <time>2015-10-11T08:17:05.000Z</time>
      </trkpt>
      <trkpt lat="47.52505" lon="6.74783">
        <ele>376</ele>
        <time>2015-10-11T08:17:06.000Z</time>
      </trkpt>
      <trkpt lat="47.52508" lon="6.74784">
        <ele>376</ele>
        <time>2015-10-11T08:17:07.000Z</time>
      </trkpt>
      <trkpt lat="47.52511" lon="6.74786">
        <ele>376</ele>
        <time>2015-10-11T08:17:08.000Z</time>
      </trkpt>
      <trkpt lat="47.52514" lon="6.74787">
        <ele>376</ele>
        <time>2015-10-11T08:17:09.000Z</time>
      </trkpt>
      <trkpt lat="47.52516" lon="6.74789">
        <ele>377</ele>
        <time>2015-10-11T08:17:10.000Z</time>
      </trkpt>
      <trkpt lat="47.52518" lon="6.74791">
        <ele>377</ele>
        <time>2015-10-11T08:17:11.000Z</time>
      </trkpt>
      <trkpt lat="47.52521" lon="6.74796">
        <ele>377</ele>
        <time>2015-10-11T08:17:13.000Z</time>
      </trkpt>
      <trkpt lat="47.52521" lon="6.748">
        <ele>377</ele>
        <time>2015-10-11T08:17:14.000Z</time>
      </trkpt>
      <trkpt lat="47.52521" lon="6.74804">
        <ele>377</ele>
        <time>2015-10-11T08:17:15.000Z</time>
      </trkpt>
      <trkpt lat="47.52521" lon="6.74808">
        <ele>377</ele>
        <time>2015-10-11T08:17:16.000Z</time>
      </trkpt>
      <trkpt lat="47.52521" lon="6.74812">
        <ele>377</ele>
        <time>2015-10-11T08:17:17.000Z</time>
      </trkpt>
      <trkpt lat="47.52521" lon="6.74816">
        <ele>377</ele>
        <time>2015-10-11T08:17:18.000Z</time>
      </trkpt>
      <trkpt lat="47.5252" lon="6.7482">
        <ele>377</ele>
        <time>2015-10-11T08:17:19.000Z</time>
      </trkpt>
      <trkpt lat="47.5252" lon="6.74824">
        <ele>377</ele>
        <time>2015-10-11T08:17:20.000Z</time>
      </trkpt>
      <trkpt lat="47.52519" lon="6.74828">
        <ele>377</ele>
        <time>2015-10-11T08:17:21.000Z</time>
      </trkpt>
      <trkpt lat="47.52518" lon="6.74831">
        <ele>377</ele>
        <time>2015-10-11T08:17:22.000Z</time>
      </trkpt>
      <trkpt lat="47.52518" lon="6.74835">
        <ele>380</ele>
        <time>2015-10-11T08:17:23.000Z</time>
      </trkpt>
      <trkpt lat="47.52517" lon="6.74839">
        <ele>380</ele>
        <time>2015-10-11T08:17:24.000Z</time>
      </trkpt>
      <trkpt lat="47.52517" lon="6.74842">
        <ele>380</ele>
        <time>2015-10-11T08:17:25.000Z</time>
      </trkpt>
      <trkpt lat="47.52516" lon="6.74846">
        <ele>380</ele>
        <time>2015-10-11T08:17:26.000Z</time>
      </trkpt>
      <trkpt lat="47.52516" lon="6.7485">
        <ele>380</ele>
        <time>2015-10-11T08:17:27.000Z</time>
      </trkpt>
      <trkpt lat="47.52515" lon="6.74854">
        <ele>380</ele>
        <time>2015-10-11T08:17:28.000Z</time>
      </trkpt>
      <trkpt lat="47.52514" lon="6.74857">
        <ele>380</ele>
        <time>2015-10-11T08:17:29.000Z</time>
      </trkpt>
      <trkpt lat="47.52513" lon="6.74861">
        <ele>381</ele>
        <time>2015-10-11T08:17:30.000Z</time>
      </trkpt>
      <trkpt lat="47.52512" lon="6.74865">
        <ele>381</ele>
        <time>2015-10-11T08:17:31.000Z</time>
      </trkpt>
      <trkpt lat="47.52511" lon="6.7487">
        <ele>381</ele>
        <time>2015-10-11T08:17:32.000Z</time>
      </trkpt>
      <trkpt lat="47.52511" lon="6.74874">
        <ele>381</ele>
        <time>2015-10-11T08:17:33.000Z</time>
      </trkpt>
      <trkpt lat="47.5251" lon="6.74878">
        <ele>381</ele>
        <time>2015-10-11T08:17:34.000Z</time>
      </trkpt>
      <trkpt lat="47.52509" lon="6.74882">
        <ele>381</ele>
        <time>2015-10-11T08:17:35.000Z</time>
      </trkpt>
      <trkpt lat="47.52509" lon="6.74886">
        <ele>381</ele>
        <time>2015-10-11T08:17:36.000Z</time>
      </trkpt>
      <trkpt lat="47.52508" lon="6.7489">
        <ele>381</ele>
        <time>2015-10-11T08:17:37.000Z</time>
      </trkpt>
      <trkpt lat="47.52508" lon="6.74894">
        <ele>381</ele>
        <time>2015-10-11T08:17:38.000Z</time>
      </trkpt>
      <trkpt lat="47.52507" lon="6.74898">
        <ele>381</ele>
        <time>2015-10-11T08:17:39.000Z</time>
      </trkpt>
      <trkpt lat="47.52507" lon="6.74902">
        <ele>381</ele>
        <time>2015-10-11T08:17:40.000Z</time>
      </trkpt>
      <trkpt lat="47.52506" lon="6.74906">
        <ele>381</ele>
        <time>2015-10-11T08:17:41.000Z</time>
      </trkpt>
      <trkpt lat="47.52506" lon="6.7491">
        <ele>381</ele>
        <time>2015-10-11T08:17:42.000Z</time>
      </trkpt>
      <trkpt lat="47.52505" lon="6.74914">
        <ele>381</ele>
        <time>2015-10-11T08:17:43.000Z</time>
      </trkpt>
      <trkpt lat="47.52505" lon="6.74917">
        <ele>382</ele>
        <time>2015-10-11T08:17:44.000Z</time>
      </trkpt>
      <trkpt lat="47.52504" lon="6.74921">
        <ele>382</ele>
        <time>2015-10-11T08:17:45.000Z</time>
      </trkpt>
      <trkpt lat="47.52503" lon="6.74924">
        <ele>382</ele>
        <time>2015-10-11T08:17:46.000Z</time>
      </trkpt>
      <trkpt lat="47.52503" lon="6.74928">
        <ele>382</ele>
        <time>2015-10-11T08:17:47.000Z</time>
      </trkpt>
      <trkpt lat="47.52502" lon="6.74931">
        <ele>383</ele>
        <time>2015-10-11T08:17:48.000Z</time>
      </trkpt>
      <trkpt lat="47.52501" lon="6.74935">
        <ele>383</ele>
        <time>2015-10-11T08:17:49.000Z</time>
      </trkpt>
      <trkpt lat="47.52501" lon="6.74939">
        <ele>383</ele>
        <time>2015-10-11T08:17:50.000Z</time>
      </trkpt>
      <trkpt lat="47.525" lon="6.74943">
        <ele>381</ele>
        <time>2015-10-11T08:17:51.000Z</time>
      </trkpt>
      <trkpt lat="47.52499" lon="6.74947">
        <ele>381</ele>
        <time>2015-10-11T08:17:52.000Z</time>
      </trkpt>
      <trkpt lat="47.52498" lon="6.74952">
        <ele>381</ele>
        <time>2015-10-11T08:17:53.000Z</time>
      </trkpt>
      <trkpt lat="47.52498" lon="6.74956">
        <ele>381</ele>
        <time>2015-10-11T08:17:54.000Z</time>
      </trkpt>
      <trkpt lat="47.52498" lon="6.7496">
        <ele>382</ele>
        <time>2015-10-11T08:17:55.000Z</time>
      </trkpt>
      <trkpt lat="47.52499" lon="6.74964">
        <ele>382</ele>
        <time>2015-10-11T08:17:56.000Z</time>
      </trkpt>
      <trkpt lat="47.525" lon="6.74968">
        <ele>382</ele>
        <time>2015-10-11T08:17:57.000Z</time>
      </trkpt>
      <trkpt lat="47.52501" lon="6.74972">
        <ele>384</ele>
        <time>2015-10-11T08:17:58.000Z</time>
      </trkpt>
      <trkpt lat="47.52502" lon="6.74976">
        <ele>384</ele>
        <time>2015-10-11T08:17:59.000Z</time>
      </trkpt>
      <trkpt lat="47.52503" lon="6.7498">
        <ele>384</ele>
        <time>2015-10-11T08:18:00.000Z</time>
      </trkpt>
      <trkpt lat="47.52505" lon="6.74983">
        <ele>384</ele>
        <time>2015-10-11T08:18:01.000Z</time>
      </trkpt>
      <trkpt lat="47.52507" lon="6.74986">
        <ele>384</ele>
        <time>2015-10-11T08:18:02.000Z</time>
      </trkpt>
      <trkpt lat="47.5251" lon="6.74987">
        <ele>384</ele>
        <time>2015-10-11T08:18:03.000Z</time>
      </trkpt>
      <trkpt lat="47.52512" lon="6.74988">
        <ele>384</ele>
        <time>2015-10-11T08:18:04.000Z</time>
      </trkpt>
      <trkpt lat="47.52515" lon="6.74989">
        <ele>385</ele>
        <time>2015-10-11T08:18:05.000Z</time>
      </trkpt>
      <trkpt lat="47.52517" lon="6.74989">
        <ele>385</ele>
        <time>2015-10-11T08:18:06.000Z</time>
      </trkpt>
      <trkpt lat="47.5252" lon="6.74989">
        <ele>385</ele>
        <time>2015-10-11T08:18:07.000Z</time>
      </trkpt>
      <trkpt lat="47.52522" lon="6.7499">
        <ele>385</ele>
        <time>2015-10-11T08:18:08.000Z</time>
      </trkpt>
      <trkpt lat="47.52526" lon="6.74991">
        <ele>385</ele>
        <time>2015-10-11T08:18:10.000Z</time>
      </trkpt>
      <trkpt lat="47.52529" lon="6.74991">
        <ele>385</ele>
        <time>2015-10-11T08:18:11.000Z</time>
      </trkpt>
      <trkpt lat="47.52531" lon="6.74991">
        <ele>385</ele>
        <time>2015-10-11T08:18:12.000Z</time>
      </trkpt>
      <trkpt lat="47.52533" lon="6.74991">
        <ele>385</ele>
        <time>2015-10-11T08:18:13.000Z</time>
      </trkpt>
      <trkpt lat="47.52535" lon="6.74991">
        <ele>385</ele>
        <time>2015-10-11T08:18:14.000Z</time>
      </trkpt>
      <trkpt lat="47.52538" lon="6.74991">
        <ele>385</ele>
        <time>2015-10-11T08:18:15.000Z</time>
      </trkpt>
      <trkpt lat="47.5254" lon="6.74991">
        <ele>385</ele>
        <time>2015-10-11T08:18:16.000Z</time>
      </trkpt>
      <trkpt lat="47.52543" lon="6.74992">
        <ele>385</ele>
        <time>2015-10-11T08:18:17.000Z</time>
      </trkpt>
      <trkpt lat="47.52545" lon="6.74992">
        <ele>385</ele>
        <time>2015-10-11T08:18:18.000Z</time>
      </trkpt>
      <trkpt lat="47.52548" lon="6.74993">
        <ele>386</ele>
        <time>2015-10-11T08:18:19.000Z</time>
      </trkpt>
      <trkpt lat="47.5255" lon="6.74993">
        <ele>386</ele>
        <time>2015-10-11T08:18:20.000Z</time>
      </trkpt>
      <trkpt lat="47.52552" lon="6.74994">
        <ele>386</ele>
        <time>2015-10-11T08:18:21.000Z</time>
      </trkpt>
      <trkpt lat="47.52555" lon="6.74995">
        <ele>386</ele>
        <time>2015-10-11T08:18:22.000Z</time>
      </trkpt>
      <trkpt lat="47.52557" lon="6.74995">
        <ele>386</ele>
        <time>2015-10-11T08:18:23.000Z</time>
      </trkpt>
      <trkpt lat="47.5256" lon="6.74996">
        <ele>386</ele>
        <time>2015-10-11T08:18:24.000Z</time>
      </trkpt>
      <trkpt lat="47.52562" lon="6.74997">
        <ele>386</ele>
        <time>2015-10-11T08:18:25.000Z</time>
      </trkpt>
      <trkpt lat="47.52565" lon="6.74998">
        <ele>386</ele>
        <time>2015-10-11T08:18:26.000Z</time>
      </trkpt>
      <trkpt lat="47.52567" lon="6.74999">
        <ele>387</ele>
        <time>2015-10-11T08:18:27.000Z</time>
      </trkpt>
      <trkpt lat="47.5257" lon="6.75">
        <ele>387</ele>
        <time>2015-10-11T08:18:28.000Z</time>
      </trkpt>
      <trkpt lat="47.52572" lon="6.75001">
        <ele>387</ele>
        <time>2015-10-11T08:18:29.000Z</time>
      </trkpt>
      <trkpt lat="47.52574" lon="6.75002">
        <ele>387</ele>
        <time>2015-10-11T08:18:30.000Z</time>
      </trkpt>
      <trkpt lat="47.52576" lon="6.75004">
        <ele>387</ele>
        <time>2015-10-11T08:18:31.000Z</time>
      </trkpt>
      <trkpt lat="47.52578" lon="6.75007">
        <ele>387</ele>
        <time>2015-10-11T08:18:32.000Z</time>
      </trkpt>
      <trkpt lat="47.52579" lon="6.7501">
        <ele>387</ele>
        <time>2015-10-11T08:18:33.000Z</time>
      </trkpt>
      <trkpt lat="47.5258" lon="6.75014">
        <ele>387</ele>
        <time>2015-10-11T08:18:34.000Z</time>
      </trkpt>
      <trkpt lat="47.52581" lon="6.75018">
        <ele>387</ele>
        <time>2015-10-11T08:18:35.000Z</time>
      </trkpt>
      <trkpt lat="47.52581" lon="6.75021">
        <ele>386</ele>
        <time>2015-10-11T08:18:36.000Z</time>
      </trkpt>
      <trkpt lat="47.52581" lon="6.75025">
        <ele>386</ele>
        <time>2015-10-11T08:18:37.000Z</time>
      </trkpt>
      <trkpt lat="47.52581" lon="6.75029">
        <ele>386</ele>
        <time>2015-10-11T08:18:38.000Z</time>
      </trkpt>
      <trkpt lat="47.52581" lon="6.75033">
        <ele>386</ele>
        <time>2015-10-11T08:18:39.000Z</time>
      </trkpt>
      <trkpt lat="47.52581" lon="6.75037">
        <ele>386</ele>
        <time>2015-10-11T08:18:40.000Z</time>
      </trkpt>
      <trkpt lat="47.52581" lon="6.7504">
        <ele>386</ele>
        <time>2015-10-11T08:18:41.000Z</time>
      </trkpt>
      <trkpt lat="47.52581" lon="6.75044">
        <ele>386</ele>
        <time>2015-10-11T08:18:42.000Z</time>
      </trkpt>
      <trkpt lat="47.52581" lon="6.75048">
        <ele>386</ele>
        <time>2015-10-11T08:18:43.000Z</time>
      </trkpt>
      <trkpt lat="47.52581" lon="6.75052">
        <ele>386</ele>
        <time>2015-10-11T08:18:44.000Z</time>
      </trkpt>
      <trkpt lat="47.52582" lon="6.75056">
        <ele>386</ele>
        <time>2015-10-11T08:18:45.000Z</time>
      </trkpt>
      <trkpt lat="47.52582" lon="6.7506">
        <ele>386</ele>
        <time>2015-10-11T08:18:46.000Z</time>
      </trkpt>
      <trkpt lat="47.52582" lon="6.75064">
        <ele>386</ele>
        <time>2015-10-11T08:18:47.000Z</time>
      </trkpt>
      <trkpt lat="47.52582" lon="6.75068">
        <ele>386</ele>
        <time>2015-10-11T08:18:48.000Z</time>
      </trkpt>
      <trkpt lat="47.52582" lon="6.75072">
        <ele>386</ele>
        <time>2015-10-11T08:18:49.000Z</time>
      </trkpt>
      <trkpt lat="47.52583" lon="6.75075">
        <ele>386</ele>
        <time>2015-10-11T08:18:50.000Z</time>
      </trkpt>
      <trkpt lat="47.52583" lon="6.75079">
        <ele>387</ele>
        <time>2015-10-11T08:18:51.000Z</time>
      </trkpt>
      <trkpt lat="47.52584" lon="6.75082">
        <ele>386</ele>
        <time>2015-10-11T08:18:52.000Z</time>
      </trkpt>
      <trkpt lat="47.52585" lon="6.75085">
        <ele>386</ele>
        <time>2015-10-11T08:18:53.000Z</time>
      </trkpt>
      <trkpt lat="47.52586" lon="6.75088">
        <ele>386</ele>
        <time>2015-10-11T08:18:54.000Z</time>
      </trkpt>
      <trkpt lat="47.52587" lon="6.75091">
        <ele>387</ele>
        <time>2015-10-11T08:18:55.000Z</time>
      </trkpt>
      <trkpt lat="47.52588" lon="6.75095">
        <ele>387</ele>
        <time>2015-10-11T08:18:56.000Z</time>
      </trkpt>
      <trkpt lat="47.52589" lon="6.75099">
        <ele>387</ele>
        <time>2015-10-11T08:18:57.000Z</time>
      </trkpt>
      <trkpt lat="47.5259" lon="6.75104">
        <ele>387</ele>
        <time>2015-10-11T08:18:58.000Z</time>
      </trkpt>
      <trkpt lat="47.52592" lon="6.75108">
        <ele>387</ele>
        <time>2015-10-11T08:18:59.000Z</time>
      </trkpt>
      <trkpt lat="47.52594" lon="6.75111">
        <ele>387</ele>
        <time>2015-10-11T08:19:00.000Z</time>
      </trkpt>
      <trkpt lat="47.52596" lon="6.75113">
        <ele>387</ele>
        <time>2015-10-11T08:19:01.000Z</time>
      </trkpt>
      <trkpt lat="47.52599" lon="6.75114">
        <ele>387</ele>
        <time>2015-10-11T08:19:02.000Z</time>
      </trkpt>
      <trkpt lat="47.52602" lon="6.75115">
        <ele>387</ele>
        <time>2015-10-11T08:19:03.000Z</time>
      </trkpt>
      <trkpt lat="47.52605" lon="6.75115">
        <ele>388</ele>
        <time>2015-10-11T08:19:04.000Z</time>
      </trkpt>
      <trkpt lat="47.52608" lon="6.75115">
        <ele>388</ele>
        <time>2015-10-11T08:19:05.000Z</time>
      </trkpt>
      <trkpt lat="47.52611" lon="6.75116">
        <ele>388</ele>
        <time>2015-10-11T08:19:06.000Z</time>
      </trkpt>
      <trkpt lat="47.52613" lon="6.75116">
        <ele>388</ele>
        <time>2015-10-11T08:19:07.000Z</time>
      </trkpt>
      <trkpt lat="47.52616" lon="6.75116">
        <ele>388</ele>
        <time>2015-10-11T08:19:08.000Z</time>
      </trkpt>
      <trkpt lat="47.52618" lon="6.75118">
        <ele>388</ele>
        <time>2015-10-11T08:19:09.000Z</time>
      </trkpt>
      <trkpt lat="47.5262" lon="6.75119">
        <ele>388</ele>
        <time>2015-10-11T08:19:10.000Z</time>
      </trkpt>
      <trkpt lat="47.52623" lon="6.7512">
        <ele>388</ele>
        <time>2015-10-11T08:19:11.000Z</time>
      </trkpt>
      <trkpt lat="47.52626" lon="6.75122">
        <ele>388</ele>
        <time>2015-10-11T08:19:12.000Z</time>
      </trkpt>
      <trkpt lat="47.52629" lon="6.75123">
        <ele>388</ele>
        <time>2015-10-11T08:19:13.000Z</time>
      </trkpt>
      <trkpt lat="47.52631" lon="6.75124">
        <ele>389</ele>
        <time>2015-10-11T08:19:14.000Z</time>
      </trkpt>
      <trkpt lat="47.52633" lon="6.75125">
        <ele>389</ele>
        <time>2015-10-11T08:19:15.000Z</time>
      </trkpt>
      <trkpt lat="47.52636" lon="6.75126">
        <ele>389</ele>
        <time>2015-10-11T08:19:16.000Z</time>
      </trkpt>
      <trkpt lat="47.52639" lon="6.75127">
        <ele>389</ele>
        <time>2015-10-11T08:19:17.000Z</time>
      </trkpt>
      <trkpt lat="47.52641" lon="6.75128">
        <ele>389</ele>
        <time>2015-10-11T08:19:18.000Z</time>
      </trkpt>
      <trkpt lat="47.52645" lon="6.75128">
        <ele>389</ele>
        <time>2015-10-11T08:19:19.000Z</time>
      </trkpt>
      <trkpt lat="47.52647" lon="6.75128">
        <ele>389</ele>
        <time>2015-10-11T08:19:20.000Z</time>
      </trkpt>
      <trkpt lat="47.5265" lon="6.75128">
        <ele>389</ele>
        <time>2015-10-11T08:19:21.000Z</time>
      </trkpt>
      <trkpt lat="47.52653" lon="6.75129">
        <ele>389</ele>
        <time>2015-10-11T08:19:22.000Z</time>
      </trkpt>
      <trkpt lat="47.52655" lon="6.7513">
        <ele>389</ele>
        <time>2015-10-11T08:19:23.000Z</time>
      </trkpt>
      <trkpt lat="47.52658" lon="6.7513">
        <ele>389</ele>
        <time>2015-10-11T08:19:24.000Z</time>
      </trkpt>
      <trkpt lat="47.52661" lon="6.75131">
        <ele>390</ele>
        <time>2015-10-11T08:19:25.000Z</time>
      </trkpt>
      <trkpt lat="47.52665" lon="6.75131">
        <ele>390</ele>
        <time>2015-10-11T08:19:26.000Z</time>
      </trkpt>
      <trkpt lat="47.52668" lon="6.75132">
        <ele>396</ele>
        <time>2015-10-11T08:19:27.000Z</time>
      </trkpt>
      <trkpt lat="47.52671" lon="6.75133">
        <ele>396</ele>
        <time>2015-10-11T08:19:28.000Z</time>
      </trkpt>
      <trkpt lat="47.52674" lon="6.75134">
        <ele>396</ele>
        <time>2015-10-11T08:19:29.000Z</time>
      </trkpt>
      <trkpt lat="47.52676" lon="6.75135">
        <ele>396</ele>
        <time>2015-10-11T08:19:30.000Z</time>
      </trkpt>
      <trkpt lat="47.52679" lon="6.75137">
        <ele>396</ele>
        <time>2015-10-11T08:19:31.000Z</time>
      </trkpt>
      <trkpt lat="47.52681" lon="6.75138">
        <ele>396</ele>
        <time>2015-10-11T08:19:32.000Z</time>
      </trkpt>
      <trkpt lat="47.52684" lon="6.75139">
        <ele>396</ele>
        <time>2015-10-11T08:19:33.000Z</time>
      </trkpt>
      <trkpt lat="47.52687" lon="6.7514">
        <ele>397</ele>
        <time>2015-10-11T08:19:34.000Z</time>
      </trkpt>
      <trkpt lat="47.5269" lon="6.75141">
        <ele>397</ele>
        <time>2015-10-11T08:19:35.000Z</time>
      </trkpt>
      <trkpt lat="47.52694" lon="6.75142">
        <ele>397</ele>
        <time>2015-10-11T08:19:36.000Z</time>
      </trkpt>
      <trkpt lat="47.52697" lon="6.75143">
        <ele>397</ele>
        <time>2015-10-11T08:19:37.000Z</time>
      </trkpt>
      <trkpt lat="47.52701" lon="6.75144">
        <ele>398</ele>
        <time>2015-10-11T08:19:38.000Z</time>
      </trkpt>
      <trkpt lat="47.52704" lon="6.75145">
        <ele>398</ele>
        <time>2015-10-11T08:19:39.000Z</time>
      </trkpt>
      <trkpt lat="47.52707" lon="6.75147">
        <ele>398</ele>
        <time>2015-10-11T08:19:40.000Z</time>
      </trkpt>
      <trkpt lat="47.52711" lon="6.75148">
        <ele>398</ele>
        <time>2015-10-11T08:19:41.000Z</time>
      </trkpt>
      <trkpt lat="47.52714" lon="6.75149">
        <ele>399</ele>
        <time>2015-10-11T08:19:42.000Z</time>
      </trkpt>
      <trkpt lat="47.52718" lon="6.7515">
        <ele>399</ele>
        <time>2015-10-11T08:19:43.000Z</time>
      </trkpt>
      <trkpt lat="47.52721" lon="6.75151">
        <ele>399</ele>
        <time>2015-10-11T08:19:44.000Z</time>
      </trkpt>
      <trkpt lat="47.52724" lon="6.75152">
        <ele>400</ele>
        <time>2015-10-11T08:19:45.000Z</time>
      </trkpt>
      <trkpt lat="47.52728" lon="6.75153">
        <ele>400</ele>
        <time>2015-10-11T08:19:46.000Z</time>
      </trkpt>
      <trkpt lat="47.52732" lon="6.75153">
        <ele>401</ele>
        <time>2015-10-11T08:19:47.000Z</time>
      </trkpt>
      <trkpt lat="47.52735" lon="6.75154">
        <ele>401</ele>
        <time>2015-10-11T08:19:48.000Z</time>
      </trkpt>
      <trkpt lat="47.52739" lon="6.75154">
        <ele>401</ele>
        <time>2015-10-11T08:19:49.000Z</time>
      </trkpt>
      <trkpt lat="47.52743" lon="6.75155">
        <ele>402</ele>
        <time>2015-10-11T08:19:50.000Z</time>
      </trkpt>
      <trkpt lat="47.52746" lon="6.75157">
        <ele>402</ele>
        <time>2015-10-11T08:19:51.000Z</time>
      </trkpt>
      <trkpt lat="47.52749" lon="6.75159">
        <ele>403</ele>
        <time>2015-10-11T08:19:52.000Z</time>
      </trkpt>
      <trkpt lat="47.52753" lon="6.75162">
        <ele>404</ele>
        <time>2015-10-11T08:19:53.000Z</time>
      </trkpt>
      <trkpt lat="47.52756" lon="6.75165">
        <ele>404</ele>
        <time>2015-10-11T08:19:54.000Z</time>
      </trkpt>
      <trkpt lat="47.5276" lon="6.75167">
        <ele>403</ele>
        <time>2015-10-11T08:19:55.000Z</time>
      </trkpt>
      <trkpt lat="47.52763" lon="6.75169">
        <ele>402</ele>
        <time>2015-10-11T08:19:56.000Z</time>
      </trkpt>
      <trkpt lat="47.52767" lon="6.75171">
        <ele>402</ele>
        <time>2015-10-11T08:19:57.000Z</time>
      </trkpt>
      <trkpt lat="47.52772" lon="6.75173">
        <ele>401</ele>
        <time>2015-10-11T08:19:58.000Z</time>
      </trkpt>
      <trkpt lat="47.52777" lon="6.75175">
        <ele>401</ele>
        <time>2015-10-11T08:19:59.000Z</time>
      </trkpt>
      <trkpt lat="47.52789" lon="6.75183">
        <ele>401</ele>
        <time>2015-10-11T08:20:00.000Z</time>
      </trkpt>
      <trkpt lat="47.52801" lon="6.75185">
        <ele>401</ele>
        <time>2015-10-11T08:20:01.000Z</time>
      </trkpt>
      <trkpt lat="47.52809" lon="6.75187">
        <ele>401</ele>
        <time>2015-10-11T08:20:02.000Z</time>
      </trkpt>
      <trkpt lat="47.52815" lon="6.7519">
        <ele>401</ele>
        <time>2015-10-11T08:20:03.000Z</time>
      </trkpt>
      <trkpt lat="47.52822" lon="6.75193">
        <ele>400</ele>
        <time>2015-10-11T08:20:04.000Z</time>
      </trkpt>
      <trkpt lat="47.52826" lon="6.75193">
        <ele>401</ele>
        <time>2015-10-11T08:20:05.000Z</time>
      </trkpt>
      <trkpt lat="47.52832" lon="6.75195">
        <ele>400</ele>
        <time>2015-10-11T08:20:06.000Z</time>
      </trkpt>
      <trkpt lat="47.52837" lon="6.75198">
        <ele>401</ele>
        <time>2015-10-11T08:20:07.000Z</time>
      </trkpt>
      <trkpt lat="47.52842" lon="6.75199">
        <ele>401</ele>
        <time>2015-10-11T08:20:08.000Z</time>
      </trkpt>
      <trkpt lat="47.52845" lon="6.75202">
        <ele>401</ele>
        <time>2015-10-11T08:20:09.000Z</time>
      </trkpt>
      <trkpt lat="47.52851" lon="6.75204">
        <ele>401</ele>
        <time>2015-10-11T08:20:10.000Z</time>
      </trkpt>
      <trkpt lat="47.5286" lon="6.7521">
        <ele>401</ele>
        <time>2015-10-11T08:20:11.000Z</time>
      </trkpt>
      <trkpt lat="47.52864" lon="6.75213">
        <ele>401</ele>
        <time>2015-10-11T08:20:12.000Z</time>
      </trkpt>
      <trkpt lat="47.52871" lon="6.75216">
        <ele>401</ele>
        <time>2015-10-11T08:20:13.000Z</time>
      </trkpt>
      <trkpt lat="47.52881" lon="6.75222">
        <ele>401</ele>
        <time>2015-10-11T08:20:14.000Z</time>
      </trkpt>
      <trkpt lat="47.52888" lon="6.75222">
        <ele>401</ele>
        <time>2015-10-11T08:20:15.000Z</time>
      </trkpt>
      <trkpt lat="47.52894" lon="6.75225">
        <ele>401</ele>
        <time>2015-10-11T08:20:16.000Z</time>
      </trkpt>
      <trkpt lat="47.529" lon="6.75227">
        <ele>401</ele>
        <time>2015-10-11T08:20:17.000Z</time>
      </trkpt>
      <trkpt lat="47.52906" lon="6.75231">
        <ele>400</ele>
        <time>2015-10-11T08:20:18.000Z</time>
      </trkpt>
      <trkpt lat="47.52912" lon="6.75234">
        <ele>400</ele>
        <time>2015-10-11T08:20:19.000Z</time>
      </trkpt>
      <trkpt lat="47.52918" lon="6.75237">
        <ele>400</ele>
        <time>2015-10-11T08:20:20.000Z</time>
      </trkpt>
      <trkpt lat="47.52924" lon="6.7524">
        <ele>400</ele>
        <time>2015-10-11T08:20:21.000Z</time>
      </trkpt>
      <trkpt lat="47.52931" lon="6.75244">
        <ele>400</ele>
        <time>2015-10-11T08:20:22.000Z</time>
      </trkpt>
      <trkpt lat="47.5294" lon="6.75246">
        <ele>400</ele>
        <time>2015-10-11T08:20:23.000Z</time>
      </trkpt>
      <trkpt lat="47.52949" lon="6.75249">
        <ele>400</ele>
        <time>2015-10-11T08:20:24.000Z</time>
      </trkpt>
      <trkpt lat="47.52957" lon="6.75253">
        <ele>393</ele>
        <time>2015-10-11T08:20:25.000Z</time>
      </trkpt>
      <trkpt lat="47.52966" lon="6.75256">
        <ele>392</ele>
        <time>2015-10-11T08:20:26.000Z</time>
      </trkpt>
      <trkpt lat="47.52974" lon="6.75258">
        <ele>392</ele>
        <time>2015-10-11T08:20:27.000Z</time>
      </trkpt>
      <trkpt lat="47.52984" lon="6.75262">
        <ele>392</ele>
        <time>2015-10-11T08:20:28.000Z</time>
      </trkpt>
      <trkpt lat="47.5299" lon="6.75264">
        <ele>392</ele>
        <time>2015-10-11T08:20:29.000Z</time>
      </trkpt>
      <trkpt lat="47.52996" lon="6.75263">
        <ele>392</ele>
        <time>2015-10-11T08:20:30.000Z</time>
      </trkpt>
      <trkpt lat="47.53004" lon="6.75265">
        <ele>391</ele>
        <time>2015-10-11T08:20:31.000Z</time>
      </trkpt>
      <trkpt lat="47.53009" lon="6.75269">
        <ele>390</ele>
        <time>2015-10-11T08:20:32.000Z</time>
      </trkpt>
      <trkpt lat="47.53012" lon="6.75276">
        <ele>390</ele>
        <time>2015-10-11T08:20:33.000Z</time>
      </trkpt>
      <trkpt lat="47.53013" lon="6.75282">
        <ele>389</ele>
        <time>2015-10-11T08:20:34.000Z</time>
      </trkpt>
      <trkpt lat="47.53016" lon="6.75286">
        <ele>389</ele>
        <time>2015-10-11T08:20:35.000Z</time>
      </trkpt>
      <trkpt lat="47.53021" lon="6.7529">
        <ele>389</ele>
        <time>2015-10-11T08:20:36.000Z</time>
      </trkpt>
      <trkpt lat="47.53023" lon="6.75293">
        <ele>388</ele>
        <time>2015-10-11T08:20:38.000Z</time>
      </trkpt>
      <trkpt lat="47.53025" lon="6.75296">
        <ele>388</ele>
        <time>2015-10-11T08:20:39.000Z</time>
      </trkpt>
      <trkpt lat="47.53027" lon="6.75299">
        <ele>388</ele>
        <time>2015-10-11T08:20:42.000Z</time>
      </trkpt>
      <trkpt lat="47.53028" lon="6.75302">
        <ele>388</ele>
        <time>2015-10-11T08:20:43.000Z</time>
      </trkpt>
      <trkpt lat="47.53028" lon="6.75308">
        <ele>388</ele>
        <time>2015-10-11T08:20:44.000Z</time>
      </trkpt>
      <trkpt lat="47.53028" lon="6.75313">
        <ele>387</ele>
        <time>2015-10-11T08:20:45.000Z</time>
      </trkpt>
      <trkpt lat="47.53027" lon="6.75318">
        <ele>387</ele>
        <time>2015-10-11T08:20:46.000Z</time>
      </trkpt>
      <trkpt lat="47.53027" lon="6.75323">
        <ele>387</ele>
        <time>2015-10-11T08:20:47.000Z</time>
      </trkpt>
      <trkpt lat="47.53026" lon="6.75327">
        <ele>387</ele>
        <time>2015-10-11T08:20:48.000Z</time>
      </trkpt>
      <trkpt lat="47.53025" lon="6.75331">
        <ele>387</ele>
        <time>2015-10-11T08:20:49.000Z</time>
      </trkpt>
      <trkpt lat="47.53025" lon="6.75334">
        <ele>384</ele>
        <time>2015-10-11T08:20:50.000Z</time>
      </trkpt>
      <trkpt lat="47.53024" lon="6.75337">
        <ele>384</ele>
        <time>2015-10-11T08:20:51.000Z</time>
      </trkpt>
      <trkpt lat="47.53023" lon="6.75341">
        <ele>384</ele>
        <time>2015-10-11T08:20:52.000Z</time>
      </trkpt>
      <trkpt lat="47.53022" lon="6.75345">
        <ele>384</ele>
        <time>2015-10-11T08:20:53.000Z</time>
      </trkpt>
      <trkpt lat="47.53021" lon="6.7535">
        <ele>384</ele>
        <time>2015-10-11T08:20:54.000Z</time>
      </trkpt>
      <trkpt lat="47.5302" lon="6.75354">
        <ele>384</ele>
        <time>2015-10-11T08:20:55.000Z</time>
      </trkpt>
      <trkpt lat="47.5302" lon="6.75359">
        <ele>384</ele>
        <time>2015-10-11T08:20:56.000Z</time>
      </trkpt>
      <trkpt lat="47.53019" lon="6.75364">
        <ele>384</ele>
        <time>2015-10-11T08:20:57.000Z</time>
      </trkpt>
      <trkpt lat="47.53019" lon="6.75368">
        <ele>384</ele>
        <time>2015-10-11T08:20:58.000Z</time>
      </trkpt>
      <trkpt lat="47.53018" lon="6.75372">
        <ele>383</ele>
        <time>2015-10-11T08:20:59.000Z</time>
      </trkpt>
      <trkpt lat="47.53018" lon="6.75377">
        <ele>383</ele>
        <time>2015-10-11T08:21:00.000Z</time>
      </trkpt>
      <trkpt lat="47.53017" lon="6.75382">
        <ele>383</ele>
        <time>2015-10-11T08:21:01.000Z</time>
      </trkpt>
      <trkpt lat="47.53017" lon="6.75388">
        <ele>383</ele>
        <time>2015-10-11T08:21:02.000Z</time>
      </trkpt>
      <trkpt lat="47.53016" lon="6.75393">
        <ele>383</ele>
        <time>2015-10-11T08:21:03.000Z</time>
      </trkpt>
      <trkpt lat="47.53016" lon="6.75398">
        <ele>382</ele>
        <time>2015-10-11T08:21:04.000Z</time>
      </trkpt>
      <trkpt lat="47.53016" lon="6.75404">
        <ele>382</ele>
        <time>2015-10-11T08:21:05.000Z</time>
      </trkpt>
      <trkpt lat="47.53016" lon="6.7541">
        <ele>382</ele>
        <time>2015-10-11T08:21:06.000Z</time>
      </trkpt>
      <trkpt lat="47.53016" lon="6.75416">
        <ele>382</ele>
        <time>2015-10-11T08:21:07.000Z</time>
      </trkpt>
      <trkpt lat="47.53016" lon="6.75422">
        <ele>380</ele>
        <time>2015-10-11T08:21:08.000Z</time>
      </trkpt>
      <trkpt lat="47.53009" lon="6.75436">
        <ele>380</ele>
        <time>2015-10-11T08:21:09.000Z</time>
      </trkpt>
      <trkpt lat="47.53005" lon="6.75444">
        <ele>380</ele>
        <time>2015-10-11T08:21:10.000Z</time>
      </trkpt>
      <trkpt lat="47.53003" lon="6.75449">
        <ele>380</ele>
        <time>2015-10-11T08:21:11.000Z</time>
      </trkpt>
      <trkpt lat="47.53002" lon="6.75454">
        <ele>380</ele>
        <time>2015-10-11T08:21:12.000Z</time>
      </trkpt>
      <trkpt lat="47.53003" lon="6.75462">
        <ele>380</ele>
        <time>2015-10-11T08:21:13.000Z</time>
      </trkpt>
      <trkpt lat="47.53003" lon="6.75469">
        <ele>380</ele>
        <time>2015-10-11T08:21:14.000Z</time>
      </trkpt>
      <trkpt lat="47.53003" lon="6.75474">
        <ele>379</ele>
        <time>2015-10-11T08:21:15.000Z</time>
      </trkpt>
      <trkpt lat="47.53002" lon="6.7548">
        <ele>379</ele>
        <time>2015-10-11T08:21:16.000Z</time>
      </trkpt>
      <trkpt lat="47.53002" lon="6.75484">
        <ele>378</ele>
        <time>2015-10-11T08:21:17.000Z</time>
      </trkpt>
      <trkpt lat="47.53001" lon="6.75489">
        <ele>378</ele>
        <time>2015-10-11T08:21:18.000Z</time>
      </trkpt>
      <trkpt lat="47.53" lon="6.75494">
        <ele>377</ele>
        <time>2015-10-11T08:21:19.000Z</time>
      </trkpt>
      <trkpt lat="47.53" lon="6.75499">
        <ele>376</ele>
        <time>2015-10-11T08:21:20.000Z</time>
      </trkpt>
      <trkpt lat="47.52999" lon="6.75503">
        <ele>376</ele>
        <time>2015-10-11T08:21:21.000Z</time>
      </trkpt>
      <trkpt lat="47.52998" lon="6.75508">
        <ele>376</ele>
        <time>2015-10-11T08:21:21.998Z</time>
      </trkpt>
      <trkpt lat="47.52998" lon="6.75515">
        <ele>375</ele>
        <time>2015-10-11T08:21:23.000Z</time>
      </trkpt>
      <trkpt lat="47.52997" lon="6.75521">
        <ele>375</ele>
        <time>2015-10-11T08:21:24.000Z</time>
      </trkpt>
      <trkpt lat="47.52997" lon="6.75528">
        <ele>375</ele>
        <time>2015-10-11T08:21:25.000Z</time>
      </trkpt>
      <trkpt lat="47.52998" lon="6.75535">
        <ele>374</ele>
        <time>2015-10-11T08:21:26.000Z</time>
      </trkpt>
      <trkpt lat="47.52999" lon="6.75542">
        <ele>374</ele>
        <time>2015-10-11T08:21:27.000Z</time>
      </trkpt>
      <trkpt lat="47.52999" lon="6.7555">
        <ele>374</ele>
        <time>2015-10-11T08:21:28.000Z</time>
      </trkpt>
      <trkpt lat="47.53" lon="6.75557">
        <ele>373</ele>
        <time>2015-10-11T08:21:29.000Z</time>
      </trkpt>
      <trkpt lat="47.52999" lon="6.75565">
        <ele>373</ele>
        <time>2015-10-11T08:21:30.000Z</time>
      </trkpt>
      <trkpt lat="47.52999" lon="6.75572">
        <ele>372</ele>
        <time>2015-10-11T08:21:31.000Z</time>
      </trkpt>
      <trkpt lat="47.53" lon="6.7558">
        <ele>371</ele>
        <time>2015-10-11T08:21:32.000Z</time>
      </trkpt>
      <trkpt lat="47.53" lon="6.75587">
        <ele>370</ele>
        <time>2015-10-11T08:21:33.000Z</time>
      </trkpt>
      <trkpt lat="47.53" lon="6.75594">
        <ele>369</ele>
        <time>2015-10-11T08:21:34.000Z</time>
      </trkpt>
      <trkpt lat="47.52998" lon="6.75602">
        <ele>369</ele>
        <time>2015-10-11T08:21:35.000Z</time>
      </trkpt>
      <trkpt lat="47.52989" lon="6.75613">
        <ele>369</ele>
        <time>2015-10-11T08:21:36.000Z</time>
      </trkpt>
      <trkpt lat="47.52985" lon="6.75618">
        <ele>369</ele>
        <time>2015-10-11T08:21:37.000Z</time>
      </trkpt>
      <trkpt lat="47.52981" lon="6.75622">
        <ele>368</ele>
        <time>2015-10-11T08:21:38.000Z</time>
      </trkpt>
      <trkpt lat="47.52976" lon="6.75626">
        <ele>368</ele>
        <time>2015-10-11T08:21:39.000Z</time>
      </trkpt>
      <trkpt lat="47.5297" lon="6.75631">
        <ele>368</ele>
        <time>2015-10-11T08:21:40.000Z</time>
      </trkpt>
      <trkpt lat="47.52967" lon="6.75637">
        <ele>368</ele>
        <time>2015-10-11T08:21:41.000Z</time>
      </trkpt>
      <trkpt lat="47.52964" lon="6.75641">
        <ele>368</ele>
        <time>2015-10-11T08:21:42.000Z</time>
      </trkpt>
      <trkpt lat="47.52959" lon="6.75647">
        <ele>368</ele>
        <time>2015-10-11T08:21:43.000Z</time>
      </trkpt>
      <trkpt lat="47.52955" lon="6.75651">
        <ele>367</ele>
        <time>2015-10-11T08:21:44.000Z</time>
      </trkpt>
      <trkpt lat="47.52951" lon="6.75656">
        <ele>367</ele>
        <time>2015-10-11T08:21:45.000Z</time>
      </trkpt>
      <trkpt lat="47.52946" lon="6.75661">
        <ele>367</ele>
        <time>2015-10-11T08:21:46.000Z</time>
      </trkpt>
      <trkpt lat="47.5294" lon="6.75664">
        <ele>367</ele>
        <time>2015-10-11T08:21:47.000Z</time>
      </trkpt>
      <trkpt lat="47.52931" lon="6.75666">
        <ele>366</ele>
        <time>2015-10-11T08:21:48.000Z</time>
      </trkpt>
      <trkpt lat="47.52923" lon="6.75669">
        <ele>364</ele>
        <time>2015-10-11T08:21:49.000Z</time>
      </trkpt>
      <trkpt lat="47.52914" lon="6.75671">
        <ele>364</ele>
        <time>2015-10-11T08:21:50.000Z</time>
      </trkpt>
      <trkpt lat="47.52905" lon="6.75672">
        <ele>363</ele>
        <time>2015-10-11T08:21:51.000Z</time>
      </trkpt>
      <trkpt lat="47.52897" lon="6.75673">
        <ele>363</ele>
        <time>2015-10-11T08:21:52.000Z</time>
      </trkpt>
      <trkpt lat="47.5289" lon="6.75674">
        <ele>363</ele>
        <time>2015-10-11T08:21:53.000Z</time>
      </trkpt>
      <trkpt lat="47.52883" lon="6.75677">
        <ele>363</ele>
        <time>2015-10-11T08:21:54.000Z</time>
      </trkpt>
      <trkpt lat="47.52876" lon="6.75679">
        <ele>363</ele>
        <time>2015-10-11T08:21:55.000Z</time>
      </trkpt>
      <trkpt lat="47.5287" lon="6.75681">
        <ele>363</ele>
        <time>2015-10-11T08:21:56.000Z</time>
      </trkpt>
      <trkpt lat="47.52863" lon="6.75682">
        <ele>363</ele>
        <time>2015-10-11T08:21:57.000Z</time>
      </trkpt>
      <trkpt lat="47.52856" lon="6.75683">
        <ele>363</ele>
        <time>2015-10-11T08:21:58.000Z</time>
      </trkpt>
      <trkpt lat="47.52849" lon="6.75684">
        <ele>363</ele>
        <time>2015-10-11T08:21:59.000Z</time>
      </trkpt>
      <trkpt lat="47.52842" lon="6.75684">
        <ele>363</ele>
        <time>2015-10-11T08:22:00.000Z</time>
      </trkpt>
      <trkpt lat="47.52836" lon="6.75686">
        <ele>363</ele>
        <time>2015-10-11T08:22:01.000Z</time>
      </trkpt>
      <trkpt lat="47.5283" lon="6.75687">
        <ele>362</ele>
        <time>2015-10-11T08:22:02.000Z</time>
      </trkpt>
      <trkpt lat="47.52823" lon="6.75688">
        <ele>361</ele>
        <time>2015-10-11T08:22:03.000Z</time>
      </trkpt>
      <trkpt lat="47.52817" lon="6.75689">
        <ele>361</ele>
        <time>2015-10-11T08:22:04.000Z</time>
      </trkpt>
      <trkpt lat="47.52812" lon="6.75691">
        <ele>361</ele>
        <time>2015-10-11T08:22:05.000Z</time>
      </trkpt>
      <trkpt lat="47.52806" lon="6.75692">
        <ele>361</ele>
        <time>2015-10-11T08:22:06.000Z</time>
      </trkpt>
      <trkpt lat="47.52801" lon="6.75694">
        <ele>360</ele>
        <time>2015-10-11T08:22:07.000Z</time>
      </trkpt>
      <trkpt lat="47.52796" lon="6.75697">
        <ele>360</ele>
        <time>2015-10-11T08:22:08.000Z</time>
      </trkpt>
      <trkpt lat="47.5279" lon="6.75699">
        <ele>360</ele>
        <time>2015-10-11T08:22:09.000Z</time>
      </trkpt>
      <trkpt lat="47.52785" lon="6.75702">
        <ele>360</ele>
        <time>2015-10-11T08:22:10.000Z</time>
      </trkpt>
      <trkpt lat="47.52781" lon="6.75705">
        <ele>360</ele>
        <time>2015-10-11T08:22:11.000Z</time>
      </trkpt>
      <trkpt lat="47.52776" lon="6.75708">
        <ele>360</ele>
        <time>2015-10-11T08:22:12.000Z</time>
      </trkpt>
      <trkpt lat="47.52771" lon="6.75712">
        <ele>359</ele>
        <time>2015-10-11T08:22:13.000Z</time>
      </trkpt>
      <trkpt lat="47.52766" lon="6.75715">
        <ele>359</ele>
        <time>2015-10-11T08:22:14.000Z</time>
      </trkpt>
      <trkpt lat="47.52762" lon="6.75719">
        <ele>359</ele>
        <time>2015-10-11T08:22:15.000Z</time>
      </trkpt>
      <trkpt lat="47.52759" lon="6.75722">
        <ele>358</ele>
        <time>2015-10-11T08:22:16.000Z</time>
      </trkpt>
      <trkpt lat="47.52756" lon="6.75727">
        <ele>358</ele>
        <time>2015-10-11T08:22:17.000Z</time>
      </trkpt>
      <trkpt lat="47.52754" lon="6.75731">
        <ele>358</ele>
        <time>2015-10-11T08:22:18.000Z</time>
      </trkpt>
      <trkpt lat="47.52754" lon="6.75735">
        <ele>357</ele>
        <time>2015-10-11T08:22:19.000Z</time>
      </trkpt>
      <trkpt lat="47.52754" lon="6.7574">
        <ele>357</ele>
        <time>2015-10-11T08:22:20.000Z</time>
      </trkpt>
      <trkpt lat="47.52756" lon="6.75744">
        <ele>356</ele>
        <time>2015-10-11T08:22:21.000Z</time>
      </trkpt>
      <trkpt lat="47.52757" lon="6.75748">
        <ele>356</ele>
        <time>2015-10-11T08:22:22.000Z</time>
      </trkpt>
      <trkpt lat="47.52759" lon="6.75752">
        <ele>356</ele>
        <time>2015-10-11T08:22:23.000Z</time>
      </trkpt>
      <trkpt lat="47.5276" lon="6.75757">
        <ele>356</ele>
        <time>2015-10-11T08:22:24.000Z</time>
      </trkpt>
      <trkpt lat="47.52761" lon="6.75761">
        <ele>356</ele>
        <time>2015-10-11T08:22:25.000Z</time>
      </trkpt>
      <trkpt lat="47.52763" lon="6.75766">
        <ele>356</ele>
        <time>2015-10-11T08:22:26.000Z</time>
      </trkpt>
      <trkpt lat="47.52764" lon="6.7577">
        <ele>356</ele>
        <time>2015-10-11T08:22:27.000Z</time>
      </trkpt>
      <trkpt lat="47.52765" lon="6.75774">
        <ele>357</ele>
        <time>2015-10-11T08:22:28.000Z</time>
      </trkpt>
      <trkpt lat="47.52766" lon="6.75777">
        <ele>357</ele>
        <time>2015-10-11T08:22:29.000Z</time>
      </trkpt>
      <trkpt lat="47.52768" lon="6.7578">
        <ele>357</ele>
        <time>2015-10-11T08:22:30.000Z</time>
      </trkpt>
      <trkpt lat="47.52769" lon="6.75784">
        <ele>357</ele>
        <time>2015-10-11T08:22:31.000Z</time>
      </trkpt>
      <trkpt lat="47.5277" lon="6.75787">
        <ele>357</ele>
        <time>2015-10-11T08:22:32.000Z</time>
      </trkpt>
      <trkpt lat="47.52771" lon="6.7579">
        <ele>357</ele>
        <time>2015-10-11T08:22:33.000Z</time>
      </trkpt>
      <trkpt lat="47.52773" lon="6.75795">
        <ele>357</ele>
        <time>2015-10-11T08:22:35.000Z</time>
      </trkpt>
      <trkpt lat="47.52773" lon="6.75797">
        <ele>357</ele>
        <time>2015-10-11T08:22:36.000Z</time>
      </trkpt>
      <trkpt lat="47.52774" lon="6.75801">
        <ele>357</ele>
        <time>2015-10-11T08:22:38.000Z</time>
      </trkpt>
      <trkpt lat="47.52775" lon="6.75803">
        <ele>357</ele>
        <time>2015-10-11T08:22:39.000Z</time>
      </trkpt>
      <trkpt lat="47.52776" lon="6.75808">
        <ele>357</ele>
        <time>2015-10-11T08:22:41.000Z</time>
      </trkpt>
      <trkpt lat="47.52776" lon="6.75811">
        <ele>357</ele>
        <time>2015-10-11T08:22:42.000Z</time>
      </trkpt>
      <trkpt lat="47.52778" lon="6.75816">
        <ele>357</ele>
        <time>2015-10-11T08:22:44.000Z</time>
      </trkpt>
      <trkpt lat="47.52779" lon="6.75819">
        <ele>357</ele>
        <time>2015-10-11T08:22:45.000Z</time>
      </trkpt>
      <trkpt lat="47.5278" lon="6.75824">
        <ele>357</ele>
        <time>2015-10-11T08:22:47.000Z</time>
      </trkpt>
      <trkpt lat="47.5278" lon="6.75826">
        <ele>357</ele>
        <time>2015-10-11T08:22:48.000Z</time>
      </trkpt>
      <trkpt lat="47.52781" lon="6.7583">
        <ele>357</ele>
        <time>2015-10-11T08:22:50.000Z</time>
      </trkpt>
      <trkpt lat="47.52782" lon="6.75833">
        <ele>358</ele>
        <time>2015-10-11T08:22:51.000Z</time>
      </trkpt>
      <trkpt lat="47.52783" lon="6.75837">
        <ele>359</ele>
        <time>2015-10-11T08:22:53.000Z</time>
      </trkpt>
      <trkpt lat="47.52784" lon="6.75839">
        <ele>359</ele>
        <time>2015-10-11T08:22:54.000Z</time>
      </trkpt>
      <trkpt lat="47.52787" lon="6.75841">
        <ele>359</ele>
        <time>2015-10-11T08:22:56.000Z</time>
      </trkpt>
      <trkpt lat="47.52789" lon="6.75842">
        <ele>360</ele>
        <time>2015-10-11T08:22:57.000Z</time>
      </trkpt>
      <trkpt lat="47.52793" lon="6.7584">
        <ele>360</ele>
        <time>2015-10-11T08:22:59.000Z</time>
      </trkpt>
      <trkpt lat="47.52796" lon="6.7584">
        <ele>360</ele>
        <time>2015-10-11T08:23:00.000Z</time>
      </trkpt>
      <trkpt lat="47.52798" lon="6.75839">
        <ele>360</ele>
        <time>2015-10-11T08:23:01.000Z</time>
      </trkpt>
      <trkpt lat="47.52801" lon="6.75838">
        <ele>361</ele>
        <time>2015-10-11T08:23:02.000Z</time>
      </trkpt>
      <trkpt lat="47.52805" lon="6.75835">
        <ele>361</ele>
        <time>2015-10-11T08:23:04.000Z</time>
      </trkpt>
      <trkpt lat="47.52806" lon="6.75834">
        <ele>361</ele>
        <time>2015-10-11T08:23:05.000Z</time>
      </trkpt>
      <trkpt lat="47.52809" lon="6.75831">
        <ele>360</ele>
        <time>2015-10-11T08:23:07.000Z</time>
      </trkpt>
      <trkpt lat="47.52811" lon="6.7583">
        <ele>360</ele>
        <time>2015-10-11T08:23:08.000Z</time>
      </trkpt>
      <trkpt lat="47.52814" lon="6.75828">
        <ele>361</ele>
        <time>2015-10-11T08:23:10.000Z</time>
      </trkpt>
      <trkpt lat="47.52816" lon="6.75827">
        <ele>361</ele>
        <time>2015-10-11T08:23:11.000Z</time>
      </trkpt>
      <trkpt lat="47.52819" lon="6.75825">
        <ele>361</ele>
        <time>2015-10-11T08:23:13.000Z</time>
      </trkpt>
      <trkpt lat="47.5282" lon="6.75824">
        <ele>361</ele>
        <time>2015-10-11T08:23:14.000Z</time>
      </trkpt>
      <trkpt lat="47.52824" lon="6.7582">
        <ele>361</ele>
        <time>2015-10-11T08:23:17.000Z</time>
      </trkpt>
      <trkpt lat="47.52825" lon="6.75819">
        <ele>361</ele>
        <time>2015-10-11T08:23:18.000Z</time>
      </trkpt>
      <trkpt lat="47.52829" lon="6.75818">
        <ele>362</ele>
        <time>2015-10-11T08:23:20.000Z</time>
      </trkpt>
      <trkpt lat="47.52832" lon="6.75818">
        <ele>362</ele>
        <time>2015-10-11T08:23:21.000Z</time>
      </trkpt>
      <trkpt lat="47.52835" lon="6.75817">
        <ele>365</ele>
        <time>2015-10-11T08:23:22.000Z</time>
      </trkpt>
      <trkpt lat="47.52837" lon="6.75816">
        <ele>365</ele>
        <time>2015-10-11T08:23:23.000Z</time>
      </trkpt>
      <trkpt lat="47.52842" lon="6.75815">
        <ele>365</ele>
        <time>2015-10-11T08:23:25.000Z</time>
      </trkpt>
      <trkpt lat="47.52844" lon="6.75814">
        <ele>365</ele>
        <time>2015-10-11T08:23:26.000Z</time>
      </trkpt>
      <trkpt lat="47.52847" lon="6.75812">
        <ele>364</ele>
        <time>2015-10-11T08:23:28.000Z</time>
      </trkpt>
      <trkpt lat="47.52848" lon="6.75812">
        <ele>365</ele>
        <time>2015-10-11T08:23:29.000Z</time>
      </trkpt>
      <trkpt lat="47.52852" lon="6.75811">
        <ele>365</ele>
        <time>2015-10-11T08:23:33.000Z</time>
      </trkpt>
      <trkpt lat="47.52854" lon="6.75811">
        <ele>365</ele>
        <time>2015-10-11T08:23:34.000Z</time>
      </trkpt>
      <trkpt lat="47.52858" lon="6.7581">
        <ele>365</ele>
        <time>2015-10-11T08:23:36.000Z</time>
      </trkpt>
      <trkpt lat="47.5286" lon="6.75809">
        <ele>365</ele>
        <time>2015-10-11T08:23:37.000Z</time>
      </trkpt>
      <trkpt lat="47.52862" lon="6.75808">
        <ele>365</ele>
        <time>2015-10-11T08:23:38.000Z</time>
      </trkpt>
      <trkpt lat="47.52864" lon="6.75807">
        <ele>365</ele>
        <time>2015-10-11T08:23:39.000Z</time>
      </trkpt>
      <trkpt lat="47.52868" lon="6.75806">
        <ele>365</ele>
        <time>2015-10-11T08:23:41.000Z</time>
      </trkpt>
      <trkpt lat="47.5287" lon="6.75805">
        <ele>365</ele>
        <time>2015-10-11T08:23:42.000Z</time>
      </trkpt>
      <trkpt lat="47.52873" lon="6.75802">
        <ele>365</ele>
        <time>2015-10-11T08:23:44.000Z</time>
      </trkpt>
      <trkpt lat="47.52875" lon="6.758">
        <ele>365</ele>
        <time>2015-10-11T08:23:45.000Z</time>
      </trkpt>
      <trkpt lat="47.52877" lon="6.75799">
        <ele>365</ele>
        <time>2015-10-11T08:23:46.000Z</time>
      </trkpt>
      <trkpt lat="47.52879" lon="6.75797">
        <ele>365</ele>
        <time>2015-10-11T08:23:47.000Z</time>
      </trkpt>
      <trkpt lat="47.52881" lon="6.75796">
        <ele>365</ele>
        <time>2015-10-11T08:23:48.000Z</time>
      </trkpt>
      <trkpt lat="47.52883" lon="6.75795">
        <ele>365</ele>
        <time>2015-10-11T08:23:49.000Z</time>
      </trkpt>
      <trkpt lat="47.52887" lon="6.75796">
        <ele>365</ele>
        <time>2015-10-11T08:23:52.000Z</time>
      </trkpt>
      <trkpt lat="47.52888" lon="6.75797">
        <ele>365</ele>
        <time>2015-10-11T08:23:53.000Z</time>
      </trkpt>
      <trkpt lat="47.5289" lon="6.75802">
        <ele>366</ele>
        <time>2015-10-11T08:23:56.000Z</time>
      </trkpt>
      <trkpt lat="47.5289" lon="6.75804">
        <ele>366</ele>
        <time>2015-10-11T08:23:57.000Z</time>
      </trkpt>
      <trkpt lat="47.52892" lon="6.75808">
        <ele>366</ele>
        <time>2015-10-11T08:23:59.000Z</time>
      </trkpt>
      <trkpt lat="47.52893" lon="6.7581">
        <ele>366</ele>
        <time>2015-10-11T08:24:00.000Z</time>
      </trkpt>
      <trkpt lat="47.52895" lon="6.75814">
        <ele>367</ele>
        <time>2015-10-11T08:24:02.000Z</time>
      </trkpt>
      <trkpt lat="47.52896" lon="6.75816">
        <ele>367</ele>
        <time>2015-10-11T08:24:03.000Z</time>
      </trkpt>
      <trkpt lat="47.52898" lon="6.75822">
        <ele>368</ele>
        <time>2015-10-11T08:24:05.000Z</time>
      </trkpt>
      <trkpt lat="47.52899" lon="6.75824">
        <ele>368</ele>
        <time>2015-10-11T08:24:06.000Z</time>
      </trkpt>
      <trkpt lat="47.52901" lon="6.75829">
        <ele>368</ele>
        <time>2015-10-11T08:24:08.000Z</time>
      </trkpt>
      <trkpt lat="47.52902" lon="6.75831">
        <ele>369</ele>
        <time>2015-10-11T08:24:09.000Z</time>
      </trkpt>
      <trkpt lat="47.52905" lon="6.75833">
        <ele>369</ele>
        <time>2015-10-11T08:24:11.000Z</time>
      </trkpt>
      <trkpt lat="47.52906" lon="6.75834">
        <ele>371</ele>
        <time>2015-10-11T08:24:12.000Z</time>
      </trkpt>
      <trkpt lat="47.52904" lon="6.75839">
        <ele>371</ele>
        <time>2015-10-11T08:24:25.000Z</time>
      </trkpt>
      <trkpt lat="47.52904" lon="6.7584">
        <ele>371</ele>
        <time>2015-10-11T08:24:26.000Z</time>
      </trkpt>
      <trkpt lat="47.52908" lon="6.7584">
        <ele>371</ele>
        <time>2015-10-11T08:24:31.000Z</time>
      </trkpt>
      <trkpt lat="47.52909" lon="6.75841">
        <ele>371</ele>
        <time>2015-10-11T08:24:32.000Z</time>
      </trkpt>
      <trkpt lat="47.52911" lon="6.75845">
        <ele>371</ele>
        <time>2015-10-11T08:24:35.000Z</time>
      </trkpt>
      <trkpt lat="47.52911" lon="6.75847">
        <ele>371</ele>
        <time>2015-10-11T08:24:36.000Z</time>
      </trkpt>
      <trkpt lat="47.52913" lon="6.75852">
        <ele>371</ele>
        <time>2015-10-11T08:24:38.000Z</time>
      </trkpt>
      <trkpt lat="47.52913" lon="6.75855">
        <ele>370</ele>
        <time>2015-10-11T08:24:39.000Z</time>
      </trkpt>
      <trkpt lat="47.52915" lon="6.7586">
        <ele>370</ele>
        <time>2015-10-11T08:24:41.000Z</time>
      </trkpt>
      <trkpt lat="47.52916" lon="6.75862">
        <ele>370</ele>
        <time>2015-10-11T08:24:42.000Z</time>
      </trkpt>
      <trkpt lat="47.52919" lon="6.75866">
        <ele>374</ele>
        <time>2015-10-11T08:24:44.000Z</time>
      </trkpt>
      <trkpt lat="47.5292" lon="6.75869">
        <ele>374</ele>
        <time>2015-10-11T08:24:45.000Z</time>
      </trkpt>
      <trkpt lat="47.52922" lon="6.75874">
        <ele>374</ele>
        <time>2015-10-11T08:24:47.000Z</time>
      </trkpt>
      <trkpt lat="47.52923" lon="6.75877">
        <ele>374</ele>
        <time>2015-10-11T08:24:48.000Z</time>
      </trkpt>
      <trkpt lat="47.52924" lon="6.7588">
        <ele>375</ele>
        <time>2015-10-11T08:24:49.000Z</time>
      </trkpt>
      <trkpt lat="47.52925" lon="6.75884">
        <ele>375</ele>
        <time>2015-10-11T08:24:50.000Z</time>
      </trkpt>
      <trkpt lat="47.52925" lon="6.75888">
        <ele>375</ele>
        <time>2015-10-11T08:24:51.000Z</time>
      </trkpt>
      <trkpt lat="47.52926" lon="6.75892">
        <ele>375</ele>
        <time>2015-10-11T08:24:52.000Z</time>
      </trkpt>
      <trkpt lat="47.52927" lon="6.75895">
        <ele>375</ele>
        <time>2015-10-11T08:24:53.000Z</time>
      </trkpt>
      <trkpt lat="47.52927" lon="6.75899">
        <ele>375</ele>
        <time>2015-10-11T08:24:54.000Z</time>
      </trkpt>
      <trkpt lat="47.52928" lon="6.75903">
        <ele>375</ele>
        <time>2015-10-11T08:24:55.000Z</time>
      </trkpt>
      <trkpt lat="47.52928" lon="6.75907">
        <ele>375</ele>
        <time>2015-10-11T08:24:56.000Z</time>
      </trkpt>
      <trkpt lat="47.52928" lon="6.75911">
        <ele>375</ele>
        <time>2015-10-11T08:24:57.000Z</time>
      </trkpt>
      <trkpt lat="47.52928" lon="6.75915">
        <ele>375</ele>
        <time>2015-10-11T08:24:58.000Z</time>
      </trkpt>
      <trkpt lat="47.52928" lon="6.75918">
        <ele>376</ele>
        <time>2015-10-11T08:24:59.000Z</time>
      </trkpt>
      <trkpt lat="47.52928" lon="6.75921">
        <ele>376</ele>
        <time>2015-10-11T08:25:00.000Z</time>
      </trkpt>
      <trkpt lat="47.52929" lon="6.75927">
        <ele>376</ele>
        <time>2015-10-11T08:25:02.000Z</time>
      </trkpt>
      <trkpt lat="47.5293" lon="6.7593">
        <ele>376</ele>
        <time>2015-10-11T08:25:03.000Z</time>
      </trkpt>
      <trkpt lat="47.52932" lon="6.75934">
        <ele>377</ele>
        <time>2015-10-11T08:25:05.000Z</time>
      </trkpt>
      <trkpt lat="47.52933" lon="6.75936">
        <ele>377</ele>
        <time>2015-10-11T08:25:06.000Z</time>
      </trkpt>
      <trkpt lat="47.52936" lon="6.75939">
        <ele>377</ele>
        <time>2015-10-11T08:25:08.000Z</time>
      </trkpt>
      <trkpt lat="47.52938" lon="6.7594">
        <ele>377</ele>
        <time>2015-10-11T08:25:09.000Z</time>
      </trkpt>
      <trkpt lat="47.52941" lon="6.7594">
        <ele>377</ele>
        <time>2015-10-11T08:25:11.000Z</time>
      </trkpt>
      <trkpt lat="47.52943" lon="6.7594">
        <ele>377</ele>
        <time>2015-10-11T08:25:12.000Z</time>
      </trkpt>
      <trkpt lat="47.52947" lon="6.75943">
        <ele>378</ele>
        <time>2015-10-11T08:25:14.000Z</time>
      </trkpt>
      <trkpt lat="47.52948" lon="6.75947">
        <ele>378</ele>
        <time>2015-10-11T08:25:15.000Z</time>
      </trkpt>
      <trkpt lat="47.52949" lon="6.75953">
        <ele>378</ele>
        <time>2015-10-11T08:25:16.000Z</time>
      </trkpt>
      <trkpt lat="47.52949" lon="6.7596">
        <ele>378</ele>
        <time>2015-10-11T08:25:17.000Z</time>
      </trkpt>
      <trkpt lat="47.5295" lon="6.75967">
        <ele>378</ele>
        <time>2015-10-11T08:25:18.000Z</time>
      </trkpt>
      <trkpt lat="47.5295" lon="6.75973">
        <ele>378</ele>
        <time>2015-10-11T08:25:19.000Z</time>
      </trkpt>
      <trkpt lat="47.52951" lon="6.7598">
        <ele>378</ele>
        <time>2015-10-11T08:25:20.000Z</time>
      </trkpt>
      <trkpt lat="47.52952" lon="6.75986">
        <ele>379</ele>
        <time>2015-10-11T08:25:21.000Z</time>
      </trkpt>
      <trkpt lat="47.52953" lon="6.75991">
        <ele>379</ele>
        <time>2015-10-11T08:25:22.000Z</time>
      </trkpt>
      <trkpt lat="47.52953" lon="6.75997">
        <ele>379</ele>
        <time>2015-10-11T08:25:23.000Z</time>
      </trkpt>
      <trkpt lat="47.52954" lon="6.76003">
        <ele>380</ele>
        <time>2015-10-11T08:25:24.000Z</time>
      </trkpt>
      <trkpt lat="47.52955" lon="6.76009">
        <ele>380</ele>
        <time>2015-10-11T08:25:25.000Z</time>
      </trkpt>
      <trkpt lat="47.52958" lon="6.76015">
        <ele>380</ele>
        <time>2015-10-11T08:25:26.000Z</time>
      </trkpt>
      <trkpt lat="47.5296" lon="6.76022">
        <ele>380</ele>
        <time>2015-10-11T08:25:27.000Z</time>
      </trkpt>
      <trkpt lat="47.52962" lon="6.76028">
        <ele>380</ele>
        <time>2015-10-11T08:25:28.000Z</time>
      </trkpt>
      <trkpt lat="47.52965" lon="6.76033">
        <ele>380</ele>
        <time>2015-10-11T08:25:29.000Z</time>
      </trkpt>
      <trkpt lat="47.52966" lon="6.76038">
        <ele>380</ele>
        <time>2015-10-11T08:25:30.000Z</time>
      </trkpt>
      <trkpt lat="47.52968" lon="6.76042">
        <ele>381</ele>
        <time>2015-10-11T08:25:31.000Z</time>
      </trkpt>
      <trkpt lat="47.5297" lon="6.76046">
        <ele>381</ele>
        <time>2015-10-11T08:25:32.000Z</time>
      </trkpt>
      <trkpt lat="47.52973" lon="6.7605">
        <ele>381</ele>
        <time>2015-10-11T08:25:34.000Z</time>
      </trkpt>
      <trkpt lat="47.52975" lon="6.76051">
        <ele>381</ele>
        <time>2015-10-11T08:25:35.000Z</time>
      </trkpt>
      <trkpt lat="47.52977" lon="6.76056">
        <ele>381</ele>
        <time>2015-10-11T08:25:37.000Z</time>
      </trkpt>
      <trkpt lat="47.52977" lon="6.76059">
        <ele>381</ele>
        <time>2015-10-11T08:25:38.000Z</time>
      </trkpt>
      <trkpt lat="47.52978" lon="6.76063">
        <ele>382</ele>
        <time>2015-10-11T08:25:39.000Z</time>
      </trkpt>
      <trkpt lat="47.52978" lon="6.76068">
        <ele>382</ele>
        <time>2015-10-11T08:25:40.000Z</time>
      </trkpt>
      <trkpt lat="47.52979" lon="6.76073">
        <ele>382</ele>
        <time>2015-10-11T08:25:41.000Z</time>
      </trkpt>
      <trkpt lat="47.5298" lon="6.76079">
        <ele>383</ele>
        <time>2015-10-11T08:25:42.000Z</time>
      </trkpt>
      <trkpt lat="47.52981" lon="6.76085">
        <ele>382</ele>
        <time>2015-10-11T08:25:43.000Z</time>
      </trkpt>
      <trkpt lat="47.52982" lon="6.76091">
        <ele>382</ele>
        <time>2015-10-11T08:25:44.000Z</time>
      </trkpt>
      <trkpt lat="47.52983" lon="6.76097">
        <ele>381</ele>
        <time>2015-10-11T08:25:45.000Z</time>
      </trkpt>
      <trkpt lat="47.52984" lon="6.76102">
        <ele>381</ele>
        <time>2015-10-11T08:25:46.000Z</time>
      </trkpt>
      <trkpt lat="47.52984" lon="6.76108">
        <ele>381</ele>
        <time>2015-10-11T08:25:47.000Z</time>
      </trkpt>
      <trkpt lat="47.52985" lon="6.76113">
        <ele>380</ele>
        <time>2015-10-11T08:25:48.000Z</time>
      </trkpt>
      <trkpt lat="47.52986" lon="6.76119">
        <ele>380</ele>
        <time>2015-10-11T08:25:49.000Z</time>
      </trkpt>
      <trkpt lat="47.52989" lon="6.7614">
        <ele>380</ele>
        <time>2015-10-11T08:25:50.000Z</time>
      </trkpt>
      <trkpt lat="47.52989" lon="6.76156">
        <ele>381</ele>
        <time>2015-10-11T08:25:51.000Z</time>
      </trkpt>
      <trkpt lat="47.52986" lon="6.76165">
        <ele>381</ele>
        <time>2015-10-11T08:25:52.000Z</time>
      </trkpt>
      <trkpt lat="47.52984" lon="6.76175">
        <ele>379</ele>
        <time>2015-10-11T08:25:53.000Z</time>
      </trkpt>
      <trkpt lat="47.52986" lon="6.76179">
        <ele>379</ele>
        <time>2015-10-11T08:25:54.000Z</time>
      </trkpt>
      <trkpt lat="47.52988" lon="6.76186">
        <ele>379</ele>
        <time>2015-10-11T08:25:55.000Z</time>
      </trkpt>
      <trkpt lat="47.52989" lon="6.76194">
        <ele>378</ele>
        <time>2015-10-11T08:25:56.000Z</time>
      </trkpt>
      <trkpt lat="47.52987" lon="6.76206">
        <ele>377</ele>
        <time>2015-10-11T08:25:57.000Z</time>
      </trkpt>
      <trkpt lat="47.52987" lon="6.76218">
        <ele>377</ele>
        <time>2015-10-11T08:25:58.000Z</time>
      </trkpt>
      <trkpt lat="47.52985" lon="6.76227">
        <ele>377</ele>
        <time>2015-10-11T08:25:59.000Z</time>
      </trkpt>
      <trkpt lat="47.52985" lon="6.76237">
        <ele>377</ele>
        <time>2015-10-11T08:26:00.000Z</time>
      </trkpt>
      <trkpt lat="47.52986" lon="6.76247">
        <ele>378</ele>
        <time>2015-10-11T08:26:01.000Z</time>
      </trkpt>
      <trkpt lat="47.52985" lon="6.76259">
        <ele>376</ele>
        <time>2015-10-11T08:26:02.000Z</time>
      </trkpt>
      <trkpt lat="47.52986" lon="6.76268">
        <ele>375</ele>
        <time>2015-10-11T08:26:03.000Z</time>
      </trkpt>
      <trkpt lat="47.52985" lon="6.76276">
        <ele>374</ele>
        <time>2015-10-11T08:26:04.000Z</time>
      </trkpt>
      <trkpt lat="47.52985" lon="6.76287">
        <ele>374</ele>
        <time>2015-10-11T08:26:05.000Z</time>
      </trkpt>
      <trkpt lat="47.52984" lon="6.76301">
        <ele>373</ele>
        <time>2015-10-11T08:26:06.000Z</time>
      </trkpt>
      <trkpt lat="47.52984" lon="6.76313">
        <ele>373</ele>
        <time>2015-10-11T08:26:07.000Z</time>
      </trkpt>
      <trkpt lat="47.52981" lon="6.76322">
        <ele>373</ele>
        <time>2015-10-11T08:26:08.000Z</time>
      </trkpt>
      <trkpt lat="47.52981" lon="6.76328">
        <ele>373</ele>
        <time>2015-10-11T08:26:09.000Z</time>
      </trkpt>
      <trkpt lat="47.5298" lon="6.76337">
        <ele>371</ele>
        <time>2015-10-11T08:26:10.000Z</time>
      </trkpt>
      <trkpt lat="47.52981" lon="6.76345">
        <ele>371</ele>
        <time>2015-10-11T08:26:11.000Z</time>
      </trkpt>
      <trkpt lat="47.52983" lon="6.76353">
        <ele>371</ele>
        <time>2015-10-11T08:26:12.000Z</time>
      </trkpt>
      <trkpt lat="47.52988" lon="6.76362">
        <ele>371</ele>
        <time>2015-10-11T08:26:13.000Z</time>
      </trkpt>
      <trkpt lat="47.52991" lon="6.76369">
        <ele>370</ele>
        <time>2015-10-11T08:26:14.000Z</time>
      </trkpt>
      <trkpt lat="47.52994" lon="6.76375">
        <ele>370</ele>
        <time>2015-10-11T08:26:15.000Z</time>
      </trkpt>
      <trkpt lat="47.52997" lon="6.76383">
        <ele>370</ele>
        <time>2015-10-11T08:26:16.000Z</time>
      </trkpt>
      <trkpt lat="47.52996" lon="6.76389">
        <ele>370</ele>
        <time>2015-10-11T08:26:17.000Z</time>
      </trkpt>
      <trkpt lat="47.52997" lon="6.76399">
        <ele>370</ele>
        <time>2015-10-11T08:26:18.000Z</time>
      </trkpt>
      <trkpt lat="47.52997" lon="6.7641">
        <ele>371</ele>
        <time>2015-10-11T08:26:19.000Z</time>
      </trkpt>
      <trkpt lat="47.52997" lon="6.76419">
        <ele>371</ele>
        <time>2015-10-11T08:26:20.000Z</time>
      </trkpt>
      <trkpt lat="47.52999" lon="6.76427">
        <ele>370</ele>
        <time>2015-10-11T08:26:21.000Z</time>
      </trkpt>
      <trkpt lat="47.53" lon="6.76437">
        <ele>369</ele>
        <time>2015-10-11T08:26:22.000Z</time>
      </trkpt>
      <trkpt lat="47.53001" lon="6.76445">
        <ele>373</ele>
        <time>2015-10-11T08:26:23.000Z</time>
      </trkpt>
      <trkpt lat="47.53004" lon="6.76454">
        <ele>373</ele>
        <time>2015-10-11T08:26:24.000Z</time>
      </trkpt>
      <trkpt lat="47.53004" lon="6.76463">
        <ele>373</ele>
        <time>2015-10-11T08:26:25.000Z</time>
      </trkpt>
      <trkpt lat="47.53002" lon="6.7647">
        <ele>373</ele>
        <time>2015-10-11T08:26:26.000Z</time>
      </trkpt>
      <trkpt lat="47.53002" lon="6.76476">
        <ele>373</ele>
        <time>2015-10-11T08:26:27.000Z</time>
      </trkpt>
      <trkpt lat="47.53003" lon="6.76484">
        <ele>373</ele>
        <time>2015-10-11T08:26:28.000Z</time>
      </trkpt>
      <trkpt lat="47.53004" lon="6.76497">
        <ele>372</ele>
        <time>2015-10-11T08:26:29.000Z</time>
      </trkpt>
      <trkpt lat="47.53002" lon="6.76505">
        <ele>372</ele>
        <time>2015-10-11T08:26:30.000Z</time>
      </trkpt>
      <trkpt lat="47.52999" lon="6.76508">
        <ele>370</ele>
        <time>2015-10-11T08:26:31.000Z</time>
      </trkpt>
      <trkpt lat="47.53" lon="6.76514">
        <ele>370</ele>
        <time>2015-10-11T08:26:32.000Z</time>
      </trkpt>
      <trkpt lat="47.53" lon="6.76519">
        <ele>370</ele>
        <time>2015-10-11T08:26:34.000Z</time>
      </trkpt>
      <trkpt lat="47.52999" lon="6.76521">
        <ele>370</ele>
        <time>2015-10-11T08:26:35.000Z</time>
      </trkpt>
      <trkpt lat="47.52996" lon="6.76525">
        <ele>370</ele>
        <time>2015-10-11T08:26:40.000Z</time>
      </trkpt>
      <trkpt lat="47.52996" lon="6.76526">
        <ele>370</ele>
        <time>2015-10-11T08:26:41.000Z</time>
      </trkpt>
      <trkpt lat="47.52993" lon="6.76532">
        <ele>370</ele>
        <time>2015-10-11T08:26:48.000Z</time>
      </trkpt>
      <trkpt lat="47.52993" lon="6.76532">
        <ele>370</ele>
        <time>2015-10-11T08:26:49.000Z</time>
      </trkpt>
      <trkpt lat="47.5299" lon="6.76537">
        <ele>370</ele>
        <time>2015-10-11T08:27:08.000Z</time>
      </trkpt>
      <trkpt lat="47.52989" lon="6.7654">
        <ele>370</ele>
        <time>2015-10-11T08:27:09.000Z</time>
      </trkpt>
      <trkpt lat="47.52987" lon="6.76544">
        <ele>370</ele>
        <time>2015-10-11T08:27:10.000Z</time>
      </trkpt>
      <trkpt lat="47.52985" lon="6.76549">
        <ele>370</ele>
        <time>2015-10-11T08:27:11.000Z</time>
      </trkpt>
      <trkpt lat="47.52983" lon="6.76553">
        <ele>370</ele>
        <time>2015-10-11T08:27:12.000Z</time>
      </trkpt>
      <trkpt lat="47.52982" lon="6.76557">
        <ele>370</ele>
        <time>2015-10-11T08:27:13.000Z</time>
      </trkpt>
      <trkpt lat="47.5298" lon="6.7656">
        <ele>370</ele>
        <time>2015-10-11T08:27:14.000Z</time>
      </trkpt>
      <trkpt lat="47.52979" lon="6.76564">
        <ele>370</ele>
        <time>2015-10-11T08:27:15.000Z</time>
      </trkpt>
      <trkpt lat="47.52978" lon="6.76568">
        <ele>371</ele>
        <time>2015-10-11T08:27:16.000Z</time>
      </trkpt>
      <trkpt lat="47.52977" lon="6.76572">
        <ele>371</ele>
        <time>2015-10-11T08:27:17.000Z</time>
      </trkpt>
      <trkpt lat="47.52976" lon="6.76577">
        <ele>371</ele>
        <time>2015-10-11T08:27:18.000Z</time>
      </trkpt>
      <trkpt lat="47.52975" lon="6.76581">
        <ele>371</ele>
        <time>2015-10-11T08:27:19.000Z</time>
      </trkpt>
      <trkpt lat="47.52974" lon="6.76586">
        <ele>373</ele>
        <time>2015-10-11T08:27:20.000Z</time>
      </trkpt>
      <trkpt lat="47.52972" lon="6.76591">
        <ele>373</ele>
        <time>2015-10-11T08:27:21.000Z</time>
      </trkpt>
      <trkpt lat="47.52971" lon="6.76595">
        <ele>373</ele>
        <time>2015-10-11T08:27:22.000Z</time>
      </trkpt>
      <trkpt lat="47.5297" lon="6.76599">
        <ele>373</ele>
        <time>2015-10-11T08:27:23.000Z</time>
      </trkpt>
      <trkpt lat="47.52969" lon="6.76604">
        <ele>372</ele>
        <time>2015-10-11T08:27:24.000Z</time>
      </trkpt>
      <trkpt lat="47.52968" lon="6.76608">
        <ele>372</ele>
        <time>2015-10-11T08:27:25.000Z</time>
      </trkpt>
      <trkpt lat="47.52966" lon="6.76612">
        <ele>372</ele>
        <time>2015-10-11T08:27:26.000Z</time>
      </trkpt>
      <trkpt lat="47.52965" lon="6.76617">
        <ele>372</ele>
        <time>2015-10-11T08:27:27.000Z</time>
      </trkpt>
      <trkpt lat="47.52965" lon="6.76622">
        <ele>373</ele>
        <time>2015-10-11T08:27:28.000Z</time>
      </trkpt>
      <trkpt lat="47.52964" lon="6.76627">
        <ele>373</ele>
        <time>2015-10-11T08:27:29.000Z</time>
      </trkpt>
      <trkpt lat="47.52964" lon="6.76632">
        <ele>373</ele>
        <time>2015-10-11T08:27:30.000Z</time>
      </trkpt>
      <trkpt lat="47.52963" lon="6.76638">
        <ele>373</ele>
        <time>2015-10-11T08:27:31.000Z</time>
      </trkpt>
      <trkpt lat="47.52961" lon="6.76644">
        <ele>373</ele>
        <time>2015-10-11T08:27:32.000Z</time>
      </trkpt>
      <trkpt lat="47.5296" lon="6.7665">
        <ele>373</ele>
        <time>2015-10-11T08:27:33.000Z</time>
      </trkpt>
      <trkpt lat="47.52959" lon="6.76656">
        <ele>373</ele>
        <time>2015-10-11T08:27:34.000Z</time>
      </trkpt>
      <trkpt lat="47.52958" lon="6.76661">
        <ele>373</ele>
        <time>2015-10-11T08:27:35.000Z</time>
      </trkpt>
      <trkpt lat="47.52957" lon="6.76666">
        <ele>373</ele>
        <time>2015-10-11T08:27:36.000Z</time>
      </trkpt>
      <trkpt lat="47.52957" lon="6.76671">
        <ele>375</ele>
        <time>2015-10-11T08:27:37.000Z</time>
      </trkpt>
      <trkpt lat="47.52956" lon="6.76677">
        <ele>375</ele>
        <time>2015-10-11T08:27:38.000Z</time>
      </trkpt>
      <trkpt lat="47.52956" lon="6.76682">
        <ele>375</ele>
        <time>2015-10-11T08:27:39.000Z</time>
      </trkpt>
      <trkpt lat="47.52955" lon="6.76687">
        <ele>375</ele>
        <time>2015-10-11T08:27:40.000Z</time>
      </trkpt>
      <trkpt lat="47.52955" lon="6.76692">
        <ele>375</ele>
        <time>2015-10-11T08:27:41.000Z</time>
      </trkpt>
      <trkpt lat="47.52954" lon="6.76698">
        <ele>375</ele>
        <time>2015-10-11T08:27:42.000Z</time>
      </trkpt>
      <trkpt lat="47.52953" lon="6.76703">
        <ele>375</ele>
        <time>2015-10-11T08:27:43.000Z</time>
      </trkpt>
      <trkpt lat="47.52952" lon="6.7671">
        <ele>375</ele>
        <time>2015-10-11T08:27:44.000Z</time>
      </trkpt>
      <trkpt lat="47.5295" lon="6.76717">
        <ele>375</ele>
        <time>2015-10-11T08:27:45.000Z</time>
      </trkpt>
      <trkpt lat="47.52947" lon="6.76725">
        <ele>375</ele>
        <time>2015-10-11T08:27:46.000Z</time>
      </trkpt>
      <trkpt lat="47.52945" lon="6.76732">
        <ele>375</ele>
        <time>2015-10-11T08:27:47.000Z</time>
      </trkpt>
      <trkpt lat="47.52943" lon="6.76738">
        <ele>375</ele>
        <time>2015-10-11T08:27:48.000Z</time>
      </trkpt>
      <trkpt lat="47.5294" lon="6.76743">
        <ele>375</ele>
        <time>2015-10-11T08:27:49.000Z</time>
      </trkpt>
      <trkpt lat="47.52938" lon="6.76748">
        <ele>374</ele>
        <time>2015-10-11T08:27:50.000Z</time>
      </trkpt>
      <trkpt lat="47.52936" lon="6.76754">
        <ele>376</ele>
        <time>2015-10-11T08:27:51.000Z</time>
      </trkpt>
      <trkpt lat="47.52934" lon="6.76759">
        <ele>376</ele>
        <time>2015-10-11T08:27:52.000Z</time>
      </trkpt>
      <trkpt lat="47.52933" lon="6.76765">
        <ele>376</ele>
        <time>2015-10-11T08:27:53.000Z</time>
      </trkpt>
      <trkpt lat="47.52931" lon="6.76771">
        <ele>376</ele>
        <time>2015-10-11T08:27:54.000Z</time>
      </trkpt>
      <trkpt lat="47.5293" lon="6.76776">
        <ele>376</ele>
        <time>2015-10-11T08:27:55.000Z</time>
      </trkpt>
      <trkpt lat="47.52928" lon="6.76781">
        <ele>376</ele>
        <time>2015-10-11T08:27:56.000Z</time>
      </trkpt>
      <trkpt lat="47.52927" lon="6.76786">
        <ele>376</ele>
        <time>2015-10-11T08:27:57.000Z</time>
      </trkpt>
      <trkpt lat="47.52925" lon="6.76791">
        <ele>376</ele>
        <time>2015-10-11T08:27:58.000Z</time>
      </trkpt>
      <trkpt lat="47.52924" lon="6.76795">
        <ele>377</ele>
        <time>2015-10-11T08:27:59.000Z</time>
      </trkpt>
      <trkpt lat="47.52923" lon="6.76799">
        <ele>377</ele>
        <time>2015-10-11T08:28:00.000Z</time>
      </trkpt>
      <trkpt lat="47.52922" lon="6.76803">
        <ele>377</ele>
        <time>2015-10-11T08:28:01.000Z</time>
      </trkpt>
      <trkpt lat="47.52921" lon="6.76806">
        <ele>377</ele>
        <time>2015-10-11T08:28:02.000Z</time>
      </trkpt>
      <trkpt lat="47.52921" lon="6.76812">
        <ele>377</ele>
        <time>2015-10-11T08:28:06.000Z</time>
      </trkpt>
      <trkpt lat="47.52923" lon="6.76812">
        <ele>377</ele>
        <time>2015-10-11T08:28:07.000Z</time>
      </trkpt>
      <trkpt lat="47.52927" lon="6.76812">
        <ele>377</ele>
        <time>2015-10-11T08:28:09.000Z</time>
      </trkpt>
      <trkpt lat="47.52928" lon="6.76811">
        <ele>377</ele>
        <time>2015-10-11T08:28:10.000Z</time>
      </trkpt>
      <trkpt lat="47.52932" lon="6.76809">
        <ele>377</ele>
        <time>2015-10-11T08:28:12.000Z</time>
      </trkpt>
      <trkpt lat="47.52933" lon="6.76808">
        <ele>377</ele>
        <time>2015-10-11T08:28:13.000Z</time>
      </trkpt>
      <trkpt lat="47.52936" lon="6.76805">
        <ele>377</ele>
        <time>2015-10-11T08:28:15.000Z</time>
      </trkpt>
      <trkpt lat="47.52937" lon="6.76803">
        <ele>377</ele>
        <time>2015-10-11T08:28:16.000Z</time>
      </trkpt>
      <trkpt lat="47.5294" lon="6.76801">
        <ele>377</ele>
        <time>2015-10-11T08:28:18.000Z</time>
      </trkpt>
      <trkpt lat="47.52942" lon="6.76799">
        <ele>377</ele>
        <time>2015-10-11T08:28:19.000Z</time>
      </trkpt>
      <trkpt lat="47.52945" lon="6.76796">
        <ele>377</ele>
        <time>2015-10-11T08:28:21.000Z</time>
      </trkpt>
      <trkpt lat="47.52947" lon="6.76794">
        <ele>377</ele>
        <time>2015-10-11T08:28:22.000Z</time>
      </trkpt>
      <trkpt lat="47.5295" lon="6.76792">
        <ele>377</ele>
        <time>2015-10-11T08:28:23.000Z</time>
      </trkpt>
      <trkpt lat="47.52952" lon="6.7679">
        <ele>377</ele>
        <time>2015-10-11T08:28:24.000Z</time>
      </trkpt>
      <trkpt lat="47.52954" lon="6.76788">
        <ele>377</ele>
        <time>2015-10-11T08:28:25.000Z</time>
      </trkpt>
      <trkpt lat="47.52956" lon="6.76785">
        <ele>377</ele>
        <time>2015-10-11T08:28:26.000Z</time>
      </trkpt>
      <trkpt lat="47.52959" lon="6.76783">
        <ele>377</ele>
        <time>2015-10-11T08:28:27.000Z</time>
      </trkpt>
      <trkpt lat="47.52961" lon="6.76781">
        <ele>377</ele>
        <time>2015-10-11T08:28:28.000Z</time>
      </trkpt>
      <trkpt lat="47.52963" lon="6.76779">
        <ele>378</ele>
        <time>2015-10-11T08:28:29.000Z</time>
      </trkpt>
      <trkpt lat="47.52965" lon="6.76777">
        <ele>378</ele>
        <time>2015-10-11T08:28:30.000Z</time>
      </trkpt>
      <trkpt lat="47.52967" lon="6.76776">
        <ele>378</ele>
        <time>2015-10-11T08:28:31.000Z</time>
      </trkpt>
      <trkpt lat="47.52969" lon="6.76774">
        <ele>378</ele>
        <time>2015-10-11T08:28:32.000Z</time>
      </trkpt>
      <trkpt lat="47.52971" lon="6.76772">
        <ele>378</ele>
        <time>2015-10-11T08:28:33.000Z</time>
      </trkpt>
      <trkpt lat="47.52974" lon="6.76771">
        <ele>378</ele>
        <time>2015-10-11T08:28:34.000Z</time>
      </trkpt>
      <trkpt lat="47.52977" lon="6.76768">
        <ele>378</ele>
        <time>2015-10-11T08:28:36.000Z</time>
      </trkpt>
      <trkpt lat="47.52979" lon="6.76767">
        <ele>378</ele>
        <time>2015-10-11T08:28:37.000Z</time>
      </trkpt>
      <trkpt lat="47.52982" lon="6.76763">
        <ele>378</ele>
        <time>2015-10-11T08:28:39.000Z</time>
      </trkpt>
      <trkpt lat="47.52983" lon="6.76761">
        <ele>379</ele>
        <time>2015-10-11T08:28:40.000Z</time>
      </trkpt>
      <trkpt lat="47.52985" lon="6.76758">
        <ele>379</ele>
        <time>2015-10-11T08:28:41.000Z</time>
      </trkpt>
      <trkpt lat="47.52987" lon="6.76756">
        <ele>379</ele>
        <time>2015-10-11T08:28:42.000Z</time>
      </trkpt>
      <trkpt lat="47.52989" lon="6.76753">
        <ele>379</ele>
        <time>2015-10-11T08:28:43.000Z</time>
      </trkpt>
      <trkpt lat="47.52991" lon="6.76751">
        <ele>379</ele>
        <time>2015-10-11T08:28:44.000Z</time>
      </trkpt>
      <trkpt lat="47.52993" lon="6.76749">
        <ele>379</ele>
        <time>2015-10-11T08:28:45.000Z</time>
      </trkpt>
      <trkpt lat="47.52996" lon="6.76746">
        <ele>379</ele>
        <time>2015-10-11T08:28:46.000Z</time>
      </trkpt>
      <trkpt lat="47.52998" lon="6.76744">
        <ele>379</ele>
        <time>2015-10-11T08:28:47.000Z</time>
      </trkpt>
      <trkpt lat="47.53" lon="6.76741">
        <ele>380</ele>
        <time>2015-10-11T08:28:48.000Z</time>
      </trkpt>
      <trkpt lat="47.53003" lon="6.76739">
        <ele>380</ele>
        <time>2015-10-11T08:28:49.000Z</time>
      </trkpt>
      <trkpt lat="47.53006" lon="6.76736">
        <ele>380</ele>
        <time>2015-10-11T08:28:50.000Z</time>
      </trkpt>
      <trkpt lat="47.53009" lon="6.76734">
        <ele>380</ele>
        <time>2015-10-11T08:28:51.000Z</time>
      </trkpt>
      <trkpt lat="47.53013" lon="6.7673">
        <ele>380</ele>
        <time>2015-10-11T08:28:52.000Z</time>
      </trkpt>
      <trkpt lat="47.53017" lon="6.76727">
        <ele>380</ele>
        <time>2015-10-11T08:28:53.000Z</time>
      </trkpt>
      <trkpt lat="47.5302" lon="6.76724">
        <ele>380</ele>
        <time>2015-10-11T08:28:54.000Z</time>
      </trkpt>
      <trkpt lat="47.53023" lon="6.76721">
        <ele>380</ele>
        <time>2015-10-11T08:28:55.000Z</time>
      </trkpt>
      <trkpt lat="47.53026" lon="6.76718">
        <ele>380</ele>
        <time>2015-10-11T08:28:56.000Z</time>
      </trkpt>
      <trkpt lat="47.53029" lon="6.76716">
        <ele>380</ele>
        <time>2015-10-11T08:28:57.000Z</time>
      </trkpt>
      <trkpt lat="47.53032" lon="6.76713">
        <ele>380</ele>
        <time>2015-10-11T08:28:58.000Z</time>
      </trkpt>
      <trkpt lat="47.53035" lon="6.7671">
        <ele>380</ele>
        <time>2015-10-11T08:28:59.000Z</time>
      </trkpt>
      <trkpt lat="47.53038" lon="6.76707">
        <ele>380</ele>
        <time>2015-10-11T08:29:00.000Z</time>
      </trkpt>
      <trkpt lat="47.53041" lon="6.76704">
        <ele>380</ele>
        <time>2015-10-11T08:29:01.000Z</time>
      </trkpt>
      <trkpt lat="47.53043" lon="6.76701">
        <ele>380</ele>
        <time>2015-10-11T08:29:02.000Z</time>
      </trkpt>
      <trkpt lat="47.53046" lon="6.76698">
        <ele>380</ele>
        <time>2015-10-11T08:29:03.000Z</time>
      </trkpt>
      <trkpt lat="47.53049" lon="6.76696">
        <ele>380</ele>
        <time>2015-10-11T08:29:04.000Z</time>
      </trkpt>
      <trkpt lat="47.53052" lon="6.76693">
        <ele>380</ele>
        <time>2015-10-11T08:29:05.000Z</time>
      </trkpt>
      <trkpt lat="47.53054" lon="6.76691">
        <ele>380</ele>
        <time>2015-10-11T08:29:06.000Z</time>
      </trkpt>
      <trkpt lat="47.53057" lon="6.76688">
        <ele>380</ele>
        <time>2015-10-11T08:29:07.000Z</time>
      </trkpt>
      <trkpt lat="47.53061" lon="6.76684">
        <ele>380</ele>
        <time>2015-10-11T08:29:08.000Z</time>
      </trkpt>
      <trkpt lat="47.53065" lon="6.76678">
        <ele>380</ele>
        <time>2015-10-11T08:29:09.000Z</time>
      </trkpt>
      <trkpt lat="47.5307" lon="6.76674">
        <ele>380</ele>
        <time>2015-10-11T08:29:10.000Z</time>
      </trkpt>
      <trkpt lat="47.53074" lon="6.76669">
        <ele>380</ele>
        <time>2015-10-11T08:29:11.000Z</time>
      </trkpt>
      <trkpt lat="47.53079" lon="6.76664">
        <ele>380</ele>
        <time>2015-10-11T08:29:12.000Z</time>
      </trkpt>
      <trkpt lat="47.53083" lon="6.7666">
        <ele>379</ele>
        <time>2015-10-11T08:29:13.000Z</time>
      </trkpt>
      <trkpt lat="47.53088" lon="6.76655">
        <ele>380</ele>
        <time>2015-10-11T08:29:14.000Z</time>
      </trkpt>
      <trkpt lat="47.53092" lon="6.76651">
        <ele>380</ele>
        <time>2015-10-11T08:29:15.000Z</time>
      </trkpt>
      <trkpt lat="47.53105" lon="6.76642">
        <ele>379</ele>
        <time>2015-10-11T08:29:16.000Z</time>
      </trkpt>
      <trkpt lat="47.5311" lon="6.76637">
        <ele>379</ele>
        <time>2015-10-11T08:29:17.000Z</time>
      </trkpt>
      <trkpt lat="47.53114" lon="6.76634">
        <ele>379</ele>
        <time>2015-10-11T08:29:18.000Z</time>
      </trkpt>
      <trkpt lat="47.53118" lon="6.7663">
        <ele>379</ele>
        <time>2015-10-11T08:29:19.000Z</time>
      </trkpt>
      <trkpt lat="47.53121" lon="6.76627">
        <ele>379</ele>
        <time>2015-10-11T08:29:20.000Z</time>
      </trkpt>
      <trkpt lat="47.53123" lon="6.76624">
        <ele>379</ele>
        <time>2015-10-11T08:29:21.000Z</time>
      </trkpt>
      <trkpt lat="47.53124" lon="6.7662">
        <ele>379</ele>
        <time>2015-10-11T08:29:22.000Z</time>
      </trkpt>
      <trkpt lat="47.53126" lon="6.76617">
        <ele>379</ele>
        <time>2015-10-11T08:29:23.000Z</time>
      </trkpt>
      <trkpt lat="47.53127" lon="6.76613">
        <ele>379</ele>
        <time>2015-10-11T08:29:24.000Z</time>
      </trkpt>
      <trkpt lat="47.53127" lon="6.76609">
        <ele>379</ele>
        <time>2015-10-11T08:29:25.000Z</time>
      </trkpt>
      <trkpt lat="47.53128" lon="6.76604">
        <ele>379</ele>
        <time>2015-10-11T08:29:26.000Z</time>
      </trkpt>
      <trkpt lat="47.53129" lon="6.766">
        <ele>379</ele>
        <time>2015-10-11T08:29:27.000Z</time>
      </trkpt>
      <trkpt lat="47.5313" lon="6.76596">
        <ele>379</ele>
        <time>2015-10-11T08:29:28.000Z</time>
      </trkpt>
      <trkpt lat="47.53131" lon="6.76592">
        <ele>379</ele>
        <time>2015-10-11T08:29:29.000Z</time>
      </trkpt>
      <trkpt lat="47.53132" lon="6.76589">
        <ele>379</ele>
        <time>2015-10-11T08:29:30.000Z</time>
      </trkpt>
      <trkpt lat="47.53133" lon="6.76585">
        <ele>379</ele>
        <time>2015-10-11T08:29:31.000Z</time>
      </trkpt>
      <trkpt lat="47.53134" lon="6.76582">
        <ele>379</ele>
        <time>2015-10-11T08:29:32.000Z</time>
      </trkpt>
      <trkpt lat="47.53134" lon="6.76578">
        <ele>379</ele>
        <time>2015-10-11T08:29:33.000Z</time>
      </trkpt>
      <trkpt lat="47.53135" lon="6.76574">
        <ele>379</ele>
        <time>2015-10-11T08:29:34.000Z</time>
      </trkpt>
      <trkpt lat="47.53136" lon="6.7657">
        <ele>379</ele>
        <time>2015-10-11T08:29:35.000Z</time>
      </trkpt>
      <trkpt lat="47.53137" lon="6.76566">
        <ele>379</ele>
        <time>2015-10-11T08:29:36.000Z</time>
      </trkpt>
      <trkpt lat="47.53138" lon="6.76562">
        <ele>379</ele>
        <time>2015-10-11T08:29:37.000Z</time>
      </trkpt>
      <trkpt lat="47.53139" lon="6.76559">
        <ele>379</ele>
        <time>2015-10-11T08:29:38.000Z</time>
      </trkpt>
      <trkpt lat="47.5314" lon="6.76555">
        <ele>379</ele>
        <time>2015-10-11T08:29:39.000Z</time>
      </trkpt>
      <trkpt lat="47.53142" lon="6.7655">
        <ele>379</ele>
        <time>2015-10-11T08:29:40.000Z</time>
      </trkpt>
      <trkpt lat="47.53143" lon="6.76546">
        <ele>379</ele>
        <time>2015-10-11T08:29:41.000Z</time>
      </trkpt>
      <trkpt lat="47.53144" lon="6.76542">
        <ele>379</ele>
        <time>2015-10-11T08:29:42.000Z</time>
      </trkpt>
      <trkpt lat="47.53145" lon="6.76539">
        <ele>379</ele>
        <time>2015-10-11T08:29:43.000Z</time>
      </trkpt>
      <trkpt lat="47.53145" lon="6.76535">
        <ele>378</ele>
        <time>2015-10-11T08:29:44.000Z</time>
      </trkpt>
      <trkpt lat="47.53146" lon="6.7653">
        <ele>378</ele>
        <time>2015-10-11T08:29:45.000Z</time>
      </trkpt>
      <trkpt lat="47.53146" lon="6.76525">
        <ele>378</ele>
        <time>2015-10-11T08:29:46.000Z</time>
      </trkpt>
      <trkpt lat="47.53146" lon="6.76521">
        <ele>378</ele>
        <time>2015-10-11T08:29:47.000Z</time>
      </trkpt>
      <trkpt lat="47.53146" lon="6.76515">
        <ele>378</ele>
        <time>2015-10-11T08:29:48.000Z</time>
      </trkpt>
      <trkpt lat="47.53147" lon="6.76509">
        <ele>378</ele>
        <time>2015-10-11T08:29:49.000Z</time>
      </trkpt>
      <trkpt lat="47.53148" lon="6.76503">
        <ele>379</ele>
        <time>2015-10-11T08:29:50.000Z</time>
      </trkpt>
      <trkpt lat="47.5315" lon="6.76496">
        <ele>379</ele>
        <time>2015-10-11T08:29:51.000Z</time>
      </trkpt>
      <trkpt lat="47.53151" lon="6.76489">
        <ele>379</ele>
        <time>2015-10-11T08:29:52.000Z</time>
      </trkpt>
      <trkpt lat="47.53153" lon="6.76483">
        <ele>379</ele>
        <time>2015-10-11T08:29:53.000Z</time>
      </trkpt>
      <trkpt lat="47.53154" lon="6.76476">
        <ele>379</ele>
        <time>2015-10-11T08:29:54.000Z</time>
      </trkpt>
      <trkpt lat="47.53156" lon="6.7647">
        <ele>379</ele>
        <time>2015-10-11T08:29:55.000Z</time>
      </trkpt>
      <trkpt lat="47.53158" lon="6.76465">
        <ele>379</ele>
        <time>2015-10-11T08:29:56.000Z</time>
      </trkpt>
      <trkpt lat="47.53159" lon="6.76459">
        <ele>379</ele>
        <time>2015-10-11T08:29:57.000Z</time>
      </trkpt>
      <trkpt lat="47.53161" lon="6.76454">
        <ele>380</ele>
        <time>2015-10-11T08:29:58.000Z</time>
      </trkpt>
      <trkpt lat="47.53162" lon="6.76449">
        <ele>380</ele>
        <time>2015-10-11T08:29:59.000Z</time>
      </trkpt>
      <trkpt lat="47.53163" lon="6.76444">
        <ele>380</ele>
        <time>2015-10-11T08:30:00.000Z</time>
      </trkpt>
      <trkpt lat="47.53165" lon="6.76439">
        <ele>380</ele>
        <time>2015-10-11T08:30:01.000Z</time>
      </trkpt>
      <trkpt lat="47.53166" lon="6.76433">
        <ele>381</ele>
        <time>2015-10-11T08:30:02.000Z</time>
      </trkpt>
      <trkpt lat="47.53167" lon="6.76428">
        <ele>382</ele>
        <time>2015-10-11T08:30:03.000Z</time>
      </trkpt>
      <trkpt lat="47.53169" lon="6.76422">
        <ele>382</ele>
        <time>2015-10-11T08:30:04.000Z</time>
      </trkpt>
      <trkpt lat="47.5317" lon="6.76417">
        <ele>382</ele>
        <time>2015-10-11T08:30:05.000Z</time>
      </trkpt>
      <trkpt lat="47.53171" lon="6.76412">
        <ele>382</ele>
        <time>2015-10-11T08:30:06.000Z</time>
      </trkpt>
      <trkpt lat="47.53173" lon="6.76407">
        <ele>382</ele>
        <time>2015-10-11T08:30:07.000Z</time>
      </trkpt>
      <trkpt lat="47.53174" lon="6.76402">
        <ele>382</ele>
        <time>2015-10-11T08:30:08.000Z</time>
      </trkpt>
      <trkpt lat="47.53176" lon="6.76397">
        <ele>383</ele>
        <time>2015-10-11T08:30:09.000Z</time>
      </trkpt>
      <trkpt lat="47.53177" lon="6.76391">
        <ele>383</ele>
        <time>2015-10-11T08:30:10.000Z</time>
      </trkpt>
      <trkpt lat="47.53178" lon="6.76386">
        <ele>383</ele>
        <time>2015-10-11T08:30:11.000Z</time>
      </trkpt>
      <trkpt lat="47.5318" lon="6.7638">
        <ele>383</ele>
        <time>2015-10-11T08:30:12.000Z</time>
      </trkpt>
      <trkpt lat="47.53181" lon="6.76375">
        <ele>383</ele>
        <time>2015-10-11T08:30:13.000Z</time>
      </trkpt>
      <trkpt lat="47.53182" lon="6.76369">
        <ele>383</ele>
        <time>2015-10-11T08:30:14.000Z</time>
      </trkpt>
      <trkpt lat="47.53184" lon="6.76363">
        <ele>383</ele>
        <time>2015-10-11T08:30:15.000Z</time>
      </trkpt>
      <trkpt lat="47.53186" lon="6.76357">
        <ele>383</ele>
        <time>2015-10-11T08:30:16.000Z</time>
      </trkpt>
      <trkpt lat="47.53187" lon="6.76351">
        <ele>383</ele>
        <time>2015-10-11T08:30:17.000Z</time>
      </trkpt>
      <trkpt lat="47.53189" lon="6.76346">
        <ele>383</ele>
        <time>2015-10-11T08:30:18.000Z</time>
      </trkpt>
      <trkpt lat="47.5319" lon="6.76341">
        <ele>383</ele>
        <time>2015-10-11T08:30:19.000Z</time>
      </trkpt>
      <trkpt lat="47.53192" lon="6.76335">
        <ele>383</ele>
        <time>2015-10-11T08:30:20.000Z</time>
      </trkpt>
      <trkpt lat="47.53193" lon="6.7633">
        <ele>383</ele>
        <time>2015-10-11T08:30:21.000Z</time>
      </trkpt>
      <trkpt lat="47.53194" lon="6.76325">
        <ele>383</ele>
        <time>2015-10-11T08:30:22.000Z</time>
      </trkpt>
      <trkpt lat="47.53195" lon="6.76319">
        <ele>383</ele>
        <time>2015-10-11T08:30:23.000Z</time>
      </trkpt>
      <trkpt lat="47.53195" lon="6.76313">
        <ele>383</ele>
        <time>2015-10-11T08:30:24.000Z</time>
      </trkpt>
      <trkpt lat="47.53196" lon="6.76307">
        <ele>383</ele>
        <time>2015-10-11T08:30:25.000Z</time>
      </trkpt>
      <trkpt lat="47.53196" lon="6.76301">
        <ele>383</ele>
        <time>2015-10-11T08:30:26.000Z</time>
      </trkpt>
      <trkpt lat="47.53197" lon="6.76294">
        <ele>383</ele>
        <time>2015-10-11T08:30:27.000Z</time>
      </trkpt>
      <trkpt lat="47.53198" lon="6.76286">
        <ele>383</ele>
        <time>2015-10-11T08:30:28.000Z</time>
      </trkpt>
      <trkpt lat="47.53199" lon="6.76278">
        <ele>383</ele>
        <time>2015-10-11T08:30:29.000Z</time>
      </trkpt>
      <trkpt lat="47.532" lon="6.76269">
        <ele>383</ele>
        <time>2015-10-11T08:30:30.000Z</time>
      </trkpt>
      <trkpt lat="47.53202" lon="6.7626">
        <ele>382</ele>
        <time>2015-10-11T08:30:31.000Z</time>
      </trkpt>
      <trkpt lat="47.53202" lon="6.76251">
        <ele>382</ele>
        <time>2015-10-11T08:30:32.000Z</time>
      </trkpt>
      <trkpt lat="47.53203" lon="6.76242">
        <ele>383</ele>
        <time>2015-10-11T08:30:33.000Z</time>
      </trkpt>
      <trkpt lat="47.53203" lon="6.76234">
        <ele>383</ele>
        <time>2015-10-11T08:30:34.000Z</time>
      </trkpt>
      <trkpt lat="47.53203" lon="6.76226">
        <ele>383</ele>
        <time>2015-10-11T08:30:35.000Z</time>
      </trkpt>
      <trkpt lat="47.53204" lon="6.76218">
        <ele>383</ele>
        <time>2015-10-11T08:30:36.000Z</time>
      </trkpt>
      <trkpt lat="47.53204" lon="6.7621">
        <ele>383</ele>
        <time>2015-10-11T08:30:37.000Z</time>
      </trkpt>
      <trkpt lat="47.53205" lon="6.76203">
        <ele>383</ele>
        <time>2015-10-11T08:30:38.000Z</time>
      </trkpt>
      <trkpt lat="47.53206" lon="6.76196">
        <ele>383</ele>
        <time>2015-10-11T08:30:39.000Z</time>
      </trkpt>
      <trkpt lat="47.53206" lon="6.7619">
        <ele>383</ele>
        <time>2015-10-11T08:30:40.000Z</time>
      </trkpt>
      <trkpt lat="47.53207" lon="6.76184">
        <ele>383</ele>
        <time>2015-10-11T08:30:41.000Z</time>
      </trkpt>
      <trkpt lat="47.53207" lon="6.76179">
        <ele>383</ele>
        <time>2015-10-11T08:30:42.000Z</time>
      </trkpt>
      <trkpt lat="47.53207" lon="6.76174">
        <ele>383</ele>
        <time>2015-10-11T08:30:43.000Z</time>
      </trkpt>
      <trkpt lat="47.53207" lon="6.76169">
        <ele>383</ele>
        <time>2015-10-11T08:30:44.000Z</time>
      </trkpt>
      <trkpt lat="47.53207" lon="6.76164">
        <ele>383</ele>
        <time>2015-10-11T08:30:45.000Z</time>
      </trkpt>
      <trkpt lat="47.53206" lon="6.7616">
        <ele>383</ele>
        <time>2015-10-11T08:30:46.000Z</time>
      </trkpt>
      <trkpt lat="47.53207" lon="6.76156">
        <ele>383</ele>
        <time>2015-10-11T08:30:47.000Z</time>
      </trkpt>
      <trkpt lat="47.53207" lon="6.76151">
        <ele>383</ele>
        <time>2015-10-11T08:30:48.000Z</time>
      </trkpt>
      <trkpt lat="47.53207" lon="6.76148">
        <ele>383</ele>
        <time>2015-10-11T08:30:49.000Z</time>
      </trkpt>
      <trkpt lat="47.53208" lon="6.76144">
        <ele>383</ele>
        <time>2015-10-11T08:30:50.000Z</time>
      </trkpt>
      <trkpt lat="47.53208" lon="6.76139">
        <ele>383</ele>
        <time>2015-10-11T08:30:51.000Z</time>
      </trkpt>
      <trkpt lat="47.53209" lon="6.76135">
        <ele>383</ele>
        <time>2015-10-11T08:30:52.000Z</time>
      </trkpt>
      <trkpt lat="47.5321" lon="6.7613">
        <ele>383</ele>
        <time>2015-10-11T08:30:53.000Z</time>
      </trkpt>
      <trkpt lat="47.5321" lon="6.76126">
        <ele>384</ele>
        <time>2015-10-11T08:30:54.000Z</time>
      </trkpt>
      <trkpt lat="47.53211" lon="6.76122">
        <ele>384</ele>
        <time>2015-10-11T08:30:55.000Z</time>
      </trkpt>
      <trkpt lat="47.53211" lon="6.76119">
        <ele>384</ele>
        <time>2015-10-11T08:30:56.000Z</time>
      </trkpt>
      <trkpt lat="47.53211" lon="6.76115">
        <ele>384</ele>
        <time>2015-10-11T08:30:57.000Z</time>
      </trkpt>
      <trkpt lat="47.53211" lon="6.76112">
        <ele>384</ele>
        <time>2015-10-11T08:30:58.000Z</time>
      </trkpt>
      <trkpt lat="47.53212" lon="6.76108">
        <ele>384</ele>
        <time>2015-10-11T08:30:59.000Z</time>
      </trkpt>
      <trkpt lat="47.53212" lon="6.76103">
        <ele>384</ele>
        <time>2015-10-11T08:31:00.000Z</time>
      </trkpt>
      <trkpt lat="47.53212" lon="6.76099">
        <ele>384</ele>
        <time>2015-10-11T08:31:01.000Z</time>
      </trkpt>
      <trkpt lat="47.53212" lon="6.76094">
        <ele>384</ele>
        <time>2015-10-11T08:31:02.000Z</time>
      </trkpt>
      <trkpt lat="47.53211" lon="6.7609">
        <ele>384</ele>
        <time>2015-10-11T08:31:03.000Z</time>
      </trkpt>
      <trkpt lat="47.53211" lon="6.76085">
        <ele>384</ele>
        <time>2015-10-11T08:31:04.000Z</time>
      </trkpt>
      <trkpt lat="47.53211" lon="6.7608">
        <ele>384</ele>
        <time>2015-10-11T08:31:05.000Z</time>
      </trkpt>
      <trkpt lat="47.53211" lon="6.76074">
        <ele>384</ele>
        <time>2015-10-11T08:31:06.000Z</time>
      </trkpt>
      <trkpt lat="47.53211" lon="6.76068">
        <ele>384</ele>
        <time>2015-10-11T08:31:07.000Z</time>
      </trkpt>
      <trkpt lat="47.53211" lon="6.76063">
        <ele>384</ele>
        <time>2015-10-11T08:31:08.000Z</time>
      </trkpt>
      <trkpt lat="47.53211" lon="6.76058">
        <ele>384</ele>
        <time>2015-10-11T08:31:09.000Z</time>
      </trkpt>
      <trkpt lat="47.5321" lon="6.76053">
        <ele>384</ele>
        <time>2015-10-11T08:31:10.000Z</time>
      </trkpt>
      <trkpt lat="47.5321" lon="6.76048">
        <ele>384</ele>
        <time>2015-10-11T08:31:11.000Z</time>
      </trkpt>
      <trkpt lat="47.5321" lon="6.76042">
        <ele>384</ele>
        <time>2015-10-11T08:31:12.000Z</time>
      </trkpt>
      <trkpt lat="47.5321" lon="6.76037">
        <ele>384</ele>
        <time>2015-10-11T08:31:13.000Z</time>
      </trkpt>
      <trkpt lat="47.53209" lon="6.76032">
        <ele>384</ele>
        <time>2015-10-11T08:31:14.000Z</time>
      </trkpt>
      <trkpt lat="47.53209" lon="6.76027">
        <ele>384</ele>
        <time>2015-10-11T08:31:15.000Z</time>
      </trkpt>
      <trkpt lat="47.53208" lon="6.76021">
        <ele>384</ele>
        <time>2015-10-11T08:31:16.000Z</time>
      </trkpt>
      <trkpt lat="47.53206" lon="6.76015">
        <ele>384</ele>
        <time>2015-10-11T08:31:17.000Z</time>
      </trkpt>
      <trkpt lat="47.53205" lon="6.76008">
        <ele>384</ele>
        <time>2015-10-11T08:31:18.000Z</time>
      </trkpt>
      <trkpt lat="47.53204" lon="6.76001">
        <ele>384</ele>
        <time>2015-10-11T08:31:19.000Z</time>
      </trkpt>
      <trkpt lat="47.53202" lon="6.75994">
        <ele>384</ele>
        <time>2015-10-11T08:31:20.000Z</time>
      </trkpt>
      <trkpt lat="47.53201" lon="6.75987">
        <ele>384</ele>
        <time>2015-10-11T08:31:21.000Z</time>
      </trkpt>
      <trkpt lat="47.532" lon="6.75979">
        <ele>384</ele>
        <time>2015-10-11T08:31:22.000Z</time>
      </trkpt>
      <trkpt lat="47.53199" lon="6.75971">
        <ele>384</ele>
        <time>2015-10-11T08:31:23.000Z</time>
      </trkpt>
      <trkpt lat="47.53198" lon="6.75962">
        <ele>384</ele>
        <time>2015-10-11T08:31:24.000Z</time>
      </trkpt>
      <trkpt lat="47.53197" lon="6.75954">
        <ele>384</ele>
        <time>2015-10-11T08:31:25.000Z</time>
      </trkpt>
      <trkpt lat="47.53197" lon="6.75946">
        <ele>384</ele>
        <time>2015-10-11T08:31:26.000Z</time>
      </trkpt>
      <trkpt lat="47.53196" lon="6.75937">
        <ele>384</ele>
        <time>2015-10-11T08:31:27.000Z</time>
      </trkpt>
      <trkpt lat="47.53196" lon="6.75929">
        <ele>384</ele>
        <time>2015-10-11T08:31:28.000Z</time>
      </trkpt>
      <trkpt lat="47.53196" lon="6.75921">
        <ele>384</ele>
        <time>2015-10-11T08:31:29.000Z</time>
      </trkpt>
      <trkpt lat="47.53195" lon="6.75913">
        <ele>383</ele>
        <time>2015-10-11T08:31:30.000Z</time>
      </trkpt>
      <trkpt lat="47.53195" lon="6.75905">
        <ele>382</ele>
        <time>2015-10-11T08:31:31.000Z</time>
      </trkpt>
      <trkpt lat="47.53195" lon="6.75898">
        <ele>382</ele>
        <time>2015-10-11T08:31:32.000Z</time>
      </trkpt>
      <trkpt lat="47.53196" lon="6.75891">
        <ele>382</ele>
        <time>2015-10-11T08:31:33.000Z</time>
      </trkpt>
      <trkpt lat="47.53196" lon="6.75885">
        <ele>382</ele>
        <time>2015-10-11T08:31:34.000Z</time>
      </trkpt>
      <trkpt lat="47.53198" lon="6.75879">
        <ele>382</ele>
        <time>2015-10-11T08:31:35.000Z</time>
      </trkpt>
      <trkpt lat="47.53199" lon="6.75872">
        <ele>382</ele>
        <time>2015-10-11T08:31:36.000Z</time>
      </trkpt>
      <trkpt lat="47.532" lon="6.75866">
        <ele>382</ele>
        <time>2015-10-11T08:31:37.000Z</time>
      </trkpt>
      <trkpt lat="47.53201" lon="6.7586">
        <ele>381</ele>
        <time>2015-10-11T08:31:38.000Z</time>
      </trkpt>
      <trkpt lat="47.53202" lon="6.75854">
        <ele>381</ele>
        <time>2015-10-11T08:31:39.000Z</time>
      </trkpt>
      <trkpt lat="47.53202" lon="6.75847">
        <ele>381</ele>
        <time>2015-10-11T08:31:40.000Z</time>
      </trkpt>
      <trkpt lat="47.53202" lon="6.75841">
        <ele>381</ele>
        <time>2015-10-11T08:31:41.000Z</time>
      </trkpt>
      <trkpt lat="47.53202" lon="6.75835">
        <ele>381</ele>
        <time>2015-10-11T08:31:42.000Z</time>
      </trkpt>
      <trkpt lat="47.53202" lon="6.75828">
        <ele>378</ele>
        <time>2015-10-11T08:31:43.000Z</time>
      </trkpt>
      <trkpt lat="47.53201" lon="6.75822">
        <ele>378</ele>
        <time>2015-10-11T08:31:44.000Z</time>
      </trkpt>
      <trkpt lat="47.53201" lon="6.75816">
        <ele>378</ele>
        <time>2015-10-11T08:31:45.000Z</time>
      </trkpt>
      <trkpt lat="47.53201" lon="6.75809">
        <ele>378</ele>
        <time>2015-10-11T08:31:46.000Z</time>
      </trkpt>
      <trkpt lat="47.53201" lon="6.75802">
        <ele>377</ele>
        <time>2015-10-11T08:31:47.000Z</time>
      </trkpt>
      <trkpt lat="47.53201" lon="6.75795">
        <ele>377</ele>
        <time>2015-10-11T08:31:48.000Z</time>
      </trkpt>
      <trkpt lat="47.53202" lon="6.75786">
        <ele>377</ele>
        <time>2015-10-11T08:31:49.000Z</time>
      </trkpt>
      <trkpt lat="47.53203" lon="6.75778">
        <ele>377</ele>
        <time>2015-10-11T08:31:50.000Z</time>
      </trkpt>
      <trkpt lat="47.53205" lon="6.75769">
        <ele>376</ele>
        <time>2015-10-11T08:31:51.000Z</time>
      </trkpt>
      <trkpt lat="47.53207" lon="6.75761">
        <ele>376</ele>
        <time>2015-10-11T08:31:52.000Z</time>
      </trkpt>
      <trkpt lat="47.5321" lon="6.75753">
        <ele>376</ele>
        <time>2015-10-11T08:31:53.000Z</time>
      </trkpt>
      <trkpt lat="47.53213" lon="6.75747">
        <ele>375</ele>
        <time>2015-10-11T08:31:54.000Z</time>
      </trkpt>
      <trkpt lat="47.53215" lon="6.75742">
        <ele>375</ele>
        <time>2015-10-11T08:31:55.000Z</time>
      </trkpt>
      <trkpt lat="47.53217" lon="6.75738">
        <ele>375</ele>
        <time>2015-10-11T08:31:56.000Z</time>
      </trkpt>
      <trkpt lat="47.53218" lon="6.75734">
        <ele>375</ele>
        <time>2015-10-11T08:31:57.000Z</time>
      </trkpt>
      <trkpt lat="47.53219" lon="6.75731">
        <ele>375</ele>
        <time>2015-10-11T08:31:58.000Z</time>
      </trkpt>
      <trkpt lat="47.53219" lon="6.75728">
        <ele>375</ele>
        <time>2015-10-11T08:31:59.000Z</time>
      </trkpt>
      <trkpt lat="47.5322" lon="6.75723">
        <ele>375</ele>
        <time>2015-10-11T08:32:00.000Z</time>
      </trkpt>
      <trkpt lat="47.5322" lon="6.75717">
        <ele>375</ele>
        <time>2015-10-11T08:32:01.000Z</time>
      </trkpt>
      <trkpt lat="47.53221" lon="6.75711">
        <ele>375</ele>
        <time>2015-10-11T08:32:02.000Z</time>
      </trkpt>
      <trkpt lat="47.53222" lon="6.75705">
        <ele>375</ele>
        <time>2015-10-11T08:32:03.000Z</time>
      </trkpt>
      <trkpt lat="47.53223" lon="6.75699">
        <ele>375</ele>
        <time>2015-10-11T08:32:04.000Z</time>
      </trkpt>
      <trkpt lat="47.53224" lon="6.75694">
        <ele>375</ele>
        <time>2015-10-11T08:32:05.000Z</time>
      </trkpt>
      <trkpt lat="47.53224" lon="6.7569">
        <ele>375</ele>
        <time>2015-10-11T08:32:06.000Z</time>
      </trkpt>
      <trkpt lat="47.53225" lon="6.75685">
        <ele>375</ele>
        <time>2015-10-11T08:32:07.000Z</time>
      </trkpt>
      <trkpt lat="47.53225" lon="6.75681">
        <ele>375</ele>
        <time>2015-10-11T08:32:08.000Z</time>
      </trkpt>
      <trkpt lat="47.53225" lon="6.75677">
        <ele>375</ele>
        <time>2015-10-11T08:32:09.000Z</time>
      </trkpt>
      <trkpt lat="47.53225" lon="6.75674">
        <ele>375</ele>
        <time>2015-10-11T08:32:10.000Z</time>
      </trkpt>
      <trkpt lat="47.53225" lon="6.75668">
        <ele>375</ele>
        <time>2015-10-11T08:32:12.000Z</time>
      </trkpt>
      <trkpt lat="47.53225" lon="6.75666">
        <ele>378</ele>
        <time>2015-10-11T08:32:13.000Z</time>
      </trkpt>
      <trkpt lat="47.53227" lon="6.75662">
        <ele>378</ele>
        <time>2015-10-11T08:32:15.000Z</time>
      </trkpt>
      <trkpt lat="47.53228" lon="6.7566">
        <ele>378</ele>
        <time>2015-10-11T08:32:16.000Z</time>
      </trkpt>
      <trkpt lat="47.53231" lon="6.75656">
        <ele>378</ele>
        <time>2015-10-11T08:32:18.000Z</time>
      </trkpt>
      <trkpt lat="47.53232" lon="6.75654">
        <ele>378</ele>
        <time>2015-10-11T08:32:19.000Z</time>
      </trkpt>
      <trkpt lat="47.53235" lon="6.7565">
        <ele>378</ele>
        <time>2015-10-11T08:32:21.000Z</time>
      </trkpt>
      <trkpt lat="47.53236" lon="6.75648">
        <ele>378</ele>
        <time>2015-10-11T08:32:22.000Z</time>
      </trkpt>
      <trkpt lat="47.53239" lon="6.75644">
        <ele>378</ele>
        <time>2015-10-11T08:32:24.000Z</time>
      </trkpt>
      <trkpt lat="47.5324" lon="6.75642">
        <ele>379</ele>
        <time>2015-10-11T08:32:25.000Z</time>
      </trkpt>
      <trkpt lat="47.53242" lon="6.75638">
        <ele>379</ele>
        <time>2015-10-11T08:32:27.000Z</time>
      </trkpt>
      <trkpt lat="47.53243" lon="6.75637">
        <ele>379</ele>
        <time>2015-10-11T08:32:28.000Z</time>
      </trkpt>
      <trkpt lat="47.53245" lon="6.75633">
        <ele>379</ele>
        <time>2015-10-11T08:32:30.000Z</time>
      </trkpt>
      <trkpt lat="47.53246" lon="6.75631">
        <ele>379</ele>
        <time>2015-10-11T08:32:31.000Z</time>
      </trkpt>
      <trkpt lat="47.53248" lon="6.75627">
        <ele>380</ele>
        <time>2015-10-11T08:32:33.000Z</time>
      </trkpt>
      <trkpt lat="47.53249" lon="6.75625">
        <ele>380</ele>
        <time>2015-10-11T08:32:34.000Z</time>
      </trkpt>
      <trkpt lat="47.53252" lon="6.7562">
        <ele>383</ele>
        <time>2015-10-11T08:32:36.000Z</time>
      </trkpt>
      <trkpt lat="47.53254" lon="6.75618">
        <ele>383</ele>
        <time>2015-10-11T08:32:37.000Z</time>
      </trkpt>
      <trkpt lat="47.53257" lon="6.75613">
        <ele>383</ele>
        <time>2015-10-11T08:32:39.000Z</time>
      </trkpt>
      <trkpt lat="47.53258" lon="6.75611">
        <ele>383</ele>
        <time>2015-10-11T08:32:40.000Z</time>
      </trkpt>
      <trkpt lat="47.53261" lon="6.75607">
        <ele>384</ele>
        <time>2015-10-11T08:32:42.000Z</time>
      </trkpt>
      <trkpt lat="47.53262" lon="6.75605">
        <ele>384</ele>
        <time>2015-10-11T08:32:43.000Z</time>
      </trkpt>
      <trkpt lat="47.53264" lon="6.756">
        <ele>384</ele>
        <time>2015-10-11T08:32:45.000Z</time>
      </trkpt>
      <trkpt lat="47.53265" lon="6.75598">
        <ele>384</ele>
        <time>2015-10-11T08:32:46.000Z</time>
      </trkpt>
      <trkpt lat="47.53267" lon="6.75593">
        <ele>384</ele>
        <time>2015-10-11T08:32:48.000Z</time>
      </trkpt>
      <trkpt lat="47.53268" lon="6.75591">
        <ele>384</ele>
        <time>2015-10-11T08:32:49.000Z</time>
      </trkpt>
      <trkpt lat="47.5327" lon="6.75586">
        <ele>384</ele>
        <time>2015-10-11T08:32:51.000Z</time>
      </trkpt>
      <trkpt lat="47.53271" lon="6.75584">
        <ele>384</ele>
        <time>2015-10-11T08:32:52.000Z</time>
      </trkpt>
      <trkpt lat="47.53274" lon="6.75579">
        <ele>389</ele>
        <time>2015-10-11T08:32:54.000Z</time>
      </trkpt>
      <trkpt lat="47.53274" lon="6.75576">
        <ele>389</ele>
        <time>2015-10-11T08:32:55.000Z</time>
      </trkpt>
      <trkpt lat="47.53276" lon="6.75571">
        <ele>390</ele>
        <time>2015-10-11T08:32:57.000Z</time>
      </trkpt>
      <trkpt lat="47.53277" lon="6.75569">
        <ele>390</ele>
        <time>2015-10-11T08:32:58.000Z</time>
      </trkpt>
      <trkpt lat="47.53278" lon="6.75565">
        <ele>390</ele>
        <time>2015-10-11T08:33:00.000Z</time>
      </trkpt>
      <trkpt lat="47.53279" lon="6.75563">
        <ele>391</ele>
        <time>2015-10-11T08:33:01.000Z</time>
      </trkpt>
      <trkpt lat="47.53282" lon="6.75558">
        <ele>391</ele>
        <time>2015-10-11T08:33:03.000Z</time>
      </trkpt>
      <trkpt lat="47.53284" lon="6.75556">
        <ele>391</ele>
        <time>2015-10-11T08:33:04.000Z</time>
      </trkpt>
      <trkpt lat="47.53287" lon="6.75552">
        <ele>392</ele>
        <time>2015-10-11T08:33:06.000Z</time>
      </trkpt>
      <trkpt lat="47.53289" lon="6.7555">
        <ele>392</ele>
        <time>2015-10-11T08:33:07.000Z</time>
      </trkpt>
      <trkpt lat="47.53292" lon="6.75546">
        <ele>392</ele>
        <time>2015-10-11T08:33:09.000Z</time>
      </trkpt>
      <trkpt lat="47.53294" lon="6.75545">
        <ele>392</ele>
        <time>2015-10-11T08:33:10.000Z</time>
      </trkpt>
      <trkpt lat="47.53296" lon="6.75541">
        <ele>392</ele>
        <time>2015-10-11T08:33:12.000Z</time>
      </trkpt>
      <trkpt lat="47.53297" lon="6.7554">
        <ele>393</ele>
        <time>2015-10-11T08:33:13.000Z</time>
      </trkpt>
      <trkpt lat="47.53301" lon="6.75538">
        <ele>393</ele>
        <time>2015-10-11T08:33:16.000Z</time>
      </trkpt>
      <trkpt lat="47.53303" lon="6.75538">
        <ele>393</ele>
        <time>2015-10-11T08:33:17.000Z</time>
      </trkpt>
      <trkpt lat="47.53306" lon="6.75535">
        <ele>393</ele>
        <time>2015-10-11T08:33:19.000Z</time>
      </trkpt>
      <trkpt lat="47.53307" lon="6.75533">
        <ele>393</ele>
        <time>2015-10-11T08:33:20.000Z</time>
      </trkpt>
      <trkpt lat="47.5331" lon="6.7553">
        <ele>394</ele>
        <time>2015-10-11T08:33:22.000Z</time>
      </trkpt>
      <trkpt lat="47.53312" lon="6.75529">
        <ele>394</ele>
        <time>2015-10-11T08:33:23.000Z</time>
      </trkpt>
      <trkpt lat="47.53314" lon="6.75527">
        <ele>394</ele>
        <time>2015-10-11T08:33:24.000Z</time>
      </trkpt>
      <trkpt lat="47.53316" lon="6.75525">
        <ele>394</ele>
        <time>2015-10-11T08:33:25.000Z</time>
      </trkpt>
      <trkpt lat="47.53318" lon="6.75523">
        <ele>395</ele>
        <time>2015-10-11T08:33:26.000Z</time>
      </trkpt>
      <trkpt lat="47.5332" lon="6.7552">
        <ele>395</ele>
        <time>2015-10-11T08:33:27.000Z</time>
      </trkpt>
      <trkpt lat="47.53322" lon="6.75518">
        <ele>396</ele>
        <time>2015-10-11T08:33:28.000Z</time>
      </trkpt>
      <trkpt lat="47.53324" lon="6.75515">
        <ele>396</ele>
        <time>2015-10-11T08:33:29.000Z</time>
      </trkpt>
      <trkpt lat="47.53327" lon="6.75511">
        <ele>397</ele>
        <time>2015-10-11T08:33:31.000Z</time>
      </trkpt>
      <trkpt lat="47.53329" lon="6.7551">
        <ele>397</ele>
        <time>2015-10-11T08:33:32.000Z</time>
      </trkpt>
      <trkpt lat="47.53332" lon="6.75507">
        <ele>398</ele>
        <time>2015-10-11T08:33:34.000Z</time>
      </trkpt>
      <trkpt lat="47.53333" lon="6.75505">
        <ele>399</ele>
        <time>2015-10-11T08:33:35.000Z</time>
      </trkpt>
      <trkpt lat="47.53337" lon="6.75502">
        <ele>399</ele>
        <time>2015-10-11T08:33:37.000Z</time>
      </trkpt>
      <trkpt lat="47.53339" lon="6.755">
        <ele>401</ele>
        <time>2015-10-11T08:33:38.000Z</time>
      </trkpt>
      <trkpt lat="47.53341" lon="6.75498">
        <ele>401</ele>
        <time>2015-10-11T08:33:39.000Z</time>
      </trkpt>
      <trkpt lat="47.53343" lon="6.75496">
        <ele>401</ele>
        <time>2015-10-11T08:33:40.000Z</time>
      </trkpt>
      <trkpt lat="47.53344" lon="6.75494">
        <ele>401</ele>
        <time>2015-10-11T08:33:41.000Z</time>
      </trkpt>
      <trkpt lat="47.53346" lon="6.75492">
        <ele>401</ele>
        <time>2015-10-11T08:33:42.000Z</time>
      </trkpt>
      <trkpt lat="47.53349" lon="6.7549">
        <ele>401</ele>
        <time>2015-10-11T08:33:43.000Z</time>
      </trkpt>
      <trkpt lat="47.53351" lon="6.75488">
        <ele>402</ele>
        <time>2015-10-11T08:33:44.000Z</time>
      </trkpt>
      <trkpt lat="47.53354" lon="6.75484">
        <ele>402</ele>
        <time>2015-10-11T08:33:46.000Z</time>
      </trkpt>
      <trkpt lat="47.53356" lon="6.75482">
        <ele>402</ele>
        <time>2015-10-11T08:33:47.000Z</time>
      </trkpt>
      <trkpt lat="47.5336" lon="6.75479">
        <ele>402</ele>
        <time>2015-10-11T08:33:49.000Z</time>
      </trkpt>
      <trkpt lat="47.53362" lon="6.75478">
        <ele>402</ele>
        <time>2015-10-11T08:33:50.000Z</time>
      </trkpt>
      <trkpt lat="47.53364" lon="6.75476">
        <ele>402</ele>
        <time>2015-10-11T08:33:51.000Z</time>
      </trkpt>
      <trkpt lat="47.53366" lon="6.75474">
        <ele>402</ele>
        <time>2015-10-11T08:33:52.000Z</time>
      </trkpt>
      <trkpt lat="47.53369" lon="6.75474">
        <ele>402</ele>
        <time>2015-10-11T08:33:53.000Z</time>
      </trkpt>
      <trkpt lat="47.53371" lon="6.75473">
        <ele>402</ele>
        <time>2015-10-11T08:33:54.000Z</time>
      </trkpt>
      <trkpt lat="47.53374" lon="6.75472">
        <ele>402</ele>
        <time>2015-10-11T08:33:55.000Z</time>
      </trkpt>
      <trkpt lat="47.53376" lon="6.75471">
        <ele>402</ele>
        <time>2015-10-11T08:33:56.000Z</time>
      </trkpt>
      <trkpt lat="47.53378" lon="6.7547">
        <ele>402</ele>
        <time>2015-10-11T08:33:57.000Z</time>
      </trkpt>
      <trkpt lat="47.53381" lon="6.75468">
        <ele>403</ele>
        <time>2015-10-11T08:33:58.000Z</time>
      </trkpt>
      <trkpt lat="47.53385" lon="6.75466">
        <ele>403</ele>
        <time>2015-10-11T08:34:00.000Z</time>
      </trkpt>
      <trkpt lat="47.53387" lon="6.75465">
        <ele>403</ele>
        <time>2015-10-11T08:34:01.000Z</time>
      </trkpt>
      <trkpt lat="47.5339" lon="6.75462">
        <ele>403</ele>
        <time>2015-10-11T08:34:03.000Z</time>
      </trkpt>
      <trkpt lat="47.53392" lon="6.7546">
        <ele>403</ele>
        <time>2015-10-11T08:34:04.000Z</time>
      </trkpt>
      <trkpt lat="47.53394" lon="6.75458">
        <ele>403</ele>
        <time>2015-10-11T08:34:05.000Z</time>
      </trkpt>
      <trkpt lat="47.53396" lon="6.75456">
        <ele>403</ele>
        <time>2015-10-11T08:34:06.000Z</time>
      </trkpt>
      <trkpt lat="47.53399" lon="6.75453">
        <ele>403</ele>
        <time>2015-10-11T08:34:07.000Z</time>
      </trkpt>
      <trkpt lat="47.53402" lon="6.7545">
        <ele>403</ele>
        <time>2015-10-11T08:34:08.000Z</time>
      </trkpt>
      <trkpt lat="47.53405" lon="6.75448">
        <ele>403</ele>
        <time>2015-10-11T08:34:09.000Z</time>
      </trkpt>
      <trkpt lat="47.53408" lon="6.75445">
        <ele>404</ele>
        <time>2015-10-11T08:34:10.000Z</time>
      </trkpt>
      <trkpt lat="47.53411" lon="6.75443">
        <ele>404</ele>
        <time>2015-10-11T08:34:11.000Z</time>
      </trkpt>
      <trkpt lat="47.53414" lon="6.75441">
        <ele>404</ele>
        <time>2015-10-11T08:34:12.000Z</time>
      </trkpt>
      <trkpt lat="47.53417" lon="6.7544">
        <ele>405</ele>
        <time>2015-10-11T08:34:13.000Z</time>
      </trkpt>
      <trkpt lat="47.5342" lon="6.75439">
        <ele>405</ele>
        <time>2015-10-11T08:34:14.000Z</time>
      </trkpt>
      <trkpt lat="47.53422" lon="6.75437">
        <ele>405</ele>
        <time>2015-10-11T08:34:15.000Z</time>
      </trkpt>
      <trkpt lat="47.53424" lon="6.75436">
        <ele>405</ele>
        <time>2015-10-11T08:34:16.000Z</time>
      </trkpt>
      <trkpt lat="47.53428" lon="6.75434">
        <ele>405</ele>
        <time>2015-10-11T08:34:18.000Z</time>
      </trkpt>
      <trkpt lat="47.5343" lon="6.75433">
        <ele>405</ele>
        <time>2015-10-11T08:34:19.000Z</time>
      </trkpt>
      <trkpt lat="47.53434" lon="6.75429">
        <ele>405</ele>
        <time>2015-10-11T08:34:22.000Z</time>
      </trkpt>
      <trkpt lat="47.53435" lon="6.75428">
        <ele>405</ele>
        <time>2015-10-11T08:34:23.000Z</time>
      </trkpt>
      <trkpt lat="47.53438" lon="6.75426">
        <ele>405</ele>
        <time>2015-10-11T08:34:25.000Z</time>
      </trkpt>
      <trkpt lat="47.5344" lon="6.75424">
        <ele>405</ele>
        <time>2015-10-11T08:34:26.000Z</time>
      </trkpt>
      <trkpt lat="47.53444" lon="6.75421">
        <ele>405</ele>
        <time>2015-10-11T08:34:28.000Z</time>
      </trkpt>
      <trkpt lat="47.53446" lon="6.7542">
        <ele>405</ele>
        <time>2015-10-11T08:34:29.000Z</time>
      </trkpt>
      <trkpt lat="47.5345" lon="6.75419">
        <ele>405</ele>
        <time>2015-10-11T08:34:31.000Z</time>
      </trkpt>
      <trkpt lat="47.53451" lon="6.75418">
        <ele>405</ele>
        <time>2015-10-11T08:34:32.000Z</time>
      </trkpt>
      <trkpt lat="47.53455" lon="6.75415">
        <ele>410</ele>
        <time>2015-10-11T08:34:34.000Z</time>
      </trkpt>
      <trkpt lat="47.53456" lon="6.75414">
        <ele>410</ele>
        <time>2015-10-11T08:34:35.000Z</time>
      </trkpt>
      <trkpt lat="47.53459" lon="6.75411">
        <ele>410</ele>
        <time>2015-10-11T08:34:37.000Z</time>
      </trkpt>
      <trkpt lat="47.53461" lon="6.75409">
        <ele>410</ele>
        <time>2015-10-11T08:34:38.000Z</time>
      </trkpt>
      <trkpt lat="47.53463" lon="6.75406">
        <ele>410</ele>
        <time>2015-10-11T08:34:40.000Z</time>
      </trkpt>
      <trkpt lat="47.53464" lon="6.75404">
        <ele>411</ele>
        <time>2015-10-11T08:34:41.000Z</time>
      </trkpt>
      <trkpt lat="47.53467" lon="6.75401">
        <ele>411</ele>
        <time>2015-10-11T08:34:43.000Z</time>
      </trkpt>
      <trkpt lat="47.53469" lon="6.75399">
        <ele>411</ele>
        <time>2015-10-11T08:34:44.000Z</time>
      </trkpt>
      <trkpt lat="47.5347" lon="6.75396">
        <ele>411</ele>
        <time>2015-10-11T08:34:45.000Z</time>
      </trkpt>
      <trkpt lat="47.53473" lon="6.75394">
        <ele>411</ele>
        <time>2015-10-11T08:34:46.000Z</time>
      </trkpt>
      <trkpt lat="47.53475" lon="6.75392">
        <ele>411</ele>
        <time>2015-10-11T08:34:47.000Z</time>
      </trkpt>
      <trkpt lat="47.53478" lon="6.75389">
        <ele>411</ele>
        <time>2015-10-11T08:34:48.000Z</time>
      </trkpt>
      <trkpt lat="47.53481" lon="6.75386">
        <ele>411</ele>
        <time>2015-10-11T08:34:49.000Z</time>
      </trkpt>
      <trkpt lat="47.53483" lon="6.75383">
        <ele>412</ele>
        <time>2015-10-11T08:34:50.000Z</time>
      </trkpt>
      <trkpt lat="47.53486" lon="6.7538">
        <ele>412</ele>
        <time>2015-10-11T08:34:51.000Z</time>
      </trkpt>
      <trkpt lat="47.53489" lon="6.75377">
        <ele>412</ele>
        <time>2015-10-11T08:34:52.000Z</time>
      </trkpt>
      <trkpt lat="47.53492" lon="6.75374">
        <ele>412</ele>
        <time>2015-10-11T08:34:53.000Z</time>
      </trkpt>
      <trkpt lat="47.53495" lon="6.75371">
        <ele>413</ele>
        <time>2015-10-11T08:34:54.000Z</time>
      </trkpt>
      <trkpt lat="47.53497" lon="6.75369">
        <ele>413</ele>
        <time>2015-10-11T08:34:55.000Z</time>
      </trkpt>
      <trkpt lat="47.53499" lon="6.75367">
        <ele>413</ele>
        <time>2015-10-11T08:34:56.000Z</time>
      </trkpt>
      <trkpt lat="47.53502" lon="6.75364">
        <ele>414</ele>
        <time>2015-10-11T08:34:57.000Z</time>
      </trkpt>
      <trkpt lat="47.53504" lon="6.75362">
        <ele>414</ele>
        <time>2015-10-11T08:34:58.000Z</time>
      </trkpt>
      <trkpt lat="47.53507" lon="6.7536">
        <ele>415</ele>
        <time>2015-10-11T08:34:59.000Z</time>
      </trkpt>
      <trkpt lat="47.53509" lon="6.75358">
        <ele>415</ele>
        <time>2015-10-11T08:35:00.000Z</time>
      </trkpt>
      <trkpt lat="47.53511" lon="6.75356">
        <ele>415</ele>
        <time>2015-10-11T08:35:01.000Z</time>
      </trkpt>
      <trkpt lat="47.53514" lon="6.75354">
        <ele>415</ele>
        <time>2015-10-11T08:35:02.000Z</time>
      </trkpt>
      <trkpt lat="47.53517" lon="6.75351">
        <ele>415</ele>
        <time>2015-10-11T08:35:03.000Z</time>
      </trkpt>
      <trkpt lat="47.5352" lon="6.75349">
        <ele>415</ele>
        <time>2015-10-11T08:35:04.000Z</time>
      </trkpt>
      <trkpt lat="47.53522" lon="6.75346">
        <ele>415</ele>
        <time>2015-10-11T08:35:05.000Z</time>
      </trkpt>
      <trkpt lat="47.53524" lon="6.75343">
        <ele>415</ele>
        <time>2015-10-11T08:35:06.000Z</time>
      </trkpt>
      <trkpt lat="47.53526" lon="6.7534">
        <ele>415</ele>
        <time>2015-10-11T08:35:07.000Z</time>
      </trkpt>
      <trkpt lat="47.53527" lon="6.75337">
        <ele>415</ele>
        <time>2015-10-11T08:35:08.000Z</time>
      </trkpt>
      <trkpt lat="47.53529" lon="6.75334">
        <ele>415</ele>
        <time>2015-10-11T08:35:09.000Z</time>
      </trkpt>
      <trkpt lat="47.53531" lon="6.75332">
        <ele>420</ele>
        <time>2015-10-11T08:35:10.000Z</time>
      </trkpt>
      <trkpt lat="47.53534" lon="6.7533">
        <ele>420</ele>
        <time>2015-10-11T08:35:11.000Z</time>
      </trkpt>
      <trkpt lat="47.53536" lon="6.75328">
        <ele>420</ele>
        <time>2015-10-11T08:35:12.000Z</time>
      </trkpt>
      <trkpt lat="47.53539" lon="6.75326">
        <ele>421</ele>
        <time>2015-10-11T08:35:13.000Z</time>
      </trkpt>
      <trkpt lat="47.53541" lon="6.75324">
        <ele>421</ele>
        <time>2015-10-11T08:35:14.000Z</time>
      </trkpt>
      <trkpt lat="47.53545" lon="6.75321">
        <ele>421</ele>
        <time>2015-10-11T08:35:15.000Z</time>
      </trkpt>
      <trkpt lat="47.53548" lon="6.75319">
        <ele>421</ele>
        <time>2015-10-11T08:35:16.000Z</time>
      </trkpt>
      <trkpt lat="47.53552" lon="6.75316">
        <ele>421</ele>
        <time>2015-10-11T08:35:17.000Z</time>
      </trkpt>
      <trkpt lat="47.53554" lon="6.75314">
        <ele>421</ele>
        <time>2015-10-11T08:35:18.000Z</time>
      </trkpt>
      <trkpt lat="47.53557" lon="6.75312">
        <ele>421</ele>
        <time>2015-10-11T08:35:19.000Z</time>
      </trkpt>
      <trkpt lat="47.5356" lon="6.7531">
        <ele>421</ele>
        <time>2015-10-11T08:35:20.000Z</time>
      </trkpt>
      <trkpt lat="47.53563" lon="6.75309">
        <ele>421</ele>
        <time>2015-10-11T08:35:21.000Z</time>
      </trkpt>
      <trkpt lat="47.53565" lon="6.75307">
        <ele>421</ele>
        <time>2015-10-11T08:35:22.000Z</time>
      </trkpt>
      <trkpt lat="47.53568" lon="6.75305">
        <ele>421</ele>
        <time>2015-10-11T08:35:23.000Z</time>
      </trkpt>
      <trkpt lat="47.5357" lon="6.75303">
        <ele>421</ele>
        <time>2015-10-11T08:35:24.000Z</time>
      </trkpt>
      <trkpt lat="47.53573" lon="6.75301">
        <ele>422</ele>
        <time>2015-10-11T08:35:25.000Z</time>
      </trkpt>
      <trkpt lat="47.53575" lon="6.75299">
        <ele>422</ele>
        <time>2015-10-11T08:35:26.000Z</time>
      </trkpt>
      <trkpt lat="47.53577" lon="6.75296">
        <ele>422</ele>
        <time>2015-10-11T08:35:27.000Z</time>
      </trkpt>
      <trkpt lat="47.53579" lon="6.75293">
        <ele>422</ele>
        <time>2015-10-11T08:35:28.000Z</time>
      </trkpt>
      <trkpt lat="47.53582" lon="6.7529">
        <ele>422</ele>
        <time>2015-10-11T08:35:29.000Z</time>
      </trkpt>
      <trkpt lat="47.53584" lon="6.75287">
        <ele>424</ele>
        <time>2015-10-11T08:35:30.000Z</time>
      </trkpt>
      <trkpt lat="47.53587" lon="6.75283">
        <ele>424</ele>
        <time>2015-10-11T08:35:31.000Z</time>
      </trkpt>
      <trkpt lat="47.5359" lon="6.7528">
        <ele>424</ele>
        <time>2015-10-11T08:35:32.000Z</time>
      </trkpt>
      <trkpt lat="47.53592" lon="6.75278">
        <ele>424</ele>
        <time>2015-10-11T08:35:33.000Z</time>
      </trkpt>
      <trkpt lat="47.53594" lon="6.75275">
        <ele>425</ele>
        <time>2015-10-11T08:35:34.000Z</time>
      </trkpt>
      <trkpt lat="47.53596" lon="6.75272">
        <ele>425</ele>
        <time>2015-10-11T08:35:35.000Z</time>
      </trkpt>
      <trkpt lat="47.53598" lon="6.75269">
        <ele>425</ele>
        <time>2015-10-11T08:35:36.000Z</time>
      </trkpt>
      <trkpt lat="47.53599" lon="6.75265">
        <ele>425</ele>
        <time>2015-10-11T08:35:37.000Z</time>
      </trkpt>
      <trkpt lat="47.53601" lon="6.75262">
        <ele>425</ele>
        <time>2015-10-11T08:35:38.000Z</time>
      </trkpt>
      <trkpt lat="47.53603" lon="6.75259">
        <ele>425</ele>
        <time>2015-10-11T08:35:39.000Z</time>
      </trkpt>
      <trkpt lat="47.53605" lon="6.75256">
        <ele>425</ele>
        <time>2015-10-11T08:35:40.000Z</time>
      </trkpt>
      <trkpt lat="47.53608" lon="6.75254">
        <ele>425</ele>
        <time>2015-10-11T08:35:41.000Z</time>
      </trkpt>
      <trkpt lat="47.5361" lon="6.75252">
        <ele>425</ele>
        <time>2015-10-11T08:35:42.000Z</time>
      </trkpt>
      <trkpt lat="47.53612" lon="6.75249">
        <ele>429</ele>
        <time>2015-10-11T08:35:43.000Z</time>
      </trkpt>
      <trkpt lat="47.53613" lon="6.75247">
        <ele>429</ele>
        <time>2015-10-11T08:35:44.000Z</time>
      </trkpt>
      <trkpt lat="47.53615" lon="6.75241">
        <ele>430</ele>
        <time>2015-10-11T08:35:46.000Z</time>
      </trkpt>
      <trkpt lat="47.53616" lon="6.75239">
        <ele>430</ele>
        <time>2015-10-11T08:35:47.000Z</time>
      </trkpt>
      <trkpt lat="47.53618" lon="6.75236">
        <ele>430</ele>
        <time>2015-10-11T08:35:48.000Z</time>
      </trkpt>
      <trkpt lat="47.53619" lon="6.75234">
        <ele>430</ele>
        <time>2015-10-11T08:35:49.000Z</time>
      </trkpt>
      <trkpt lat="47.53622" lon="6.7523">
        <ele>430</ele>
        <time>2015-10-11T08:35:51.000Z</time>
      </trkpt>
      <trkpt lat="47.53624" lon="6.75228">
        <ele>430</ele>
        <time>2015-10-11T08:35:52.000Z</time>
      </trkpt>
      <trkpt lat="47.53627" lon="6.75225">
        <ele>431</ele>
        <time>2015-10-11T08:35:54.000Z</time>
      </trkpt>
      <trkpt lat="47.53628" lon="6.75223">
        <ele>431</ele>
        <time>2015-10-11T08:35:55.000Z</time>
      </trkpt>
      <trkpt lat="47.53632" lon="6.7522">
        <ele>431</ele>
        <time>2015-10-11T08:35:57.000Z</time>
      </trkpt>
      <trkpt lat="47.53633" lon="6.75219">
        <ele>431</ele>
        <time>2015-10-11T08:35:58.000Z</time>
      </trkpt>
      <trkpt lat="47.53636" lon="6.75214">
        <ele>431</ele>
        <time>2015-10-11T08:36:01.000Z</time>
      </trkpt>
      <trkpt lat="47.53638" lon="6.75213">
        <ele>431</ele>
        <time>2015-10-11T08:36:02.000Z</time>
      </trkpt>
      <trkpt lat="47.53641" lon="6.7521">
        <ele>432</ele>
        <time>2015-10-11T08:36:04.000Z</time>
      </trkpt>
      <trkpt lat="47.53644" lon="6.75208">
        <ele>432</ele>
        <time>2015-10-11T08:36:05.000Z</time>
      </trkpt>
      <trkpt lat="47.53647" lon="6.75205">
        <ele>432</ele>
        <time>2015-10-11T08:36:07.000Z</time>
      </trkpt>
      <trkpt lat="47.53649" lon="6.75204">
        <ele>432</ele>
        <time>2015-10-11T08:36:08.000Z</time>
      </trkpt>
      <trkpt lat="47.53652" lon="6.75201">
        <ele>432</ele>
        <time>2015-10-11T08:36:10.000Z</time>
      </trkpt>
      <trkpt lat="47.53653" lon="6.75199">
        <ele>432</ele>
        <time>2015-10-11T08:36:11.000Z</time>
      </trkpt>
      <trkpt lat="47.53656" lon="6.75195">
        <ele>433</ele>
        <time>2015-10-11T08:36:13.000Z</time>
      </trkpt>
      <trkpt lat="47.53657" lon="6.75193">
        <ele>433</ele>
        <time>2015-10-11T08:36:14.000Z</time>
      </trkpt>
      <trkpt lat="47.53658" lon="6.75187">
        <ele>434</ele>
        <time>2015-10-11T08:36:16.000Z</time>
      </trkpt>
      <trkpt lat="47.53659" lon="6.75184">
        <ele>434</ele>
        <time>2015-10-11T08:36:17.000Z</time>
      </trkpt>
      <trkpt lat="47.53661" lon="6.75181">
        <ele>434</ele>
        <time>2015-10-11T08:36:18.000Z</time>
      </trkpt>
      <trkpt lat="47.53662" lon="6.75179">
        <ele>435</ele>
        <time>2015-10-11T08:36:19.000Z</time>
      </trkpt>
      <trkpt lat="47.53664" lon="6.75176">
        <ele>435</ele>
        <time>2015-10-11T08:36:20.000Z</time>
      </trkpt>
      <trkpt lat="47.53666" lon="6.75173">
        <ele>436</ele>
        <time>2015-10-11T08:36:21.000Z</time>
      </trkpt>
      <trkpt lat="47.53668" lon="6.7517">
        <ele>437</ele>
        <time>2015-10-11T08:36:22.000Z</time>
      </trkpt>
      <trkpt lat="47.5367" lon="6.75168">
        <ele>437</ele>
        <time>2015-10-11T08:36:23.000Z</time>
      </trkpt>
      <trkpt lat="47.53672" lon="6.75165">
        <ele>437</ele>
        <time>2015-10-11T08:36:24.000Z</time>
      </trkpt>
      <trkpt lat="47.53673" lon="6.75162">
        <ele>437</ele>
        <time>2015-10-11T08:36:25.000Z</time>
      </trkpt>
      <trkpt lat="47.53675" lon="6.75159">
        <ele>437</ele>
        <time>2015-10-11T08:36:26.000Z</time>
      </trkpt>
      <trkpt lat="47.53676" lon="6.75156">
        <ele>437</ele>
        <time>2015-10-11T08:36:27.000Z</time>
      </trkpt>
      <trkpt lat="47.53678" lon="6.75151">
        <ele>437</ele>
        <time>2015-10-11T08:36:29.000Z</time>
      </trkpt>
      <trkpt lat="47.53679" lon="6.75148">
        <ele>437</ele>
        <time>2015-10-11T08:36:30.000Z</time>
      </trkpt>
      <trkpt lat="47.5368" lon="6.75145">
        <ele>437</ele>
        <time>2015-10-11T08:36:31.000Z</time>
      </trkpt>
      <trkpt lat="47.53681" lon="6.75142">
        <ele>437</ele>
        <time>2015-10-11T08:36:32.000Z</time>
      </trkpt>
      <trkpt lat="47.53683" lon="6.75139">
        <ele>437</ele>
        <time>2015-10-11T08:36:33.000Z</time>
      </trkpt>
      <trkpt lat="47.53684" lon="6.75136">
        <ele>438</ele>
        <time>2015-10-11T08:36:34.000Z</time>
      </trkpt>
      <trkpt lat="47.53685" lon="6.75134">
        <ele>438</ele>
        <time>2015-10-11T08:36:35.000Z</time>
      </trkpt>
      <trkpt lat="47.53687" lon="6.75131">
        <ele>438</ele>
        <time>2015-10-11T08:36:36.000Z</time>
      </trkpt>
      <trkpt lat="47.53688" lon="6.75128">
        <ele>438</ele>
        <time>2015-10-11T08:36:37.000Z</time>
      </trkpt>
      <trkpt lat="47.5369" lon="6.75125">
        <ele>438</ele>
        <time>2015-10-11T08:36:38.000Z</time>
      </trkpt>
      <trkpt lat="47.53691" lon="6.75122">
        <ele>438</ele>
        <time>2015-10-11T08:36:39.000Z</time>
      </trkpt>
      <trkpt lat="47.53693" lon="6.75119">
        <ele>438</ele>
        <time>2015-10-11T08:36:40.000Z</time>
      </trkpt>
      <trkpt lat="47.53694" lon="6.75116">
        <ele>438</ele>
        <time>2015-10-11T08:36:41.000Z</time>
      </trkpt>
      <trkpt lat="47.53695" lon="6.75113">
        <ele>438</ele>
        <time>2015-10-11T08:36:42.000Z</time>
      </trkpt>
      <trkpt lat="47.53696" lon="6.75109">
        <ele>438</ele>
        <time>2015-10-11T08:36:43.000Z</time>
      </trkpt>
      <trkpt lat="47.53698" lon="6.75106">
        <ele>438</ele>
        <time>2015-10-11T08:36:44.000Z</time>
      </trkpt>
      <trkpt lat="47.53699" lon="6.75103">
        <ele>438</ele>
        <time>2015-10-11T08:36:45.000Z</time>
      </trkpt>
      <trkpt lat="47.53701" lon="6.75099">
        <ele>438</ele>
        <time>2015-10-11T08:36:46.000Z</time>
      </trkpt>
      <trkpt lat="47.53703" lon="6.75096">
        <ele>438</ele>
        <time>2015-10-11T08:36:47.000Z</time>
      </trkpt>
      <trkpt lat="47.53706" lon="6.75093">
        <ele>437</ele>
        <time>2015-10-11T08:36:48.000Z</time>
      </trkpt>
      <trkpt lat="47.53708" lon="6.7509">
        <ele>437</ele>
        <time>2015-10-11T08:36:49.000Z</time>
      </trkpt>
      <trkpt lat="47.5371" lon="6.75087">
        <ele>437</ele>
        <time>2015-10-11T08:36:50.000Z</time>
      </trkpt>
      <trkpt lat="47.53712" lon="6.75085">
        <ele>437</ele>
        <time>2015-10-11T08:36:51.000Z</time>
      </trkpt>
      <trkpt lat="47.53714" lon="6.75082">
        <ele>437</ele>
        <time>2015-10-11T08:36:52.000Z</time>
      </trkpt>
      <trkpt lat="47.53717" lon="6.7508">
        <ele>437</ele>
        <time>2015-10-11T08:36:53.000Z</time>
      </trkpt>
      <trkpt lat="47.53719" lon="6.75077">
        <ele>437</ele>
        <time>2015-10-11T08:36:54.000Z</time>
      </trkpt>
      <trkpt lat="47.53721" lon="6.75074">
        <ele>437</ele>
        <time>2015-10-11T08:36:55.000Z</time>
      </trkpt>
      <trkpt lat="47.53723" lon="6.75071">
        <ele>436</ele>
        <time>2015-10-11T08:36:56.000Z</time>
      </trkpt>
      <trkpt lat="47.53725" lon="6.75068">
        <ele>436</ele>
        <time>2015-10-11T08:36:57.000Z</time>
      </trkpt>
      <trkpt lat="47.53726" lon="6.75066">
        <ele>436</ele>
        <time>2015-10-11T08:36:58.000Z</time>
      </trkpt>
      <trkpt lat="47.53729" lon="6.75061">
        <ele>436</ele>
        <time>2015-10-11T08:37:00.000Z</time>
      </trkpt>
      <trkpt lat="47.53729" lon="6.7506">
        <ele>436</ele>
        <time>2015-10-11T08:37:01.000Z</time>
      </trkpt>
      <trkpt lat="47.53731" lon="6.75056">
        <ele>436</ele>
        <time>2015-10-11T08:39:32.000Z</time>
      </trkpt>
      <trkpt lat="47.53732" lon="6.75053">
        <ele>436</ele>
        <time>2015-10-11T08:39:33.000Z</time>
      </trkpt>
      <trkpt lat="47.53733" lon="6.7505">
        <ele>436</ele>
        <time>2015-10-11T08:39:34.000Z</time>
      </trkpt>
      <trkpt lat="47.53734" lon="6.75046">
        <ele>436</ele>
        <time>2015-10-11T08:39:35.000Z</time>
      </trkpt>
      <trkpt lat="47.53739" lon="6.75038">
        <ele>436</ele>
        <time>2015-10-11T08:39:36.000Z</time>
      </trkpt>
      <trkpt lat="47.53743" lon="6.75034">
        <ele>436</ele>
        <time>2015-10-11T08:39:37.000Z</time>
      </trkpt>
      <trkpt lat="47.53745" lon="6.7503">
        <ele>435</ele>
        <time>2015-10-11T08:39:38.000Z</time>
      </trkpt>
      <trkpt lat="47.53748" lon="6.75025">
        <ele>435</ele>
        <time>2015-10-11T08:39:39.000Z</time>
      </trkpt>
      <trkpt lat="47.5375" lon="6.7502">
        <ele>435</ele>
        <time>2015-10-11T08:39:40.000Z</time>
      </trkpt>
      <trkpt lat="47.5375" lon="6.75015">
        <ele>434</ele>
        <time>2015-10-11T08:39:41.000Z</time>
      </trkpt>
      <trkpt lat="47.53749" lon="6.75011">
        <ele>434</ele>
        <time>2015-10-11T08:39:42.000Z</time>
      </trkpt>
      <trkpt lat="47.5375" lon="6.75006">
        <ele>433</ele>
        <time>2015-10-11T08:39:43.000Z</time>
      </trkpt>
      <trkpt lat="47.5375" lon="6.75003">
        <ele>433</ele>
        <time>2015-10-11T08:39:44.000Z</time>
      </trkpt>
      <trkpt lat="47.53749" lon="6.74998">
        <ele>432</ele>
        <time>2015-10-11T08:39:45.000Z</time>
      </trkpt>
      <trkpt lat="47.53749" lon="6.74995">
        <ele>433</ele>
        <time>2015-10-11T08:39:46.000Z</time>
      </trkpt>
      <trkpt lat="47.53749" lon="6.74991">
        <ele>433</ele>
        <time>2015-10-11T08:39:47.000Z</time>
      </trkpt>
      <trkpt lat="47.53749" lon="6.74987">
        <ele>434</ele>
        <time>2015-10-11T08:39:48.000Z</time>
      </trkpt>
      <trkpt lat="47.53749" lon="6.74983">
        <ele>434</ele>
        <time>2015-10-11T08:39:49.000Z</time>
      </trkpt>
      <trkpt lat="47.5375" lon="6.74979">
        <ele>433</ele>
        <time>2015-10-11T08:39:50.000Z</time>
      </trkpt>
      <trkpt lat="47.53751" lon="6.74975">
        <ele>433</ele>
        <time>2015-10-11T08:39:51.000Z</time>
      </trkpt>
      <trkpt lat="47.53753" lon="6.7497">
        <ele>433</ele>
        <time>2015-10-11T08:39:52.000Z</time>
      </trkpt>
      <trkpt lat="47.53754" lon="6.74966">
        <ele>434</ele>
        <time>2015-10-11T08:39:53.000Z</time>
      </trkpt>
      <trkpt lat="47.53755" lon="6.74963">
        <ele>434</ele>
        <time>2015-10-11T08:39:54.000Z</time>
      </trkpt>
      <trkpt lat="47.53757" lon="6.74959">
        <ele>434</ele>
        <time>2015-10-11T08:39:55.000Z</time>
      </trkpt>
      <trkpt lat="47.53758" lon="6.74955">
        <ele>434</ele>
        <time>2015-10-11T08:39:56.000Z</time>
      </trkpt>
      <trkpt lat="47.5376" lon="6.74951">
        <ele>434</ele>
        <time>2015-10-11T08:39:57.000Z</time>
      </trkpt>
      <trkpt lat="47.53761" lon="6.74947">
        <ele>434</ele>
        <time>2015-10-11T08:39:58.000Z</time>
      </trkpt>
      <trkpt lat="47.53762" lon="6.74943">
        <ele>434</ele>
        <time>2015-10-11T08:39:59.000Z</time>
      </trkpt>
      <trkpt lat="47.53762" lon="6.74939">
        <ele>434</ele>
        <time>2015-10-11T08:40:00.000Z</time>
      </trkpt>
      <trkpt lat="47.53762" lon="6.74935">
        <ele>434</ele>
        <time>2015-10-11T08:40:01.000Z</time>
      </trkpt>
      <trkpt lat="47.53763" lon="6.74931">
        <ele>433</ele>
        <time>2015-10-11T08:40:02.000Z</time>
      </trkpt>
      <trkpt lat="47.53764" lon="6.74926">
        <ele>433</ele>
        <time>2015-10-11T08:40:03.000Z</time>
      </trkpt>
      <trkpt lat="47.53764" lon="6.74922">
        <ele>433</ele>
        <time>2015-10-11T08:40:04.000Z</time>
      </trkpt>
      <trkpt lat="47.53765" lon="6.74917">
        <ele>433</ele>
        <time>2015-10-11T08:40:05.000Z</time>
      </trkpt>
      <trkpt lat="47.53766" lon="6.74913">
        <ele>434</ele>
        <time>2015-10-11T08:40:06.000Z</time>
      </trkpt>
      <trkpt lat="47.53767" lon="6.74909">
        <ele>434</ele>
        <time>2015-10-11T08:40:07.000Z</time>
      </trkpt>
      <trkpt lat="47.53769" lon="6.74905">
        <ele>434</ele>
        <time>2015-10-11T08:40:08.000Z</time>
      </trkpt>
      <trkpt lat="47.53771" lon="6.74901">
        <ele>434</ele>
        <time>2015-10-11T08:40:09.000Z</time>
      </trkpt>
      <trkpt lat="47.53774" lon="6.74896">
        <ele>435</ele>
        <time>2015-10-11T08:40:10.000Z</time>
      </trkpt>
      <trkpt lat="47.53777" lon="6.74892">
        <ele>435</ele>
        <time>2015-10-11T08:40:11.000Z</time>
      </trkpt>
      <trkpt lat="47.53779" lon="6.74888">
        <ele>435</ele>
        <time>2015-10-11T08:40:12.000Z</time>
      </trkpt>
      <trkpt lat="47.53782" lon="6.74884">
        <ele>435</ele>
        <time>2015-10-11T08:40:13.000Z</time>
      </trkpt>
      <trkpt lat="47.53784" lon="6.74881">
        <ele>435</ele>
        <time>2015-10-11T08:40:14.000Z</time>
      </trkpt>
      <trkpt lat="47.53786" lon="6.74879">
        <ele>435</ele>
        <time>2015-10-11T08:40:15.000Z</time>
      </trkpt>
      <trkpt lat="47.53788" lon="6.74877">
        <ele>435</ele>
        <time>2015-10-11T08:40:16.000Z</time>
      </trkpt>
      <trkpt lat="47.5379" lon="6.74874">
        <ele>435</ele>
        <time>2015-10-11T08:40:17.000Z</time>
      </trkpt>
      <trkpt lat="47.53792" lon="6.74871">
        <ele>436</ele>
        <time>2015-10-11T08:40:18.000Z</time>
      </trkpt>
      <trkpt lat="47.53794" lon="6.74868">
        <ele>436</ele>
        <time>2015-10-11T08:40:19.000Z</time>
      </trkpt>
      <trkpt lat="47.53796" lon="6.74863">
        <ele>436</ele>
        <time>2015-10-11T08:40:20.000Z</time>
      </trkpt>
      <trkpt lat="47.53798" lon="6.74858">
        <ele>436</ele>
        <time>2015-10-11T08:40:21.000Z</time>
      </trkpt>
      <trkpt lat="47.538" lon="6.74853">
        <ele>436</ele>
        <time>2015-10-11T08:40:22.000Z</time>
      </trkpt>
      <trkpt lat="47.53802" lon="6.74849">
        <ele>436</ele>
        <time>2015-10-11T08:40:23.000Z</time>
      </trkpt>
      <trkpt lat="47.53805" lon="6.74846">
        <ele>436</ele>
        <time>2015-10-11T08:40:24.000Z</time>
      </trkpt>
      <trkpt lat="47.53807" lon="6.74844">
        <ele>437</ele>
        <time>2015-10-11T08:40:25.000Z</time>
      </trkpt>
      <trkpt lat="47.53809" lon="6.74842">
        <ele>437</ele>
        <time>2015-10-11T08:40:26.000Z</time>
      </trkpt>
      <trkpt lat="47.53811" lon="6.7484">
        <ele>437</ele>
        <time>2015-10-11T08:40:27.000Z</time>
      </trkpt>
      <trkpt lat="47.53813" lon="6.74839">
        <ele>437</ele>
        <time>2015-10-11T08:40:28.000Z</time>
      </trkpt>
      <trkpt lat="47.53815" lon="6.74837">
        <ele>438</ele>
        <time>2015-10-11T08:40:29.000Z</time>
      </trkpt>
      <trkpt lat="47.53818" lon="6.74836">
        <ele>438</ele>
        <time>2015-10-11T08:40:30.000Z</time>
      </trkpt>
      <trkpt lat="47.5382" lon="6.74835">
        <ele>438</ele>
        <time>2015-10-11T08:40:31.000Z</time>
      </trkpt>
      <trkpt lat="47.53822" lon="6.74835">
        <ele>438</ele>
        <time>2015-10-11T08:40:32.000Z</time>
      </trkpt>
      <trkpt lat="47.53826" lon="6.74833">
        <ele>439</ele>
        <time>2015-10-11T08:40:34.000Z</time>
      </trkpt>
      <trkpt lat="47.53828" lon="6.74832">
        <ele>439</ele>
        <time>2015-10-11T08:40:35.000Z</time>
      </trkpt>
      <trkpt lat="47.53832" lon="6.74831">
        <ele>439</ele>
        <time>2015-10-11T08:40:37.000Z</time>
      </trkpt>
      <trkpt lat="47.53834" lon="6.7483">
        <ele>440</ele>
        <time>2015-10-11T08:40:38.000Z</time>
      </trkpt>
      <trkpt lat="47.53838" lon="6.74831">
        <ele>440</ele>
        <time>2015-10-11T08:40:40.000Z</time>
      </trkpt>
      <trkpt lat="47.5384" lon="6.74832">
        <ele>441</ele>
        <time>2015-10-11T08:40:41.000Z</time>
      </trkpt>
      <trkpt lat="47.53844" lon="6.74834">
        <ele>441</ele>
        <time>2015-10-11T08:40:43.000Z</time>
      </trkpt>
      <trkpt lat="47.53846" lon="6.74835">
        <ele>441</ele>
        <time>2015-10-11T08:40:44.000Z</time>
      </trkpt>
      <trkpt lat="47.53848" lon="6.74835">
        <ele>441</ele>
        <time>2015-10-11T08:40:45.000Z</time>
      </trkpt>
      <trkpt lat="47.5385" lon="6.74835">
        <ele>441</ele>
        <time>2015-10-11T08:40:46.000Z</time>
      </trkpt>
      <trkpt lat="47.53854" lon="6.74834">
        <ele>442</ele>
        <time>2015-10-11T08:40:48.000Z</time>
      </trkpt>
      <trkpt lat="47.53856" lon="6.74834">
        <ele>442</ele>
        <time>2015-10-11T08:40:49.000Z</time>
      </trkpt>
      <trkpt lat="47.5386" lon="6.74832">
        <ele>442</ele>
        <time>2015-10-11T08:40:51.000Z</time>
      </trkpt>
      <trkpt lat="47.53862" lon="6.74831">
        <ele>442</ele>
        <time>2015-10-11T08:40:52.000Z</time>
      </trkpt>
      <trkpt lat="47.53864" lon="6.7483">
        <ele>442</ele>
        <time>2015-10-11T08:40:53.000Z</time>
      </trkpt>
      <trkpt lat="47.53866" lon="6.74829">
        <ele>442</ele>
        <time>2015-10-11T08:40:54.000Z</time>
      </trkpt>
      <trkpt lat="47.53869" lon="6.74825">
        <ele>443</ele>
        <time>2015-10-11T08:40:56.000Z</time>
      </trkpt>
      <trkpt lat="47.53871" lon="6.74823">
        <ele>443</ele>
        <time>2015-10-11T08:40:57.000Z</time>
      </trkpt>
      <trkpt lat="47.53872" lon="6.7482">
        <ele>443</ele>
        <time>2015-10-11T08:40:58.000Z</time>
      </trkpt>
      <trkpt lat="47.53874" lon="6.74817">
        <ele>443</ele>
        <time>2015-10-11T08:40:59.000Z</time>
      </trkpt>
      <trkpt lat="47.53876" lon="6.74813">
        <ele>443</ele>
        <time>2015-10-11T08:41:00.000Z</time>
      </trkpt>
      <trkpt lat="47.53878" lon="6.7481">
        <ele>443</ele>
        <time>2015-10-11T08:41:01.000Z</time>
      </trkpt>
      <trkpt lat="47.5388" lon="6.74806">
        <ele>443</ele>
        <time>2015-10-11T08:41:02.000Z</time>
      </trkpt>
      <trkpt lat="47.53882" lon="6.74802">
        <ele>443</ele>
        <time>2015-10-11T08:41:03.000Z</time>
      </trkpt>
      <trkpt lat="47.53885" lon="6.74799">
        <ele>443</ele>
        <time>2015-10-11T08:41:04.000Z</time>
      </trkpt>
      <trkpt lat="47.5389" lon="6.74792">
        <ele>443</ele>
        <time>2015-10-11T08:41:06.000Z</time>
      </trkpt>
      <trkpt lat="47.53893" lon="6.7479">
        <ele>443</ele>
        <time>2015-10-11T08:41:07.000Z</time>
      </trkpt>
      <trkpt lat="47.53895" lon="6.74787">
        <ele>444</ele>
        <time>2015-10-11T08:41:08.000Z</time>
      </trkpt>
      <trkpt lat="47.53898" lon="6.74785">
        <ele>444</ele>
        <time>2015-10-11T08:41:09.000Z</time>
      </trkpt>
      <trkpt lat="47.539" lon="6.74782">
        <ele>444</ele>
        <time>2015-10-11T08:41:10.000Z</time>
      </trkpt>
      <trkpt lat="47.53902" lon="6.74779">
        <ele>444</ele>
        <time>2015-10-11T08:41:11.000Z</time>
      </trkpt>
      <trkpt lat="47.53905" lon="6.74777">
        <ele>444</ele>
        <time>2015-10-11T08:41:12.000Z</time>
      </trkpt>
      <trkpt lat="47.53907" lon="6.74774">
        <ele>444</ele>
        <time>2015-10-11T08:41:13.000Z</time>
      </trkpt>
      <trkpt lat="47.53909" lon="6.74772">
        <ele>444</ele>
        <time>2015-10-11T08:41:14.000Z</time>
      </trkpt>
      <trkpt lat="47.53911" lon="6.74769">
        <ele>444</ele>
        <time>2015-10-11T08:41:15.000Z</time>
      </trkpt>
      <trkpt lat="47.53914" lon="6.74767">
        <ele>445</ele>
        <time>2015-10-11T08:41:16.000Z</time>
      </trkpt>
      <trkpt lat="47.53916" lon="6.74765">
        <ele>445</ele>
        <time>2015-10-11T08:41:17.000Z</time>
      </trkpt>
      <trkpt lat="47.53919" lon="6.74763">
        <ele>447</ele>
        <time>2015-10-11T08:41:18.000Z</time>
      </trkpt>
      <trkpt lat="47.53921" lon="6.74761">
        <ele>447</ele>
        <time>2015-10-11T08:41:19.000Z</time>
      </trkpt>
      <trkpt lat="47.53923" lon="6.74759">
        <ele>447</ele>
        <time>2015-10-11T08:41:20.000Z</time>
      </trkpt>
      <trkpt lat="47.53925" lon="6.74757">
        <ele>447</ele>
        <time>2015-10-11T08:41:21.000Z</time>
      </trkpt>
      <trkpt lat="47.53928" lon="6.74755">
        <ele>447</ele>
        <time>2015-10-11T08:41:22.000Z</time>
      </trkpt>
      <trkpt lat="47.5393" lon="6.74754">
        <ele>447</ele>
        <time>2015-10-11T08:41:23.000Z</time>
      </trkpt>
      <trkpt lat="47.53933" lon="6.74753">
        <ele>447</ele>
        <time>2015-10-11T08:41:24.000Z</time>
      </trkpt>
      <trkpt lat="47.53936" lon="6.74752">
        <ele>448</ele>
        <time>2015-10-11T08:41:25.000Z</time>
      </trkpt>
      <trkpt lat="47.53939" lon="6.7475">
        <ele>448</ele>
        <time>2015-10-11T08:41:26.000Z</time>
      </trkpt>
      <trkpt lat="47.53941" lon="6.74749">
        <ele>447</ele>
        <time>2015-10-11T08:41:27.000Z</time>
      </trkpt>
      <trkpt lat="47.53944" lon="6.74747">
        <ele>447</ele>
        <time>2015-10-11T08:41:28.000Z</time>
      </trkpt>
      <trkpt lat="47.53947" lon="6.74745">
        <ele>447</ele>
        <time>2015-10-11T08:41:29.000Z</time>
      </trkpt>
      <trkpt lat="47.53949" lon="6.74743">
        <ele>447</ele>
        <time>2015-10-11T08:41:30.000Z</time>
      </trkpt>
      <trkpt lat="47.53952" lon="6.74741">
        <ele>447</ele>
        <time>2015-10-11T08:41:31.000Z</time>
      </trkpt>
      <trkpt lat="47.53954" lon="6.74739">
        <ele>447</ele>
        <time>2015-10-11T08:41:32.000Z</time>
      </trkpt>
      <trkpt lat="47.53957" lon="6.74738">
        <ele>447</ele>
        <time>2015-10-11T08:41:33.000Z</time>
      </trkpt>
      <trkpt lat="47.53959" lon="6.74736">
        <ele>447</ele>
        <time>2015-10-11T08:41:34.000Z</time>
      </trkpt>
      <trkpt lat="47.53961" lon="6.74735">
        <ele>447</ele>
        <time>2015-10-11T08:41:35.000Z</time>
      </trkpt>
      <trkpt lat="47.53963" lon="6.74733">
        <ele>447</ele>
        <time>2015-10-11T08:41:36.000Z</time>
      </trkpt>
      <trkpt lat="47.53965" lon="6.74732">
        <ele>447</ele>
        <time>2015-10-11T08:41:37.000Z</time>
      </trkpt>
      <trkpt lat="47.53968" lon="6.7473">
        <ele>448</ele>
        <time>2015-10-11T08:41:38.000Z</time>
      </trkpt>
      <trkpt lat="47.53971" lon="6.74729">
        <ele>448</ele>
        <time>2015-10-11T08:41:39.000Z</time>
      </trkpt>
      <trkpt lat="47.53973" lon="6.74727">
        <ele>448</ele>
        <time>2015-10-11T08:41:40.000Z</time>
      </trkpt>
      <trkpt lat="47.53976" lon="6.74726">
        <ele>448</ele>
        <time>2015-10-11T08:41:41.000Z</time>
      </trkpt>
      <trkpt lat="47.53979" lon="6.74725">
        <ele>448</ele>
        <time>2015-10-11T08:41:42.000Z</time>
      </trkpt>
      <trkpt lat="47.53982" lon="6.74724">
        <ele>448</ele>
        <time>2015-10-11T08:41:43.000Z</time>
      </trkpt>
      <trkpt lat="47.53984" lon="6.74723">
        <ele>448</ele>
        <time>2015-10-11T08:41:44.000Z</time>
      </trkpt>
      <trkpt lat="47.53987" lon="6.74722">
        <ele>448</ele>
        <time>2015-10-11T08:41:45.000Z</time>
      </trkpt>
      <trkpt lat="47.5399" lon="6.74721">
        <ele>448</ele>
        <time>2015-10-11T08:41:46.000Z</time>
      </trkpt>
      <trkpt lat="47.53992" lon="6.7472">
        <ele>448</ele>
        <time>2015-10-11T08:41:47.000Z</time>
      </trkpt>
      <trkpt lat="47.53994" lon="6.74719">
        <ele>448</ele>
        <time>2015-10-11T08:41:48.000Z</time>
      </trkpt>
      <trkpt lat="47.53997" lon="6.74718">
        <ele>448</ele>
        <time>2015-10-11T08:41:49.000Z</time>
      </trkpt>
      <trkpt lat="47.54" lon="6.74717">
        <ele>450</ele>
        <time>2015-10-11T08:41:50.000Z</time>
      </trkpt>
      <trkpt lat="47.54003" lon="6.74716">
        <ele>450</ele>
        <time>2015-10-11T08:41:51.000Z</time>
      </trkpt>
      <trkpt lat="47.54006" lon="6.74715">
        <ele>450</ele>
        <time>2015-10-11T08:41:52.000Z</time>
      </trkpt>
      <trkpt lat="47.54008" lon="6.74714">
        <ele>450</ele>
        <time>2015-10-11T08:41:53.000Z</time>
      </trkpt>
      <trkpt lat="47.54011" lon="6.74713">
        <ele>450</ele>
        <time>2015-10-11T08:41:54.000Z</time>
      </trkpt>
      <trkpt lat="47.54014" lon="6.74712">
        <ele>450</ele>
        <time>2015-10-11T08:41:55.000Z</time>
      </trkpt>
      <trkpt lat="47.54017" lon="6.7471">
        <ele>450</ele>
        <time>2015-10-11T08:41:56.000Z</time>
      </trkpt>
      <trkpt lat="47.5402" lon="6.74709">
        <ele>450</ele>
        <time>2015-10-11T08:41:57.000Z</time>
      </trkpt>
      <trkpt lat="47.54024" lon="6.74708">
        <ele>450</ele>
        <time>2015-10-11T08:41:58.000Z</time>
      </trkpt>
      <trkpt lat="47.54027" lon="6.74706">
        <ele>450</ele>
        <time>2015-10-11T08:41:59.000Z</time>
      </trkpt>
      <trkpt lat="47.5403" lon="6.74705">
        <ele>450</ele>
        <time>2015-10-11T08:42:00.000Z</time>
      </trkpt>
      <trkpt lat="47.54032" lon="6.74703">
        <ele>450</ele>
        <time>2015-10-11T08:42:01.000Z</time>
      </trkpt>
      <trkpt lat="47.54035" lon="6.74701">
        <ele>450</ele>
        <time>2015-10-11T08:42:02.000Z</time>
      </trkpt>
      <trkpt lat="47.54038" lon="6.74699">
        <ele>450</ele>
        <time>2015-10-11T08:42:03.000Z</time>
      </trkpt>
      <trkpt lat="47.54042" lon="6.74697">
        <ele>451</ele>
        <time>2015-10-11T08:42:04.000Z</time>
      </trkpt>
      <trkpt lat="47.54046" lon="6.74695">
        <ele>451</ele>
        <time>2015-10-11T08:42:05.000Z</time>
      </trkpt>
      <trkpt lat="47.54049" lon="6.74694">
        <ele>451</ele>
        <time>2015-10-11T08:42:06.000Z</time>
      </trkpt>
      <trkpt lat="47.54053" lon="6.74692">
        <ele>451</ele>
        <time>2015-10-11T08:42:07.000Z</time>
      </trkpt>
      <trkpt lat="47.54056" lon="6.7469">
        <ele>451</ele>
        <time>2015-10-11T08:42:08.000Z</time>
      </trkpt>
      <trkpt lat="47.54058" lon="6.74688">
        <ele>451</ele>
        <time>2015-10-11T08:42:09.000Z</time>
      </trkpt>
      <trkpt lat="47.54061" lon="6.74685">
        <ele>451</ele>
        <time>2015-10-11T08:42:10.000Z</time>
      </trkpt>
      <trkpt lat="47.54064" lon="6.74683">
        <ele>451</ele>
        <time>2015-10-11T08:42:11.000Z</time>
      </trkpt>
      <trkpt lat="47.54067" lon="6.74681">
        <ele>451</ele>
        <time>2015-10-11T08:42:12.000Z</time>
      </trkpt>
      <trkpt lat="47.54069" lon="6.74679">
        <ele>451</ele>
        <time>2015-10-11T08:42:13.000Z</time>
      </trkpt>
      <trkpt lat="47.54072" lon="6.74678">
        <ele>451</ele>
        <time>2015-10-11T08:42:14.000Z</time>
      </trkpt>
      <trkpt lat="47.54075" lon="6.74676">
        <ele>451</ele>
        <time>2015-10-11T08:42:15.000Z</time>
      </trkpt>
      <trkpt lat="47.54078" lon="6.74675">
        <ele>451</ele>
        <time>2015-10-11T08:42:16.000Z</time>
      </trkpt>
      <trkpt lat="47.5408" lon="6.74674">
        <ele>451</ele>
        <time>2015-10-11T08:42:17.000Z</time>
      </trkpt>
      <trkpt lat="47.54083" lon="6.74673">
        <ele>451</ele>
        <time>2015-10-11T08:42:18.000Z</time>
      </trkpt>
      <trkpt lat="47.54086" lon="6.74671">
        <ele>452</ele>
        <time>2015-10-11T08:42:19.000Z</time>
      </trkpt>
      <trkpt lat="47.54088" lon="6.7467">
        <ele>452</ele>
        <time>2015-10-11T08:42:20.000Z</time>
      </trkpt>
      <trkpt lat="47.54091" lon="6.74668">
        <ele>452</ele>
        <time>2015-10-11T08:42:21.000Z</time>
      </trkpt>
      <trkpt lat="47.54093" lon="6.74666">
        <ele>451</ele>
        <time>2015-10-11T08:42:22.000Z</time>
      </trkpt>
      <trkpt lat="47.54095" lon="6.74665">
        <ele>451</ele>
        <time>2015-10-11T08:42:23.000Z</time>
      </trkpt>
      <trkpt lat="47.54097" lon="6.74663">
        <ele>451</ele>
        <time>2015-10-11T08:42:24.000Z</time>
      </trkpt>
      <trkpt lat="47.54102" lon="6.74661">
        <ele>451</ele>
        <time>2015-10-11T08:42:26.000Z</time>
      </trkpt>
      <trkpt lat="47.54104" lon="6.7466">
        <ele>451</ele>
        <time>2015-10-11T08:42:27.000Z</time>
      </trkpt>
      <trkpt lat="47.54107" lon="6.74659">
        <ele>451</ele>
        <time>2015-10-11T08:42:28.000Z</time>
      </trkpt>
      <trkpt lat="47.5411" lon="6.74657">
        <ele>451</ele>
        <time>2015-10-11T08:42:29.000Z</time>
      </trkpt>
      <trkpt lat="47.54113" lon="6.74655">
        <ele>451</ele>
        <time>2015-10-11T08:42:30.000Z</time>
      </trkpt>
      <trkpt lat="47.54116" lon="6.74652">
        <ele>451</ele>
        <time>2015-10-11T08:42:31.000Z</time>
      </trkpt>
      <trkpt lat="47.54119" lon="6.7465">
        <ele>451</ele>
        <time>2015-10-11T08:42:32.000Z</time>
      </trkpt>
      <trkpt lat="47.54122" lon="6.74647">
        <ele>451</ele>
        <time>2015-10-11T08:42:33.000Z</time>
      </trkpt>
      <trkpt lat="47.54125" lon="6.74644">
        <ele>451</ele>
        <time>2015-10-11T08:42:34.000Z</time>
      </trkpt>
      <trkpt lat="47.54128" lon="6.74641">
        <ele>451</ele>
        <time>2015-10-11T08:42:35.000Z</time>
      </trkpt>
      <trkpt lat="47.54132" lon="6.74637">
        <ele>451</ele>
        <time>2015-10-11T08:42:36.000Z</time>
      </trkpt>
      <trkpt lat="47.54135" lon="6.74634">
        <ele>451</ele>
        <time>2015-10-11T08:42:37.000Z</time>
      </trkpt>
      <trkpt lat="47.54139" lon="6.7463">
        <ele>451</ele>
        <time>2015-10-11T08:42:38.000Z</time>
      </trkpt>
      <trkpt lat="47.54143" lon="6.74627">
        <ele>451</ele>
        <time>2015-10-11T08:42:39.000Z</time>
      </trkpt>
      <trkpt lat="47.54146" lon="6.74624">
        <ele>451</ele>
        <time>2015-10-11T08:42:40.000Z</time>
      </trkpt>
      <trkpt lat="47.54149" lon="6.74621">
        <ele>451</ele>
        <time>2015-10-11T08:42:41.000Z</time>
      </trkpt>
      <trkpt lat="47.54152" lon="6.74619">
        <ele>451</ele>
        <time>2015-10-11T08:42:42.000Z</time>
      </trkpt>
      <trkpt lat="47.54156" lon="6.74617">
        <ele>451</ele>
        <time>2015-10-11T08:42:43.000Z</time>
      </trkpt>
      <trkpt lat="47.54159" lon="6.74615">
        <ele>451</ele>
        <time>2015-10-11T08:42:44.000Z</time>
      </trkpt>
      <trkpt lat="47.54162" lon="6.74613">
        <ele>451</ele>
        <time>2015-10-11T08:42:45.000Z</time>
      </trkpt>
      <trkpt lat="47.54165" lon="6.74611">
        <ele>451</ele>
        <time>2015-10-11T08:42:46.000Z</time>
      </trkpt>
      <trkpt lat="47.54169" lon="6.74609">
        <ele>452</ele>
        <time>2015-10-11T08:42:47.000Z</time>
      </trkpt>
      <trkpt lat="47.54172" lon="6.74606">
        <ele>452</ele>
        <time>2015-10-11T08:42:48.000Z</time>
      </trkpt>
      <trkpt lat="47.54176" lon="6.74602">
        <ele>452</ele>
        <time>2015-10-11T08:42:49.000Z</time>
      </trkpt>
      <trkpt lat="47.5418" lon="6.74599">
        <ele>452</ele>
        <time>2015-10-11T08:42:50.000Z</time>
      </trkpt>
      <trkpt lat="47.54184" lon="6.74595">
        <ele>452</ele>
        <time>2015-10-11T08:42:51.000Z</time>
      </trkpt>
      <trkpt lat="47.54188" lon="6.74592">
        <ele>452</ele>
        <time>2015-10-11T08:42:52.000Z</time>
      </trkpt>
      <trkpt lat="47.54192" lon="6.74587">
        <ele>452</ele>
        <time>2015-10-11T08:42:53.000Z</time>
      </trkpt>
      <trkpt lat="47.54196" lon="6.74583">
        <ele>449</ele>
        <time>2015-10-11T08:42:54.000Z</time>
      </trkpt>
      <trkpt lat="47.54199" lon="6.7458">
        <ele>449</ele>
        <time>2015-10-11T08:42:55.000Z</time>
      </trkpt>
      <trkpt lat="47.54202" lon="6.74577">
        <ele>449</ele>
        <time>2015-10-11T08:42:56.000Z</time>
      </trkpt>
      <trkpt lat="47.54206" lon="6.74574">
        <ele>449</ele>
        <time>2015-10-11T08:42:57.000Z</time>
      </trkpt>
      <trkpt lat="47.54209" lon="6.74571">
        <ele>449</ele>
        <time>2015-10-11T08:42:58.000Z</time>
      </trkpt>
      <trkpt lat="47.54212" lon="6.74568">
        <ele>449</ele>
        <time>2015-10-11T08:42:59.000Z</time>
      </trkpt>
      <trkpt lat="47.54215" lon="6.74563">
        <ele>449</ele>
        <time>2015-10-11T08:43:00.000Z</time>
      </trkpt>
      <trkpt lat="47.54219" lon="6.74558">
        <ele>448</ele>
        <time>2015-10-11T08:43:01.000Z</time>
      </trkpt>
      <trkpt lat="47.54223" lon="6.74552">
        <ele>448</ele>
        <time>2015-10-11T08:43:02.000Z</time>
      </trkpt>
      <trkpt lat="47.54227" lon="6.74545">
        <ele>448</ele>
        <time>2015-10-11T08:43:03.000Z</time>
      </trkpt>
      <trkpt lat="47.54231" lon="6.74539">
        <ele>448</ele>
        <time>2015-10-11T08:43:04.000Z</time>
      </trkpt>
      <trkpt lat="47.54234" lon="6.74532">
        <ele>448</ele>
        <time>2015-10-11T08:43:05.000Z</time>
      </trkpt>
      <trkpt lat="47.54238" lon="6.74525">
        <ele>448</ele>
        <time>2015-10-11T08:43:06.000Z</time>
      </trkpt>
      <trkpt lat="47.54243" lon="6.74518">
        <ele>447</ele>
        <time>2015-10-11T08:43:07.000Z</time>
      </trkpt>
      <trkpt lat="47.54246" lon="6.74511">
        <ele>447</ele>
        <time>2015-10-11T08:43:08.000Z</time>
      </trkpt>
      <trkpt lat="47.5425" lon="6.74504">
        <ele>447</ele>
        <time>2015-10-11T08:43:09.000Z</time>
      </trkpt>
      <trkpt lat="47.54254" lon="6.74498">
        <ele>447</ele>
        <time>2015-10-11T08:43:10.000Z</time>
      </trkpt>
      <trkpt lat="47.54258" lon="6.74491">
        <ele>448</ele>
        <time>2015-10-11T08:43:11.000Z</time>
      </trkpt>
      <trkpt lat="47.54262" lon="6.74484">
        <ele>448</ele>
        <time>2015-10-11T08:43:12.000Z</time>
      </trkpt>
      <trkpt lat="47.54266" lon="6.74477">
        <ele>448</ele>
        <time>2015-10-11T08:43:13.000Z</time>
      </trkpt>
      <trkpt lat="47.5427" lon="6.7447">
        <ele>448</ele>
        <time>2015-10-11T08:43:14.000Z</time>
      </trkpt>
      <trkpt lat="47.54274" lon="6.74463">
        <ele>448</ele>
        <time>2015-10-11T08:43:15.000Z</time>
      </trkpt>
      <trkpt lat="47.54277" lon="6.74456">
        <ele>448</ele>
        <time>2015-10-11T08:43:16.000Z</time>
      </trkpt>
      <trkpt lat="47.5428" lon="6.7445">
        <ele>448</ele>
        <time>2015-10-11T08:43:17.000Z</time>
      </trkpt>
      <trkpt lat="47.54283" lon="6.74446">
        <ele>448</ele>
        <time>2015-10-11T08:43:18.000Z</time>
      </trkpt>
      <trkpt lat="47.54285" lon="6.74442">
        <ele>448</ele>
        <time>2015-10-11T08:43:19.000Z</time>
      </trkpt>
      <trkpt lat="47.54287" lon="6.74439">
        <ele>448</ele>
        <time>2015-10-11T08:43:20.000Z</time>
      </trkpt>
      <trkpt lat="47.54288" lon="6.74437">
        <ele>448</ele>
        <time>2015-10-11T08:43:21.000Z</time>
      </trkpt>
      <trkpt lat="47.54288" lon="6.74431">
        <ele>448</ele>
        <time>2015-10-11T08:43:45.000Z</time>
      </trkpt>
      <trkpt lat="47.54288" lon="6.74428">
        <ele>448</ele>
        <time>2015-10-11T08:43:46.000Z</time>
      </trkpt>
      <trkpt lat="47.54288" lon="6.74421">
        <ele>448</ele>
        <time>2015-10-11T08:43:48.000Z</time>
      </trkpt>
      <trkpt lat="47.54289" lon="6.74417">
        <ele>448</ele>
        <time>2015-10-11T08:43:49.000Z</time>
      </trkpt>
      <trkpt lat="47.54289" lon="6.74413">
        <ele>445</ele>
        <time>2015-10-11T08:43:50.000Z</time>
      </trkpt>
      <trkpt lat="47.54288" lon="6.74408">
        <ele>445</ele>
        <time>2015-10-11T08:43:51.000Z</time>
      </trkpt>
      <trkpt lat="47.54288" lon="6.74403">
        <ele>445</ele>
        <time>2015-10-11T08:43:52.000Z</time>
      </trkpt>
      <trkpt lat="47.54288" lon="6.74397">
        <ele>445</ele>
        <time>2015-10-11T08:43:53.000Z</time>
      </trkpt>
      <trkpt lat="47.54289" lon="6.7439">
        <ele>445</ele>
        <time>2015-10-11T08:43:54.000Z</time>
      </trkpt>
      <trkpt lat="47.54289" lon="6.74382">
        <ele>445</ele>
        <time>2015-10-11T08:43:55.000Z</time>
      </trkpt>
      <trkpt lat="47.54293" lon="6.74359">
        <ele>444</ele>
        <time>2015-10-11T08:43:56.000Z</time>
      </trkpt>
      <trkpt lat="47.54292" lon="6.74347">
        <ele>444</ele>
        <time>2015-10-11T08:43:57.000Z</time>
      </trkpt>
      <trkpt lat="47.54292" lon="6.74337">
        <ele>444</ele>
        <time>2015-10-11T08:43:58.000Z</time>
      </trkpt>
      <trkpt lat="47.54291" lon="6.74326">
        <ele>442</ele>
        <time>2015-10-11T08:43:59.000Z</time>
      </trkpt>
      <trkpt lat="47.54291" lon="6.74314">
        <ele>441</ele>
        <time>2015-10-11T08:44:00.000Z</time>
      </trkpt>
      <trkpt lat="47.5429" lon="6.74302">
        <ele>441</ele>
        <time>2015-10-11T08:44:01.000Z</time>
      </trkpt>
      <trkpt lat="47.54289" lon="6.74288">
        <ele>441</ele>
        <time>2015-10-11T08:44:02.000Z</time>
      </trkpt>
      <trkpt lat="47.54287" lon="6.74278">
        <ele>441</ele>
        <time>2015-10-11T08:44:03.000Z</time>
      </trkpt>
      <trkpt lat="47.54287" lon="6.74261">
        <ele>441</ele>
        <time>2015-10-11T08:44:04.000Z</time>
      </trkpt>
      <trkpt lat="47.54287" lon="6.74243">
        <ele>439</ele>
        <time>2015-10-11T08:44:05.000Z</time>
      </trkpt>
      <trkpt lat="47.54291" lon="6.74227">
        <ele>439</ele>
        <time>2015-10-11T08:44:06.000Z</time>
      </trkpt>
      <trkpt lat="47.54301" lon="6.74205">
        <ele>439</ele>
        <time>2015-10-11T08:44:07.000Z</time>
      </trkpt>
      <trkpt lat="47.54308" lon="6.74194">
        <ele>438</ele>
        <time>2015-10-11T08:44:08.000Z</time>
      </trkpt>
      <trkpt lat="47.54314" lon="6.74183">
        <ele>438</ele>
        <time>2015-10-11T08:44:09.000Z</time>
      </trkpt>
      <trkpt lat="47.54318" lon="6.74175">
        <ele>438</ele>
        <time>2015-10-11T08:44:10.000Z</time>
      </trkpt>
      <trkpt lat="47.54323" lon="6.74166">
        <ele>436</ele>
        <time>2015-10-11T08:44:11.000Z</time>
      </trkpt>
      <trkpt lat="47.54328" lon="6.74156">
        <ele>436</ele>
        <time>2015-10-11T08:44:12.000Z</time>
      </trkpt>
      <trkpt lat="47.54334" lon="6.74146">
        <ele>435</ele>
        <time>2015-10-11T08:44:13.000Z</time>
      </trkpt>
      <trkpt lat="47.54339" lon="6.74133">
        <ele>435</ele>
        <time>2015-10-11T08:44:14.000Z</time>
      </trkpt>
      <trkpt lat="47.54344" lon="6.74121">
        <ele>434</ele>
        <time>2015-10-11T08:44:15.000Z</time>
      </trkpt>
      <trkpt lat="47.54348" lon="6.74109">
        <ele>433</ele>
        <time>2015-10-11T08:44:16.000Z</time>
      </trkpt>
      <trkpt lat="47.54352" lon="6.74097">
        <ele>433</ele>
        <time>2015-10-11T08:44:17.000Z</time>
      </trkpt>
      <trkpt lat="47.54357" lon="6.74086">
        <ele>433</ele>
        <time>2015-10-11T08:44:18.000Z</time>
      </trkpt>
      <trkpt lat="47.54362" lon="6.74077">
        <ele>430</ele>
        <time>2015-10-11T08:44:19.000Z</time>
      </trkpt>
      <trkpt lat="47.54363" lon="6.74068">
        <ele>430</ele>
        <time>2015-10-11T08:44:20.000Z</time>
      </trkpt>
      <trkpt lat="47.54368" lon="6.74058">
        <ele>429</ele>
        <time>2015-10-11T08:44:21.000Z</time>
      </trkpt>
      <trkpt lat="47.5437" lon="6.74046">
        <ele>429</ele>
        <time>2015-10-11T08:44:22.000Z</time>
      </trkpt>
      <trkpt lat="47.54373" lon="6.74036">
        <ele>428</ele>
        <time>2015-10-11T08:44:23.000Z</time>
      </trkpt>
      <trkpt lat="47.54379" lon="6.74027">
        <ele>428</ele>
        <time>2015-10-11T08:44:24.000Z</time>
      </trkpt>
      <trkpt lat="47.54379" lon="6.74016">
        <ele>428</ele>
        <time>2015-10-11T08:44:25.000Z</time>
      </trkpt>
      <trkpt lat="47.5438" lon="6.74007">
        <ele>427</ele>
        <time>2015-10-11T08:44:26.000Z</time>
      </trkpt>
      <trkpt lat="47.54381" lon="6.73996">
        <ele>423</ele>
        <time>2015-10-11T08:44:27.000Z</time>
      </trkpt>
      <trkpt lat="47.5438" lon="6.73988">
        <ele>423</ele>
        <time>2015-10-11T08:44:28.000Z</time>
      </trkpt>
      <trkpt lat="47.54382" lon="6.73982">
        <ele>423</ele>
        <time>2015-10-11T08:44:29.000Z</time>
      </trkpt>
      <trkpt lat="47.54381" lon="6.73972">
        <ele>423</ele>
        <time>2015-10-11T08:44:30.000Z</time>
      </trkpt>
      <trkpt lat="47.54381" lon="6.73964">
        <ele>423</ele>
        <time>2015-10-11T08:44:31.000Z</time>
      </trkpt>
      <trkpt lat="47.54382" lon="6.73956">
        <ele>422</ele>
        <time>2015-10-11T08:44:32.000Z</time>
      </trkpt>
      <trkpt lat="47.54383" lon="6.73948">
        <ele>422</ele>
        <time>2015-10-11T08:44:33.000Z</time>
      </trkpt>
      <trkpt lat="47.54385" lon="6.7394">
        <ele>421</ele>
        <time>2015-10-11T08:44:34.000Z</time>
      </trkpt>
      <trkpt lat="47.54386" lon="6.73932">
        <ele>421</ele>
        <time>2015-10-11T08:44:35.000Z</time>
      </trkpt>
      <trkpt lat="47.54387" lon="6.73924">
        <ele>420</ele>
        <time>2015-10-11T08:44:36.000Z</time>
      </trkpt>
      <trkpt lat="47.54386" lon="6.73916">
        <ele>416</ele>
        <time>2015-10-11T08:44:37.000Z</time>
      </trkpt>
      <trkpt lat="47.54385" lon="6.73908">
        <ele>416</ele>
        <time>2015-10-11T08:44:38.000Z</time>
      </trkpt>
      <trkpt lat="47.54384" lon="6.73895">
        <ele>416</ele>
        <time>2015-10-11T08:44:39.000Z</time>
      </trkpt>
      <trkpt lat="47.54385" lon="6.73885">
        <ele>416</ele>
        <time>2015-10-11T08:44:40.000Z</time>
      </trkpt>
      <trkpt lat="47.54384" lon="6.73875">
        <ele>415</ele>
        <time>2015-10-11T08:44:41.000Z</time>
      </trkpt>
      <trkpt lat="47.54384" lon="6.73864">
        <ele>415</ele>
        <time>2015-10-11T08:44:42.000Z</time>
      </trkpt>
      <trkpt lat="47.54384" lon="6.73854">
        <ele>414</ele>
        <time>2015-10-11T08:44:43.000Z</time>
      </trkpt>
      <trkpt lat="47.54384" lon="6.73843">
        <ele>414</ele>
        <time>2015-10-11T08:44:44.000Z</time>
      </trkpt>
      <trkpt lat="47.54384" lon="6.73831">
        <ele>411</ele>
        <time>2015-10-11T08:44:45.000Z</time>
      </trkpt>
      <trkpt lat="47.54387" lon="6.73819">
        <ele>410</ele>
        <time>2015-10-11T08:44:46.000Z</time>
      </trkpt>
      <trkpt lat="47.54389" lon="6.73811">
        <ele>410</ele>
        <time>2015-10-11T08:44:47.000Z</time>
      </trkpt>
      <trkpt lat="47.54387" lon="6.73801">
        <ele>410</ele>
        <time>2015-10-11T08:44:48.000Z</time>
      </trkpt>
      <trkpt lat="47.54386" lon="6.73792">
        <ele>410</ele>
        <time>2015-10-11T08:44:49.000Z</time>
      </trkpt>
      <trkpt lat="47.54385" lon="6.73782">
        <ele>410</ele>
        <time>2015-10-11T08:44:50.000Z</time>
      </trkpt>
      <trkpt lat="47.54384" lon="6.73771">
        <ele>409</ele>
        <time>2015-10-11T08:44:51.000Z</time>
      </trkpt>
      <trkpt lat="47.54383" lon="6.73762">
        <ele>409</ele>
        <time>2015-10-11T08:44:52.000Z</time>
      </trkpt>
      <trkpt lat="47.54383" lon="6.73755">
        <ele>409</ele>
        <time>2015-10-11T08:44:53.000Z</time>
      </trkpt>
      <trkpt lat="47.54384" lon="6.73748">
        <ele>407</ele>
        <time>2015-10-11T08:44:54.000Z</time>
      </trkpt>
      <trkpt lat="47.54383" lon="6.7374">
        <ele>407</ele>
        <time>2015-10-11T08:44:55.000Z</time>
      </trkpt>
      <trkpt lat="47.54383" lon="6.73732">
        <ele>407</ele>
        <time>2015-10-11T08:44:56.000Z</time>
      </trkpt>
      <trkpt lat="47.54383" lon="6.73725">
        <ele>407</ele>
        <time>2015-10-11T08:44:57.000Z</time>
      </trkpt>
      <trkpt lat="47.54384" lon="6.73715">
        <ele>406</ele>
        <time>2015-10-11T08:44:58.000Z</time>
      </trkpt>
      <trkpt lat="47.54384" lon="6.73707">
        <ele>406</ele>
        <time>2015-10-11T08:44:59.000Z</time>
      </trkpt>
      <trkpt lat="47.54381" lon="6.73698">
        <ele>406</ele>
        <time>2015-10-11T08:45:00.000Z</time>
      </trkpt>
      <trkpt lat="47.54381" lon="6.73692">
        <ele>406</ele>
        <time>2015-10-11T08:45:01.000Z</time>
      </trkpt>
      <trkpt lat="47.54381" lon="6.73687">
        <ele>406</ele>
        <time>2015-10-11T08:45:02.000Z</time>
      </trkpt>
      <trkpt lat="47.5438" lon="6.73684">
        <ele>406</ele>
        <time>2015-10-11T08:45:03.000Z</time>
      </trkpt>
      <trkpt lat="47.54379" lon="6.7368">
        <ele>406</ele>
        <time>2015-10-11T08:45:04.000Z</time>
      </trkpt>
      <trkpt lat="47.54381" lon="6.73675">
        <ele>406</ele>
        <time>2015-10-11T08:45:05.000Z</time>
      </trkpt>
      <trkpt lat="47.54382" lon="6.73671">
        <ele>406</ele>
        <time>2015-10-11T08:45:06.000Z</time>
      </trkpt>
      <trkpt lat="47.54384" lon="6.73665">
        <ele>403</ele>
        <time>2015-10-11T08:45:08.000Z</time>
      </trkpt>
      <trkpt lat="47.54385" lon="6.73662">
        <ele>403</ele>
        <time>2015-10-11T08:45:09.000Z</time>
      </trkpt>
      <trkpt lat="47.54386" lon="6.73658">
        <ele>403</ele>
        <time>2015-10-11T08:45:10.000Z</time>
      </trkpt>
      <trkpt lat="47.54386" lon="6.73655">
        <ele>403</ele>
        <time>2015-10-11T08:45:11.000Z</time>
      </trkpt>
      <trkpt lat="47.54388" lon="6.7365">
        <ele>403</ele>
        <time>2015-10-11T08:45:13.000Z</time>
      </trkpt>
      <trkpt lat="47.5439" lon="6.73646">
        <ele>403</ele>
        <time>2015-10-11T08:45:14.000Z</time>
      </trkpt>
      <trkpt lat="47.54391" lon="6.73643">
        <ele>403</ele>
        <time>2015-10-11T08:45:15.000Z</time>
      </trkpt>
      <trkpt lat="47.54392" lon="6.73639">
        <ele>403</ele>
        <time>2015-10-11T08:45:16.000Z</time>
      </trkpt>
      <trkpt lat="47.54393" lon="6.73635">
        <ele>403</ele>
        <time>2015-10-11T08:45:17.000Z</time>
      </trkpt>
      <trkpt lat="47.54393" lon="6.73632">
        <ele>402</ele>
        <time>2015-10-11T08:45:18.000Z</time>
      </trkpt>
      <trkpt lat="47.54394" lon="6.73629">
        <ele>402</ele>
        <time>2015-10-11T08:45:19.000Z</time>
      </trkpt>
      <trkpt lat="47.54394" lon="6.73625">
        <ele>402</ele>
        <time>2015-10-11T08:45:20.000Z</time>
      </trkpt>
      <trkpt lat="47.54395" lon="6.7362">
        <ele>402</ele>
        <time>2015-10-11T08:45:21.000Z</time>
      </trkpt>
      <trkpt lat="47.54395" lon="6.73616">
        <ele>402</ele>
        <time>2015-10-11T08:45:22.000Z</time>
      </trkpt>
      <trkpt lat="47.54396" lon="6.73611">
        <ele>402</ele>
        <time>2015-10-11T08:45:23.000Z</time>
      </trkpt>
      <trkpt lat="47.54396" lon="6.73605">
        <ele>402</ele>
        <time>2015-10-11T08:45:24.000Z</time>
      </trkpt>
      <trkpt lat="47.54397" lon="6.736">
        <ele>402</ele>
        <time>2015-10-11T08:45:25.000Z</time>
      </trkpt>
      <trkpt lat="47.54397" lon="6.73595">
        <ele>401</ele>
        <time>2015-10-11T08:45:26.000Z</time>
      </trkpt>
      <trkpt lat="47.54398" lon="6.73591">
        <ele>401</ele>
        <time>2015-10-11T08:45:27.000Z</time>
      </trkpt>
      <trkpt lat="47.54398" lon="6.73587">
        <ele>401</ele>
        <time>2015-10-11T08:45:28.000Z</time>
      </trkpt>
      <trkpt lat="47.54399" lon="6.73584">
        <ele>401</ele>
        <time>2015-10-11T08:45:29.000Z</time>
      </trkpt>
      <trkpt lat="47.544" lon="6.73581">
        <ele>399</ele>
        <time>2015-10-11T08:45:30.000Z</time>
      </trkpt>
      <trkpt lat="47.54401" lon="6.73574">
        <ele>399</ele>
        <time>2015-10-11T08:45:32.000Z</time>
      </trkpt>
      <trkpt lat="47.54401" lon="6.73571">
        <ele>399</ele>
        <time>2015-10-11T08:45:33.000Z</time>
      </trkpt>
      <trkpt lat="47.54401" lon="6.73565">
        <ele>399</ele>
        <time>2015-10-11T08:45:35.000Z</time>
      </trkpt>
      <trkpt lat="47.54401" lon="6.73561">
        <ele>399</ele>
        <time>2015-10-11T08:45:36.000Z</time>
      </trkpt>
      <trkpt lat="47.544" lon="6.73558">
        <ele>399</ele>
        <time>2015-10-11T08:45:37.000Z</time>
      </trkpt>
      <trkpt lat="47.544" lon="6.73555">
        <ele>399</ele>
        <time>2015-10-11T08:45:38.000Z</time>
      </trkpt>
      <trkpt lat="47.544" lon="6.73551">
        <ele>399</ele>
        <time>2015-10-11T08:45:39.000Z</time>
      </trkpt>
      <trkpt lat="47.544" lon="6.73547">
        <ele>399</ele>
        <time>2015-10-11T08:45:40.000Z</time>
      </trkpt>
      <trkpt lat="47.544" lon="6.73541">
        <ele>399</ele>
        <time>2015-10-11T08:45:42.000Z</time>
      </trkpt>
      <trkpt lat="47.54401" lon="6.73539">
        <ele>398</ele>
        <time>2015-10-11T08:45:43.000Z</time>
      </trkpt>
      <trkpt lat="47.54403" lon="6.73533">
        <ele>399</ele>
        <time>2015-10-11T08:45:46.000Z</time>
      </trkpt>
      <trkpt lat="47.54403" lon="6.73532">
        <ele>399</ele>
        <time>2015-10-11T08:45:47.000Z</time>
      </trkpt>
      <trkpt lat="47.54403" lon="6.73527">
        <ele>399</ele>
        <time>2015-10-11T08:45:51.000Z</time>
      </trkpt>
      <trkpt lat="47.54403" lon="6.73525">
        <ele>399</ele>
        <time>2015-10-11T08:45:52.000Z</time>
      </trkpt>
      <trkpt lat="47.54401" lon="6.73519">
        <ele>399</ele>
        <time>2015-10-11T08:45:56.000Z</time>
      </trkpt>
      <trkpt lat="47.54401" lon="6.73517">
        <ele>399</ele>
        <time>2015-10-11T08:45:57.000Z</time>
      </trkpt>
      <trkpt lat="47.54402" lon="6.73512">
        <ele>399</ele>
        <time>2015-10-11T08:45:59.000Z</time>
      </trkpt>
      <trkpt lat="47.54402" lon="6.7351">
        <ele>399</ele>
        <time>2015-10-11T08:46:00.000Z</time>
      </trkpt>
      <trkpt lat="47.54404" lon="6.73504">
        <ele>399</ele>
        <time>2015-10-11T08:46:03.000Z</time>
      </trkpt>
      <trkpt lat="47.54404" lon="6.73502">
        <ele>399</ele>
        <time>2015-10-11T08:46:04.000Z</time>
      </trkpt>
      <trkpt lat="47.54407" lon="6.73497">
        <ele>399</ele>
        <time>2015-10-11T08:46:08.000Z</time>
      </trkpt>
      <trkpt lat="47.54407" lon="6.73496">
        <ele>399</ele>
        <time>2015-10-11T08:46:09.000Z</time>
      </trkpt>
      <trkpt lat="47.5441" lon="6.73492">
        <ele>399</ele>
        <time>2015-10-11T08:46:14.000Z</time>
      </trkpt>
      <trkpt lat="47.54411" lon="6.73492">
        <ele>399</ele>
        <time>2015-10-11T08:46:15.000Z</time>
      </trkpt>
      <trkpt lat="47.54411" lon="6.73486">
        <ele>398</ele>
        <time>2015-10-11T08:46:22.000Z</time>
      </trkpt>
      <trkpt lat="47.54411" lon="6.73485">
        <ele>398</ele>
        <time>2015-10-11T08:46:23.000Z</time>
      </trkpt>
      <trkpt lat="47.54413" lon="6.73479">
        <ele>398</ele>
        <time>2015-10-11T08:46:31.000Z</time>
      </trkpt>
      <trkpt lat="47.54413" lon="6.73477">
        <ele>398</ele>
        <time>2015-10-11T08:46:32.000Z</time>
      </trkpt>
      <trkpt lat="47.54414" lon="6.73472">
        <ele>398</ele>
        <time>2015-10-11T08:46:34.000Z</time>
      </trkpt>
      <trkpt lat="47.54414" lon="6.7347">
        <ele>398</ele>
        <time>2015-10-11T08:46:35.000Z</time>
      </trkpt>
      <trkpt lat="47.54415" lon="6.73465">
        <ele>397</ele>
        <time>2015-10-11T08:46:37.000Z</time>
      </trkpt>
      <trkpt lat="47.54416" lon="6.73462">
        <ele>397</ele>
        <time>2015-10-11T08:46:38.000Z</time>
      </trkpt>
      <trkpt lat="47.54416" lon="6.73456">
        <ele>397</ele>
        <time>2015-10-11T08:46:40.000Z</time>
      </trkpt>
      <trkpt lat="47.54417" lon="6.73453">
        <ele>397</ele>
        <time>2015-10-11T08:46:41.000Z</time>
      </trkpt>
      <trkpt lat="47.54417" lon="6.7345">
        <ele>403</ele>
        <time>2015-10-11T08:46:42.000Z</time>
      </trkpt>
      <trkpt lat="47.54418" lon="6.73447">
        <ele>402</ele>
        <time>2015-10-11T08:46:43.000Z</time>
      </trkpt>
      <trkpt lat="47.54419" lon="6.73443">
        <ele>402</ele>
        <time>2015-10-11T08:46:44.000Z</time>
      </trkpt>
      <trkpt lat="47.54421" lon="6.7344">
        <ele>402</ele>
        <time>2015-10-11T08:46:45.000Z</time>
      </trkpt>
      <trkpt lat="47.54422" lon="6.73436">
        <ele>402</ele>
        <time>2015-10-11T08:46:46.000Z</time>
      </trkpt>
      <trkpt lat="47.54422" lon="6.73431">
        <ele>402</ele>
        <time>2015-10-11T08:46:47.000Z</time>
      </trkpt>
      <trkpt lat="47.54423" lon="6.73426">
        <ele>401</ele>
        <time>2015-10-11T08:46:48.000Z</time>
      </trkpt>
      <trkpt lat="47.54424" lon="6.73421">
        <ele>401</ele>
        <time>2015-10-11T08:46:49.000Z</time>
      </trkpt>
      <trkpt lat="47.54425" lon="6.73415">
        <ele>400</ele>
        <time>2015-10-11T08:46:50.000Z</time>
      </trkpt>
      <trkpt lat="47.54427" lon="6.7341">
        <ele>400</ele>
        <time>2015-10-11T08:46:51.000Z</time>
      </trkpt>
      <trkpt lat="47.54428" lon="6.73405">
        <ele>401</ele>
        <time>2015-10-11T08:46:52.000Z</time>
      </trkpt>
      <trkpt lat="47.54429" lon="6.73401">
        <ele>401</ele>
        <time>2015-10-11T08:46:53.000Z</time>
      </trkpt>
      <trkpt lat="47.5443" lon="6.73396">
        <ele>401</ele>
        <time>2015-10-11T08:46:54.000Z</time>
      </trkpt>
      <trkpt lat="47.54431" lon="6.73393">
        <ele>401</ele>
        <time>2015-10-11T08:46:55.000Z</time>
      </trkpt>
      <trkpt lat="47.54431" lon="6.73389">
        <ele>401</ele>
        <time>2015-10-11T08:46:56.000Z</time>
      </trkpt>
      <trkpt lat="47.54431" lon="6.73385">
        <ele>401</ele>
        <time>2015-10-11T08:46:57.000Z</time>
      </trkpt>
      <trkpt lat="47.54431" lon="6.73382">
        <ele>401</ele>
        <time>2015-10-11T08:46:58.000Z</time>
      </trkpt>
      <trkpt lat="47.54431" lon="6.73378">
        <ele>401</ele>
        <time>2015-10-11T08:46:59.000Z</time>
      </trkpt>
      <trkpt lat="47.54431" lon="6.73374">
        <ele>401</ele>
        <time>2015-10-11T08:47:00.000Z</time>
      </trkpt>
      <trkpt lat="47.54431" lon="6.73369">
        <ele>401</ele>
        <time>2015-10-11T08:47:01.000Z</time>
      </trkpt>
      <trkpt lat="47.54431" lon="6.73364">
        <ele>401</ele>
        <time>2015-10-11T08:47:02.000Z</time>
      </trkpt>
      <trkpt lat="47.54431" lon="6.73359">
        <ele>401</ele>
        <time>2015-10-11T08:47:03.000Z</time>
      </trkpt>
      <trkpt lat="47.54432" lon="6.73353">
        <ele>400</ele>
        <time>2015-10-11T08:47:04.000Z</time>
      </trkpt>
      <trkpt lat="47.54433" lon="6.73346">
        <ele>400</ele>
        <time>2015-10-11T08:47:05.000Z</time>
      </trkpt>
      <trkpt lat="47.54434" lon="6.7334">
        <ele>400</ele>
        <time>2015-10-11T08:47:06.000Z</time>
      </trkpt>
      <trkpt lat="47.54435" lon="6.73333">
        <ele>400</ele>
        <time>2015-10-11T08:47:07.000Z</time>
      </trkpt>
      <trkpt lat="47.54435" lon="6.73327">
        <ele>400</ele>
        <time>2015-10-11T08:47:08.000Z</time>
      </trkpt>
      <trkpt lat="47.54435" lon="6.73321">
        <ele>401</ele>
        <time>2015-10-11T08:47:09.000Z</time>
      </trkpt>
      <trkpt lat="47.54435" lon="6.73315">
        <ele>401</ele>
        <time>2015-10-11T08:47:10.000Z</time>
      </trkpt>
      <trkpt lat="47.54436" lon="6.7331">
        <ele>401</ele>
        <time>2015-10-11T08:47:11.000Z</time>
      </trkpt>
      <trkpt lat="47.54435" lon="6.73305">
        <ele>402</ele>
        <time>2015-10-11T08:47:12.000Z</time>
      </trkpt>
      <trkpt lat="47.54436" lon="6.733">
        <ele>402</ele>
        <time>2015-10-11T08:47:13.000Z</time>
      </trkpt>
      <trkpt lat="47.54436" lon="6.73296">
        <ele>402</ele>
        <time>2015-10-11T08:47:14.000Z</time>
      </trkpt>
      <trkpt lat="47.54436" lon="6.73292">
        <ele>402</ele>
        <time>2015-10-11T08:47:15.000Z</time>
      </trkpt>
      <trkpt lat="47.54437" lon="6.73289">
        <ele>402</ele>
        <time>2015-10-11T08:47:16.000Z</time>
      </trkpt>
      <trkpt lat="47.54438" lon="6.73286">
        <ele>402</ele>
        <time>2015-10-11T08:47:17.000Z</time>
      </trkpt>
      <trkpt lat="47.54439" lon="6.73283">
        <ele>403</ele>
        <time>2015-10-11T08:47:18.000Z</time>
      </trkpt>
      <trkpt lat="47.54441" lon="6.7328">
        <ele>403</ele>
        <time>2015-10-11T08:47:19.000Z</time>
      </trkpt>
      <trkpt lat="47.54443" lon="6.73275">
        <ele>403</ele>
        <time>2015-10-11T08:47:21.000Z</time>
      </trkpt>
      <trkpt lat="47.54444" lon="6.73272">
        <ele>403</ele>
        <time>2015-10-11T08:47:22.000Z</time>
      </trkpt>
      <trkpt lat="47.54445" lon="6.73268">
        <ele>403</ele>
        <time>2015-10-11T08:47:23.000Z</time>
      </trkpt>
      <trkpt lat="47.54445" lon="6.73265">
        <ele>403</ele>
        <time>2015-10-11T08:47:24.000Z</time>
      </trkpt>
      <trkpt lat="47.54446" lon="6.73258">
        <ele>403</ele>
        <time>2015-10-11T08:47:26.000Z</time>
      </trkpt>
      <trkpt lat="47.54446" lon="6.73255">
        <ele>403</ele>
        <time>2015-10-11T08:47:27.000Z</time>
      </trkpt>
      <trkpt lat="47.54447" lon="6.73249">
        <ele>407</ele>
        <time>2015-10-11T08:47:29.000Z</time>
      </trkpt>
      <trkpt lat="47.54447" lon="6.73247">
        <ele>407</ele>
        <time>2015-10-11T08:47:30.000Z</time>
      </trkpt>
      <trkpt lat="47.54449" lon="6.73241">
        <ele>407</ele>
        <time>2015-10-11T08:47:33.000Z</time>
      </trkpt>
      <trkpt lat="47.54449" lon="6.73239">
        <ele>407</ele>
        <time>2015-10-11T08:47:34.000Z</time>
      </trkpt>
      <trkpt lat="47.54449" lon="6.73232">
        <ele>407</ele>
        <time>2015-10-11T08:47:37.000Z</time>
      </trkpt>
      <trkpt lat="47.54449" lon="6.7323">
        <ele>407</ele>
        <time>2015-10-11T08:47:38.000Z</time>
      </trkpt>
      <trkpt lat="47.5445" lon="6.73224">
        <ele>408</ele>
        <time>2015-10-11T08:47:40.000Z</time>
      </trkpt>
      <trkpt lat="47.5445" lon="6.73221">
        <ele>408</ele>
        <time>2015-10-11T08:47:41.000Z</time>
      </trkpt>
      <trkpt lat="47.5445" lon="6.73215">
        <ele>408</ele>
        <time>2015-10-11T08:47:43.000Z</time>
      </trkpt>
      <trkpt lat="47.54449" lon="6.73212">
        <ele>408</ele>
        <time>2015-10-11T08:47:44.000Z</time>
      </trkpt>
      <trkpt lat="47.54448" lon="6.73205">
        <ele>409</ele>
        <time>2015-10-11T08:47:46.000Z</time>
      </trkpt>
      <trkpt lat="47.54448" lon="6.73202">
        <ele>409</ele>
        <time>2015-10-11T08:47:47.000Z</time>
      </trkpt>
      <trkpt lat="47.54448" lon="6.73197">
        <ele>409</ele>
        <time>2015-10-11T08:47:49.000Z</time>
      </trkpt>
      <trkpt lat="47.54448" lon="6.73194">
        <ele>409</ele>
        <time>2015-10-11T08:47:50.000Z</time>
      </trkpt>
      <trkpt lat="47.54447" lon="6.73188">
        <ele>409</ele>
        <time>2015-10-11T08:47:52.000Z</time>
      </trkpt>
      <trkpt lat="47.54447" lon="6.73184">
        <ele>409</ele>
        <time>2015-10-11T08:47:53.000Z</time>
      </trkpt>
      <trkpt lat="47.54446" lon="6.7318">
        <ele>409</ele>
        <time>2015-10-11T08:47:54.000Z</time>
      </trkpt>
      <trkpt lat="47.54445" lon="6.73177">
        <ele>409</ele>
        <time>2015-10-11T08:47:55.000Z</time>
      </trkpt>
      <trkpt lat="47.54444" lon="6.73174">
        <ele>409</ele>
        <time>2015-10-11T08:47:56.000Z</time>
      </trkpt>
      <trkpt lat="47.54443" lon="6.73171">
        <ele>409</ele>
        <time>2015-10-11T08:47:57.000Z</time>
      </trkpt>
      <trkpt lat="47.54442" lon="6.73166">
        <ele>411</ele>
        <time>2015-10-11T08:47:59.000Z</time>
      </trkpt>
      <trkpt lat="47.54441" lon="6.73163">
        <ele>411</ele>
        <time>2015-10-11T08:48:00.000Z</time>
      </trkpt>
      <trkpt lat="47.5444" lon="6.7316">
        <ele>411</ele>
        <time>2015-10-11T08:48:01.000Z</time>
      </trkpt>
      <trkpt lat="47.5444" lon="6.73156">
        <ele>411</ele>
        <time>2015-10-11T08:48:02.000Z</time>
      </trkpt>
      <trkpt lat="47.5444" lon="6.73152">
        <ele>411</ele>
        <time>2015-10-11T08:48:03.000Z</time>
      </trkpt>
      <trkpt lat="47.54439" lon="6.73148">
        <ele>412</ele>
        <time>2015-10-11T08:48:04.000Z</time>
      </trkpt>
      <trkpt lat="47.54438" lon="6.73144">
        <ele>412</ele>
        <time>2015-10-11T08:48:05.000Z</time>
      </trkpt>
      <trkpt lat="47.54438" lon="6.7314">
        <ele>412</ele>
        <time>2015-10-11T08:48:06.000Z</time>
      </trkpt>
      <trkpt lat="47.54437" lon="6.73137">
        <ele>412</ele>
        <time>2015-10-11T08:48:07.000Z</time>
      </trkpt>
      <trkpt lat="47.54436" lon="6.73133">
        <ele>412</ele>
        <time>2015-10-11T08:48:08.000Z</time>
      </trkpt>
      <trkpt lat="47.54436" lon="6.73127">
        <ele>412</ele>
        <time>2015-10-11T08:48:10.000Z</time>
      </trkpt>
      <trkpt lat="47.54436" lon="6.73124">
        <ele>412</ele>
        <time>2015-10-11T08:48:11.000Z</time>
      </trkpt>
      <trkpt lat="47.54435" lon="6.73119">
        <ele>412</ele>
        <time>2015-10-11T08:48:14.000Z</time>
      </trkpt>
      <trkpt lat="47.54434" lon="6.73118">
        <ele>412</ele>
        <time>2015-10-11T08:48:15.000Z</time>
      </trkpt>
      <trkpt lat="47.5443" lon="6.73114">
        <ele>412</ele>
        <time>2015-10-11T08:48:32.000Z</time>
      </trkpt>
      <trkpt lat="47.54429" lon="6.73114">
        <ele>412</ele>
        <time>2015-10-11T08:48:33.000Z</time>
      </trkpt>
      <trkpt lat="47.54426" lon="6.73115">
        <ele>412</ele>
        <time>2015-10-11T08:48:35.000Z</time>
      </trkpt>
      <trkpt lat="47.54425" lon="6.73115">
        <ele>412</ele>
        <time>2015-10-11T08:48:36.000Z</time>
      </trkpt>
      <trkpt lat="47.54421" lon="6.73114">
        <ele>412</ele>
        <time>2015-10-11T08:48:39.000Z</time>
      </trkpt>
      <trkpt lat="47.5442" lon="6.73113">
        <ele>412</ele>
        <time>2015-10-11T08:48:40.000Z</time>
      </trkpt>
      <trkpt lat="47.54416" lon="6.7311">
        <ele>408</ele>
        <time>2015-10-11T08:48:46.000Z</time>
      </trkpt>
      <trkpt lat="47.54414" lon="6.73109">
        <ele>408</ele>
        <time>2015-10-11T08:48:47.000Z</time>
      </trkpt>
      <trkpt lat="47.54412" lon="6.73109">
        <ele>408</ele>
        <time>2015-10-11T08:48:48.000Z</time>
      </trkpt>
      <trkpt lat="47.54409" lon="6.73108">
        <ele>408</ele>
        <time>2015-10-11T08:48:49.000Z</time>
      </trkpt>
      <trkpt lat="47.54405" lon="6.73108">
        <ele>407</ele>
        <time>2015-10-11T08:48:50.000Z</time>
      </trkpt>
      <trkpt lat="47.54401" lon="6.73107">
        <ele>407</ele>
        <time>2015-10-11T08:48:51.000Z</time>
      </trkpt>
      <trkpt lat="47.54396" lon="6.73105">
        <ele>407</ele>
        <time>2015-10-11T08:48:52.000Z</time>
      </trkpt>
      <trkpt lat="47.54388" lon="6.731">
        <ele>407</ele>
        <time>2015-10-11T08:48:53.000Z</time>
      </trkpt>
      <trkpt lat="47.54382" lon="6.73099">
        <ele>407</ele>
        <time>2015-10-11T08:48:54.000Z</time>
      </trkpt>
      <trkpt lat="47.54376" lon="6.73099">
        <ele>406</ele>
        <time>2015-10-11T08:48:55.000Z</time>
      </trkpt>
      <trkpt lat="47.54371" lon="6.73096">
        <ele>406</ele>
        <time>2015-10-11T08:48:56.000Z</time>
      </trkpt>
      <trkpt lat="47.54365" lon="6.73092">
        <ele>406</ele>
        <time>2015-10-11T08:48:57.000Z</time>
      </trkpt>
      <trkpt lat="47.54358" lon="6.7309">
        <ele>405</ele>
        <time>2015-10-11T08:48:58.000Z</time>
      </trkpt>
      <trkpt lat="47.54351" lon="6.73088">
        <ele>405</ele>
        <time>2015-10-11T08:48:59.000Z</time>
      </trkpt>
      <trkpt lat="47.54345" lon="6.73086">
        <ele>405</ele>
        <time>2015-10-11T08:49:00.000Z</time>
      </trkpt>
      <trkpt lat="47.54339" lon="6.73083">
        <ele>404</ele>
        <time>2015-10-11T08:49:01.000Z</time>
      </trkpt>
      <trkpt lat="47.54332" lon="6.73082">
        <ele>404</ele>
        <time>2015-10-11T08:49:02.000Z</time>
      </trkpt>
      <trkpt lat="47.54325" lon="6.7308">
        <ele>403</ele>
        <time>2015-10-11T08:49:03.000Z</time>
      </trkpt>
      <trkpt lat="47.54319" lon="6.73078">
        <ele>402</ele>
        <time>2015-10-11T08:49:04.000Z</time>
      </trkpt>
      <trkpt lat="47.54313" lon="6.73076">
        <ele>402</ele>
        <time>2015-10-11T08:49:05.000Z</time>
      </trkpt>
      <trkpt lat="47.54306" lon="6.73073">
        <ele>401</ele>
        <time>2015-10-11T08:49:06.000Z</time>
      </trkpt>
      <trkpt lat="47.54299" lon="6.7307">
        <ele>401</ele>
        <time>2015-10-11T08:49:07.000Z</time>
      </trkpt>
      <trkpt lat="47.54291" lon="6.73067">
        <ele>401</ele>
        <time>2015-10-11T08:49:08.000Z</time>
      </trkpt>
      <trkpt lat="47.54284" lon="6.73065">
        <ele>400</ele>
        <time>2015-10-11T08:49:09.000Z</time>
      </trkpt>
      <trkpt lat="47.54277" lon="6.73063">
        <ele>400</ele>
        <time>2015-10-11T08:49:10.000Z</time>
      </trkpt>
      <trkpt lat="47.5427" lon="6.73059">
        <ele>400</ele>
        <time>2015-10-11T08:49:11.000Z</time>
      </trkpt>
      <trkpt lat="47.54263" lon="6.73058">
        <ele>400</ele>
        <time>2015-10-11T08:49:12.000Z</time>
      </trkpt>
      <trkpt lat="47.54256" lon="6.73057">
        <ele>400</ele>
        <time>2015-10-11T08:49:13.000Z</time>
      </trkpt>
      <trkpt lat="47.5425" lon="6.73055">
        <ele>398</ele>
        <time>2015-10-11T08:49:14.000Z</time>
      </trkpt>
      <trkpt lat="47.54244" lon="6.73054">
        <ele>398</ele>
        <time>2015-10-11T08:49:15.000Z</time>
      </trkpt>
      <trkpt lat="47.54236" lon="6.73054">
        <ele>397</ele>
        <time>2015-10-11T08:49:16.000Z</time>
      </trkpt>
      <trkpt lat="47.54229" lon="6.7305">
        <ele>397</ele>
        <time>2015-10-11T08:49:17.000Z</time>
      </trkpt>
      <trkpt lat="47.54222" lon="6.73048">
        <ele>397</ele>
        <time>2015-10-11T08:49:18.000Z</time>
      </trkpt>
      <trkpt lat="47.54215" lon="6.73046">
        <ele>397</ele>
        <time>2015-10-11T08:49:19.000Z</time>
      </trkpt>
      <trkpt lat="47.54209" lon="6.73045">
        <ele>397</ele>
        <time>2015-10-11T08:49:20.000Z</time>
      </trkpt>
      <trkpt lat="47.54202" lon="6.73043">
        <ele>397</ele>
        <time>2015-10-11T08:49:21.000Z</time>
      </trkpt>
      <trkpt lat="47.54195" lon="6.7304">
        <ele>397</ele>
        <time>2015-10-11T08:49:22.000Z</time>
      </trkpt>
      <trkpt lat="47.54189" lon="6.73038">
        <ele>397</ele>
        <time>2015-10-11T08:49:23.000Z</time>
      </trkpt>
      <trkpt lat="47.54182" lon="6.73037">
        <ele>396</ele>
        <time>2015-10-11T08:49:24.000Z</time>
      </trkpt>
      <trkpt lat="47.54176" lon="6.73036">
        <ele>396</ele>
        <time>2015-10-11T08:49:25.000Z</time>
      </trkpt>
      <trkpt lat="47.5417" lon="6.73035">
        <ele>396</ele>
        <time>2015-10-11T08:49:26.000Z</time>
      </trkpt>
      <trkpt lat="47.54164" lon="6.73032">
        <ele>393</ele>
        <time>2015-10-11T08:49:27.000Z</time>
      </trkpt>
      <trkpt lat="47.54158" lon="6.73026">
        <ele>393</ele>
        <time>2015-10-11T08:49:28.000Z</time>
      </trkpt>
      <trkpt lat="47.54153" lon="6.73021">
        <ele>393</ele>
        <time>2015-10-11T08:49:29.000Z</time>
      </trkpt>
      <trkpt lat="47.54148" lon="6.73017">
        <ele>393</ele>
        <time>2015-10-11T08:49:30.000Z</time>
      </trkpt>
      <trkpt lat="47.54143" lon="6.73014">
        <ele>392</ele>
        <time>2015-10-11T08:49:31.000Z</time>
      </trkpt>
      <trkpt lat="47.54137" lon="6.73009">
        <ele>392</ele>
        <time>2015-10-11T08:49:32.000Z</time>
      </trkpt>
      <trkpt lat="47.54132" lon="6.73005">
        <ele>392</ele>
        <time>2015-10-11T08:49:33.000Z</time>
      </trkpt>
      <trkpt lat="47.54126" lon="6.73001">
        <ele>391</ele>
        <time>2015-10-11T08:49:34.000Z</time>
      </trkpt>
      <trkpt lat="47.5412" lon="6.72997">
        <ele>391</ele>
        <time>2015-10-11T08:49:35.000Z</time>
      </trkpt>
      <trkpt lat="47.54113" lon="6.72995">
        <ele>390</ele>
        <time>2015-10-11T08:49:36.000Z</time>
      </trkpt>
      <trkpt lat="47.54108" lon="6.72989">
        <ele>390</ele>
        <time>2015-10-11T08:49:37.000Z</time>
      </trkpt>
      <trkpt lat="47.54103" lon="6.72984">
        <ele>390</ele>
        <time>2015-10-11T08:49:38.000Z</time>
      </trkpt>
      <trkpt lat="47.54098" lon="6.7298">
        <ele>390</ele>
        <time>2015-10-11T08:49:39.000Z</time>
      </trkpt>
      <trkpt lat="47.54093" lon="6.72974">
        <ele>390</ele>
        <time>2015-10-11T08:49:40.000Z</time>
      </trkpt>
      <trkpt lat="47.54088" lon="6.72968">
        <ele>390</ele>
        <time>2015-10-11T08:49:41.000Z</time>
      </trkpt>
      <trkpt lat="47.54084" lon="6.72961">
        <ele>390</ele>
        <time>2015-10-11T08:49:42.000Z</time>
      </trkpt>
      <trkpt lat="47.54077" lon="6.72954">
        <ele>386</ele>
        <time>2015-10-11T08:49:43.000Z</time>
      </trkpt>
      <trkpt lat="47.54071" lon="6.72947">
        <ele>386</ele>
        <time>2015-10-11T08:49:44.000Z</time>
      </trkpt>
      <trkpt lat="47.54066" lon="6.72935">
        <ele>387</ele>
        <time>2015-10-11T08:49:45.000Z</time>
      </trkpt>
      <trkpt lat="47.54062" lon="6.72929">
        <ele>387</ele>
        <time>2015-10-11T08:49:46.000Z</time>
      </trkpt>
      <trkpt lat="47.54055" lon="6.72924">
        <ele>386</ele>
        <time>2015-10-11T08:49:47.000Z</time>
      </trkpt>
      <trkpt lat="47.54049" lon="6.72916">
        <ele>386</ele>
        <time>2015-10-11T08:49:48.000Z</time>
      </trkpt>
      <trkpt lat="47.54045" lon="6.72912">
        <ele>386</ele>
        <time>2015-10-11T08:49:49.000Z</time>
      </trkpt>
      <trkpt lat="47.5404" lon="6.72904">
        <ele>385</ele>
        <time>2015-10-11T08:49:50.000Z</time>
      </trkpt>
      <trkpt lat="47.54036" lon="6.72898">
        <ele>385</ele>
        <time>2015-10-11T08:49:51.000Z</time>
      </trkpt>
      <trkpt lat="47.54031" lon="6.72892">
        <ele>385</ele>
        <time>2015-10-11T08:49:52.000Z</time>
      </trkpt>
      <trkpt lat="47.54027" lon="6.72886">
        <ele>385</ele>
        <time>2015-10-11T08:49:53.000Z</time>
      </trkpt>
      <trkpt lat="47.54022" lon="6.72878">
        <ele>385</ele>
        <time>2015-10-11T08:49:54.000Z</time>
      </trkpt>
      <trkpt lat="47.5402" lon="6.7287">
        <ele>385</ele>
        <time>2015-10-11T08:49:55.000Z</time>
      </trkpt>
      <trkpt lat="47.54017" lon="6.72861">
        <ele>385</ele>
        <time>2015-10-11T08:49:56.000Z</time>
      </trkpt>
      <trkpt lat="47.54015" lon="6.72853">
        <ele>384</ele>
        <time>2015-10-11T08:49:57.000Z</time>
      </trkpt>
      <trkpt lat="47.54013" lon="6.72845">
        <ele>384</ele>
        <time>2015-10-11T08:49:58.000Z</time>
      </trkpt>
      <trkpt lat="47.5401" lon="6.72836">
        <ele>384</ele>
        <time>2015-10-11T08:49:59.000Z</time>
      </trkpt>
      <trkpt lat="47.54008" lon="6.72828">
        <ele>383</ele>
        <time>2015-10-11T08:50:00.000Z</time>
      </trkpt>
      <trkpt lat="47.54007" lon="6.7282">
        <ele>382</ele>
        <time>2015-10-11T08:50:01.000Z</time>
      </trkpt>
      <trkpt lat="47.54005" lon="6.72813">
        <ele>382</ele>
        <time>2015-10-11T08:50:02.000Z</time>
      </trkpt>
      <trkpt lat="47.54003" lon="6.72806">
        <ele>382</ele>
        <time>2015-10-11T08:50:03.000Z</time>
      </trkpt>
      <trkpt lat="47.54" lon="6.728">
        <ele>381</ele>
        <time>2015-10-11T08:50:04.000Z</time>
      </trkpt>
      <trkpt lat="47.53996" lon="6.72796">
        <ele>381</ele>
        <time>2015-10-11T08:50:05.000Z</time>
      </trkpt>
      <trkpt lat="47.53992" lon="6.72792">
        <ele>380</ele>
        <time>2015-10-11T08:50:06.000Z</time>
      </trkpt>
      <trkpt lat="47.53989" lon="6.72788">
        <ele>380</ele>
        <time>2015-10-11T08:50:07.000Z</time>
      </trkpt>
      <trkpt lat="47.53984" lon="6.72785">
        <ele>380</ele>
        <time>2015-10-11T08:50:08.000Z</time>
      </trkpt>
      <trkpt lat="47.5398" lon="6.72782">
        <ele>380</ele>
        <time>2015-10-11T08:50:09.000Z</time>
      </trkpt>
      <trkpt lat="47.53976" lon="6.7278">
        <ele>380</ele>
        <time>2015-10-11T08:50:10.000Z</time>
      </trkpt>
      <trkpt lat="47.53972" lon="6.72776">
        <ele>380</ele>
        <time>2015-10-11T08:50:11.000Z</time>
      </trkpt>
      <trkpt lat="47.53967" lon="6.72774">
        <ele>380</ele>
        <time>2015-10-11T08:50:12.000Z</time>
      </trkpt>
      <trkpt lat="47.53961" lon="6.72771">
        <ele>380</ele>
        <time>2015-10-11T08:50:13.000Z</time>
      </trkpt>
      <trkpt lat="47.53954" lon="6.72769">
        <ele>380</ele>
        <time>2015-10-11T08:50:14.000Z</time>
      </trkpt>
      <trkpt lat="47.53944" lon="6.72768">
        <ele>380</ele>
        <time>2015-10-11T08:50:15.000Z</time>
      </trkpt>
      <trkpt lat="47.53937" lon="6.72764">
        <ele>379</ele>
        <time>2015-10-11T08:50:16.000Z</time>
      </trkpt>
      <trkpt lat="47.53929" lon="6.72758">
        <ele>379</ele>
        <time>2015-10-11T08:50:17.000Z</time>
      </trkpt>
      <trkpt lat="47.53922" lon="6.72752">
        <ele>378</ele>
        <time>2015-10-11T08:50:18.000Z</time>
      </trkpt>
      <trkpt lat="47.53916" lon="6.72745">
        <ele>377</ele>
        <time>2015-10-11T08:50:19.000Z</time>
      </trkpt>
      <trkpt lat="47.5391" lon="6.7274">
        <ele>374</ele>
        <time>2015-10-11T08:50:20.000Z</time>
      </trkpt>
      <trkpt lat="47.53902" lon="6.72737">
        <ele>373</ele>
        <time>2015-10-11T08:50:21.000Z</time>
      </trkpt>
      <trkpt lat="47.53895" lon="6.72733">
        <ele>372</ele>
        <time>2015-10-11T08:50:22.000Z</time>
      </trkpt>
      <trkpt lat="47.53888" lon="6.72731">
        <ele>371</ele>
        <time>2015-10-11T08:50:23.000Z</time>
      </trkpt>
      <trkpt lat="47.53881" lon="6.72729">
        <ele>371</ele>
        <time>2015-10-11T08:50:24.000Z</time>
      </trkpt>
      <trkpt lat="47.53874" lon="6.7273">
        <ele>370</ele>
        <time>2015-10-11T08:50:25.000Z</time>
      </trkpt>
      <trkpt lat="47.53867" lon="6.72731">
        <ele>370</ele>
        <time>2015-10-11T08:50:26.000Z</time>
      </trkpt>
      <trkpt lat="47.53859" lon="6.72732">
        <ele>369</ele>
        <time>2015-10-11T08:50:27.000Z</time>
      </trkpt>
      <trkpt lat="47.53851" lon="6.72732">
        <ele>369</ele>
        <time>2015-10-11T08:50:28.000Z</time>
      </trkpt>
      <trkpt lat="47.53844" lon="6.72733">
        <ele>369</ele>
        <time>2015-10-11T08:50:29.000Z</time>
      </trkpt>
      <trkpt lat="47.53837" lon="6.72733">
        <ele>369</ele>
        <time>2015-10-11T08:50:30.000Z</time>
      </trkpt>
      <trkpt lat="47.5383" lon="6.72733">
        <ele>365</ele>
        <time>2015-10-11T08:50:31.000Z</time>
      </trkpt>
      <trkpt lat="47.53823" lon="6.72734">
        <ele>364</ele>
        <time>2015-10-11T08:50:32.000Z</time>
      </trkpt>
      <trkpt lat="47.53814" lon="6.72733">
        <ele>362</ele>
        <time>2015-10-11T08:50:33.000Z</time>
      </trkpt>
      <trkpt lat="47.53806" lon="6.72735">
        <ele>361</ele>
        <time>2015-10-11T08:50:34.000Z</time>
      </trkpt>
      <trkpt lat="47.53799" lon="6.72741">
        <ele>361</ele>
        <time>2015-10-11T08:50:35.000Z</time>
      </trkpt>
      <trkpt lat="47.53792" lon="6.72744">
        <ele>360</ele>
        <time>2015-10-11T08:50:36.000Z</time>
      </trkpt>
      <trkpt lat="47.53784" lon="6.72747">
        <ele>359</ele>
        <time>2015-10-11T08:50:37.000Z</time>
      </trkpt>
      <trkpt lat="47.53775" lon="6.72747">
        <ele>359</ele>
        <time>2015-10-11T08:50:38.000Z</time>
      </trkpt>
      <trkpt lat="47.53767" lon="6.72745">
        <ele>358</ele>
        <time>2015-10-11T08:50:39.000Z</time>
      </trkpt>
      <trkpt lat="47.53763" lon="6.72736">
        <ele>358</ele>
        <time>2015-10-11T08:50:40.000Z</time>
      </trkpt>
      <trkpt lat="47.53757" lon="6.72728">
        <ele>357</ele>
        <time>2015-10-11T08:50:41.000Z</time>
      </trkpt>
      <trkpt lat="47.53752" lon="6.72724">
        <ele>357</ele>
        <time>2015-10-11T08:50:42.000Z</time>
      </trkpt>
      <trkpt lat="47.53745" lon="6.72721">
        <ele>353</ele>
        <time>2015-10-11T08:50:43.000Z</time>
      </trkpt>
      <trkpt lat="47.53735" lon="6.72725">
        <ele>353</ele>
        <time>2015-10-11T08:50:44.000Z</time>
      </trkpt>
      <trkpt lat="47.53727" lon="6.72727">
        <ele>353</ele>
        <time>2015-10-11T08:50:45.000Z</time>
      </trkpt>
      <trkpt lat="47.53719" lon="6.72729">
        <ele>353</ele>
        <time>2015-10-11T08:50:46.000Z</time>
      </trkpt>
      <trkpt lat="47.53712" lon="6.72731">
        <ele>353</ele>
        <time>2015-10-11T08:50:47.000Z</time>
      </trkpt>
      <trkpt lat="47.53703" lon="6.72731">
        <ele>353</ele>
        <time>2015-10-11T08:50:48.000Z</time>
      </trkpt>
      <trkpt lat="47.53699" lon="6.72731">
        <ele>353</ele>
        <time>2015-10-11T08:50:49.000Z</time>
      </trkpt>
      <trkpt lat="47.53693" lon="6.72732">
        <ele>353</ele>
        <time>2015-10-11T08:50:50.000Z</time>
      </trkpt>
      <trkpt lat="47.53689" lon="6.72731">
        <ele>353</ele>
        <time>2015-10-11T08:50:51.000Z</time>
      </trkpt>
      <trkpt lat="47.53685" lon="6.72731">
        <ele>353</ele>
        <time>2015-10-11T08:50:52.000Z</time>
      </trkpt>
      <trkpt lat="47.53682" lon="6.72729">
        <ele>353</ele>
        <time>2015-10-11T08:50:54.000Z</time>
      </trkpt>
      <trkpt lat="47.5368" lon="6.72729">
        <ele>353</ele>
        <time>2015-10-11T08:50:55.000Z</time>
      </trkpt>
      <trkpt lat="47.53677" lon="6.72728">
        <ele>353</ele>
        <time>2015-10-11T08:50:56.000Z</time>
      </trkpt>
      <trkpt lat="47.53675" lon="6.72726">
        <ele>353</ele>
        <time>2015-10-11T08:50:57.000Z</time>
      </trkpt>
      <trkpt lat="47.53672" lon="6.72724">
        <ele>353</ele>
        <time>2015-10-11T08:50:58.000Z</time>
      </trkpt>
      <trkpt lat="47.53669" lon="6.72723">
        <ele>353</ele>
        <time>2015-10-11T08:50:59.000Z</time>
      </trkpt>
      <trkpt lat="47.53667" lon="6.72721">
        <ele>353</ele>
        <time>2015-10-11T08:51:00.000Z</time>
      </trkpt>
      <trkpt lat="47.53664" lon="6.7272">
        <ele>353</ele>
        <time>2015-10-11T08:51:01.000Z</time>
      </trkpt>
      <trkpt lat="47.53661" lon="6.72718">
        <ele>353</ele>
        <time>2015-10-11T08:51:02.000Z</time>
      </trkpt>
      <trkpt lat="47.53659" lon="6.72717">
        <ele>353</ele>
        <time>2015-10-11T08:51:03.000Z</time>
      </trkpt>
      <trkpt lat="47.53656" lon="6.72715">
        <ele>353</ele>
        <time>2015-10-11T08:51:04.000Z</time>
      </trkpt>
      <trkpt lat="47.53653" lon="6.72713">
        <ele>353</ele>
        <time>2015-10-11T08:51:05.000Z</time>
      </trkpt>
      <trkpt lat="47.5365" lon="6.72712">
        <ele>353</ele>
        <time>2015-10-11T08:51:06.000Z</time>
      </trkpt>
      <trkpt lat="47.53647" lon="6.72711">
        <ele>353</ele>
        <time>2015-10-11T08:51:07.000Z</time>
      </trkpt>
      <trkpt lat="47.53643" lon="6.72711">
        <ele>353</ele>
        <time>2015-10-11T08:51:08.000Z</time>
      </trkpt>
      <trkpt lat="47.5364" lon="6.7271">
        <ele>353</ele>
        <time>2015-10-11T08:51:09.000Z</time>
      </trkpt>
      <trkpt lat="47.53637" lon="6.7271">
        <ele>353</ele>
        <time>2015-10-11T08:51:10.000Z</time>
      </trkpt>
      <trkpt lat="47.53633" lon="6.72709">
        <ele>353</ele>
        <time>2015-10-11T08:51:11.000Z</time>
      </trkpt>
      <trkpt lat="47.53629" lon="6.72709">
        <ele>353</ele>
        <time>2015-10-11T08:51:12.000Z</time>
      </trkpt>
      <trkpt lat="47.53624" lon="6.72709">
        <ele>353</ele>
        <time>2015-10-11T08:51:13.000Z</time>
      </trkpt>
      <trkpt lat="47.5362" lon="6.72709">
        <ele>353</ele>
        <time>2015-10-11T08:51:14.000Z</time>
      </trkpt>
      <trkpt lat="47.53615" lon="6.7271">
        <ele>353</ele>
        <time>2015-10-11T08:51:15.000Z</time>
      </trkpt>
      <trkpt lat="47.53607" lon="6.72711">
        <ele>353</ele>
        <time>2015-10-11T08:51:16.000Z</time>
      </trkpt>
      <trkpt lat="47.536" lon="6.72708">
        <ele>353</ele>
        <time>2015-10-11T08:51:17.000Z</time>
      </trkpt>
      <trkpt lat="47.53593" lon="6.72705">
        <ele>353</ele>
        <time>2015-10-11T08:51:18.000Z</time>
      </trkpt>
      <trkpt lat="47.53588" lon="6.72703">
        <ele>353</ele>
        <time>2015-10-11T08:51:19.000Z</time>
      </trkpt>
      <trkpt lat="47.53581" lon="6.72703">
        <ele>352</ele>
        <time>2015-10-11T08:51:20.000Z</time>
      </trkpt>
      <trkpt lat="47.53574" lon="6.72701">
        <ele>352</ele>
        <time>2015-10-11T08:51:21.000Z</time>
      </trkpt>
      <trkpt lat="47.53568" lon="6.727">
        <ele>352</ele>
        <time>2015-10-11T08:51:22.000Z</time>
      </trkpt>
      <trkpt lat="47.53563" lon="6.72698">
        <ele>351</ele>
        <time>2015-10-11T08:51:23.000Z</time>
      </trkpt>
      <trkpt lat="47.53559" lon="6.72698">
        <ele>351</ele>
        <time>2015-10-11T08:51:24.000Z</time>
      </trkpt>
      <trkpt lat="47.53552" lon="6.72699">
        <ele>351</ele>
        <time>2015-10-11T08:51:25.000Z</time>
      </trkpt>
      <trkpt lat="47.53548" lon="6.727">
        <ele>351</ele>
        <time>2015-10-11T08:51:26.000Z</time>
      </trkpt>
      <trkpt lat="47.53543" lon="6.72699">
        <ele>351</ele>
        <time>2015-10-11T08:51:27.000Z</time>
      </trkpt>
      <trkpt lat="47.53539" lon="6.72696">
        <ele>351</ele>
        <time>2015-10-11T08:51:28.000Z</time>
      </trkpt>
      <trkpt lat="47.53535" lon="6.72693">
        <ele>350</ele>
        <time>2015-10-11T08:51:29.000Z</time>
      </trkpt>
      <trkpt lat="47.53531" lon="6.72691">
        <ele>350</ele>
        <time>2015-10-11T08:51:30.000Z</time>
      </trkpt>
      <trkpt lat="47.53526" lon="6.7269">
        <ele>350</ele>
        <time>2015-10-11T08:51:31.000Z</time>
      </trkpt>
      <trkpt lat="47.53522" lon="6.72689">
        <ele>349</ele>
        <time>2015-10-11T08:51:32.000Z</time>
      </trkpt>
      <trkpt lat="47.53518" lon="6.72688">
        <ele>349</ele>
        <time>2015-10-11T08:51:33.000Z</time>
      </trkpt>
      <trkpt lat="47.53513" lon="6.72688">
        <ele>349</ele>
        <time>2015-10-11T08:51:34.000Z</time>
      </trkpt>
      <trkpt lat="47.53508" lon="6.72687">
        <ele>348</ele>
        <time>2015-10-11T08:51:35.000Z</time>
      </trkpt>
      <trkpt lat="47.53503" lon="6.72685">
        <ele>348</ele>
        <time>2015-10-11T08:51:36.000Z</time>
      </trkpt>
      <trkpt lat="47.53498" lon="6.72683">
        <ele>346</ele>
        <time>2015-10-11T08:51:37.000Z</time>
      </trkpt>
      <trkpt lat="47.53492" lon="6.72681">
        <ele>346</ele>
        <time>2015-10-11T08:51:38.000Z</time>
      </trkpt>
      <trkpt lat="47.53488" lon="6.72677">
        <ele>346</ele>
        <time>2015-10-11T08:51:39.000Z</time>
      </trkpt>
      <trkpt lat="47.53484" lon="6.72671">
        <ele>346</ele>
        <time>2015-10-11T08:51:40.000Z</time>
      </trkpt>
      <trkpt lat="47.53481" lon="6.72665">
        <ele>344</ele>
        <time>2015-10-11T08:51:41.000Z</time>
      </trkpt>
      <trkpt lat="47.5348" lon="6.72656">
        <ele>344</ele>
        <time>2015-10-11T08:51:42.000Z</time>
      </trkpt>
      <trkpt lat="47.53477" lon="6.72649">
        <ele>344</ele>
        <time>2015-10-11T08:51:43.000Z</time>
      </trkpt>
      <trkpt lat="47.53475" lon="6.72641">
        <ele>344</ele>
        <time>2015-10-11T08:51:44.000Z</time>
      </trkpt>
      <trkpt lat="47.53472" lon="6.72634">
        <ele>344</ele>
        <time>2015-10-11T08:51:45.000Z</time>
      </trkpt>
      <trkpt lat="47.5347" lon="6.72628">
        <ele>344</ele>
        <time>2015-10-11T08:51:46.000Z</time>
      </trkpt>
      <trkpt lat="47.53467" lon="6.7262">
        <ele>343</ele>
        <time>2015-10-11T08:51:47.000Z</time>
      </trkpt>
      <trkpt lat="47.53464" lon="6.72613">
        <ele>343</ele>
        <time>2015-10-11T08:51:48.000Z</time>
      </trkpt>
      <trkpt lat="47.53461" lon="6.72606">
        <ele>343</ele>
        <time>2015-10-11T08:51:49.000Z</time>
      </trkpt>
      <trkpt lat="47.53458" lon="6.72598">
        <ele>343</ele>
        <time>2015-10-11T08:51:50.000Z</time>
      </trkpt>
      <trkpt lat="47.53455" lon="6.72591">
        <ele>343</ele>
        <time>2015-10-11T08:51:51.000Z</time>
      </trkpt>
      <trkpt lat="47.53452" lon="6.72584">
        <ele>343</ele>
        <time>2015-10-11T08:51:52.000Z</time>
      </trkpt>
      <trkpt lat="47.53449" lon="6.72577">
        <ele>344</ele>
        <time>2015-10-11T08:51:53.000Z</time>
      </trkpt>
      <trkpt lat="47.53446" lon="6.7257">
        <ele>345</ele>
        <time>2015-10-11T08:51:54.000Z</time>
      </trkpt>
      <trkpt lat="47.53443" lon="6.72564">
        <ele>345</ele>
        <time>2015-10-11T08:51:55.000Z</time>
      </trkpt>
      <trkpt lat="47.5344" lon="6.72556">
        <ele>345</ele>
        <time>2015-10-11T08:51:56.000Z</time>
      </trkpt>
      <trkpt lat="47.53436" lon="6.72549">
        <ele>345</ele>
        <time>2015-10-11T08:51:57.000Z</time>
      </trkpt>
      <trkpt lat="47.53433" lon="6.72542">
        <ele>345</ele>
        <time>2015-10-11T08:51:58.000Z</time>
      </trkpt>
      <trkpt lat="47.53429" lon="6.72535">
        <ele>346</ele>
        <time>2015-10-11T08:51:59.000Z</time>
      </trkpt>
      <trkpt lat="47.53425" lon="6.72529">
        <ele>346</ele>
        <time>2015-10-11T08:52:00.000Z</time>
      </trkpt>
      <trkpt lat="47.53421" lon="6.72524">
        <ele>346</ele>
        <time>2015-10-11T08:52:01.000Z</time>
      </trkpt>
      <trkpt lat="47.53417" lon="6.72519">
        <ele>346</ele>
        <time>2015-10-11T08:52:02.000Z</time>
      </trkpt>
      <trkpt lat="47.53413" lon="6.72515">
        <ele>346</ele>
        <time>2015-10-11T08:52:03.000Z</time>
      </trkpt>
      <trkpt lat="47.5341" lon="6.72512">
        <ele>346</ele>
        <time>2015-10-11T08:52:04.000Z</time>
      </trkpt>
      <trkpt lat="47.53407" lon="6.72509">
        <ele>346</ele>
        <time>2015-10-11T08:52:05.000Z</time>
      </trkpt>
      <trkpt lat="47.53404" lon="6.72507">
        <ele>346</ele>
        <time>2015-10-11T08:52:06.000Z</time>
      </trkpt>
      <trkpt lat="47.53401" lon="6.72505">
        <ele>346</ele>
        <time>2015-10-11T08:52:07.000Z</time>
      </trkpt>
      <trkpt lat="47.53398" lon="6.72503">
        <ele>346</ele>
        <time>2015-10-11T08:52:08.000Z</time>
      </trkpt>
      <trkpt lat="47.53396" lon="6.72502">
        <ele>346</ele>
        <time>2015-10-11T08:52:09.000Z</time>
      </trkpt>
      <trkpt lat="47.53392" lon="6.72501">
        <ele>346</ele>
        <time>2015-10-11T08:52:10.000Z</time>
      </trkpt>
      <trkpt lat="47.53389" lon="6.72501">
        <ele>346</ele>
        <time>2015-10-11T08:52:11.000Z</time>
      </trkpt>
      <trkpt lat="47.53385" lon="6.725">
        <ele>350</ele>
        <time>2015-10-11T08:52:12.000Z</time>
      </trkpt>
      <trkpt lat="47.53381" lon="6.72499">
        <ele>350</ele>
        <time>2015-10-11T08:52:13.000Z</time>
      </trkpt>
      <trkpt lat="47.53377" lon="6.72499">
        <ele>350</ele>
        <time>2015-10-11T08:52:14.000Z</time>
      </trkpt>
      <trkpt lat="47.5337" lon="6.72498">
        <ele>350</ele>
        <time>2015-10-11T08:52:15.000Z</time>
      </trkpt>
      <trkpt lat="47.53366" lon="6.72497">
        <ele>351</ele>
        <time>2015-10-11T08:52:16.000Z</time>
      </trkpt>
      <trkpt lat="47.53362" lon="6.72496">
        <ele>351</ele>
        <time>2015-10-11T08:52:17.000Z</time>
      </trkpt>
      <trkpt lat="47.53358" lon="6.72495">
        <ele>351</ele>
        <time>2015-10-11T08:52:18.000Z</time>
      </trkpt>
      <trkpt lat="47.53355" lon="6.72493">
        <ele>351</ele>
        <time>2015-10-11T08:52:19.000Z</time>
      </trkpt>
      <trkpt lat="47.53351" lon="6.72492">
        <ele>351</ele>
        <time>2015-10-11T08:52:20.000Z</time>
      </trkpt>
      <trkpt lat="47.53347" lon="6.72489">
        <ele>351</ele>
        <time>2015-10-11T08:52:21.000Z</time>
      </trkpt>
      <trkpt lat="47.53342" lon="6.72487">
        <ele>351</ele>
        <time>2015-10-11T08:52:22.000Z</time>
      </trkpt>
      <trkpt lat="47.53339" lon="6.72486">
        <ele>351</ele>
        <time>2015-10-11T08:52:23.000Z</time>
      </trkpt>
      <trkpt lat="47.53335" lon="6.72485">
        <ele>351</ele>
        <time>2015-10-11T08:52:24.000Z</time>
      </trkpt>
      <trkpt lat="47.53331" lon="6.72482">
        <ele>351</ele>
        <time>2015-10-11T08:52:25.000Z</time>
      </trkpt>
      <trkpt lat="47.53328" lon="6.72479">
        <ele>352</ele>
        <time>2015-10-11T08:52:26.000Z</time>
      </trkpt>
      <trkpt lat="47.53325" lon="6.72475">
        <ele>352</ele>
        <time>2015-10-11T08:52:27.000Z</time>
      </trkpt>
      <trkpt lat="47.53323" lon="6.72471">
        <ele>352</ele>
        <time>2015-10-11T08:52:28.000Z</time>
      </trkpt>
      <trkpt lat="47.53321" lon="6.72467">
        <ele>352</ele>
        <time>2015-10-11T08:52:29.000Z</time>
      </trkpt>
      <trkpt lat="47.53319" lon="6.72463">
        <ele>352</ele>
        <time>2015-10-11T08:52:30.000Z</time>
      </trkpt>
      <trkpt lat="47.53318" lon="6.72459">
        <ele>352</ele>
        <time>2015-10-11T08:52:31.000Z</time>
      </trkpt>
      <trkpt lat="47.53317" lon="6.72455">
        <ele>353</ele>
        <time>2015-10-11T08:52:32.000Z</time>
      </trkpt>
      <trkpt lat="47.53317" lon="6.72451">
        <ele>353</ele>
        <time>2015-10-11T08:52:33.000Z</time>
      </trkpt>
      <trkpt lat="47.53317" lon="6.72446">
        <ele>353</ele>
        <time>2015-10-11T08:52:34.000Z</time>
      </trkpt>
      <trkpt lat="47.53317" lon="6.72441">
        <ele>353</ele>
        <time>2015-10-11T08:52:35.000Z</time>
      </trkpt>
      <trkpt lat="47.53317" lon="6.72437">
        <ele>353</ele>
        <time>2015-10-11T08:52:36.000Z</time>
      </trkpt>
      <trkpt lat="47.53318" lon="6.72432">
        <ele>354</ele>
        <time>2015-10-11T08:52:37.000Z</time>
      </trkpt>
      <trkpt lat="47.53319" lon="6.72427">
        <ele>354</ele>
        <time>2015-10-11T08:52:38.000Z</time>
      </trkpt>
      <trkpt lat="47.5332" lon="6.72422">
        <ele>354</ele>
        <time>2015-10-11T08:52:39.000Z</time>
      </trkpt>
      <trkpt lat="47.53321" lon="6.72417">
        <ele>354</ele>
        <time>2015-10-11T08:52:40.000Z</time>
      </trkpt>
      <trkpt lat="47.53322" lon="6.72412">
        <ele>355</ele>
        <time>2015-10-11T08:52:41.000Z</time>
      </trkpt>
      <trkpt lat="47.53322" lon="6.72407">
        <ele>355</ele>
        <time>2015-10-11T08:52:42.000Z</time>
      </trkpt>
      <trkpt lat="47.53323" lon="6.72402">
        <ele>355</ele>
        <time>2015-10-11T08:52:43.000Z</time>
      </trkpt>
      <trkpt lat="47.53323" lon="6.72398">
        <ele>355</ele>
        <time>2015-10-11T08:52:44.000Z</time>
      </trkpt>
      <trkpt lat="47.53324" lon="6.72393">
        <ele>355</ele>
        <time>2015-10-11T08:52:45.000Z</time>
      </trkpt>
      <trkpt lat="47.53324" lon="6.72388">
        <ele>355</ele>
        <time>2015-10-11T08:52:46.000Z</time>
      </trkpt>
      <trkpt lat="47.53324" lon="6.72384">
        <ele>355</ele>
        <time>2015-10-11T08:52:47.000Z</time>
      </trkpt>
      <trkpt lat="47.53324" lon="6.72379">
        <ele>355</ele>
        <time>2015-10-11T08:52:48.000Z</time>
      </trkpt>
      <trkpt lat="47.53324" lon="6.72374">
        <ele>355</ele>
        <time>2015-10-11T08:52:49.000Z</time>
      </trkpt>
      <trkpt lat="47.53324" lon="6.72369">
        <ele>355</ele>
        <time>2015-10-11T08:52:50.000Z</time>
      </trkpt>
      <trkpt lat="47.53323" lon="6.72364">
        <ele>355</ele>
        <time>2015-10-11T08:52:51.000Z</time>
      </trkpt>
      <trkpt lat="47.53322" lon="6.72359">
        <ele>355</ele>
        <time>2015-10-11T08:52:52.000Z</time>
      </trkpt>
      <trkpt lat="47.53322" lon="6.72354">
        <ele>355</ele>
        <time>2015-10-11T08:52:53.000Z</time>
      </trkpt>
      <trkpt lat="47.53321" lon="6.7235">
        <ele>355</ele>
        <time>2015-10-11T08:52:54.000Z</time>
      </trkpt>
      <trkpt lat="47.5332" lon="6.72346">
        <ele>355</ele>
        <time>2015-10-11T08:52:55.000Z</time>
      </trkpt>
      <trkpt lat="47.53319" lon="6.72342">
        <ele>356</ele>
        <time>2015-10-11T08:52:56.000Z</time>
      </trkpt>
      <trkpt lat="47.53317" lon="6.72337">
        <ele>356</ele>
        <time>2015-10-11T08:52:57.000Z</time>
      </trkpt>
      <trkpt lat="47.53316" lon="6.72333">
        <ele>355</ele>
        <time>2015-10-11T08:52:58.000Z</time>
      </trkpt>
      <trkpt lat="47.53316" lon="6.72329">
        <ele>355</ele>
        <time>2015-10-11T08:52:59.000Z</time>
      </trkpt>
      <trkpt lat="47.53315" lon="6.72324">
        <ele>355</ele>
        <time>2015-10-11T08:53:00.000Z</time>
      </trkpt>
      <trkpt lat="47.53314" lon="6.7232">
        <ele>355</ele>
        <time>2015-10-11T08:53:01.000Z</time>
      </trkpt>
      <trkpt lat="47.53314" lon="6.72316">
        <ele>355</ele>
        <time>2015-10-11T08:53:02.000Z</time>
      </trkpt>
      <trkpt lat="47.53313" lon="6.72312">
        <ele>355</ele>
        <time>2015-10-11T08:53:03.000Z</time>
      </trkpt>
      <trkpt lat="47.53313" lon="6.72307">
        <ele>355</ele>
        <time>2015-10-11T08:53:04.000Z</time>
      </trkpt>
      <trkpt lat="47.53313" lon="6.72303">
        <ele>355</ele>
        <time>2015-10-11T08:53:05.000Z</time>
      </trkpt>
      <trkpt lat="47.53313" lon="6.72298">
        <ele>355</ele>
        <time>2015-10-11T08:53:06.000Z</time>
      </trkpt>
      <trkpt lat="47.53314" lon="6.72293">
        <ele>355</ele>
        <time>2015-10-11T08:53:07.000Z</time>
      </trkpt>
      <trkpt lat="47.53314" lon="6.72288">
        <ele>355</ele>
        <time>2015-10-11T08:53:08.000Z</time>
      </trkpt>
      <trkpt lat="47.53315" lon="6.72283">
        <ele>355</ele>
        <time>2015-10-11T08:53:09.000Z</time>
      </trkpt>
      <trkpt lat="47.53316" lon="6.72278">
        <ele>354</ele>
        <time>2015-10-11T08:53:10.000Z</time>
      </trkpt>
      <trkpt lat="47.53316" lon="6.72274">
        <ele>354</ele>
        <time>2015-10-11T08:53:11.000Z</time>
      </trkpt>
      <trkpt lat="47.53317" lon="6.72269">
        <ele>354</ele>
        <time>2015-10-11T08:53:12.000Z</time>
      </trkpt>
      <trkpt lat="47.53318" lon="6.72265">
        <ele>354</ele>
        <time>2015-10-11T08:53:13.000Z</time>
      </trkpt>
      <trkpt lat="47.5332" lon="6.7226">
        <ele>354</ele>
        <time>2015-10-11T08:53:14.000Z</time>
      </trkpt>
      <trkpt lat="47.53321" lon="6.72256">
        <ele>354</ele>
        <time>2015-10-11T08:53:15.000Z</time>
      </trkpt>
      <trkpt lat="47.53323" lon="6.72251">
        <ele>354</ele>
        <time>2015-10-11T08:53:16.000Z</time>
      </trkpt>
      <trkpt lat="47.53325" lon="6.72246">
        <ele>354</ele>
        <time>2015-10-11T08:53:17.000Z</time>
      </trkpt>
      <trkpt lat="47.53327" lon="6.72241">
        <ele>354</ele>
        <time>2015-10-11T08:53:18.000Z</time>
      </trkpt>
      <trkpt lat="47.53329" lon="6.72236">
        <ele>354</ele>
        <time>2015-10-11T08:53:19.000Z</time>
      </trkpt>
      <trkpt lat="47.53331" lon="6.7223">
        <ele>354</ele>
        <time>2015-10-11T08:53:20.000Z</time>
      </trkpt>
      <trkpt lat="47.53334" lon="6.72225">
        <ele>355</ele>
        <time>2015-10-11T08:53:21.000Z</time>
      </trkpt>
      <trkpt lat="47.53336" lon="6.7222">
        <ele>355</ele>
        <time>2015-10-11T08:53:22.000Z</time>
      </trkpt>
      <trkpt lat="47.53337" lon="6.72215">
        <ele>355</ele>
        <time>2015-10-11T08:53:23.000Z</time>
      </trkpt>
      <trkpt lat="47.53339" lon="6.7221">
        <ele>355</ele>
        <time>2015-10-11T08:53:24.000Z</time>
      </trkpt>
      <trkpt lat="47.5334" lon="6.72206">
        <ele>355</ele>
        <time>2015-10-11T08:53:25.000Z</time>
      </trkpt>
      <trkpt lat="47.53342" lon="6.72202">
        <ele>355</ele>
        <time>2015-10-11T08:53:26.000Z</time>
      </trkpt>
      <trkpt lat="47.53344" lon="6.72198">
        <ele>355</ele>
        <time>2015-10-11T08:53:27.000Z</time>
      </trkpt>
      <trkpt lat="47.53347" lon="6.72194">
        <ele>355</ele>
        <time>2015-10-11T08:53:28.000Z</time>
      </trkpt>
      <trkpt lat="47.5335" lon="6.7219">
        <ele>355</ele>
        <time>2015-10-11T08:53:29.000Z</time>
      </trkpt>
      <trkpt lat="47.53353" lon="6.72185">
        <ele>355</ele>
        <time>2015-10-11T08:53:30.000Z</time>
      </trkpt>
      <trkpt lat="47.53355" lon="6.7218">
        <ele>355</ele>
        <time>2015-10-11T08:53:31.000Z</time>
      </trkpt>
      <trkpt lat="47.53357" lon="6.72175">
        <ele>355</ele>
        <time>2015-10-11T08:53:32.000Z</time>
      </trkpt>
      <trkpt lat="47.53359" lon="6.7217">
        <ele>355</ele>
        <time>2015-10-11T08:53:33.000Z</time>
      </trkpt>
      <trkpt lat="47.53361" lon="6.72164">
        <ele>356</ele>
        <time>2015-10-11T08:53:34.000Z</time>
      </trkpt>
      <trkpt lat="47.53363" lon="6.72159">
        <ele>356</ele>
        <time>2015-10-11T08:53:35.000Z</time>
      </trkpt>
      <trkpt lat="47.53365" lon="6.72154">
        <ele>356</ele>
        <time>2015-10-11T08:53:36.000Z</time>
      </trkpt>
      <trkpt lat="47.53366" lon="6.7215">
        <ele>356</ele>
        <time>2015-10-11T08:53:37.000Z</time>
      </trkpt>
      <trkpt lat="47.53368" lon="6.72145">
        <ele>356</ele>
        <time>2015-10-11T08:53:38.000Z</time>
      </trkpt>
      <trkpt lat="47.53369" lon="6.7214">
        <ele>356</ele>
        <time>2015-10-11T08:53:39.000Z</time>
      </trkpt>
      <trkpt lat="47.5337" lon="6.72135">
        <ele>356</ele>
        <time>2015-10-11T08:53:40.000Z</time>
      </trkpt>
      <trkpt lat="47.5337" lon="6.72131">
        <ele>356</ele>
        <time>2015-10-11T08:53:41.000Z</time>
      </trkpt>
      <trkpt lat="47.53369" lon="6.72126">
        <ele>356</ele>
        <time>2015-10-11T08:53:42.000Z</time>
      </trkpt>
      <trkpt lat="47.53367" lon="6.72122">
        <ele>356</ele>
        <time>2015-10-11T08:53:43.000Z</time>
      </trkpt>
      <trkpt lat="47.53366" lon="6.72118">
        <ele>356</ele>
        <time>2015-10-11T08:53:44.000Z</time>
      </trkpt>
      <trkpt lat="47.53366" lon="6.72113">
        <ele>356</ele>
        <time>2015-10-11T08:53:45.000Z</time>
      </trkpt>
      <trkpt lat="47.53365" lon="6.72109">
        <ele>356</ele>
        <time>2015-10-11T08:53:46.000Z</time>
      </trkpt>
      <trkpt lat="47.53365" lon="6.72104">
        <ele>356</ele>
        <time>2015-10-11T08:53:47.000Z</time>
      </trkpt>
      <trkpt lat="47.53364" lon="6.72099">
        <ele>356</ele>
        <time>2015-10-11T08:53:48.000Z</time>
      </trkpt>
      <trkpt lat="47.53364" lon="6.72095">
        <ele>356</ele>
        <time>2015-10-11T08:53:49.000Z</time>
      </trkpt>
      <trkpt lat="47.53363" lon="6.7209">
        <ele>357</ele>
        <time>2015-10-11T08:53:50.000Z</time>
      </trkpt>
      <trkpt lat="47.53362" lon="6.72085">
        <ele>357</ele>
        <time>2015-10-11T08:53:51.000Z</time>
      </trkpt>
      <trkpt lat="47.53361" lon="6.72081">
        <ele>358</ele>
        <time>2015-10-11T08:53:52.000Z</time>
      </trkpt>
      <trkpt lat="47.5336" lon="6.72077">
        <ele>358</ele>
        <time>2015-10-11T08:53:53.000Z</time>
      </trkpt>
      <trkpt lat="47.53358" lon="6.72073">
        <ele>358</ele>
        <time>2015-10-11T08:53:54.000Z</time>
      </trkpt>
      <trkpt lat="47.53356" lon="6.72069">
        <ele>358</ele>
        <time>2015-10-11T08:53:55.000Z</time>
      </trkpt>
      <trkpt lat="47.53353" lon="6.72066">
        <ele>358</ele>
        <time>2015-10-11T08:53:56.000Z</time>
      </trkpt>
      <trkpt lat="47.53351" lon="6.72063">
        <ele>358</ele>
        <time>2015-10-11T08:53:57.000Z</time>
      </trkpt>
      <trkpt lat="47.53348" lon="6.72061">
        <ele>358</ele>
        <time>2015-10-11T08:53:58.000Z</time>
      </trkpt>
      <trkpt lat="47.53346" lon="6.72058">
        <ele>358</ele>
        <time>2015-10-11T08:53:59.000Z</time>
      </trkpt>
      <trkpt lat="47.53344" lon="6.72057">
        <ele>358</ele>
        <time>2015-10-11T08:54:00.000Z</time>
      </trkpt>
      <trkpt lat="47.5334" lon="6.72054">
        <ele>358</ele>
        <time>2015-10-11T08:54:02.000Z</time>
      </trkpt>
      <trkpt lat="47.53338" lon="6.72052">
        <ele>358</ele>
        <time>2015-10-11T08:54:03.000Z</time>
      </trkpt>
      <trkpt lat="47.53337" lon="6.72051">
        <ele>358</ele>
        <time>2015-10-11T08:54:04.000Z</time>
      </trkpt>
      <trkpt lat="47.53334" lon="6.72049">
        <ele>358</ele>
        <time>2015-10-11T08:54:06.000Z</time>
      </trkpt>
      <trkpt lat="47.53331" lon="6.72046">
        <ele>357</ele>
        <time>2015-10-11T08:54:08.000Z</time>
      </trkpt>
      <trkpt lat="47.5333" lon="6.72045">
        <ele>357</ele>
        <time>2015-10-11T08:54:09.000Z</time>
      </trkpt>
      <trkpt lat="47.53326" lon="6.72042">
        <ele>357</ele>
        <time>2015-10-11T08:54:13.000Z</time>
      </trkpt>
      <trkpt lat="47.53325" lon="6.72042">
        <ele>357</ele>
        <time>2015-10-11T08:54:14.000Z</time>
      </trkpt>
      <trkpt lat="47.53322" lon="6.72039">
        <ele>356</ele>
        <time>2015-10-11T08:54:18.000Z</time>
      </trkpt>
      <trkpt lat="47.5332" lon="6.72037">
        <ele>356</ele>
        <time>2015-10-11T08:54:19.000Z</time>
      </trkpt>
      <trkpt lat="47.53317" lon="6.72033">
        <ele>357</ele>
        <time>2015-10-11T08:54:21.000Z</time>
      </trkpt>
      <trkpt lat="47.53316" lon="6.72031">
        <ele>357</ele>
        <time>2015-10-11T08:54:22.000Z</time>
      </trkpt>
      <trkpt lat="47.53314" lon="6.72027">
        <ele>357</ele>
        <time>2015-10-11T08:54:24.000Z</time>
      </trkpt>
      <trkpt lat="47.53313" lon="6.72026">
        <ele>357</ele>
        <time>2015-10-11T08:54:25.000Z</time>
      </trkpt>
      <trkpt lat="47.5331" lon="6.72022">
        <ele>357</ele>
        <time>2015-10-11T08:54:27.000Z</time>
      </trkpt>
      <trkpt lat="47.53308" lon="6.7202">
        <ele>356</ele>
        <time>2015-10-11T08:54:28.000Z</time>
      </trkpt>
      <trkpt lat="47.53306" lon="6.72017">
        <ele>356</ele>
        <time>2015-10-11T08:54:30.000Z</time>
      </trkpt>
      <trkpt lat="47.53304" lon="6.72015">
        <ele>356</ele>
        <time>2015-10-11T08:54:31.000Z</time>
      </trkpt>
      <trkpt lat="47.53303" lon="6.72013">
        <ele>356</ele>
        <time>2015-10-11T08:54:32.000Z</time>
      </trkpt>
      <trkpt lat="47.53301" lon="6.7201">
        <ele>356</ele>
        <time>2015-10-11T08:54:33.000Z</time>
      </trkpt>
      <trkpt lat="47.53299" lon="6.72007">
        <ele>356</ele>
        <time>2015-10-11T08:54:34.000Z</time>
      </trkpt>
      <trkpt lat="47.53298" lon="6.72003">
        <ele>356</ele>
        <time>2015-10-11T08:54:35.000Z</time>
      </trkpt>
      <trkpt lat="47.53297" lon="6.71999">
        <ele>356</ele>
        <time>2015-10-11T08:54:36.000Z</time>
      </trkpt>
      <trkpt lat="47.53296" lon="6.71996">
        <ele>356</ele>
        <time>2015-10-11T08:54:37.000Z</time>
      </trkpt>
      <trkpt lat="47.53295" lon="6.7199">
        <ele>356</ele>
        <time>2015-10-11T08:54:39.000Z</time>
      </trkpt>
      <trkpt lat="47.53295" lon="6.71988">
        <ele>356</ele>
        <time>2015-10-11T08:54:40.000Z</time>
      </trkpt>
      <trkpt lat="47.53297" lon="6.71982">
        <ele>356</ele>
        <time>2015-10-11T08:54:43.000Z</time>
      </trkpt>
      <trkpt lat="47.53297" lon="6.71979">
        <ele>356</ele>
        <time>2015-10-11T08:54:44.000Z</time>
      </trkpt>
      <trkpt lat="47.53296" lon="6.71975">
        <ele>356</ele>
        <time>2015-10-11T08:54:45.000Z</time>
      </trkpt>
      <trkpt lat="47.53296" lon="6.71972">
        <ele>356</ele>
        <time>2015-10-11T08:54:46.000Z</time>
      </trkpt>
      <trkpt lat="47.53296" lon="6.71968">
        <ele>356</ele>
        <time>2015-10-11T08:54:47.000Z</time>
      </trkpt>
      <trkpt lat="47.53296" lon="6.71964">
        <ele>356</ele>
        <time>2015-10-11T08:54:48.000Z</time>
      </trkpt>
      <trkpt lat="47.53297" lon="6.7196">
        <ele>356</ele>
        <time>2015-10-11T08:54:49.000Z</time>
      </trkpt>
      <trkpt lat="47.53298" lon="6.71956">
        <ele>356</ele>
        <time>2015-10-11T08:54:50.000Z</time>
      </trkpt>
      <trkpt lat="47.53299" lon="6.71952">
        <ele>356</ele>
        <time>2015-10-11T08:54:51.000Z</time>
      </trkpt>
      <trkpt lat="47.533" lon="6.71948">
        <ele>356</ele>
        <time>2015-10-11T08:54:52.000Z</time>
      </trkpt>
      <trkpt lat="47.53301" lon="6.71945">
        <ele>356</ele>
        <time>2015-10-11T08:54:53.000Z</time>
      </trkpt>
      <trkpt lat="47.53303" lon="6.71942">
        <ele>356</ele>
        <time>2015-10-11T08:54:54.000Z</time>
      </trkpt>
      <trkpt lat="47.53304" lon="6.71939">
        <ele>356</ele>
        <time>2015-10-11T08:54:55.000Z</time>
      </trkpt>
      <trkpt lat="47.53305" lon="6.71935">
        <ele>356</ele>
        <time>2015-10-11T08:54:56.000Z</time>
      </trkpt>
      <trkpt lat="47.53307" lon="6.7193">
        <ele>357</ele>
        <time>2015-10-11T08:54:58.000Z</time>
      </trkpt>
      <trkpt lat="47.53308" lon="6.71929">
        <ele>357</ele>
        <time>2015-10-11T08:54:59.000Z</time>
      </trkpt>
      <trkpt lat="47.53309" lon="6.71924">
        <ele>357</ele>
        <time>2015-10-11T08:55:02.000Z</time>
      </trkpt>
      <trkpt lat="47.5331" lon="6.71921">
        <ele>357</ele>
        <time>2015-10-11T08:55:03.000Z</time>
      </trkpt>
      <trkpt lat="47.53312" lon="6.71917">
        <ele>357</ele>
        <time>2015-10-11T08:55:04.000Z</time>
      </trkpt>
      <trkpt lat="47.53313" lon="6.71913">
        <ele>356</ele>
        <time>2015-10-11T08:55:05.000Z</time>
      </trkpt>
      <trkpt lat="47.53315" lon="6.7191">
        <ele>356</ele>
        <time>2015-10-11T08:55:06.000Z</time>
      </trkpt>
      <trkpt lat="47.53316" lon="6.71906">
        <ele>356</ele>
        <time>2015-10-11T08:55:07.000Z</time>
      </trkpt>
      <trkpt lat="47.53317" lon="6.71902">
        <ele>356</ele>
        <time>2015-10-11T08:55:08.000Z</time>
      </trkpt>
      <trkpt lat="47.53318" lon="6.71897">
        <ele>356</ele>
        <time>2015-10-11T08:55:09.000Z</time>
      </trkpt>
      <trkpt lat="47.53318" lon="6.71893">
        <ele>356</ele>
        <time>2015-10-11T08:55:10.000Z</time>
      </trkpt>
      <trkpt lat="47.53319" lon="6.71889">
        <ele>356</ele>
        <time>2015-10-11T08:55:11.000Z</time>
      </trkpt>
      <trkpt lat="47.5332" lon="6.71885">
        <ele>355</ele>
        <time>2015-10-11T08:55:12.000Z</time>
      </trkpt>
      <trkpt lat="47.53322" lon="6.71882">
        <ele>355</ele>
        <time>2015-10-11T08:55:13.000Z</time>
      </trkpt>
      <trkpt lat="47.53324" lon="6.71879">
        <ele>355</ele>
        <time>2015-10-11T08:55:14.000Z</time>
      </trkpt>
      <trkpt lat="47.53326" lon="6.71876">
        <ele>355</ele>
        <time>2015-10-11T08:55:15.000Z</time>
      </trkpt>
      <trkpt lat="47.53329" lon="6.71873">
        <ele>355</ele>
        <time>2015-10-11T08:55:16.000Z</time>
      </trkpt>
      <trkpt lat="47.53331" lon="6.7187">
        <ele>355</ele>
        <time>2015-10-11T08:55:17.000Z</time>
      </trkpt>
      <trkpt lat="47.53334" lon="6.71867">
        <ele>358</ele>
        <time>2015-10-11T08:55:18.000Z</time>
      </trkpt>
      <trkpt lat="47.53337" lon="6.71865">
        <ele>358</ele>
        <time>2015-10-11T08:55:19.000Z</time>
      </trkpt>
      <trkpt lat="47.5334" lon="6.71864">
        <ele>358</ele>
        <time>2015-10-11T08:55:20.000Z</time>
      </trkpt>
      <trkpt lat="47.53343" lon="6.71864">
        <ele>358</ele>
        <time>2015-10-11T08:55:21.000Z</time>
      </trkpt>
      <trkpt lat="47.53347" lon="6.71863">
        <ele>358</ele>
        <time>2015-10-11T08:55:22.000Z</time>
      </trkpt>
      <trkpt lat="47.5335" lon="6.71863">
        <ele>358</ele>
        <time>2015-10-11T08:55:23.000Z</time>
      </trkpt>
      <trkpt lat="47.53353" lon="6.71861">
        <ele>358</ele>
        <time>2015-10-11T08:55:24.000Z</time>
      </trkpt>
      <trkpt lat="47.53355" lon="6.71858">
        <ele>358</ele>
        <time>2015-10-11T08:55:25.000Z</time>
      </trkpt>
      <trkpt lat="47.53358" lon="6.71854">
        <ele>358</ele>
        <time>2015-10-11T08:55:26.000Z</time>
      </trkpt>
      <trkpt lat="47.53363" lon="6.71847">
        <ele>358</ele>
        <time>2015-10-11T08:55:27.000Z</time>
      </trkpt>
      <trkpt lat="47.53368" lon="6.71845">
        <ele>358</ele>
        <time>2015-10-11T08:55:28.000Z</time>
      </trkpt>
      <trkpt lat="47.53372" lon="6.71841">
        <ele>358</ele>
        <time>2015-10-11T08:55:29.000Z</time>
      </trkpt>
      <trkpt lat="47.53377" lon="6.71834">
        <ele>358</ele>
        <time>2015-10-11T08:55:30.000Z</time>
      </trkpt>
      <trkpt lat="47.53382" lon="6.71829">
        <ele>357</ele>
        <time>2015-10-11T08:55:31.000Z</time>
      </trkpt>
      <trkpt lat="47.53387" lon="6.71822">
        <ele>357</ele>
        <time>2015-10-11T08:55:32.000Z</time>
      </trkpt>
      <trkpt lat="47.53391" lon="6.71816">
        <ele>357</ele>
        <time>2015-10-11T08:55:33.000Z</time>
      </trkpt>
      <trkpt lat="47.53395" lon="6.71811">
        <ele>357</ele>
        <time>2015-10-11T08:55:34.000Z</time>
      </trkpt>
      <trkpt lat="47.53397" lon="6.71806">
        <ele>357</ele>
        <time>2015-10-11T08:55:35.000Z</time>
      </trkpt>
      <trkpt lat="47.53401" lon="6.71801">
        <ele>357</ele>
        <time>2015-10-11T08:55:36.000Z</time>
      </trkpt>
      <trkpt lat="47.53404" lon="6.71797">
        <ele>357</ele>
        <time>2015-10-11T08:55:37.000Z</time>
      </trkpt>
      <trkpt lat="47.53407" lon="6.71792">
        <ele>357</ele>
        <time>2015-10-11T08:55:38.000Z</time>
      </trkpt>
      <trkpt lat="47.5341" lon="6.71787">
        <ele>357</ele>
        <time>2015-10-11T08:55:39.000Z</time>
      </trkpt>
      <trkpt lat="47.53413" lon="6.71781">
        <ele>357</ele>
        <time>2015-10-11T08:55:40.000Z</time>
      </trkpt>
      <trkpt lat="47.53414" lon="6.71775">
        <ele>358</ele>
        <time>2015-10-11T08:55:41.000Z</time>
      </trkpt>
      <trkpt lat="47.53417" lon="6.71769">
        <ele>360</ele>
        <time>2015-10-11T08:55:42.000Z</time>
      </trkpt>
      <trkpt lat="47.53418" lon="6.71764">
        <ele>360</ele>
        <time>2015-10-11T08:55:43.000Z</time>
      </trkpt>
      <trkpt lat="47.53419" lon="6.71759">
        <ele>360</ele>
        <time>2015-10-11T08:55:44.000Z</time>
      </trkpt>
      <trkpt lat="47.53419" lon="6.71753">
        <ele>359</ele>
        <time>2015-10-11T08:55:45.000Z</time>
      </trkpt>
      <trkpt lat="47.5342" lon="6.7175">
        <ele>360</ele>
        <time>2015-10-11T08:55:46.000Z</time>
      </trkpt>
      <trkpt lat="47.53421" lon="6.71747">
        <ele>360</ele>
        <time>2015-10-11T08:55:47.000Z</time>
      </trkpt>
      <trkpt lat="47.53421" lon="6.71743">
        <ele>360</ele>
        <time>2015-10-11T08:55:48.000Z</time>
      </trkpt>
      <trkpt lat="47.53423" lon="6.7174">
        <ele>361</ele>
        <time>2015-10-11T08:55:49.000Z</time>
      </trkpt>
      <trkpt lat="47.53424" lon="6.71737">
        <ele>361</ele>
        <time>2015-10-11T08:55:50.000Z</time>
      </trkpt>
      <trkpt lat="47.53426" lon="6.71733">
        <ele>361</ele>
        <time>2015-10-11T08:55:51.000Z</time>
      </trkpt>
      <trkpt lat="47.53428" lon="6.7173">
        <ele>362</ele>
        <time>2015-10-11T08:55:52.000Z</time>
      </trkpt>
      <trkpt lat="47.5343" lon="6.71727">
        <ele>362</ele>
        <time>2015-10-11T08:55:53.000Z</time>
      </trkpt>
      <trkpt lat="47.53432" lon="6.71724">
        <ele>362</ele>
        <time>2015-10-11T08:55:54.000Z</time>
      </trkpt>
      <trkpt lat="47.53434" lon="6.71721">
        <ele>362</ele>
        <time>2015-10-11T08:55:55.000Z</time>
      </trkpt>
      <trkpt lat="47.53436" lon="6.71718">
        <ele>363</ele>
        <time>2015-10-11T08:55:56.000Z</time>
      </trkpt>
      <trkpt lat="47.53438" lon="6.71715">
        <ele>363</ele>
        <time>2015-10-11T08:55:57.000Z</time>
      </trkpt>
      <trkpt lat="47.5344" lon="6.71712">
        <ele>363</ele>
        <time>2015-10-11T08:55:58.000Z</time>
      </trkpt>
      <trkpt lat="47.53442" lon="6.7171">
        <ele>363</ele>
        <time>2015-10-11T08:55:59.000Z</time>
      </trkpt>
      <trkpt lat="47.53443" lon="6.71707">
        <ele>363</ele>
        <time>2015-10-11T08:56:00.000Z</time>
      </trkpt>
      <trkpt lat="47.53446" lon="6.71703">
        <ele>363</ele>
        <time>2015-10-11T08:56:02.000Z</time>
      </trkpt>
      <trkpt lat="47.53448" lon="6.717">
        <ele>363</ele>
        <time>2015-10-11T08:56:03.000Z</time>
      </trkpt>
      <trkpt lat="47.53452" lon="6.71697">
        <ele>364</ele>
        <time>2015-10-11T08:56:05.000Z</time>
      </trkpt>
      <trkpt lat="47.53454" lon="6.71695">
        <ele>364</ele>
        <time>2015-10-11T08:56:06.000Z</time>
      </trkpt>
      <trkpt lat="47.53455" lon="6.71693">
        <ele>364</ele>
        <time>2015-10-11T08:56:07.000Z</time>
      </trkpt>
      <trkpt lat="47.53457" lon="6.71691">
        <ele>364</ele>
        <time>2015-10-11T08:56:08.000Z</time>
      </trkpt>
      <trkpt lat="47.53461" lon="6.71687">
        <ele>364</ele>
        <time>2015-10-11T08:56:10.000Z</time>
      </trkpt>
      <trkpt lat="47.53462" lon="6.71685">
        <ele>364</ele>
        <time>2015-10-11T08:56:11.001Z</time>
      </trkpt>
      <trkpt lat="47.53465" lon="6.7168">
        <ele>365</ele>
        <time>2015-10-11T08:56:13.000Z</time>
      </trkpt>
      <trkpt lat="47.53467" lon="6.71678">
        <ele>365</ele>
        <time>2015-10-11T08:56:14.000Z</time>
      </trkpt>
      <trkpt lat="47.53469" lon="6.71673">
        <ele>365</ele>
        <time>2015-10-11T08:56:16.000Z</time>
      </trkpt>
      <trkpt lat="47.5347" lon="6.7167">
        <ele>365</ele>
        <time>2015-10-11T08:56:17.000Z</time>
      </trkpt>
      <trkpt lat="47.53472" lon="6.71668">
        <ele>366</ele>
        <time>2015-10-11T08:56:18.000Z</time>
      </trkpt>
      <trkpt lat="47.53473" lon="6.71665">
        <ele>368</ele>
        <time>2015-10-11T08:56:19.000Z</time>
      </trkpt>
      <trkpt lat="47.53474" lon="6.71662">
        <ele>368</ele>
        <time>2015-10-11T08:56:20.000Z</time>
      </trkpt>
      <trkpt lat="47.53475" lon="6.71659">
        <ele>368</ele>
        <time>2015-10-11T08:56:21.000Z</time>
      </trkpt>
      <trkpt lat="47.53477" lon="6.71657">
        <ele>368</ele>
        <time>2015-10-11T08:56:22.000Z</time>
      </trkpt>
      <trkpt lat="47.53479" lon="6.71655">
        <ele>368</ele>
        <time>2015-10-11T08:56:23.000Z</time>
      </trkpt>
      <trkpt lat="47.53482" lon="6.71651">
        <ele>368</ele>
        <time>2015-10-11T08:56:25.000Z</time>
      </trkpt>
      <trkpt lat="47.53484" lon="6.71648">
        <ele>368</ele>
        <time>2015-10-11T08:56:26.000Z</time>
      </trkpt>
      <trkpt lat="47.53487" lon="6.71644">
        <ele>368</ele>
        <time>2015-10-11T08:56:28.000Z</time>
      </trkpt>
      <trkpt lat="47.53489" lon="6.71642">
        <ele>368</ele>
        <time>2015-10-11T08:56:29.000Z</time>
      </trkpt>
      <trkpt lat="47.5349" lon="6.71639">
        <ele>368</ele>
        <time>2015-10-11T08:56:30.002Z</time>
      </trkpt>
      <trkpt lat="47.53492" lon="6.71637">
        <ele>368</ele>
        <time>2015-10-11T08:56:31.001Z</time>
      </trkpt>
      <trkpt lat="47.53495" lon="6.71632">
        <ele>368</ele>
        <time>2015-10-11T08:56:33.000Z</time>
      </trkpt>
      <trkpt lat="47.53496" lon="6.7163">
        <ele>369</ele>
        <time>2015-10-11T08:56:34.000Z</time>
      </trkpt>
      <trkpt lat="47.53499" lon="6.71625">
        <ele>369</ele>
        <time>2015-10-11T08:56:36.000Z</time>
      </trkpt>
      <trkpt lat="47.535" lon="6.71623">
        <ele>374</ele>
        <time>2015-10-11T08:56:37.000Z</time>
      </trkpt>
      <trkpt lat="47.53503" lon="6.71619">
        <ele>374</ele>
        <time>2015-10-11T08:56:39.000Z</time>
      </trkpt>
      <trkpt lat="47.53505" lon="6.71617">
        <ele>374</ele>
        <time>2015-10-11T08:56:40.000Z</time>
      </trkpt>
      <trkpt lat="47.53508" lon="6.71613">
        <ele>374</ele>
        <time>2015-10-11T08:56:42.000Z</time>
      </trkpt>
      <trkpt lat="47.53509" lon="6.71609">
        <ele>374</ele>
        <time>2015-10-11T08:56:43.000Z</time>
      </trkpt>
      <trkpt lat="47.53511" lon="6.71604">
        <ele>374</ele>
        <time>2015-10-11T08:56:45.000Z</time>
      </trkpt>
      <trkpt lat="47.53513" lon="6.71602">
        <ele>374</ele>
        <time>2015-10-11T08:56:46.000Z</time>
      </trkpt>
      <trkpt lat="47.53516" lon="6.71597">
        <ele>374</ele>
        <time>2015-10-11T08:56:48.000Z</time>
      </trkpt>
      <trkpt lat="47.53517" lon="6.71594">
        <ele>374</ele>
        <time>2015-10-11T08:56:49.000Z</time>
      </trkpt>
      <trkpt lat="47.5352" lon="6.71589">
        <ele>374</ele>
        <time>2015-10-11T08:56:51.000Z</time>
      </trkpt>
      <trkpt lat="47.53521" lon="6.71587">
        <ele>374</ele>
        <time>2015-10-11T08:56:52.000Z</time>
      </trkpt>
      <trkpt lat="47.53524" lon="6.71582">
        <ele>376</ele>
        <time>2015-10-11T08:56:54.000Z</time>
      </trkpt>
      <trkpt lat="47.53526" lon="6.7158">
        <ele>376</ele>
        <time>2015-10-11T08:56:55.000Z</time>
      </trkpt>
      <trkpt lat="47.53529" lon="6.71575">
        <ele>376</ele>
        <time>2015-10-11T08:56:57.000Z</time>
      </trkpt>
      <trkpt lat="47.5353" lon="6.71573">
        <ele>376</ele>
        <time>2015-10-11T08:56:58.000Z</time>
      </trkpt>
      <trkpt lat="47.53533" lon="6.71568">
        <ele>376</ele>
        <time>2015-10-11T08:57:00.000Z</time>
      </trkpt>
      <trkpt lat="47.53535" lon="6.71566">
        <ele>376</ele>
        <time>2015-10-11T08:57:01.000Z</time>
      </trkpt>
      <trkpt lat="47.53536" lon="6.71563">
        <ele>377</ele>
        <time>2015-10-11T08:57:02.000Z</time>
      </trkpt>
      <trkpt lat="47.53538" lon="6.71561">
        <ele>377</ele>
        <time>2015-10-11T08:57:03.000Z</time>
      </trkpt>
      <trkpt lat="47.53539" lon="6.71558">
        <ele>377</ele>
        <time>2015-10-11T08:57:04.000Z</time>
      </trkpt>
      <trkpt lat="47.53541" lon="6.71556">
        <ele>377</ele>
        <time>2015-10-11T08:57:05.000Z</time>
      </trkpt>
      <trkpt lat="47.53544" lon="6.71551">
        <ele>377</ele>
        <time>2015-10-11T08:57:07.000Z</time>
      </trkpt>
      <trkpt lat="47.53545" lon="6.71549">
        <ele>377</ele>
        <time>2015-10-11T08:57:08.000Z</time>
      </trkpt>
      <trkpt lat="47.53548" lon="6.71544">
        <ele>377</ele>
        <time>2015-10-11T08:57:10.000Z</time>
      </trkpt>
      <trkpt lat="47.5355" lon="6.71542">
        <ele>377</ele>
        <time>2015-10-11T08:57:11.000Z</time>
      </trkpt>
      <trkpt lat="47.53553" lon="6.71537">
        <ele>377</ele>
        <time>2015-10-11T08:57:13.000Z</time>
      </trkpt>
      <trkpt lat="47.53554" lon="6.71535">
        <ele>378</ele>
        <time>2015-10-11T08:57:14.000Z</time>
      </trkpt>
      <trkpt lat="47.53558" lon="6.71531">
        <ele>378</ele>
        <time>2015-10-11T08:57:16.000Z</time>
      </trkpt>
      <trkpt lat="47.53559" lon="6.71529">
        <ele>378</ele>
        <time>2015-10-11T08:57:17.000Z</time>
      </trkpt>
      <trkpt lat="47.53562" lon="6.71524">
        <ele>378</ele>
        <time>2015-10-11T08:57:19.000Z</time>
      </trkpt>
      <trkpt lat="47.53564" lon="6.71522">
        <ele>378</ele>
        <time>2015-10-11T08:57:20.000Z</time>
      </trkpt>
      <trkpt lat="47.53567" lon="6.71518">
        <ele>379</ele>
        <time>2015-10-11T08:57:22.000Z</time>
      </trkpt>
      <trkpt lat="47.53569" lon="6.71516">
        <ele>379</ele>
        <time>2015-10-11T08:57:23.000Z</time>
      </trkpt>
      <trkpt lat="47.53572" lon="6.71512">
        <ele>379</ele>
        <time>2015-10-11T08:57:25.000Z</time>
      </trkpt>
      <trkpt lat="47.53574" lon="6.7151">
        <ele>379</ele>
        <time>2015-10-11T08:57:26.000Z</time>
      </trkpt>
      <trkpt lat="47.53577" lon="6.71506">
        <ele>380</ele>
        <time>2015-10-11T08:57:28.000Z</time>
      </trkpt>
      <trkpt lat="47.53579" lon="6.71503">
        <ele>380</ele>
        <time>2015-10-11T08:57:29.000Z</time>
      </trkpt>
      <trkpt lat="47.53582" lon="6.71499">
        <ele>381</ele>
        <time>2015-10-11T08:57:31.000Z</time>
      </trkpt>
      <trkpt lat="47.53583" lon="6.71497">
        <ele>382</ele>
        <time>2015-10-11T08:57:32.000Z</time>
      </trkpt>
      <trkpt lat="47.53587" lon="6.71493">
        <ele>382</ele>
        <time>2015-10-11T08:57:34.000Z</time>
      </trkpt>
      <trkpt lat="47.53589" lon="6.71491">
        <ele>383</ele>
        <time>2015-10-11T08:57:35.000Z</time>
      </trkpt>
      <trkpt lat="47.53592" lon="6.71487">
        <ele>383</ele>
        <time>2015-10-11T08:57:37.000Z</time>
      </trkpt>
      <trkpt lat="47.53593" lon="6.71485">
        <ele>384</ele>
        <time>2015-10-11T08:57:38.000Z</time>
      </trkpt>
      <trkpt lat="47.53596" lon="6.71481">
        <ele>384</ele>
        <time>2015-10-11T08:57:40.000Z</time>
      </trkpt>
      <trkpt lat="47.53598" lon="6.71479">
        <ele>384</ele>
        <time>2015-10-11T08:57:41.000Z</time>
      </trkpt>
      <trkpt lat="47.53601" lon="6.71475">
        <ele>385</ele>
        <time>2015-10-11T08:57:43.000Z</time>
      </trkpt>
      <trkpt lat="47.53603" lon="6.71473">
        <ele>385</ele>
        <time>2015-10-11T08:57:44.000Z</time>
      </trkpt>
      <trkpt lat="47.53606" lon="6.71469">
        <ele>385</ele>
        <time>2015-10-11T08:57:46.000Z</time>
      </trkpt>
      <trkpt lat="47.53607" lon="6.71467">
        <ele>385</ele>
        <time>2015-10-11T08:57:47.000Z</time>
      </trkpt>
      <trkpt lat="47.53611" lon="6.71463">
        <ele>385</ele>
        <time>2015-10-11T08:57:49.000Z</time>
      </trkpt>
      <trkpt lat="47.53612" lon="6.71461">
        <ele>386</ele>
        <time>2015-10-11T08:57:50.000Z</time>
      </trkpt>
      <trkpt lat="47.53615" lon="6.71457">
        <ele>386</ele>
        <time>2015-10-11T08:57:52.000Z</time>
      </trkpt>
      <trkpt lat="47.53616" lon="6.71454">
        <ele>386</ele>
        <time>2015-10-11T08:57:53.000Z</time>
      </trkpt>
      <trkpt lat="47.53619" lon="6.7145">
        <ele>386</ele>
        <time>2015-10-11T08:57:55.000Z</time>
      </trkpt>
      <trkpt lat="47.53621" lon="6.71448">
        <ele>386</ele>
        <time>2015-10-11T08:57:56.000Z</time>
      </trkpt>
      <trkpt lat="47.53623" lon="6.71443">
        <ele>386</ele>
        <time>2015-10-11T08:57:58.000Z</time>
      </trkpt>
      <trkpt lat="47.53624" lon="6.7144">
        <ele>387</ele>
        <time>2015-10-11T08:57:59.000Z</time>
      </trkpt>
      <trkpt lat="47.53626" lon="6.71435">
        <ele>387</ele>
        <time>2015-10-11T08:58:01.000Z</time>
      </trkpt>
      <trkpt lat="47.53628" lon="6.71433">
        <ele>387</ele>
        <time>2015-10-11T08:58:02.000Z</time>
      </trkpt>
      <trkpt lat="47.5363" lon="6.71428">
        <ele>387</ele>
        <time>2015-10-11T08:58:04.000Z</time>
      </trkpt>
      <trkpt lat="47.53631" lon="6.71425">
        <ele>387</ele>
        <time>2015-10-11T08:58:05.000Z</time>
      </trkpt>
      <trkpt lat="47.53633" lon="6.7142">
        <ele>388</ele>
        <time>2015-10-11T08:58:07.000Z</time>
      </trkpt>
      <trkpt lat="47.53635" lon="6.71417">
        <ele>388</ele>
        <time>2015-10-11T08:58:08.000Z</time>
      </trkpt>
      <trkpt lat="47.53638" lon="6.71413">
        <ele>389</ele>
        <time>2015-10-11T08:58:10.000Z</time>
      </trkpt>
      <trkpt lat="47.5364" lon="6.71411">
        <ele>389</ele>
        <time>2015-10-11T08:58:11.000Z</time>
      </trkpt>
      <trkpt lat="47.53643" lon="6.71407">
        <ele>390</ele>
        <time>2015-10-11T08:58:13.000Z</time>
      </trkpt>
      <trkpt lat="47.53645" lon="6.71405">
        <ele>390</ele>
        <time>2015-10-11T08:58:14.000Z</time>
      </trkpt>
      <trkpt lat="47.53648" lon="6.71402">
        <ele>390</ele>
        <time>2015-10-11T08:58:16.000Z</time>
      </trkpt>
      <trkpt lat="47.53649" lon="6.714">
        <ele>390</ele>
        <time>2015-10-11T08:58:17.000Z</time>
      </trkpt>
      <trkpt lat="47.53652" lon="6.71395">
        <ele>390</ele>
        <time>2015-10-11T08:58:19.000Z</time>
      </trkpt>
      <trkpt lat="47.53654" lon="6.71392">
        <ele>390</ele>
        <time>2015-10-11T08:58:20.000Z</time>
      </trkpt>
      <trkpt lat="47.53656" lon="6.7139">
        <ele>390</ele>
        <time>2015-10-11T08:58:21.000Z</time>
      </trkpt>
      <trkpt lat="47.53657" lon="6.71387">
        <ele>390</ele>
        <time>2015-10-11T08:58:22.000Z</time>
      </trkpt>
      <trkpt lat="47.53659" lon="6.71385">
        <ele>390</ele>
        <time>2015-10-11T08:58:23.000Z</time>
      </trkpt>
      <trkpt lat="47.53661" lon="6.71383">
        <ele>390</ele>
        <time>2015-10-11T08:58:24.000Z</time>
      </trkpt>
      <trkpt lat="47.53664" lon="6.71379">
        <ele>390</ele>
        <time>2015-10-11T08:58:25.999Z</time>
      </trkpt>
      <trkpt lat="47.53665" lon="6.71378">
        <ele>390</ele>
        <time>2015-10-11T08:58:27.000Z</time>
      </trkpt>
      <trkpt lat="47.53667" lon="6.71375">
        <ele>395</ele>
        <time>2015-10-11T08:58:29.000Z</time>
      </trkpt>
      <trkpt lat="47.53669" lon="6.71373">
        <ele>395</ele>
        <time>2015-10-11T08:58:30.000Z</time>
      </trkpt>
      <trkpt lat="47.53672" lon="6.7137">
        <ele>395</ele>
        <time>2015-10-11T08:58:32.000Z</time>
      </trkpt>
      <trkpt lat="47.53673" lon="6.71369">
        <ele>395</ele>
        <time>2015-10-11T08:58:33.000Z</time>
      </trkpt>
      <trkpt lat="47.53676" lon="6.71365">
        <ele>395</ele>
        <time>2015-10-11T08:58:35.000Z</time>
      </trkpt>
      <trkpt lat="47.53678" lon="6.71364">
        <ele>395</ele>
        <time>2015-10-11T08:58:36.000Z</time>
      </trkpt>
      <trkpt lat="47.53681" lon="6.7136">
        <ele>395</ele>
        <time>2015-10-11T08:58:38.000Z</time>
      </trkpt>
      <trkpt lat="47.53682" lon="6.71359">
        <ele>395</ele>
        <time>2015-10-11T08:58:39.000Z</time>
      </trkpt>
      <trkpt lat="47.53686" lon="6.71356">
        <ele>396</ele>
        <time>2015-10-11T08:58:41.000Z</time>
      </trkpt>
      <trkpt lat="47.53688" lon="6.71355">
        <ele>396</ele>
        <time>2015-10-11T08:58:42.000Z</time>
      </trkpt>
      <trkpt lat="47.53691" lon="6.71352">
        <ele>396</ele>
        <time>2015-10-11T08:58:44.000Z</time>
      </trkpt>
      <trkpt lat="47.53693" lon="6.7135">
        <ele>396</ele>
        <time>2015-10-11T08:58:45.000Z</time>
      </trkpt>
      <trkpt lat="47.53696" lon="6.71347">
        <ele>396</ele>
        <time>2015-10-11T08:58:47.000Z</time>
      </trkpt>
      <trkpt lat="47.53697" lon="6.71345">
        <ele>396</ele>
        <time>2015-10-11T08:58:48.000Z</time>
      </trkpt>
      <trkpt lat="47.53701" lon="6.71342">
        <ele>396</ele>
        <time>2015-10-11T08:58:50.000Z</time>
      </trkpt>
      <trkpt lat="47.53702" lon="6.71341">
        <ele>397</ele>
        <time>2015-10-11T08:58:51.000Z</time>
      </trkpt>
      <trkpt lat="47.53706" lon="6.71337">
        <ele>397</ele>
        <time>2015-10-11T08:58:53.000Z</time>
      </trkpt>
      <trkpt lat="47.53707" lon="6.71335">
        <ele>397</ele>
        <time>2015-10-11T08:58:54.000Z</time>
      </trkpt>
      <trkpt lat="47.53711" lon="6.71332">
        <ele>398</ele>
        <time>2015-10-11T08:58:56.000Z</time>
      </trkpt>
      <trkpt lat="47.53712" lon="6.71331">
        <ele>398</ele>
        <time>2015-10-11T08:58:57.000Z</time>
      </trkpt>
      <trkpt lat="47.53716" lon="6.71327">
        <ele>398</ele>
        <time>2015-10-11T08:58:59.000Z</time>
      </trkpt>
      <trkpt lat="47.53717" lon="6.71326">
        <ele>398</ele>
        <time>2015-10-11T08:59:00.000Z</time>
      </trkpt>
      <trkpt lat="47.53721" lon="6.71323">
        <ele>398</ele>
        <time>2015-10-11T08:59:02.000Z</time>
      </trkpt>
      <trkpt lat="47.53723" lon="6.71321">
        <ele>398</ele>
        <time>2015-10-11T08:59:03.000Z</time>
      </trkpt>
      <trkpt lat="47.53724" lon="6.7132">
        <ele>398</ele>
        <time>2015-10-11T08:59:04.000Z</time>
      </trkpt>
      <trkpt lat="47.53727" lon="6.71319">
        <ele>399</ele>
        <time>2015-10-11T08:59:05.000Z</time>
      </trkpt>
      <trkpt lat="47.53729" lon="6.71317">
        <ele>399</ele>
        <time>2015-10-11T08:59:06.000Z</time>
      </trkpt>
      <trkpt lat="47.53731" lon="6.71316">
        <ele>399</ele>
        <time>2015-10-11T08:59:07.000Z</time>
      </trkpt>
      <trkpt lat="47.53735" lon="6.71314">
        <ele>399</ele>
        <time>2015-10-11T08:59:09.000Z</time>
      </trkpt>
      <trkpt lat="47.53736" lon="6.71312">
        <ele>399</ele>
        <time>2015-10-11T08:59:10.000Z</time>
      </trkpt>
      <trkpt lat="47.5374" lon="6.71309">
        <ele>399</ele>
        <time>2015-10-11T08:59:12.000Z</time>
      </trkpt>
      <trkpt lat="47.53742" lon="6.71307">
        <ele>399</ele>
        <time>2015-10-11T08:59:13.000Z</time>
      </trkpt>
      <trkpt lat="47.53745" lon="6.71303">
        <ele>399</ele>
        <time>2015-10-11T08:59:15.000Z</time>
      </trkpt>
      <trkpt lat="47.53746" lon="6.71301">
        <ele>399</ele>
        <time>2015-10-11T08:59:16.000Z</time>
      </trkpt>
      <trkpt lat="47.53749" lon="6.71296">
        <ele>399</ele>
        <time>2015-10-11T08:59:18.000Z</time>
      </trkpt>
      <trkpt lat="47.5375" lon="6.71293">
        <ele>399</ele>
        <time>2015-10-11T08:59:19.000Z</time>
      </trkpt>
      <trkpt lat="47.53752" lon="6.71288">
        <ele>402</ele>
        <time>2015-10-11T08:59:21.000Z</time>
      </trkpt>
      <trkpt lat="47.53753" lon="6.71285">
        <ele>402</ele>
        <time>2015-10-11T08:59:22.000Z</time>
      </trkpt>
      <trkpt lat="47.53755" lon="6.71282">
        <ele>402</ele>
        <time>2015-10-11T08:59:23.000Z</time>
      </trkpt>
      <trkpt lat="47.53756" lon="6.7128">
        <ele>402</ele>
        <time>2015-10-11T08:59:24.000Z</time>
      </trkpt>
      <trkpt lat="47.53757" lon="6.71276">
        <ele>402</ele>
        <time>2015-10-11T08:59:25.000Z</time>
      </trkpt>
      <trkpt lat="47.53759" lon="6.71273">
        <ele>401</ele>
        <time>2015-10-11T08:59:26.000Z</time>
      </trkpt>
      <trkpt lat="47.5376" lon="6.7127">
        <ele>401</ele>
        <time>2015-10-11T08:59:27.000Z</time>
      </trkpt>
      <trkpt lat="47.53761" lon="6.71267">
        <ele>401</ele>
        <time>2015-10-11T08:59:28.000Z</time>
      </trkpt>
      <trkpt lat="47.53763" lon="6.71264">
        <ele>401</ele>
        <time>2015-10-11T08:59:29.000Z</time>
      </trkpt>
      <trkpt lat="47.53764" lon="6.71261">
        <ele>401</ele>
        <time>2015-10-11T08:59:30.000Z</time>
      </trkpt>
      <trkpt lat="47.53766" lon="6.71258">
        <ele>401</ele>
        <time>2015-10-11T08:59:31.000Z</time>
      </trkpt>
      <trkpt lat="47.53768" lon="6.71255">
        <ele>401</ele>
        <time>2015-10-11T08:59:32.000Z</time>
      </trkpt>
      <trkpt lat="47.53769" lon="6.71252">
        <ele>401</ele>
        <time>2015-10-11T08:59:33.000Z</time>
      </trkpt>
      <trkpt lat="47.53771" lon="6.71249">
        <ele>401</ele>
        <time>2015-10-11T08:59:34.000Z</time>
      </trkpt>
      <trkpt lat="47.53773" lon="6.71246">
        <ele>401</ele>
        <time>2015-10-11T08:59:35.000Z</time>
      </trkpt>
      <trkpt lat="47.53774" lon="6.71243">
        <ele>401</ele>
        <time>2015-10-11T08:59:36.000Z</time>
      </trkpt>
      <trkpt lat="47.53776" lon="6.71239">
        <ele>401</ele>
        <time>2015-10-11T08:59:37.000Z</time>
      </trkpt>
      <trkpt lat="47.53777" lon="6.71236">
        <ele>401</ele>
        <time>2015-10-11T08:59:38.000Z</time>
      </trkpt>
      <trkpt lat="47.53779" lon="6.71233">
        <ele>401</ele>
        <time>2015-10-11T08:59:39.000Z</time>
      </trkpt>
      <trkpt lat="47.5378" lon="6.7123">
        <ele>401</ele>
        <time>2015-10-11T08:59:40.000Z</time>
      </trkpt>
      <trkpt lat="47.53782" lon="6.71226">
        <ele>401</ele>
        <time>2015-10-11T08:59:41.000Z</time>
      </trkpt>
      <trkpt lat="47.53783" lon="6.71222">
        <ele>401</ele>
        <time>2015-10-11T08:59:42.000Z</time>
      </trkpt>
      <trkpt lat="47.53784" lon="6.71218">
        <ele>401</ele>
        <time>2015-10-11T08:59:43.000Z</time>
      </trkpt>
      <trkpt lat="47.53786" lon="6.71214">
        <ele>401</ele>
        <time>2015-10-11T08:59:44.000Z</time>
      </trkpt>
      <trkpt lat="47.53787" lon="6.7121">
        <ele>401</ele>
        <time>2015-10-11T08:59:45.000Z</time>
      </trkpt>
      <trkpt lat="47.53789" lon="6.71207">
        <ele>401</ele>
        <time>2015-10-11T08:59:46.000Z</time>
      </trkpt>
      <trkpt lat="47.53791" lon="6.71203">
        <ele>401</ele>
        <time>2015-10-11T08:59:47.000Z</time>
      </trkpt>
      <trkpt lat="47.53793" lon="6.71199">
        <ele>402</ele>
        <time>2015-10-11T08:59:48.000Z</time>
      </trkpt>
      <trkpt lat="47.53794" lon="6.71195">
        <ele>402</ele>
        <time>2015-10-11T08:59:49.000Z</time>
      </trkpt>
      <trkpt lat="47.53796" lon="6.71192">
        <ele>402</ele>
        <time>2015-10-11T08:59:50.000Z</time>
      </trkpt>
      <trkpt lat="47.53798" lon="6.71188">
        <ele>402</ele>
        <time>2015-10-11T08:59:51.000Z</time>
      </trkpt>
      <trkpt lat="47.538" lon="6.71184">
        <ele>402</ele>
        <time>2015-10-11T08:59:52.000Z</time>
      </trkpt>
      <trkpt lat="47.53802" lon="6.71181">
        <ele>402</ele>
        <time>2015-10-11T08:59:53.000Z</time>
      </trkpt>
      <trkpt lat="47.53803" lon="6.71177">
        <ele>402</ele>
        <time>2015-10-11T08:59:54.000Z</time>
      </trkpt>
      <trkpt lat="47.53805" lon="6.71173">
        <ele>402</ele>
        <time>2015-10-11T08:59:55.000Z</time>
      </trkpt>
      <trkpt lat="47.53807" lon="6.7117">
        <ele>402</ele>
        <time>2015-10-11T08:59:56.000Z</time>
      </trkpt>
      <trkpt lat="47.53808" lon="6.71166">
        <ele>403</ele>
        <time>2015-10-11T08:59:57.000Z</time>
      </trkpt>
      <trkpt lat="47.5381" lon="6.71162">
        <ele>403</ele>
        <time>2015-10-11T08:59:58.000Z</time>
      </trkpt>
      <trkpt lat="47.53812" lon="6.71159">
        <ele>403</ele>
        <time>2015-10-11T08:59:59.000Z</time>
      </trkpt>
      <trkpt lat="47.53813" lon="6.71155">
        <ele>403</ele>
        <time>2015-10-11T09:00:00.000Z</time>
      </trkpt>
      <trkpt lat="47.53815" lon="6.71151">
        <ele>403</ele>
        <time>2015-10-11T09:00:01.000Z</time>
      </trkpt>
      <trkpt lat="47.53817" lon="6.71147">
        <ele>403</ele>
        <time>2015-10-11T09:00:02.000Z</time>
      </trkpt>
      <trkpt lat="47.53819" lon="6.71143">
        <ele>403</ele>
        <time>2015-10-11T09:00:03.000Z</time>
      </trkpt>
      <trkpt lat="47.53821" lon="6.71139">
        <ele>403</ele>
        <time>2015-10-11T09:00:04.000Z</time>
      </trkpt>
      <trkpt lat="47.53825" lon="6.71131">
        <ele>403</ele>
        <time>2015-10-11T09:00:06.000Z</time>
      </trkpt>
      <trkpt lat="47.53827" lon="6.71127">
        <ele>403</ele>
        <time>2015-10-11T09:00:07.000Z</time>
      </trkpt>
      <trkpt lat="47.53829" lon="6.71124">
        <ele>403</ele>
        <time>2015-10-11T09:00:08.000Z</time>
      </trkpt>
      <trkpt lat="47.5383" lon="6.7112">
        <ele>403</ele>
        <time>2015-10-11T09:00:09.000Z</time>
      </trkpt>
      <trkpt lat="47.53832" lon="6.71117">
        <ele>404</ele>
        <time>2015-10-11T09:00:10.000Z</time>
      </trkpt>
      <trkpt lat="47.53834" lon="6.71113">
        <ele>406</ele>
        <time>2015-10-11T09:00:11.000Z</time>
      </trkpt>
      <trkpt lat="47.53835" lon="6.7111">
        <ele>406</ele>
        <time>2015-10-11T09:00:12.000Z</time>
      </trkpt>
      <trkpt lat="47.53837" lon="6.71106">
        <ele>406</ele>
        <time>2015-10-11T09:00:13.000Z</time>
      </trkpt>
      <trkpt lat="47.53839" lon="6.71103">
        <ele>406</ele>
        <time>2015-10-11T09:00:14.000Z</time>
      </trkpt>
      <trkpt lat="47.5384" lon="6.711">
        <ele>406</ele>
        <time>2015-10-11T09:00:15.000Z</time>
      </trkpt>
      <trkpt lat="47.53841" lon="6.71097">
        <ele>406</ele>
        <time>2015-10-11T09:00:16.000Z</time>
      </trkpt>
      <trkpt lat="47.53844" lon="6.71092">
        <ele>406</ele>
        <time>2015-10-11T09:00:18.000Z</time>
      </trkpt>
      <trkpt lat="47.53845" lon="6.7109">
        <ele>406</ele>
        <time>2015-10-11T09:00:19.000Z</time>
      </trkpt>
      <trkpt lat="47.53848" lon="6.71086">
        <ele>406</ele>
        <time>2015-10-11T09:00:21.000Z</time>
      </trkpt>
      <trkpt lat="47.53849" lon="6.71083">
        <ele>408</ele>
        <time>2015-10-11T09:00:22.000Z</time>
      </trkpt>
      <trkpt lat="47.53851" lon="6.7108">
        <ele>408</ele>
        <time>2015-10-11T09:00:23.000Z</time>
      </trkpt>
      <trkpt lat="47.53853" lon="6.71077">
        <ele>408</ele>
        <time>2015-10-11T09:00:24.000Z</time>
      </trkpt>
      <trkpt lat="47.53854" lon="6.71074">
        <ele>408</ele>
        <time>2015-10-11T09:00:25.000Z</time>
      </trkpt>
      <trkpt lat="47.53854" lon="6.7107">
        <ele>408</ele>
        <time>2015-10-11T09:00:26.000Z</time>
      </trkpt>
      <trkpt lat="47.53854" lon="6.71066">
        <ele>408</ele>
        <time>2015-10-11T09:00:27.000Z</time>
      </trkpt>
      <trkpt lat="47.53853" lon="6.71061">
        <ele>408</ele>
        <time>2015-10-11T09:00:28.000Z</time>
      </trkpt>
      <trkpt lat="47.53851" lon="6.71056">
        <ele>408</ele>
        <time>2015-10-11T09:00:29.000Z</time>
      </trkpt>
      <trkpt lat="47.53849" lon="6.71051">
        <ele>408</ele>
        <time>2015-10-11T09:00:30.000Z</time>
      </trkpt>
      <trkpt lat="47.53846" lon="6.71045">
        <ele>408</ele>
        <time>2015-10-11T09:00:31.000Z</time>
      </trkpt>
      <trkpt lat="47.53844" lon="6.71041">
        <ele>409</ele>
        <time>2015-10-11T09:00:32.000Z</time>
      </trkpt>
      <trkpt lat="47.53836" lon="6.71034">
        <ele>409</ele>
        <time>2015-10-11T09:00:33.000Z</time>
      </trkpt>
      <trkpt lat="47.53832" lon="6.7103">
        <ele>405</ele>
        <time>2015-10-11T09:00:34.000Z</time>
      </trkpt>
      <trkpt lat="47.53829" lon="6.71024">
        <ele>406</ele>
        <time>2015-10-11T09:00:35.000Z</time>
      </trkpt>
      <trkpt lat="47.53827" lon="6.71017">
        <ele>406</ele>
        <time>2015-10-11T09:00:36.000Z</time>
      </trkpt>
      <trkpt lat="47.53824" lon="6.71013">
        <ele>406</ele>
        <time>2015-10-11T09:00:37.000Z</time>
      </trkpt>
      <trkpt lat="47.53822" lon="6.71007">
        <ele>407</ele>
        <time>2015-10-11T09:00:38.000Z</time>
      </trkpt>
      <trkpt lat="47.5382" lon="6.71002">
        <ele>407</ele>
        <time>2015-10-11T09:00:39.000Z</time>
      </trkpt>
      <trkpt lat="47.53818" lon="6.70996">
        <ele>408</ele>
        <time>2015-10-11T09:00:40.000Z</time>
      </trkpt>
      <trkpt lat="47.53817" lon="6.70991">
        <ele>407</ele>
        <time>2015-10-11T09:00:41.000Z</time>
      </trkpt>
      <trkpt lat="47.53816" lon="6.70986">
        <ele>407</ele>
        <time>2015-10-11T09:00:42.000Z</time>
      </trkpt>
      <trkpt lat="47.53817" lon="6.7098">
        <ele>407</ele>
        <time>2015-10-11T09:00:43.000Z</time>
      </trkpt>
      <trkpt lat="47.53816" lon="6.70974">
        <ele>407</ele>
        <time>2015-10-11T09:00:44.000Z</time>
      </trkpt>
      <trkpt lat="47.53816" lon="6.70967">
        <ele>407</ele>
        <time>2015-10-11T09:00:45.000Z</time>
      </trkpt>
      <trkpt lat="47.53815" lon="6.70961">
        <ele>407</ele>
        <time>2015-10-11T09:00:46.000Z</time>
      </trkpt>
      <trkpt lat="47.53811" lon="6.70952">
        <ele>407</ele>
        <time>2015-10-11T09:00:47.000Z</time>
      </trkpt>
      <trkpt lat="47.53807" lon="6.70943">
        <ele>408</ele>
        <time>2015-10-11T09:00:48.000Z</time>
      </trkpt>
      <trkpt lat="47.53804" lon="6.70935">
        <ele>408</ele>
        <time>2015-10-11T09:00:49.000Z</time>
      </trkpt>
      <trkpt lat="47.53802" lon="6.70928">
        <ele>408</ele>
        <time>2015-10-11T09:00:50.000Z</time>
      </trkpt>
      <trkpt lat="47.538" lon="6.70919">
        <ele>408</ele>
        <time>2015-10-11T09:00:51.000Z</time>
      </trkpt>
      <trkpt lat="47.53799" lon="6.7091">
        <ele>410</ele>
        <time>2015-10-11T09:00:52.000Z</time>
      </trkpt>
      <trkpt lat="47.53796" lon="6.70904">
        <ele>410</ele>
        <time>2015-10-11T09:00:53.000Z</time>
      </trkpt>
      <trkpt lat="47.53793" lon="6.70897">
        <ele>410</ele>
        <time>2015-10-11T09:00:54.000Z</time>
      </trkpt>
      <trkpt lat="47.53788" lon="6.70892">
        <ele>410</ele>
        <time>2015-10-11T09:00:55.000Z</time>
      </trkpt>
      <trkpt lat="47.53782" lon="6.70886">
        <ele>410</ele>
        <time>2015-10-11T09:00:56.000Z</time>
      </trkpt>
      <trkpt lat="47.53774" lon="6.70881">
        <ele>410</ele>
        <time>2015-10-11T09:00:57.000Z</time>
      </trkpt>
      <trkpt lat="47.53765" lon="6.70876">
        <ele>410</ele>
        <time>2015-10-11T09:00:58.000Z</time>
      </trkpt>
      <trkpt lat="47.53759" lon="6.70871">
        <ele>410</ele>
        <time>2015-10-11T09:00:59.000Z</time>
      </trkpt>
      <trkpt lat="47.53753" lon="6.70867">
        <ele>410</ele>
        <time>2015-10-11T09:01:00.000Z</time>
      </trkpt>
      <trkpt lat="47.53744" lon="6.70862">
        <ele>406</ele>
        <time>2015-10-11T09:01:01.000Z</time>
      </trkpt>
      <trkpt lat="47.53734" lon="6.70852">
        <ele>406</ele>
        <time>2015-10-11T09:01:02.000Z</time>
      </trkpt>
      <trkpt lat="47.53726" lon="6.70845">
        <ele>406</ele>
        <time>2015-10-11T09:01:03.000Z</time>
      </trkpt>
      <trkpt lat="47.5372" lon="6.70831">
        <ele>407</ele>
        <time>2015-10-11T09:01:04.000Z</time>
      </trkpt>
      <trkpt lat="47.53705" lon="6.70819">
        <ele>406</ele>
        <time>2015-10-11T09:01:06.000Z</time>
      </trkpt>
      <trkpt lat="47.53698" lon="6.70812">
        <ele>405</ele>
        <time>2015-10-11T09:01:07.000Z</time>
      </trkpt>
      <trkpt lat="47.53691" lon="6.70805">
        <ele>405</ele>
        <time>2015-10-11T09:01:08.000Z</time>
      </trkpt>
      <trkpt lat="47.53686" lon="6.708">
        <ele>405</ele>
        <time>2015-10-11T09:01:09.000Z</time>
      </trkpt>
      <trkpt lat="47.53681" lon="6.70794">
        <ele>405</ele>
        <time>2015-10-11T09:01:10.000Z</time>
      </trkpt>
      <trkpt lat="47.53669" lon="6.70788">
        <ele>404</ele>
        <time>2015-10-11T09:01:11.000Z</time>
      </trkpt>
      <trkpt lat="47.5366" lon="6.70782">
        <ele>401</ele>
        <time>2015-10-11T09:01:12.000Z</time>
      </trkpt>
      <trkpt lat="47.53654" lon="6.70774">
        <ele>401</ele>
        <time>2015-10-11T09:01:13.000Z</time>
      </trkpt>
      <trkpt lat="47.53648" lon="6.70766">
        <ele>401</ele>
        <time>2015-10-11T09:01:14.000Z</time>
      </trkpt>
      <trkpt lat="47.53641" lon="6.70758">
        <ele>401</ele>
        <time>2015-10-11T09:01:15.000Z</time>
      </trkpt>
      <trkpt lat="47.53633" lon="6.7075">
        <ele>401</ele>
        <time>2015-10-11T09:01:16.000Z</time>
      </trkpt>
      <trkpt lat="47.53626" lon="6.70746">
        <ele>404</ele>
        <time>2015-10-11T09:01:17.000Z</time>
      </trkpt>
      <trkpt lat="47.53621" lon="6.70742">
        <ele>404</ele>
        <time>2015-10-11T09:01:18.000Z</time>
      </trkpt>
      <trkpt lat="47.53617" lon="6.70737">
        <ele>404</ele>
        <time>2015-10-11T09:01:19.000Z</time>
      </trkpt>
      <trkpt lat="47.53614" lon="6.70732">
        <ele>404</ele>
        <time>2015-10-11T09:01:20.000Z</time>
      </trkpt>
      <trkpt lat="47.5361" lon="6.70728">
        <ele>404</ele>
        <time>2015-10-11T09:01:21.000Z</time>
      </trkpt>
      <trkpt lat="47.53608" lon="6.70725">
        <ele>404</ele>
        <time>2015-10-11T09:01:22.000Z</time>
      </trkpt>
      <trkpt lat="47.53605" lon="6.70723">
        <ele>404</ele>
        <time>2015-10-11T09:01:23.000Z</time>
      </trkpt>
      <trkpt lat="47.53601" lon="6.70717">
        <ele>404</ele>
        <time>2015-10-11T09:01:24.000Z</time>
      </trkpt>
      <trkpt lat="47.53599" lon="6.70713">
        <ele>405</ele>
        <time>2015-10-11T09:01:25.000Z</time>
      </trkpt>
      <trkpt lat="47.53597" lon="6.7071">
        <ele>405</ele>
        <time>2015-10-11T09:01:26.000Z</time>
      </trkpt>
      <trkpt lat="47.53595" lon="6.70708">
        <ele>405</ele>
        <time>2015-10-11T09:01:27.000Z</time>
      </trkpt>
      <trkpt lat="47.53592" lon="6.70707">
        <ele>405</ele>
        <time>2015-10-11T09:01:28.000Z</time>
      </trkpt>
      <trkpt lat="47.53589" lon="6.70704">
        <ele>405</ele>
        <time>2015-10-11T09:01:30.000Z</time>
      </trkpt>
      <trkpt lat="47.53588" lon="6.70703">
        <ele>405</ele>
        <time>2015-10-11T09:01:31.000Z</time>
      </trkpt>
      <trkpt lat="47.53585" lon="6.707">
        <ele>405</ele>
        <time>2015-10-11T09:01:33.000Z</time>
      </trkpt>
      <trkpt lat="47.53583" lon="6.70699">
        <ele>406</ele>
        <time>2015-10-11T09:01:34.000Z</time>
      </trkpt>
      <trkpt lat="47.5358" lon="6.70696">
        <ele>406</ele>
        <time>2015-10-11T09:01:36.000Z</time>
      </trkpt>
      <trkpt lat="47.53578" lon="6.70695">
        <ele>406</ele>
        <time>2015-10-11T09:01:37.000Z</time>
      </trkpt>
      <trkpt lat="47.53574" lon="6.70692">
        <ele>406</ele>
        <time>2015-10-11T09:01:39.000Z</time>
      </trkpt>
      <trkpt lat="47.53572" lon="6.7069">
        <ele>406</ele>
        <time>2015-10-11T09:01:40.000Z</time>
      </trkpt>
      <trkpt lat="47.5357" lon="6.70688">
        <ele>406</ele>
        <time>2015-10-11T09:01:41.000Z</time>
      </trkpt>
      <trkpt lat="47.53567" lon="6.70685">
        <ele>406</ele>
        <time>2015-10-11T09:01:42.000Z</time>
      </trkpt>
      <trkpt lat="47.53565" lon="6.70683">
        <ele>406</ele>
        <time>2015-10-11T09:01:43.000Z</time>
      </trkpt>
      <trkpt lat="47.53563" lon="6.70681">
        <ele>406</ele>
        <time>2015-10-11T09:01:44.000Z</time>
      </trkpt>
      <trkpt lat="47.53561" lon="6.70679">
        <ele>406</ele>
        <time>2015-10-11T09:01:45.000Z</time>
      </trkpt>
      <trkpt lat="47.53558" lon="6.70678">
        <ele>406</ele>
        <time>2015-10-11T09:01:46.000Z</time>
      </trkpt>
      <trkpt lat="47.53555" lon="6.70677">
        <ele>406</ele>
        <time>2015-10-11T09:01:47.000Z</time>
      </trkpt>
      <trkpt lat="47.53552" lon="6.70677">
        <ele>406</ele>
        <time>2015-10-11T09:01:48.000Z</time>
      </trkpt>
      <trkpt lat="47.53549" lon="6.70676">
        <ele>406</ele>
        <time>2015-10-11T09:01:49.000Z</time>
      </trkpt>
      <trkpt lat="47.53547" lon="6.70675">
        <ele>406</ele>
        <time>2015-10-11T09:01:50.000Z</time>
      </trkpt>
      <trkpt lat="47.53544" lon="6.70674">
        <ele>406</ele>
        <time>2015-10-11T09:01:51.000Z</time>
      </trkpt>
      <trkpt lat="47.53542" lon="6.70672">
        <ele>406</ele>
        <time>2015-10-11T09:01:52.000Z</time>
      </trkpt>
      <trkpt lat="47.5354" lon="6.7067">
        <ele>406</ele>
        <time>2015-10-11T09:01:53.000Z</time>
      </trkpt>
      <trkpt lat="47.53537" lon="6.70668">
        <ele>406</ele>
        <time>2015-10-11T09:01:54.000Z</time>
      </trkpt>
      <trkpt lat="47.53535" lon="6.70666">
        <ele>410</ele>
        <time>2015-10-11T09:01:55.000Z</time>
      </trkpt>
      <trkpt lat="47.53533" lon="6.70664">
        <ele>410</ele>
        <time>2015-10-11T09:01:56.000Z</time>
      </trkpt>
      <trkpt lat="47.53531" lon="6.70663">
        <ele>410</ele>
        <time>2015-10-11T09:01:57.000Z</time>
      </trkpt>
      <trkpt lat="47.53528" lon="6.70661">
        <ele>410</ele>
        <time>2015-10-11T09:01:58.000Z</time>
      </trkpt>
      <trkpt lat="47.53525" lon="6.70659">
        <ele>410</ele>
        <time>2015-10-11T09:01:59.000Z</time>
      </trkpt>
      <trkpt lat="47.53522" lon="6.70657">
        <ele>410</ele>
        <time>2015-10-11T09:02:00.000Z</time>
      </trkpt>
      <trkpt lat="47.53519" lon="6.70655">
        <ele>410</ele>
        <time>2015-10-11T09:02:01.000Z</time>
      </trkpt>
      <trkpt lat="47.53515" lon="6.70653">
        <ele>410</ele>
        <time>2015-10-11T09:02:02.000Z</time>
      </trkpt>
      <trkpt lat="47.53513" lon="6.70651">
        <ele>410</ele>
        <time>2015-10-11T09:02:03.000Z</time>
      </trkpt>
      <trkpt lat="47.5351" lon="6.7065">
        <ele>410</ele>
        <time>2015-10-11T09:02:04.000Z</time>
      </trkpt>
      <trkpt lat="47.53507" lon="6.70648">
        <ele>410</ele>
        <time>2015-10-11T09:02:05.000Z</time>
      </trkpt>
      <trkpt lat="47.53505" lon="6.70646">
        <ele>410</ele>
        <time>2015-10-11T09:02:06.000Z</time>
      </trkpt>
      <trkpt lat="47.53502" lon="6.70645">
        <ele>410</ele>
        <time>2015-10-11T09:02:07.000Z</time>
      </trkpt>
      <trkpt lat="47.535" lon="6.70643">
        <ele>409</ele>
        <time>2015-10-11T09:02:08.000Z</time>
      </trkpt>
      <trkpt lat="47.53497" lon="6.70642">
        <ele>409</ele>
        <time>2015-10-11T09:02:09.000Z</time>
      </trkpt>
      <trkpt lat="47.53494" lon="6.7064">
        <ele>409</ele>
        <time>2015-10-11T09:02:10.000Z</time>
      </trkpt>
      <trkpt lat="47.53492" lon="6.70637">
        <ele>409</ele>
        <time>2015-10-11T09:02:11.000Z</time>
      </trkpt>
      <trkpt lat="47.53488" lon="6.70635">
        <ele>409</ele>
        <time>2015-10-11T09:02:12.000Z</time>
      </trkpt>
      <trkpt lat="47.53484" lon="6.70633">
        <ele>409</ele>
        <time>2015-10-11T09:02:13.000Z</time>
      </trkpt>
      <trkpt lat="47.5348" lon="6.70632">
        <ele>409</ele>
        <time>2015-10-11T09:02:14.000Z</time>
      </trkpt>
      <trkpt lat="47.53477" lon="6.7063">
        <ele>409</ele>
        <time>2015-10-11T09:02:15.000Z</time>
      </trkpt>
      <trkpt lat="47.53473" lon="6.70628">
        <ele>409</ele>
        <time>2015-10-11T09:02:16.000Z</time>
      </trkpt>
      <trkpt lat="47.5347" lon="6.70626">
        <ele>409</ele>
        <time>2015-10-11T09:02:17.000Z</time>
      </trkpt>
      <trkpt lat="47.53467" lon="6.70624">
        <ele>409</ele>
        <time>2015-10-11T09:02:18.000Z</time>
      </trkpt>
      <trkpt lat="47.53464" lon="6.70623">
        <ele>409</ele>
        <time>2015-10-11T09:02:19.000Z</time>
      </trkpt>
      <trkpt lat="47.53462" lon="6.70621">
        <ele>409</ele>
        <time>2015-10-11T09:02:20.000Z</time>
      </trkpt>
      <trkpt lat="47.53459" lon="6.70619">
        <ele>409</ele>
        <time>2015-10-11T09:02:21.000Z</time>
      </trkpt>
      <trkpt lat="47.53457" lon="6.70617">
        <ele>409</ele>
        <time>2015-10-11T09:02:22.000Z</time>
      </trkpt>
      <trkpt lat="47.53455" lon="6.70615">
        <ele>410</ele>
        <time>2015-10-11T09:02:23.000Z</time>
      </trkpt>
      <trkpt lat="47.53452" lon="6.70612">
        <ele>410</ele>
        <time>2015-10-11T09:02:24.000Z</time>
      </trkpt>
      <trkpt lat="47.53449" lon="6.7061">
        <ele>410</ele>
        <time>2015-10-11T09:02:25.000Z</time>
      </trkpt>
      <trkpt lat="47.53446" lon="6.70608">
        <ele>410</ele>
        <time>2015-10-11T09:02:26.000Z</time>
      </trkpt>
      <trkpt lat="47.53443" lon="6.70607">
        <ele>410</ele>
        <time>2015-10-11T09:02:27.000Z</time>
      </trkpt>
      <trkpt lat="47.53441" lon="6.70605">
        <ele>410</ele>
        <time>2015-10-11T09:02:28.000Z</time>
      </trkpt>
      <trkpt lat="47.53437" lon="6.70603">
        <ele>410</ele>
        <time>2015-10-11T09:02:29.000Z</time>
      </trkpt>
      <trkpt lat="47.53434" lon="6.70601">
        <ele>410</ele>
        <time>2015-10-11T09:02:30.000Z</time>
      </trkpt>
      <trkpt lat="47.53431" lon="6.70599">
        <ele>410</ele>
        <time>2015-10-11T09:02:31.000Z</time>
      </trkpt>
      <trkpt lat="47.53428" lon="6.70596">
        <ele>410</ele>
        <time>2015-10-11T09:02:32.000Z</time>
      </trkpt>
      <trkpt lat="47.53424" lon="6.70594">
        <ele>410</ele>
        <time>2015-10-11T09:02:33.000Z</time>
      </trkpt>
      <trkpt lat="47.5342" lon="6.70591">
        <ele>410</ele>
        <time>2015-10-11T09:02:34.000Z</time>
      </trkpt>
      <trkpt lat="47.53417" lon="6.70588">
        <ele>410</ele>
        <time>2015-10-11T09:02:35.000Z</time>
      </trkpt>
      <trkpt lat="47.53413" lon="6.70586">
        <ele>410</ele>
        <time>2015-10-11T09:02:36.000Z</time>
      </trkpt>
      <trkpt lat="47.53409" lon="6.70582">
        <ele>410</ele>
        <time>2015-10-11T09:02:37.000Z</time>
      </trkpt>
      <trkpt lat="47.53405" lon="6.70577">
        <ele>410</ele>
        <time>2015-10-11T09:02:38.000Z</time>
      </trkpt>
      <trkpt lat="47.53401" lon="6.70573">
        <ele>411</ele>
        <time>2015-10-11T09:02:39.000Z</time>
      </trkpt>
      <trkpt lat="47.53397" lon="6.7057">
        <ele>411</ele>
        <time>2015-10-11T09:02:40.000Z</time>
      </trkpt>
      <trkpt lat="47.53394" lon="6.70567">
        <ele>411</ele>
        <time>2015-10-11T09:02:41.000Z</time>
      </trkpt>
      <trkpt lat="47.53391" lon="6.70564">
        <ele>411</ele>
        <time>2015-10-11T09:02:42.000Z</time>
      </trkpt>
      <trkpt lat="47.53388" lon="6.70561">
        <ele>411</ele>
        <time>2015-10-11T09:02:43.000Z</time>
      </trkpt>
      <trkpt lat="47.53384" lon="6.70558">
        <ele>411</ele>
        <time>2015-10-11T09:02:44.000Z</time>
      </trkpt>
      <trkpt lat="47.53381" lon="6.70555">
        <ele>411</ele>
        <time>2015-10-11T09:02:45.000Z</time>
      </trkpt>
      <trkpt lat="47.53377" lon="6.70552">
        <ele>411</ele>
        <time>2015-10-11T09:02:46.000Z</time>
      </trkpt>
      <trkpt lat="47.53373" lon="6.70549">
        <ele>411</ele>
        <time>2015-10-11T09:02:47.000Z</time>
      </trkpt>
      <trkpt lat="47.53369" lon="6.70545">
        <ele>411</ele>
        <time>2015-10-11T09:02:48.000Z</time>
      </trkpt>
      <trkpt lat="47.53366" lon="6.70542">
        <ele>411</ele>
        <time>2015-10-11T09:02:49.000Z</time>
      </trkpt>
      <trkpt lat="47.53362" lon="6.70539">
        <ele>411</ele>
        <time>2015-10-11T09:02:50.000Z</time>
      </trkpt>
      <trkpt lat="47.53358" lon="6.70536">
        <ele>411</ele>
        <time>2015-10-11T09:02:51.000Z</time>
      </trkpt>
      <trkpt lat="47.53355" lon="6.70533">
        <ele>411</ele>
        <time>2015-10-11T09:02:52.000Z</time>
      </trkpt>
      <trkpt lat="47.53351" lon="6.70531">
        <ele>411</ele>
        <time>2015-10-11T09:02:53.000Z</time>
      </trkpt>
      <trkpt lat="47.53348" lon="6.70528">
        <ele>411</ele>
        <time>2015-10-11T09:02:54.000Z</time>
      </trkpt>
      <trkpt lat="47.53345" lon="6.70526">
        <ele>411</ele>
        <time>2015-10-11T09:02:55.000Z</time>
      </trkpt>
      <trkpt lat="47.53342" lon="6.70524">
        <ele>411</ele>
        <time>2015-10-11T09:02:56.000Z</time>
      </trkpt>
      <trkpt lat="47.53339" lon="6.70522">
        <ele>411</ele>
        <time>2015-10-11T09:02:57.000Z</time>
      </trkpt>
      <trkpt lat="47.53336" lon="6.70519">
        <ele>411</ele>
        <time>2015-10-11T09:02:58.000Z</time>
      </trkpt>
      <trkpt lat="47.53333" lon="6.70517">
        <ele>411</ele>
        <time>2015-10-11T09:02:59.000Z</time>
      </trkpt>
      <trkpt lat="47.53331" lon="6.70514">
        <ele>411</ele>
        <time>2015-10-11T09:03:00.000Z</time>
      </trkpt>
      <trkpt lat="47.53328" lon="6.7051">
        <ele>411</ele>
        <time>2015-10-11T09:03:01.000Z</time>
      </trkpt>
      <trkpt lat="47.53325" lon="6.70506">
        <ele>411</ele>
        <time>2015-10-11T09:03:02.000Z</time>
      </trkpt>
      <trkpt lat="47.53322" lon="6.70501">
        <ele>411</ele>
        <time>2015-10-11T09:03:03.000Z</time>
      </trkpt>
      <trkpt lat="47.53319" lon="6.70497">
        <ele>410</ele>
        <time>2015-10-11T09:03:04.000Z</time>
      </trkpt>
      <trkpt lat="47.53316" lon="6.70493">
        <ele>410</ele>
        <time>2015-10-11T09:03:05.000Z</time>
      </trkpt>
      <trkpt lat="47.53313" lon="6.70489">
        <ele>410</ele>
        <time>2015-10-11T09:03:06.000Z</time>
      </trkpt>
      <trkpt lat="47.5331" lon="6.70485">
        <ele>410</ele>
        <time>2015-10-11T09:03:07.000Z</time>
      </trkpt>
      <trkpt lat="47.53307" lon="6.70481">
        <ele>410</ele>
        <time>2015-10-11T09:03:08.000Z</time>
      </trkpt>
      <trkpt lat="47.53304" lon="6.70477">
        <ele>410</ele>
        <time>2015-10-11T09:03:09.000Z</time>
      </trkpt>
      <trkpt lat="47.53301" lon="6.70474">
        <ele>410</ele>
        <time>2015-10-11T09:03:10.000Z</time>
      </trkpt>
      <trkpt lat="47.53299" lon="6.7047">
        <ele>410</ele>
        <time>2015-10-11T09:03:11.000Z</time>
      </trkpt>
      <trkpt lat="47.53296" lon="6.70466">
        <ele>409</ele>
        <time>2015-10-11T09:03:12.000Z</time>
      </trkpt>
      <trkpt lat="47.53289" lon="6.70451">
        <ele>409</ele>
        <time>2015-10-11T09:03:13.000Z</time>
      </trkpt>
      <trkpt lat="47.53286" lon="6.70444">
        <ele>409</ele>
        <time>2015-10-11T09:03:14.000Z</time>
      </trkpt>
      <trkpt lat="47.53283" lon="6.70438">
        <ele>409</ele>
        <time>2015-10-11T09:03:15.000Z</time>
      </trkpt>
      <trkpt lat="47.5328" lon="6.70433">
        <ele>408</ele>
        <time>2015-10-11T09:03:16.000Z</time>
      </trkpt>
      <trkpt lat="47.53277" lon="6.70431">
        <ele>408</ele>
        <time>2015-10-11T09:03:17.000Z</time>
      </trkpt>
      <trkpt lat="47.53273" lon="6.70426">
        <ele>408</ele>
        <time>2015-10-11T09:03:18.000Z</time>
      </trkpt>
      <trkpt lat="47.53269" lon="6.70422">
        <ele>408</ele>
        <time>2015-10-11T09:03:19.000Z</time>
      </trkpt>
      <trkpt lat="47.53265" lon="6.70415">
        <ele>405</ele>
        <time>2015-10-11T09:03:20.000Z</time>
      </trkpt>
      <trkpt lat="47.5326" lon="6.70409">
        <ele>405</ele>
        <time>2015-10-11T09:03:21.000Z</time>
      </trkpt>
      <trkpt lat="47.53256" lon="6.70403">
        <ele>405</ele>
        <time>2015-10-11T09:03:22.000Z</time>
      </trkpt>
      <trkpt lat="47.53252" lon="6.704">
        <ele>404</ele>
        <time>2015-10-11T09:03:23.000Z</time>
      </trkpt>
      <trkpt lat="47.53247" lon="6.704">
        <ele>401</ele>
        <time>2015-10-11T09:03:24.000Z</time>
      </trkpt>
      <trkpt lat="47.53243" lon="6.70399">
        <ele>401</ele>
        <time>2015-10-11T09:03:25.000Z</time>
      </trkpt>
      <trkpt lat="47.53238" lon="6.704">
        <ele>400</ele>
        <time>2015-10-11T09:03:26.000Z</time>
      </trkpt>
      <trkpt lat="47.53231" lon="6.70403">
        <ele>400</ele>
        <time>2015-10-11T09:03:27.000Z</time>
      </trkpt>
      <trkpt lat="47.53225" lon="6.70407">
        <ele>399</ele>
        <time>2015-10-11T09:03:28.000Z</time>
      </trkpt>
      <trkpt lat="47.53219" lon="6.70412">
        <ele>399</ele>
        <time>2015-10-11T09:03:29.000Z</time>
      </trkpt>
      <trkpt lat="47.53214" lon="6.70416">
        <ele>398</ele>
        <time>2015-10-11T09:03:30.000Z</time>
      </trkpt>
      <trkpt lat="47.53206" lon="6.7042">
        <ele>403</ele>
        <time>2015-10-11T09:03:31.000Z</time>
      </trkpt>
      <trkpt lat="47.532" lon="6.70424">
        <ele>402</ele>
        <time>2015-10-11T09:03:32.000Z</time>
      </trkpt>
      <trkpt lat="47.53192" lon="6.70425">
        <ele>401</ele>
        <time>2015-10-11T09:03:33.000Z</time>
      </trkpt>
      <trkpt lat="47.53184" lon="6.70429">
        <ele>401</ele>
        <time>2015-10-11T09:03:34.000Z</time>
      </trkpt>
      <trkpt lat="47.53177" lon="6.70432">
        <ele>400</ele>
        <time>2015-10-11T09:03:35.000Z</time>
      </trkpt>
      <trkpt lat="47.53171" lon="6.70438">
        <ele>400</ele>
        <time>2015-10-11T09:03:36.000Z</time>
      </trkpt>
      <trkpt lat="47.53164" lon="6.70443">
        <ele>394</ele>
        <time>2015-10-11T09:03:37.000Z</time>
      </trkpt>
      <trkpt lat="47.53156" lon="6.70451">
        <ele>394</ele>
        <time>2015-10-11T09:03:38.000Z</time>
      </trkpt>
      <trkpt lat="47.53149" lon="6.70458">
        <ele>394</ele>
        <time>2015-10-11T09:03:39.000Z</time>
      </trkpt>
      <trkpt lat="47.53141" lon="6.70465">
        <ele>394</ele>
        <time>2015-10-11T09:03:40.000Z</time>
      </trkpt>
      <trkpt lat="47.53133" lon="6.7047">
        <ele>394</ele>
        <time>2015-10-11T09:03:41.000Z</time>
      </trkpt>
      <trkpt lat="47.53125" lon="6.70477">
        <ele>393</ele>
        <time>2015-10-11T09:03:42.000Z</time>
      </trkpt>
      <trkpt lat="47.53118" lon="6.70484">
        <ele>393</ele>
        <time>2015-10-11T09:03:43.000Z</time>
      </trkpt>
      <trkpt lat="47.53112" lon="6.70492">
        <ele>392</ele>
        <time>2015-10-11T09:03:44.000Z</time>
      </trkpt>
      <trkpt lat="47.53104" lon="6.70498">
        <ele>392</ele>
        <time>2015-10-11T09:03:45.000Z</time>
      </trkpt>
      <trkpt lat="47.53098" lon="6.70501">
        <ele>394</ele>
        <time>2015-10-11T09:03:46.000Z</time>
      </trkpt>
      <trkpt lat="47.53088" lon="6.70503">
        <ele>392</ele>
        <time>2015-10-11T09:03:47.000Z</time>
      </trkpt>
      <trkpt lat="47.53082" lon="6.70502">
        <ele>390</ele>
        <time>2015-10-11T09:03:48.000Z</time>
      </trkpt>
      <trkpt lat="47.53076" lon="6.705">
        <ele>389</ele>
        <time>2015-10-11T09:03:49.000Z</time>
      </trkpt>
      <trkpt lat="47.53066" lon="6.70499">
        <ele>384</ele>
        <time>2015-10-11T09:03:50.000Z</time>
      </trkpt>
      <trkpt lat="47.53052" lon="6.70496">
        <ele>380</ele>
        <time>2015-10-11T09:03:51.000Z</time>
      </trkpt>
      <trkpt lat="47.53041" lon="6.70493">
        <ele>379</ele>
        <time>2015-10-11T09:03:52.000Z</time>
      </trkpt>
      <trkpt lat="47.53032" lon="6.70492">
        <ele>377</ele>
        <time>2015-10-11T09:03:53.000Z</time>
      </trkpt>
      <trkpt lat="47.53025" lon="6.7049">
        <ele>376</ele>
        <time>2015-10-11T09:03:54.000Z</time>
      </trkpt>
      <trkpt lat="47.53015" lon="6.70489">
        <ele>375</ele>
        <time>2015-10-11T09:03:55.000Z</time>
      </trkpt>
      <trkpt lat="47.53008" lon="6.70486">
        <ele>375</ele>
        <time>2015-10-11T09:03:56.000Z</time>
      </trkpt>
      <trkpt lat="47.53001" lon="6.70485">
        <ele>375</ele>
        <time>2015-10-11T09:03:57.000Z</time>
      </trkpt>
      <trkpt lat="47.52993" lon="6.70482">
        <ele>368</ele>
        <time>2015-10-11T09:03:58.000Z</time>
      </trkpt>
      <trkpt lat="47.52986" lon="6.7048">
        <ele>367</ele>
        <time>2015-10-11T09:03:59.000Z</time>
      </trkpt>
      <trkpt lat="47.52978" lon="6.70477">
        <ele>366</ele>
        <time>2015-10-11T09:04:00.000Z</time>
      </trkpt>
      <trkpt lat="47.52972" lon="6.70476">
        <ele>365</ele>
        <time>2015-10-11T09:04:01.000Z</time>
      </trkpt>
      <trkpt lat="47.52962" lon="6.70473">
        <ele>364</ele>
        <time>2015-10-11T09:04:02.000Z</time>
      </trkpt>
      <trkpt lat="47.52954" lon="6.70469">
        <ele>363</ele>
        <time>2015-10-11T09:04:03.000Z</time>
      </trkpt>
      <trkpt lat="47.52946" lon="6.70467">
        <ele>363</ele>
        <time>2015-10-11T09:04:04.000Z</time>
      </trkpt>
      <trkpt lat="47.52938" lon="6.70466">
        <ele>362</ele>
        <time>2015-10-11T09:04:05.000Z</time>
      </trkpt>
      <trkpt lat="47.5293" lon="6.70464">
        <ele>362</ele>
        <time>2015-10-11T09:04:06.000Z</time>
      </trkpt>
      <trkpt lat="47.52918" lon="6.70464">
        <ele>361</ele>
        <time>2015-10-11T09:04:07.000Z</time>
      </trkpt>
      <trkpt lat="47.52906" lon="6.70463">
        <ele>354</ele>
        <time>2015-10-11T09:04:08.000Z</time>
      </trkpt>
      <trkpt lat="47.52894" lon="6.70459">
        <ele>353</ele>
        <time>2015-10-11T09:04:09.000Z</time>
      </trkpt>
      <trkpt lat="47.52883" lon="6.70458">
        <ele>353</ele>
        <time>2015-10-11T09:04:10.000Z</time>
      </trkpt>
      <trkpt lat="47.52874" lon="6.70456">
        <ele>352</ele>
        <time>2015-10-11T09:04:11.000Z</time>
      </trkpt>
      <trkpt lat="47.52865" lon="6.70454">
        <ele>352</ele>
        <time>2015-10-11T09:04:12.000Z</time>
      </trkpt>
      <trkpt lat="47.52858" lon="6.70453">
        <ele>351</ele>
        <time>2015-10-11T09:04:13.000Z</time>
      </trkpt>
      <trkpt lat="47.52849" lon="6.70452">
        <ele>351</ele>
        <time>2015-10-11T09:04:14.000Z</time>
      </trkpt>
      <trkpt lat="47.52839" lon="6.70447">
        <ele>350</ele>
        <time>2015-10-11T09:04:15.000Z</time>
      </trkpt>
      <trkpt lat="47.52834" lon="6.70448">
        <ele>350</ele>
        <time>2015-10-11T09:04:16.000Z</time>
      </trkpt>
      <trkpt lat="47.52831" lon="6.70447">
        <ele>346</ele>
        <time>2015-10-11T09:04:17.000Z</time>
      </trkpt>
      <trkpt lat="47.52835" lon="6.70449">
        <ele>350</ele>
        <time>2015-10-11T09:04:24.000Z</time>
      </trkpt>
      <trkpt lat="47.52835" lon="6.70449">
        <ele>350</ele>
        <time>2015-10-11T09:04:25.000Z</time>
      </trkpt>
      <trkpt lat="47.52836" lon="6.70456">
        <ele>350</ele>
        <time>2015-10-11T09:04:32.000Z</time>
      </trkpt>
      <trkpt lat="47.52836" lon="6.70457">
        <ele>350</ele>
        <time>2015-10-11T09:04:33.000Z</time>
      </trkpt>
      <trkpt lat="47.52837" lon="6.70462">
        <ele>351</ele>
        <time>2015-10-11T09:04:37.000Z</time>
      </trkpt>
      <trkpt lat="47.52837" lon="6.70464">
        <ele>351</ele>
        <time>2015-10-11T09:04:38.000Z</time>
      </trkpt>
      <trkpt lat="47.52839" lon="6.70469">
        <ele>351</ele>
        <time>2015-10-11T09:04:45.000Z</time>
      </trkpt>
      <trkpt lat="47.52839" lon="6.7047">
        <ele>351</ele>
        <time>2015-10-11T09:04:46.000Z</time>
      </trkpt>
      <trkpt lat="47.52841" lon="6.70475">
        <ele>351</ele>
        <time>2015-10-11T09:04:49.000Z</time>
      </trkpt>
      <trkpt lat="47.52842" lon="6.70477">
        <ele>351</ele>
        <time>2015-10-11T09:04:50.000Z</time>
      </trkpt>
      <trkpt lat="47.52843" lon="6.70482">
        <ele>351</ele>
        <time>2015-10-11T09:04:52.000Z</time>
      </trkpt>
      <trkpt lat="47.52844" lon="6.70484">
        <ele>351</ele>
        <time>2015-10-11T09:04:53.000Z</time>
      </trkpt>
      <trkpt lat="47.52845" lon="6.70488">
        <ele>351</ele>
        <time>2015-10-11T09:04:55.000Z</time>
      </trkpt>
      <trkpt lat="47.52846" lon="6.7049">
        <ele>351</ele>
        <time>2015-10-11T09:04:56.000Z</time>
      </trkpt>
      <trkpt lat="47.52847" lon="6.70494">
        <ele>351</ele>
        <time>2015-10-11T09:04:58.000Z</time>
      </trkpt>
      <trkpt lat="47.52848" lon="6.70496">
        <ele>351</ele>
        <time>2015-10-11T09:04:59.000Z</time>
      </trkpt>
      <trkpt lat="47.52849" lon="6.70502">
        <ele>353</ele>
        <time>2015-10-11T09:05:01.000Z</time>
      </trkpt>
      <trkpt lat="47.52849" lon="6.70504">
        <ele>353</ele>
        <time>2015-10-11T09:05:02.000Z</time>
      </trkpt>
      <trkpt lat="47.5285" lon="6.7051">
        <ele>353</ele>
        <time>2015-10-11T09:05:04.000Z</time>
      </trkpt>
      <trkpt lat="47.52851" lon="6.70513">
        <ele>354</ele>
        <time>2015-10-11T09:05:05.000Z</time>
      </trkpt>
      <trkpt lat="47.52851" lon="6.70519">
        <ele>354</ele>
        <time>2015-10-11T09:05:07.000Z</time>
      </trkpt>
      <trkpt lat="47.52852" lon="6.70522">
        <ele>354</ele>
        <time>2015-10-11T09:05:08.000Z</time>
      </trkpt>
      <trkpt lat="47.52852" lon="6.70526">
        <ele>355</ele>
        <time>2015-10-11T09:05:09.000Z</time>
      </trkpt>
      <trkpt lat="47.52852" lon="6.7053">
        <ele>355</ele>
        <time>2015-10-11T09:05:10.000Z</time>
      </trkpt>
      <trkpt lat="47.52853" lon="6.70534">
        <ele>355</ele>
        <time>2015-10-11T09:05:11.000Z</time>
      </trkpt>
      <trkpt lat="47.52853" lon="6.70537">
        <ele>355</ele>
        <time>2015-10-11T09:05:12.000Z</time>
      </trkpt>
      <trkpt lat="47.52854" lon="6.70541">
        <ele>355</ele>
        <time>2015-10-11T09:05:13.000Z</time>
      </trkpt>
      <trkpt lat="47.52854" lon="6.70546">
        <ele>355</ele>
        <time>2015-10-11T09:05:14.000Z</time>
      </trkpt>
      <trkpt lat="47.52854" lon="6.70551">
        <ele>355</ele>
        <time>2015-10-11T09:05:15.000Z</time>
      </trkpt>
      <trkpt lat="47.52852" lon="6.70555">
        <ele>355</ele>
        <time>2015-10-11T09:05:16.000Z</time>
      </trkpt>
      <trkpt lat="47.52848" lon="6.70559">
        <ele>355</ele>
        <time>2015-10-11T09:05:17.000Z</time>
      </trkpt>
      <trkpt lat="47.52844" lon="6.7056">
        <ele>354</ele>
        <time>2015-10-11T09:05:18.000Z</time>
      </trkpt>
      <trkpt lat="47.52838" lon="6.70561">
        <ele>354</ele>
        <time>2015-10-11T09:05:19.000Z</time>
      </trkpt>
      <trkpt lat="47.52833" lon="6.70562">
        <ele>349</ele>
        <time>2015-10-11T09:05:20.000Z</time>
      </trkpt>
      <trkpt lat="47.52827" lon="6.70562">
        <ele>349</ele>
        <time>2015-10-11T09:05:21.000Z</time>
      </trkpt>
      <trkpt lat="47.52815" lon="6.70558">
        <ele>349</ele>
        <time>2015-10-11T09:05:22.000Z</time>
      </trkpt>
      <trkpt lat="47.52811" lon="6.70557">
        <ele>349</ele>
        <time>2015-10-11T09:05:23.000Z</time>
      </trkpt>
      <trkpt lat="47.52808" lon="6.70554">
        <ele>348</ele>
        <time>2015-10-11T09:05:24.000Z</time>
      </trkpt>
      <trkpt lat="47.52805" lon="6.70553">
        <ele>348</ele>
        <time>2015-10-11T09:05:25.000Z</time>
      </trkpt>
      <trkpt lat="47.52802" lon="6.70551">
        <ele>348</ele>
        <time>2015-10-11T09:05:26.000Z</time>
      </trkpt>
      <trkpt lat="47.52797" lon="6.7055">
        <ele>348</ele>
        <time>2015-10-11T09:05:27.000Z</time>
      </trkpt>
      <trkpt lat="47.52795" lon="6.70551">
        <ele>348</ele>
        <time>2015-10-11T09:05:28.000Z</time>
      </trkpt>
      <trkpt lat="47.52792" lon="6.7055">
        <ele>348</ele>
        <time>2015-10-11T09:05:29.000Z</time>
      </trkpt>
      <trkpt lat="47.52789" lon="6.70551">
        <ele>348</ele>
        <time>2015-10-11T09:05:30.000Z</time>
      </trkpt>
      <trkpt lat="47.52785" lon="6.70555">
        <ele>348</ele>
        <time>2015-10-11T09:05:31.000Z</time>
      </trkpt>
      <trkpt lat="47.52787" lon="6.7056">
        <ele>348</ele>
        <time>2015-10-11T09:05:32.000Z</time>
      </trkpt>
      <trkpt lat="47.52785" lon="6.70562">
        <ele>348</ele>
        <time>2015-10-11T09:05:33.000Z</time>
      </trkpt>
      <trkpt lat="47.52786" lon="6.70566">
        <ele>348</ele>
        <time>2015-10-11T09:05:34.000Z</time>
      </trkpt>
      <trkpt lat="47.52786" lon="6.70571">
        <ele>348</ele>
        <time>2015-10-11T09:05:35.000Z</time>
      </trkpt>
      <trkpt lat="47.52787" lon="6.70575">
        <ele>348</ele>
        <time>2015-10-11T09:05:36.000Z</time>
      </trkpt>
      <trkpt lat="47.52787" lon="6.70579">
        <ele>348</ele>
        <time>2015-10-11T09:05:37.000Z</time>
      </trkpt>
      <trkpt lat="47.52786" lon="6.70582">
        <ele>348</ele>
        <time>2015-10-11T09:05:38.000Z</time>
      </trkpt>
      <trkpt lat="47.52785" lon="6.70585">
        <ele>350</ele>
        <time>2015-10-11T09:05:39.000Z</time>
      </trkpt>
      <trkpt lat="47.52783" lon="6.70591">
        <ele>350</ele>
        <time>2015-10-11T09:05:41.000Z</time>
      </trkpt>
      <trkpt lat="47.52782" lon="6.70593">
        <ele>350</ele>
        <time>2015-10-11T09:05:42.000Z</time>
      </trkpt>
      <trkpt lat="47.52778" lon="6.70595">
        <ele>350</ele>
        <time>2015-10-11T09:05:44.000Z</time>
      </trkpt>
      <trkpt lat="47.52775" lon="6.70595">
        <ele>350</ele>
        <time>2015-10-11T09:05:45.000Z</time>
      </trkpt>
      <trkpt lat="47.52772" lon="6.70595">
        <ele>350</ele>
        <time>2015-10-11T09:05:46.000Z</time>
      </trkpt>
      <trkpt lat="47.52769" lon="6.70595">
        <ele>350</ele>
        <time>2015-10-11T09:05:47.000Z</time>
      </trkpt>
      <trkpt lat="47.52766" lon="6.70594">
        <ele>350</ele>
        <time>2015-10-11T09:05:48.000Z</time>
      </trkpt>
      <trkpt lat="47.52762" lon="6.70594">
        <ele>350</ele>
        <time>2015-10-11T09:05:49.000Z</time>
      </trkpt>
      <trkpt lat="47.52759" lon="6.70594">
        <ele>349</ele>
        <time>2015-10-11T09:05:50.000Z</time>
      </trkpt>
      <trkpt lat="47.52755" lon="6.70594">
        <ele>349</ele>
        <time>2015-10-11T09:05:51.000Z</time>
      </trkpt>
      <trkpt lat="47.52753" lon="6.70595">
        <ele>349</ele>
        <time>2015-10-11T09:05:52.000Z</time>
      </trkpt>
      <trkpt lat="47.52752" lon="6.70599">
        <ele>350</ele>
        <time>2015-10-11T09:05:53.000Z</time>
      </trkpt>
      <trkpt lat="47.52751" lon="6.70605">
        <ele>350</ele>
        <time>2015-10-11T09:05:54.000Z</time>
      </trkpt>
      <trkpt lat="47.52752" lon="6.70611">
        <ele>350</ele>
        <time>2015-10-11T09:05:55.000Z</time>
      </trkpt>
      <trkpt lat="47.52754" lon="6.70619">
        <ele>351</ele>
        <time>2015-10-11T09:05:56.000Z</time>
      </trkpt>
      <trkpt lat="47.52755" lon="6.70625">
        <ele>351</ele>
        <time>2015-10-11T09:05:57.000Z</time>
      </trkpt>
      <trkpt lat="47.52757" lon="6.70632">
        <ele>351</ele>
        <time>2015-10-11T09:05:58.000Z</time>
      </trkpt>
      <trkpt lat="47.52759" lon="6.70639">
        <ele>352</ele>
        <time>2015-10-11T09:05:59.000Z</time>
      </trkpt>
      <trkpt lat="47.5276" lon="6.70645">
        <ele>352</ele>
        <time>2015-10-11T09:06:00.000Z</time>
      </trkpt>
      <trkpt lat="47.52762" lon="6.70651">
        <ele>352</ele>
        <time>2015-10-11T09:06:01.000Z</time>
      </trkpt>
      <trkpt lat="47.52763" lon="6.70657">
        <ele>353</ele>
        <time>2015-10-11T09:06:02.000Z</time>
      </trkpt>
      <trkpt lat="47.52764" lon="6.70663">
        <ele>353</ele>
        <time>2015-10-11T09:06:03.000Z</time>
      </trkpt>
      <trkpt lat="47.52765" lon="6.70668">
        <ele>354</ele>
        <time>2015-10-11T09:06:04.000Z</time>
      </trkpt>
      <trkpt lat="47.52766" lon="6.70674">
        <ele>354</ele>
        <time>2015-10-11T09:06:05.000Z</time>
      </trkpt>
      <trkpt lat="47.52767" lon="6.7068">
        <ele>354</ele>
        <time>2015-10-11T09:06:06.000Z</time>
      </trkpt>
      <trkpt lat="47.52767" lon="6.70686">
        <ele>354</ele>
        <time>2015-10-11T09:06:07.000Z</time>
      </trkpt>
      <trkpt lat="47.52768" lon="6.70691">
        <ele>354</ele>
        <time>2015-10-11T09:06:08.000Z</time>
      </trkpt>
      <trkpt lat="47.52768" lon="6.70697">
        <ele>354</ele>
        <time>2015-10-11T09:06:09.000Z</time>
      </trkpt>
      <trkpt lat="47.52768" lon="6.70703">
        <ele>354</ele>
        <time>2015-10-11T09:06:10.000Z</time>
      </trkpt>
      <trkpt lat="47.52769" lon="6.70708">
        <ele>354</ele>
        <time>2015-10-11T09:06:11.000Z</time>
      </trkpt>
      <trkpt lat="47.52769" lon="6.70713">
        <ele>354</ele>
        <time>2015-10-11T09:06:12.000Z</time>
      </trkpt>
      <trkpt lat="47.52769" lon="6.70718">
        <ele>354</ele>
        <time>2015-10-11T09:06:13.000Z</time>
      </trkpt>
      <trkpt lat="47.5277" lon="6.70723">
        <ele>354</ele>
        <time>2015-10-11T09:06:14.000Z</time>
      </trkpt>
      <trkpt lat="47.5277" lon="6.70729">
        <ele>354</ele>
        <time>2015-10-11T09:06:15.000Z</time>
      </trkpt>
      <trkpt lat="47.5277" lon="6.70734">
        <ele>355</ele>
        <time>2015-10-11T09:06:16.000Z</time>
      </trkpt>
      <trkpt lat="47.5277" lon="6.7074">
        <ele>355</ele>
        <time>2015-10-11T09:06:17.000Z</time>
      </trkpt>
      <trkpt lat="47.5277" lon="6.70745">
        <ele>355</ele>
        <time>2015-10-11T09:06:18.000Z</time>
      </trkpt>
      <trkpt lat="47.5277" lon="6.7075">
        <ele>355</ele>
        <time>2015-10-11T09:06:19.000Z</time>
      </trkpt>
      <trkpt lat="47.52771" lon="6.70756">
        <ele>355</ele>
        <time>2015-10-11T09:06:20.000Z</time>
      </trkpt>
      <trkpt lat="47.52771" lon="6.70761">
        <ele>355</ele>
        <time>2015-10-11T09:06:21.000Z</time>
      </trkpt>
      <trkpt lat="47.52772" lon="6.70766">
        <ele>355</ele>
        <time>2015-10-11T09:06:22.000Z</time>
      </trkpt>
      <trkpt lat="47.52772" lon="6.70772">
        <ele>355</ele>
        <time>2015-10-11T09:06:23.000Z</time>
      </trkpt>
      <trkpt lat="47.52773" lon="6.70777">
        <ele>355</ele>
        <time>2015-10-11T09:06:24.000Z</time>
      </trkpt>
      <trkpt lat="47.52773" lon="6.70782">
        <ele>355</ele>
        <time>2015-10-11T09:06:25.000Z</time>
      </trkpt>
      <trkpt lat="47.52773" lon="6.70787">
        <ele>355</ele>
        <time>2015-10-11T09:06:26.000Z</time>
      </trkpt>
      <trkpt lat="47.52774" lon="6.70791">
        <ele>355</ele>
        <time>2015-10-11T09:06:27.000Z</time>
      </trkpt>
      <trkpt lat="47.52774" lon="6.70796">
        <ele>355</ele>
        <time>2015-10-11T09:06:28.000Z</time>
      </trkpt>
      <trkpt lat="47.52774" lon="6.708">
        <ele>355</ele>
        <time>2015-10-11T09:06:29.000Z</time>
      </trkpt>
      <trkpt lat="47.52774" lon="6.70805">
        <ele>355</ele>
        <time>2015-10-11T09:06:30.000Z</time>
      </trkpt>
      <trkpt lat="47.52774" lon="6.7081">
        <ele>354</ele>
        <time>2015-10-11T09:06:31.000Z</time>
      </trkpt>
      <trkpt lat="47.52774" lon="6.70815">
        <ele>354</ele>
        <time>2015-10-11T09:06:32.000Z</time>
      </trkpt>
      <trkpt lat="47.52773" lon="6.7082">
        <ele>354</ele>
        <time>2015-10-11T09:06:33.000Z</time>
      </trkpt>
      <trkpt lat="47.52772" lon="6.70826">
        <ele>354</ele>
        <time>2015-10-11T09:06:34.000Z</time>
      </trkpt>
      <trkpt lat="47.52771" lon="6.70831">
        <ele>354</ele>
        <time>2015-10-11T09:06:35.000Z</time>
      </trkpt>
      <trkpt lat="47.52771" lon="6.70836">
        <ele>354</ele>
        <time>2015-10-11T09:06:36.000Z</time>
      </trkpt>
      <trkpt lat="47.52771" lon="6.70842">
        <ele>354</ele>
        <time>2015-10-11T09:06:37.000Z</time>
      </trkpt>
      <trkpt lat="47.52771" lon="6.70848">
        <ele>354</ele>
        <time>2015-10-11T09:06:38.000Z</time>
      </trkpt>
      <trkpt lat="47.5277" lon="6.70854">
        <ele>354</ele>
        <time>2015-10-11T09:06:39.000Z</time>
      </trkpt>
      <trkpt lat="47.5277" lon="6.7086">
        <ele>354</ele>
        <time>2015-10-11T09:06:40.000Z</time>
      </trkpt>
      <trkpt lat="47.52769" lon="6.70866">
        <ele>354</ele>
        <time>2015-10-11T09:06:41.000Z</time>
      </trkpt>
      <trkpt lat="47.52768" lon="6.70872">
        <ele>354</ele>
        <time>2015-10-11T09:06:42.000Z</time>
      </trkpt>
      <trkpt lat="47.52767" lon="6.70878">
        <ele>353</ele>
        <time>2015-10-11T09:06:43.000Z</time>
      </trkpt>
      <trkpt lat="47.52766" lon="6.70885">
        <ele>353</ele>
        <time>2015-10-11T09:06:44.000Z</time>
      </trkpt>
      <trkpt lat="47.52765" lon="6.70892">
        <ele>353</ele>
        <time>2015-10-11T09:06:45.000Z</time>
      </trkpt>
      <trkpt lat="47.52763" lon="6.70898">
        <ele>353</ele>
        <time>2015-10-11T09:06:46.000Z</time>
      </trkpt>
      <trkpt lat="47.52762" lon="6.70905">
        <ele>352</ele>
        <time>2015-10-11T09:06:47.000Z</time>
      </trkpt>
      <trkpt lat="47.52761" lon="6.7091">
        <ele>352</ele>
        <time>2015-10-11T09:06:48.000Z</time>
      </trkpt>
      <trkpt lat="47.52761" lon="6.70916">
        <ele>352</ele>
        <time>2015-10-11T09:06:49.000Z</time>
      </trkpt>
      <trkpt lat="47.5276" lon="6.70922">
        <ele>352</ele>
        <time>2015-10-11T09:06:50.000Z</time>
      </trkpt>
      <trkpt lat="47.52758" lon="6.70928">
        <ele>352</ele>
        <time>2015-10-11T09:06:51.000Z</time>
      </trkpt>
      <trkpt lat="47.52757" lon="6.70933">
        <ele>352</ele>
        <time>2015-10-11T09:06:52.000Z</time>
      </trkpt>
      <trkpt lat="47.52756" lon="6.70939">
        <ele>352</ele>
        <time>2015-10-11T09:06:53.000Z</time>
      </trkpt>
      <trkpt lat="47.52755" lon="6.70944">
        <ele>353</ele>
        <time>2015-10-11T09:06:54.000Z</time>
      </trkpt>
      <trkpt lat="47.52754" lon="6.70949">
        <ele>353</ele>
        <time>2015-10-11T09:06:55.000Z</time>
      </trkpt>
      <trkpt lat="47.52754" lon="6.70955">
        <ele>353</ele>
        <time>2015-10-11T09:06:56.000Z</time>
      </trkpt>
      <trkpt lat="47.52754" lon="6.70962">
        <ele>353</ele>
        <time>2015-10-11T09:06:57.000Z</time>
      </trkpt>
      <trkpt lat="47.52754" lon="6.70969">
        <ele>353</ele>
        <time>2015-10-11T09:06:58.000Z</time>
      </trkpt>
      <trkpt lat="47.52755" lon="6.70976">
        <ele>353</ele>
        <time>2015-10-11T09:06:59.000Z</time>
      </trkpt>
      <trkpt lat="47.52756" lon="6.70983">
        <ele>353</ele>
        <time>2015-10-11T09:07:00.000Z</time>
      </trkpt>
      <trkpt lat="47.52757" lon="6.70989">
        <ele>353</ele>
        <time>2015-10-11T09:07:01.000Z</time>
      </trkpt>
      <trkpt lat="47.52758" lon="6.70996">
        <ele>352</ele>
        <time>2015-10-11T09:07:02.000Z</time>
      </trkpt>
      <trkpt lat="47.5276" lon="6.71002">
        <ele>353</ele>
        <time>2015-10-11T09:07:03.000Z</time>
      </trkpt>
      <trkpt lat="47.52762" lon="6.71008">
        <ele>353</ele>
        <time>2015-10-11T09:07:04.000Z</time>
      </trkpt>
      <trkpt lat="47.52764" lon="6.71014">
        <ele>353</ele>
        <time>2015-10-11T09:07:05.000Z</time>
      </trkpt>
      <trkpt lat="47.52766" lon="6.71019">
        <ele>354</ele>
        <time>2015-10-11T09:07:06.000Z</time>
      </trkpt>
      <trkpt lat="47.52768" lon="6.71024">
        <ele>354</ele>
        <time>2015-10-11T09:07:07.000Z</time>
      </trkpt>
      <trkpt lat="47.5277" lon="6.7103">
        <ele>354</ele>
        <time>2015-10-11T09:07:08.000Z</time>
      </trkpt>
      <trkpt lat="47.52771" lon="6.71035">
        <ele>354</ele>
        <time>2015-10-11T09:07:09.000Z</time>
      </trkpt>
      <trkpt lat="47.52771" lon="6.71041">
        <ele>354</ele>
        <time>2015-10-11T09:07:10.000Z</time>
      </trkpt>
      <trkpt lat="47.5277" lon="6.71046">
        <ele>354</ele>
        <time>2015-10-11T09:07:11.000Z</time>
      </trkpt>
      <trkpt lat="47.52768" lon="6.7105">
        <ele>354</ele>
        <time>2015-10-11T09:07:12.000Z</time>
      </trkpt>
      <trkpt lat="47.52766" lon="6.71055">
        <ele>354</ele>
        <time>2015-10-11T09:07:13.000Z</time>
      </trkpt>
      <trkpt lat="47.52764" lon="6.71059">
        <ele>354</ele>
        <time>2015-10-11T09:07:14.000Z</time>
      </trkpt>
      <trkpt lat="47.52762" lon="6.71064">
        <ele>354</ele>
        <time>2015-10-11T09:07:15.000Z</time>
      </trkpt>
      <trkpt lat="47.52761" lon="6.7107">
        <ele>354</ele>
        <time>2015-10-11T09:07:16.000Z</time>
      </trkpt>
      <trkpt lat="47.5276" lon="6.71075">
        <ele>354</ele>
        <time>2015-10-11T09:07:17.000Z</time>
      </trkpt>
      <trkpt lat="47.52759" lon="6.71081">
        <ele>354</ele>
        <time>2015-10-11T09:07:18.000Z</time>
      </trkpt>
      <trkpt lat="47.52759" lon="6.71085">
        <ele>354</ele>
        <time>2015-10-11T09:07:19.000Z</time>
      </trkpt>
      <trkpt lat="47.52759" lon="6.71089">
        <ele>354</ele>
        <time>2015-10-11T09:07:20.000Z</time>
      </trkpt>
      <trkpt lat="47.5276" lon="6.71093">
        <ele>354</ele>
        <time>2015-10-11T09:07:21.000Z</time>
      </trkpt>
      <trkpt lat="47.5276" lon="6.71097">
        <ele>354</ele>
        <time>2015-10-11T09:07:22.000Z</time>
      </trkpt>
      <trkpt lat="47.52761" lon="6.711">
        <ele>355</ele>
        <time>2015-10-11T09:07:23.000Z</time>
      </trkpt>
      <trkpt lat="47.52761" lon="6.71104">
        <ele>355</ele>
        <time>2015-10-11T09:07:24.000Z</time>
      </trkpt>
      <trkpt lat="47.52761" lon="6.71107">
        <ele>355</ele>
        <time>2015-10-11T09:07:25.000Z</time>
      </trkpt>
      <trkpt lat="47.52761" lon="6.71113">
        <ele>355</ele>
        <time>2015-10-11T09:07:27.000Z</time>
      </trkpt>
      <trkpt lat="47.52761" lon="6.71116">
        <ele>355</ele>
        <time>2015-10-11T09:07:28.000Z</time>
      </trkpt>
      <trkpt lat="47.5276" lon="6.71122">
        <ele>355</ele>
        <time>2015-10-11T09:07:30.000Z</time>
      </trkpt>
      <trkpt lat="47.52759" lon="6.71125">
        <ele>355</ele>
        <time>2015-10-11T09:07:31.000Z</time>
      </trkpt>
      <trkpt lat="47.52758" lon="6.71131">
        <ele>355</ele>
        <time>2015-10-11T09:07:33.000Z</time>
      </trkpt>
      <trkpt lat="47.52757" lon="6.71134">
        <ele>356</ele>
        <time>2015-10-11T09:07:34.000Z</time>
      </trkpt>
      <trkpt lat="47.52757" lon="6.71138">
        <ele>356</ele>
        <time>2015-10-11T09:07:35.000Z</time>
      </trkpt>
      <trkpt lat="47.52756" lon="6.71141">
        <ele>356</ele>
        <time>2015-10-11T09:07:36.000Z</time>
      </trkpt>
      <trkpt lat="47.52754" lon="6.71146">
        <ele>356</ele>
        <time>2015-10-11T09:07:38.000Z</time>
      </trkpt>
      <trkpt lat="47.52753" lon="6.71148">
        <ele>357</ele>
        <time>2015-10-11T09:07:39.000Z</time>
      </trkpt>
      <trkpt lat="47.5275" lon="6.71153">
        <ele>357</ele>
        <time>2015-10-11T09:07:41.000Z</time>
      </trkpt>
      <trkpt lat="47.52749" lon="6.71156">
        <ele>360</ele>
        <time>2015-10-11T09:07:42.000Z</time>
      </trkpt>
      <trkpt lat="47.52747" lon="6.71159">
        <ele>360</ele>
        <time>2015-10-11T09:07:43.000Z</time>
      </trkpt>
      <trkpt lat="47.52746" lon="6.71162">
        <ele>359</ele>
        <time>2015-10-11T09:07:44.000Z</time>
      </trkpt>
      <trkpt lat="47.52743" lon="6.71167">
        <ele>360</ele>
        <time>2015-10-11T09:07:46.000Z</time>
      </trkpt>
      <trkpt lat="47.52742" lon="6.71169">
        <ele>360</ele>
        <time>2015-10-11T09:07:47.000Z</time>
      </trkpt>
      <trkpt lat="47.52739" lon="6.71173">
        <ele>360</ele>
        <time>2015-10-11T09:07:49.000Z</time>
      </trkpt>
      <trkpt lat="47.52737" lon="6.71174">
        <ele>360</ele>
        <time>2015-10-11T09:07:50.000Z</time>
      </trkpt>
      <trkpt lat="47.52734" lon="6.71177">
        <ele>360</ele>
        <time>2015-10-11T09:07:52.000Z</time>
      </trkpt>
      <trkpt lat="47.52732" lon="6.71179">
        <ele>360</ele>
        <time>2015-10-11T09:07:53.000Z</time>
      </trkpt>
      <trkpt lat="47.52729" lon="6.71183">
        <ele>361</ele>
        <time>2015-10-11T09:07:55.000Z</time>
      </trkpt>
      <trkpt lat="47.52727" lon="6.71185">
        <ele>361</ele>
        <time>2015-10-11T09:07:56.000Z</time>
      </trkpt>
      <trkpt lat="47.52724" lon="6.71189">
        <ele>361</ele>
        <time>2015-10-11T09:07:58.000Z</time>
      </trkpt>
      <trkpt lat="47.52722" lon="6.71191">
        <ele>361</ele>
        <time>2015-10-11T09:07:59.000Z</time>
      </trkpt>
      <trkpt lat="47.52721" lon="6.71195">
        <ele>361</ele>
        <time>2015-10-11T09:08:01.000Z</time>
      </trkpt>
      <trkpt lat="47.52721" lon="6.71197">
        <ele>361</ele>
        <time>2015-10-11T09:08:02.000Z</time>
      </trkpt>
      <trkpt lat="47.5272" lon="6.712">
        <ele>361</ele>
        <time>2015-10-11T09:08:03.000Z</time>
      </trkpt>
      <trkpt lat="47.52718" lon="6.71204">
        <ele>361</ele>
        <time>2015-10-11T09:08:04.000Z</time>
      </trkpt>
      <trkpt lat="47.52717" lon="6.71209">
        <ele>361</ele>
        <time>2015-10-11T09:08:05.000Z</time>
      </trkpt>
      <trkpt lat="47.5272" lon="6.71227">
        <ele>361</ele>
        <time>2015-10-11T09:08:06.000Z</time>
      </trkpt>
      <trkpt lat="47.52722" lon="6.71235">
        <ele>361</ele>
        <time>2015-10-11T09:08:07.000Z</time>
      </trkpt>
      <trkpt lat="47.52724" lon="6.71242">
        <ele>361</ele>
        <time>2015-10-11T09:08:08.000Z</time>
      </trkpt>
      <trkpt lat="47.52725" lon="6.71248">
        <ele>361</ele>
        <time>2015-10-11T09:08:09.000Z</time>
      </trkpt>
      <trkpt lat="47.52726" lon="6.71255">
        <ele>363</ele>
        <time>2015-10-11T09:08:10.000Z</time>
      </trkpt>
      <trkpt lat="47.52726" lon="6.71261">
        <ele>364</ele>
        <time>2015-10-11T09:08:11.000Z</time>
      </trkpt>
      <trkpt lat="47.52726" lon="6.71267">
        <ele>364</ele>
        <time>2015-10-11T09:08:12.000Z</time>
      </trkpt>
      <trkpt lat="47.52724" lon="6.71272">
        <ele>364</ele>
        <time>2015-10-11T09:08:13.000Z</time>
      </trkpt>
      <trkpt lat="47.52721" lon="6.71277">
        <ele>365</ele>
        <time>2015-10-11T09:08:14.000Z</time>
      </trkpt>
      <trkpt lat="47.52719" lon="6.71281">
        <ele>365</ele>
        <time>2015-10-11T09:08:15.000Z</time>
      </trkpt>
      <trkpt lat="47.52717" lon="6.71285">
        <ele>365</ele>
        <time>2015-10-11T09:08:16.000Z</time>
      </trkpt>
      <trkpt lat="47.52714" lon="6.71287">
        <ele>365</ele>
        <time>2015-10-11T09:08:17.000Z</time>
      </trkpt>
      <trkpt lat="47.52713" lon="6.71288">
        <ele>365</ele>
        <time>2015-10-11T09:08:18.000Z</time>
      </trkpt>
      <trkpt lat="47.52709" lon="6.71289">
        <ele>365</ele>
        <time>2015-10-11T09:08:20.000Z</time>
      </trkpt>
      <trkpt lat="47.52707" lon="6.71289">
        <ele>365</ele>
        <time>2015-10-11T09:08:21.000Z</time>
      </trkpt>
      <trkpt lat="47.52703" lon="6.71289">
        <ele>365</ele>
        <time>2015-10-11T09:08:23.000Z</time>
      </trkpt>
      <trkpt lat="47.52701" lon="6.71289">
        <ele>365</ele>
        <time>2015-10-11T09:08:24.000Z</time>
      </trkpt>
      <trkpt lat="47.52699" lon="6.71289">
        <ele>365</ele>
        <time>2015-10-11T09:08:25.000Z</time>
      </trkpt>
      <trkpt lat="47.52696" lon="6.71288">
        <ele>365</ele>
        <time>2015-10-11T09:08:26.000Z</time>
      </trkpt>
      <trkpt lat="47.52693" lon="6.71288">
        <ele>365</ele>
        <time>2015-10-11T09:08:27.000Z</time>
      </trkpt>
      <trkpt lat="47.5269" lon="6.71287">
        <ele>365</ele>
        <time>2015-10-11T09:08:28.000Z</time>
      </trkpt>
      <trkpt lat="47.52687" lon="6.71287">
        <ele>365</ele>
        <time>2015-10-11T09:08:29.000Z</time>
      </trkpt>
      <trkpt lat="47.52684" lon="6.71286">
        <ele>365</ele>
        <time>2015-10-11T09:08:30.000Z</time>
      </trkpt>
      <trkpt lat="47.52681" lon="6.71286">
        <ele>365</ele>
        <time>2015-10-11T09:08:31.000Z</time>
      </trkpt>
      <trkpt lat="47.52678" lon="6.71286">
        <ele>365</ele>
        <time>2015-10-11T09:08:32.000Z</time>
      </trkpt>
      <trkpt lat="47.52675" lon="6.71286">
        <ele>365</ele>
        <time>2015-10-11T09:08:33.000Z</time>
      </trkpt>
      <trkpt lat="47.52672" lon="6.71286">
        <ele>365</ele>
        <time>2015-10-11T09:08:34.000Z</time>
      </trkpt>
      <trkpt lat="47.5267" lon="6.71286">
        <ele>365</ele>
        <time>2015-10-11T09:08:35.000Z</time>
      </trkpt>
      <trkpt lat="47.52667" lon="6.71286">
        <ele>365</ele>
        <time>2015-10-11T09:08:36.000Z</time>
      </trkpt>
      <trkpt lat="47.52664" lon="6.71286">
        <ele>365</ele>
        <time>2015-10-11T09:08:37.000Z</time>
      </trkpt>
      <trkpt lat="47.52661" lon="6.71285">
        <ele>365</ele>
        <time>2015-10-11T09:08:38.000Z</time>
      </trkpt>
      <trkpt lat="47.52658" lon="6.71285">
        <ele>365</ele>
        <time>2015-10-11T09:08:39.000Z</time>
      </trkpt>
      <trkpt lat="47.52655" lon="6.71284">
        <ele>365</ele>
        <time>2015-10-11T09:08:40.000Z</time>
      </trkpt>
      <trkpt lat="47.52652" lon="6.71283">
        <ele>365</ele>
        <time>2015-10-11T09:08:41.000Z</time>
      </trkpt>
      <trkpt lat="47.52649" lon="6.71283">
        <ele>365</ele>
        <time>2015-10-11T09:08:42.000Z</time>
      </trkpt>
      <trkpt lat="47.52646" lon="6.71282">
        <ele>365</ele>
        <time>2015-10-11T09:08:43.000Z</time>
      </trkpt>
      <trkpt lat="47.52642" lon="6.71281">
        <ele>364</ele>
        <time>2015-10-11T09:08:44.000Z</time>
      </trkpt>
      <trkpt lat="47.52639" lon="6.7128">
        <ele>364</ele>
        <time>2015-10-11T09:08:45.000Z</time>
      </trkpt>
      <trkpt lat="47.52635" lon="6.71278">
        <ele>364</ele>
        <time>2015-10-11T09:08:46.000Z</time>
      </trkpt>
      <trkpt lat="47.52631" lon="6.71277">
        <ele>364</ele>
        <time>2015-10-11T09:08:47.000Z</time>
      </trkpt>
      <trkpt lat="47.52628" lon="6.71276">
        <ele>364</ele>
        <time>2015-10-11T09:08:48.000Z</time>
      </trkpt>
      <trkpt lat="47.52624" lon="6.71275">
        <ele>364</ele>
        <time>2015-10-11T09:08:49.000Z</time>
      </trkpt>
      <trkpt lat="47.52621" lon="6.71274">
        <ele>364</ele>
        <time>2015-10-11T09:08:50.000Z</time>
      </trkpt>
      <trkpt lat="47.52618" lon="6.71274">
        <ele>364</ele>
        <time>2015-10-11T09:08:51.000Z</time>
      </trkpt>
      <trkpt lat="47.52614" lon="6.71274">
        <ele>364</ele>
        <time>2015-10-11T09:08:52.000Z</time>
      </trkpt>
      <trkpt lat="47.52611" lon="6.71273">
        <ele>364</ele>
        <time>2015-10-11T09:08:53.000Z</time>
      </trkpt>
      <trkpt lat="47.52608" lon="6.71273">
        <ele>364</ele>
        <time>2015-10-11T09:08:54.000Z</time>
      </trkpt>
      <trkpt lat="47.52605" lon="6.71273">
        <ele>364</ele>
        <time>2015-10-11T09:08:55.000Z</time>
      </trkpt>
      <trkpt lat="47.52602" lon="6.71273">
        <ele>364</ele>
        <time>2015-10-11T09:08:56.000Z</time>
      </trkpt>
      <trkpt lat="47.52599" lon="6.71272">
        <ele>364</ele>
        <time>2015-10-11T09:08:57.000Z</time>
      </trkpt>
      <trkpt lat="47.52596" lon="6.71271">
        <ele>364</ele>
        <time>2015-10-11T09:08:58.000Z</time>
      </trkpt>
      <trkpt lat="47.52593" lon="6.7127">
        <ele>364</ele>
        <time>2015-10-11T09:08:59.000Z</time>
      </trkpt>
      <trkpt lat="47.5259" lon="6.7127">
        <ele>364</ele>
        <time>2015-10-11T09:09:00.000Z</time>
      </trkpt>
      <trkpt lat="47.52587" lon="6.7127">
        <ele>364</ele>
        <time>2015-10-11T09:09:01.000Z</time>
      </trkpt>
      <trkpt lat="47.52584" lon="6.71269">
        <ele>364</ele>
        <time>2015-10-11T09:09:02.000Z</time>
      </trkpt>
      <trkpt lat="47.52581" lon="6.71269">
        <ele>362</ele>
        <time>2015-10-11T09:09:03.000Z</time>
      </trkpt>
      <trkpt lat="47.52578" lon="6.71268">
        <ele>362</ele>
        <time>2015-10-11T09:09:04.000Z</time>
      </trkpt>
      <trkpt lat="47.52575" lon="6.71267">
        <ele>362</ele>
        <time>2015-10-11T09:09:05.000Z</time>
      </trkpt>
      <trkpt lat="47.52572" lon="6.71266">
        <ele>362</ele>
        <time>2015-10-11T09:09:06.000Z</time>
      </trkpt>
      <trkpt lat="47.52569" lon="6.71265">
        <ele>362</ele>
        <time>2015-10-11T09:09:07.000Z</time>
      </trkpt>
      <trkpt lat="47.52566" lon="6.71264">
        <ele>362</ele>
        <time>2015-10-11T09:09:08.000Z</time>
      </trkpt>
      <trkpt lat="47.52563" lon="6.71263">
        <ele>362</ele>
        <time>2015-10-11T09:09:09.000Z</time>
      </trkpt>
      <trkpt lat="47.52561" lon="6.71263">
        <ele>362</ele>
        <time>2015-10-11T09:09:10.000Z</time>
      </trkpt>
      <trkpt lat="47.52558" lon="6.71262">
        <ele>362</ele>
        <time>2015-10-11T09:09:11.000Z</time>
      </trkpt>
      <trkpt lat="47.52555" lon="6.71261">
        <ele>362</ele>
        <time>2015-10-11T09:09:12.000Z</time>
      </trkpt>
      <trkpt lat="47.52551" lon="6.71259">
        <ele>362</ele>
        <time>2015-10-11T09:09:13.000Z</time>
      </trkpt>
      <trkpt lat="47.52548" lon="6.71257">
        <ele>361</ele>
        <time>2015-10-11T09:09:14.000Z</time>
      </trkpt>
      <trkpt lat="47.52545" lon="6.71254">
        <ele>361</ele>
        <time>2015-10-11T09:09:15.000Z</time>
      </trkpt>
      <trkpt lat="47.52542" lon="6.71251">
        <ele>361</ele>
        <time>2015-10-11T09:09:16.000Z</time>
      </trkpt>
      <trkpt lat="47.52539" lon="6.71248">
        <ele>360</ele>
        <time>2015-10-11T09:09:17.000Z</time>
      </trkpt>
      <trkpt lat="47.52536" lon="6.71245">
        <ele>360</ele>
        <time>2015-10-11T09:09:18.000Z</time>
      </trkpt>
      <trkpt lat="47.52533" lon="6.71243">
        <ele>360</ele>
        <time>2015-10-11T09:09:19.000Z</time>
      </trkpt>
      <trkpt lat="47.5253" lon="6.71241">
        <ele>360</ele>
        <time>2015-10-11T09:09:20.000Z</time>
      </trkpt>
      <trkpt lat="47.52527" lon="6.71238">
        <ele>360</ele>
        <time>2015-10-11T09:09:21.000Z</time>
      </trkpt>
      <trkpt lat="47.52524" lon="6.71235">
        <ele>360</ele>
        <time>2015-10-11T09:09:22.000Z</time>
      </trkpt>
      <trkpt lat="47.52521" lon="6.71232">
        <ele>360</ele>
        <time>2015-10-11T09:09:23.000Z</time>
      </trkpt>
      <trkpt lat="47.52518" lon="6.71228">
        <ele>360</ele>
        <time>2015-10-11T09:09:24.000Z</time>
      </trkpt>
      <trkpt lat="47.52516" lon="6.71224">
        <ele>360</ele>
        <time>2015-10-11T09:09:25.000Z</time>
      </trkpt>
      <trkpt lat="47.52513" lon="6.7122">
        <ele>360</ele>
        <time>2015-10-11T09:09:26.000Z</time>
      </trkpt>
      <trkpt lat="47.5251" lon="6.71216">
        <ele>360</ele>
        <time>2015-10-11T09:09:27.000Z</time>
      </trkpt>
      <trkpt lat="47.52508" lon="6.71211">
        <ele>360</ele>
        <time>2015-10-11T09:09:28.000Z</time>
      </trkpt>
      <trkpt lat="47.52506" lon="6.71207">
        <ele>360</ele>
        <time>2015-10-11T09:09:29.000Z</time>
      </trkpt>
      <trkpt lat="47.52503" lon="6.71203">
        <ele>360</ele>
        <time>2015-10-11T09:09:30.000Z</time>
      </trkpt>
      <trkpt lat="47.52501" lon="6.712">
        <ele>361</ele>
        <time>2015-10-11T09:09:31.000Z</time>
      </trkpt>
      <trkpt lat="47.52498" lon="6.71196">
        <ele>360</ele>
        <time>2015-10-11T09:09:32.000Z</time>
      </trkpt>
      <trkpt lat="47.52496" lon="6.71193">
        <ele>360</ele>
        <time>2015-10-11T09:09:33.000Z</time>
      </trkpt>
      <trkpt lat="47.52493" lon="6.7119">
        <ele>360</ele>
        <time>2015-10-11T09:09:34.000Z</time>
      </trkpt>
      <trkpt lat="47.52491" lon="6.71186">
        <ele>360</ele>
        <time>2015-10-11T09:09:35.000Z</time>
      </trkpt>
      <trkpt lat="47.52488" lon="6.71184">
        <ele>361</ele>
        <time>2015-10-11T09:09:36.000Z</time>
      </trkpt>
      <trkpt lat="47.52485" lon="6.71181">
        <ele>361</ele>
        <time>2015-10-11T09:09:37.000Z</time>
      </trkpt>
      <trkpt lat="47.52482" lon="6.71179">
        <ele>361</ele>
        <time>2015-10-11T09:09:38.000Z</time>
      </trkpt>
      <trkpt lat="47.52479" lon="6.71178">
        <ele>361</ele>
        <time>2015-10-11T09:09:39.000Z</time>
      </trkpt>
      <trkpt lat="47.52476" lon="6.71176">
        <ele>361</ele>
        <time>2015-10-11T09:09:40.000Z</time>
      </trkpt>
      <trkpt lat="47.52472" lon="6.71175">
        <ele>361</ele>
        <time>2015-10-11T09:09:41.000Z</time>
      </trkpt>
      <trkpt lat="47.52469" lon="6.71175">
        <ele>361</ele>
        <time>2015-10-11T09:09:42.000Z</time>
      </trkpt>
      <trkpt lat="47.52466" lon="6.71174">
        <ele>361</ele>
        <time>2015-10-11T09:09:43.000Z</time>
      </trkpt>
      <trkpt lat="47.52462" lon="6.71174">
        <ele>361</ele>
        <time>2015-10-11T09:09:44.000Z</time>
      </trkpt>
      <trkpt lat="47.52459" lon="6.71175">
        <ele>361</ele>
        <time>2015-10-11T09:09:45.000Z</time>
      </trkpt>
      <trkpt lat="47.52455" lon="6.71175">
        <ele>361</ele>
        <time>2015-10-11T09:09:46.000Z</time>
      </trkpt>
      <trkpt lat="47.52452" lon="6.71176">
        <ele>361</ele>
        <time>2015-10-11T09:09:47.000Z</time>
      </trkpt>
      <trkpt lat="47.52449" lon="6.71176">
        <ele>361</ele>
        <time>2015-10-11T09:09:48.000Z</time>
      </trkpt>
      <trkpt lat="47.52445" lon="6.71177">
        <ele>361</ele>
        <time>2015-10-11T09:09:49.000Z</time>
      </trkpt>
      <trkpt lat="47.52442" lon="6.71177">
        <ele>361</ele>
        <time>2015-10-11T09:09:50.000Z</time>
      </trkpt>
      <trkpt lat="47.52438" lon="6.71178">
        <ele>361</ele>
        <time>2015-10-11T09:09:51.000Z</time>
      </trkpt>
      <trkpt lat="47.52435" lon="6.71179">
        <ele>361</ele>
        <time>2015-10-11T09:09:52.000Z</time>
      </trkpt>
      <trkpt lat="47.52432" lon="6.7118">
        <ele>362</ele>
        <time>2015-10-11T09:09:53.000Z</time>
      </trkpt>
      <trkpt lat="47.52428" lon="6.7118">
        <ele>362</ele>
        <time>2015-10-11T09:09:54.000Z</time>
      </trkpt>
      <trkpt lat="47.52425" lon="6.7118">
        <ele>362</ele>
        <time>2015-10-11T09:09:55.000Z</time>
      </trkpt>
      <trkpt lat="47.52422" lon="6.7118">
        <ele>362</ele>
        <time>2015-10-11T09:09:56.000Z</time>
      </trkpt>
      <trkpt lat="47.52419" lon="6.71179">
        <ele>362</ele>
        <time>2015-10-11T09:09:57.000Z</time>
      </trkpt>
      <trkpt lat="47.52415" lon="6.7118">
        <ele>363</ele>
        <time>2015-10-11T09:09:58.000Z</time>
      </trkpt>
      <trkpt lat="47.52412" lon="6.7118">
        <ele>363</ele>
        <time>2015-10-11T09:09:59.000Z</time>
      </trkpt>
      <trkpt lat="47.52409" lon="6.71181">
        <ele>363</ele>
        <time>2015-10-11T09:10:00.000Z</time>
      </trkpt>
      <trkpt lat="47.52406" lon="6.71183">
        <ele>363</ele>
        <time>2015-10-11T09:10:01.000Z</time>
      </trkpt>
      <trkpt lat="47.52403" lon="6.71185">
        <ele>363</ele>
        <time>2015-10-11T09:10:02.000Z</time>
      </trkpt>
      <trkpt lat="47.52401" lon="6.71187">
        <ele>364</ele>
        <time>2015-10-11T09:10:03.000Z</time>
      </trkpt>
      <trkpt lat="47.52398" lon="6.71188">
        <ele>364</ele>
        <time>2015-10-11T09:10:04.000Z</time>
      </trkpt>
      <trkpt lat="47.52395" lon="6.71189">
        <ele>364</ele>
        <time>2015-10-11T09:10:05.000Z</time>
      </trkpt>
      <trkpt lat="47.52392" lon="6.71189">
        <ele>364</ele>
        <time>2015-10-11T09:10:06.000Z</time>
      </trkpt>
      <trkpt lat="47.52389" lon="6.71188">
        <ele>364</ele>
        <time>2015-10-11T09:10:07.000Z</time>
      </trkpt>
      <trkpt lat="47.52386" lon="6.71188">
        <ele>364</ele>
        <time>2015-10-11T09:10:08.000Z</time>
      </trkpt>
      <trkpt lat="47.52383" lon="6.71188">
        <ele>364</ele>
        <time>2015-10-11T09:10:09.000Z</time>
      </trkpt>
      <trkpt lat="47.5238" lon="6.71188">
        <ele>364</ele>
        <time>2015-10-11T09:10:10.000Z</time>
      </trkpt>
      <trkpt lat="47.52377" lon="6.71187">
        <ele>364</ele>
        <time>2015-10-11T09:10:11.000Z</time>
      </trkpt>
      <trkpt lat="47.52374" lon="6.71186">
        <ele>364</ele>
        <time>2015-10-11T09:10:12.000Z</time>
      </trkpt>
      <trkpt lat="47.52371" lon="6.71185">
        <ele>364</ele>
        <time>2015-10-11T09:10:13.000Z</time>
      </trkpt>
      <trkpt lat="47.52368" lon="6.71184">
        <ele>364</ele>
        <time>2015-10-11T09:10:14.000Z</time>
      </trkpt>
      <trkpt lat="47.52366" lon="6.71182">
        <ele>365</ele>
        <time>2015-10-11T09:10:15.000Z</time>
      </trkpt>
      <trkpt lat="47.52364" lon="6.7118">
        <ele>365</ele>
        <time>2015-10-11T09:10:16.000Z</time>
      </trkpt>
      <trkpt lat="47.52361" lon="6.71177">
        <ele>365</ele>
        <time>2015-10-11T09:10:17.000Z</time>
      </trkpt>
      <trkpt lat="47.52359" lon="6.71174">
        <ele>365</ele>
        <time>2015-10-11T09:10:18.000Z</time>
      </trkpt>
      <trkpt lat="47.52356" lon="6.71171">
        <ele>365</ele>
        <time>2015-10-11T09:10:19.000Z</time>
      </trkpt>
      <trkpt lat="47.52353" lon="6.71167">
        <ele>365</ele>
        <time>2015-10-11T09:10:20.000Z</time>
      </trkpt>
      <trkpt lat="47.52351" lon="6.71164">
        <ele>366</ele>
        <time>2015-10-11T09:10:21.000Z</time>
      </trkpt>
      <trkpt lat="47.52348" lon="6.71161">
        <ele>366</ele>
        <time>2015-10-11T09:10:22.000Z</time>
      </trkpt>
      <trkpt lat="47.52346" lon="6.71158">
        <ele>366</ele>
        <time>2015-10-11T09:10:23.000Z</time>
      </trkpt>
      <trkpt lat="47.52343" lon="6.71156">
        <ele>366</ele>
        <time>2015-10-11T09:10:24.000Z</time>
      </trkpt>
      <trkpt lat="47.5234" lon="6.71154">
        <ele>366</ele>
        <time>2015-10-11T09:10:25.000Z</time>
      </trkpt>
      <trkpt lat="47.52337" lon="6.71152">
        <ele>366</ele>
        <time>2015-10-11T09:10:26.000Z</time>
      </trkpt>
      <trkpt lat="47.52333" lon="6.71151">
        <ele>366</ele>
        <time>2015-10-11T09:10:27.000Z</time>
      </trkpt>
      <trkpt lat="47.5233" lon="6.71151">
        <ele>366</ele>
        <time>2015-10-11T09:10:28.000Z</time>
      </trkpt>
      <trkpt lat="47.52326" lon="6.71152">
        <ele>366</ele>
        <time>2015-10-11T09:10:29.000Z</time>
      </trkpt>
      <trkpt lat="47.52323" lon="6.71153">
        <ele>366</ele>
        <time>2015-10-11T09:10:30.000Z</time>
      </trkpt>
      <trkpt lat="47.52319" lon="6.71157">
        <ele>366</ele>
        <time>2015-10-11T09:10:31.000Z</time>
      </trkpt>
      <trkpt lat="47.52317" lon="6.7116">
        <ele>366</ele>
        <time>2015-10-11T09:10:32.000Z</time>
      </trkpt>
      <trkpt lat="47.52314" lon="6.71164">
        <ele>366</ele>
        <time>2015-10-11T09:10:33.000Z</time>
      </trkpt>
      <trkpt lat="47.52311" lon="6.71169">
        <ele>367</ele>
        <time>2015-10-11T09:10:34.000Z</time>
      </trkpt>
      <trkpt lat="47.52309" lon="6.71173">
        <ele>367</ele>
        <time>2015-10-11T09:10:35.000Z</time>
      </trkpt>
      <trkpt lat="47.52306" lon="6.71178">
        <ele>367</ele>
        <time>2015-10-11T09:10:36.000Z</time>
      </trkpt>
      <trkpt lat="47.52304" lon="6.71182">
        <ele>367</ele>
        <time>2015-10-11T09:10:37.000Z</time>
      </trkpt>
      <trkpt lat="47.52301" lon="6.71186">
        <ele>367</ele>
        <time>2015-10-11T09:10:38.000Z</time>
      </trkpt>
      <trkpt lat="47.52298" lon="6.7119">
        <ele>367</ele>
        <time>2015-10-11T09:10:39.000Z</time>
      </trkpt>
      <trkpt lat="47.52296" lon="6.71194">
        <ele>367</ele>
        <time>2015-10-11T09:10:40.000Z</time>
      </trkpt>
      <trkpt lat="47.52293" lon="6.71198">
        <ele>367</ele>
        <time>2015-10-11T09:10:41.000Z</time>
      </trkpt>
      <trkpt lat="47.5229" lon="6.71201">
        <ele>367</ele>
        <time>2015-10-11T09:10:42.000Z</time>
      </trkpt>
      <trkpt lat="47.52288" lon="6.71205">
        <ele>367</ele>
        <time>2015-10-11T09:10:43.000Z</time>
      </trkpt>
      <trkpt lat="47.52285" lon="6.71208">
        <ele>368</ele>
        <time>2015-10-11T09:10:44.000Z</time>
      </trkpt>
      <trkpt lat="47.52282" lon="6.71211">
        <ele>368</ele>
        <time>2015-10-11T09:10:45.000Z</time>
      </trkpt>
      <trkpt lat="47.5228" lon="6.71214">
        <ele>368</ele>
        <time>2015-10-11T09:10:46.000Z</time>
      </trkpt>
      <trkpt lat="47.52277" lon="6.71217">
        <ele>368</ele>
        <time>2015-10-11T09:10:47.000Z</time>
      </trkpt>
      <trkpt lat="47.52275" lon="6.71219">
        <ele>368</ele>
        <time>2015-10-11T09:10:48.000Z</time>
      </trkpt>
      <trkpt lat="47.52272" lon="6.71221">
        <ele>368</ele>
        <time>2015-10-11T09:10:49.000Z</time>
      </trkpt>
      <trkpt lat="47.5227" lon="6.71223">
        <ele>368</ele>
        <time>2015-10-11T09:10:50.000Z</time>
      </trkpt>
      <trkpt lat="47.52267" lon="6.71223">
        <ele>368</ele>
        <time>2015-10-11T09:10:51.000Z</time>
      </trkpt>
      <trkpt lat="47.52264" lon="6.71222">
        <ele>368</ele>
        <time>2015-10-11T09:10:52.000Z</time>
      </trkpt>
      <trkpt lat="47.52261" lon="6.71219">
        <ele>368</ele>
        <time>2015-10-11T09:10:53.000Z</time>
      </trkpt>
      <trkpt lat="47.52258" lon="6.71215">
        <ele>368</ele>
        <time>2015-10-11T09:10:54.000Z</time>
      </trkpt>
      <trkpt lat="47.52256" lon="6.7121">
        <ele>368</ele>
        <time>2015-10-11T09:10:55.000Z</time>
      </trkpt>
      <trkpt lat="47.52254" lon="6.71205">
        <ele>368</ele>
        <time>2015-10-11T09:10:56.000Z</time>
      </trkpt>
      <trkpt lat="47.52251" lon="6.71201">
        <ele>368</ele>
        <time>2015-10-11T09:10:57.000Z</time>
      </trkpt>
      <trkpt lat="47.52249" lon="6.71197">
        <ele>370</ele>
        <time>2015-10-11T09:10:58.000Z</time>
      </trkpt>
      <trkpt lat="47.52247" lon="6.71193">
        <ele>369</ele>
        <time>2015-10-11T09:10:59.000Z</time>
      </trkpt>
      <trkpt lat="47.52245" lon="6.71189">
        <ele>369</ele>
        <time>2015-10-11T09:11:00.000Z</time>
      </trkpt>
      <trkpt lat="47.52242" lon="6.71184">
        <ele>369</ele>
        <time>2015-10-11T09:11:01.000Z</time>
      </trkpt>
      <trkpt lat="47.5224" lon="6.7118">
        <ele>369</ele>
        <time>2015-10-11T09:11:02.000Z</time>
      </trkpt>
      <trkpt lat="47.52237" lon="6.71175">
        <ele>369</ele>
        <time>2015-10-11T09:11:03.000Z</time>
      </trkpt>
      <trkpt lat="47.52234" lon="6.71171">
        <ele>369</ele>
        <time>2015-10-11T09:11:04.000Z</time>
      </trkpt>
      <trkpt lat="47.5223" lon="6.71164">
        <ele>367</ele>
        <time>2015-10-11T09:11:05.000Z</time>
      </trkpt>
      <trkpt lat="47.52227" lon="6.71159">
        <ele>367</ele>
        <time>2015-10-11T09:11:06.000Z</time>
      </trkpt>
      <trkpt lat="47.52223" lon="6.71152">
        <ele>367</ele>
        <time>2015-10-11T09:11:07.000Z</time>
      </trkpt>
      <trkpt lat="47.5222" lon="6.71147">
        <ele>367</ele>
        <time>2015-10-11T09:11:08.000Z</time>
      </trkpt>
      <trkpt lat="47.52216" lon="6.71141">
        <ele>367</ele>
        <time>2015-10-11T09:11:09.000Z</time>
      </trkpt>
      <trkpt lat="47.52212" lon="6.71135">
        <ele>367</ele>
        <time>2015-10-11T09:11:10.000Z</time>
      </trkpt>
      <trkpt lat="47.52208" lon="6.71129">
        <ele>367</ele>
        <time>2015-10-11T09:11:11.000Z</time>
      </trkpt>
      <trkpt lat="47.52204" lon="6.71123">
        <ele>367</ele>
        <time>2015-10-11T09:11:12.000Z</time>
      </trkpt>
      <trkpt lat="47.52198" lon="6.71117">
        <ele>367</ele>
        <time>2015-10-11T09:11:13.000Z</time>
      </trkpt>
      <trkpt lat="47.52193" lon="6.71111">
        <ele>367</ele>
        <time>2015-10-11T09:11:14.000Z</time>
      </trkpt>
      <trkpt lat="47.52188" lon="6.71106">
        <ele>367</ele>
        <time>2015-10-11T09:11:15.000Z</time>
      </trkpt>
      <trkpt lat="47.52183" lon="6.71101">
        <ele>367</ele>
        <time>2015-10-11T09:11:16.000Z</time>
      </trkpt>
      <trkpt lat="47.52179" lon="6.71096">
        <ele>367</ele>
        <time>2015-10-11T09:11:17.000Z</time>
      </trkpt>
      <trkpt lat="47.52174" lon="6.71091">
        <ele>367</ele>
        <time>2015-10-11T09:11:18.000Z</time>
      </trkpt>
      <trkpt lat="47.52169" lon="6.71087">
        <ele>367</ele>
        <time>2015-10-11T09:11:19.000Z</time>
      </trkpt>
      <trkpt lat="47.52165" lon="6.71084">
        <ele>367</ele>
        <time>2015-10-11T09:11:20.000Z</time>
      </trkpt>
      <trkpt lat="47.52161" lon="6.7108">
        <ele>367</ele>
        <time>2015-10-11T09:11:21.000Z</time>
      </trkpt>
      <trkpt lat="47.52157" lon="6.71077">
        <ele>367</ele>
        <time>2015-10-11T09:11:22.000Z</time>
      </trkpt>
      <trkpt lat="47.52153" lon="6.71074">
        <ele>367</ele>
        <time>2015-10-11T09:11:23.000Z</time>
      </trkpt>
      <trkpt lat="47.5215" lon="6.71071">
        <ele>367</ele>
        <time>2015-10-11T09:11:24.000Z</time>
      </trkpt>
      <trkpt lat="47.52146" lon="6.71065">
        <ele>367</ele>
        <time>2015-10-11T09:11:25.000Z</time>
      </trkpt>
      <trkpt lat="47.52141" lon="6.71062">
        <ele>367</ele>
        <time>2015-10-11T09:11:26.000Z</time>
      </trkpt>
      <trkpt lat="47.52137" lon="6.71059">
        <ele>367</ele>
        <time>2015-10-11T09:11:27.000Z</time>
      </trkpt>
      <trkpt lat="47.52133" lon="6.71057">
        <ele>367</ele>
        <time>2015-10-11T09:11:28.000Z</time>
      </trkpt>
      <trkpt lat="47.52129" lon="6.71054">
        <ele>367</ele>
        <time>2015-10-11T09:11:29.000Z</time>
      </trkpt>
      <trkpt lat="47.52125" lon="6.71051">
        <ele>367</ele>
        <time>2015-10-11T09:11:30.000Z</time>
      </trkpt>
      <trkpt lat="47.52121" lon="6.71048">
        <ele>367</ele>
        <time>2015-10-11T09:11:31.000Z</time>
      </trkpt>
      <trkpt lat="47.52117" lon="6.71045">
        <ele>367</ele>
        <time>2015-10-11T09:11:32.000Z</time>
      </trkpt>
      <trkpt lat="47.52113" lon="6.71041">
        <ele>367</ele>
        <time>2015-10-11T09:11:33.000Z</time>
      </trkpt>
      <trkpt lat="47.52109" lon="6.71037">
        <ele>367</ele>
        <time>2015-10-11T09:11:34.000Z</time>
      </trkpt>
      <trkpt lat="47.52105" lon="6.71034">
        <ele>367</ele>
        <time>2015-10-11T09:11:35.000Z</time>
      </trkpt>
      <trkpt lat="47.521" lon="6.7103">
        <ele>367</ele>
        <time>2015-10-11T09:11:36.000Z</time>
      </trkpt>
      <trkpt lat="47.52096" lon="6.71028">
        <ele>367</ele>
        <time>2015-10-11T09:11:37.000Z</time>
      </trkpt>
      <trkpt lat="47.52093" lon="6.71025">
        <ele>366</ele>
        <time>2015-10-11T09:11:38.000Z</time>
      </trkpt>
      <trkpt lat="47.5209" lon="6.71022">
        <ele>366</ele>
        <time>2015-10-11T09:11:39.000Z</time>
      </trkpt>
      <trkpt lat="47.52087" lon="6.71018">
        <ele>366</ele>
        <time>2015-10-11T09:11:40.000Z</time>
      </trkpt>
      <trkpt lat="47.52084" lon="6.71014">
        <ele>366</ele>
        <time>2015-10-11T09:11:42.000Z</time>
      </trkpt>
      <trkpt lat="47.52082" lon="6.71012">
        <ele>370</ele>
        <time>2015-10-11T09:11:43.000Z</time>
      </trkpt>
      <trkpt lat="47.52081" lon="6.71011">
        <ele>369</ele>
        <time>2015-10-11T09:11:44.000Z</time>
      </trkpt>
      <trkpt lat="47.52078" lon="6.71007">
        <ele>368</ele>
        <time>2015-10-11T09:11:45.000Z</time>
      </trkpt>
      <trkpt lat="47.52075" lon="6.71009">
        <ele>370</ele>
        <time>2015-10-11T09:11:46.000Z</time>
      </trkpt>
      <trkpt lat="47.52072" lon="6.71011">
        <ele>371</ele>
        <time>2015-10-11T09:11:47.000Z</time>
      </trkpt>
      <trkpt lat="47.52068" lon="6.71013">
        <ele>372</ele>
        <time>2015-10-11T09:11:48.000Z</time>
      </trkpt>
      <trkpt lat="47.52065" lon="6.71015">
        <ele>372</ele>
        <time>2015-10-11T09:11:49.000Z</time>
      </trkpt>
      <trkpt lat="47.52061" lon="6.71014">
        <ele>373</ele>
        <time>2015-10-11T09:11:50.000Z</time>
      </trkpt>
      <trkpt lat="47.52057" lon="6.71012">
        <ele>373</ele>
        <time>2015-10-11T09:11:51.000Z</time>
      </trkpt>
      <trkpt lat="47.52054" lon="6.7101">
        <ele>373</ele>
        <time>2015-10-11T09:11:52.000Z</time>
      </trkpt>
      <trkpt lat="47.5205" lon="6.71006">
        <ele>374</ele>
        <time>2015-10-11T09:11:53.000Z</time>
      </trkpt>
      <trkpt lat="47.52047" lon="6.71004">
        <ele>374</ele>
        <time>2015-10-11T09:11:54.000Z</time>
      </trkpt>
      <trkpt lat="47.52043" lon="6.71002">
        <ele>374</ele>
        <time>2015-10-11T09:11:55.000Z</time>
      </trkpt>
      <trkpt lat="47.52039" lon="6.70999">
        <ele>366</ele>
        <time>2015-10-11T09:11:56.000Z</time>
      </trkpt>
      <trkpt lat="47.52036" lon="6.70996">
        <ele>367</ele>
        <time>2015-10-11T09:11:57.000Z</time>
      </trkpt>
      <trkpt lat="47.52032" lon="6.70993">
        <ele>367</ele>
        <time>2015-10-11T09:11:58.000Z</time>
      </trkpt>
      <trkpt lat="47.52028" lon="6.70991">
        <ele>367</ele>
        <time>2015-10-11T09:11:59.000Z</time>
      </trkpt>
      <trkpt lat="47.52025" lon="6.70988">
        <ele>367</ele>
        <time>2015-10-11T09:12:00.000Z</time>
      </trkpt>
      <trkpt lat="47.52021" lon="6.70985">
        <ele>368</ele>
        <time>2015-10-11T09:12:01.000Z</time>
      </trkpt>
      <trkpt lat="47.52018" lon="6.70984">
        <ele>368</ele>
        <time>2015-10-11T09:12:02.000Z</time>
      </trkpt>
      <trkpt lat="47.52014" lon="6.70982">
        <ele>368</ele>
        <time>2015-10-11T09:12:03.000Z</time>
      </trkpt>
      <trkpt lat="47.5201" lon="6.7098">
        <ele>368</ele>
        <time>2015-10-11T09:12:04.000Z</time>
      </trkpt>
      <trkpt lat="47.52006" lon="6.70979">
        <ele>368</ele>
        <time>2015-10-11T09:12:05.000Z</time>
      </trkpt>
      <trkpt lat="47.52003" lon="6.70978">
        <ele>368</ele>
        <time>2015-10-11T09:12:06.000Z</time>
      </trkpt>
      <trkpt lat="47.51999" lon="6.70978">
        <ele>373</ele>
        <time>2015-10-11T09:12:07.000Z</time>
      </trkpt>
      <trkpt lat="47.51996" lon="6.70977">
        <ele>373</ele>
        <time>2015-10-11T09:12:08.000Z</time>
      </trkpt>
      <trkpt lat="47.51992" lon="6.70977">
        <ele>373</ele>
        <time>2015-10-11T09:12:09.000Z</time>
      </trkpt>
      <trkpt lat="47.51989" lon="6.70977">
        <ele>373</ele>
        <time>2015-10-11T09:12:10.000Z</time>
      </trkpt>
      <trkpt lat="47.51985" lon="6.70978">
        <ele>374</ele>
        <time>2015-10-11T09:12:11.000Z</time>
      </trkpt>
      <trkpt lat="47.51982" lon="6.70979">
        <ele>374</ele>
        <time>2015-10-11T09:12:12.000Z</time>
      </trkpt>
      <trkpt lat="47.5198" lon="6.70979">
        <ele>374</ele>
        <time>2015-10-11T09:12:13.000Z</time>
      </trkpt>
      <trkpt lat="47.51977" lon="6.7098">
        <ele>374</ele>
        <time>2015-10-11T09:12:14.000Z</time>
      </trkpt>
      <trkpt lat="47.51974" lon="6.70981">
        <ele>374</ele>
        <time>2015-10-11T09:12:15.000Z</time>
      </trkpt>
      <trkpt lat="47.51971" lon="6.70982">
        <ele>374</ele>
        <time>2015-10-11T09:12:16.000Z</time>
      </trkpt>
      <trkpt lat="47.51968" lon="6.70982">
        <ele>375</ele>
        <time>2015-10-11T09:12:17.000Z</time>
      </trkpt>
      <trkpt lat="47.51966" lon="6.70982">
        <ele>375</ele>
        <time>2015-10-11T09:12:18.000Z</time>
      </trkpt>
      <trkpt lat="47.51964" lon="6.70983">
        <ele>375</ele>
        <time>2015-10-11T09:12:19.000Z</time>
      </trkpt>
      <trkpt lat="47.51961" lon="6.70983">
        <ele>375</ele>
        <time>2015-10-11T09:12:20.000Z</time>
      </trkpt>
      <trkpt lat="47.51959" lon="6.70983">
        <ele>376</ele>
        <time>2015-10-11T09:12:21.000Z</time>
      </trkpt>
      <trkpt lat="47.51957" lon="6.70983">
        <ele>376</ele>
        <time>2015-10-11T09:12:22.000Z</time>
      </trkpt>
      <trkpt lat="47.51953" lon="6.70985">
        <ele>376</ele>
        <time>2015-10-11T09:12:24.000Z</time>
      </trkpt>
      <trkpt lat="47.51951" lon="6.70986">
        <ele>377</ele>
        <time>2015-10-11T09:12:25.000Z</time>
      </trkpt>
      <trkpt lat="47.51948" lon="6.70987">
        <ele>377</ele>
        <time>2015-10-11T09:12:27.000Z</time>
      </trkpt>
      <trkpt lat="47.51946" lon="6.70987">
        <ele>377</ele>
        <time>2015-10-11T09:12:28.000Z</time>
      </trkpt>
      <trkpt lat="47.51942" lon="6.70986">
        <ele>378</ele>
        <time>2015-10-11T09:12:30.000Z</time>
      </trkpt>
      <trkpt lat="47.51941" lon="6.70986">
        <ele>378</ele>
        <time>2015-10-11T09:12:31.000Z</time>
      </trkpt>
      <trkpt lat="47.51937" lon="6.70987">
        <ele>379</ele>
        <time>2015-10-11T09:12:33.000Z</time>
      </trkpt>
      <trkpt lat="47.51936" lon="6.70987">
        <ele>379</ele>
        <time>2015-10-11T09:12:34.000Z</time>
      </trkpt>
      <trkpt lat="47.51933" lon="6.70988">
        <ele>380</ele>
        <time>2015-10-11T09:12:36.000Z</time>
      </trkpt>
      <trkpt lat="47.51931" lon="6.70988">
        <ele>380</ele>
        <time>2015-10-11T09:12:37.000Z</time>
      </trkpt>
      <trkpt lat="47.51927" lon="6.70988">
        <ele>381</ele>
        <time>2015-10-11T09:12:40.000Z</time>
      </trkpt>
      <trkpt lat="47.51925" lon="6.70988">
        <ele>381</ele>
        <time>2015-10-11T09:12:41.000Z</time>
      </trkpt>
      <trkpt lat="47.51921" lon="6.7099">
        <ele>382</ele>
        <time>2015-10-11T09:12:44.000Z</time>
      </trkpt>
      <trkpt lat="47.5192" lon="6.7099">
        <ele>383</ele>
        <time>2015-10-11T09:12:45.000Z</time>
      </trkpt>
      <trkpt lat="47.51916" lon="6.70991">
        <ele>386</ele>
        <time>2015-10-11T09:12:47.000Z</time>
      </trkpt>
      <trkpt lat="47.51915" lon="6.70992">
        <ele>386</ele>
        <time>2015-10-11T09:12:48.000Z</time>
      </trkpt>
      <trkpt lat="47.51911" lon="6.70992">
        <ele>386</ele>
        <time>2015-10-11T09:12:50.000Z</time>
      </trkpt>
      <trkpt lat="47.5191" lon="6.70992">
        <ele>386</ele>
        <time>2015-10-11T09:12:51.000Z</time>
      </trkpt>
      <trkpt lat="47.51906" lon="6.70992">
        <ele>386</ele>
        <time>2015-10-11T09:12:53.000Z</time>
      </trkpt>
      <trkpt lat="47.51905" lon="6.70993">
        <ele>386</ele>
        <time>2015-10-11T09:12:54.000Z</time>
      </trkpt>
      <trkpt lat="47.51901" lon="6.70994">
        <ele>386</ele>
        <time>2015-10-11T09:12:56.000Z</time>
      </trkpt>
      <trkpt lat="47.519" lon="6.70995">
        <ele>386</ele>
        <time>2015-10-11T09:12:57.000Z</time>
      </trkpt>
      <trkpt lat="47.51896" lon="6.70995">
        <ele>386</ele>
        <time>2015-10-11T09:13:00.000Z</time>
      </trkpt>
      <trkpt lat="47.51894" lon="6.70995">
        <ele>386</ele>
        <time>2015-10-11T09:13:01.000Z</time>
      </trkpt>
      <trkpt lat="47.51891" lon="6.70996">
        <ele>386</ele>
        <time>2015-10-11T09:13:04.000Z</time>
      </trkpt>
      <trkpt lat="47.51889" lon="6.70996">
        <ele>386</ele>
        <time>2015-10-11T09:13:05.000Z</time>
      </trkpt>
      <trkpt lat="47.51886" lon="6.70996">
        <ele>386</ele>
        <time>2015-10-11T09:13:07.000Z</time>
      </trkpt>
      <trkpt lat="47.51885" lon="6.70996">
        <ele>386</ele>
        <time>2015-10-11T09:13:08.000Z</time>
      </trkpt>
      <trkpt lat="47.51882" lon="6.70996">
        <ele>386</ele>
        <time>2015-10-11T09:13:09.000Z</time>
      </trkpt>
      <trkpt lat="47.5188" lon="6.70996">
        <ele>387</ele>
        <time>2015-10-11T09:13:10.000Z</time>
      </trkpt>
      <trkpt lat="47.51875" lon="6.70997">
        <ele>387</ele>
        <time>2015-10-11T09:13:12.000Z</time>
      </trkpt>
      <trkpt lat="47.51874" lon="6.70997">
        <ele>387</ele>
        <time>2015-10-11T09:13:13.000Z</time>
      </trkpt>
      <trkpt lat="47.51871" lon="6.70997">
        <ele>387</ele>
        <time>2015-10-11T09:13:14.000Z</time>
      </trkpt>
      <trkpt lat="47.51869" lon="6.70997">
        <ele>387</ele>
        <time>2015-10-11T09:13:15.000Z</time>
      </trkpt>
      <trkpt lat="47.51866" lon="6.70998">
        <ele>388</ele>
        <time>2015-10-11T09:13:16.000Z</time>
      </trkpt>
      <trkpt lat="47.51864" lon="6.70997">
        <ele>388</ele>
        <time>2015-10-11T09:13:17.000Z</time>
      </trkpt>
      <trkpt lat="47.5186" lon="6.70998">
        <ele>388</ele>
        <time>2015-10-11T09:13:19.000Z</time>
      </trkpt>
      <trkpt lat="47.51858" lon="6.70998">
        <ele>389</ele>
        <time>2015-10-11T09:13:20.000Z</time>
      </trkpt>
      <trkpt lat="47.51854" lon="6.70999">
        <ele>389</ele>
        <time>2015-10-11T09:13:22.000Z</time>
      </trkpt>
      <trkpt lat="47.51852" lon="6.71">
        <ele>395</ele>
        <time>2015-10-11T09:13:23.000Z</time>
      </trkpt>
      <trkpt lat="47.51849" lon="6.71002">
        <ele>395</ele>
        <time>2015-10-11T09:13:25.000Z</time>
      </trkpt>
      <trkpt lat="47.51847" lon="6.71003">
        <ele>395</ele>
        <time>2015-10-11T09:13:26.000Z</time>
      </trkpt>
      <trkpt lat="47.51844" lon="6.71004">
        <ele>395</ele>
        <time>2015-10-11T09:13:28.000Z</time>
      </trkpt>
      <trkpt lat="47.51842" lon="6.71005">
        <ele>395</ele>
        <time>2015-10-11T09:13:29.000Z</time>
      </trkpt>
      <trkpt lat="47.51839" lon="6.71006">
        <ele>395</ele>
        <time>2015-10-11T09:13:31.000Z</time>
      </trkpt>
      <trkpt lat="47.51837" lon="6.71007">
        <ele>395</ele>
        <time>2015-10-11T09:13:32.000Z</time>
      </trkpt>
      <trkpt lat="47.51834" lon="6.71008">
        <ele>395</ele>
        <time>2015-10-11T09:13:34.000Z</time>
      </trkpt>
      <trkpt lat="47.51832" lon="6.71008">
        <ele>396</ele>
        <time>2015-10-11T09:13:35.000Z</time>
      </trkpt>
      <trkpt lat="47.51828" lon="6.71009">
        <ele>396</ele>
        <time>2015-10-11T09:13:37.000Z</time>
      </trkpt>
      <trkpt lat="47.51827" lon="6.7101">
        <ele>396</ele>
        <time>2015-10-11T09:13:38.000Z</time>
      </trkpt>
      <trkpt lat="47.51823" lon="6.7101">
        <ele>397</ele>
        <time>2015-10-11T09:13:40.000Z</time>
      </trkpt>
      <trkpt lat="47.51821" lon="6.7101">
        <ele>397</ele>
        <time>2015-10-11T09:13:41.000Z</time>
      </trkpt>
      <trkpt lat="47.51818" lon="6.7101">
        <ele>397</ele>
        <time>2015-10-11T09:13:43.000Z</time>
      </trkpt>
      <trkpt lat="47.51816" lon="6.7101">
        <ele>397</ele>
        <time>2015-10-11T09:13:44.000Z</time>
      </trkpt>
      <trkpt lat="47.51813" lon="6.71009">
        <ele>397</ele>
        <time>2015-10-11T09:13:46.000Z</time>
      </trkpt>
      <trkpt lat="47.51811" lon="6.7101">
        <ele>397</ele>
        <time>2015-10-11T09:13:47.000Z</time>
      </trkpt>
      <trkpt lat="47.51808" lon="6.71011">
        <ele>398</ele>
        <time>2015-10-11T09:13:49.000Z</time>
      </trkpt>
      <trkpt lat="47.51806" lon="6.71013">
        <ele>398</ele>
        <time>2015-10-11T09:13:50.000Z</time>
      </trkpt>
      <trkpt lat="47.51802" lon="6.71015">
        <ele>398</ele>
        <time>2015-10-11T09:13:52.000Z</time>
      </trkpt>
      <trkpt lat="47.51799" lon="6.71016">
        <ele>398</ele>
        <time>2015-10-11T09:13:53.000Z</time>
      </trkpt>
      <trkpt lat="47.51797" lon="6.71016">
        <ele>398</ele>
        <time>2015-10-11T09:13:54.000Z</time>
      </trkpt>
      <trkpt lat="47.51794" lon="6.71016">
        <ele>398</ele>
        <time>2015-10-11T09:13:55.000Z</time>
      </trkpt>
      <trkpt lat="47.51791" lon="6.71015">
        <ele>398</ele>
        <time>2015-10-11T09:13:56.000Z</time>
      </trkpt>
      <trkpt lat="47.51789" lon="6.71015">
        <ele>398</ele>
        <time>2015-10-11T09:13:57.000Z</time>
      </trkpt>
      <trkpt lat="47.51785" lon="6.71014">
        <ele>398</ele>
        <time>2015-10-11T09:13:59.000Z</time>
      </trkpt>
      <trkpt lat="47.51783" lon="6.71013">
        <ele>398</ele>
        <time>2015-10-11T09:14:00.000Z</time>
      </trkpt>
      <trkpt lat="47.5178" lon="6.71012">
        <ele>398</ele>
        <time>2015-10-11T09:14:02.000Z</time>
      </trkpt>
      <trkpt lat="47.51778" lon="6.71012">
        <ele>398</ele>
        <time>2015-10-11T09:14:03.000Z</time>
      </trkpt>
      <trkpt lat="47.51774" lon="6.71011">
        <ele>398</ele>
        <time>2015-10-11T09:14:05.000Z</time>
      </trkpt>
      <trkpt lat="47.51771" lon="6.71011">
        <ele>398</ele>
        <time>2015-10-11T09:14:06.000Z</time>
      </trkpt>
      <trkpt lat="47.51767" lon="6.71011">
        <ele>398</ele>
        <time>2015-10-11T09:14:08.000Z</time>
      </trkpt>
      <trkpt lat="47.51765" lon="6.71012">
        <ele>398</ele>
        <time>2015-10-11T09:14:09.000Z</time>
      </trkpt>
      <trkpt lat="47.51762" lon="6.71013">
        <ele>398</ele>
        <time>2015-10-11T09:14:11.000Z</time>
      </trkpt>
      <trkpt lat="47.5176" lon="6.71013">
        <ele>398</ele>
        <time>2015-10-11T09:14:12.000Z</time>
      </trkpt>
      <trkpt lat="47.51756" lon="6.71014">
        <ele>398</ele>
        <time>2015-10-11T09:14:14.000Z</time>
      </trkpt>
      <trkpt lat="47.51754" lon="6.71014">
        <ele>398</ele>
        <time>2015-10-11T09:14:15.000Z</time>
      </trkpt>
      <trkpt lat="47.5175" lon="6.71015">
        <ele>402</ele>
        <time>2015-10-11T09:14:17.000Z</time>
      </trkpt>
      <trkpt lat="47.51748" lon="6.71015">
        <ele>402</ele>
        <time>2015-10-11T09:14:18.000Z</time>
      </trkpt>
      <trkpt lat="47.51743" lon="6.71016">
        <ele>402</ele>
        <time>2015-10-11T09:14:20.000Z</time>
      </trkpt>
      <trkpt lat="47.51741" lon="6.71016">
        <ele>403</ele>
        <time>2015-10-11T09:14:21.000Z</time>
      </trkpt>
      <trkpt lat="47.51737" lon="6.71016">
        <ele>403</ele>
        <time>2015-10-11T09:14:23.000Z</time>
      </trkpt>
      <trkpt lat="47.51734" lon="6.71017">
        <ele>404</ele>
        <time>2015-10-11T09:14:24.000Z</time>
      </trkpt>
      <trkpt lat="47.5173" lon="6.71017">
        <ele>405</ele>
        <time>2015-10-11T09:14:26.000Z</time>
      </trkpt>
      <trkpt lat="47.51728" lon="6.71017">
        <ele>405</ele>
        <time>2015-10-11T09:14:27.000Z</time>
      </trkpt>
      <trkpt lat="47.51724" lon="6.71017">
        <ele>406</ele>
        <time>2015-10-11T09:14:29.000Z</time>
      </trkpt>
      <trkpt lat="47.51722" lon="6.71016">
        <ele>406</ele>
        <time>2015-10-11T09:14:30.000Z</time>
      </trkpt>
      <trkpt lat="47.51717" lon="6.71016">
        <ele>406</ele>
        <time>2015-10-11T09:14:32.000Z</time>
      </trkpt>
      <trkpt lat="47.51715" lon="6.71016">
        <ele>407</ele>
        <time>2015-10-11T09:14:33.000Z</time>
      </trkpt>
      <trkpt lat="47.51711" lon="6.71016">
        <ele>407</ele>
        <time>2015-10-11T09:14:35.000Z</time>
      </trkpt>
      <trkpt lat="47.51709" lon="6.71015">
        <ele>408</ele>
        <time>2015-10-11T09:14:36.000Z</time>
      </trkpt>
      <trkpt lat="47.51706" lon="6.71015">
        <ele>408</ele>
        <time>2015-10-11T09:14:37.000Z</time>
      </trkpt>
      <trkpt lat="47.51704" lon="6.71015">
        <ele>408</ele>
        <time>2015-10-11T09:14:38.000Z</time>
      </trkpt>
      <trkpt lat="47.517" lon="6.71014">
        <ele>409</ele>
        <time>2015-10-11T09:14:40.000Z</time>
      </trkpt>
      <trkpt lat="47.51698" lon="6.71013">
        <ele>409</ele>
        <time>2015-10-11T09:14:41.000Z</time>
      </trkpt>
      <trkpt lat="47.51693" lon="6.71012">
        <ele>409</ele>
        <time>2015-10-11T09:14:43.000Z</time>
      </trkpt>
      <trkpt lat="47.51691" lon="6.71012">
        <ele>409</ele>
        <time>2015-10-11T09:14:44.000Z</time>
      </trkpt>
      <trkpt lat="47.51687" lon="6.71012">
        <ele>410</ele>
        <time>2015-10-11T09:14:46.000Z</time>
      </trkpt>
      <trkpt lat="47.51684" lon="6.71012">
        <ele>410</ele>
        <time>2015-10-11T09:14:47.000Z</time>
      </trkpt>
      <trkpt lat="47.51682" lon="6.71012">
        <ele>410</ele>
        <time>2015-10-11T09:14:48.000Z</time>
      </trkpt>
      <trkpt lat="47.5168" lon="6.71011">
        <ele>410</ele>
        <time>2015-10-11T09:14:49.000Z</time>
      </trkpt>
      <trkpt lat="47.51678" lon="6.71011">
        <ele>411</ele>
        <time>2015-10-11T09:14:50.000Z</time>
      </trkpt>
      <trkpt lat="47.51675" lon="6.7101">
        <ele>411</ele>
        <time>2015-10-11T09:14:51.000Z</time>
      </trkpt>
      <trkpt lat="47.51673" lon="6.7101">
        <ele>411</ele>
        <time>2015-10-11T09:14:52.000Z</time>
      </trkpt>
      <trkpt lat="47.5167" lon="6.71009">
        <ele>411</ele>
        <time>2015-10-11T09:14:53.000Z</time>
      </trkpt>
      <trkpt lat="47.51668" lon="6.71008">
        <ele>411</ele>
        <time>2015-10-11T09:14:54.000Z</time>
      </trkpt>
      <trkpt lat="47.51665" lon="6.71008">
        <ele>416</ele>
        <time>2015-10-11T09:14:55.000Z</time>
      </trkpt>
      <trkpt lat="47.51663" lon="6.71007">
        <ele>416</ele>
        <time>2015-10-11T09:14:56.000Z</time>
      </trkpt>
      <trkpt lat="47.5166" lon="6.71006">
        <ele>416</ele>
        <time>2015-10-11T09:14:57.000Z</time>
      </trkpt>
      <trkpt lat="47.51658" lon="6.71006">
        <ele>417</ele>
        <time>2015-10-11T09:14:58.000Z</time>
      </trkpt>
      <trkpt lat="47.51656" lon="6.71005">
        <ele>418</ele>
        <time>2015-10-11T09:14:59.000Z</time>
      </trkpt>
      <trkpt lat="47.51653" lon="6.71003">
        <ele>418</ele>
        <time>2015-10-11T09:15:00.000Z</time>
      </trkpt>
      <trkpt lat="47.51651" lon="6.71002">
        <ele>419</ele>
        <time>2015-10-11T09:15:01.000Z</time>
      </trkpt>
      <trkpt lat="47.51648" lon="6.71001">
        <ele>420</ele>
        <time>2015-10-11T09:15:02.000Z</time>
      </trkpt>
      <trkpt lat="47.51646" lon="6.70999">
        <ele>416</ele>
        <time>2015-10-11T09:15:03.000Z</time>
      </trkpt>
      <trkpt lat="47.51643" lon="6.70998">
        <ele>416</ele>
        <time>2015-10-11T09:15:04.000Z</time>
      </trkpt>
      <trkpt lat="47.51641" lon="6.70996">
        <ele>416</ele>
        <time>2015-10-11T09:15:05.000Z</time>
      </trkpt>
      <trkpt lat="47.51639" lon="6.70994">
        <ele>417</ele>
        <time>2015-10-11T09:15:06.000Z</time>
      </trkpt>
      <trkpt lat="47.51637" lon="6.70993">
        <ele>417</ele>
        <time>2015-10-11T09:15:07.000Z</time>
      </trkpt>
      <trkpt lat="47.51635" lon="6.70991">
        <ele>417</ele>
        <time>2015-10-11T09:15:08.000Z</time>
      </trkpt>
      <trkpt lat="47.51633" lon="6.7099">
        <ele>418</ele>
        <time>2015-10-11T09:15:09.000Z</time>
      </trkpt>
      <trkpt lat="47.5163" lon="6.7099">
        <ele>418</ele>
        <time>2015-10-11T09:15:10.000Z</time>
      </trkpt>
      <trkpt lat="47.51628" lon="6.7099">
        <ele>418</ele>
        <time>2015-10-11T09:15:11.000Z</time>
      </trkpt>
      <trkpt lat="47.51625" lon="6.70989">
        <ele>419</ele>
        <time>2015-10-11T09:15:12.000Z</time>
      </trkpt>
      <trkpt lat="47.51623" lon="6.70989">
        <ele>419</ele>
        <time>2015-10-11T09:15:13.000Z</time>
      </trkpt>
      <trkpt lat="47.5162" lon="6.70989">
        <ele>420</ele>
        <time>2015-10-11T09:15:14.000Z</time>
      </trkpt>
      <trkpt lat="47.51618" lon="6.70989">
        <ele>420</ele>
        <time>2015-10-11T09:15:15.000Z</time>
      </trkpt>
      <trkpt lat="47.51613" lon="6.70989">
        <ele>421</ele>
        <time>2015-10-11T09:15:17.000Z</time>
      </trkpt>
      <trkpt lat="47.51612" lon="6.70989">
        <ele>422</ele>
        <time>2015-10-11T09:15:18.000Z</time>
      </trkpt>
      <trkpt lat="47.51608" lon="6.70989">
        <ele>422</ele>
        <time>2015-10-11T09:15:20.000Z</time>
      </trkpt>
      <trkpt lat="47.51607" lon="6.70988">
        <ele>422</ele>
        <time>2015-10-11T09:15:21.000Z</time>
      </trkpt>
      <trkpt lat="47.51603" lon="6.70989">
        <ele>423</ele>
        <time>2015-10-11T09:15:23.000Z</time>
      </trkpt>
      <trkpt lat="47.51601" lon="6.70989">
        <ele>424</ele>
        <time>2015-10-11T09:15:24.000Z</time>
      </trkpt>
      <trkpt lat="47.51599" lon="6.7099">
        <ele>425</ele>
        <time>2015-10-11T09:15:25.000Z</time>
      </trkpt>
      <trkpt lat="47.51596" lon="6.70991">
        <ele>425</ele>
        <time>2015-10-11T09:15:26.000Z</time>
      </trkpt>
      <trkpt lat="47.51592" lon="6.70991">
        <ele>427</ele>
        <time>2015-10-11T09:15:28.000Z</time>
      </trkpt>
      <trkpt lat="47.5159" lon="6.7099">
        <ele>427</ele>
        <time>2015-10-11T09:15:29.000Z</time>
      </trkpt>
      <trkpt lat="47.51586" lon="6.70989">
        <ele>427</ele>
        <time>2015-10-11T09:15:31.000Z</time>
      </trkpt>
      <trkpt lat="47.51584" lon="6.70989">
        <ele>427</ele>
        <time>2015-10-11T09:15:32.000Z</time>
      </trkpt>
      <trkpt lat="47.51579" lon="6.70987">
        <ele>433</ele>
        <time>2015-10-11T09:15:34.000Z</time>
      </trkpt>
      <trkpt lat="47.51577" lon="6.70986">
        <ele>433</ele>
        <time>2015-10-11T09:15:35.000Z</time>
      </trkpt>
      <trkpt lat="47.51575" lon="6.70985">
        <ele>433</ele>
        <time>2015-10-11T09:15:36.000Z</time>
      </trkpt>
      <trkpt lat="47.51572" lon="6.70984">
        <ele>433</ele>
        <time>2015-10-11T09:15:37.000Z</time>
      </trkpt>
      <trkpt lat="47.51569" lon="6.70983">
        <ele>433</ele>
        <time>2015-10-11T09:15:38.000Z</time>
      </trkpt>
      <trkpt lat="47.51567" lon="6.70982">
        <ele>433</ele>
        <time>2015-10-11T09:15:39.000Z</time>
      </trkpt>
      <trkpt lat="47.51564" lon="6.70981">
        <ele>433</ele>
        <time>2015-10-11T09:15:40.000Z</time>
      </trkpt>
      <trkpt lat="47.51561" lon="6.70979">
        <ele>433</ele>
        <time>2015-10-11T09:15:41.000Z</time>
      </trkpt>
      <trkpt lat="47.51559" lon="6.70978">
        <ele>433</ele>
        <time>2015-10-11T09:15:42.000Z</time>
      </trkpt>
      <trkpt lat="47.51557" lon="6.70977">
        <ele>433</ele>
        <time>2015-10-11T09:15:43.000Z</time>
      </trkpt>
      <trkpt lat="47.51554" lon="6.70977">
        <ele>433</ele>
        <time>2015-10-11T09:15:44.000Z</time>
      </trkpt>
      <trkpt lat="47.51551" lon="6.70976">
        <ele>433</ele>
        <time>2015-10-11T09:15:45.000Z</time>
      </trkpt>
      <trkpt lat="47.51548" lon="6.70976">
        <ele>433</ele>
        <time>2015-10-11T09:15:46.000Z</time>
      </trkpt>
      <trkpt lat="47.51545" lon="6.70975">
        <ele>433</ele>
        <time>2015-10-11T09:15:47.000Z</time>
      </trkpt>
      <trkpt lat="47.51542" lon="6.70975">
        <ele>434</ele>
        <time>2015-10-11T09:15:48.000Z</time>
      </trkpt>
      <trkpt lat="47.51539" lon="6.70975">
        <ele>434</ele>
        <time>2015-10-11T09:15:49.000Z</time>
      </trkpt>
      <trkpt lat="47.51536" lon="6.70974">
        <ele>434</ele>
        <time>2015-10-11T09:15:50.000Z</time>
      </trkpt>
      <trkpt lat="47.51532" lon="6.70973">
        <ele>434</ele>
        <time>2015-10-11T09:15:51.000Z</time>
      </trkpt>
      <trkpt lat="47.51529" lon="6.70972">
        <ele>434</ele>
        <time>2015-10-11T09:15:52.000Z</time>
      </trkpt>
      <trkpt lat="47.51526" lon="6.70971">
        <ele>435</ele>
        <time>2015-10-11T09:15:53.000Z</time>
      </trkpt>
      <trkpt lat="47.51523" lon="6.7097">
        <ele>435</ele>
        <time>2015-10-11T09:15:54.000Z</time>
      </trkpt>
      <trkpt lat="47.51521" lon="6.70968">
        <ele>435</ele>
        <time>2015-10-11T09:15:55.000Z</time>
      </trkpt>
      <trkpt lat="47.51518" lon="6.70966">
        <ele>435</ele>
        <time>2015-10-11T09:15:56.000Z</time>
      </trkpt>
      <trkpt lat="47.51515" lon="6.70965">
        <ele>435</ele>
        <time>2015-10-11T09:15:57.000Z</time>
      </trkpt>
      <trkpt lat="47.51512" lon="6.70964">
        <ele>435</ele>
        <time>2015-10-11T09:15:58.000Z</time>
      </trkpt>
      <trkpt lat="47.51509" lon="6.70962">
        <ele>435</ele>
        <time>2015-10-11T09:15:59.000Z</time>
      </trkpt>
      <trkpt lat="47.51507" lon="6.70961">
        <ele>435</ele>
        <time>2015-10-11T09:16:00.000Z</time>
      </trkpt>
      <trkpt lat="47.51504" lon="6.7096">
        <ele>435</ele>
        <time>2015-10-11T09:16:01.000Z</time>
      </trkpt>
      <trkpt lat="47.51502" lon="6.70958">
        <ele>435</ele>
        <time>2015-10-11T09:16:02.000Z</time>
      </trkpt>
      <trkpt lat="47.515" lon="6.70958">
        <ele>442</ele>
        <time>2015-10-11T09:16:03.000Z</time>
      </trkpt>
      <trkpt lat="47.51497" lon="6.70957">
        <ele>442</ele>
        <time>2015-10-11T09:16:04.000Z</time>
      </trkpt>
      <trkpt lat="47.51494" lon="6.70956">
        <ele>442</ele>
        <time>2015-10-11T09:16:05.000Z</time>
      </trkpt>
      <trkpt lat="47.51491" lon="6.70955">
        <ele>442</ele>
        <time>2015-10-11T09:16:06.000Z</time>
      </trkpt>
      <trkpt lat="47.51488" lon="6.70954">
        <ele>442</ele>
        <time>2015-10-11T09:16:07.000Z</time>
      </trkpt>
      <trkpt lat="47.51485" lon="6.70954">
        <ele>442</ele>
        <time>2015-10-11T09:16:08.000Z</time>
      </trkpt>
      <trkpt lat="47.51482" lon="6.70953">
        <ele>443</ele>
        <time>2015-10-11T09:16:09.000Z</time>
      </trkpt>
      <trkpt lat="47.51479" lon="6.70953">
        <ele>443</ele>
        <time>2015-10-11T09:16:10.000Z</time>
      </trkpt>
      <trkpt lat="47.51476" lon="6.70953">
        <ele>443</ele>
        <time>2015-10-11T09:16:11.000Z</time>
      </trkpt>
      <trkpt lat="47.51473" lon="6.70953">
        <ele>443</ele>
        <time>2015-10-11T09:16:12.000Z</time>
      </trkpt>
      <trkpt lat="47.5147" lon="6.70953">
        <ele>443</ele>
        <time>2015-10-11T09:16:13.000Z</time>
      </trkpt>
      <trkpt lat="47.51467" lon="6.70953">
        <ele>444</ele>
        <time>2015-10-11T09:16:14.000Z</time>
      </trkpt>
      <trkpt lat="47.51464" lon="6.70953">
        <ele>444</ele>
        <time>2015-10-11T09:16:15.000Z</time>
      </trkpt>
      <trkpt lat="47.51461" lon="6.70953">
        <ele>444</ele>
        <time>2015-10-11T09:16:16.000Z</time>
      </trkpt>
      <trkpt lat="47.51458" lon="6.70952">
        <ele>444</ele>
        <time>2015-10-11T09:16:17.000Z</time>
      </trkpt>
      <trkpt lat="47.51455" lon="6.70951">
        <ele>445</ele>
        <time>2015-10-11T09:16:18.000Z</time>
      </trkpt>
      <trkpt lat="47.51452" lon="6.7095">
        <ele>445</ele>
        <time>2015-10-11T09:16:19.000Z</time>
      </trkpt>
      <trkpt lat="47.5145" lon="6.7095">
        <ele>445</ele>
        <time>2015-10-11T09:16:19.999Z</time>
      </trkpt>
      <trkpt lat="47.51447" lon="6.70949">
        <ele>445</ele>
        <time>2015-10-11T09:16:21.000Z</time>
      </trkpt>
      <trkpt lat="47.51445" lon="6.70948">
        <ele>445</ele>
        <time>2015-10-11T09:16:22.000Z</time>
      </trkpt>
      <trkpt lat="47.51443" lon="6.70947">
        <ele>445</ele>
        <time>2015-10-11T09:16:23.000Z</time>
      </trkpt>
      <trkpt lat="47.5144" lon="6.70946">
        <ele>446</ele>
        <time>2015-10-11T09:16:24.000Z</time>
      </trkpt>
      <trkpt lat="47.51437" lon="6.70945">
        <ele>446</ele>
        <time>2015-10-11T09:16:25.000Z</time>
      </trkpt>
      <trkpt lat="47.51435" lon="6.70944">
        <ele>446</ele>
        <time>2015-10-11T09:16:26.000Z</time>
      </trkpt>
      <trkpt lat="47.51432" lon="6.70943">
        <ele>446</ele>
        <time>2015-10-11T09:16:27.000Z</time>
      </trkpt>
      <trkpt lat="47.51429" lon="6.70942">
        <ele>446</ele>
        <time>2015-10-11T09:16:28.000Z</time>
      </trkpt>
      <trkpt lat="47.51426" lon="6.70941">
        <ele>446</ele>
        <time>2015-10-11T09:16:29.000Z</time>
      </trkpt>
      <trkpt lat="47.51424" lon="6.7094">
        <ele>447</ele>
        <time>2015-10-11T09:16:30.000Z</time>
      </trkpt>
      <trkpt lat="47.51421" lon="6.70939">
        <ele>447</ele>
        <time>2015-10-11T09:16:31.000Z</time>
      </trkpt>
      <trkpt lat="47.51418" lon="6.70937">
        <ele>447</ele>
        <time>2015-10-11T09:16:32.000Z</time>
      </trkpt>
      <trkpt lat="47.51415" lon="6.70936">
        <ele>452</ele>
        <time>2015-10-11T09:16:33.000Z</time>
      </trkpt>
      <trkpt lat="47.51411" lon="6.70935">
        <ele>452</ele>
        <time>2015-10-11T09:16:34.000Z</time>
      </trkpt>
      <trkpt lat="47.51408" lon="6.70934">
        <ele>452</ele>
        <time>2015-10-11T09:16:35.000Z</time>
      </trkpt>
      <trkpt lat="47.51405" lon="6.70933">
        <ele>452</ele>
        <time>2015-10-11T09:16:36.000Z</time>
      </trkpt>
      <trkpt lat="47.51402" lon="6.70932">
        <ele>452</ele>
        <time>2015-10-11T09:16:37.000Z</time>
      </trkpt>
      <trkpt lat="47.51398" lon="6.7093">
        <ele>452</ele>
        <time>2015-10-11T09:16:38.000Z</time>
      </trkpt>
      <trkpt lat="47.51395" lon="6.70928">
        <ele>453</ele>
        <time>2015-10-11T09:16:39.000Z</time>
      </trkpt>
      <trkpt lat="47.51392" lon="6.70926">
        <ele>453</ele>
        <time>2015-10-11T09:16:40.000Z</time>
      </trkpt>
      <trkpt lat="47.51389" lon="6.70925">
        <ele>453</ele>
        <time>2015-10-11T09:16:41.000Z</time>
      </trkpt>
      <trkpt lat="47.51387" lon="6.70923">
        <ele>453</ele>
        <time>2015-10-11T09:16:42.000Z</time>
      </trkpt>
      <trkpt lat="47.51384" lon="6.70923">
        <ele>453</ele>
        <time>2015-10-11T09:16:43.000Z</time>
      </trkpt>
      <trkpt lat="47.5138" lon="6.70922">
        <ele>454</ele>
        <time>2015-10-11T09:16:45.000Z</time>
      </trkpt>
      <trkpt lat="47.51378" lon="6.70922">
        <ele>454</ele>
        <time>2015-10-11T09:16:46.000Z</time>
      </trkpt>
      <trkpt lat="47.51375" lon="6.70922">
        <ele>454</ele>
        <time>2015-10-11T09:16:47.000Z</time>
      </trkpt>
      <trkpt lat="47.51373" lon="6.70922">
        <ele>454</ele>
        <time>2015-10-11T09:16:48.000Z</time>
      </trkpt>
      <trkpt lat="47.5137" lon="6.70922">
        <ele>454</ele>
        <time>2015-10-11T09:16:49.000Z</time>
      </trkpt>
      <trkpt lat="47.51368" lon="6.70922">
        <ele>454</ele>
        <time>2015-10-11T09:16:50.000Z</time>
      </trkpt>
      <trkpt lat="47.51365" lon="6.70921">
        <ele>455</ele>
        <time>2015-10-11T09:16:51.000Z</time>
      </trkpt>
      <trkpt lat="47.51362" lon="6.7092">
        <ele>455</ele>
        <time>2015-10-11T09:16:52.000Z</time>
      </trkpt>
      <trkpt lat="47.5136" lon="6.70919">
        <ele>455</ele>
        <time>2015-10-11T09:16:53.000Z</time>
      </trkpt>
      <trkpt lat="47.51358" lon="6.70917">
        <ele>455</ele>
        <time>2015-10-11T09:16:54.000Z</time>
      </trkpt>
      <trkpt lat="47.51354" lon="6.70916">
        <ele>453</ele>
        <time>2015-10-11T09:16:55.000Z</time>
      </trkpt>
      <trkpt lat="47.51352" lon="6.70915">
        <ele>453</ele>
        <time>2015-10-11T09:16:56.000Z</time>
      </trkpt>
      <trkpt lat="47.5135" lon="6.70914">
        <ele>454</ele>
        <time>2015-10-11T09:16:57.000Z</time>
      </trkpt>
      <trkpt lat="47.51347" lon="6.70913">
        <ele>454</ele>
        <time>2015-10-11T09:16:58.000Z</time>
      </trkpt>
      <trkpt lat="47.51344" lon="6.70913">
        <ele>454</ele>
        <time>2015-10-11T09:16:59.000Z</time>
      </trkpt>
      <trkpt lat="47.51342" lon="6.70913">
        <ele>455</ele>
        <time>2015-10-11T09:17:00.000Z</time>
      </trkpt>
      <trkpt lat="47.51339" lon="6.70913">
        <ele>455</ele>
        <time>2015-10-11T09:17:01.000Z</time>
      </trkpt>
      <trkpt lat="47.51336" lon="6.70912">
        <ele>456</ele>
        <time>2015-10-11T09:17:02.000Z</time>
      </trkpt>
      <trkpt lat="47.51334" lon="6.70912">
        <ele>456</ele>
        <time>2015-10-11T09:17:03.036Z</time>
      </trkpt>
      <trkpt lat="47.51331" lon="6.70912">
        <ele>456</ele>
        <time>2015-10-11T09:17:04.000Z</time>
      </trkpt>
      <trkpt lat="47.51328" lon="6.70912">
        <ele>456</ele>
        <time>2015-10-11T09:17:05.000Z</time>
      </trkpt>
      <trkpt lat="47.51325" lon="6.70911">
        <ele>456</ele>
        <time>2015-10-11T09:17:06.000Z</time>
      </trkpt>
      <trkpt lat="47.51321" lon="6.70911">
        <ele>455</ele>
        <time>2015-10-11T09:17:08.000Z</time>
      </trkpt>
      <trkpt lat="47.51319" lon="6.70911">
        <ele>455</ele>
        <time>2015-10-11T09:17:09.000Z</time>
      </trkpt>
      <trkpt lat="47.51315" lon="6.7091">
        <ele>455</ele>
        <time>2015-10-11T09:17:11.000Z</time>
      </trkpt>
      <trkpt lat="47.51313" lon="6.7091">
        <ele>454</ele>
        <time>2015-10-11T09:17:12.000Z</time>
      </trkpt>
      <trkpt lat="47.5131" lon="6.70911">
        <ele>454</ele>
        <time>2015-10-11T09:17:15.000Z</time>
      </trkpt>
      <trkpt lat="47.51308" lon="6.70912">
        <ele>454</ele>
        <time>2015-10-11T09:17:16.000Z</time>
      </trkpt>
      <trkpt lat="47.51305" lon="6.70913">
        <ele>454</ele>
        <time>2015-10-11T09:17:18.000Z</time>
      </trkpt>
      <trkpt lat="47.51304" lon="6.70913">
        <ele>454</ele>
        <time>2015-10-11T09:17:19.000Z</time>
      </trkpt>
      <trkpt lat="47.513" lon="6.70911">
        <ele>454</ele>
        <time>2015-10-11T09:17:21.000Z</time>
      </trkpt>
      <trkpt lat="47.51298" lon="6.7091">
        <ele>453</ele>
        <time>2015-10-11T09:17:22.000Z</time>
      </trkpt>
      <trkpt lat="47.51294" lon="6.70911">
        <ele>453</ele>
        <time>2015-10-11T09:17:25.000Z</time>
      </trkpt>
      <trkpt lat="47.51293" lon="6.70912">
        <ele>453</ele>
        <time>2015-10-11T09:17:26.000Z</time>
      </trkpt>
      <trkpt lat="47.51296" lon="6.70914">
        <ele>453</ele>
        <time>2015-10-11T09:17:34.000Z</time>
      </trkpt>
      <trkpt lat="47.51297" lon="6.70915">
        <ele>453</ele>
        <time>2015-10-11T09:17:35.000Z</time>
      </trkpt>
      <trkpt lat="47.513" lon="6.70919">
        <ele>455</ele>
        <time>2015-10-11T09:17:38.000Z</time>
      </trkpt>
      <trkpt lat="47.51301" lon="6.70921">
        <ele>455</ele>
        <time>2015-10-11T09:17:39.000Z</time>
      </trkpt>
      <trkpt lat="47.51301" lon="6.70925">
        <ele>455</ele>
        <time>2015-10-11T09:17:41.000Z</time>
      </trkpt>
      <trkpt lat="47.51301" lon="6.70928">
        <ele>455</ele>
        <time>2015-10-11T09:17:42.000Z</time>
      </trkpt>
      <trkpt lat="47.513" lon="6.70933">
        <ele>455</ele>
        <time>2015-10-11T09:17:44.000Z</time>
      </trkpt>
      <trkpt lat="47.51299" lon="6.70935">
        <ele>455</ele>
        <time>2015-10-11T09:17:45.000Z</time>
      </trkpt>
      <trkpt lat="47.51297" lon="6.70939">
        <ele>455</ele>
        <time>2015-10-11T09:17:47.000Z</time>
      </trkpt>
      <trkpt lat="47.51296" lon="6.70941">
        <ele>455</ele>
        <time>2015-10-11T09:17:48.000Z</time>
      </trkpt>
      <trkpt lat="47.51292" lon="6.70942">
        <ele>455</ele>
        <time>2015-10-11T09:17:51.000Z</time>
      </trkpt>
      <trkpt lat="47.5129" lon="6.70941">
        <ele>455</ele>
        <time>2015-10-11T09:17:52.000Z</time>
      </trkpt>
      <trkpt lat="47.51287" lon="6.70938">
        <ele>455</ele>
        <time>2015-10-11T09:17:56.000Z</time>
      </trkpt>
      <trkpt lat="47.51286" lon="6.70937">
        <ele>455</ele>
        <time>2015-10-11T09:17:57.000Z</time>
      </trkpt>
      <trkpt lat="47.51283" lon="6.70933">
        <ele>454</ele>
        <time>2015-10-11T09:18:09.000Z</time>
      </trkpt>
      <trkpt lat="47.51283" lon="6.70932">
        <ele>454</ele>
        <time>2015-10-11T09:18:10.000Z</time>
      </trkpt>
      <trkpt lat="47.51283" lon="6.70926">
        <ele>454</ele>
        <time>2015-10-11T09:18:15.000Z</time>
      </trkpt>
      <trkpt lat="47.51283" lon="6.70924">
        <ele>454</ele>
        <time>2015-10-11T09:18:16.000Z</time>
      </trkpt>
      <trkpt lat="47.51283" lon="6.70918">
        <ele>454</ele>
        <time>2015-10-11T09:18:21.000Z</time>
      </trkpt>
      <trkpt lat="47.51283" lon="6.70916">
        <ele>453</ele>
        <time>2015-10-11T09:18:22.000Z</time>
      </trkpt>
      <trkpt lat="47.51284" lon="6.70911">
        <ele>453</ele>
        <time>2015-10-11T09:18:25.000Z</time>
      </trkpt>
      <trkpt lat="47.51284" lon="6.70909">
        <ele>453</ele>
        <time>2015-10-11T09:18:26.000Z</time>
      </trkpt>
      <trkpt lat="47.51286" lon="6.70904">
        <ele>453</ele>
        <time>2015-10-11T09:18:29.000Z</time>
      </trkpt>
      <trkpt lat="47.51287" lon="6.70903">
        <ele>453</ele>
        <time>2015-10-11T09:18:30.000Z</time>
      </trkpt>
      <trkpt lat="47.5129" lon="6.70901">
        <ele>453</ele>
        <time>2015-10-11T09:18:33.000Z</time>
      </trkpt>
      <trkpt lat="47.51291" lon="6.70901">
        <ele>453</ele>
        <time>2015-10-11T09:18:34.000Z</time>
      </trkpt>
      <trkpt lat="47.51288" lon="6.70903">
        <ele>453</ele>
        <time>2015-10-11T09:18:43.000Z</time>
      </trkpt>
      <trkpt lat="47.51287" lon="6.70904">
        <ele>453</ele>
        <time>2015-10-11T09:18:44.000Z</time>
      </trkpt>
      <trkpt lat="47.51286" lon="6.7091">
        <ele>453</ele>
        <time>2015-10-11T09:18:48.000Z</time>
      </trkpt>
      <trkpt lat="47.51286" lon="6.70911">
        <ele>453</ele>
        <time>2015-10-11T09:18:49.000Z</time>
      </trkpt>
      <trkpt lat="47.51285" lon="6.70917">
        <ele>454</ele>
        <time>2015-10-11T09:18:56.000Z</time>
      </trkpt>
      <trkpt lat="47.51286" lon="6.70917">
        <ele>454</ele>
        <time>2015-10-11T09:18:57.000Z</time>
      </trkpt>
      <trkpt lat="47.51289" lon="6.70916">
        <ele>453</ele>
        <time>2015-10-11T09:19:00.000Z</time>
      </trkpt>
      <trkpt lat="47.5129" lon="6.70915">
        <ele>453</ele>
        <time>2015-10-11T09:19:01.000Z</time>
      </trkpt>
      <trkpt lat="47.51293" lon="6.70911">
        <ele>453</ele>
        <time>2015-10-11T09:19:03.000Z</time>
      </trkpt>
      <trkpt lat="47.51294" lon="6.70909">
        <ele>453</ele>
        <time>2015-10-11T09:19:04.000Z</time>
      </trkpt>
      <trkpt lat="47.51295" lon="6.70904">
        <ele>453</ele>
        <time>2015-10-11T09:19:06.000Z</time>
      </trkpt>
      <trkpt lat="47.51295" lon="6.70902">
        <ele>453</ele>
        <time>2015-10-11T09:19:07.000Z</time>
      </trkpt>
      <trkpt lat="47.51291" lon="6.70899">
        <ele>453</ele>
        <time>2015-10-11T09:19:11.000Z</time>
      </trkpt>
      <trkpt lat="47.5129" lon="6.70898">
        <ele>453</ele>
        <time>2015-10-11T09:19:12.000Z</time>
      </trkpt>
      <trkpt lat="47.51291" lon="6.70891">
        <ele>453</ele>
        <time>2015-10-11T09:19:16.000Z</time>
      </trkpt>
      <trkpt lat="47.51292" lon="6.70891">
        <ele>453</ele>
        <time>2015-10-11T09:19:17.000Z</time>
      </trkpt>
      <trkpt lat="47.51293" lon="6.70895">
        <ele>453</ele>
        <time>2015-10-11T09:19:21.000Z</time>
      </trkpt>
      <trkpt lat="47.51293" lon="6.70897">
        <ele>453</ele>
        <time>2015-10-11T09:19:22.000Z</time>
      </trkpt>
      <trkpt lat="47.5129" lon="6.70901">
        <ele>453</ele>
        <time>2015-10-11T09:19:25.000Z</time>
      </trkpt>
      <trkpt lat="47.51289" lon="6.70901">
        <ele>453</ele>
        <time>2015-10-11T09:19:26.000Z</time>
      </trkpt>
      <trkpt lat="47.51292" lon="6.70906">
        <ele>453</ele>
        <time>2015-10-11T09:19:52.000Z</time>
      </trkpt>
      <trkpt lat="47.51292" lon="6.70907">
        <ele>453</ele>
        <time>2015-10-11T09:19:53.000Z</time>
      </trkpt>
      <trkpt lat="47.51288" lon="6.70911">
        <ele>453</ele>
        <time>2015-10-11T09:22:32.000Z</time>
      </trkpt>
      <trkpt lat="47.51288" lon="6.70911">
        <ele>453</ele>
        <time>2015-10-11T09:22:33.000Z</time>
      </trkpt>
      <trkpt lat="47.51285" lon="6.70913">
        <ele>453</ele>
        <time>2015-10-11T09:23:29.000Z</time>
      </trkpt>
      <trkpt lat="47.51284" lon="6.70914">
        <ele>453</ele>
        <time>2015-10-11T09:23:30.000Z</time>
      </trkpt>
      <trkpt lat="47.5128" lon="6.70915">
        <ele>452</ele>
        <time>2015-10-11T09:23:32.000Z</time>
      </trkpt>
      <trkpt lat="47.51278" lon="6.70916">
        <ele>452</ele>
        <time>2015-10-11T09:23:33.000Z</time>
      </trkpt>
      <trkpt lat="47.51274" lon="6.70917">
        <ele>454</ele>
        <time>2015-10-11T09:23:35.000Z</time>
      </trkpt>
      <trkpt lat="47.51273" lon="6.70917">
        <ele>454</ele>
        <time>2015-10-11T09:23:36.000Z</time>
      </trkpt>
      <trkpt lat="47.51269" lon="6.70921">
        <ele>453</ele>
        <time>2015-10-11T09:23:40.000Z</time>
      </trkpt>
      <trkpt lat="47.51269" lon="6.70922">
        <ele>453</ele>
        <time>2015-10-11T09:23:41.000Z</time>
      </trkpt>
      <trkpt lat="47.51268" lon="6.70928">
        <ele>453</ele>
        <time>2015-10-11T09:23:49.000Z</time>
      </trkpt>
      <trkpt lat="47.51268" lon="6.70929">
        <ele>454</ele>
        <time>2015-10-11T09:23:50.000Z</time>
      </trkpt>
      <trkpt lat="47.5127" lon="6.70933">
        <ele>454</ele>
        <time>2015-10-11T09:23:52.000Z</time>
      </trkpt>
      <trkpt lat="47.5127" lon="6.70935">
        <ele>454</ele>
        <time>2015-10-11T09:23:53.000Z</time>
      </trkpt>
      <trkpt lat="47.51272" lon="6.7094">
        <ele>454</ele>
        <time>2015-10-11T09:23:55.000Z</time>
      </trkpt>
      <trkpt lat="47.51273" lon="6.70943">
        <ele>454</ele>
        <time>2015-10-11T09:23:56.000Z</time>
      </trkpt>
      <trkpt lat="47.51274" lon="6.70947">
        <ele>454</ele>
        <time>2015-10-11T09:23:57.000Z</time>
      </trkpt>
      <trkpt lat="47.51275" lon="6.7095">
        <ele>454</ele>
        <time>2015-10-11T09:23:58.000Z</time>
      </trkpt>
      <trkpt lat="47.51276" lon="6.70954">
        <ele>455</ele>
        <time>2015-10-11T09:23:59.000Z</time>
      </trkpt>
      <trkpt lat="47.51276" lon="6.70958">
        <ele>455</ele>
        <time>2015-10-11T09:24:00.000Z</time>
      </trkpt>
      <trkpt lat="47.51277" lon="6.70962">
        <ele>455</ele>
        <time>2015-10-11T09:24:01.000Z</time>
      </trkpt>
      <trkpt lat="47.51278" lon="6.70966">
        <ele>455</ele>
        <time>2015-10-11T09:24:02.000Z</time>
      </trkpt>
      <trkpt lat="47.51278" lon="6.7097">
        <ele>455</ele>
        <time>2015-10-11T09:24:03.000Z</time>
      </trkpt>
      <trkpt lat="47.51279" lon="6.70974">
        <ele>455</ele>
        <time>2015-10-11T09:24:04.000Z</time>
      </trkpt>
      <trkpt lat="47.51279" lon="6.70977">
        <ele>455</ele>
        <time>2015-10-11T09:24:05.000Z</time>
      </trkpt>
      <trkpt lat="47.5128" lon="6.70981">
        <ele>455</ele>
        <time>2015-10-11T09:24:06.000Z</time>
      </trkpt>
      <trkpt lat="47.5128" lon="6.70985">
        <ele>455</ele>
        <time>2015-10-11T09:24:07.000Z</time>
      </trkpt>
      <trkpt lat="47.5128" lon="6.70988">
        <ele>455</ele>
        <time>2015-10-11T09:24:08.000Z</time>
      </trkpt>
      <trkpt lat="47.5128" lon="6.70993">
        <ele>455</ele>
        <time>2015-10-11T09:24:09.000Z</time>
      </trkpt>
      <trkpt lat="47.5128" lon="6.70998">
        <ele>455</ele>
        <time>2015-10-11T09:24:10.000Z</time>
      </trkpt>
      <trkpt lat="47.51281" lon="6.71003">
        <ele>457</ele>
        <time>2015-10-11T09:24:11.000Z</time>
      </trkpt>
      <trkpt lat="47.51281" lon="6.71008">
        <ele>457</ele>
        <time>2015-10-11T09:24:12.000Z</time>
      </trkpt>
      <trkpt lat="47.51281" lon="6.71012">
        <ele>457</ele>
        <time>2015-10-11T09:24:13.000Z</time>
      </trkpt>
      <trkpt lat="47.51281" lon="6.71018">
        <ele>457</ele>
        <time>2015-10-11T09:24:14.000Z</time>
      </trkpt>
      <trkpt lat="47.51282" lon="6.71023">
        <ele>457</ele>
        <time>2015-10-11T09:24:15.000Z</time>
      </trkpt>
      <trkpt lat="47.51282" lon="6.71028">
        <ele>457</ele>
        <time>2015-10-11T09:24:16.000Z</time>
      </trkpt>
      <trkpt lat="47.51282" lon="6.71034">
        <ele>457</ele>
        <time>2015-10-11T09:24:17.000Z</time>
      </trkpt>
      <trkpt lat="47.51282" lon="6.71041">
        <ele>457</ele>
        <time>2015-10-11T09:24:18.000Z</time>
      </trkpt>
      <trkpt lat="47.51279" lon="6.71059">
        <ele>457</ele>
        <time>2015-10-11T09:24:19.000Z</time>
      </trkpt>
      <trkpt lat="47.51279" lon="6.71073">
        <ele>458</ele>
        <time>2015-10-11T09:24:20.000Z</time>
      </trkpt>
      <trkpt lat="47.51278" lon="6.71085">
        <ele>458</ele>
        <time>2015-10-11T09:24:21.000Z</time>
      </trkpt>
      <trkpt lat="47.51278" lon="6.71094">
        <ele>458</ele>
        <time>2015-10-11T09:24:22.000Z</time>
      </trkpt>
      <trkpt lat="47.51278" lon="6.71106">
        <ele>458</ele>
        <time>2015-10-11T09:24:23.000Z</time>
      </trkpt>
      <trkpt lat="47.51276" lon="6.71117">
        <ele>458</ele>
        <time>2015-10-11T09:24:24.000Z</time>
      </trkpt>
      <trkpt lat="47.51277" lon="6.71128">
        <ele>458</ele>
        <time>2015-10-11T09:24:25.000Z</time>
      </trkpt>
      <trkpt lat="47.51277" lon="6.71141">
        <ele>458</ele>
        <time>2015-10-11T09:24:26.000Z</time>
      </trkpt>
      <trkpt lat="47.51276" lon="6.71154">
        <ele>457</ele>
        <time>2015-10-11T09:24:27.000Z</time>
      </trkpt>
      <trkpt lat="47.51275" lon="6.71164">
        <ele>457</ele>
        <time>2015-10-11T09:24:28.000Z</time>
      </trkpt>
      <trkpt lat="47.51274" lon="6.71173">
        <ele>457</ele>
        <time>2015-10-11T09:24:29.000Z</time>
      </trkpt>
      <trkpt lat="47.51275" lon="6.71184">
        <ele>457</ele>
        <time>2015-10-11T09:24:30.000Z</time>
      </trkpt>
      <trkpt lat="47.51273" lon="6.71197">
        <ele>457</ele>
        <time>2015-10-11T09:24:31.000Z</time>
      </trkpt>
      <trkpt lat="47.51269" lon="6.71207">
        <ele>457</ele>
        <time>2015-10-11T09:24:32.000Z</time>
      </trkpt>
      <trkpt lat="47.51268" lon="6.71217">
        <ele>458</ele>
        <time>2015-10-11T09:24:33.000Z</time>
      </trkpt>
      <trkpt lat="47.51268" lon="6.71225">
        <ele>458</ele>
        <time>2015-10-11T09:24:34.000Z</time>
      </trkpt>
      <trkpt lat="47.51267" lon="6.71234">
        <ele>458</ele>
        <time>2015-10-11T09:24:35.000Z</time>
      </trkpt>
      <trkpt lat="47.51266" lon="6.71245">
        <ele>457</ele>
        <time>2015-10-11T09:24:36.000Z</time>
      </trkpt>
      <trkpt lat="47.51263" lon="6.71255">
        <ele>457</ele>
        <time>2015-10-11T09:24:37.000Z</time>
      </trkpt>
      <trkpt lat="47.51261" lon="6.71264">
        <ele>457</ele>
        <time>2015-10-11T09:24:38.000Z</time>
      </trkpt>
      <trkpt lat="47.5126" lon="6.71271">
        <ele>457</ele>
        <time>2015-10-11T09:24:39.000Z</time>
      </trkpt>
      <trkpt lat="47.51261" lon="6.71281">
        <ele>457</ele>
        <time>2015-10-11T09:24:40.000Z</time>
      </trkpt>
      <trkpt lat="47.51261" lon="6.71292">
        <ele>457</ele>
        <time>2015-10-11T09:24:41.000Z</time>
      </trkpt>
      <trkpt lat="47.5126" lon="6.71302">
        <ele>457</ele>
        <time>2015-10-11T09:24:42.000Z</time>
      </trkpt>
      <trkpt lat="47.51259" lon="6.7131">
        <ele>457</ele>
        <time>2015-10-11T09:24:43.000Z</time>
      </trkpt>
      <trkpt lat="47.5126" lon="6.7132">
        <ele>457</ele>
        <time>2015-10-11T09:24:44.000Z</time>
      </trkpt>
      <trkpt lat="47.51259" lon="6.71328">
        <ele>456</ele>
        <time>2015-10-11T09:24:45.000Z</time>
      </trkpt>
      <trkpt lat="47.51256" lon="6.71335">
        <ele>456</ele>
        <time>2015-10-11T09:24:46.000Z</time>
      </trkpt>
      <trkpt lat="47.51254" lon="6.71346">
        <ele>456</ele>
        <time>2015-10-11T09:24:47.000Z</time>
      </trkpt>
      <trkpt lat="47.51253" lon="6.71354">
        <ele>456</ele>
        <time>2015-10-11T09:24:48.000Z</time>
      </trkpt>
      <trkpt lat="47.51253" lon="6.71365">
        <ele>455</ele>
        <time>2015-10-11T09:24:49.000Z</time>
      </trkpt>
      <trkpt lat="47.51252" lon="6.71371">
        <ele>455</ele>
        <time>2015-10-11T09:24:50.000Z</time>
      </trkpt>
      <trkpt lat="47.51252" lon="6.7138">
        <ele>455</ele>
        <time>2015-10-11T09:24:51.000Z</time>
      </trkpt>
      <trkpt lat="47.51251" lon="6.71388">
        <ele>455</ele>
        <time>2015-10-11T09:24:52.000Z</time>
      </trkpt>
      <trkpt lat="47.51252" lon="6.71396">
        <ele>455</ele>
        <time>2015-10-11T09:24:53.000Z</time>
      </trkpt>
      <trkpt lat="47.51251" lon="6.71404">
        <ele>455</ele>
        <time>2015-10-11T09:24:54.000Z</time>
      </trkpt>
      <trkpt lat="47.51251" lon="6.7141">
        <ele>455</ele>
        <time>2015-10-11T09:24:55.000Z</time>
      </trkpt>
      <trkpt lat="47.5125" lon="6.71417">
        <ele>455</ele>
        <time>2015-10-11T09:24:56.000Z</time>
      </trkpt>
      <trkpt lat="47.5125" lon="6.71423">
        <ele>454</ele>
        <time>2015-10-11T09:24:57.000Z</time>
      </trkpt>
      <trkpt lat="47.51251" lon="6.71428">
        <ele>455</ele>
        <time>2015-10-11T09:24:58.000Z</time>
      </trkpt>
      <trkpt lat="47.51251" lon="6.71433">
        <ele>455</ele>
        <time>2015-10-11T09:24:59.000Z</time>
      </trkpt>
      <trkpt lat="47.51252" lon="6.71438">
        <ele>455</ele>
        <time>2015-10-11T09:25:00.000Z</time>
      </trkpt>
      <trkpt lat="47.51252" lon="6.71444">
        <ele>455</ele>
        <time>2015-10-11T09:25:01.000Z</time>
      </trkpt>
      <trkpt lat="47.51253" lon="6.71449">
        <ele>455</ele>
        <time>2015-10-11T09:25:02.000Z</time>
      </trkpt>
      <trkpt lat="47.51252" lon="6.71462">
        <ele>455</ele>
        <time>2015-10-11T09:25:03.000Z</time>
      </trkpt>
      <trkpt lat="47.51252" lon="6.7147">
        <ele>455</ele>
        <time>2015-10-11T09:25:04.000Z</time>
      </trkpt>
      <trkpt lat="47.5125" lon="6.71476">
        <ele>455</ele>
        <time>2015-10-11T09:25:05.000Z</time>
      </trkpt>
      <trkpt lat="47.51249" lon="6.71483">
        <ele>454</ele>
        <time>2015-10-11T09:25:06.000Z</time>
      </trkpt>
      <trkpt lat="47.51248" lon="6.71489">
        <ele>455</ele>
        <time>2015-10-11T09:25:07.000Z</time>
      </trkpt>
      <trkpt lat="47.51247" lon="6.71496">
        <ele>455</ele>
        <time>2015-10-11T09:25:08.000Z</time>
      </trkpt>
      <trkpt lat="47.51247" lon="6.71502">
        <ele>456</ele>
        <time>2015-10-11T09:25:09.000Z</time>
      </trkpt>
      <trkpt lat="47.51247" lon="6.71509">
        <ele>455</ele>
        <time>2015-10-11T09:25:10.000Z</time>
      </trkpt>
      <trkpt lat="47.51246" lon="6.71514">
        <ele>455</ele>
        <time>2015-10-11T09:25:11.000Z</time>
      </trkpt>
      <trkpt lat="47.51243" lon="6.71521">
        <ele>455</ele>
        <time>2015-10-11T09:25:12.000Z</time>
      </trkpt>
      <trkpt lat="47.51243" lon="6.71527">
        <ele>455</ele>
        <time>2015-10-11T09:25:13.000Z</time>
      </trkpt>
      <trkpt lat="47.51242" lon="6.71533">
        <ele>455</ele>
        <time>2015-10-11T09:25:14.000Z</time>
      </trkpt>
      <trkpt lat="47.51241" lon="6.71539">
        <ele>455</ele>
        <time>2015-10-11T09:25:15.000Z</time>
      </trkpt>
      <trkpt lat="47.51241" lon="6.71545">
        <ele>455</ele>
        <time>2015-10-11T09:25:16.000Z</time>
      </trkpt>
      <trkpt lat="47.5124" lon="6.71551">
        <ele>455</ele>
        <time>2015-10-11T09:25:17.000Z</time>
      </trkpt>
      <trkpt lat="47.51239" lon="6.71557">
        <ele>455</ele>
        <time>2015-10-11T09:25:18.000Z</time>
      </trkpt>
      <trkpt lat="47.51238" lon="6.71564">
        <ele>455</ele>
        <time>2015-10-11T09:25:19.000Z</time>
      </trkpt>
      <trkpt lat="47.51237" lon="6.71571">
        <ele>456</ele>
        <time>2015-10-11T09:25:20.000Z</time>
      </trkpt>
      <trkpt lat="47.51237" lon="6.71578">
        <ele>456</ele>
        <time>2015-10-11T09:25:21.000Z</time>
      </trkpt>
      <trkpt lat="47.51237" lon="6.71585">
        <ele>456</ele>
        <time>2015-10-11T09:25:22.000Z</time>
      </trkpt>
      <trkpt lat="47.51237" lon="6.71592">
        <ele>456</ele>
        <time>2015-10-11T09:25:23.000Z</time>
      </trkpt>
      <trkpt lat="47.51237" lon="6.716">
        <ele>456</ele>
        <time>2015-10-11T09:25:24.000Z</time>
      </trkpt>
      <trkpt lat="47.51237" lon="6.71608">
        <ele>455</ele>
        <time>2015-10-11T09:25:25.000Z</time>
      </trkpt>
      <trkpt lat="47.51237" lon="6.71616">
        <ele>455</ele>
        <time>2015-10-11T09:25:26.000Z</time>
      </trkpt>
      <trkpt lat="47.51237" lon="6.71623">
        <ele>455</ele>
        <time>2015-10-11T09:25:27.000Z</time>
      </trkpt>
      <trkpt lat="47.51237" lon="6.71631">
        <ele>455</ele>
        <time>2015-10-11T09:25:28.000Z</time>
      </trkpt>
      <trkpt lat="47.51237" lon="6.71638">
        <ele>455</ele>
        <time>2015-10-11T09:25:29.000Z</time>
      </trkpt>
      <trkpt lat="47.51237" lon="6.71645">
        <ele>455</ele>
        <time>2015-10-11T09:25:30.000Z</time>
      </trkpt>
      <trkpt lat="47.51237" lon="6.71652">
        <ele>455</ele>
        <time>2015-10-11T09:25:31.000Z</time>
      </trkpt>
      <trkpt lat="47.51238" lon="6.71658">
        <ele>456</ele>
        <time>2015-10-11T09:25:32.000Z</time>
      </trkpt>
      <trkpt lat="47.5124" lon="6.71671">
        <ele>456</ele>
        <time>2015-10-11T09:25:33.000Z</time>
      </trkpt>
      <trkpt lat="47.5124" lon="6.71678">
        <ele>455</ele>
        <time>2015-10-11T09:25:34.000Z</time>
      </trkpt>
      <trkpt lat="47.51241" lon="6.71686">
        <ele>455</ele>
        <time>2015-10-11T09:25:35.000Z</time>
      </trkpt>
      <trkpt lat="47.51242" lon="6.71694">
        <ele>455</ele>
        <time>2015-10-11T09:25:36.000Z</time>
      </trkpt>
      <trkpt lat="47.51241" lon="6.717">
        <ele>455</ele>
        <time>2015-10-11T09:25:37.000Z</time>
      </trkpt>
      <trkpt lat="47.51241" lon="6.71708">
        <ele>455</ele>
        <time>2015-10-11T09:25:38.000Z</time>
      </trkpt>
      <trkpt lat="47.5124" lon="6.71716">
        <ele>454</ele>
        <time>2015-10-11T09:25:39.000Z</time>
      </trkpt>
      <trkpt lat="47.51239" lon="6.71724">
        <ele>454</ele>
        <time>2015-10-11T09:25:40.000Z</time>
      </trkpt>
      <trkpt lat="47.51239" lon="6.71732">
        <ele>454</ele>
        <time>2015-10-11T09:25:41.000Z</time>
      </trkpt>
      <trkpt lat="47.5124" lon="6.71739">
        <ele>454</ele>
        <time>2015-10-11T09:25:42.000Z</time>
      </trkpt>
      <trkpt lat="47.51241" lon="6.71746">
        <ele>455</ele>
        <time>2015-10-11T09:25:43.000Z</time>
      </trkpt>
      <trkpt lat="47.51241" lon="6.71753">
        <ele>454</ele>
        <time>2015-10-11T09:25:44.000Z</time>
      </trkpt>
      <trkpt lat="47.51241" lon="6.71769">
        <ele>454</ele>
        <time>2015-10-11T09:25:45.000Z</time>
      </trkpt>
      <trkpt lat="47.51241" lon="6.71777">
        <ele>453</ele>
        <time>2015-10-11T09:25:46.000Z</time>
      </trkpt>
      <trkpt lat="47.51242" lon="6.71785">
        <ele>453</ele>
        <time>2015-10-11T09:25:47.000Z</time>
      </trkpt>
      <trkpt lat="47.51243" lon="6.71791">
        <ele>453</ele>
        <time>2015-10-11T09:25:48.000Z</time>
      </trkpt>
      <trkpt lat="47.51243" lon="6.71799">
        <ele>453</ele>
        <time>2015-10-11T09:25:49.000Z</time>
      </trkpt>
      <trkpt lat="47.51244" lon="6.71807">
        <ele>453</ele>
        <time>2015-10-11T09:25:50.000Z</time>
      </trkpt>
      <trkpt lat="47.51247" lon="6.71817">
        <ele>453</ele>
        <time>2015-10-11T09:25:51.000Z</time>
      </trkpt>
      <trkpt lat="47.51248" lon="6.71826">
        <ele>454</ele>
        <time>2015-10-11T09:25:52.000Z</time>
      </trkpt>
      <trkpt lat="47.5125" lon="6.71837">
        <ele>454</ele>
        <time>2015-10-11T09:25:53.000Z</time>
      </trkpt>
      <trkpt lat="47.5125" lon="6.71846">
        <ele>453</ele>
        <time>2015-10-11T09:25:54.000Z</time>
      </trkpt>
      <trkpt lat="47.51248" lon="6.71857">
        <ele>452</ele>
        <time>2015-10-11T09:25:55.000Z</time>
      </trkpt>
      <trkpt lat="47.5125" lon="6.71865">
        <ele>452</ele>
        <time>2015-10-11T09:25:56.000Z</time>
      </trkpt>
      <trkpt lat="47.51252" lon="6.71875">
        <ele>452</ele>
        <time>2015-10-11T09:25:57.000Z</time>
      </trkpt>
      <trkpt lat="47.51254" lon="6.71886">
        <ele>452</ele>
        <time>2015-10-11T09:25:58.000Z</time>
      </trkpt>
      <trkpt lat="47.51254" lon="6.71897">
        <ele>452</ele>
        <time>2015-10-11T09:25:59.000Z</time>
      </trkpt>
      <trkpt lat="47.51255" lon="6.71908">
        <ele>452</ele>
        <time>2015-10-11T09:26:00.000Z</time>
      </trkpt>
      <trkpt lat="47.51256" lon="6.7192">
        <ele>452</ele>
        <time>2015-10-11T09:26:01.000Z</time>
      </trkpt>
      <trkpt lat="47.51256" lon="6.71932">
        <ele>451</ele>
        <time>2015-10-11T09:26:02.000Z</time>
      </trkpt>
      <trkpt lat="47.51257" lon="6.71945">
        <ele>451</ele>
        <time>2015-10-11T09:26:03.000Z</time>
      </trkpt>
      <trkpt lat="47.51258" lon="6.71956">
        <ele>451</ele>
        <time>2015-10-11T09:26:04.000Z</time>
      </trkpt>
      <trkpt lat="47.5126" lon="6.71968">
        <ele>450</ele>
        <time>2015-10-11T09:26:05.000Z</time>
      </trkpt>
      <trkpt lat="47.51261" lon="6.71979">
        <ele>450</ele>
        <time>2015-10-11T09:26:06.000Z</time>
      </trkpt>
      <trkpt lat="47.5126" lon="6.7199">
        <ele>451</ele>
        <time>2015-10-11T09:26:07.000Z</time>
      </trkpt>
      <trkpt lat="47.51259" lon="6.72001">
        <ele>450</ele>
        <time>2015-10-11T09:26:08.000Z</time>
      </trkpt>
      <trkpt lat="47.51259" lon="6.72011">
        <ele>450</ele>
        <time>2015-10-11T09:26:09.000Z</time>
      </trkpt>
      <trkpt lat="47.51259" lon="6.72019">
        <ele>449</ele>
        <time>2015-10-11T09:26:10.000Z</time>
      </trkpt>
      <trkpt lat="47.5126" lon="6.7203">
        <ele>449</ele>
        <time>2015-10-11T09:26:11.000Z</time>
      </trkpt>
      <trkpt lat="47.51261" lon="6.72043">
        <ele>449</ele>
        <time>2015-10-11T09:26:12.000Z</time>
      </trkpt>
      <trkpt lat="47.5126" lon="6.72053">
        <ele>449</ele>
        <time>2015-10-11T09:26:13.000Z</time>
      </trkpt>
      <trkpt lat="47.5126" lon="6.72064">
        <ele>449</ele>
        <time>2015-10-11T09:26:14.000Z</time>
      </trkpt>
      <trkpt lat="47.5126" lon="6.72076">
        <ele>449</ele>
        <time>2015-10-11T09:26:15.000Z</time>
      </trkpt>
      <trkpt lat="47.51261" lon="6.72089">
        <ele>447</ele>
        <time>2015-10-11T09:26:16.000Z</time>
      </trkpt>
      <trkpt lat="47.51261" lon="6.72102">
        <ele>446</ele>
        <time>2015-10-11T09:26:17.000Z</time>
      </trkpt>
      <trkpt lat="47.51262" lon="6.72118">
        <ele>445</ele>
        <time>2015-10-11T09:26:18.000Z</time>
      </trkpt>
      <trkpt lat="47.51262" lon="6.72132">
        <ele>444</ele>
        <time>2015-10-11T09:26:19.000Z</time>
      </trkpt>
      <trkpt lat="47.51262" lon="6.72141">
        <ele>444</ele>
        <time>2015-10-11T09:26:20.000Z</time>
      </trkpt>
      <trkpt lat="47.51262" lon="6.72152">
        <ele>444</ele>
        <time>2015-10-11T09:26:21.000Z</time>
      </trkpt>
      <trkpt lat="47.51262" lon="6.72164">
        <ele>445</ele>
        <time>2015-10-11T09:26:22.000Z</time>
      </trkpt>
      <trkpt lat="47.51263" lon="6.72174">
        <ele>442</ele>
        <time>2015-10-11T09:26:23.000Z</time>
      </trkpt>
      <trkpt lat="47.51264" lon="6.72186">
        <ele>441</ele>
        <time>2015-10-11T09:26:24.000Z</time>
      </trkpt>
      <trkpt lat="47.51263" lon="6.72196">
        <ele>440</ele>
        <time>2015-10-11T09:26:25.000Z</time>
      </trkpt>
      <trkpt lat="47.51263" lon="6.72206">
        <ele>440</ele>
        <time>2015-10-11T09:26:26.000Z</time>
      </trkpt>
      <trkpt lat="47.5126" lon="6.72218">
        <ele>440</ele>
        <time>2015-10-11T09:26:27.000Z</time>
      </trkpt>
      <trkpt lat="47.51259" lon="6.72229">
        <ele>440</ele>
        <time>2015-10-11T09:26:28.000Z</time>
      </trkpt>
      <trkpt lat="47.51259" lon="6.72239">
        <ele>441</ele>
        <time>2015-10-11T09:26:29.000Z</time>
      </trkpt>
      <trkpt lat="47.5126" lon="6.72249">
        <ele>441</ele>
        <time>2015-10-11T09:26:30.000Z</time>
      </trkpt>
      <trkpt lat="47.51258" lon="6.72259">
        <ele>441</ele>
        <time>2015-10-11T09:26:31.000Z</time>
      </trkpt>
      <trkpt lat="47.51257" lon="6.72267">
        <ele>441</ele>
        <time>2015-10-11T09:26:32.000Z</time>
      </trkpt>
      <trkpt lat="47.51257" lon="6.72278">
        <ele>440</ele>
        <time>2015-10-11T09:26:33.000Z</time>
      </trkpt>
      <trkpt lat="47.51255" lon="6.72289">
        <ele>440</ele>
        <time>2015-10-11T09:26:34.000Z</time>
      </trkpt>
      <trkpt lat="47.51255" lon="6.72297">
        <ele>441</ele>
        <time>2015-10-11T09:26:35.000Z</time>
      </trkpt>
      <trkpt lat="47.51254" lon="6.72306">
        <ele>441</ele>
        <time>2015-10-11T09:26:36.000Z</time>
      </trkpt>
      <trkpt lat="47.51253" lon="6.72316">
        <ele>442</ele>
        <time>2015-10-11T09:26:37.000Z</time>
      </trkpt>
      <trkpt lat="47.51253" lon="6.72326">
        <ele>444</ele>
        <time>2015-10-11T09:26:38.000Z</time>
      </trkpt>
      <trkpt lat="47.51252" lon="6.72336">
        <ele>445</ele>
        <time>2015-10-11T09:26:39.000Z</time>
      </trkpt>
      <trkpt lat="47.5125" lon="6.72346">
        <ele>444</ele>
        <time>2015-10-11T09:26:40.000Z</time>
      </trkpt>
      <trkpt lat="47.51251" lon="6.72356">
        <ele>443</ele>
        <time>2015-10-11T09:26:41.000Z</time>
      </trkpt>
      <trkpt lat="47.5125" lon="6.72366">
        <ele>442</ele>
        <time>2015-10-11T09:26:42.000Z</time>
      </trkpt>
      <trkpt lat="47.51246" lon="6.72376">
        <ele>443</ele>
        <time>2015-10-11T09:26:43.000Z</time>
      </trkpt>
      <trkpt lat="47.51242" lon="6.72388">
        <ele>443</ele>
        <time>2015-10-11T09:26:44.000Z</time>
      </trkpt>
      <trkpt lat="47.51236" lon="6.72398">
        <ele>443</ele>
        <time>2015-10-11T09:26:45.000Z</time>
      </trkpt>
      <trkpt lat="47.51233" lon="6.7241">
        <ele>443</ele>
        <time>2015-10-11T09:26:46.000Z</time>
      </trkpt>
      <trkpt lat="47.51229" lon="6.72421">
        <ele>440</ele>
        <time>2015-10-11T09:26:47.000Z</time>
      </trkpt>
      <trkpt lat="47.51226" lon="6.72431">
        <ele>440</ele>
        <time>2015-10-11T09:26:48.000Z</time>
      </trkpt>
      <trkpt lat="47.51222" lon="6.72442">
        <ele>439</ele>
        <time>2015-10-11T09:26:49.000Z</time>
      </trkpt>
      <trkpt lat="47.51218" lon="6.72455">
        <ele>438</ele>
        <time>2015-10-11T09:26:50.000Z</time>
      </trkpt>
      <trkpt lat="47.51214" lon="6.72468">
        <ele>437</ele>
        <time>2015-10-11T09:26:51.000Z</time>
      </trkpt>
      <trkpt lat="47.51212" lon="6.7248">
        <ele>437</ele>
        <time>2015-10-11T09:26:52.000Z</time>
      </trkpt>
      <trkpt lat="47.51208" lon="6.72491">
        <ele>437</ele>
        <time>2015-10-11T09:26:53.000Z</time>
      </trkpt>
      <trkpt lat="47.51204" lon="6.72499">
        <ele>436</ele>
        <time>2015-10-11T09:26:54.000Z</time>
      </trkpt>
      <trkpt lat="47.51202" lon="6.72508">
        <ele>432</ele>
        <time>2015-10-11T09:26:55.000Z</time>
      </trkpt>
      <trkpt lat="47.512" lon="6.72516">
        <ele>432</ele>
        <time>2015-10-11T09:26:56.000Z</time>
      </trkpt>
      <trkpt lat="47.51194" lon="6.72526">
        <ele>431</ele>
        <time>2015-10-11T09:26:57.000Z</time>
      </trkpt>
      <trkpt lat="47.51187" lon="6.72536">
        <ele>431</ele>
        <time>2015-10-11T09:26:58.000Z</time>
      </trkpt>
      <trkpt lat="47.51186" lon="6.72542">
        <ele>431</ele>
        <time>2015-10-11T09:27:02.999Z</time>
      </trkpt>
      <trkpt lat="47.51183" lon="6.72544">
        <ele>431</ele>
        <time>2015-10-11T09:27:04.000Z</time>
      </trkpt>
      <trkpt lat="47.51182" lon="6.72548">
        <ele>430</ele>
        <time>2015-10-11T09:27:05.000Z</time>
      </trkpt>
      <trkpt lat="47.51179" lon="6.72549">
        <ele>430</ele>
        <time>2015-10-11T09:27:06.000Z</time>
      </trkpt>
      <trkpt lat="47.51175" lon="6.72551">
        <ele>430</ele>
        <time>2015-10-11T09:27:08.000Z</time>
      </trkpt>
      <trkpt lat="47.51172" lon="6.72551">
        <ele>430</ele>
        <time>2015-10-11T09:27:09.000Z</time>
      </trkpt>
      <trkpt lat="47.51168" lon="6.72552">
        <ele>430</ele>
        <time>2015-10-11T09:27:12.000Z</time>
      </trkpt>
      <trkpt lat="47.51168" lon="6.72552">
        <ele>430</ele>
        <time>2015-10-11T09:27:13.000Z</time>
      </trkpt>
      <trkpt lat="47.51164" lon="6.72555">
        <ele>430</ele>
        <time>2015-10-11T09:27:55.000Z</time>
      </trkpt>
      <trkpt lat="47.51163" lon="6.72555">
        <ele>430</ele>
        <time>2015-10-11T09:27:56.000Z</time>
      </trkpt>
      <trkpt lat="47.5116" lon="6.72559">
        <ele>430</ele>
        <time>2015-10-11T09:28:01.000Z</time>
      </trkpt>
      <trkpt lat="47.5116" lon="6.72561">
        <ele>430</ele>
        <time>2015-10-11T09:28:02.000Z</time>
      </trkpt>
      <trkpt lat="47.51158" lon="6.72567">
        <ele>429</ele>
        <time>2015-10-11T09:28:04.000Z</time>
      </trkpt>
      <trkpt lat="47.51158" lon="6.7257">
        <ele>429</ele>
        <time>2015-10-11T09:28:05.000Z</time>
      </trkpt>
      <trkpt lat="47.51157" lon="6.72574">
        <ele>429</ele>
        <time>2015-10-11T09:28:06.000Z</time>
      </trkpt>
      <trkpt lat="47.51154" lon="6.72577">
        <ele>429</ele>
        <time>2015-10-11T09:28:07.000Z</time>
      </trkpt>
      <trkpt lat="47.5115" lon="6.72579">
        <ele>429</ele>
        <time>2015-10-11T09:28:08.000Z</time>
      </trkpt>
      <trkpt lat="47.51147" lon="6.72581">
        <ele>429</ele>
        <time>2015-10-11T09:28:09.000Z</time>
      </trkpt>
      <trkpt lat="47.51143" lon="6.72584">
        <ele>426</ele>
        <time>2015-10-11T09:28:10.000Z</time>
      </trkpt>
      <trkpt lat="47.51139" lon="6.72586">
        <ele>426</ele>
        <time>2015-10-11T09:28:11.000Z</time>
      </trkpt>
      <trkpt lat="47.51135" lon="6.72589">
        <ele>426</ele>
        <time>2015-10-11T09:28:12.000Z</time>
      </trkpt>
      <trkpt lat="47.51132" lon="6.72592">
        <ele>426</ele>
        <time>2015-10-11T09:28:13.000Z</time>
      </trkpt>
      <trkpt lat="47.51128" lon="6.72595">
        <ele>426</ele>
        <time>2015-10-11T09:28:14.000Z</time>
      </trkpt>
      <trkpt lat="47.51125" lon="6.726">
        <ele>426</ele>
        <time>2015-10-11T09:28:15.000Z</time>
      </trkpt>
      <trkpt lat="47.5112" lon="6.72604">
        <ele>426</ele>
        <time>2015-10-11T09:28:16.000Z</time>
      </trkpt>
      <trkpt lat="47.51116" lon="6.72609">
        <ele>426</ele>
        <time>2015-10-11T09:28:17.000Z</time>
      </trkpt>
      <trkpt lat="47.51111" lon="6.72614">
        <ele>425</ele>
        <time>2015-10-11T09:28:18.000Z</time>
      </trkpt>
      <trkpt lat="47.51101" lon="6.72624">
        <ele>425</ele>
        <time>2015-10-11T09:28:19.000Z</time>
      </trkpt>
      <trkpt lat="47.51096" lon="6.72628">
        <ele>425</ele>
        <time>2015-10-11T09:28:20.000Z</time>
      </trkpt>
      <trkpt lat="47.51092" lon="6.72634">
        <ele>424</ele>
        <time>2015-10-11T09:28:21.000Z</time>
      </trkpt>
      <trkpt lat="47.51088" lon="6.72639">
        <ele>424</ele>
        <time>2015-10-11T09:28:22.000Z</time>
      </trkpt>
      <trkpt lat="47.51083" lon="6.72644">
        <ele>423</ele>
        <time>2015-10-11T09:28:23.000Z</time>
      </trkpt>
      <trkpt lat="47.51078" lon="6.7265">
        <ele>424</ele>
        <time>2015-10-11T09:28:24.000Z</time>
      </trkpt>
      <trkpt lat="47.51072" lon="6.72657">
        <ele>423</ele>
        <time>2015-10-11T09:28:25.000Z</time>
      </trkpt>
      <trkpt lat="47.51066" lon="6.72662">
        <ele>424</ele>
        <time>2015-10-11T09:28:26.000Z</time>
      </trkpt>
      <trkpt lat="47.51063" lon="6.72666">
        <ele>424</ele>
        <time>2015-10-11T09:28:27.000Z</time>
      </trkpt>
      <trkpt lat="47.51058" lon="6.72672">
        <ele>423</ele>
        <time>2015-10-11T09:28:28.000Z</time>
      </trkpt>
      <trkpt lat="47.51053" lon="6.72676">
        <ele>423</ele>
        <time>2015-10-11T09:28:29.000Z</time>
      </trkpt>
      <trkpt lat="47.51048" lon="6.72681">
        <ele>423</ele>
        <time>2015-10-11T09:28:30.000Z</time>
      </trkpt>
      <trkpt lat="47.51044" lon="6.72686">
        <ele>423</ele>
        <time>2015-10-11T09:28:31.000Z</time>
      </trkpt>
      <trkpt lat="47.5104" lon="6.72692">
        <ele>423</ele>
        <time>2015-10-11T09:28:32.000Z</time>
      </trkpt>
      <trkpt lat="47.51034" lon="6.72699">
        <ele>423</ele>
        <time>2015-10-11T09:28:33.000Z</time>
      </trkpt>
      <trkpt lat="47.51028" lon="6.72703">
        <ele>423</ele>
        <time>2015-10-11T09:28:34.000Z</time>
      </trkpt>
      <trkpt lat="47.51022" lon="6.72708">
        <ele>423</ele>
        <time>2015-10-11T09:28:35.000Z</time>
      </trkpt>
      <trkpt lat="47.51016" lon="6.72712">
        <ele>423</ele>
        <time>2015-10-11T09:28:36.000Z</time>
      </trkpt>
      <trkpt lat="47.51009" lon="6.72714">
        <ele>423</ele>
        <time>2015-10-11T09:28:37.000Z</time>
      </trkpt>
      <trkpt lat="47.51004" lon="6.72718">
        <ele>423</ele>
        <time>2015-10-11T09:28:38.000Z</time>
      </trkpt>
      <trkpt lat="47.51" lon="6.72721">
        <ele>427</ele>
        <time>2015-10-11T09:28:39.000Z</time>
      </trkpt>
      <trkpt lat="47.50995" lon="6.72725">
        <ele>426</ele>
        <time>2015-10-11T09:28:40.000Z</time>
      </trkpt>
      <trkpt lat="47.50991" lon="6.72729">
        <ele>426</ele>
        <time>2015-10-11T09:28:41.000Z</time>
      </trkpt>
      <trkpt lat="47.50987" lon="6.72734">
        <ele>426</ele>
        <time>2015-10-11T09:28:42.000Z</time>
      </trkpt>
      <trkpt lat="47.50983" lon="6.72739">
        <ele>426</ele>
        <time>2015-10-11T09:28:43.000Z</time>
      </trkpt>
      <trkpt lat="47.5098" lon="6.72745">
        <ele>426</ele>
        <time>2015-10-11T09:28:44.000Z</time>
      </trkpt>
      <trkpt lat="47.50978" lon="6.72751">
        <ele>426</ele>
        <time>2015-10-11T09:28:45.000Z</time>
      </trkpt>
      <trkpt lat="47.50975" lon="6.72757">
        <ele>426</ele>
        <time>2015-10-11T09:28:46.000Z</time>
      </trkpt>
      <trkpt lat="47.50972" lon="6.72762">
        <ele>426</ele>
        <time>2015-10-11T09:28:47.000Z</time>
      </trkpt>
      <trkpt lat="47.5097" lon="6.72768">
        <ele>426</ele>
        <time>2015-10-11T09:28:48.000Z</time>
      </trkpt>
      <trkpt lat="47.50967" lon="6.72774">
        <ele>427</ele>
        <time>2015-10-11T09:28:49.000Z</time>
      </trkpt>
      <trkpt lat="47.50965" lon="6.72779">
        <ele>427</ele>
        <time>2015-10-11T09:28:50.000Z</time>
      </trkpt>
      <trkpt lat="47.50963" lon="6.72785">
        <ele>427</ele>
        <time>2015-10-11T09:28:51.000Z</time>
      </trkpt>
      <trkpt lat="47.50961" lon="6.72791">
        <ele>427</ele>
        <time>2015-10-11T09:28:52.000Z</time>
      </trkpt>
      <trkpt lat="47.5096" lon="6.72796">
        <ele>427</ele>
        <time>2015-10-11T09:28:53.000Z</time>
      </trkpt>
      <trkpt lat="47.50958" lon="6.72801">
        <ele>427</ele>
        <time>2015-10-11T09:28:54.000Z</time>
      </trkpt>
      <trkpt lat="47.50957" lon="6.72805">
        <ele>427</ele>
        <time>2015-10-11T09:28:55.000Z</time>
      </trkpt>
      <trkpt lat="47.50955" lon="6.7281">
        <ele>427</ele>
        <time>2015-10-11T09:28:56.000Z</time>
      </trkpt>
      <trkpt lat="47.50953" lon="6.72815">
        <ele>427</ele>
        <time>2015-10-11T09:28:57.000Z</time>
      </trkpt>
      <trkpt lat="47.5095" lon="6.72821">
        <ele>427</ele>
        <time>2015-10-11T09:28:58.000Z</time>
      </trkpt>
      <trkpt lat="47.50947" lon="6.72827">
        <ele>428</ele>
        <time>2015-10-11T09:28:59.000Z</time>
      </trkpt>
      <trkpt lat="47.50944" lon="6.72833">
        <ele>428</ele>
        <time>2015-10-11T09:29:00.000Z</time>
      </trkpt>
      <trkpt lat="47.50941" lon="6.72839">
        <ele>427</ele>
        <time>2015-10-11T09:29:01.000Z</time>
      </trkpt>
      <trkpt lat="47.50938" lon="6.72845">
        <ele>427</ele>
        <time>2015-10-11T09:29:02.000Z</time>
      </trkpt>
      <trkpt lat="47.50936" lon="6.72851">
        <ele>427</ele>
        <time>2015-10-11T09:29:03.000Z</time>
      </trkpt>
      <trkpt lat="47.50934" lon="6.72857">
        <ele>427</ele>
        <time>2015-10-11T09:29:04.000Z</time>
      </trkpt>
      <trkpt lat="47.50933" lon="6.72864">
        <ele>427</ele>
        <time>2015-10-11T09:29:05.000Z</time>
      </trkpt>
      <trkpt lat="47.50932" lon="6.72871">
        <ele>427</ele>
        <time>2015-10-11T09:29:06.000Z</time>
      </trkpt>
      <trkpt lat="47.5093" lon="6.72877">
        <ele>426</ele>
        <time>2015-10-11T09:29:07.000Z</time>
      </trkpt>
      <trkpt lat="47.50929" lon="6.72883">
        <ele>426</ele>
        <time>2015-10-11T09:29:08.000Z</time>
      </trkpt>
      <trkpt lat="47.50927" lon="6.72889">
        <ele>426</ele>
        <time>2015-10-11T09:29:09.000Z</time>
      </trkpt>
      <trkpt lat="47.50926" lon="6.72895">
        <ele>427</ele>
        <time>2015-10-11T09:29:10.000Z</time>
      </trkpt>
      <trkpt lat="47.50925" lon="6.72901">
        <ele>427</ele>
        <time>2015-10-11T09:29:11.000Z</time>
      </trkpt>
      <trkpt lat="47.50924" lon="6.72907">
        <ele>427</ele>
        <time>2015-10-11T09:29:12.000Z</time>
      </trkpt>
      <trkpt lat="47.50924" lon="6.72914">
        <ele>427</ele>
        <time>2015-10-11T09:29:13.000Z</time>
      </trkpt>
      <trkpt lat="47.50923" lon="6.72922">
        <ele>427</ele>
        <time>2015-10-11T09:29:14.000Z</time>
      </trkpt>
      <trkpt lat="47.50922" lon="6.72929">
        <ele>426</ele>
        <time>2015-10-11T09:29:15.000Z</time>
      </trkpt>
      <trkpt lat="47.50916" lon="6.72948">
        <ele>430</ele>
        <time>2015-10-11T09:29:16.000Z</time>
      </trkpt>
      <trkpt lat="47.50914" lon="6.72958">
        <ele>430</ele>
        <time>2015-10-11T09:29:17.000Z</time>
      </trkpt>
      <trkpt lat="47.50911" lon="6.72966">
        <ele>430</ele>
        <time>2015-10-11T09:29:18.000Z</time>
      </trkpt>
      <trkpt lat="47.50911" lon="6.72976">
        <ele>430</ele>
        <time>2015-10-11T09:29:19.000Z</time>
      </trkpt>
      <trkpt lat="47.50907" lon="6.72988">
        <ele>429</ele>
        <time>2015-10-11T09:29:20.000Z</time>
      </trkpt>
      <trkpt lat="47.50903" lon="6.72997">
        <ele>429</ele>
        <time>2015-10-11T09:29:21.000Z</time>
      </trkpt>
      <trkpt lat="47.50898" lon="6.73008">
        <ele>430</ele>
        <time>2015-10-11T09:29:22.000Z</time>
      </trkpt>
      <trkpt lat="47.50898" lon="6.73018">
        <ele>430</ele>
        <time>2015-10-11T09:29:23.000Z</time>
      </trkpt>
      <trkpt lat="47.50896" lon="6.73028">
        <ele>430</ele>
        <time>2015-10-11T09:29:24.000Z</time>
      </trkpt>
      <trkpt lat="47.50896" lon="6.73038">
        <ele>430</ele>
        <time>2015-10-11T09:29:24.999Z</time>
      </trkpt>
      <trkpt lat="47.50892" lon="6.7305">
        <ele>430</ele>
        <time>2015-10-11T09:29:26.000Z</time>
      </trkpt>
      <trkpt lat="47.50889" lon="6.73062">
        <ele>430</ele>
        <time>2015-10-11T09:29:27.000Z</time>
      </trkpt>
      <trkpt lat="47.50887" lon="6.73074">
        <ele>430</ele>
        <time>2015-10-11T09:29:28.000Z</time>
      </trkpt>
      <trkpt lat="47.50881" lon="6.73086">
        <ele>428</ele>
        <time>2015-10-11T09:29:29.000Z</time>
      </trkpt>
      <trkpt lat="47.50878" lon="6.73098">
        <ele>428</ele>
        <time>2015-10-11T09:29:30.000Z</time>
      </trkpt>
      <trkpt lat="47.50875" lon="6.73108">
        <ele>428</ele>
        <time>2015-10-11T09:29:31.000Z</time>
      </trkpt>
      <trkpt lat="47.50873" lon="6.73117">
        <ele>427</ele>
        <time>2015-10-11T09:29:32.000Z</time>
      </trkpt>
      <trkpt lat="47.50872" lon="6.73128">
        <ele>427</ele>
        <time>2015-10-11T09:29:33.000Z</time>
      </trkpt>
      <trkpt lat="47.50869" lon="6.73141">
        <ele>427</ele>
        <time>2015-10-11T09:29:34.000Z</time>
      </trkpt>
      <trkpt lat="47.50867" lon="6.73151">
        <ele>426</ele>
        <time>2015-10-11T09:29:35.000Z</time>
      </trkpt>
      <trkpt lat="47.5086" lon="6.73161">
        <ele>426</ele>
        <time>2015-10-11T09:29:36.000Z</time>
      </trkpt>
      <trkpt lat="47.50852" lon="6.73172">
        <ele>422</ele>
        <time>2015-10-11T09:29:37.000Z</time>
      </trkpt>
      <trkpt lat="47.50846" lon="6.73181">
        <ele>422</ele>
        <time>2015-10-11T09:29:38.000Z</time>
      </trkpt>
      <trkpt lat="47.50841" lon="6.73188">
        <ele>421</ele>
        <time>2015-10-11T09:29:39.000Z</time>
      </trkpt>
      <trkpt lat="47.50836" lon="6.73198">
        <ele>420</ele>
        <time>2015-10-11T09:29:40.000Z</time>
      </trkpt>
      <trkpt lat="47.5083" lon="6.73208">
        <ele>420</ele>
        <time>2015-10-11T09:29:41.000Z</time>
      </trkpt>
      <trkpt lat="47.50825" lon="6.7322">
        <ele>419</ele>
        <time>2015-10-11T09:29:42.000Z</time>
      </trkpt>
      <trkpt lat="47.50818" lon="6.73232">
        <ele>418</ele>
        <time>2015-10-11T09:29:43.000Z</time>
      </trkpt>
      <trkpt lat="47.50812" lon="6.73243">
        <ele>418</ele>
        <time>2015-10-11T09:29:44.000Z</time>
      </trkpt>
      <trkpt lat="47.50804" lon="6.73248">
        <ele>418</ele>
        <time>2015-10-11T09:29:45.000Z</time>
      </trkpt>
      <trkpt lat="47.50798" lon="6.73257">
        <ele>410</ele>
        <time>2015-10-11T09:29:46.000Z</time>
      </trkpt>
      <trkpt lat="47.50791" lon="6.73263">
        <ele>410</ele>
        <time>2015-10-11T09:29:47.000Z</time>
      </trkpt>
      <trkpt lat="47.50783" lon="6.73265">
        <ele>410</ele>
        <time>2015-10-11T09:29:48.000Z</time>
      </trkpt>
      <trkpt lat="47.50777" lon="6.73272">
        <ele>410</ele>
        <time>2015-10-11T09:29:49.000Z</time>
      </trkpt>
      <trkpt lat="47.50771" lon="6.73281">
        <ele>410</ele>
        <time>2015-10-11T09:29:50.000Z</time>
      </trkpt>
      <trkpt lat="47.50765" lon="6.7329">
        <ele>409</ele>
        <time>2015-10-11T09:29:51.000Z</time>
      </trkpt>
      <trkpt lat="47.50758" lon="6.73297">
        <ele>409</ele>
        <time>2015-10-11T09:29:52.000Z</time>
      </trkpt>
      <trkpt lat="47.50752" lon="6.73305">
        <ele>408</ele>
        <time>2015-10-11T09:29:53.000Z</time>
      </trkpt>
      <trkpt lat="47.50746" lon="6.73313">
        <ele>407</ele>
        <time>2015-10-11T09:29:54.000Z</time>
      </trkpt>
      <trkpt lat="47.50743" lon="6.73323">
        <ele>406</ele>
        <time>2015-10-11T09:29:55.000Z</time>
      </trkpt>
      <trkpt lat="47.50738" lon="6.73334">
        <ele>403</ele>
        <time>2015-10-11T09:29:56.000Z</time>
      </trkpt>
      <trkpt lat="47.50731" lon="6.73342">
        <ele>401</ele>
        <time>2015-10-11T09:29:57.000Z</time>
      </trkpt>
      <trkpt lat="47.50724" lon="6.73349">
        <ele>400</ele>
        <time>2015-10-11T09:29:58.000Z</time>
      </trkpt>
      <trkpt lat="47.50717" lon="6.73355">
        <ele>399</ele>
        <time>2015-10-11T09:29:59.062Z</time>
      </trkpt>
      <trkpt lat="47.50714" lon="6.73369">
        <ele>398</ele>
        <time>2015-10-11T09:30:00.000Z</time>
      </trkpt>
      <trkpt lat="47.5071" lon="6.73377">
        <ele>397</ele>
        <time>2015-10-11T09:30:01.000Z</time>
      </trkpt>
      <trkpt lat="47.50708" lon="6.73385">
        <ele>397</ele>
        <time>2015-10-11T09:30:02.000Z</time>
      </trkpt>
      <trkpt lat="47.50705" lon="6.73393">
        <ele>396</ele>
        <time>2015-10-11T09:30:03.000Z</time>
      </trkpt>
      <trkpt lat="47.50704" lon="6.73405">
        <ele>396</ele>
        <time>2015-10-11T09:30:04.000Z</time>
      </trkpt>
      <trkpt lat="47.50701" lon="6.73415">
        <ele>396</ele>
        <time>2015-10-11T09:30:05.000Z</time>
      </trkpt>
      <trkpt lat="47.50698" lon="6.73424">
        <ele>389</ele>
        <time>2015-10-11T09:30:06.000Z</time>
      </trkpt>
      <trkpt lat="47.50695" lon="6.73433">
        <ele>388</ele>
        <time>2015-10-11T09:30:07.000Z</time>
      </trkpt>
      <trkpt lat="47.50692" lon="6.73441">
        <ele>388</ele>
        <time>2015-10-11T09:30:08.000Z</time>
      </trkpt>
      <trkpt lat="47.50688" lon="6.73448">
        <ele>388</ele>
        <time>2015-10-11T09:30:09.000Z</time>
      </trkpt>
      <trkpt lat="47.50683" lon="6.73456">
        <ele>387</ele>
        <time>2015-10-11T09:30:10.000Z</time>
      </trkpt>
      <trkpt lat="47.50679" lon="6.73464">
        <ele>387</ele>
        <time>2015-10-11T09:30:11.000Z</time>
      </trkpt>
      <trkpt lat="47.50675" lon="6.7347">
        <ele>386</ele>
        <time>2015-10-11T09:30:12.000Z</time>
      </trkpt>
      <trkpt lat="47.50673" lon="6.73475">
        <ele>386</ele>
        <time>2015-10-11T09:30:13.000Z</time>
      </trkpt>
      <trkpt lat="47.50674" lon="6.73481">
        <ele>386</ele>
        <time>2015-10-11T09:30:14.000Z</time>
      </trkpt>
      <trkpt lat="47.50672" lon="6.73487">
        <ele>386</ele>
        <time>2015-10-11T09:30:15.000Z</time>
      </trkpt>
      <trkpt lat="47.50667" lon="6.7349">
        <ele>386</ele>
        <time>2015-10-11T09:30:16.000Z</time>
      </trkpt>
      <trkpt lat="47.50664" lon="6.73493">
        <ele>386</ele>
        <time>2015-10-11T09:30:17.000Z</time>
      </trkpt>
      <trkpt lat="47.50662" lon="6.73497">
        <ele>386</ele>
        <time>2015-10-11T09:30:18.000Z</time>
      </trkpt>
      <trkpt lat="47.50662" lon="6.73502">
        <ele>384</ele>
        <time>2015-10-11T09:30:19.000Z</time>
      </trkpt>
      <trkpt lat="47.50661" lon="6.73505">
        <ele>384</ele>
        <time>2015-10-11T09:30:20.000Z</time>
      </trkpt>
      <trkpt lat="47.50659" lon="6.73508">
        <ele>383</ele>
        <time>2015-10-11T09:30:21.000Z</time>
      </trkpt>
      <trkpt lat="47.50657" lon="6.7351">
        <ele>383</ele>
        <time>2015-10-11T09:30:22.000Z</time>
      </trkpt>
      <trkpt lat="47.50655" lon="6.73512">
        <ele>382</ele>
        <time>2015-10-11T09:30:23.000Z</time>
      </trkpt>
      <trkpt lat="47.50653" lon="6.73515">
        <ele>382</ele>
        <time>2015-10-11T09:30:24.000Z</time>
      </trkpt>
      <trkpt lat="47.50651" lon="6.73518">
        <ele>381</ele>
        <time>2015-10-11T09:30:25.000Z</time>
      </trkpt>
      <trkpt lat="47.50648" lon="6.73523">
        <ele>380</ele>
        <time>2015-10-11T09:30:26.000Z</time>
      </trkpt>
      <trkpt lat="47.50645" lon="6.73528">
        <ele>380</ele>
        <time>2015-10-11T09:30:27.000Z</time>
      </trkpt>
      <trkpt lat="47.50642" lon="6.73534">
        <ele>379</ele>
        <time>2015-10-11T09:30:28.000Z</time>
      </trkpt>
      <trkpt lat="47.50637" lon="6.73545">
        <ele>379</ele>
        <time>2015-10-11T09:30:29.000Z</time>
      </trkpt>
      <trkpt lat="47.50636" lon="6.7355">
        <ele>378</ele>
        <time>2015-10-11T09:30:30.000Z</time>
      </trkpt>
      <trkpt lat="47.50635" lon="6.73553">
        <ele>378</ele>
        <time>2015-10-11T09:30:31.000Z</time>
      </trkpt>
      <trkpt lat="47.50631" lon="6.73556">
        <ele>378</ele>
        <time>2015-10-11T09:30:43.000Z</time>
      </trkpt>
      <trkpt lat="47.5063" lon="6.73555">
        <ele>378</ele>
        <time>2015-10-11T09:30:44.000Z</time>
      </trkpt>
      <trkpt lat="47.50626" lon="6.73558">
        <ele>378</ele>
        <time>2015-10-11T09:31:50.000Z</time>
      </trkpt>
      <trkpt lat="47.50626" lon="6.73557">
        <ele>378</ele>
        <time>2015-10-11T09:31:51.000Z</time>
      </trkpt>
      <trkpt lat="47.50628" lon="6.73562">
        <ele>378</ele>
        <time>2015-10-11T09:32:01.000Z</time>
      </trkpt>
      <trkpt lat="47.50629" lon="6.73563">
        <ele>378</ele>
        <time>2015-10-11T09:32:02.000Z</time>
      </trkpt>
      <trkpt lat="47.50628" lon="6.73569">
        <ele>378</ele>
        <time>2015-10-11T09:32:07.000Z</time>
      </trkpt>
      <trkpt lat="47.50627" lon="6.7357">
        <ele>378</ele>
        <time>2015-10-11T09:32:08.000Z</time>
      </trkpt>
      <trkpt lat="47.50624" lon="6.73572">
        <ele>378</ele>
        <time>2015-10-11T09:32:11.000Z</time>
      </trkpt>
      <trkpt lat="47.50622" lon="6.73573">
        <ele>378</ele>
        <time>2015-10-11T09:32:12.000Z</time>
      </trkpt>
      <trkpt lat="47.50619" lon="6.73574">
        <ele>378</ele>
        <time>2015-10-11T09:32:14.000Z</time>
      </trkpt>
      <trkpt lat="47.50617" lon="6.73574">
        <ele>379</ele>
        <time>2015-10-11T09:32:15.000Z</time>
      </trkpt>
      <trkpt lat="47.50614" lon="6.73577">
        <ele>379</ele>
        <time>2015-10-11T09:32:20.000Z</time>
      </trkpt>
      <trkpt lat="47.50613" lon="6.73577">
        <ele>379</ele>
        <time>2015-10-11T09:32:21.000Z</time>
      </trkpt>
      <trkpt lat="47.50609" lon="6.73581">
        <ele>379</ele>
        <time>2015-10-11T09:32:26.000Z</time>
      </trkpt>
      <trkpt lat="47.50608" lon="6.73581">
        <ele>379</ele>
        <time>2015-10-11T09:32:27.000Z</time>
      </trkpt>
      <trkpt lat="47.50604" lon="6.73581">
        <ele>380</ele>
        <time>2015-10-11T09:32:33.000Z</time>
      </trkpt>
      <trkpt lat="47.50603" lon="6.73581">
        <ele>380</ele>
        <time>2015-10-11T09:32:34.000Z</time>
      </trkpt>
      <trkpt lat="47.50598" lon="6.73582">
        <ele>380</ele>
        <time>2015-10-11T09:32:39.000Z</time>
      </trkpt>
      <trkpt lat="47.50598" lon="6.73583">
        <ele>380</ele>
        <time>2015-10-11T09:32:40.000Z</time>
      </trkpt>
      <trkpt lat="47.50594" lon="6.73587">
        <ele>379</ele>
        <time>2015-10-11T09:32:59.000Z</time>
      </trkpt>
      <trkpt lat="47.50594" lon="6.73587">
        <ele>379</ele>
        <time>2015-10-11T09:33:00.000Z</time>
      </trkpt>
      <trkpt lat="47.5059" lon="6.73588">
        <ele>380</ele>
        <time>2015-10-11T09:33:04.000Z</time>
      </trkpt>
      <trkpt lat="47.50589" lon="6.73588">
        <ele>380</ele>
        <time>2015-10-11T09:33:05.000Z</time>
      </trkpt>
      <trkpt lat="47.50586" lon="6.73592">
        <ele>380</ele>
        <time>2015-10-11T09:33:12.000Z</time>
      </trkpt>
      <trkpt lat="47.50585" lon="6.73593">
        <ele>380</ele>
        <time>2015-10-11T09:33:13.000Z</time>
      </trkpt>
      <trkpt lat="47.50583" lon="6.73597">
        <ele>385</ele>
        <time>2015-10-11T09:33:17.000Z</time>
      </trkpt>
      <trkpt lat="47.50582" lon="6.73598">
        <ele>386</ele>
        <time>2015-10-11T09:33:18.000Z</time>
      </trkpt>
      <trkpt lat="47.50578" lon="6.736">
        <ele>386</ele>
        <time>2015-10-11T09:33:23.000Z</time>
      </trkpt>
      <trkpt lat="47.50578" lon="6.736">
        <ele>386</ele>
        <time>2015-10-11T09:33:24.000Z</time>
      </trkpt>
      <trkpt lat="47.50573" lon="6.736">
        <ele>387</ele>
        <time>2015-10-11T09:33:40.000Z</time>
      </trkpt>
      <trkpt lat="47.50573" lon="6.736">
        <ele>387</ele>
        <time>2015-10-11T09:33:41.000Z</time>
      </trkpt>
      <trkpt lat="47.50572" lon="6.73605">
        <ele>387</ele>
        <time>2015-10-11T09:33:48.000Z</time>
      </trkpt>
      <trkpt lat="47.50571" lon="6.73607">
        <ele>387</ele>
        <time>2015-10-11T09:33:49.000Z</time>
      </trkpt>
      <trkpt lat="47.50567" lon="6.7361">
        <ele>388</ele>
        <time>2015-10-11T09:33:53.000Z</time>
      </trkpt>
      <trkpt lat="47.50566" lon="6.7361">
        <ele>388</ele>
        <time>2015-10-11T09:33:54.000Z</time>
      </trkpt>
      <trkpt lat="47.50563" lon="6.73614">
        <ele>388</ele>
        <time>2015-10-11T09:33:58.000Z</time>
      </trkpt>
      <trkpt lat="47.50562" lon="6.73615">
        <ele>389</ele>
        <time>2015-10-11T09:33:59.000Z</time>
      </trkpt>
      <trkpt lat="47.5056" lon="6.73619">
        <ele>389</ele>
        <time>2015-10-11T09:34:02.000Z</time>
      </trkpt>
      <trkpt lat="47.50558" lon="6.73621">
        <ele>389</ele>
        <time>2015-10-11T09:34:03.000Z</time>
      </trkpt>
      <trkpt lat="47.50555" lon="6.73623">
        <ele>389</ele>
        <time>2015-10-11T09:34:05.000Z</time>
      </trkpt>
      <trkpt lat="47.50553" lon="6.73623">
        <ele>390</ele>
        <time>2015-10-11T09:34:06.000Z</time>
      </trkpt>
      <trkpt lat="47.50549" lon="6.73624">
        <ele>390</ele>
        <time>2015-10-11T09:34:08.000Z</time>
      </trkpt>
      <trkpt lat="47.50548" lon="6.73625">
        <ele>390</ele>
        <time>2015-10-11T09:34:09.000Z</time>
      </trkpt>
      <trkpt lat="47.50545" lon="6.73626">
        <ele>390</ele>
        <time>2015-10-11T09:34:11.000Z</time>
      </trkpt>
      <trkpt lat="47.50543" lon="6.73626">
        <ele>391</ele>
        <time>2015-10-11T09:34:12.000Z</time>
      </trkpt>
      <trkpt lat="47.5054" lon="6.73627">
        <ele>391</ele>
        <time>2015-10-11T09:34:14.000Z</time>
      </trkpt>
      <trkpt lat="47.50539" lon="6.73627">
        <ele>391</ele>
        <time>2015-10-11T09:34:15.000Z</time>
      </trkpt>
      <trkpt lat="47.50534" lon="6.73629">
        <ele>392</ele>
        <time>2015-10-11T09:34:18.000Z</time>
      </trkpt>
      <trkpt lat="47.50533" lon="6.73629">
        <ele>392</ele>
        <time>2015-10-11T09:34:19.000Z</time>
      </trkpt>
      <trkpt lat="47.5053" lon="6.73632">
        <ele>392</ele>
        <time>2015-10-11T09:34:22.000Z</time>
      </trkpt>
      <trkpt lat="47.50529" lon="6.73634">
        <ele>392</ele>
        <time>2015-10-11T09:34:23.000Z</time>
      </trkpt>
      <trkpt lat="47.50526" lon="6.73637">
        <ele>393</ele>
        <time>2015-10-11T09:34:26.000Z</time>
      </trkpt>
      <trkpt lat="47.50525" lon="6.73638">
        <ele>393</ele>
        <time>2015-10-11T09:34:27.000Z</time>
      </trkpt>
      <trkpt lat="47.50521" lon="6.73641">
        <ele>393</ele>
        <time>2015-10-11T09:34:30.000Z</time>
      </trkpt>
      <trkpt lat="47.5052" lon="6.73641">
        <ele>394</ele>
        <time>2015-10-11T09:34:31.000Z</time>
      </trkpt>
      <trkpt lat="47.50516" lon="6.73643">
        <ele>394</ele>
        <time>2015-10-11T09:34:34.000Z</time>
      </trkpt>
      <trkpt lat="47.50515" lon="6.73644">
        <ele>394</ele>
        <time>2015-10-11T09:34:35.000Z</time>
      </trkpt>
      <trkpt lat="47.50511" lon="6.73646">
        <ele>395</ele>
        <time>2015-10-11T09:34:38.000Z</time>
      </trkpt>
      <trkpt lat="47.5051" lon="6.73647">
        <ele>395</ele>
        <time>2015-10-11T09:34:39.000Z</time>
      </trkpt>
      <trkpt lat="47.50507" lon="6.73649">
        <ele>396</ele>
        <time>2015-10-11T09:34:42.000Z</time>
      </trkpt>
      <trkpt lat="47.50506" lon="6.73649">
        <ele>396</ele>
        <time>2015-10-11T09:34:43.000Z</time>
      </trkpt>
      <trkpt lat="47.50502" lon="6.73652">
        <ele>397</ele>
        <time>2015-10-11T09:34:46.000Z</time>
      </trkpt>
      <trkpt lat="47.50501" lon="6.73653">
        <ele>397</ele>
        <time>2015-10-11T09:34:47.000Z</time>
      </trkpt>
      <trkpt lat="47.50497" lon="6.73654">
        <ele>401</ele>
        <time>2015-10-11T09:34:50.000Z</time>
      </trkpt>
      <trkpt lat="47.50496" lon="6.73654">
        <ele>401</ele>
        <time>2015-10-11T09:34:51.000Z</time>
      </trkpt>
      <trkpt lat="47.50492" lon="6.73654">
        <ele>401</ele>
        <time>2015-10-11T09:34:54.000Z</time>
      </trkpt>
      <trkpt lat="47.50491" lon="6.73655">
        <ele>401</ele>
        <time>2015-10-11T09:34:55.000Z</time>
      </trkpt>
      <trkpt lat="47.50488" lon="6.73658">
        <ele>401</ele>
        <time>2015-10-11T09:34:58.000Z</time>
      </trkpt>
      <trkpt lat="47.50487" lon="6.7366">
        <ele>402</ele>
        <time>2015-10-11T09:34:59.000Z</time>
      </trkpt>
      <trkpt lat="47.50484" lon="6.73663">
        <ele>402</ele>
        <time>2015-10-11T09:35:01.000Z</time>
      </trkpt>
      <trkpt lat="47.50483" lon="6.73664">
        <ele>402</ele>
        <time>2015-10-11T09:35:02.000Z</time>
      </trkpt>
      <trkpt lat="47.50479" lon="6.73666">
        <ele>402</ele>
        <time>2015-10-11T09:35:04.000Z</time>
      </trkpt>
      <trkpt lat="47.50478" lon="6.73668">
        <ele>404</ele>
        <time>2015-10-11T09:35:05.000Z</time>
      </trkpt>
      <trkpt lat="47.50475" lon="6.7367">
        <ele>404</ele>
        <time>2015-10-11T09:35:07.000Z</time>
      </trkpt>
      <trkpt lat="47.50474" lon="6.73671">
        <ele>404</ele>
        <time>2015-10-11T09:35:08.000Z</time>
      </trkpt>
      <trkpt lat="47.50471" lon="6.73673">
        <ele>405</ele>
        <time>2015-10-11T09:35:10.000Z</time>
      </trkpt>
      <trkpt lat="47.50469" lon="6.73675">
        <ele>405</ele>
        <time>2015-10-11T09:35:11.000Z</time>
      </trkpt>
      <trkpt lat="47.50466" lon="6.73676">
        <ele>405</ele>
        <time>2015-10-11T09:35:13.000Z</time>
      </trkpt>
      <trkpt lat="47.50464" lon="6.73676">
        <ele>405</ele>
        <time>2015-10-11T09:35:14.000Z</time>
      </trkpt>
      <trkpt lat="47.50461" lon="6.73676">
        <ele>406</ele>
        <time>2015-10-11T09:35:16.000Z</time>
      </trkpt>
      <trkpt lat="47.50459" lon="6.73676">
        <ele>406</ele>
        <time>2015-10-11T09:35:17.000Z</time>
      </trkpt>
      <trkpt lat="47.50456" lon="6.73677">
        <ele>406</ele>
        <time>2015-10-11T09:35:19.000Z</time>
      </trkpt>
      <trkpt lat="47.50455" lon="6.73678">
        <ele>406</ele>
        <time>2015-10-11T09:35:20.000Z</time>
      </trkpt>
      <trkpt lat="47.50451" lon="6.7368">
        <ele>406</ele>
        <time>2015-10-11T09:35:23.000Z</time>
      </trkpt>
      <trkpt lat="47.5045" lon="6.7368">
        <ele>407</ele>
        <time>2015-10-11T09:35:24.000Z</time>
      </trkpt>
      <trkpt lat="47.50446" lon="6.73682">
        <ele>407</ele>
        <time>2015-10-11T09:35:30.000Z</time>
      </trkpt>
      <trkpt lat="47.50445" lon="6.73683">
        <ele>407</ele>
        <time>2015-10-11T09:35:31.000Z</time>
      </trkpt>
      <trkpt lat="47.50442" lon="6.73685">
        <ele>407</ele>
        <time>2015-10-11T09:35:59.000Z</time>
      </trkpt>
      <trkpt lat="47.5044" lon="6.73687">
        <ele>407</ele>
        <time>2015-10-11T09:36:00.000Z</time>
      </trkpt>
      <trkpt lat="47.50437" lon="6.73689">
        <ele>407</ele>
        <time>2015-10-11T09:36:02.000Z</time>
      </trkpt>
      <trkpt lat="47.50434" lon="6.7369">
        <ele>408</ele>
        <time>2015-10-11T09:36:03.000Z</time>
      </trkpt>
      <trkpt lat="47.5043" lon="6.73691">
        <ele>408</ele>
        <time>2015-10-11T09:36:05.000Z</time>
      </trkpt>
      <trkpt lat="47.50428" lon="6.73692">
        <ele>408</ele>
        <time>2015-10-11T09:36:06.000Z</time>
      </trkpt>
      <trkpt lat="47.50425" lon="6.73693">
        <ele>408</ele>
        <time>2015-10-11T09:36:09.000Z</time>
      </trkpt>
      <trkpt lat="47.50424" lon="6.73694">
        <ele>408</ele>
        <time>2015-10-11T09:36:10.000Z</time>
      </trkpt>
      <trkpt lat="47.5042" lon="6.73696">
        <ele>408</ele>
        <time>2015-10-11T09:36:12.000Z</time>
      </trkpt>
      <trkpt lat="47.50418" lon="6.73697">
        <ele>408</ele>
        <time>2015-10-11T09:36:13.000Z</time>
      </trkpt>
      <trkpt lat="47.50414" lon="6.737">
        <ele>410</ele>
        <time>2015-10-11T09:36:15.000Z</time>
      </trkpt>
      <trkpt lat="47.50413" lon="6.73701">
        <ele>410</ele>
        <time>2015-10-11T09:36:16.000Z</time>
      </trkpt>
      <trkpt lat="47.50409" lon="6.73703">
        <ele>410</ele>
        <time>2015-10-11T09:36:18.000Z</time>
      </trkpt>
      <trkpt lat="47.50407" lon="6.73703">
        <ele>410</ele>
        <time>2015-10-11T09:36:19.000Z</time>
      </trkpt>
      <trkpt lat="47.50404" lon="6.73705">
        <ele>410</ele>
        <time>2015-10-11T09:36:21.000Z</time>
      </trkpt>
      <trkpt lat="47.50402" lon="6.73707">
        <ele>410</ele>
        <time>2015-10-11T09:36:22.000Z</time>
      </trkpt>
      <trkpt lat="47.50399" lon="6.7371">
        <ele>410</ele>
        <time>2015-10-11T09:36:24.000Z</time>
      </trkpt>
      <trkpt lat="47.50397" lon="6.73711">
        <ele>410</ele>
        <time>2015-10-11T09:36:25.000Z</time>
      </trkpt>
      <trkpt lat="47.50394" lon="6.73715">
        <ele>410</ele>
        <time>2015-10-11T09:36:27.000Z</time>
      </trkpt>
      <trkpt lat="47.50393" lon="6.73717">
        <ele>410</ele>
        <time>2015-10-11T09:36:28.000Z</time>
      </trkpt>
      <trkpt lat="47.50391" lon="6.73721">
        <ele>410</ele>
        <time>2015-10-11T09:36:30.000Z</time>
      </trkpt>
      <trkpt lat="47.5039" lon="6.73723">
        <ele>410</ele>
        <time>2015-10-11T09:36:31.000Z</time>
      </trkpt>
      <trkpt lat="47.50388" lon="6.73728">
        <ele>410</ele>
        <time>2015-10-11T09:36:33.000Z</time>
      </trkpt>
      <trkpt lat="47.50386" lon="6.73731">
        <ele>410</ele>
        <time>2015-10-11T09:36:34.000Z</time>
      </trkpt>
      <trkpt lat="47.50384" lon="6.73736">
        <ele>410</ele>
        <time>2015-10-11T09:36:36.000Z</time>
      </trkpt>
      <trkpt lat="47.50382" lon="6.73738">
        <ele>410</ele>
        <time>2015-10-11T09:36:37.000Z</time>
      </trkpt>
      <trkpt lat="47.50379" lon="6.73742">
        <ele>410</ele>
        <time>2015-10-11T09:36:39.000Z</time>
      </trkpt>
      <trkpt lat="47.50378" lon="6.73744">
        <ele>410</ele>
        <time>2015-10-11T09:36:40.000Z</time>
      </trkpt>
      <trkpt lat="47.50375" lon="6.73748">
        <ele>410</ele>
        <time>2015-10-11T09:36:42.000Z</time>
      </trkpt>
      <trkpt lat="47.50374" lon="6.7375">
        <ele>410</ele>
        <time>2015-10-11T09:36:43.000Z</time>
      </trkpt>
      <trkpt lat="47.50372" lon="6.73753">
        <ele>411</ele>
        <time>2015-10-11T09:36:45.000Z</time>
      </trkpt>
      <trkpt lat="47.50371" lon="6.73755">
        <ele>411</ele>
        <time>2015-10-11T09:36:46.000Z</time>
      </trkpt>
      <trkpt lat="47.50369" lon="6.73759">
        <ele>411</ele>
        <time>2015-10-11T09:36:48.000Z</time>
      </trkpt>
      <trkpt lat="47.50367" lon="6.73761">
        <ele>411</ele>
        <time>2015-10-11T09:36:49.000Z</time>
      </trkpt>
      <trkpt lat="47.50366" lon="6.73764">
        <ele>411</ele>
        <time>2015-10-11T09:36:50.000Z</time>
      </trkpt>
      <trkpt lat="47.50364" lon="6.73766">
        <ele>411</ele>
        <time>2015-10-11T09:36:51.000Z</time>
      </trkpt>
      <trkpt lat="47.50362" lon="6.73769">
        <ele>411</ele>
        <time>2015-10-11T09:36:52.000Z</time>
      </trkpt>
      <trkpt lat="47.50361" lon="6.73772">
        <ele>411</ele>
        <time>2015-10-11T09:36:53.000Z</time>
      </trkpt>
      <trkpt lat="47.50359" lon="6.73778">
        <ele>411</ele>
        <time>2015-10-11T09:36:55.000Z</time>
      </trkpt>
      <trkpt lat="47.50358" lon="6.73781">
        <ele>411</ele>
        <time>2015-10-11T09:36:56.000Z</time>
      </trkpt>
      <trkpt lat="47.50357" lon="6.73785">
        <ele>411</ele>
        <time>2015-10-11T09:36:57.000Z</time>
      </trkpt>
      <trkpt lat="47.50356" lon="6.73788">
        <ele>411</ele>
        <time>2015-10-11T09:36:58.000Z</time>
      </trkpt>
      <trkpt lat="47.50355" lon="6.73792">
        <ele>411</ele>
        <time>2015-10-11T09:36:59.000Z</time>
      </trkpt>
      <trkpt lat="47.50353" lon="6.73795">
        <ele>411</ele>
        <time>2015-10-11T09:37:00.000Z</time>
      </trkpt>
      <trkpt lat="47.50352" lon="6.73798">
        <ele>411</ele>
        <time>2015-10-11T09:37:01.000Z</time>
      </trkpt>
      <trkpt lat="47.5035" lon="6.73802">
        <ele>411</ele>
        <time>2015-10-11T09:37:02.000Z</time>
      </trkpt>
      <trkpt lat="47.50349" lon="6.73807">
        <ele>411</ele>
        <time>2015-10-11T09:37:03.000Z</time>
      </trkpt>
      <trkpt lat="47.50348" lon="6.73811">
        <ele>411</ele>
        <time>2015-10-11T09:37:04.000Z</time>
      </trkpt>
      <trkpt lat="47.50347" lon="6.73816">
        <ele>411</ele>
        <time>2015-10-11T09:37:05.000Z</time>
      </trkpt>
      <trkpt lat="47.50345" lon="6.7382">
        <ele>411</ele>
        <time>2015-10-11T09:37:06.000Z</time>
      </trkpt>
      <trkpt lat="47.50344" lon="6.73824">
        <ele>411</ele>
        <time>2015-10-11T09:37:07.000Z</time>
      </trkpt>
      <trkpt lat="47.50343" lon="6.73828">
        <ele>412</ele>
        <time>2015-10-11T09:37:08.000Z</time>
      </trkpt>
      <trkpt lat="47.50341" lon="6.73834">
        <ele>411</ele>
        <time>2015-10-11T09:37:10.000Z</time>
      </trkpt>
      <trkpt lat="47.50341" lon="6.73837">
        <ele>411</ele>
        <time>2015-10-11T09:37:11.000Z</time>
      </trkpt>
      <trkpt lat="47.5034" lon="6.73842">
        <ele>410</ele>
        <time>2015-10-11T09:37:13.000Z</time>
      </trkpt>
      <trkpt lat="47.50339" lon="6.73845">
        <ele>410</ele>
        <time>2015-10-11T09:37:14.000Z</time>
      </trkpt>
      <trkpt lat="47.50338" lon="6.73849">
        <ele>409</ele>
        <time>2015-10-11T09:37:15.000Z</time>
      </trkpt>
      <trkpt lat="47.50337" lon="6.73853">
        <ele>409</ele>
        <time>2015-10-11T09:37:16.000Z</time>
      </trkpt>
      <trkpt lat="47.50335" lon="6.73859">
        <ele>408</ele>
        <time>2015-10-11T09:37:17.000Z</time>
      </trkpt>
      <trkpt lat="47.50334" lon="6.73865">
        <ele>408</ele>
        <time>2015-10-11T09:37:18.000Z</time>
      </trkpt>
      <trkpt lat="47.50332" lon="6.73872">
        <ele>405</ele>
        <time>2015-10-11T09:37:19.000Z</time>
      </trkpt>
      <trkpt lat="47.5033" lon="6.73878">
        <ele>404</ele>
        <time>2015-10-11T09:37:20.000Z</time>
      </trkpt>
      <trkpt lat="47.50329" lon="6.73885">
        <ele>404</ele>
        <time>2015-10-11T09:37:21.000Z</time>
      </trkpt>
      <trkpt lat="47.50327" lon="6.73892">
        <ele>404</ele>
        <time>2015-10-11T09:37:22.000Z</time>
      </trkpt>
      <trkpt lat="47.50324" lon="6.73909">
        <ele>403</ele>
        <time>2015-10-11T09:37:23.000Z</time>
      </trkpt>
      <trkpt lat="47.50321" lon="6.73917">
        <ele>401</ele>
        <time>2015-10-11T09:37:24.000Z</time>
      </trkpt>
      <trkpt lat="47.50317" lon="6.73927">
        <ele>400</ele>
        <time>2015-10-11T09:37:25.000Z</time>
      </trkpt>
      <trkpt lat="47.50314" lon="6.73938">
        <ele>400</ele>
        <time>2015-10-11T09:37:26.000Z</time>
      </trkpt>
      <trkpt lat="47.50312" lon="6.73949">
        <ele>399</ele>
        <time>2015-10-11T09:37:27.000Z</time>
      </trkpt>
      <trkpt lat="47.50307" lon="6.73962">
        <ele>398</ele>
        <time>2015-10-11T09:37:28.000Z</time>
      </trkpt>
      <trkpt lat="47.50304" lon="6.73972">
        <ele>398</ele>
        <time>2015-10-11T09:37:29.000Z</time>
      </trkpt>
      <trkpt lat="47.50297" lon="6.73983">
        <ele>397</ele>
        <time>2015-10-11T09:37:30.000Z</time>
      </trkpt>
      <trkpt lat="47.50295" lon="6.73993">
        <ele>397</ele>
        <time>2015-10-11T09:37:31.000Z</time>
      </trkpt>
      <trkpt lat="47.5029" lon="6.74006">
        <ele>392</ele>
        <time>2015-10-11T09:37:32.000Z</time>
      </trkpt>
      <trkpt lat="47.50286" lon="6.74021">
        <ele>391</ele>
        <time>2015-10-11T09:37:33.000Z</time>
      </trkpt>
      <trkpt lat="47.50283" lon="6.74031">
        <ele>391</ele>
        <time>2015-10-11T09:37:34.000Z</time>
      </trkpt>
      <trkpt lat="47.5028" lon="6.74044">
        <ele>390</ele>
        <time>2015-10-11T09:37:35.000Z</time>
      </trkpt>
      <trkpt lat="47.50277" lon="6.74054">
        <ele>389</ele>
        <time>2015-10-11T09:37:36.000Z</time>
      </trkpt>
      <trkpt lat="47.50272" lon="6.74063">
        <ele>388</ele>
        <time>2015-10-11T09:37:37.000Z</time>
      </trkpt>
      <trkpt lat="47.50267" lon="6.74071">
        <ele>387</ele>
        <time>2015-10-11T09:37:38.000Z</time>
      </trkpt>
      <trkpt lat="47.50263" lon="6.74078">
        <ele>386</ele>
        <time>2015-10-11T09:37:39.000Z</time>
      </trkpt>
      <trkpt lat="47.5026" lon="6.74084">
        <ele>384</ele>
        <time>2015-10-11T09:37:40.000Z</time>
      </trkpt>
      <trkpt lat="47.50258" lon="6.74091">
        <ele>384</ele>
        <time>2015-10-11T09:37:41.000Z</time>
      </trkpt>
      <trkpt lat="47.50255" lon="6.74095">
        <ele>384</ele>
        <time>2015-10-11T09:37:42.000Z</time>
      </trkpt>
      <trkpt lat="47.50248" lon="6.74103">
        <ele>380</ele>
        <time>2015-10-11T09:37:43.000Z</time>
      </trkpt>
      <trkpt lat="47.50241" lon="6.74103">
        <ele>379</ele>
        <time>2015-10-11T09:37:44.000Z</time>
      </trkpt>
      <trkpt lat="47.50235" lon="6.74108">
        <ele>379</ele>
        <time>2015-10-11T09:37:45.000Z</time>
      </trkpt>
      <trkpt lat="47.50229" lon="6.74112">
        <ele>378</ele>
        <time>2015-10-11T09:37:46.000Z</time>
      </trkpt>
      <trkpt lat="47.50225" lon="6.74117">
        <ele>378</ele>
        <time>2015-10-11T09:37:47.000Z</time>
      </trkpt>
      <trkpt lat="47.50221" lon="6.7412">
        <ele>377</ele>
        <time>2015-10-11T09:37:48.000Z</time>
      </trkpt>
      <trkpt lat="47.50218" lon="6.74125">
        <ele>377</ele>
        <time>2015-10-11T09:37:49.000Z</time>
      </trkpt>
      <trkpt lat="47.50212" lon="6.74129">
        <ele>377</ele>
        <time>2015-10-11T09:37:50.000Z</time>
      </trkpt>
      <trkpt lat="47.50206" lon="6.74133">
        <ele>376</ele>
        <time>2015-10-11T09:37:51.000Z</time>
      </trkpt>
      <trkpt lat="47.50199" lon="6.74138">
        <ele>376</ele>
        <time>2015-10-11T09:37:52.000Z</time>
      </trkpt>
      <trkpt lat="47.50192" lon="6.74143">
        <ele>375</ele>
        <time>2015-10-11T09:37:53.000Z</time>
      </trkpt>
      <trkpt lat="47.50186" lon="6.74147">
        <ele>374</ele>
        <time>2015-10-11T09:37:54.000Z</time>
      </trkpt>
      <trkpt lat="47.50179" lon="6.74149">
        <ele>374</ele>
        <time>2015-10-11T09:37:55.000Z</time>
      </trkpt>
      <trkpt lat="47.50173" lon="6.74151">
        <ele>373</ele>
        <time>2015-10-11T09:37:56.000Z</time>
      </trkpt>
      <trkpt lat="47.50168" lon="6.74155">
        <ele>372</ele>
        <time>2015-10-11T09:37:57.000Z</time>
      </trkpt>
      <trkpt lat="47.50164" lon="6.74157">
        <ele>370</ele>
        <time>2015-10-11T09:37:58.000Z</time>
      </trkpt>
      <trkpt lat="47.50161" lon="6.74159">
        <ele>370</ele>
        <time>2015-10-11T09:37:59.000Z</time>
      </trkpt>
      <trkpt lat="47.50159" lon="6.74163">
        <ele>370</ele>
        <time>2015-10-11T09:38:00.000Z</time>
      </trkpt>
      <trkpt lat="47.50158" lon="6.74165">
        <ele>370</ele>
        <time>2015-10-11T09:38:01.000Z</time>
      </trkpt>
      <trkpt lat="47.50155" lon="6.74169">
        <ele>368</ele>
        <time>2015-10-11T09:39:38.000Z</time>
      </trkpt>
      <trkpt lat="47.50157" lon="6.74173">
        <ele>368</ele>
        <time>2015-10-11T09:39:39.000Z</time>
      </trkpt>
      <trkpt lat="47.50159" lon="6.74178">
        <ele>368</ele>
        <time>2015-10-11T09:39:40.000Z</time>
      </trkpt>
      <trkpt lat="47.50162" lon="6.74182">
        <ele>368</ele>
        <time>2015-10-11T09:39:41.000Z</time>
      </trkpt>
      <trkpt lat="47.50165" lon="6.74187">
        <ele>367</ele>
        <time>2015-10-11T09:39:42.000Z</time>
      </trkpt>
      <trkpt lat="47.50167" lon="6.74193">
        <ele>370</ele>
        <time>2015-10-11T09:39:43.000Z</time>
      </trkpt>
      <trkpt lat="47.50169" lon="6.74199">
        <ele>370</ele>
        <time>2015-10-11T09:39:44.000Z</time>
      </trkpt>
      <trkpt lat="47.5017" lon="6.74205">
        <ele>370</ele>
        <time>2015-10-11T09:39:45.000Z</time>
      </trkpt>
      <trkpt lat="47.50172" lon="6.7421">
        <ele>370</ele>
        <time>2015-10-11T09:39:46.000Z</time>
      </trkpt>
      <trkpt lat="47.50174" lon="6.74215">
        <ele>369</ele>
        <time>2015-10-11T09:39:47.000Z</time>
      </trkpt>
      <trkpt lat="47.50176" lon="6.74219">
        <ele>369</ele>
        <time>2015-10-11T09:39:48.000Z</time>
      </trkpt>
      <trkpt lat="47.50178" lon="6.74224">
        <ele>369</ele>
        <time>2015-10-11T09:39:49.000Z</time>
      </trkpt>
      <trkpt lat="47.5018" lon="6.74228">
        <ele>368</ele>
        <time>2015-10-11T09:39:50.000Z</time>
      </trkpt>
      <trkpt lat="47.50183" lon="6.74232">
        <ele>368</ele>
        <time>2015-10-11T09:39:51.000Z</time>
      </trkpt>
      <trkpt lat="47.50185" lon="6.74237">
        <ele>368</ele>
        <time>2015-10-11T09:39:52.000Z</time>
      </trkpt>
      <trkpt lat="47.50188" lon="6.74242">
        <ele>368</ele>
        <time>2015-10-11T09:39:53.000Z</time>
      </trkpt>
      <trkpt lat="47.50191" lon="6.74247">
        <ele>368</ele>
        <time>2015-10-11T09:39:54.000Z</time>
      </trkpt>
      <trkpt lat="47.50194" lon="6.74252">
        <ele>364</ele>
        <time>2015-10-11T09:39:55.000Z</time>
      </trkpt>
      <trkpt lat="47.50197" lon="6.74257">
        <ele>364</ele>
        <time>2015-10-11T09:39:56.000Z</time>
      </trkpt>
      <trkpt lat="47.50201" lon="6.74262">
        <ele>365</ele>
        <time>2015-10-11T09:39:57.000Z</time>
      </trkpt>
      <trkpt lat="47.50204" lon="6.74268">
        <ele>365</ele>
        <time>2015-10-11T09:39:58.000Z</time>
      </trkpt>
      <trkpt lat="47.50207" lon="6.74272">
        <ele>365</ele>
        <time>2015-10-11T09:39:59.000Z</time>
      </trkpt>
      <trkpt lat="47.50211" lon="6.74277">
        <ele>365</ele>
        <time>2015-10-11T09:40:00.000Z</time>
      </trkpt>
      <trkpt lat="47.50215" lon="6.74282">
        <ele>365</ele>
        <time>2015-10-11T09:40:01.000Z</time>
      </trkpt>
      <trkpt lat="47.50218" lon="6.74287">
        <ele>365</ele>
        <time>2015-10-11T09:40:02.000Z</time>
      </trkpt>
      <trkpt lat="47.50222" lon="6.74292">
        <ele>364</ele>
        <time>2015-10-11T09:40:03.000Z</time>
      </trkpt>
      <trkpt lat="47.50225" lon="6.74297">
        <ele>364</ele>
        <time>2015-10-11T09:40:04.000Z</time>
      </trkpt>
      <trkpt lat="47.50229" lon="6.74302">
        <ele>364</ele>
        <time>2015-10-11T09:40:05.000Z</time>
      </trkpt>
      <trkpt lat="47.50233" lon="6.74307">
        <ele>364</ele>
        <time>2015-10-11T09:40:06.000Z</time>
      </trkpt>
      <trkpt lat="47.50236" lon="6.74313">
        <ele>363</ele>
        <time>2015-10-11T09:40:07.000Z</time>
      </trkpt>
      <trkpt lat="47.50241" lon="6.74318">
        <ele>363</ele>
        <time>2015-10-11T09:40:08.000Z</time>
      </trkpt>
      <trkpt lat="47.50244" lon="6.74325">
        <ele>362</ele>
        <time>2015-10-11T09:40:09.000Z</time>
      </trkpt>
      <trkpt lat="47.50248" lon="6.74331">
        <ele>361</ele>
        <time>2015-10-11T09:40:10.000Z</time>
      </trkpt>
      <trkpt lat="47.50252" lon="6.74338">
        <ele>361</ele>
        <time>2015-10-11T09:40:11.000Z</time>
      </trkpt>
      <trkpt lat="47.50255" lon="6.74345">
        <ele>360</ele>
        <time>2015-10-11T09:40:12.000Z</time>
      </trkpt>
      <trkpt lat="47.50259" lon="6.74352">
        <ele>360</ele>
        <time>2015-10-11T09:40:13.000Z</time>
      </trkpt>
      <trkpt lat="47.50262" lon="6.7436">
        <ele>359</ele>
        <time>2015-10-11T09:40:14.000Z</time>
      </trkpt>
      <trkpt lat="47.50265" lon="6.74368">
        <ele>359</ele>
        <time>2015-10-11T09:40:15.000Z</time>
      </trkpt>
      <trkpt lat="47.50271" lon="6.74384">
        <ele>358</ele>
        <time>2015-10-11T09:40:17.000Z</time>
      </trkpt>
      <trkpt lat="47.50274" lon="6.74393">
        <ele>357</ele>
        <time>2015-10-11T09:40:18.000Z</time>
      </trkpt>
      <trkpt lat="47.50277" lon="6.744">
        <ele>357</ele>
        <time>2015-10-11T09:40:19.000Z</time>
      </trkpt>
      <trkpt lat="47.50279" lon="6.74408">
        <ele>356</ele>
        <time>2015-10-11T09:40:20.000Z</time>
      </trkpt>
      <trkpt lat="47.50282" lon="6.74417">
        <ele>356</ele>
        <time>2015-10-11T09:40:21.000Z</time>
      </trkpt>
      <trkpt lat="47.50284" lon="6.74425">
        <ele>352</ele>
        <time>2015-10-11T09:40:22.000Z</time>
      </trkpt>
      <trkpt lat="47.50286" lon="6.74436">
        <ele>352</ele>
        <time>2015-10-11T09:40:23.000Z</time>
      </trkpt>
      <trkpt lat="47.50288" lon="6.74445">
        <ele>352</ele>
        <time>2015-10-11T09:40:24.000Z</time>
      </trkpt>
      <trkpt lat="47.50289" lon="6.74454">
        <ele>352</ele>
        <time>2015-10-11T09:40:25.000Z</time>
      </trkpt>
      <trkpt lat="47.50291" lon="6.74464">
        <ele>351</ele>
        <time>2015-10-11T09:40:26.000Z</time>
      </trkpt>
      <trkpt lat="47.50292" lon="6.74474">
        <ele>351</ele>
        <time>2015-10-11T09:40:27.000Z</time>
      </trkpt>
      <trkpt lat="47.50292" lon="6.74484">
        <ele>351</ele>
        <time>2015-10-11T09:40:28.000Z</time>
      </trkpt>
      <trkpt lat="47.50292" lon="6.74495">
        <ele>351</ele>
        <time>2015-10-11T09:40:29.000Z</time>
      </trkpt>
      <trkpt lat="47.50293" lon="6.74505">
        <ele>349</ele>
        <time>2015-10-11T09:40:30.000Z</time>
      </trkpt>
      <trkpt lat="47.50292" lon="6.74516">
        <ele>349</ele>
        <time>2015-10-11T09:40:31.000Z</time>
      </trkpt>
      <trkpt lat="47.50292" lon="6.74526">
        <ele>349</ele>
        <time>2015-10-11T09:40:32.000Z</time>
      </trkpt>
      <trkpt lat="47.50292" lon="6.74537">
        <ele>348</ele>
        <time>2015-10-11T09:40:33.000Z</time>
      </trkpt>
      <trkpt lat="47.50291" lon="6.74547">
        <ele>348</ele>
        <time>2015-10-11T09:40:34.000Z</time>
      </trkpt>
      <trkpt lat="47.50291" lon="6.74557">
        <ele>348</ele>
        <time>2015-10-11T09:40:35.000Z</time>
      </trkpt>
      <trkpt lat="47.50291" lon="6.74568">
        <ele>348</ele>
        <time>2015-10-11T09:40:36.000Z</time>
      </trkpt>
      <trkpt lat="47.50291" lon="6.74578">
        <ele>348</ele>
        <time>2015-10-11T09:40:37.000Z</time>
      </trkpt>
      <trkpt lat="47.50291" lon="6.74589">
        <ele>346</ele>
        <time>2015-10-11T09:40:38.000Z</time>
      </trkpt>
      <trkpt lat="47.50291" lon="6.74599">
        <ele>346</ele>
        <time>2015-10-11T09:40:39.000Z</time>
      </trkpt>
      <trkpt lat="47.50291" lon="6.7461">
        <ele>345</ele>
        <time>2015-10-11T09:40:40.000Z</time>
      </trkpt>
      <trkpt lat="47.50291" lon="6.74621">
        <ele>345</ele>
        <time>2015-10-11T09:40:41.000Z</time>
      </trkpt>
      <trkpt lat="47.50291" lon="6.74631">
        <ele>345</ele>
        <time>2015-10-11T09:40:42.000Z</time>
      </trkpt>
      <trkpt lat="47.50291" lon="6.74642">
        <ele>345</ele>
        <time>2015-10-11T09:40:43.000Z</time>
      </trkpt>
      <trkpt lat="47.50291" lon="6.74652">
        <ele>345</ele>
        <time>2015-10-11T09:40:44.000Z</time>
      </trkpt>
      <trkpt lat="47.50291" lon="6.74663">
        <ele>345</ele>
        <time>2015-10-11T09:40:45.000Z</time>
      </trkpt>
      <trkpt lat="47.5029" lon="6.74673">
        <ele>343</ele>
        <time>2015-10-11T09:40:46.000Z</time>
      </trkpt>
      <trkpt lat="47.5029" lon="6.74684">
        <ele>343</ele>
        <time>2015-10-11T09:40:47.000Z</time>
      </trkpt>
      <trkpt lat="47.5029" lon="6.74694">
        <ele>343</ele>
        <time>2015-10-11T09:40:48.000Z</time>
      </trkpt>
      <trkpt lat="47.50288" lon="6.74704">
        <ele>343</ele>
        <time>2015-10-11T09:40:49.000Z</time>
      </trkpt>
      <trkpt lat="47.50287" lon="6.74714">
        <ele>343</ele>
        <time>2015-10-11T09:40:50.000Z</time>
      </trkpt>
      <trkpt lat="47.50286" lon="6.74725">
        <ele>342</ele>
        <time>2015-10-11T09:40:51.000Z</time>
      </trkpt>
      <trkpt lat="47.50284" lon="6.74735">
        <ele>342</ele>
        <time>2015-10-11T09:40:52.000Z</time>
      </trkpt>
      <trkpt lat="47.50282" lon="6.74745">
        <ele>342</ele>
        <time>2015-10-11T09:40:53.000Z</time>
      </trkpt>
      <trkpt lat="47.5028" lon="6.74756">
        <ele>341</ele>
        <time>2015-10-11T09:40:54.000Z</time>
      </trkpt>
      <trkpt lat="47.50278" lon="6.74766">
        <ele>341</ele>
        <time>2015-10-11T09:40:55.000Z</time>
      </trkpt>
      <trkpt lat="47.50275" lon="6.74776">
        <ele>341</ele>
        <time>2015-10-11T09:40:56.000Z</time>
      </trkpt>
      <trkpt lat="47.50272" lon="6.74786">
        <ele>341</ele>
        <time>2015-10-11T09:40:57.000Z</time>
      </trkpt>
      <trkpt lat="47.50269" lon="6.74797">
        <ele>340</ele>
        <time>2015-10-11T09:40:58.000Z</time>
      </trkpt>
      <trkpt lat="47.50266" lon="6.74807">
        <ele>340</ele>
        <time>2015-10-11T09:40:59.000Z</time>
      </trkpt>
      <trkpt lat="47.50265" lon="6.74817">
        <ele>339</ele>
        <time>2015-10-11T09:41:00.000Z</time>
      </trkpt>
      <trkpt lat="47.50262" lon="6.74827">
        <ele>338</ele>
        <time>2015-10-11T09:41:01.000Z</time>
      </trkpt>
      <trkpt lat="47.50259" lon="6.74837">
        <ele>338</ele>
        <time>2015-10-11T09:41:02.000Z</time>
      </trkpt>
      <trkpt lat="47.50256" lon="6.74847">
        <ele>338</ele>
        <time>2015-10-11T09:41:03.000Z</time>
      </trkpt>
      <trkpt lat="47.50253" lon="6.74858">
        <ele>339</ele>
        <time>2015-10-11T09:41:04.000Z</time>
      </trkpt>
      <trkpt lat="47.5025" lon="6.74868">
        <ele>339</ele>
        <time>2015-10-11T09:41:05.000Z</time>
      </trkpt>
      <trkpt lat="47.50247" lon="6.74878">
        <ele>336</ele>
        <time>2015-10-11T09:41:06.000Z</time>
      </trkpt>
      <trkpt lat="47.50246" lon="6.74889">
        <ele>336</ele>
        <time>2015-10-11T09:41:07.000Z</time>
      </trkpt>
      <trkpt lat="47.50245" lon="6.749">
        <ele>336</ele>
        <time>2015-10-11T09:41:08.000Z</time>
      </trkpt>
      <trkpt lat="47.50243" lon="6.7491">
        <ele>336</ele>
        <time>2015-10-11T09:41:09.000Z</time>
      </trkpt>
      <trkpt lat="47.50242" lon="6.7492">
        <ele>336</ele>
        <time>2015-10-11T09:41:10.000Z</time>
      </trkpt>
      <trkpt lat="47.5024" lon="6.7493">
        <ele>336</ele>
        <time>2015-10-11T09:41:11.000Z</time>
      </trkpt>
      <trkpt lat="47.50236" lon="6.7494">
        <ele>336</ele>
        <time>2015-10-11T09:41:12.000Z</time>
      </trkpt>
      <trkpt lat="47.50231" lon="6.74948">
        <ele>336</ele>
        <time>2015-10-11T09:41:13.000Z</time>
      </trkpt>
      <trkpt lat="47.50225" lon="6.74956">
        <ele>336</ele>
        <time>2015-10-11T09:41:14.000Z</time>
      </trkpt>
      <trkpt lat="47.50219" lon="6.74963">
        <ele>336</ele>
        <time>2015-10-11T09:41:15.000Z</time>
      </trkpt>
      <trkpt lat="47.50214" lon="6.7497">
        <ele>336</ele>
        <time>2015-10-11T09:41:16.000Z</time>
      </trkpt>
      <trkpt lat="47.50209" lon="6.74977">
        <ele>336</ele>
        <time>2015-10-11T09:41:17.000Z</time>
      </trkpt>
      <trkpt lat="47.50204" lon="6.74985">
        <ele>335</ele>
        <time>2015-10-11T09:41:18.000Z</time>
      </trkpt>
      <trkpt lat="47.50201" lon="6.74994">
        <ele>335</ele>
        <time>2015-10-11T09:41:19.000Z</time>
      </trkpt>
      <trkpt lat="47.502" lon="6.75003">
        <ele>334</ele>
        <time>2015-10-11T09:41:20.000Z</time>
      </trkpt>
      <trkpt lat="47.50198" lon="6.75013">
        <ele>334</ele>
        <time>2015-10-11T09:41:21.000Z</time>
      </trkpt>
      <trkpt lat="47.50196" lon="6.75023">
        <ele>334</ele>
        <time>2015-10-11T09:41:22.000Z</time>
      </trkpt>
      <trkpt lat="47.50196" lon="6.75034">
        <ele>333</ele>
        <time>2015-10-11T09:41:23.000Z</time>
      </trkpt>
      <trkpt lat="47.50194" lon="6.75044">
        <ele>333</ele>
        <time>2015-10-11T09:41:24.000Z</time>
      </trkpt>
      <trkpt lat="47.50193" lon="6.75055">
        <ele>333</ele>
        <time>2015-10-11T09:41:25.000Z</time>
      </trkpt>
      <trkpt lat="47.50193" lon="6.75065">
        <ele>332</ele>
        <time>2015-10-11T09:41:26.000Z</time>
      </trkpt>
      <trkpt lat="47.50192" lon="6.75076">
        <ele>332</ele>
        <time>2015-10-11T09:41:27.000Z</time>
      </trkpt>
      <trkpt lat="47.50191" lon="6.75087">
        <ele>329</ele>
        <time>2015-10-11T09:41:28.000Z</time>
      </trkpt>
      <trkpt lat="47.5019" lon="6.75097">
        <ele>329</ele>
        <time>2015-10-11T09:41:29.000Z</time>
      </trkpt>
      <trkpt lat="47.50188" lon="6.75107">
        <ele>329</ele>
        <time>2015-10-11T09:41:30.000Z</time>
      </trkpt>
      <trkpt lat="47.50183" lon="6.75118">
        <ele>329</ele>
        <time>2015-10-11T09:41:31.000Z</time>
      </trkpt>
      <trkpt lat="47.50178" lon="6.75126">
        <ele>328</ele>
        <time>2015-10-11T09:41:32.000Z</time>
      </trkpt>
      <trkpt lat="47.50171" lon="6.75132">
        <ele>328</ele>
        <time>2015-10-11T09:41:33.000Z</time>
      </trkpt>
      <trkpt lat="47.50165" lon="6.75137">
        <ele>326</ele>
        <time>2015-10-11T09:41:34.000Z</time>
      </trkpt>
      <trkpt lat="47.5016" lon="6.75142">
        <ele>326</ele>
        <time>2015-10-11T09:41:35.000Z</time>
      </trkpt>
      <trkpt lat="47.50154" lon="6.75148">
        <ele>325</ele>
        <time>2015-10-11T09:41:36.000Z</time>
      </trkpt>
      <trkpt lat="47.50148" lon="6.75152">
        <ele>325</ele>
        <time>2015-10-11T09:41:37.000Z</time>
      </trkpt>
      <trkpt lat="47.50143" lon="6.75157">
        <ele>325</ele>
        <time>2015-10-11T09:41:38.000Z</time>
      </trkpt>
      <trkpt lat="47.50137" lon="6.75162">
        <ele>325</ele>
        <time>2015-10-11T09:41:39.000Z</time>
      </trkpt>
      <trkpt lat="47.50131" lon="6.75167">
        <ele>323</ele>
        <time>2015-10-11T09:41:40.000Z</time>
      </trkpt>
      <trkpt lat="47.50125" lon="6.75172">
        <ele>323</ele>
        <time>2015-10-11T09:41:41.000Z</time>
      </trkpt>
      <trkpt lat="47.50119" lon="6.75177">
        <ele>323</ele>
        <time>2015-10-11T09:41:42.000Z</time>
      </trkpt>
      <trkpt lat="47.50113" lon="6.75181">
        <ele>323</ele>
        <time>2015-10-11T09:41:43.000Z</time>
      </trkpt>
      <trkpt lat="47.50107" lon="6.75184">
        <ele>323</ele>
        <time>2015-10-11T09:41:44.000Z</time>
      </trkpt>
      <trkpt lat="47.501" lon="6.75188">
        <ele>323</ele>
        <time>2015-10-11T09:41:45.000Z</time>
      </trkpt>
      <trkpt lat="47.50093" lon="6.75191">
        <ele>323</ele>
        <time>2015-10-11T09:41:46.000Z</time>
      </trkpt>
      <trkpt lat="47.50086" lon="6.75194">
        <ele>323</ele>
        <time>2015-10-11T09:41:47.000Z</time>
      </trkpt>
      <trkpt lat="47.50079" lon="6.75196">
        <ele>323</ele>
        <time>2015-10-11T09:41:48.000Z</time>
      </trkpt>
      <trkpt lat="47.50072" lon="6.75198">
        <ele>322</ele>
        <time>2015-10-11T09:41:49.000Z</time>
      </trkpt>
      <trkpt lat="47.50065" lon="6.75199">
        <ele>322</ele>
        <time>2015-10-11T09:41:50.000Z</time>
      </trkpt>
      <trkpt lat="47.50058" lon="6.752">
        <ele>322</ele>
        <time>2015-10-11T09:41:51.000Z</time>
      </trkpt>
      <trkpt lat="47.5005" lon="6.75201">
        <ele>322</ele>
        <time>2015-10-11T09:41:52.000Z</time>
      </trkpt>
      <trkpt lat="47.50043" lon="6.75203">
        <ele>322</ele>
        <time>2015-10-11T09:41:53.000Z</time>
      </trkpt>
      <trkpt lat="47.50036" lon="6.75206">
        <ele>322</ele>
        <time>2015-10-11T09:41:54.000Z</time>
      </trkpt>
      <trkpt lat="47.5003" lon="6.75211">
        <ele>322</ele>
        <time>2015-10-11T09:41:55.000Z</time>
      </trkpt>
      <trkpt lat="47.50024" lon="6.75217">
        <ele>322</ele>
        <time>2015-10-11T09:41:56.000Z</time>
      </trkpt>
      <trkpt lat="47.50019" lon="6.75224">
        <ele>322</ele>
        <time>2015-10-11T09:41:57.000Z</time>
      </trkpt>
      <trkpt lat="47.50015" lon="6.75232">
        <ele>322</ele>
        <time>2015-10-11T09:41:58.000Z</time>
      </trkpt>
      <trkpt lat="47.50012" lon="6.75241">
        <ele>322</ele>
        <time>2015-10-11T09:41:59.000Z</time>
      </trkpt>
      <trkpt lat="47.50009" lon="6.7525">
        <ele>321</ele>
        <time>2015-10-11T09:42:00.000Z</time>
      </trkpt>
      <trkpt lat="47.50008" lon="6.75259">
        <ele>321</ele>
        <time>2015-10-11T09:42:01.000Z</time>
      </trkpt>
      <trkpt lat="47.50008" lon="6.75268">
        <ele>322</ele>
        <time>2015-10-11T09:42:02.000Z</time>
      </trkpt>
      <trkpt lat="47.50008" lon="6.75277">
        <ele>322</ele>
        <time>2015-10-11T09:42:03.000Z</time>
      </trkpt>
      <trkpt lat="47.50009" lon="6.75286">
        <ele>322</ele>
        <time>2015-10-11T09:42:04.000Z</time>
      </trkpt>
      <trkpt lat="47.50009" lon="6.75294">
        <ele>322</ele>
        <time>2015-10-11T09:42:05.000Z</time>
      </trkpt>
      <trkpt lat="47.5001" lon="6.75303">
        <ele>322</ele>
        <time>2015-10-11T09:42:06.000Z</time>
      </trkpt>
      <trkpt lat="47.50011" lon="6.75311">
        <ele>323</ele>
        <time>2015-10-11T09:42:07.000Z</time>
      </trkpt>
      <trkpt lat="47.50012" lon="6.75319">
        <ele>323</ele>
        <time>2015-10-11T09:42:08.000Z</time>
      </trkpt>
      <trkpt lat="47.50012" lon="6.75327">
        <ele>323</ele>
        <time>2015-10-11T09:42:09.000Z</time>
      </trkpt>
      <trkpt lat="47.50012" lon="6.75334">
        <ele>325</ele>
        <time>2015-10-11T09:42:10.000Z</time>
      </trkpt>
      <trkpt lat="47.50012" lon="6.75341">
        <ele>325</ele>
        <time>2015-10-11T09:42:11.000Z</time>
      </trkpt>
      <trkpt lat="47.50012" lon="6.75348">
        <ele>326</ele>
        <time>2015-10-11T09:42:12.000Z</time>
      </trkpt>
      <trkpt lat="47.50011" lon="6.75355">
        <ele>327</ele>
        <time>2015-10-11T09:42:13.000Z</time>
      </trkpt>
      <trkpt lat="47.5001" lon="6.75361">
        <ele>327</ele>
        <time>2015-10-11T09:42:14.000Z</time>
      </trkpt>
      <trkpt lat="47.50009" lon="6.75367">
        <ele>328</ele>
        <time>2015-10-11T09:42:15.000Z</time>
      </trkpt>
      <trkpt lat="47.50007" lon="6.75373">
        <ele>328</ele>
        <time>2015-10-11T09:42:16.000Z</time>
      </trkpt>
      <trkpt lat="47.50006" lon="6.75378">
        <ele>328</ele>
        <time>2015-10-11T09:42:17.000Z</time>
      </trkpt>
      <trkpt lat="47.50004" lon="6.75382">
        <ele>329</ele>
        <time>2015-10-11T09:42:18.000Z</time>
      </trkpt>
      <trkpt lat="47.50001" lon="6.75386">
        <ele>329</ele>
        <time>2015-10-11T09:42:19.000Z</time>
      </trkpt>
      <trkpt lat="47.49998" lon="6.75391">
        <ele>327</ele>
        <time>2015-10-11T09:42:20.000Z</time>
      </trkpt>
      <trkpt lat="47.49996" lon="6.75395">
        <ele>328</ele>
        <time>2015-10-11T09:42:21.000Z</time>
      </trkpt>
      <trkpt lat="47.49993" lon="6.75399">
        <ele>328</ele>
        <time>2015-10-11T09:42:22.000Z</time>
      </trkpt>
      <trkpt lat="47.49991" lon="6.75404">
        <ele>329</ele>
        <time>2015-10-11T09:42:23.000Z</time>
      </trkpt>
      <trkpt lat="47.4999" lon="6.75408">
        <ele>329</ele>
        <time>2015-10-11T09:42:24.000Z</time>
      </trkpt>
      <trkpt lat="47.4999" lon="6.75413">
        <ele>329</ele>
        <time>2015-10-11T09:42:25.000Z</time>
      </trkpt>
      <trkpt lat="47.4999" lon="6.75418">
        <ele>333</ele>
        <time>2015-10-11T09:42:26.000Z</time>
      </trkpt>
      <trkpt lat="47.4999" lon="6.75423">
        <ele>333</ele>
        <time>2015-10-11T09:42:27.000Z</time>
      </trkpt>
      <trkpt lat="47.49991" lon="6.75427">
        <ele>334</ele>
        <time>2015-10-11T09:42:28.000Z</time>
      </trkpt>
      <trkpt lat="47.49992" lon="6.75431">
        <ele>334</ele>
        <time>2015-10-11T09:42:29.000Z</time>
      </trkpt>
      <trkpt lat="47.49994" lon="6.75434">
        <ele>334</ele>
        <time>2015-10-11T09:42:30.000Z</time>
      </trkpt>
      <trkpt lat="47.49995" lon="6.75436">
        <ele>335</ele>
        <time>2015-10-11T09:42:31.000Z</time>
      </trkpt>
      <trkpt lat="47.49998" lon="6.75442">
        <ele>335</ele>
        <time>2015-10-11T09:42:33.000Z</time>
      </trkpt>
      <trkpt lat="47.49999" lon="6.75444">
        <ele>336</ele>
        <time>2015-10-11T09:42:34.000Z</time>
      </trkpt>
      <trkpt lat="47.5" lon="6.75447">
        <ele>336</ele>
        <time>2015-10-11T09:42:35.000Z</time>
      </trkpt>
      <trkpt lat="47.50001" lon="6.7545">
        <ele>337</ele>
        <time>2015-10-11T09:42:36.000Z</time>
      </trkpt>
      <trkpt lat="47.50005" lon="6.75454">
        <ele>337</ele>
        <time>2015-10-11T09:42:38.000Z</time>
      </trkpt>
      <trkpt lat="47.50006" lon="6.75457">
        <ele>338</ele>
        <time>2015-10-11T09:42:39.000Z</time>
      </trkpt>
      <trkpt lat="47.50008" lon="6.75462">
        <ele>338</ele>
        <time>2015-10-11T09:42:41.000Z</time>
      </trkpt>
      <trkpt lat="47.50009" lon="6.75464">
        <ele>338</ele>
        <time>2015-10-11T09:42:42.000Z</time>
      </trkpt>
      <trkpt lat="47.50011" lon="6.75469">
        <ele>339</ele>
        <time>2015-10-11T09:42:44.000Z</time>
      </trkpt>
      <trkpt lat="47.50012" lon="6.75471">
        <ele>339</ele>
        <time>2015-10-11T09:42:45.000Z</time>
      </trkpt>
      <trkpt lat="47.50014" lon="6.75475">
        <ele>339</ele>
        <time>2015-10-11T09:42:47.000Z</time>
      </trkpt>
      <trkpt lat="47.50015" lon="6.75478">
        <ele>340</ele>
        <time>2015-10-11T09:42:48.000Z</time>
      </trkpt>
      <trkpt lat="47.50016" lon="6.75484">
        <ele>340</ele>
        <time>2015-10-11T09:42:50.000Z</time>
      </trkpt>
      <trkpt lat="47.50016" lon="6.75487">
        <ele>340</ele>
        <time>2015-10-11T09:42:51.000Z</time>
      </trkpt>
      <trkpt lat="47.50017" lon="6.75493">
        <ele>341</ele>
        <time>2015-10-11T09:42:53.000Z</time>
      </trkpt>
      <trkpt lat="47.50017" lon="6.75496">
        <ele>341</ele>
        <time>2015-10-11T09:42:54.000Z</time>
      </trkpt>
      <trkpt lat="47.50018" lon="6.75501">
        <ele>345</ele>
        <time>2015-10-11T09:42:56.000Z</time>
      </trkpt>
      <trkpt lat="47.50019" lon="6.75504">
        <ele>345</ele>
        <time>2015-10-11T09:42:57.000Z</time>
      </trkpt>
      <trkpt lat="47.5002" lon="6.75509">
        <ele>345</ele>
        <time>2015-10-11T09:42:59.000Z</time>
      </trkpt>
      <trkpt lat="47.5002" lon="6.75511">
        <ele>345</ele>
        <time>2015-10-11T09:43:00.000Z</time>
      </trkpt>
      <trkpt lat="47.50021" lon="6.75517">
        <ele>345</ele>
        <time>2015-10-11T09:43:02.000Z</time>
      </trkpt>
      <trkpt lat="47.50021" lon="6.7552">
        <ele>345</ele>
        <time>2015-10-11T09:43:03.000Z</time>
      </trkpt>
      <trkpt lat="47.50022" lon="6.75525">
        <ele>345</ele>
        <time>2015-10-11T09:43:05.000Z</time>
      </trkpt>
      <trkpt lat="47.50023" lon="6.75528">
        <ele>345</ele>
        <time>2015-10-11T09:43:06.000Z</time>
      </trkpt>
      <trkpt lat="47.50024" lon="6.75533">
        <ele>345</ele>
        <time>2015-10-11T09:43:08.000Z</time>
      </trkpt>
      <trkpt lat="47.50025" lon="6.75535">
        <ele>346</ele>
        <time>2015-10-11T09:43:09.000Z</time>
      </trkpt>
      <trkpt lat="47.50027" lon="6.75541">
        <ele>346</ele>
        <time>2015-10-11T09:43:11.000Z</time>
      </trkpt>
      <trkpt lat="47.50028" lon="6.75543">
        <ele>346</ele>
        <time>2015-10-11T09:43:12.000Z</time>
      </trkpt>
      <trkpt lat="47.50028" lon="6.75549">
        <ele>346</ele>
        <time>2015-10-11T09:43:14.000Z</time>
      </trkpt>
      <trkpt lat="47.50029" lon="6.75552">
        <ele>346</ele>
        <time>2015-10-11T09:43:15.000Z</time>
      </trkpt>
      <trkpt lat="47.50032" lon="6.75557">
        <ele>346</ele>
        <time>2015-10-11T09:43:17.000Z</time>
      </trkpt>
      <trkpt lat="47.50033" lon="6.7556">
        <ele>346</ele>
        <time>2015-10-11T09:43:18.000Z</time>
      </trkpt>
      <trkpt lat="47.50035" lon="6.75565">
        <ele>346</ele>
        <time>2015-10-11T09:43:20.000Z</time>
      </trkpt>
      <trkpt lat="47.50036" lon="6.75568">
        <ele>346</ele>
        <time>2015-10-11T09:43:21.000Z</time>
      </trkpt>
      <trkpt lat="47.50038" lon="6.75574">
        <ele>346</ele>
        <time>2015-10-11T09:43:23.000Z</time>
      </trkpt>
      <trkpt lat="47.50039" lon="6.75577">
        <ele>346</ele>
        <time>2015-10-11T09:43:24.000Z</time>
      </trkpt>
      <trkpt lat="47.50041" lon="6.75582">
        <ele>346</ele>
        <time>2015-10-11T09:43:26.000Z</time>
      </trkpt>
      <trkpt lat="47.50042" lon="6.75585">
        <ele>352</ele>
        <time>2015-10-11T09:43:27.000Z</time>
      </trkpt>
      <trkpt lat="47.50043" lon="6.7559">
        <ele>352</ele>
        <time>2015-10-11T09:43:29.000Z</time>
      </trkpt>
      <trkpt lat="47.50044" lon="6.75592">
        <ele>352</ele>
        <time>2015-10-11T09:43:30.000Z</time>
      </trkpt>
      <trkpt lat="47.50046" lon="6.75597">
        <ele>352</ele>
        <time>2015-10-11T09:43:32.000Z</time>
      </trkpt>
      <trkpt lat="47.50047" lon="6.756">
        <ele>352</ele>
        <time>2015-10-11T09:43:33.000Z</time>
      </trkpt>
      <trkpt lat="47.50049" lon="6.75605">
        <ele>352</ele>
        <time>2015-10-11T09:43:35.000Z</time>
      </trkpt>
      <trkpt lat="47.5005" lon="6.75608">
        <ele>352</ele>
        <time>2015-10-11T09:43:36.000Z</time>
      </trkpt>
      <trkpt lat="47.50052" lon="6.75614">
        <ele>352</ele>
        <time>2015-10-11T09:43:38.000Z</time>
      </trkpt>
      <trkpt lat="47.50053" lon="6.75616">
        <ele>353</ele>
        <time>2015-10-11T09:43:39.000Z</time>
      </trkpt>
      <trkpt lat="47.50055" lon="6.75621">
        <ele>353</ele>
        <time>2015-10-11T09:43:41.000Z</time>
      </trkpt>
      <trkpt lat="47.50056" lon="6.75623">
        <ele>353</ele>
        <time>2015-10-11T09:43:42.000Z</time>
      </trkpt>
      <trkpt lat="47.50058" lon="6.75628">
        <ele>353</ele>
        <time>2015-10-11T09:43:44.000Z</time>
      </trkpt>
      <trkpt lat="47.50059" lon="6.75631">
        <ele>353</ele>
        <time>2015-10-11T09:43:45.000Z</time>
      </trkpt>
      <trkpt lat="47.50061" lon="6.75636">
        <ele>353</ele>
        <time>2015-10-11T09:43:47.000Z</time>
      </trkpt>
      <trkpt lat="47.50062" lon="6.75638">
        <ele>353</ele>
        <time>2015-10-11T09:43:48.000Z</time>
      </trkpt>
      <trkpt lat="47.50065" lon="6.75642">
        <ele>354</ele>
        <time>2015-10-11T09:43:50.000Z</time>
      </trkpt>
      <trkpt lat="47.50066" lon="6.75644">
        <ele>354</ele>
        <time>2015-10-11T09:43:51.000Z</time>
      </trkpt>
      <trkpt lat="47.50067" lon="6.75648">
        <ele>354</ele>
        <time>2015-10-11T09:43:53.000Z</time>
      </trkpt>
      <trkpt lat="47.50068" lon="6.7565">
        <ele>354</ele>
        <time>2015-10-11T09:43:54.000Z</time>
      </trkpt>
      <trkpt lat="47.5007" lon="6.75653">
        <ele>354</ele>
        <time>2015-10-11T09:43:56.000Z</time>
      </trkpt>
      <trkpt lat="47.50071" lon="6.75655">
        <ele>354</ele>
        <time>2015-10-11T09:43:57.000Z</time>
      </trkpt>
      <trkpt lat="47.50073" lon="6.75658">
        <ele>354</ele>
        <time>2015-10-11T09:43:59.000Z</time>
      </trkpt>
      <trkpt lat="47.50074" lon="6.7566">
        <ele>353</ele>
        <time>2015-10-11T09:44:00.000Z</time>
      </trkpt>
      <trkpt lat="47.50077" lon="6.75664">
        <ele>353</ele>
        <time>2015-10-11T09:44:02.000Z</time>
      </trkpt>
      <trkpt lat="47.50078" lon="6.75665">
        <ele>353</ele>
        <time>2015-10-11T09:44:03.000Z</time>
      </trkpt>
      <trkpt lat="47.50081" lon="6.75669">
        <ele>355</ele>
        <time>2015-10-11T09:44:05.000Z</time>
      </trkpt>
      <trkpt lat="47.50082" lon="6.75671">
        <ele>355</ele>
        <time>2015-10-11T09:44:06.000Z</time>
      </trkpt>
      <trkpt lat="47.50085" lon="6.75676">
        <ele>355</ele>
        <time>2015-10-11T09:44:08.000Z</time>
      </trkpt>
      <trkpt lat="47.50086" lon="6.75678">
        <ele>356</ele>
        <time>2015-10-11T09:44:09.000Z</time>
      </trkpt>
      <trkpt lat="47.50089" lon="6.75681">
        <ele>356</ele>
        <time>2015-10-11T09:44:11.000Z</time>
      </trkpt>
      <trkpt lat="47.50091" lon="6.75683">
        <ele>357</ele>
        <time>2015-10-11T09:44:12.000Z</time>
      </trkpt>
      <trkpt lat="47.50093" lon="6.75687">
        <ele>357</ele>
        <time>2015-10-11T09:44:14.000Z</time>
      </trkpt>
      <trkpt lat="47.50095" lon="6.75689">
        <ele>357</ele>
        <time>2015-10-11T09:44:15.000Z</time>
      </trkpt>
      <trkpt lat="47.50098" lon="6.75691">
        <ele>358</ele>
        <time>2015-10-11T09:44:17.000Z</time>
      </trkpt>
      <trkpt lat="47.50099" lon="6.75693">
        <ele>358</ele>
        <time>2015-10-11T09:44:18.000Z</time>
      </trkpt>
      <trkpt lat="47.50102" lon="6.75697">
        <ele>358</ele>
        <time>2015-10-11T09:44:20.000Z</time>
      </trkpt>
      <trkpt lat="47.50103" lon="6.757">
        <ele>359</ele>
        <time>2015-10-11T09:44:21.000Z</time>
      </trkpt>
      <trkpt lat="47.50105" lon="6.75704">
        <ele>359</ele>
        <time>2015-10-11T09:44:23.000Z</time>
      </trkpt>
      <trkpt lat="47.50106" lon="6.75705">
        <ele>359</ele>
        <time>2015-10-11T09:44:24.000Z</time>
      </trkpt>
      <trkpt lat="47.50108" lon="6.75708">
        <ele>359</ele>
        <time>2015-10-11T09:44:26.000Z</time>
      </trkpt>
      <trkpt lat="47.50109" lon="6.75709">
        <ele>359</ele>
        <time>2015-10-11T09:44:27.000Z</time>
      </trkpt>
      <trkpt lat="47.50112" lon="6.75712">
        <ele>360</ele>
        <time>2015-10-11T09:44:29.000Z</time>
      </trkpt>
      <trkpt lat="47.50112" lon="6.75714">
        <ele>360</ele>
        <time>2015-10-11T09:44:30.000Z</time>
      </trkpt>
      <trkpt lat="47.50114" lon="6.75718">
        <ele>360</ele>
        <time>2015-10-11T09:44:32.000Z</time>
      </trkpt>
      <trkpt lat="47.50116" lon="6.7572">
        <ele>360</ele>
        <time>2015-10-11T09:44:33.000Z</time>
      </trkpt>
      <trkpt lat="47.50119" lon="6.75723">
        <ele>360</ele>
        <time>2015-10-11T09:44:35.000Z</time>
      </trkpt>
      <trkpt lat="47.5012" lon="6.75725">
        <ele>360</ele>
        <time>2015-10-11T09:44:36.000Z</time>
      </trkpt>
      <trkpt lat="47.50122" lon="6.7573">
        <ele>360</ele>
        <time>2015-10-11T09:44:38.000Z</time>
      </trkpt>
      <trkpt lat="47.50124" lon="6.75732">
        <ele>360</ele>
        <time>2015-10-11T09:44:39.000Z</time>
      </trkpt>
      <trkpt lat="47.50126" lon="6.75735">
        <ele>360</ele>
        <time>2015-10-11T09:44:40.000Z</time>
      </trkpt>
      <trkpt lat="47.50127" lon="6.75737">
        <ele>360</ele>
        <time>2015-10-11T09:44:41.000Z</time>
      </trkpt>
      <trkpt lat="47.50129" lon="6.75739">
        <ele>360</ele>
        <time>2015-10-11T09:44:42.000Z</time>
      </trkpt>
      <trkpt lat="47.50132" lon="6.75741">
        <ele>360</ele>
        <time>2015-10-11T09:44:43.000Z</time>
      </trkpt>
      <trkpt lat="47.50134" lon="6.75743">
        <ele>360</ele>
        <time>2015-10-11T09:44:44.000Z</time>
      </trkpt>
      <trkpt lat="47.50135" lon="6.75746">
        <ele>360</ele>
        <time>2015-10-11T09:44:45.000Z</time>
      </trkpt>
      <trkpt lat="47.50138" lon="6.7575">
        <ele>360</ele>
        <time>2015-10-11T09:44:47.000Z</time>
      </trkpt>
      <trkpt lat="47.5014" lon="6.75751">
        <ele>362</ele>
        <time>2015-10-11T09:44:48.000Z</time>
      </trkpt>
      <trkpt lat="47.50143" lon="6.75755">
        <ele>362</ele>
        <time>2015-10-11T09:44:50.000Z</time>
      </trkpt>
      <trkpt lat="47.50144" lon="6.75756">
        <ele>362</ele>
        <time>2015-10-11T09:44:51.000Z</time>
      </trkpt>
      <trkpt lat="47.50148" lon="6.75759">
        <ele>361</ele>
        <time>2015-10-11T09:44:53.000Z</time>
      </trkpt>
      <trkpt lat="47.5015" lon="6.7576">
        <ele>361</ele>
        <time>2015-10-11T09:44:54.000Z</time>
      </trkpt>
      <trkpt lat="47.50152" lon="6.75764">
        <ele>361</ele>
        <time>2015-10-11T09:44:56.000Z</time>
      </trkpt>
      <trkpt lat="47.50154" lon="6.75766">
        <ele>361</ele>
        <time>2015-10-11T09:44:57.000Z</time>
      </trkpt>
      <trkpt lat="47.50157" lon="6.7577">
        <ele>361</ele>
        <time>2015-10-11T09:44:59.000Z</time>
      </trkpt>
      <trkpt lat="47.50159" lon="6.75772">
        <ele>361</ele>
        <time>2015-10-11T09:45:00.000Z</time>
      </trkpt>
      <trkpt lat="47.50162" lon="6.75775">
        <ele>362</ele>
        <time>2015-10-11T09:45:02.000Z</time>
      </trkpt>
      <trkpt lat="47.50163" lon="6.75778">
        <ele>362</ele>
        <time>2015-10-11T09:45:03.000Z</time>
      </trkpt>
      <trkpt lat="47.50166" lon="6.75782">
        <ele>362</ele>
        <time>2015-10-11T09:45:05.000Z</time>
      </trkpt>
      <trkpt lat="47.50167" lon="6.75785">
        <ele>362</ele>
        <time>2015-10-11T09:45:06.000Z</time>
      </trkpt>
      <trkpt lat="47.5017" lon="6.75788">
        <ele>362</ele>
        <time>2015-10-11T09:45:08.000Z</time>
      </trkpt>
      <trkpt lat="47.50171" lon="6.7579">
        <ele>362</ele>
        <time>2015-10-11T09:45:09.000Z</time>
      </trkpt>
      <trkpt lat="47.50173" lon="6.75795">
        <ele>362</ele>
        <time>2015-10-11T09:45:11.000Z</time>
      </trkpt>
      <trkpt lat="47.50175" lon="6.75798">
        <ele>362</ele>
        <time>2015-10-11T09:45:12.000Z</time>
      </trkpt>
      <trkpt lat="47.50177" lon="6.75803">
        <ele>362</ele>
        <time>2015-10-11T09:45:14.000Z</time>
      </trkpt>
      <trkpt lat="47.50178" lon="6.75805">
        <ele>362</ele>
        <time>2015-10-11T09:45:15.000Z</time>
      </trkpt>
      <trkpt lat="47.50179" lon="6.75808">
        <ele>362</ele>
        <time>2015-10-11T09:45:16.000Z</time>
      </trkpt>
      <trkpt lat="47.50181" lon="6.75811">
        <ele>362</ele>
        <time>2015-10-11T09:45:17.000Z</time>
      </trkpt>
      <trkpt lat="47.50182" lon="6.75814">
        <ele>362</ele>
        <time>2015-10-11T09:45:18.000Z</time>
      </trkpt>
      <trkpt lat="47.50183" lon="6.75816">
        <ele>362</ele>
        <time>2015-10-11T09:45:19.000Z</time>
      </trkpt>
      <trkpt lat="47.50186" lon="6.75822">
        <ele>362</ele>
        <time>2015-10-11T09:45:21.000Z</time>
      </trkpt>
      <trkpt lat="47.50187" lon="6.75824">
        <ele>362</ele>
        <time>2015-10-11T09:45:22.000Z</time>
      </trkpt>
      <trkpt lat="47.50189" lon="6.75829">
        <ele>362</ele>
        <time>2015-10-11T09:45:24.000Z</time>
      </trkpt>
      <trkpt lat="47.5019" lon="6.75832">
        <ele>363</ele>
        <time>2015-10-11T09:45:25.000Z</time>
      </trkpt>
      <trkpt lat="47.50193" lon="6.75837">
        <ele>363</ele>
        <time>2015-10-11T09:45:27.000Z</time>
      </trkpt>
      <trkpt lat="47.50194" lon="6.75839">
        <ele>364</ele>
        <time>2015-10-11T09:45:28.000Z</time>
      </trkpt>
      <trkpt lat="47.50196" lon="6.75844">
        <ele>364</ele>
        <time>2015-10-11T09:45:30.000Z</time>
      </trkpt>
      <trkpt lat="47.50197" lon="6.75847">
        <ele>364</ele>
        <time>2015-10-11T09:45:31.000Z</time>
      </trkpt>
      <trkpt lat="47.50199" lon="6.75852">
        <ele>364</ele>
        <time>2015-10-11T09:45:33.000Z</time>
      </trkpt>
      <trkpt lat="47.502" lon="6.75854">
        <ele>365</ele>
        <time>2015-10-11T09:45:34.000Z</time>
      </trkpt>
      <trkpt lat="47.50203" lon="6.75859">
        <ele>365</ele>
        <time>2015-10-11T09:45:36.000Z</time>
      </trkpt>
      <trkpt lat="47.50204" lon="6.75862">
        <ele>365</ele>
        <time>2015-10-11T09:45:37.000Z</time>
      </trkpt>
      <trkpt lat="47.50206" lon="6.75867">
        <ele>365</ele>
        <time>2015-10-11T09:45:39.000Z</time>
      </trkpt>
      <trkpt lat="47.50207" lon="6.7587">
        <ele>365</ele>
        <time>2015-10-11T09:45:40.000Z</time>
      </trkpt>
      <trkpt lat="47.5021" lon="6.75875">
        <ele>365</ele>
        <time>2015-10-11T09:45:42.000Z</time>
      </trkpt>
      <trkpt lat="47.50211" lon="6.75877">
        <ele>365</ele>
        <time>2015-10-11T09:45:43.000Z</time>
      </trkpt>
      <trkpt lat="47.50213" lon="6.75882">
        <ele>365</ele>
        <time>2015-10-11T09:45:45.000Z</time>
      </trkpt>
      <trkpt lat="47.50214" lon="6.75885">
        <ele>366</ele>
        <time>2015-10-11T09:45:46.000Z</time>
      </trkpt>
      <trkpt lat="47.50215" lon="6.7589">
        <ele>366</ele>
        <time>2015-10-11T09:45:48.000Z</time>
      </trkpt>
      <trkpt lat="47.50216" lon="6.75892">
        <ele>366</ele>
        <time>2015-10-11T09:45:49.000Z</time>
      </trkpt>
      <trkpt lat="47.50217" lon="6.75898">
        <ele>366</ele>
        <time>2015-10-11T09:45:51.000Z</time>
      </trkpt>
      <trkpt lat="47.50218" lon="6.759">
        <ele>366</ele>
        <time>2015-10-11T09:45:52.000Z</time>
      </trkpt>
      <trkpt lat="47.50219" lon="6.75906">
        <ele>366</ele>
        <time>2015-10-11T09:45:54.000Z</time>
      </trkpt>
      <trkpt lat="47.5022" lon="6.75909">
        <ele>366</ele>
        <time>2015-10-11T09:45:55.000Z</time>
      </trkpt>
      <trkpt lat="47.5022" lon="6.75915">
        <ele>366</ele>
        <time>2015-10-11T09:45:57.000Z</time>
      </trkpt>
      <trkpt lat="47.50221" lon="6.75918">
        <ele>367</ele>
        <time>2015-10-11T09:45:58.000Z</time>
      </trkpt>
      <trkpt lat="47.50222" lon="6.75924">
        <ele>367</ele>
        <time>2015-10-11T09:46:00.000Z</time>
      </trkpt>
      <trkpt lat="47.50222" lon="6.75926">
        <ele>367</ele>
        <time>2015-10-11T09:46:01.000Z</time>
      </trkpt>
      <trkpt lat="47.50223" lon="6.75932">
        <ele>367</ele>
        <time>2015-10-11T09:46:03.000Z</time>
      </trkpt>
      <trkpt lat="47.50224" lon="6.75935">
        <ele>368</ele>
        <time>2015-10-11T09:46:04.000Z</time>
      </trkpt>
      <trkpt lat="47.50226" lon="6.75941">
        <ele>368</ele>
        <time>2015-10-11T09:46:06.000Z</time>
      </trkpt>
      <trkpt lat="47.50226" lon="6.75944">
        <ele>368</ele>
        <time>2015-10-11T09:46:07.000Z</time>
      </trkpt>
      <trkpt lat="47.50227" lon="6.7595">
        <ele>368</ele>
        <time>2015-10-11T09:46:09.000Z</time>
      </trkpt>
      <trkpt lat="47.50227" lon="6.75952">
        <ele>368</ele>
        <time>2015-10-11T09:46:10.000Z</time>
      </trkpt>
      <trkpt lat="47.50229" lon="6.75958">
        <ele>368</ele>
        <time>2015-10-11T09:46:12.000Z</time>
      </trkpt>
      <trkpt lat="47.50229" lon="6.7596">
        <ele>368</ele>
        <time>2015-10-11T09:46:13.000Z</time>
      </trkpt>
      <trkpt lat="47.5023" lon="6.75965">
        <ele>368</ele>
        <time>2015-10-11T09:46:15.000Z</time>
      </trkpt>
      <trkpt lat="47.50231" lon="6.75968">
        <ele>368</ele>
        <time>2015-10-11T09:46:16.000Z</time>
      </trkpt>
      <trkpt lat="47.50231" lon="6.75973">
        <ele>368</ele>
        <time>2015-10-11T09:46:18.000Z</time>
      </trkpt>
      <trkpt lat="47.50231" lon="6.75975">
        <ele>368</ele>
        <time>2015-10-11T09:46:19.000Z</time>
      </trkpt>
      <trkpt lat="47.50231" lon="6.7598">
        <ele>368</ele>
        <time>2015-10-11T09:46:21.000Z</time>
      </trkpt>
      <trkpt lat="47.50231" lon="6.75982">
        <ele>368</ele>
        <time>2015-10-11T09:46:22.000Z</time>
      </trkpt>
      <trkpt lat="47.50229" lon="6.75987">
        <ele>368</ele>
        <time>2015-10-11T09:46:25.000Z</time>
      </trkpt>
      <trkpt lat="47.50228" lon="6.75987">
        <ele>368</ele>
        <time>2015-10-11T09:46:26.000Z</time>
      </trkpt>
      <trkpt lat="47.50224" lon="6.75988">
        <ele>368</ele>
        <time>2015-10-11T09:46:29.000Z</time>
      </trkpt>
      <trkpt lat="47.50223" lon="6.75989">
        <ele>368</ele>
        <time>2015-10-11T09:46:30.000Z</time>
      </trkpt>
      <trkpt lat="47.5022" lon="6.75992">
        <ele>368</ele>
        <time>2015-10-11T09:46:33.000Z</time>
      </trkpt>
      <trkpt lat="47.50219" lon="6.75993">
        <ele>368</ele>
        <time>2015-10-11T09:46:34.000Z</time>
      </trkpt>
      <trkpt lat="47.50215" lon="6.75996">
        <ele>369</ele>
        <time>2015-10-11T09:46:38.000Z</time>
      </trkpt>
      <trkpt lat="47.50214" lon="6.75996">
        <ele>369</ele>
        <time>2015-10-11T09:46:39.000Z</time>
      </trkpt>
      <trkpt lat="47.50211" lon="6.75996">
        <ele>369</ele>
        <time>2015-10-11T09:46:42.000Z</time>
      </trkpt>
      <trkpt lat="47.5021" lon="6.75996">
        <ele>369</ele>
        <time>2015-10-11T09:46:43.000Z</time>
      </trkpt>
      <trkpt lat="47.50207" lon="6.75998">
        <ele>369</ele>
        <time>2015-10-11T09:46:45.000Z</time>
      </trkpt>
      <trkpt lat="47.50205" lon="6.75998">
        <ele>369</ele>
        <time>2015-10-11T09:46:46.000Z</time>
      </trkpt>
      <trkpt lat="47.50201" lon="6.76001">
        <ele>372</ele>
        <time>2015-10-11T09:46:49.000Z</time>
      </trkpt>
      <trkpt lat="47.502" lon="6.76002">
        <ele>372</ele>
        <time>2015-10-11T09:46:50.000Z</time>
      </trkpt>
      <trkpt lat="47.50198" lon="6.76006">
        <ele>372</ele>
        <time>2015-10-11T09:46:53.000Z</time>
      </trkpt>
      <trkpt lat="47.50197" lon="6.76006">
        <ele>372</ele>
        <time>2015-10-11T09:46:54.000Z</time>
      </trkpt>
      <trkpt lat="47.50193" lon="6.76009">
        <ele>372</ele>
        <time>2015-10-11T09:46:57.000Z</time>
      </trkpt>
      <trkpt lat="47.50192" lon="6.7601">
        <ele>372</ele>
        <time>2015-10-11T09:46:58.000Z</time>
      </trkpt>
      <trkpt lat="47.50188" lon="6.76013">
        <ele>372</ele>
        <time>2015-10-11T09:47:01.000Z</time>
      </trkpt>
      <trkpt lat="47.50186" lon="6.76014">
        <ele>372</ele>
        <time>2015-10-11T09:47:02.000Z</time>
      </trkpt>
      <trkpt lat="47.50183" lon="6.76016">
        <ele>372</ele>
        <time>2015-10-11T09:47:05.000Z</time>
      </trkpt>
      <trkpt lat="47.50182" lon="6.76017">
        <ele>372</ele>
        <time>2015-10-11T09:47:06.000Z</time>
      </trkpt>
      <trkpt lat="47.50178" lon="6.76019">
        <ele>372</ele>
        <time>2015-10-11T09:47:10.000Z</time>
      </trkpt>
      <trkpt lat="47.50177" lon="6.7602">
        <ele>372</ele>
        <time>2015-10-11T09:47:11.000Z</time>
      </trkpt>
      <trkpt lat="47.50174" lon="6.76022">
        <ele>372</ele>
        <time>2015-10-11T09:47:14.000Z</time>
      </trkpt>
      <trkpt lat="47.50172" lon="6.76022">
        <ele>372</ele>
        <time>2015-10-11T09:47:15.000Z</time>
      </trkpt>
      <trkpt lat="47.50169" lon="6.76023">
        <ele>372</ele>
        <time>2015-10-11T09:47:17.000Z</time>
      </trkpt>
      <trkpt lat="47.50167" lon="6.76022">
        <ele>372</ele>
        <time>2015-10-11T09:47:18.000Z</time>
      </trkpt>
      <trkpt lat="47.50164" lon="6.76023">
        <ele>375</ele>
        <time>2015-10-11T09:47:20.000Z</time>
      </trkpt>
      <trkpt lat="47.50162" lon="6.76023">
        <ele>375</ele>
        <time>2015-10-11T09:47:21.000Z</time>
      </trkpt>
      <trkpt lat="47.50159" lon="6.76024">
        <ele>375</ele>
        <time>2015-10-11T09:47:23.000Z</time>
      </trkpt>
      <trkpt lat="47.50157" lon="6.76025">
        <ele>376</ele>
        <time>2015-10-11T09:47:24.000Z</time>
      </trkpt>
      <trkpt lat="47.50154" lon="6.76028">
        <ele>376</ele>
        <time>2015-10-11T09:47:27.000Z</time>
      </trkpt>
      <trkpt lat="47.50152" lon="6.76029">
        <ele>376</ele>
        <time>2015-10-11T09:47:28.000Z</time>
      </trkpt>
      <trkpt lat="47.50149" lon="6.7603">
        <ele>376</ele>
        <time>2015-10-11T09:47:30.000Z</time>
      </trkpt>
      <trkpt lat="47.50148" lon="6.76031">
        <ele>377</ele>
        <time>2015-10-11T09:47:31.000Z</time>
      </trkpt>
      <trkpt lat="47.50144" lon="6.76033">
        <ele>377</ele>
        <time>2015-10-11T09:47:34.000Z</time>
      </trkpt>
      <trkpt lat="47.50142" lon="6.76033">
        <ele>377</ele>
        <time>2015-10-11T09:47:35.000Z</time>
      </trkpt>
      <trkpt lat="47.50138" lon="6.76035">
        <ele>377</ele>
        <time>2015-10-11T09:47:39.000Z</time>
      </trkpt>
      <trkpt lat="47.50137" lon="6.76036">
        <ele>377</ele>
        <time>2015-10-11T09:47:40.000Z</time>
      </trkpt>
      <trkpt lat="47.50133" lon="6.76036">
        <ele>378</ele>
        <time>2015-10-11T09:47:44.000Z</time>
      </trkpt>
      <trkpt lat="47.50133" lon="6.76036">
        <ele>378</ele>
        <time>2015-10-11T09:47:45.000Z</time>
      </trkpt>
      <trkpt lat="47.50129" lon="6.76039">
        <ele>378</ele>
        <time>2015-10-11T09:48:00.000Z</time>
      </trkpt>
      <trkpt lat="47.50128" lon="6.7604">
        <ele>378</ele>
        <time>2015-10-11T09:48:01.000Z</time>
      </trkpt>
      <trkpt lat="47.50125" lon="6.76044">
        <ele>379</ele>
        <time>2015-10-11T09:48:07.000Z</time>
      </trkpt>
      <trkpt lat="47.50125" lon="6.76045">
        <ele>379</ele>
        <time>2015-10-11T09:48:08.000Z</time>
      </trkpt>
      <trkpt lat="47.5012" lon="6.76045">
        <ele>379</ele>
        <time>2015-10-11T09:48:13.000Z</time>
      </trkpt>
      <trkpt lat="47.5012" lon="6.76045">
        <ele>379</ele>
        <time>2015-10-11T09:48:14.000Z</time>
      </trkpt>
      <trkpt lat="47.50117" lon="6.76049">
        <ele>379</ele>
        <time>2015-10-11T09:48:26.000Z</time>
      </trkpt>
      <trkpt lat="47.50117" lon="6.7605">
        <ele>379</ele>
        <time>2015-10-11T09:48:27.000Z</time>
      </trkpt>
      <trkpt lat="47.50113" lon="6.76053">
        <ele>380</ele>
        <time>2015-10-11T09:48:31.000Z</time>
      </trkpt>
      <trkpt lat="47.50113" lon="6.76055">
        <ele>380</ele>
        <time>2015-10-11T09:48:32.000Z</time>
      </trkpt>
      <trkpt lat="47.50114" lon="6.7606">
        <ele>380</ele>
        <time>2015-10-11T09:48:34.000Z</time>
      </trkpt>
      <trkpt lat="47.50114" lon="6.76062">
        <ele>380</ele>
        <time>2015-10-11T09:48:35.000Z</time>
      </trkpt>
      <trkpt lat="47.50115" lon="6.76067">
        <ele>380</ele>
        <time>2015-10-11T09:48:37.000Z</time>
      </trkpt>
      <trkpt lat="47.50115" lon="6.76069">
        <ele>381</ele>
        <time>2015-10-11T09:48:38.000Z</time>
      </trkpt>
      <trkpt lat="47.50116" lon="6.76074">
        <ele>381</ele>
        <time>2015-10-11T09:48:40.000Z</time>
      </trkpt>
      <trkpt lat="47.50116" lon="6.76077">
        <ele>381</ele>
        <time>2015-10-11T09:48:41.000Z</time>
      </trkpt>
      <trkpt lat="47.50115" lon="6.76081">
        <ele>381</ele>
        <time>2015-10-11T09:48:43.001Z</time>
      </trkpt>
      <trkpt lat="47.50114" lon="6.76085">
        <ele>385</ele>
        <time>2015-10-11T09:48:44.000Z</time>
      </trkpt>
      <trkpt lat="47.50113" lon="6.76087">
        <ele>385</ele>
        <time>2015-10-11T09:48:45.000Z</time>
      </trkpt>
      <trkpt lat="47.50113" lon="6.76092">
        <ele>385</ele>
        <time>2015-10-11T09:48:46.000Z</time>
      </trkpt>
      <trkpt lat="47.50114" lon="6.76098">
        <ele>385</ele>
        <time>2015-10-11T09:48:48.000Z</time>
      </trkpt>
      <trkpt lat="47.50114" lon="6.76101">
        <ele>385</ele>
        <time>2015-10-11T09:48:48.999Z</time>
      </trkpt>
      <trkpt lat="47.50113" lon="6.76106">
        <ele>385</ele>
        <time>2015-10-11T09:48:51.000Z</time>
      </trkpt>
      <trkpt lat="47.50113" lon="6.76109">
        <ele>385</ele>
        <time>2015-10-11T09:48:51.999Z</time>
      </trkpt>
      <trkpt lat="47.50113" lon="6.76114">
        <ele>385</ele>
        <time>2015-10-11T09:48:54.000Z</time>
      </trkpt>
      <trkpt lat="47.50113" lon="6.76116">
        <ele>385</ele>
        <time>2015-10-11T09:48:54.999Z</time>
      </trkpt>
      <trkpt lat="47.50117" lon="6.7612">
        <ele>385</ele>
        <time>2015-10-11T09:48:57.000Z</time>
      </trkpt>
      <trkpt lat="47.50118" lon="6.76122">
        <ele>385</ele>
        <time>2015-10-11T09:48:58.000Z</time>
      </trkpt>
      <trkpt lat="47.5012" lon="6.76127">
        <ele>385</ele>
        <time>2015-10-11T09:49:00.000Z</time>
      </trkpt>
      <trkpt lat="47.50121" lon="6.76131">
        <ele>385</ele>
        <time>2015-10-11T09:49:01.000Z</time>
      </trkpt>
      <trkpt lat="47.50121" lon="6.76135">
        <ele>385</ele>
        <time>2015-10-11T09:49:02.000Z</time>
      </trkpt>
      <trkpt lat="47.50122" lon="6.76139">
        <ele>385</ele>
        <time>2015-10-11T09:49:03.000Z</time>
      </trkpt>
      <trkpt lat="47.50123" lon="6.76145">
        <ele>385</ele>
        <time>2015-10-11T09:49:05.000Z</time>
      </trkpt>
      <trkpt lat="47.50124" lon="6.76148">
        <ele>385</ele>
        <time>2015-10-11T09:49:06.000Z</time>
      </trkpt>
      <trkpt lat="47.50124" lon="6.76153">
        <ele>385</ele>
        <time>2015-10-11T09:49:08.000Z</time>
      </trkpt>
      <trkpt lat="47.50124" lon="6.76156">
        <ele>385</ele>
        <time>2015-10-11T09:49:09.000Z</time>
      </trkpt>
      <trkpt lat="47.50124" lon="6.7616">
        <ele>385</ele>
        <time>2015-10-11T09:49:10.000Z</time>
      </trkpt>
      <trkpt lat="47.50123" lon="6.76163">
        <ele>385</ele>
        <time>2015-10-11T09:49:11.000Z</time>
      </trkpt>
      <trkpt lat="47.50123" lon="6.76167">
        <ele>389</ele>
        <time>2015-10-11T09:49:12.000Z</time>
      </trkpt>
      <trkpt lat="47.50123" lon="6.76172">
        <ele>389</ele>
        <time>2015-10-11T09:49:13.000Z</time>
      </trkpt>
      <trkpt lat="47.50124" lon="6.76177">
        <ele>389</ele>
        <time>2015-10-11T09:49:14.000Z</time>
      </trkpt>
      <trkpt lat="47.50125" lon="6.76182">
        <ele>389</ele>
        <time>2015-10-11T09:49:15.000Z</time>
      </trkpt>
      <trkpt lat="47.50126" lon="6.76186">
        <ele>389</ele>
        <time>2015-10-11T09:49:16.000Z</time>
      </trkpt>
      <trkpt lat="47.50126" lon="6.76191">
        <ele>390</ele>
        <time>2015-10-11T09:49:17.000Z</time>
      </trkpt>
      <trkpt lat="47.50127" lon="6.76195">
        <ele>390</ele>
        <time>2015-10-11T09:49:17.998Z</time>
      </trkpt>
      <trkpt lat="47.50128" lon="6.762">
        <ele>390</ele>
        <time>2015-10-11T09:49:19.000Z</time>
      </trkpt>
      <trkpt lat="47.50129" lon="6.76204">
        <ele>390</ele>
        <time>2015-10-11T09:49:20.000Z</time>
      </trkpt>
      <trkpt lat="47.5013" lon="6.76209">
        <ele>390</ele>
        <time>2015-10-11T09:49:21.000Z</time>
      </trkpt>
      <trkpt lat="47.5013" lon="6.76213">
        <ele>390</ele>
        <time>2015-10-11T09:49:22.000Z</time>
      </trkpt>
      <trkpt lat="47.5013" lon="6.76216">
        <ele>390</ele>
        <time>2015-10-11T09:49:23.000Z</time>
      </trkpt>
      <trkpt lat="47.50131" lon="6.76221">
        <ele>390</ele>
        <time>2015-10-11T09:49:25.000Z</time>
      </trkpt>
      <trkpt lat="47.50131" lon="6.76224">
        <ele>391</ele>
        <time>2015-10-11T09:49:26.000Z</time>
      </trkpt>
      <trkpt lat="47.50131" lon="6.76227">
        <ele>391</ele>
        <time>2015-10-11T09:49:27.000Z</time>
      </trkpt>
      <trkpt lat="47.50132" lon="6.76231">
        <ele>391</ele>
        <time>2015-10-11T09:49:28.000Z</time>
      </trkpt>
      <trkpt lat="47.50133" lon="6.76236">
        <ele>391</ele>
        <time>2015-10-11T09:49:29.000Z</time>
      </trkpt>
      <trkpt lat="47.50135" lon="6.76241">
        <ele>390</ele>
        <time>2015-10-11T09:49:30.000Z</time>
      </trkpt>
      <trkpt lat="47.50136" lon="6.76246">
        <ele>390</ele>
        <time>2015-10-11T09:49:31.000Z</time>
      </trkpt>
      <trkpt lat="47.50138" lon="6.76251">
        <ele>394</ele>
        <time>2015-10-11T09:49:32.000Z</time>
      </trkpt>
      <trkpt lat="47.50139" lon="6.76256">
        <ele>394</ele>
        <time>2015-10-11T09:49:33.000Z</time>
      </trkpt>
      <trkpt lat="47.5014" lon="6.7626">
        <ele>394</ele>
        <time>2015-10-11T09:49:34.000Z</time>
      </trkpt>
      <trkpt lat="47.50142" lon="6.76265">
        <ele>394</ele>
        <time>2015-10-11T09:49:35.000Z</time>
      </trkpt>
      <trkpt lat="47.50143" lon="6.76269">
        <ele>394</ele>
        <time>2015-10-11T09:49:36.000Z</time>
      </trkpt>
      <trkpt lat="47.50145" lon="6.76273">
        <ele>394</ele>
        <time>2015-10-11T09:49:37.000Z</time>
      </trkpt>
      <trkpt lat="47.50146" lon="6.76277">
        <ele>394</ele>
        <time>2015-10-11T09:49:38.000Z</time>
      </trkpt>
      <trkpt lat="47.50147" lon="6.76282">
        <ele>395</ele>
        <time>2015-10-11T09:49:39.000Z</time>
      </trkpt>
      <trkpt lat="47.50148" lon="6.76287">
        <ele>395</ele>
        <time>2015-10-11T09:49:40.000Z</time>
      </trkpt>
      <trkpt lat="47.50149" lon="6.76292">
        <ele>395</ele>
        <time>2015-10-11T09:49:41.000Z</time>
      </trkpt>
      <trkpt lat="47.5015" lon="6.76297">
        <ele>395</ele>
        <time>2015-10-11T09:49:42.000Z</time>
      </trkpt>
      <trkpt lat="47.50151" lon="6.76301">
        <ele>395</ele>
        <time>2015-10-11T09:49:43.000Z</time>
      </trkpt>
      <trkpt lat="47.50153" lon="6.76305">
        <ele>395</ele>
        <time>2015-10-11T09:49:44.000Z</time>
      </trkpt>
      <trkpt lat="47.50154" lon="6.76308">
        <ele>395</ele>
        <time>2015-10-11T09:49:45.000Z</time>
      </trkpt>
      <trkpt lat="47.50155" lon="6.76312">
        <ele>395</ele>
        <time>2015-10-11T09:49:46.000Z</time>
      </trkpt>
      <trkpt lat="47.50157" lon="6.76316">
        <ele>394</ele>
        <time>2015-10-11T09:49:46.999Z</time>
      </trkpt>
      <trkpt lat="47.50158" lon="6.76321">
        <ele>394</ele>
        <time>2015-10-11T09:49:48.000Z</time>
      </trkpt>
      <trkpt lat="47.5016" lon="6.76326">
        <ele>393</ele>
        <time>2015-10-11T09:49:49.000Z</time>
      </trkpt>
      <trkpt lat="47.5016" lon="6.76331">
        <ele>393</ele>
        <time>2015-10-11T09:49:50.000Z</time>
      </trkpt>
      <trkpt lat="47.50161" lon="6.76337">
        <ele>394</ele>
        <time>2015-10-11T09:49:51.000Z</time>
      </trkpt>
      <trkpt lat="47.50162" lon="6.76344">
        <ele>395</ele>
        <time>2015-10-11T09:49:52.000Z</time>
      </trkpt>
      <trkpt lat="47.50164" lon="6.76351">
        <ele>397</ele>
        <time>2015-10-11T09:49:53.000Z</time>
      </trkpt>
      <trkpt lat="47.50166" lon="6.76357">
        <ele>398</ele>
        <time>2015-10-11T09:49:54.000Z</time>
      </trkpt>
      <trkpt lat="47.50168" lon="6.76362">
        <ele>391</ele>
        <time>2015-10-11T09:49:55.000Z</time>
      </trkpt>
      <trkpt lat="47.5017" lon="6.76368">
        <ele>391</ele>
        <time>2015-10-11T09:49:56.000Z</time>
      </trkpt>
      <trkpt lat="47.50171" lon="6.76372">
        <ele>391</ele>
        <time>2015-10-11T09:49:57.000Z</time>
      </trkpt>
      <trkpt lat="47.50173" lon="6.76378">
        <ele>391</ele>
        <time>2015-10-11T09:49:58.000Z</time>
      </trkpt>
      <trkpt lat="47.50175" lon="6.76383">
        <ele>392</ele>
        <time>2015-10-11T09:49:59.000Z</time>
      </trkpt>
      <trkpt lat="47.50176" lon="6.76388">
        <ele>392</ele>
        <time>2015-10-11T09:50:00.000Z</time>
      </trkpt>
      <trkpt lat="47.50178" lon="6.76392">
        <ele>392</ele>
        <time>2015-10-11T09:50:01.000Z</time>
      </trkpt>
      <trkpt lat="47.5018" lon="6.76397">
        <ele>393</ele>
        <time>2015-10-11T09:50:02.000Z</time>
      </trkpt>
      <trkpt lat="47.50181" lon="6.76402">
        <ele>393</ele>
        <time>2015-10-11T09:50:03.000Z</time>
      </trkpt>
      <trkpt lat="47.50183" lon="6.76407">
        <ele>394</ele>
        <time>2015-10-11T09:50:04.000Z</time>
      </trkpt>
      <trkpt lat="47.50185" lon="6.76412">
        <ele>394</ele>
        <time>2015-10-11T09:50:05.000Z</time>
      </trkpt>
      <trkpt lat="47.50185" lon="6.76416">
        <ele>394</ele>
        <time>2015-10-11T09:50:06.000Z</time>
      </trkpt>
      <trkpt lat="47.50185" lon="6.76421">
        <ele>397</ele>
        <time>2015-10-11T09:50:07.000Z</time>
      </trkpt>
      <trkpt lat="47.50185" lon="6.76424">
        <ele>397</ele>
        <time>2015-10-11T09:50:08.000Z</time>
      </trkpt>
      <trkpt lat="47.50185" lon="6.76428">
        <ele>397</ele>
        <time>2015-10-11T09:50:09.000Z</time>
      </trkpt>
      <trkpt lat="47.50185" lon="6.76432">
        <ele>397</ele>
        <time>2015-10-11T09:50:10.000Z</time>
      </trkpt>
      <trkpt lat="47.50186" lon="6.76436">
        <ele>396</ele>
        <time>2015-10-11T09:50:11.000Z</time>
      </trkpt>
      <trkpt lat="47.50188" lon="6.76441">
        <ele>396</ele>
        <time>2015-10-11T09:50:12.000Z</time>
      </trkpt>
      <trkpt lat="47.5019" lon="6.76446">
        <ele>396</ele>
        <time>2015-10-11T09:50:13.000Z</time>
      </trkpt>
      <trkpt lat="47.50193" lon="6.76451">
        <ele>396</ele>
        <time>2015-10-11T09:50:14.000Z</time>
      </trkpt>
      <trkpt lat="47.50194" lon="6.76456">
        <ele>396</ele>
        <time>2015-10-11T09:50:15.000Z</time>
      </trkpt>
      <trkpt lat="47.50196" lon="6.76461">
        <ele>396</ele>
        <time>2015-10-11T09:50:16.000Z</time>
      </trkpt>
      <trkpt lat="47.50197" lon="6.76465">
        <ele>397</ele>
        <time>2015-10-11T09:50:17.000Z</time>
      </trkpt>
      <trkpt lat="47.50198" lon="6.76469">
        <ele>397</ele>
        <time>2015-10-11T09:50:18.000Z</time>
      </trkpt>
      <trkpt lat="47.50199" lon="6.76473">
        <ele>397</ele>
        <time>2015-10-11T09:50:19.000Z</time>
      </trkpt>
      <trkpt lat="47.50201" lon="6.76477">
        <ele>397</ele>
        <time>2015-10-11T09:50:20.000Z</time>
      </trkpt>
      <trkpt lat="47.50202" lon="6.76479">
        <ele>397</ele>
        <time>2015-10-11T09:50:21.000Z</time>
      </trkpt>
      <trkpt lat="47.50205" lon="6.76484">
        <ele>397</ele>
        <time>2015-10-11T09:50:23.000Z</time>
      </trkpt>
      <trkpt lat="47.50206" lon="6.76486">
        <ele>397</ele>
        <time>2015-10-11T09:50:24.000Z</time>
      </trkpt>
      <trkpt lat="47.50207" lon="6.7649">
        <ele>397</ele>
        <time>2015-10-11T09:50:26.000Z</time>
      </trkpt>
      <trkpt lat="47.50208" lon="6.76493">
        <ele>397</ele>
        <time>2015-10-11T09:50:27.000Z</time>
      </trkpt>
      <trkpt lat="47.5021" lon="6.76497">
        <ele>396</ele>
        <time>2015-10-11T09:50:29.000Z</time>
      </trkpt>
      <trkpt lat="47.50211" lon="6.76499">
        <ele>396</ele>
        <time>2015-10-11T09:50:30.000Z</time>
      </trkpt>
      <trkpt lat="47.50213" lon="6.76503">
        <ele>400</ele>
        <time>2015-10-11T09:50:32.000Z</time>
      </trkpt>
      <trkpt lat="47.50213" lon="6.76506">
        <ele>400</ele>
        <time>2015-10-11T09:50:33.000Z</time>
      </trkpt>
      <trkpt lat="47.50215" lon="6.76511">
        <ele>399</ele>
        <time>2015-10-11T09:50:35.000Z</time>
      </trkpt>
      <trkpt lat="47.50215" lon="6.76514">
        <ele>399</ele>
        <time>2015-10-11T09:50:36.000Z</time>
      </trkpt>
      <trkpt lat="47.50217" lon="6.76519">
        <ele>399</ele>
        <time>2015-10-11T09:50:38.000Z</time>
      </trkpt>
      <trkpt lat="47.50218" lon="6.76523">
        <ele>399</ele>
        <time>2015-10-11T09:50:39.000Z</time>
      </trkpt>
      <trkpt lat="47.5022" lon="6.76527">
        <ele>399</ele>
        <time>2015-10-11T09:50:40.000Z</time>
      </trkpt>
      <trkpt lat="47.50223" lon="6.76532">
        <ele>399</ele>
        <time>2015-10-11T09:50:41.000Z</time>
      </trkpt>
      <trkpt lat="47.50224" lon="6.76537">
        <ele>400</ele>
        <time>2015-10-11T09:50:42.000Z</time>
      </trkpt>
      <trkpt lat="47.50225" lon="6.76541">
        <ele>400</ele>
        <time>2015-10-11T09:50:43.000Z</time>
      </trkpt>
      <trkpt lat="47.50224" lon="6.76545">
        <ele>400</ele>
        <time>2015-10-11T09:50:44.000Z</time>
      </trkpt>
      <trkpt lat="47.50222" lon="6.76548">
        <ele>400</ele>
        <time>2015-10-11T09:50:45.000Z</time>
      </trkpt>
      <trkpt lat="47.50221" lon="6.76551">
        <ele>400</ele>
        <time>2015-10-11T09:50:46.000Z</time>
      </trkpt>
      <trkpt lat="47.50219" lon="6.76553">
        <ele>400</ele>
        <time>2015-10-11T09:50:47.000Z</time>
      </trkpt>
      <trkpt lat="47.50215" lon="6.76555">
        <ele>401</ele>
        <time>2015-10-11T09:50:49.000Z</time>
      </trkpt>
      <trkpt lat="47.50213" lon="6.76556">
        <ele>401</ele>
        <time>2015-10-11T09:50:50.000Z</time>
      </trkpt>
      <trkpt lat="47.50209" lon="6.76559">
        <ele>401</ele>
        <time>2015-10-11T09:50:52.000Z</time>
      </trkpt>
      <trkpt lat="47.50207" lon="6.7656">
        <ele>401</ele>
        <time>2015-10-11T09:50:53.000Z</time>
      </trkpt>
      <trkpt lat="47.50203" lon="6.76562">
        <ele>402</ele>
        <time>2015-10-11T09:50:55.000Z</time>
      </trkpt>
      <trkpt lat="47.50202" lon="6.76563">
        <ele>402</ele>
        <time>2015-10-11T09:50:56.000Z</time>
      </trkpt>
      <trkpt lat="47.502" lon="6.76569">
        <ele>402</ele>
        <time>2015-10-11T09:51:32.000Z</time>
      </trkpt>
      <trkpt lat="47.502" lon="6.7657">
        <ele>402</ele>
        <time>2015-10-11T09:51:33.000Z</time>
      </trkpt>
      <trkpt lat="47.50199" lon="6.76575">
        <ele>402</ele>
        <time>2015-10-11T09:51:35.000Z</time>
      </trkpt>
      <trkpt lat="47.50199" lon="6.76578">
        <ele>402</ele>
        <time>2015-10-11T09:51:36.000Z</time>
      </trkpt>
      <trkpt lat="47.50199" lon="6.76584">
        <ele>403</ele>
        <time>2015-10-11T09:51:38.000Z</time>
      </trkpt>
      <trkpt lat="47.50199" lon="6.76588">
        <ele>403</ele>
        <time>2015-10-11T09:51:39.000Z</time>
      </trkpt>
      <trkpt lat="47.50199" lon="6.76591">
        <ele>403</ele>
        <time>2015-10-11T09:51:40.000Z</time>
      </trkpt>
      <trkpt lat="47.502" lon="6.76596">
        <ele>403</ele>
        <time>2015-10-11T09:51:41.000Z</time>
      </trkpt>
      <trkpt lat="47.50201" lon="6.766">
        <ele>403</ele>
        <time>2015-10-11T09:51:42.000Z</time>
      </trkpt>
      <trkpt lat="47.50202" lon="6.76605">
        <ele>402</ele>
        <time>2015-10-11T09:51:43.000Z</time>
      </trkpt>
      <trkpt lat="47.50204" lon="6.7661">
        <ele>402</ele>
        <time>2015-10-11T09:51:44.000Z</time>
      </trkpt>
      <trkpt lat="47.50206" lon="6.76615">
        <ele>402</ele>
        <time>2015-10-11T09:51:45.000Z</time>
      </trkpt>
      <trkpt lat="47.50207" lon="6.7662">
        <ele>402</ele>
        <time>2015-10-11T09:51:46.000Z</time>
      </trkpt>
      <trkpt lat="47.50209" lon="6.76625">
        <ele>402</ele>
        <time>2015-10-11T09:51:47.000Z</time>
      </trkpt>
      <trkpt lat="47.5021" lon="6.7663">
        <ele>402</ele>
        <time>2015-10-11T09:51:48.000Z</time>
      </trkpt>
      <trkpt lat="47.50212" lon="6.76635">
        <ele>402</ele>
        <time>2015-10-11T09:51:49.000Z</time>
      </trkpt>
      <trkpt lat="47.50213" lon="6.7664">
        <ele>402</ele>
        <time>2015-10-11T09:51:50.000Z</time>
      </trkpt>
      <trkpt lat="47.50214" lon="6.76645">
        <ele>402</ele>
        <time>2015-10-11T09:51:51.000Z</time>
      </trkpt>
      <trkpt lat="47.50215" lon="6.76651">
        <ele>402</ele>
        <time>2015-10-11T09:51:52.000Z</time>
      </trkpt>
      <trkpt lat="47.50217" lon="6.76656">
        <ele>401</ele>
        <time>2015-10-11T09:51:53.000Z</time>
      </trkpt>
      <trkpt lat="47.50218" lon="6.76661">
        <ele>401</ele>
        <time>2015-10-11T09:51:54.000Z</time>
      </trkpt>
      <trkpt lat="47.50219" lon="6.76665">
        <ele>401</ele>
        <time>2015-10-11T09:51:55.000Z</time>
      </trkpt>
      <trkpt lat="47.5022" lon="6.76671">
        <ele>401</ele>
        <time>2015-10-11T09:51:56.000Z</time>
      </trkpt>
      <trkpt lat="47.50221" lon="6.76675">
        <ele>401</ele>
        <time>2015-10-11T09:51:57.001Z</time>
      </trkpt>
      <trkpt lat="47.50222" lon="6.7668">
        <ele>401</ele>
        <time>2015-10-11T09:51:58.000Z</time>
      </trkpt>
      <trkpt lat="47.50224" lon="6.76684">
        <ele>401</ele>
        <time>2015-10-11T09:51:59.000Z</time>
      </trkpt>
      <trkpt lat="47.50225" lon="6.76688">
        <ele>401</ele>
        <time>2015-10-11T09:52:00.000Z</time>
      </trkpt>
      <trkpt lat="47.50227" lon="6.76692">
        <ele>401</ele>
        <time>2015-10-11T09:52:01.000Z</time>
      </trkpt>
      <trkpt lat="47.50228" lon="6.76696">
        <ele>401</ele>
        <time>2015-10-11T09:52:02.000Z</time>
      </trkpt>
      <trkpt lat="47.50229" lon="6.767">
        <ele>402</ele>
        <time>2015-10-11T09:52:02.999Z</time>
      </trkpt>
      <trkpt lat="47.5023" lon="6.76705">
        <ele>402</ele>
        <time>2015-10-11T09:52:04.000Z</time>
      </trkpt>
      <trkpt lat="47.50232" lon="6.7671">
        <ele>402</ele>
        <time>2015-10-11T09:52:05.000Z</time>
      </trkpt>
      <trkpt lat="47.50234" lon="6.76714">
        <ele>402</ele>
        <time>2015-10-11T09:52:06.000Z</time>
      </trkpt>
      <trkpt lat="47.50236" lon="6.76718">
        <ele>401</ele>
        <time>2015-10-11T09:52:07.000Z</time>
      </trkpt>
      <trkpt lat="47.50238" lon="6.76723">
        <ele>401</ele>
        <time>2015-10-11T09:52:08.000Z</time>
      </trkpt>
      <trkpt lat="47.5024" lon="6.76727">
        <ele>401</ele>
        <time>2015-10-11T09:52:09.000Z</time>
      </trkpt>
      <trkpt lat="47.50243" lon="6.76732">
        <ele>401</ele>
        <time>2015-10-11T09:52:10.000Z</time>
      </trkpt>
      <trkpt lat="47.50246" lon="6.76736">
        <ele>401</ele>
        <time>2015-10-11T09:52:11.000Z</time>
      </trkpt>
      <trkpt lat="47.50248" lon="6.7674">
        <ele>401</ele>
        <time>2015-10-11T09:52:12.000Z</time>
      </trkpt>
      <trkpt lat="47.50251" lon="6.76744">
        <ele>400</ele>
        <time>2015-10-11T09:52:13.000Z</time>
      </trkpt>
      <trkpt lat="47.50254" lon="6.76746">
        <ele>400</ele>
        <time>2015-10-11T09:52:14.000Z</time>
      </trkpt>
      <trkpt lat="47.50258" lon="6.76747">
        <ele>400</ele>
        <time>2015-10-11T09:52:15.000Z</time>
      </trkpt>
      <trkpt lat="47.50262" lon="6.76748">
        <ele>399</ele>
        <time>2015-10-11T09:52:16.000Z</time>
      </trkpt>
      <trkpt lat="47.50265" lon="6.76748">
        <ele>399</ele>
        <time>2015-10-11T09:52:16.998Z</time>
      </trkpt>
      <trkpt lat="47.5027" lon="6.76745">
        <ele>399</ele>
        <time>2015-10-11T09:52:18.000Z</time>
      </trkpt>
      <trkpt lat="47.50275" lon="6.7674">
        <ele>399</ele>
        <time>2015-10-11T09:52:19.000Z</time>
      </trkpt>
      <trkpt lat="47.50279" lon="6.76739">
        <ele>399</ele>
        <time>2015-10-11T09:52:20.000Z</time>
      </trkpt>
      <trkpt lat="47.50283" lon="6.76737">
        <ele>399</ele>
        <time>2015-10-11T09:52:21.000Z</time>
      </trkpt>
      <trkpt lat="47.50287" lon="6.76735">
        <ele>399</ele>
        <time>2015-10-11T09:52:22.000Z</time>
      </trkpt>
      <trkpt lat="47.50292" lon="6.76735">
        <ele>399</ele>
        <time>2015-10-11T09:52:23.000Z</time>
      </trkpt>
      <trkpt lat="47.50297" lon="6.76734">
        <ele>399</ele>
        <time>2015-10-11T09:52:24.000Z</time>
      </trkpt>
      <trkpt lat="47.50301" lon="6.76732">
        <ele>398</ele>
        <time>2015-10-11T09:52:25.000Z</time>
      </trkpt>
      <trkpt lat="47.50305" lon="6.76731">
        <ele>398</ele>
        <time>2015-10-11T09:52:26.001Z</time>
      </trkpt>
      <trkpt lat="47.50309" lon="6.76728">
        <ele>398</ele>
        <time>2015-10-11T09:52:27.000Z</time>
      </trkpt>
      <trkpt lat="47.50312" lon="6.76724">
        <ele>398</ele>
        <time>2015-10-11T09:52:28.000Z</time>
      </trkpt>
      <trkpt lat="47.50317" lon="6.76722">
        <ele>398</ele>
        <time>2015-10-11T09:52:29.000Z</time>
      </trkpt>
      <trkpt lat="47.50321" lon="6.7672">
        <ele>398</ele>
        <time>2015-10-11T09:52:30.000Z</time>
      </trkpt>
      <trkpt lat="47.50325" lon="6.76718">
        <ele>398</ele>
        <time>2015-10-11T09:52:31.000Z</time>
      </trkpt>
      <trkpt lat="47.50331" lon="6.76716">
        <ele>398</ele>
        <time>2015-10-11T09:52:32.000Z</time>
      </trkpt>
      <trkpt lat="47.50335" lon="6.76713">
        <ele>398</ele>
        <time>2015-10-11T09:52:33.000Z</time>
      </trkpt>
      <trkpt lat="47.5034" lon="6.76711">
        <ele>398</ele>
        <time>2015-10-11T09:52:34.000Z</time>
      </trkpt>
      <trkpt lat="47.50344" lon="6.76709">
        <ele>398</ele>
        <time>2015-10-11T09:52:35.000Z</time>
      </trkpt>
      <trkpt lat="47.50348" lon="6.76706">
        <ele>397</ele>
        <time>2015-10-11T09:52:36.000Z</time>
      </trkpt>
      <trkpt lat="47.50353" lon="6.76705">
        <ele>397</ele>
        <time>2015-10-11T09:52:37.000Z</time>
      </trkpt>
      <trkpt lat="47.50358" lon="6.76703">
        <ele>397</ele>
        <time>2015-10-11T09:52:38.000Z</time>
      </trkpt>
      <trkpt lat="47.50363" lon="6.76701">
        <ele>397</ele>
        <time>2015-10-11T09:52:39.000Z</time>
      </trkpt>
      <trkpt lat="47.50368" lon="6.76699">
        <ele>397</ele>
        <time>2015-10-11T09:52:40.000Z</time>
      </trkpt>
      <trkpt lat="47.50372" lon="6.76697">
        <ele>397</ele>
        <time>2015-10-11T09:52:41.000Z</time>
      </trkpt>
      <trkpt lat="47.50377" lon="6.76695">
        <ele>397</ele>
        <time>2015-10-11T09:52:42.000Z</time>
      </trkpt>
      <trkpt lat="47.50382" lon="6.76693">
        <ele>397</ele>
        <time>2015-10-11T09:52:43.000Z</time>
      </trkpt>
      <trkpt lat="47.50386" lon="6.76691">
        <ele>397</ele>
        <time>2015-10-11T09:52:44.000Z</time>
      </trkpt>
      <trkpt lat="47.5039" lon="6.76689">
        <ele>397</ele>
        <time>2015-10-11T09:52:45.000Z</time>
      </trkpt>
      <trkpt lat="47.50394" lon="6.76687">
        <ele>397</ele>
        <time>2015-10-11T09:52:46.000Z</time>
      </trkpt>
      <trkpt lat="47.504" lon="6.76687">
        <ele>397</ele>
        <time>2015-10-11T09:52:47.000Z</time>
      </trkpt>
      <trkpt lat="47.50404" lon="6.76685">
        <ele>397</ele>
        <time>2015-10-11T09:52:48.000Z</time>
      </trkpt>
      <trkpt lat="47.50407" lon="6.76682">
        <ele>397</ele>
        <time>2015-10-11T09:52:49.000Z</time>
      </trkpt>
      <trkpt lat="47.50411" lon="6.76679">
        <ele>397</ele>
        <time>2015-10-11T09:52:50.000Z</time>
      </trkpt>
      <trkpt lat="47.50415" lon="6.76675">
        <ele>397</ele>
        <time>2015-10-11T09:52:51.000Z</time>
      </trkpt>
      <trkpt lat="47.5042" lon="6.76675">
        <ele>397</ele>
        <time>2015-10-11T09:52:52.000Z</time>
      </trkpt>
      <trkpt lat="47.50425" lon="6.76673">
        <ele>397</ele>
        <time>2015-10-11T09:52:53.000Z</time>
      </trkpt>
      <trkpt lat="47.50429" lon="6.76671">
        <ele>397</ele>
        <time>2015-10-11T09:52:54.000Z</time>
      </trkpt>
      <trkpt lat="47.50434" lon="6.76669">
        <ele>397</ele>
        <time>2015-10-11T09:52:55.000Z</time>
      </trkpt>
      <trkpt lat="47.50438" lon="6.76667">
        <ele>397</ele>
        <time>2015-10-11T09:52:56.000Z</time>
      </trkpt>
      <trkpt lat="47.50443" lon="6.76665">
        <ele>398</ele>
        <time>2015-10-11T09:52:57.000Z</time>
      </trkpt>
      <trkpt lat="47.50448" lon="6.76663">
        <ele>398</ele>
        <time>2015-10-11T09:52:58.000Z</time>
      </trkpt>
      <trkpt lat="47.50452" lon="6.76661">
        <ele>398</ele>
        <time>2015-10-11T09:52:59.000Z</time>
      </trkpt>
      <trkpt lat="47.50456" lon="6.7666">
        <ele>398</ele>
        <time>2015-10-11T09:53:00.000Z</time>
      </trkpt>
      <trkpt lat="47.50462" lon="6.7666">
        <ele>398</ele>
        <time>2015-10-11T09:53:01.000Z</time>
      </trkpt>
      <trkpt lat="47.50466" lon="6.76658">
        <ele>398</ele>
        <time>2015-10-11T09:53:02.000Z</time>
      </trkpt>
      <trkpt lat="47.5047" lon="6.76657">
        <ele>398</ele>
        <time>2015-10-11T09:53:03.000Z</time>
      </trkpt>
      <trkpt lat="47.50475" lon="6.76657">
        <ele>398</ele>
        <time>2015-10-11T09:53:04.000Z</time>
      </trkpt>
      <trkpt lat="47.50479" lon="6.76656">
        <ele>399</ele>
        <time>2015-10-11T09:53:05.000Z</time>
      </trkpt>
      <trkpt lat="47.50483" lon="6.76654">
        <ele>399</ele>
        <time>2015-10-11T09:53:06.000Z</time>
      </trkpt>
      <trkpt lat="47.50487" lon="6.76653">
        <ele>399</ele>
        <time>2015-10-11T09:53:07.000Z</time>
      </trkpt>
      <trkpt lat="47.50491" lon="6.76651">
        <ele>399</ele>
        <time>2015-10-11T09:53:08.000Z</time>
      </trkpt>
      <trkpt lat="47.50496" lon="6.7665">
        <ele>399</ele>
        <time>2015-10-11T09:53:09.000Z</time>
      </trkpt>
      <trkpt lat="47.50499" lon="6.76648">
        <ele>399</ele>
        <time>2015-10-11T09:53:10.000Z</time>
      </trkpt>
      <trkpt lat="47.50504" lon="6.76647">
        <ele>399</ele>
        <time>2015-10-11T09:53:11.000Z</time>
      </trkpt>
      <trkpt lat="47.50508" lon="6.76646">
        <ele>399</ele>
        <time>2015-10-11T09:53:12.000Z</time>
      </trkpt>
      <trkpt lat="47.50512" lon="6.76645">
        <ele>399</ele>
        <time>2015-10-11T09:53:13.000Z</time>
      </trkpt>
      <trkpt lat="47.50516" lon="6.76644">
        <ele>399</ele>
        <time>2015-10-11T09:53:14.000Z</time>
      </trkpt>
      <trkpt lat="47.5052" lon="6.76643">
        <ele>399</ele>
        <time>2015-10-11T09:53:15.000Z</time>
      </trkpt>
      <trkpt lat="47.50524" lon="6.76642">
        <ele>399</ele>
        <time>2015-10-11T09:53:16.000Z</time>
      </trkpt>
      <trkpt lat="47.50527" lon="6.76641">
        <ele>399</ele>
        <time>2015-10-11T09:53:17.000Z</time>
      </trkpt>
      <trkpt lat="47.50531" lon="6.76639">
        <ele>399</ele>
        <time>2015-10-11T09:53:18.000Z</time>
      </trkpt>
      <trkpt lat="47.50535" lon="6.76638">
        <ele>399</ele>
        <time>2015-10-11T09:53:19.000Z</time>
      </trkpt>
      <trkpt lat="47.50539" lon="6.76637">
        <ele>399</ele>
        <time>2015-10-11T09:53:20.000Z</time>
      </trkpt>
      <trkpt lat="47.50542" lon="6.76636">
        <ele>399</ele>
        <time>2015-10-11T09:53:21.000Z</time>
      </trkpt>
      <trkpt lat="47.50546" lon="6.76636">
        <ele>399</ele>
        <time>2015-10-11T09:53:22.000Z</time>
      </trkpt>
      <trkpt lat="47.5055" lon="6.76635">
        <ele>399</ele>
        <time>2015-10-11T09:53:23.000Z</time>
      </trkpt>
      <trkpt lat="47.50554" lon="6.76634">
        <ele>399</ele>
        <time>2015-10-11T09:53:24.000Z</time>
      </trkpt>
      <trkpt lat="47.50558" lon="6.76633">
        <ele>399</ele>
        <time>2015-10-11T09:53:25.000Z</time>
      </trkpt>
      <trkpt lat="47.50562" lon="6.76632">
        <ele>399</ele>
        <time>2015-10-11T09:53:26.000Z</time>
      </trkpt>
      <trkpt lat="47.50568" lon="6.76631">
        <ele>399</ele>
        <time>2015-10-11T09:53:27.000Z</time>
      </trkpt>
      <trkpt lat="47.50572" lon="6.76629">
        <ele>399</ele>
        <time>2015-10-11T09:53:28.000Z</time>
      </trkpt>
      <trkpt lat="47.50577" lon="6.76628">
        <ele>399</ele>
        <time>2015-10-11T09:53:29.000Z</time>
      </trkpt>
      <trkpt lat="47.50582" lon="6.76626">
        <ele>399</ele>
        <time>2015-10-11T09:53:30.000Z</time>
      </trkpt>
      <trkpt lat="47.50587" lon="6.76625">
        <ele>398</ele>
        <time>2015-10-11T09:53:31.000Z</time>
      </trkpt>
      <trkpt lat="47.50592" lon="6.76623">
        <ele>398</ele>
        <time>2015-10-11T09:53:32.000Z</time>
      </trkpt>
      <trkpt lat="47.50597" lon="6.76621">
        <ele>398</ele>
        <time>2015-10-11T09:53:33.000Z</time>
      </trkpt>
      <trkpt lat="47.50602" lon="6.7662">
        <ele>398</ele>
        <time>2015-10-11T09:53:34.000Z</time>
      </trkpt>
      <trkpt lat="47.50607" lon="6.76618">
        <ele>398</ele>
        <time>2015-10-11T09:53:35.000Z</time>
      </trkpt>
      <trkpt lat="47.50612" lon="6.76616">
        <ele>398</ele>
        <time>2015-10-11T09:53:36.000Z</time>
      </trkpt>
      <trkpt lat="47.50617" lon="6.76614">
        <ele>397</ele>
        <time>2015-10-11T09:53:37.000Z</time>
      </trkpt>
      <trkpt lat="47.50622" lon="6.76611">
        <ele>397</ele>
        <time>2015-10-11T09:53:38.000Z</time>
      </trkpt>
      <trkpt lat="47.50627" lon="6.76608">
        <ele>397</ele>
        <time>2015-10-11T09:53:39.000Z</time>
      </trkpt>
      <trkpt lat="47.50632" lon="6.76605">
        <ele>397</ele>
        <time>2015-10-11T09:53:40.000Z</time>
      </trkpt>
      <trkpt lat="47.50637" lon="6.76602">
        <ele>397</ele>
        <time>2015-10-11T09:53:41.000Z</time>
      </trkpt>
      <trkpt lat="47.50643" lon="6.76599">
        <ele>397</ele>
        <time>2015-10-11T09:53:42.000Z</time>
      </trkpt>
      <trkpt lat="47.50648" lon="6.76596">
        <ele>397</ele>
        <time>2015-10-11T09:53:43.000Z</time>
      </trkpt>
      <trkpt lat="47.50654" lon="6.76594">
        <ele>397</ele>
        <time>2015-10-11T09:53:44.000Z</time>
      </trkpt>
      <trkpt lat="47.50659" lon="6.76592">
        <ele>397</ele>
        <time>2015-10-11T09:53:45.000Z</time>
      </trkpt>
      <trkpt lat="47.50663" lon="6.76591">
        <ele>397</ele>
        <time>2015-10-11T09:53:46.000Z</time>
      </trkpt>
      <trkpt lat="47.50668" lon="6.76589">
        <ele>396</ele>
        <time>2015-10-11T09:53:47.000Z</time>
      </trkpt>
      <trkpt lat="47.50673" lon="6.76588">
        <ele>396</ele>
        <time>2015-10-11T09:53:48.000Z</time>
      </trkpt>
      <trkpt lat="47.50678" lon="6.76587">
        <ele>396</ele>
        <time>2015-10-11T09:53:49.000Z</time>
      </trkpt>
      <trkpt lat="47.50683" lon="6.76586">
        <ele>396</ele>
        <time>2015-10-11T09:53:50.000Z</time>
      </trkpt>
      <trkpt lat="47.50688" lon="6.76586">
        <ele>395</ele>
        <time>2015-10-11T09:53:51.000Z</time>
      </trkpt>
      <trkpt lat="47.50693" lon="6.76586">
        <ele>395</ele>
        <time>2015-10-11T09:53:52.000Z</time>
      </trkpt>
      <trkpt lat="47.50698" lon="6.76586">
        <ele>395</ele>
        <time>2015-10-11T09:53:53.000Z</time>
      </trkpt>
      <trkpt lat="47.50703" lon="6.76586">
        <ele>395</ele>
        <time>2015-10-11T09:53:54.000Z</time>
      </trkpt>
      <trkpt lat="47.50708" lon="6.76587">
        <ele>395</ele>
        <time>2015-10-11T09:53:55.000Z</time>
      </trkpt>
      <trkpt lat="47.50713" lon="6.76587">
        <ele>395</ele>
        <time>2015-10-11T09:53:56.000Z</time>
      </trkpt>
      <trkpt lat="47.50718" lon="6.76589">
        <ele>394</ele>
        <time>2015-10-11T09:53:57.000Z</time>
      </trkpt>
      <trkpt lat="47.50723" lon="6.76591">
        <ele>394</ele>
        <time>2015-10-11T09:53:58.000Z</time>
      </trkpt>
      <trkpt lat="47.50728" lon="6.76593">
        <ele>394</ele>
        <time>2015-10-11T09:53:59.000Z</time>
      </trkpt>
      <trkpt lat="47.50733" lon="6.76594">
        <ele>394</ele>
        <time>2015-10-11T09:54:00.000Z</time>
      </trkpt>
      <trkpt lat="47.50739" lon="6.76595">
        <ele>394</ele>
        <time>2015-10-11T09:54:01.000Z</time>
      </trkpt>
      <trkpt lat="47.50744" lon="6.76596">
        <ele>394</ele>
        <time>2015-10-11T09:54:02.000Z</time>
      </trkpt>
      <trkpt lat="47.50749" lon="6.76597">
        <ele>394</ele>
        <time>2015-10-11T09:54:03.000Z</time>
      </trkpt>
      <trkpt lat="47.50754" lon="6.76597">
        <ele>393</ele>
        <time>2015-10-11T09:54:04.000Z</time>
      </trkpt>
      <trkpt lat="47.5076" lon="6.76596">
        <ele>392</ele>
        <time>2015-10-11T09:54:05.000Z</time>
      </trkpt>
      <trkpt lat="47.50765" lon="6.76596">
        <ele>392</ele>
        <time>2015-10-11T09:54:06.000Z</time>
      </trkpt>
      <trkpt lat="47.50771" lon="6.76595">
        <ele>392</ele>
        <time>2015-10-11T09:54:07.000Z</time>
      </trkpt>
      <trkpt lat="47.50776" lon="6.76594">
        <ele>392</ele>
        <time>2015-10-11T09:54:08.000Z</time>
      </trkpt>
      <trkpt lat="47.50781" lon="6.76593">
        <ele>391</ele>
        <time>2015-10-11T09:54:09.000Z</time>
      </trkpt>
      <trkpt lat="47.50786" lon="6.76591">
        <ele>391</ele>
        <time>2015-10-11T09:54:10.000Z</time>
      </trkpt>
      <trkpt lat="47.5079" lon="6.7659">
        <ele>391</ele>
        <time>2015-10-11T09:54:11.000Z</time>
      </trkpt>
      <trkpt lat="47.50794" lon="6.76588">
        <ele>391</ele>
        <time>2015-10-11T09:54:12.000Z</time>
      </trkpt>
      <trkpt lat="47.508" lon="6.76587">
        <ele>391</ele>
        <time>2015-10-11T09:54:13.000Z</time>
      </trkpt>
      <trkpt lat="47.50804" lon="6.76586">
        <ele>391</ele>
        <time>2015-10-11T09:54:14.000Z</time>
      </trkpt>
      <trkpt lat="47.50807" lon="6.76585">
        <ele>390</ele>
        <time>2015-10-11T09:54:15.000Z</time>
      </trkpt>
      <trkpt lat="47.5081" lon="6.7659">
        <ele>390</ele>
        <time>2015-10-11T09:54:17.000Z</time>
      </trkpt>
      <trkpt lat="47.50811" lon="6.76593">
        <ele>390</ele>
        <time>2015-10-11T09:54:18.000Z</time>
      </trkpt>
      <trkpt lat="47.50813" lon="6.76597">
        <ele>390</ele>
        <time>2015-10-11T09:54:19.000Z</time>
      </trkpt>
      <trkpt lat="47.50815" lon="6.76598">
        <ele>390</ele>
        <time>2015-10-11T09:54:20.000Z</time>
      </trkpt>
      <trkpt lat="47.50818" lon="6.76596">
        <ele>390</ele>
        <time>2015-10-11T09:54:21.000Z</time>
      </trkpt>
      <trkpt lat="47.50821" lon="6.76594">
        <ele>390</ele>
        <time>2015-10-11T09:54:22.000Z</time>
      </trkpt>
      <trkpt lat="47.50823" lon="6.76594">
        <ele>390</ele>
        <time>2015-10-11T09:54:23.001Z</time>
      </trkpt>
      <trkpt lat="47.50825" lon="6.76594">
        <ele>390</ele>
        <time>2015-10-11T09:54:24.000Z</time>
      </trkpt>
      <trkpt lat="47.50828" lon="6.76598">
        <ele>390</ele>
        <time>2015-10-11T09:54:26.000Z</time>
      </trkpt>
      <trkpt lat="47.50829" lon="6.76599">
        <ele>390</ele>
        <time>2015-10-11T09:54:27.000Z</time>
      </trkpt>
      <trkpt lat="47.50825" lon="6.76597">
        <ele>390</ele>
        <time>2015-10-11T09:54:32.000Z</time>
      </trkpt>
      <trkpt lat="47.50823" lon="6.76597">
        <ele>390</ele>
        <time>2015-10-11T09:54:33.000Z</time>
      </trkpt>
      <trkpt lat="47.5082" lon="6.76598">
        <ele>390</ele>
        <time>2015-10-11T09:54:34.000Z</time>
      </trkpt>
      <trkpt lat="47.50817" lon="6.76598">
        <ele>390</ele>
        <time>2015-10-11T09:54:35.000Z</time>
      </trkpt>
      <trkpt lat="47.50814" lon="6.76598">
        <ele>390</ele>
        <time>2015-10-11T09:54:36.000Z</time>
      </trkpt>
      <trkpt lat="47.50812" lon="6.76596">
        <ele>390</ele>
        <time>2015-10-11T09:54:37.000Z</time>
      </trkpt>
      <trkpt lat="47.50809" lon="6.76591">
        <ele>390</ele>
        <time>2015-10-11T09:54:38.999Z</time>
      </trkpt>
      <trkpt lat="47.50809" lon="6.7659">
        <ele>390</ele>
        <time>2015-10-11T09:54:40.001Z</time>
      </trkpt>
      <trkpt lat="47.50813" lon="6.7659">
        <ele>390</ele>
        <time>2015-10-11T09:54:46.000Z</time>
      </trkpt>
      <trkpt lat="47.50814" lon="6.76593">
        <ele>390</ele>
        <time>2015-10-11T09:54:47.000Z</time>
      </trkpt>
      <trkpt lat="47.50815" lon="6.76595">
        <ele>390</ele>
        <time>2015-10-11T09:54:48.002Z</time>
      </trkpt>
      <trkpt lat="47.50817" lon="6.76598">
        <ele>390</ele>
        <time>2015-10-11T09:54:49.000Z</time>
      </trkpt>
      <trkpt lat="47.5082" lon="6.76599">
        <ele>390</ele>
        <time>2015-10-11T09:54:50.000Z</time>
      </trkpt>
      <trkpt lat="47.50822" lon="6.766">
        <ele>390</ele>
        <time>2015-10-11T09:54:51.000Z</time>
      </trkpt>
      <trkpt lat="47.50827" lon="6.76601">
        <ele>390</ele>
        <time>2015-10-11T09:54:52.000Z</time>
      </trkpt>
      <trkpt lat="47.50832" lon="6.76611">
        <ele>390</ele>
        <time>2015-10-11T09:54:53.000Z</time>
      </trkpt>
      <trkpt lat="47.50836" lon="6.76619">
        <ele>387</ele>
        <time>2015-10-11T09:54:54.000Z</time>
      </trkpt>
      <trkpt lat="47.50839" lon="6.76625">
        <ele>387</ele>
        <time>2015-10-11T09:54:55.000Z</time>
      </trkpt>
      <trkpt lat="47.50841" lon="6.76632">
        <ele>387</ele>
        <time>2015-10-11T09:54:56.000Z</time>
      </trkpt>
      <trkpt lat="47.50844" lon="6.76638">
        <ele>387</ele>
        <time>2015-10-11T09:54:57.000Z</time>
      </trkpt>
      <trkpt lat="47.50847" lon="6.76645">
        <ele>387</ele>
        <time>2015-10-11T09:54:58.000Z</time>
      </trkpt>
      <trkpt lat="47.5085" lon="6.76653">
        <ele>387</ele>
        <time>2015-10-11T09:54:59.000Z</time>
      </trkpt>
      <trkpt lat="47.50853" lon="6.76661">
        <ele>387</ele>
        <time>2015-10-11T09:55:00.000Z</time>
      </trkpt>
      <trkpt lat="47.50856" lon="6.76668">
        <ele>385</ele>
        <time>2015-10-11T09:55:01.000Z</time>
      </trkpt>
      <trkpt lat="47.5086" lon="6.76676">
        <ele>385</ele>
        <time>2015-10-11T09:55:02.000Z</time>
      </trkpt>
      <trkpt lat="47.50864" lon="6.76685">
        <ele>384</ele>
        <time>2015-10-11T09:55:03.000Z</time>
      </trkpt>
      <trkpt lat="47.50867" lon="6.76694">
        <ele>384</ele>
        <time>2015-10-11T09:55:04.000Z</time>
      </trkpt>
      <trkpt lat="47.50869" lon="6.76702">
        <ele>384</ele>
        <time>2015-10-11T09:55:05.000Z</time>
      </trkpt>
      <trkpt lat="47.50873" lon="6.7671">
        <ele>383</ele>
        <time>2015-10-11T09:55:06.000Z</time>
      </trkpt>
      <trkpt lat="47.50875" lon="6.76719">
        <ele>383</ele>
        <time>2015-10-11T09:55:07.000Z</time>
      </trkpt>
      <trkpt lat="47.50878" lon="6.76728">
        <ele>383</ele>
        <time>2015-10-11T09:55:08.000Z</time>
      </trkpt>
      <trkpt lat="47.50881" lon="6.76736">
        <ele>383</ele>
        <time>2015-10-11T09:55:09.000Z</time>
      </trkpt>
      <trkpt lat="47.50883" lon="6.76745">
        <ele>382</ele>
        <time>2015-10-11T09:55:10.000Z</time>
      </trkpt>
      <trkpt lat="47.50885" lon="6.76753">
        <ele>381</ele>
        <time>2015-10-11T09:55:11.000Z</time>
      </trkpt>
      <trkpt lat="47.50888" lon="6.76761">
        <ele>381</ele>
        <time>2015-10-11T09:55:12.000Z</time>
      </trkpt>
      <trkpt lat="47.5089" lon="6.7677">
        <ele>381</ele>
        <time>2015-10-11T09:55:13.000Z</time>
      </trkpt>
      <trkpt lat="47.50894" lon="6.76778">
        <ele>381</ele>
        <time>2015-10-11T09:55:14.000Z</time>
      </trkpt>
      <trkpt lat="47.50896" lon="6.76785">
        <ele>381</ele>
        <time>2015-10-11T09:55:15.000Z</time>
      </trkpt>
      <trkpt lat="47.509" lon="6.76792">
        <ele>381</ele>
        <time>2015-10-11T09:55:16.000Z</time>
      </trkpt>
      <trkpt lat="47.50904" lon="6.768">
        <ele>381</ele>
        <time>2015-10-11T09:55:17.000Z</time>
      </trkpt>
      <trkpt lat="47.50908" lon="6.76808">
        <ele>381</ele>
        <time>2015-10-11T09:55:18.000Z</time>
      </trkpt>
      <trkpt lat="47.50912" lon="6.76816">
        <ele>381</ele>
        <time>2015-10-11T09:55:19.000Z</time>
      </trkpt>
      <trkpt lat="47.50915" lon="6.76824">
        <ele>380</ele>
        <time>2015-10-11T09:55:20.000Z</time>
      </trkpt>
      <trkpt lat="47.50917" lon="6.76831">
        <ele>380</ele>
        <time>2015-10-11T09:55:21.000Z</time>
      </trkpt>
      <trkpt lat="47.5092" lon="6.76837">
        <ele>379</ele>
        <time>2015-10-11T09:55:22.000Z</time>
      </trkpt>
      <trkpt lat="47.50923" lon="6.76843">
        <ele>379</ele>
        <time>2015-10-11T09:55:23.000Z</time>
      </trkpt>
      <trkpt lat="47.50926" lon="6.76849">
        <ele>379</ele>
        <time>2015-10-11T09:55:24.000Z</time>
      </trkpt>
      <trkpt lat="47.50928" lon="6.76853">
        <ele>378</ele>
        <time>2015-10-11T09:55:25.000Z</time>
      </trkpt>
      <trkpt lat="47.5093" lon="6.76858">
        <ele>378</ele>
        <time>2015-10-11T09:55:26.000Z</time>
      </trkpt>
      <trkpt lat="47.50933" lon="6.76862">
        <ele>378</ele>
        <time>2015-10-11T09:55:27.000Z</time>
      </trkpt>
      <trkpt lat="47.50935" lon="6.76866">
        <ele>378</ele>
        <time>2015-10-11T09:55:28.000Z</time>
      </trkpt>
      <trkpt lat="47.50939" lon="6.76869">
        <ele>378</ele>
        <time>2015-10-11T09:55:29.000Z</time>
      </trkpt>
      <trkpt lat="47.50941" lon="6.76872">
        <ele>378</ele>
        <time>2015-10-11T09:55:30.000Z</time>
      </trkpt>
      <trkpt lat="47.50943" lon="6.76875">
        <ele>378</ele>
        <time>2015-10-11T09:55:30.999Z</time>
      </trkpt>
      <trkpt lat="47.50949" lon="6.76879">
        <ele>378</ele>
        <time>2015-10-11T09:55:32.000Z</time>
      </trkpt>
      <trkpt lat="47.50953" lon="6.76883">
        <ele>378</ele>
        <time>2015-10-11T09:55:33.000Z</time>
      </trkpt>
      <trkpt lat="47.50957" lon="6.76886">
        <ele>377</ele>
        <time>2015-10-11T09:55:34.000Z</time>
      </trkpt>
      <trkpt lat="47.5096" lon="6.76889">
        <ele>377</ele>
        <time>2015-10-11T09:55:35.000Z</time>
      </trkpt>
      <trkpt lat="47.50965" lon="6.76892">
        <ele>377</ele>
        <time>2015-10-11T09:55:36.000Z</time>
      </trkpt>
      <trkpt lat="47.5097" lon="6.76894">
        <ele>377</ele>
        <time>2015-10-11T09:55:37.000Z</time>
      </trkpt>
      <trkpt lat="47.50974" lon="6.76896">
        <ele>377</ele>
        <time>2015-10-11T09:55:38.001Z</time>
      </trkpt>
      <trkpt lat="47.50979" lon="6.76896">
        <ele>377</ele>
        <time>2015-10-11T09:55:39.000Z</time>
      </trkpt>
      <trkpt lat="47.50984" lon="6.76898">
        <ele>377</ele>
        <time>2015-10-11T09:55:40.000Z</time>
      </trkpt>
      <trkpt lat="47.5099" lon="6.76899">
        <ele>377</ele>
        <time>2015-10-11T09:55:41.000Z</time>
      </trkpt>
      <trkpt lat="47.50994" lon="6.76901">
        <ele>377</ele>
        <time>2015-10-11T09:55:42.000Z</time>
      </trkpt>
      <trkpt lat="47.50998" lon="6.76907">
        <ele>376</ele>
        <time>2015-10-11T09:55:43.000Z</time>
      </trkpt>
      <trkpt lat="47.51" lon="6.76912">
        <ele>376</ele>
        <time>2015-10-11T09:55:44.000Z</time>
      </trkpt>
      <trkpt lat="47.51003" lon="6.76919">
        <ele>376</ele>
        <time>2015-10-11T09:55:45.000Z</time>
      </trkpt>
      <trkpt lat="47.51007" lon="6.76923">
        <ele>376</ele>
        <time>2015-10-11T09:55:46.000Z</time>
      </trkpt>
      <trkpt lat="47.51011" lon="6.76926">
        <ele>375</ele>
        <time>2015-10-11T09:55:47.000Z</time>
      </trkpt>
      <trkpt lat="47.51016" lon="6.76929">
        <ele>375</ele>
        <time>2015-10-11T09:55:47.999Z</time>
      </trkpt>
      <trkpt lat="47.5102" lon="6.76932">
        <ele>375</ele>
        <time>2015-10-11T09:55:49.000Z</time>
      </trkpt>
      <trkpt lat="47.51024" lon="6.76938">
        <ele>375</ele>
        <time>2015-10-11T09:55:50.000Z</time>
      </trkpt>
      <trkpt lat="47.51028" lon="6.76942">
        <ele>375</ele>
        <time>2015-10-11T09:55:51.000Z</time>
      </trkpt>
      <trkpt lat="47.51033" lon="6.76949">
        <ele>375</ele>
        <time>2015-10-11T09:55:52.000Z</time>
      </trkpt>
      <trkpt lat="47.51039" lon="6.76954">
        <ele>375</ele>
        <time>2015-10-11T09:55:53.000Z</time>
      </trkpt>
      <trkpt lat="47.51044" lon="6.76959">
        <ele>375</ele>
        <time>2015-10-11T09:55:54.000Z</time>
      </trkpt>
      <trkpt lat="47.51049" lon="6.76964">
        <ele>375</ele>
        <time>2015-10-11T09:55:55.000Z</time>
      </trkpt>
      <trkpt lat="47.51053" lon="6.76969">
        <ele>375</ele>
        <time>2015-10-11T09:55:56.000Z</time>
      </trkpt>
      <trkpt lat="47.51057" lon="6.76975">
        <ele>375</ele>
        <time>2015-10-11T09:55:56.999Z</time>
      </trkpt>
      <trkpt lat="47.51061" lon="6.76981">
        <ele>375</ele>
        <time>2015-10-11T09:55:58.000Z</time>
      </trkpt>
      <trkpt lat="47.51066" lon="6.76984">
        <ele>375</ele>
        <time>2015-10-11T09:55:59.000Z</time>
      </trkpt>
      <trkpt lat="47.51071" lon="6.76988">
        <ele>375</ele>
        <time>2015-10-11T09:56:00.000Z</time>
      </trkpt>
      <trkpt lat="47.51076" lon="6.76992">
        <ele>375</ele>
        <time>2015-10-11T09:56:01.000Z</time>
      </trkpt>
      <trkpt lat="47.51081" lon="6.76996">
        <ele>375</ele>
        <time>2015-10-11T09:56:02.000Z</time>
      </trkpt>
      <trkpt lat="47.51085" lon="6.77">
        <ele>375</ele>
        <time>2015-10-11T09:56:03.000Z</time>
      </trkpt>
      <trkpt lat="47.51089" lon="6.77005">
        <ele>375</ele>
        <time>2015-10-11T09:56:04.000Z</time>
      </trkpt>
      <trkpt lat="47.51093" lon="6.77008">
        <ele>375</ele>
        <time>2015-10-11T09:56:05.000Z</time>
      </trkpt>
      <trkpt lat="47.51098" lon="6.77012">
        <ele>375</ele>
        <time>2015-10-11T09:56:06.000Z</time>
      </trkpt>
      <trkpt lat="47.51102" lon="6.77016">
        <ele>375</ele>
        <time>2015-10-11T09:56:07.000Z</time>
      </trkpt>
      <trkpt lat="47.51108" lon="6.77019">
        <ele>375</ele>
        <time>2015-10-11T09:56:08.000Z</time>
      </trkpt>
      <trkpt lat="47.51112" lon="6.77021">
        <ele>375</ele>
        <time>2015-10-11T09:56:09.000Z</time>
      </trkpt>
      <trkpt lat="47.51117" lon="6.77024">
        <ele>375</ele>
        <time>2015-10-11T09:56:10.000Z</time>
      </trkpt>
      <trkpt lat="47.51121" lon="6.77027">
        <ele>375</ele>
        <time>2015-10-11T09:56:11.000Z</time>
      </trkpt>
      <trkpt lat="47.51125" lon="6.77033">
        <ele>375</ele>
        <time>2015-10-11T09:56:12.000Z</time>
      </trkpt>
      <trkpt lat="47.5113" lon="6.77038">
        <ele>375</ele>
        <time>2015-10-11T09:56:12.999Z</time>
      </trkpt>
      <trkpt lat="47.51133" lon="6.77041">
        <ele>375</ele>
        <time>2015-10-11T09:56:14.000Z</time>
      </trkpt>
      <trkpt lat="47.51137" lon="6.77043">
        <ele>375</ele>
        <time>2015-10-11T09:56:15.000Z</time>
      </trkpt>
      <trkpt lat="47.51142" lon="6.77044">
        <ele>376</ele>
        <time>2015-10-11T09:56:16.000Z</time>
      </trkpt>
      <trkpt lat="47.51146" lon="6.77048">
        <ele>376</ele>
        <time>2015-10-11T09:56:17.000Z</time>
      </trkpt>
      <trkpt lat="47.5115" lon="6.77052">
        <ele>376</ele>
        <time>2015-10-11T09:56:18.000Z</time>
      </trkpt>
      <trkpt lat="47.51154" lon="6.77055">
        <ele>376</ele>
        <time>2015-10-11T09:56:19.000Z</time>
      </trkpt>
      <trkpt lat="47.51157" lon="6.77057">
        <ele>376</ele>
        <time>2015-10-11T09:56:20.000Z</time>
      </trkpt>
      <trkpt lat="47.5116" lon="6.7706">
        <ele>376</ele>
        <time>2015-10-11T09:56:21.000Z</time>
      </trkpt>
      <trkpt lat="47.51164" lon="6.77065">
        <ele>376</ele>
        <time>2015-10-11T09:56:22.000Z</time>
      </trkpt>
      <trkpt lat="47.51167" lon="6.77069">
        <ele>377</ele>
        <time>2015-10-11T09:56:23.000Z</time>
      </trkpt>
      <trkpt lat="47.51171" lon="6.77074">
        <ele>377</ele>
        <time>2015-10-11T09:56:23.999Z</time>
      </trkpt>
      <trkpt lat="47.51172" lon="6.7708">
        <ele>377</ele>
        <time>2015-10-11T09:56:25.000Z</time>
      </trkpt>
      <trkpt lat="47.51175" lon="6.77085">
        <ele>378</ele>
        <time>2015-10-11T09:56:26.000Z</time>
      </trkpt>
      <trkpt lat="47.51177" lon="6.77091">
        <ele>378</ele>
        <time>2015-10-11T09:56:27.000Z</time>
      </trkpt>
      <trkpt lat="47.5118" lon="6.77096">
        <ele>378</ele>
        <time>2015-10-11T09:56:28.000Z</time>
      </trkpt>
      <trkpt lat="47.51183" lon="6.77102">
        <ele>378</ele>
        <time>2015-10-11T09:56:29.000Z</time>
      </trkpt>
      <trkpt lat="47.51185" lon="6.77106">
        <ele>378</ele>
        <time>2015-10-11T09:56:29.999Z</time>
      </trkpt>
      <trkpt lat="47.51188" lon="6.77112">
        <ele>378</ele>
        <time>2015-10-11T09:56:31.000Z</time>
      </trkpt>
      <trkpt lat="47.5119" lon="6.77116">
        <ele>378</ele>
        <time>2015-10-11T09:56:32.000Z</time>
      </trkpt>
      <trkpt lat="47.51193" lon="6.7712">
        <ele>378</ele>
        <time>2015-10-11T09:56:33.000Z</time>
      </trkpt>
      <trkpt lat="47.51195" lon="6.77126">
        <ele>378</ele>
        <time>2015-10-11T09:56:34.000Z</time>
      </trkpt>
      <trkpt lat="47.51197" lon="6.7713">
        <ele>378</ele>
        <time>2015-10-11T09:56:35.000Z</time>
      </trkpt>
      <trkpt lat="47.51199" lon="6.77135">
        <ele>378</ele>
        <time>2015-10-11T09:56:36.000Z</time>
      </trkpt>
      <trkpt lat="47.51202" lon="6.77139">
        <ele>378</ele>
        <time>2015-10-11T09:56:37.000Z</time>
      </trkpt>
      <trkpt lat="47.51204" lon="6.77143">
        <ele>378</ele>
        <time>2015-10-11T09:56:38.000Z</time>
      </trkpt>
      <trkpt lat="47.51207" lon="6.77147">
        <ele>378</ele>
        <time>2015-10-11T09:56:39.000Z</time>
      </trkpt>
      <trkpt lat="47.5121" lon="6.77151">
        <ele>378</ele>
        <time>2015-10-11T09:56:40.000Z</time>
      </trkpt>
      <trkpt lat="47.51212" lon="6.77156">
        <ele>378</ele>
        <time>2015-10-11T09:56:41.000Z</time>
      </trkpt>
      <trkpt lat="47.51215" lon="6.7716">
        <ele>378</ele>
        <time>2015-10-11T09:56:42.000Z</time>
      </trkpt>
      <trkpt lat="47.51217" lon="6.77164">
        <ele>378</ele>
        <time>2015-10-11T09:56:43.000Z</time>
      </trkpt>
      <trkpt lat="47.51219" lon="6.77167">
        <ele>377</ele>
        <time>2015-10-11T09:56:43.999Z</time>
      </trkpt>
      <trkpt lat="47.51221" lon="6.77171">
        <ele>377</ele>
        <time>2015-10-11T09:56:45.000Z</time>
      </trkpt>
      <trkpt lat="47.51224" lon="6.77176">
        <ele>377</ele>
        <time>2015-10-11T09:56:46.000Z</time>
      </trkpt>
      <trkpt lat="47.51226" lon="6.7718">
        <ele>377</ele>
        <time>2015-10-11T09:56:47.000Z</time>
      </trkpt>
      <trkpt lat="47.51229" lon="6.77185">
        <ele>376</ele>
        <time>2015-10-11T09:56:48.000Z</time>
      </trkpt>
      <trkpt lat="47.51231" lon="6.77189">
        <ele>376</ele>
        <time>2015-10-11T09:56:49.000Z</time>
      </trkpt>
      <trkpt lat="47.51233" lon="6.77194">
        <ele>376</ele>
        <time>2015-10-11T09:56:50.000Z</time>
      </trkpt>
      <trkpt lat="47.51235" lon="6.77198">
        <ele>376</ele>
        <time>2015-10-11T09:56:51.000Z</time>
      </trkpt>
      <trkpt lat="47.51238" lon="6.77203">
        <ele>376</ele>
        <time>2015-10-11T09:56:52.000Z</time>
      </trkpt>
      <trkpt lat="47.5124" lon="6.77209">
        <ele>376</ele>
        <time>2015-10-11T09:56:53.000Z</time>
      </trkpt>
      <trkpt lat="47.51241" lon="6.77214">
        <ele>376</ele>
        <time>2015-10-11T09:56:54.000Z</time>
      </trkpt>
      <trkpt lat="47.51244" lon="6.77219">
        <ele>376</ele>
        <time>2015-10-11T09:56:55.000Z</time>
      </trkpt>
      <trkpt lat="47.51247" lon="6.77223">
        <ele>376</ele>
        <time>2015-10-11T09:56:56.000Z</time>
      </trkpt>
      <trkpt lat="47.5125" lon="6.77228">
        <ele>377</ele>
        <time>2015-10-11T09:56:57.000Z</time>
      </trkpt>
      <trkpt lat="47.51252" lon="6.77232">
        <ele>378</ele>
        <time>2015-10-11T09:56:58.000Z</time>
      </trkpt>
      <trkpt lat="47.51255" lon="6.77236">
        <ele>378</ele>
        <time>2015-10-11T09:56:59.000Z</time>
      </trkpt>
      <trkpt lat="47.51257" lon="6.77241">
        <ele>378</ele>
        <time>2015-10-11T09:57:00.000Z</time>
      </trkpt>
      <trkpt lat="47.51261" lon="6.77245">
        <ele>378</ele>
        <time>2015-10-11T09:57:01.000Z</time>
      </trkpt>
      <trkpt lat="47.51265" lon="6.77248">
        <ele>378</ele>
        <time>2015-10-11T09:57:02.000Z</time>
      </trkpt>
      <trkpt lat="47.51268" lon="6.77251">
        <ele>378</ele>
        <time>2015-10-11T09:57:03.000Z</time>
      </trkpt>
      <trkpt lat="47.51271" lon="6.77253">
        <ele>378</ele>
        <time>2015-10-11T09:57:04.001Z</time>
      </trkpt>
      <trkpt lat="47.51274" lon="6.77256">
        <ele>377</ele>
        <time>2015-10-11T09:57:05.000Z</time>
      </trkpt>
      <trkpt lat="47.51277" lon="6.77258">
        <ele>377</ele>
        <time>2015-10-11T09:57:06.000Z</time>
      </trkpt>
      <trkpt lat="47.51282" lon="6.77261">
        <ele>377</ele>
        <time>2015-10-11T09:57:07.000Z</time>
      </trkpt>
      <trkpt lat="47.51285" lon="6.77263">
        <ele>377</ele>
        <time>2015-10-11T09:57:08.000Z</time>
      </trkpt>
      <trkpt lat="47.51289" lon="6.77265">
        <ele>377</ele>
        <time>2015-10-11T09:57:09.000Z</time>
      </trkpt>
      <trkpt lat="47.51292" lon="6.77268">
        <ele>377</ele>
        <time>2015-10-11T09:57:10.000Z</time>
      </trkpt>
      <trkpt lat="47.51296" lon="6.7727">
        <ele>377</ele>
        <time>2015-10-11T09:57:11.000Z</time>
      </trkpt>
      <trkpt lat="47.513" lon="6.77271">
        <ele>377</ele>
        <time>2015-10-11T09:57:12.000Z</time>
      </trkpt>
      <trkpt lat="47.51303" lon="6.77274">
        <ele>377</ele>
        <time>2015-10-11T09:57:13.000Z</time>
      </trkpt>
      <trkpt lat="47.51308" lon="6.77277">
        <ele>377</ele>
        <time>2015-10-11T09:57:14.000Z</time>
      </trkpt>
      <trkpt lat="47.51313" lon="6.77279">
        <ele>377</ele>
        <time>2015-10-11T09:57:15.000Z</time>
      </trkpt>
      <trkpt lat="47.51318" lon="6.7728">
        <ele>377</ele>
        <time>2015-10-11T09:57:16.000Z</time>
      </trkpt>
      <trkpt lat="47.51323" lon="6.77282">
        <ele>377</ele>
        <time>2015-10-11T09:57:17.000Z</time>
      </trkpt>
      <trkpt lat="47.51328" lon="6.77283">
        <ele>377</ele>
        <time>2015-10-11T09:57:18.000Z</time>
      </trkpt>
      <trkpt lat="47.51333" lon="6.77282">
        <ele>378</ele>
        <time>2015-10-11T09:57:19.000Z</time>
      </trkpt>
      <trkpt lat="47.51338" lon="6.77281">
        <ele>378</ele>
        <time>2015-10-11T09:57:20.000Z</time>
      </trkpt>
      <trkpt lat="47.51343" lon="6.77277">
        <ele>378</ele>
        <time>2015-10-11T09:57:21.000Z</time>
      </trkpt>
      <trkpt lat="47.51349" lon="6.77272">
        <ele>378</ele>
        <time>2015-10-11T09:57:22.000Z</time>
      </trkpt>
      <trkpt lat="47.51354" lon="6.77267">
        <ele>378</ele>
        <time>2015-10-11T09:57:23.000Z</time>
      </trkpt>
      <trkpt lat="47.51361" lon="6.77261">
        <ele>378</ele>
        <time>2015-10-11T09:57:24.000Z</time>
      </trkpt>
      <trkpt lat="47.51367" lon="6.77255">
        <ele>378</ele>
        <time>2015-10-11T09:57:25.000Z</time>
      </trkpt>
      <trkpt lat="47.51375" lon="6.7725">
        <ele>376</ele>
        <time>2015-10-11T09:57:26.000Z</time>
      </trkpt>
      <trkpt lat="47.51382" lon="6.77244">
        <ele>376</ele>
        <time>2015-10-11T09:57:27.000Z</time>
      </trkpt>
      <trkpt lat="47.5139" lon="6.77239">
        <ele>376</ele>
        <time>2015-10-11T09:57:28.000Z</time>
      </trkpt>
      <trkpt lat="47.51397" lon="6.77235">
        <ele>376</ele>
        <time>2015-10-11T09:57:29.000Z</time>
      </trkpt>
      <trkpt lat="47.51405" lon="6.7723">
        <ele>376</ele>
        <time>2015-10-11T09:57:30.000Z</time>
      </trkpt>
      <trkpt lat="47.51413" lon="6.77226">
        <ele>376</ele>
        <time>2015-10-11T09:57:31.000Z</time>
      </trkpt>
      <trkpt lat="47.5142" lon="6.77222">
        <ele>375</ele>
        <time>2015-10-11T09:57:32.000Z</time>
      </trkpt>
      <trkpt lat="47.51427" lon="6.77218">
        <ele>375</ele>
        <time>2015-10-11T09:57:33.000Z</time>
      </trkpt>
      <trkpt lat="47.51435" lon="6.77215">
        <ele>375</ele>
        <time>2015-10-11T09:57:34.000Z</time>
      </trkpt>
      <trkpt lat="47.51442" lon="6.77211">
        <ele>375</ele>
        <time>2015-10-11T09:57:35.000Z</time>
      </trkpt>
      <trkpt lat="47.51449" lon="6.77209">
        <ele>375</ele>
        <time>2015-10-11T09:57:36.000Z</time>
      </trkpt>
      <trkpt lat="47.51456" lon="6.77205">
        <ele>375</ele>
        <time>2015-10-11T09:57:37.000Z</time>
      </trkpt>
      <trkpt lat="47.51462" lon="6.77202">
        <ele>375</ele>
        <time>2015-10-11T09:57:38.000Z</time>
      </trkpt>
      <trkpt lat="47.51468" lon="6.772">
        <ele>375</ele>
        <time>2015-10-11T09:57:39.000Z</time>
      </trkpt>
      <trkpt lat="47.51475" lon="6.77201">
        <ele>375</ele>
        <time>2015-10-11T09:57:40.000Z</time>
      </trkpt>
      <trkpt lat="47.51479" lon="6.77205">
        <ele>375</ele>
        <time>2015-10-11T09:57:41.000Z</time>
      </trkpt>
      <trkpt lat="47.51481" lon="6.7721">
        <ele>375</ele>
        <time>2015-10-11T09:57:42.000Z</time>
      </trkpt>
      <trkpt lat="47.51483" lon="6.77216">
        <ele>375</ele>
        <time>2015-10-11T09:57:42.999Z</time>
      </trkpt>
      <trkpt lat="47.51483" lon="6.77224">
        <ele>375</ele>
        <time>2015-10-11T09:57:44.000Z</time>
      </trkpt>
      <trkpt lat="47.51484" lon="6.77231">
        <ele>375</ele>
        <time>2015-10-11T09:57:45.000Z</time>
      </trkpt>
      <trkpt lat="47.51483" lon="6.77239">
        <ele>375</ele>
        <time>2015-10-11T09:57:46.000Z</time>
      </trkpt>
      <trkpt lat="47.51484" lon="6.77246">
        <ele>376</ele>
        <time>2015-10-11T09:57:47.000Z</time>
      </trkpt>
      <trkpt lat="47.51484" lon="6.77253">
        <ele>376</ele>
        <time>2015-10-11T09:57:48.000Z</time>
      </trkpt>
      <trkpt lat="47.51484" lon="6.77259">
        <ele>376</ele>
        <time>2015-10-11T09:57:49.000Z</time>
      </trkpt>
      <trkpt lat="47.51485" lon="6.77266">
        <ele>376</ele>
        <time>2015-10-11T09:57:50.000Z</time>
      </trkpt>
      <trkpt lat="47.51486" lon="6.77273">
        <ele>377</ele>
        <time>2015-10-11T09:57:51.000Z</time>
      </trkpt>
      <trkpt lat="47.51486" lon="6.77279">
        <ele>377</ele>
        <time>2015-10-11T09:57:52.000Z</time>
      </trkpt>
      <trkpt lat="47.51488" lon="6.77285">
        <ele>377</ele>
        <time>2015-10-11T09:57:53.000Z</time>
      </trkpt>
      <trkpt lat="47.51489" lon="6.77291">
        <ele>377</ele>
        <time>2015-10-11T09:57:54.000Z</time>
      </trkpt>
      <trkpt lat="47.51489" lon="6.77298">
        <ele>377</ele>
        <time>2015-10-11T09:57:55.000Z</time>
      </trkpt>
      <trkpt lat="47.5149" lon="6.77305">
        <ele>377</ele>
        <time>2015-10-11T09:57:56.000Z</time>
      </trkpt>
      <trkpt lat="47.51493" lon="6.7731">
        <ele>377</ele>
        <time>2015-10-11T09:57:57.000Z</time>
      </trkpt>
      <trkpt lat="47.51496" lon="6.77316">
        <ele>377</ele>
        <time>2015-10-11T09:57:58.000Z</time>
      </trkpt>
      <trkpt lat="47.51499" lon="6.77319">
        <ele>377</ele>
        <time>2015-10-11T09:57:59.000Z</time>
      </trkpt>
      <trkpt lat="47.51503" lon="6.77324">
        <ele>378</ele>
        <time>2015-10-11T09:58:00.000Z</time>
      </trkpt>
      <trkpt lat="47.51508" lon="6.77328">
        <ele>378</ele>
        <time>2015-10-11T09:58:01.000Z</time>
      </trkpt>
      <trkpt lat="47.51513" lon="6.77332">
        <ele>378</ele>
        <time>2015-10-11T09:58:02.000Z</time>
      </trkpt>
      <trkpt lat="47.51518" lon="6.77336">
        <ele>379</ele>
        <time>2015-10-11T09:58:03.000Z</time>
      </trkpt>
      <trkpt lat="47.51522" lon="6.77341">
        <ele>380</ele>
        <time>2015-10-11T09:58:04.000Z</time>
      </trkpt>
      <trkpt lat="47.51526" lon="6.77345">
        <ele>380</ele>
        <time>2015-10-11T09:58:05.000Z</time>
      </trkpt>
      <trkpt lat="47.51529" lon="6.77348">
        <ele>380</ele>
        <time>2015-10-11T09:58:06.000Z</time>
      </trkpt>
      <trkpt lat="47.51532" lon="6.77353">
        <ele>380</ele>
        <time>2015-10-11T09:58:07.000Z</time>
      </trkpt>
      <trkpt lat="47.51536" lon="6.77358">
        <ele>380</ele>
        <time>2015-10-11T09:58:08.000Z</time>
      </trkpt>
      <trkpt lat="47.5154" lon="6.77362">
        <ele>380</ele>
        <time>2015-10-11T09:58:09.000Z</time>
      </trkpt>
      <trkpt lat="47.51543" lon="6.77366">
        <ele>380</ele>
        <time>2015-10-11T09:58:10.000Z</time>
      </trkpt>
      <trkpt lat="47.51546" lon="6.77371">
        <ele>381</ele>
        <time>2015-10-11T09:58:11.000Z</time>
      </trkpt>
      <trkpt lat="47.5155" lon="6.77374">
        <ele>381</ele>
        <time>2015-10-11T09:58:12.000Z</time>
      </trkpt>
      <trkpt lat="47.51553" lon="6.77378">
        <ele>381</ele>
        <time>2015-10-11T09:58:13.000Z</time>
      </trkpt>
      <trkpt lat="47.51556" lon="6.77381">
        <ele>381</ele>
        <time>2015-10-11T09:58:14.000Z</time>
      </trkpt>
      <trkpt lat="47.51559" lon="6.77385">
        <ele>381</ele>
        <time>2015-10-11T09:58:14.999Z</time>
      </trkpt>
      <trkpt lat="47.51562" lon="6.77389">
        <ele>381</ele>
        <time>2015-10-11T09:58:16.000Z</time>
      </trkpt>
      <trkpt lat="47.51565" lon="6.77393">
        <ele>381</ele>
        <time>2015-10-11T09:58:17.000Z</time>
      </trkpt>
      <trkpt lat="47.51568" lon="6.77397">
        <ele>381</ele>
        <time>2015-10-11T09:58:18.000Z</time>
      </trkpt>
      <trkpt lat="47.51571" lon="6.77401">
        <ele>382</ele>
        <time>2015-10-11T09:58:19.000Z</time>
      </trkpt>
      <trkpt lat="47.51574" lon="6.77405">
        <ele>382</ele>
        <time>2015-10-11T09:58:20.000Z</time>
      </trkpt>
      <trkpt lat="47.51577" lon="6.77408">
        <ele>382</ele>
        <time>2015-10-11T09:58:21.000Z</time>
      </trkpt>
      <trkpt lat="47.5158" lon="6.77412">
        <ele>382</ele>
        <time>2015-10-11T09:58:22.000Z</time>
      </trkpt>
      <trkpt lat="47.51582" lon="6.77416">
        <ele>383</ele>
        <time>2015-10-11T09:58:23.000Z</time>
      </trkpt>
      <trkpt lat="47.51585" lon="6.7742">
        <ele>383</ele>
        <time>2015-10-11T09:58:24.000Z</time>
      </trkpt>
      <trkpt lat="47.51587" lon="6.77424">
        <ele>384</ele>
        <time>2015-10-11T09:58:25.000Z</time>
      </trkpt>
      <trkpt lat="47.5159" lon="6.77427">
        <ele>384</ele>
        <time>2015-10-11T09:58:26.001Z</time>
      </trkpt>
      <trkpt lat="47.51593" lon="6.7743">
        <ele>384</ele>
        <time>2015-10-11T09:58:27.000Z</time>
      </trkpt>
      <trkpt lat="47.51596" lon="6.77433">
        <ele>385</ele>
        <time>2015-10-11T09:58:28.000Z</time>
      </trkpt>
      <trkpt lat="47.51599" lon="6.77436">
        <ele>385</ele>
        <time>2015-10-11T09:58:29.000Z</time>
      </trkpt>
      <trkpt lat="47.51602" lon="6.77439">
        <ele>385</ele>
        <time>2015-10-11T09:58:30.000Z</time>
      </trkpt>
      <trkpt lat="47.51605" lon="6.77442">
        <ele>385</ele>
        <time>2015-10-11T09:58:31.000Z</time>
      </trkpt>
      <trkpt lat="47.51608" lon="6.77446">
        <ele>385</ele>
        <time>2015-10-11T09:58:32.000Z</time>
      </trkpt>
      <trkpt lat="47.5161" lon="6.7745">
        <ele>385</ele>
        <time>2015-10-11T09:58:33.000Z</time>
      </trkpt>
      <trkpt lat="47.51613" lon="6.77453">
        <ele>385</ele>
        <time>2015-10-11T09:58:34.000Z</time>
      </trkpt>
      <trkpt lat="47.51616" lon="6.77457">
        <ele>386</ele>
        <time>2015-10-11T09:58:35.000Z</time>
      </trkpt>
      <trkpt lat="47.51619" lon="6.77461">
        <ele>386</ele>
        <time>2015-10-11T09:58:36.000Z</time>
      </trkpt>
      <trkpt lat="47.51621" lon="6.77465">
        <ele>386</ele>
        <time>2015-10-11T09:58:37.000Z</time>
      </trkpt>
      <trkpt lat="47.51625" lon="6.77468">
        <ele>386</ele>
        <time>2015-10-11T09:58:38.000Z</time>
      </trkpt>
      <trkpt lat="47.51627" lon="6.77471">
        <ele>386</ele>
        <time>2015-10-11T09:58:39.000Z</time>
      </trkpt>
      <trkpt lat="47.5163" lon="6.77474">
        <ele>386</ele>
        <time>2015-10-11T09:58:40.000Z</time>
      </trkpt>
      <trkpt lat="47.51633" lon="6.77477">
        <ele>386</ele>
        <time>2015-10-11T09:58:41.000Z</time>
      </trkpt>
      <trkpt lat="47.51635" lon="6.7748">
        <ele>386</ele>
        <time>2015-10-11T09:58:42.000Z</time>
      </trkpt>
      <trkpt lat="47.51638" lon="6.77483">
        <ele>387</ele>
        <time>2015-10-11T09:58:43.000Z</time>
      </trkpt>
      <trkpt lat="47.5164" lon="6.77487">
        <ele>387</ele>
        <time>2015-10-11T09:58:44.000Z</time>
      </trkpt>
      <trkpt lat="47.51643" lon="6.7749">
        <ele>387</ele>
        <time>2015-10-11T09:58:44.999Z</time>
      </trkpt>
      <trkpt lat="47.51645" lon="6.77493">
        <ele>387</ele>
        <time>2015-10-11T09:58:46.000Z</time>
      </trkpt>
      <trkpt lat="47.51647" lon="6.77496">
        <ele>387</ele>
        <time>2015-10-11T09:58:47.000Z</time>
      </trkpt>
      <trkpt lat="47.5165" lon="6.77499">
        <ele>387</ele>
        <time>2015-10-11T09:58:48.002Z</time>
      </trkpt>
      <trkpt lat="47.51652" lon="6.77501">
        <ele>388</ele>
        <time>2015-10-11T09:58:49.000Z</time>
      </trkpt>
      <trkpt lat="47.51654" lon="6.77504">
        <ele>388</ele>
        <time>2015-10-11T09:58:50.000Z</time>
      </trkpt>
      <trkpt lat="47.51657" lon="6.77507">
        <ele>388</ele>
        <time>2015-10-11T09:58:51.000Z</time>
      </trkpt>
      <trkpt lat="47.5166" lon="6.7751">
        <ele>388</ele>
        <time>2015-10-11T09:58:52.000Z</time>
      </trkpt>
      <trkpt lat="47.51663" lon="6.77513">
        <ele>388</ele>
        <time>2015-10-11T09:58:53.000Z</time>
      </trkpt>
      <trkpt lat="47.51666" lon="6.77517">
        <ele>388</ele>
        <time>2015-10-11T09:58:54.000Z</time>
      </trkpt>
      <trkpt lat="47.51668" lon="6.77521">
        <ele>389</ele>
        <time>2015-10-11T09:58:55.001Z</time>
      </trkpt>
      <trkpt lat="47.51671" lon="6.77524">
        <ele>390</ele>
        <time>2015-10-11T09:58:56.000Z</time>
      </trkpt>
      <trkpt lat="47.51675" lon="6.77527">
        <ele>390</ele>
        <time>2015-10-11T09:58:57.000Z</time>
      </trkpt>
      <trkpt lat="47.51677" lon="6.7753">
        <ele>390</ele>
        <time>2015-10-11T09:58:58.000Z</time>
      </trkpt>
      <trkpt lat="47.5168" lon="6.77534">
        <ele>390</ele>
        <time>2015-10-11T09:58:59.000Z</time>
      </trkpt>
      <trkpt lat="47.51682" lon="6.77537">
        <ele>390</ele>
        <time>2015-10-11T09:59:00.000Z</time>
      </trkpt>
      <trkpt lat="47.51685" lon="6.77541">
        <ele>390</ele>
        <time>2015-10-11T09:59:01.000Z</time>
      </trkpt>
      <trkpt lat="47.51687" lon="6.77544">
        <ele>390</ele>
        <time>2015-10-11T09:59:02.000Z</time>
      </trkpt>
      <trkpt lat="47.51691" lon="6.77548">
        <ele>390</ele>
        <time>2015-10-11T09:59:03.000Z</time>
      </trkpt>
      <trkpt lat="47.51694" lon="6.77551">
        <ele>390</ele>
        <time>2015-10-11T09:59:04.000Z</time>
      </trkpt>
      <trkpt lat="47.51697" lon="6.77553">
        <ele>390</ele>
        <time>2015-10-11T09:59:05.000Z</time>
      </trkpt>
      <trkpt lat="47.51703" lon="6.77553">
        <ele>390</ele>
        <time>2015-10-11T09:59:06.000Z</time>
      </trkpt>
      <trkpt lat="47.51707" lon="6.77555">
        <ele>390</ele>
        <time>2015-10-11T09:59:07.000Z</time>
      </trkpt>
      <trkpt lat="47.5171" lon="6.77555">
        <ele>390</ele>
        <time>2015-10-11T09:59:08.000Z</time>
      </trkpt>
      <trkpt lat="47.51714" lon="6.77553">
        <ele>390</ele>
        <time>2015-10-11T09:59:09.000Z</time>
      </trkpt>
      <trkpt lat="47.51715" lon="6.77549">
        <ele>390</ele>
        <time>2015-10-11T09:59:10.000Z</time>
      </trkpt>
      <trkpt lat="47.51717" lon="6.77544">
        <ele>390</ele>
        <time>2015-10-11T09:59:11.000Z</time>
      </trkpt>
      <trkpt lat="47.51718" lon="6.7754">
        <ele>390</ele>
        <time>2015-10-11T09:59:12.001Z</time>
      </trkpt>
      <trkpt lat="47.51719" lon="6.77533">
        <ele>390</ele>
        <time>2015-10-11T09:59:13.000Z</time>
      </trkpt>
      <trkpt lat="47.51721" lon="6.77527">
        <ele>390</ele>
        <time>2015-10-11T09:59:14.000Z</time>
      </trkpt>
      <trkpt lat="47.51723" lon="6.77521">
        <ele>390</ele>
        <time>2015-10-11T09:59:15.001Z</time>
      </trkpt>
      <trkpt lat="47.51725" lon="6.77515">
        <ele>390</ele>
        <time>2015-10-11T09:59:16.000Z</time>
      </trkpt>
      <trkpt lat="47.51726" lon="6.77508">
        <ele>390</ele>
        <time>2015-10-11T09:59:17.000Z</time>
      </trkpt>
      <trkpt lat="47.51728" lon="6.77502">
        <ele>390</ele>
        <time>2015-10-11T09:59:18.000Z</time>
      </trkpt>
      <trkpt lat="47.5173" lon="6.77495">
        <ele>389</ele>
        <time>2015-10-11T09:59:19.000Z</time>
      </trkpt>
      <trkpt lat="47.51731" lon="6.77487">
        <ele>389</ele>
        <time>2015-10-11T09:59:20.000Z</time>
      </trkpt>
      <trkpt lat="47.51733" lon="6.77483">
        <ele>389</ele>
        <time>2015-10-11T09:59:21.000Z</time>
      </trkpt>
      <trkpt lat="47.51737" lon="6.77481">
        <ele>389</ele>
        <time>2015-10-11T09:59:22.000Z</time>
      </trkpt>
      <trkpt lat="47.5174" lon="6.77479">
        <ele>389</ele>
        <time>2015-10-11T09:59:23.000Z</time>
      </trkpt>
      <trkpt lat="47.51744" lon="6.7748">
        <ele>389</ele>
        <time>2015-10-11T09:59:24.000Z</time>
      </trkpt>
      <trkpt lat="47.51748" lon="6.77484">
        <ele>389</ele>
        <time>2015-10-11T09:59:25.000Z</time>
      </trkpt>
      <trkpt lat="47.51754" lon="6.77486">
        <ele>389</ele>
        <time>2015-10-11T09:59:26.000Z</time>
      </trkpt>
      <trkpt lat="47.51758" lon="6.77487">
        <ele>389</ele>
        <time>2015-10-11T09:59:27.000Z</time>
      </trkpt>
      <trkpt lat="47.51762" lon="6.77486">
        <ele>389</ele>
        <time>2015-10-11T09:59:28.000Z</time>
      </trkpt>
      <trkpt lat="47.51766" lon="6.77486">
        <ele>389</ele>
        <time>2015-10-11T09:59:29.000Z</time>
      </trkpt>
      <trkpt lat="47.51769" lon="6.77483">
        <ele>389</ele>
        <time>2015-10-11T09:59:30.000Z</time>
      </trkpt>
      <trkpt lat="47.51773" lon="6.77482">
        <ele>388</ele>
        <time>2015-10-11T09:59:31.000Z</time>
      </trkpt>
      <trkpt lat="47.51776" lon="6.77481">
        <ele>388</ele>
        <time>2015-10-11T09:59:32.000Z</time>
      </trkpt>
      <trkpt lat="47.51785" lon="6.77488">
        <ele>388</ele>
        <time>2015-10-11T09:59:33.000Z</time>
      </trkpt>
      <trkpt lat="47.5179" lon="6.77489">
        <ele>388</ele>
        <time>2015-10-11T09:59:34.000Z</time>
      </trkpt>
      <trkpt lat="47.51794" lon="6.77489">
        <ele>388</ele>
        <time>2015-10-11T09:59:35.000Z</time>
      </trkpt>
      <trkpt lat="47.518" lon="6.7749">
        <ele>388</ele>
        <time>2015-10-11T09:59:36.001Z</time>
      </trkpt>
      <trkpt lat="47.51802" lon="6.77486">
        <ele>388</ele>
        <time>2015-10-11T09:59:37.000Z</time>
      </trkpt>
      <trkpt lat="47.51806" lon="6.77484">
        <ele>388</ele>
        <time>2015-10-11T09:59:38.000Z</time>
      </trkpt>
      <trkpt lat="47.51809" lon="6.77482">
        <ele>388</ele>
        <time>2015-10-11T09:59:39.001Z</time>
      </trkpt>
      <trkpt lat="47.51811" lon="6.77483">
        <ele>388</ele>
        <time>2015-10-11T09:59:40.000Z</time>
      </trkpt>
      <trkpt lat="47.51804" lon="6.77479">
        <ele>388</ele>
        <time>2015-10-11T09:59:41.000Z</time>
      </trkpt>
      <trkpt lat="47.51801" lon="6.77475">
        <ele>388</ele>
        <time>2015-10-11T09:59:42.000Z</time>
      </trkpt>
      <trkpt lat="47.51799" lon="6.77473">
        <ele>388</ele>
        <time>2015-10-11T09:59:43.000Z</time>
      </trkpt>
      <trkpt lat="47.51797" lon="6.77467">
        <ele>388</ele>
        <time>2015-10-11T10:03:21.000Z</time>
      </trkpt>
      <trkpt lat="47.51797" lon="6.77467">
        <ele>388</ele>
        <time>2015-10-11T10:03:22.000Z</time>
      </trkpt>
      <trkpt lat="47.51796" lon="6.77468">
        <ele>388</ele>
        <time>2015-10-11T10:05:33.000Z</time>
      </trkpt>
    </trkseg>
  </trk>
</gpx>